
Distance (Route):
Temperature : 18.3°C
Humidity : -1.0%
Pressure : -1.0hPa| Receiver | Frames | First received | Last received |
|---|---|---|---|
| DL1NUX | 710 | 2026-08-31 12:52:50 | 2026-08-31 15:16:07 |
| BIOWL1-15 | 628 | 2026-08-31 12:39:37 | 2026-08-31 15:22:57 |
| DM0DOS-11 | 594 | 2026-08-31 12:38:18 | 2026-08-31 15:20:49 |
| DL1XH-west | 540 | 2026-08-31 12:46:45 | 2026-08-31 14:52:50 |
| DO3MHA-11 | 495 | 2026-08-31 12:46:32 | 2026-08-31 14:34:55 |
| HSKMA3-T | 433 | 2026-08-31 13:05:19 | 2026-08-31 15:25:35 |
| DO3DL | 427 | 2026-08-31 13:05:53 | 2026-08-31 14:44:03 |
| GOEST3-10 | 401 | 2026-08-31 13:11:26 | 2026-08-31 14:24:58 |
| DF8AY | 371 | 2026-08-31 13:21:33 | 2026-08-31 15:20:03 |
| DO2JMG | 360 | 2026-08-31 13:03:26 | 2026-08-31 14:56:21 |
| DL1XH-15 | 335 | 2026-08-31 13:02:44 | 2026-08-31 14:44:50 |
| DB0UT-7 | 256 | 2026-08-31 12:00:35 | 2026-08-31 15:14:02 |
| AA1-15 | 254 | 2026-08-31 13:07:50 | 2026-08-31 14:29:11 |
| DF2AP-13 | 227 | 2026-08-31 13:14:28 | 2026-08-31 15:27:58 |
| DB0NH | 210 | 2026-08-31 13:06:01 | 2026-08-31 15:22:11 |
| AM1SDL-15 | 200 | 2026-08-31 13:19:40 | 2026-08-31 15:07:32 |
| DO2KSM | 167 | 2026-08-31 12:22:58 | 2026-08-31 14:47:31 |
| DL3OBA | 158 | 2026-08-31 12:57:05 | 2026-08-31 15:05:55 |
| SO1NDE-10 | 155 | 2026-08-31 12:53:27 | 2026-08-31 15:16:07 |
| NBG1-10 | 144 | 2026-08-31 12:43:57 | 2026-08-31 14:48:40 |
| DM7RM-13 | 136 | 2026-08-31 12:43:19 | 2026-08-31 14:40:58 |
| DK7TD | 131 | 2026-08-31 13:22:54 | 2026-08-31 14:20:30 |
| DD1CC2-15 | 103 | 2026-08-31 12:37:47 | 2026-08-31 14:23:40 |
| DC6BW-12 | 100 | 2026-08-31 13:01:12 | 2026-08-31 14:38:51 |
| DO8TBO-1 | 72 | 2026-08-31 13:01:11 | 2026-08-31 14:40:07 |
| DL8DAS-15 | 45 | 2026-08-31 12:28:35 | 2026-08-31 14:41:22 |
| DJTTGO | 44 | 2026-08-31 13:03:04 | 2026-08-31 14:42:46 |
| THATR2-17 | 32 | 2026-08-31 13:25:45 | 2026-08-31 15:19:39 |
| DF1GD-15 | 32 | 2026-08-31 13:46:45 | 2026-08-31 14:33:56 |
| TFSTFS | 29 | 2026-08-31 13:18:20 | 2026-08-31 14:34:24 |
| BIOWL7-15 | 29 | 2026-08-31 13:25:42 | 2026-08-31 15:14:54 |
| DL1CLM-18 | 27 | 2026-08-31 12:54:31 | 2026-08-31 14:42:19 |
| DF5WG-10 | 24 | 2026-08-31 13:46:50 | 2026-08-31 14:07:37 |
| DJ3KS | 23 | 2026-08-31 12:11:15 | 2026-08-31 14:26:54 |
| DO2SHX-10 | 23 | 2026-08-31 13:34:21 | 2026-08-31 14:08:01 |
| DH3RM | 21 | 2026-08-31 12:30:21 | 2026-08-31 12:38:36 |
| OE3JTB-15 | 18 | 2026-08-31 13:30:05 | 2026-08-31 14:04:07 |
| DL1ZP-14 | 13 | 2026-08-31 12:19:59 | 2026-08-31 14:32:02 |
| DB0ND-19 | 10 | 2026-08-31 12:08:03 | 2026-08-31 15:07:03 |
| DO1YAY-16 | 9 | 2026-08-31 12:15:04 | 2026-08-31 13:29:02 |
| SP3BTT-10 | 9 | 2026-08-31 13:50:06 | 2026-08-31 13:57:05 |
| DL8DAS-14 | 4 | 2026-08-31 12:31:11 | 2026-08-31 12:57:03 |
| BIOWL9-15 | 4 | 2026-08-31 12:43:02 | 2026-08-31 14:56:02 |
| EDDB2-12 | 4 | 2026-08-31 13:02:02 | 2026-08-31 14:33:05 |
| DG1MJG | 4 | 2026-08-31 13:47:34 | 2026-08-31 13:53:27 |
| SONCRA | 4 | 2026-08-31 14:53:07 | 2026-08-31 15:28:19 |
| DL3AQ-11 | 3 | 2026-08-31 13:21:05 | 2026-08-31 14:25:20 |
| DD1CC8 | 3 | 2026-08-31 13:21:06 | 2026-08-31 14:20:05 |
| D01LWL | 3 | 2026-08-31 13:46:03 | 2026-08-31 14:45:01 |
| WPPR-10 | 2 | 2026-08-31 12:41:08 | 2026-08-31 14:53:08 |
| BUE01 | 2 | 2026-08-31 13:04:03 | 2026-08-31 13:18:02 |
| SONDE2-11 | 1 | 2026-08-31 13:02:03 | 2026-08-31 13:02:03 |
| DJ2DS-15 | 1 | 2026-08-31 13:30:03 | 2026-08-31 13:30:03 |
| SMARD9-15 | 1 | 2026-08-31 13:41:03 | 2026-08-31 13:41:03 |
| EDDB2-11 | 1 | 2026-08-31 13:54:03 | 2026-08-31 13:54:03 |
| SMARD9-10 | 1 | 2026-08-31 13:57:59 | 2026-08-31 13:57:59 |
| DL9SK-14 | 1 | 2026-08-31 14:22:05 | 2026-08-31 14:22:05 |
| S3001 | 1 | 2026-08-31 14:31:02 | 2026-08-31 14:31:02 |
| DL2RXE-15 | 1 | 2026-08-31 14:33:18 | 2026-08-31 14:33:18 |
| Receiver | Date | Latitude | Longitude | Direction | Speed | Altitude | Climb | Temperature | Humidity | Pressure | Voltage | Killtimer | Uptime | BKT | XDATA |
|---|---|---|---|---|---|---|---|---|---|---|---|---|---|---|---|
| SONCRA | 2026-08-31 15:28:19 | 51.33377 | 10.38713 | 86° | 16km/h | 529m | -1.6m/s | 18.3°C | -1.0% | -1.0hPa | 5.2V | 00:00:00 | 00:00:00 | 00:00:00 | |
| DF2AP-13 | 2026-08-31 15:27:58 | 51.33336 | 10.38584 | 55° | 24km/h | 584m | -2.8m/s | 0°C | 0% | 0hPa | 5.2V | 00:00:00 | 00:00:00 | 00:00:00 | |
| DF2AP-13 | 2026-08-31 15:27:53 | 51.33326 | 10.38536 | 81° | 31km/h | 616m | -3.4m/s | 0°C | 0% | 0hPa | 5.2V | 00:00:00 | 00:00:00 | 00:00:00 | |
| DF2AP-13 | 2026-08-31 15:27:48 | 51.33315 | 10.38478 | 54° | 33km/h | 616m | -3.4m/s | 0°C | 0% | 0hPa | 5.2V | 00:00:00 | 00:00:00 | 00:00:00 | |
| DF2AP-13 | 2026-08-31 15:27:43 | 51.33293 | 10.38423 | 66° | 31km/h | 632m | -3.6m/s | 0°C | 0% | 0hPa | 5.2V | 00:00:00 | 00:00:00 | 00:00:00 | |
| DF2AP-13 | 2026-08-31 15:27:38 | 51.33282 | 10.38363 | 76° | 35km/h | 651m | -3.5m/s | 0°C | 0% | 0hPa | 5.2V | 00:00:00 | 00:00:00 | 00:00:00 | |
| DF2AP-13 | 2026-08-31 15:27:33 | 51.33265 | 10.38298 | 65° | 38km/h | 668m | -2.9m/s | 0°C | 0% | 0hPa | 5.2V | 00:00:00 | 00:00:00 | 00:00:00 | |
| DF2AP-13 | 2026-08-31 15:27:28 | 51.33244 | 10.38227 | 65° | 38km/h | 683m | -2.7m/s | 0°C | 0% | 0hPa | 5.2V | 00:00:00 | 00:00:00 | 00:00:00 | |
| DF2AP-13 | 2026-08-31 15:27:23 | 51.33224 | 10.38157 | 61° | 40km/h | 694m | -2.7m/s | 0°C | 0% | 0hPa | 5.2V | 00:00:00 | 00:00:00 | 00:00:00 | |
| DF2AP-13 | 2026-08-31 15:27:18 | 51.33199 | 10.38089 | 60° | 40km/h | 709m | -3.3m/s | 0°C | 0% | 0hPa | 5.2V | 00:00:00 | 00:00:00 | 00:00:00 | |
| DF2AP-13 | 2026-08-31 15:27:13 | 51.33172 | 10.38020 | 59° | 40km/h | 730m | -3.3m/s | 0°C | 0% | 0hPa | 5.2V | 00:00:00 | 00:00:00 | 00:00:00 | |
| DF2AP-13 | 2026-08-31 15:27:08 | 51.33144 | 10.37952 | 56° | 44km/h | 742m | -2.9m/s | 0°C | 0% | 0hPa | 5.2V | 00:00:00 | 00:00:00 | 00:00:00 | |
| DF2AP-13 | 2026-08-31 15:26:58 | 51.33077 | 10.37802 | 53° | 49km/h | 774m | -2.8m/s | 0°C | 0% | 0hPa | 5.2V | 00:00:00 | 00:00:00 | 00:00:00 | |
| DF2AP-13 | 2026-08-31 15:26:53 | 51.33039 | 10.37722 | 54° | 49km/h | 788m | -2.5m/s | 0°C | 0% | 0hPa | 5.2V | 00:00:00 | 00:00:00 | 00:00:00 | |
| DF2AP-13 | 2026-08-31 15:26:48 | 51.33003 | 10.37641 | 53° | 49km/h | 802m | -2.5m/s | 0°C | 0% | 0hPa | 5.2V | 00:00:00 | 00:00:00 | 00:00:00 | |
| DF2AP-13 | 2026-08-31 15:26:43 | 51.32965 | 10.37562 | 54° | 49km/h | 815m | -2.7m/s | 0°C | 0% | 0hPa | 5.2V | 00:00:00 | 00:00:00 | 00:00:00 | |
| DF2AP-13 | 2026-08-31 15:26:38 | 51.32926 | 10.37483 | 52° | 49km/h | 834m | -3.1m/s | 0°C | 0% | 0hPa | 5.2V | 00:00:00 | 00:00:00 | 00:00:00 | |
| DF2AP-13 | 2026-08-31 15:26:33 | 51.32886 | 10.37406 | 52° | 51km/h | 846m | -3.1m/s | 0°C | 0% | 0hPa | 5.2V | 00:00:00 | 00:00:00 | 00:00:00 | |
| DF2AP-13 | 2026-08-31 15:26:28 | 51.32846 | 10.37326 | 50° | 51km/h | 860m | -2.6m/s | 0°C | 0% | 0hPa | 5.2V | 00:00:00 | 00:00:00 | 00:00:00 | |
| DF2AP-13 | 2026-08-31 15:26:24 | 51.32806 | 10.37245 | 53° | 49km/h | 872m | -2.2m/s | 0°C | 0% | 0hPa | 5.2V | 00:00:00 | 00:00:00 | 00:00:00 | |
| DF2AP-13 | 2026-08-31 15:26:18 | 51.32768 | 10.37168 | 52° | 51km/h | 882m | -2.5m/s | 0°C | 0% | 0hPa | 5.2V | 00:00:00 | 00:00:00 | 00:00:00 | |
| DF2AP-13 | 2026-08-31 15:26:13 | 51.32727 | 10.37090 | 53° | 49km/h | 895m | -2.1m/s | 0°C | 0% | 0hPa | 5.2V | 00:00:00 | 00:00:00 | 00:00:00 | |
| DF2AP-13 | 2026-08-31 15:26:08 | 51.32690 | 10.37010 | 55° | 53km/h | 906m | -2.6m/s | 0°C | 0% | 0hPa | 5.2V | 00:00:00 | 00:00:00 | 00:00:00 | |
| DF2AP-13 | 2026-08-31 15:26:03 | 51.32649 | 10.36926 | 50° | 49km/h | 919m | -2.4m/s | 0°C | 0% | 0hPa | 5.2V | 00:00:00 | 00:00:00 | 00:00:00 | |
| DF2AP-13 | 2026-08-31 15:25:58 | 51.32611 | 10.36852 | 56° | 47km/h | 931m | -2.7m/s | 0°C | 0% | 0hPa | 5.2V | 00:00:00 | 00:00:00 | 00:00:00 | |
| DF2AP-13 | 2026-08-31 15:25:47 | 51.32532 | 10.36669 | 55° | 51km/h | 964m | -3.0m/s | 0°C | 0% | 0hPa | 5.2V | 00:00:00 | 00:00:00 | 00:00:00 | |
| DF2AP-13 | 2026-08-31 15:25:42 | 51.32495 | 10.36586 | 57° | 51km/h | 981m | -3.2m/s | 0°C | 0% | 0hPa | 5.2V | 00:00:00 | 00:00:00 | 00:00:00 | |
| DF2AP-13 | 2026-08-31 15:25:37 | 51.32460 | 10.36500 | 58° | 51km/h | 998m | -3.6m/s | 0°C | 0% | 0hPa | 5.2V | 00:00:00 | 00:00:00 | 00:00:00 | |
| HSKMA3-T | 2026-08-31 15:25:35 | 51.32440 | 10.36448 | 58° | 51km/h | 1006m | -4.4m/s | 0°C | 0% | 0hPa | 5.2V | 00:00:00 | 00:00:00 | 00:00:00 | |
| DF2AP-13 | 2026-08-31 15:25:31 | 51.32418 | 10.36397 | 55° | 47km/h | 1023m | -4.3m/s | 0°C | 0% | 0hPa | 5.2V | 00:00:00 | 00:00:00 | 00:00:00 | |
| DF2AP-13 | 2026-08-31 15:25:21 | 51.32355 | 10.36230 | 58° | 47km/h | 1066m | -4.3m/s | 0°C | 0% | 0hPa | 5.2V | 00:00:00 | 00:00:00 | 00:00:00 | |
| HSKMA3-T | 2026-08-31 15:25:11 | 51.32294 | 10.36062 | 62° | 49km/h | 1099m | -3.2m/s | 0°C | 0% | 0hPa | 5.2V | 00:00:00 | 00:00:00 | 00:00:00 | |
| DF2AP-13 | 2026-08-31 15:25:11 | 51.32294 | 10.36062 | 64° | 47km/h | 1103m | -3.2m/s | 0°C | 0% | 0hPa | 5.2V | 00:00:00 | 00:00:00 | 00:00:00 | |
| DF2AP-13 | 2026-08-31 15:25:01 | 51.32235 | 10.35890 | 59° | 49km/h | 1137m | -3.7m/s | 0°C | 0% | 0hPa | 5.2V | 00:00:00 | 00:00:00 | 00:00:00 | |
| HSKMA3-T | 2026-08-31 15:24:56 | 51.32198 | 10.35788 | 61° | 49km/h | 1154m | -3.3m/s | 12.3°C | 0% | 0hPa | 5.2V | 00:00:00 | 00:00:00 | 00:00:00 | |
| DF2AP-13 | 2026-08-31 15:24:51 | 51.32172 | 10.35716 | 61° | 51km/h | 1170m | -3.6m/s | 0°C | 0% | 0hPa | 5.2V | 00:00:00 | 00:00:00 | 00:00:00 | |
| DF2AP-13 | 2026-08-31 15:24:41 | 51.32109 | 10.35533 | 61° | 53km/h | 1200m | -2.4m/s | 0°C | 0% | 0hPa | 5.2V | 00:00:00 | 00:00:00 | 00:00:00 | |
| DF2AP-13 | 2026-08-31 15:24:31 | 51.32043 | 10.35347 | 62° | 53km/h | 1221m | -2.0m/s | 0°C | 0% | 0hPa | 5.2V | 00:00:00 | 00:00:00 | 00:00:00 | |
| DF2AP-13 | 2026-08-31 15:24:21 | 51.31980 | 10.35161 | 65° | 51km/h | 1239m | -0.9m/s | 0°C | 0% | 0hPa | 5.2V | 00:00:00 | 00:00:00 | 00:00:00 | |
| DF2AP-13 | 2026-08-31 15:24:11 | 51.31921 | 10.34981 | 60° | 49km/h | 1256m | -1.8m/s | 0°C | 0% | 0hPa | 5.2V | 00:00:00 | 00:00:00 | 00:00:00 | |
| HSKMA3-T | 2026-08-31 15:24:10 | 51.31915 | 10.34964 | 62° | 47km/h | 1256m | -1.9m/s | 11.6°C | 0% | 0hPa | 5.2V | 00:00:00 | 00:00:00 | 00:00:00 | |
| DF2AP-13 | 2026-08-31 15:24:01 | 51.31866 | 10.34802 | 64° | 47km/h | 1274m | -1.7m/s | 0°C | 0% | 0hPa | 5.2V | 00:00:00 | 00:00:00 | 00:00:00 | |
| HSKMA3-T | 2026-08-31 15:23:53 | 51.31819 | 10.34644 | 62° | 49km/h | 1288m | -1.9m/s | 11.2°C | 0% | 0hPa | 5.2V | 00:00:00 | 00:00:00 | 00:00:00 | |
| DF2AP-13 | 2026-08-31 15:23:51 | 51.31814 | 10.34627 | 63° | 49km/h | 1292m | -1.8m/s | 0°C | 0% | 0hPa | 5.2V | 00:00:00 | 00:00:00 | 00:00:00 | |
| DF2AP-13 | 2026-08-31 15:23:41 | 51.31756 | 10.34449 | 66° | 49km/h | 1314m | -2.0m/s | 0°C | 0% | 0hPa | 5.2V | 00:00:00 | 00:00:00 | 00:00:00 | |
| HSKMA3-T | 2026-08-31 15:23:40 | 51.31746 | 10.34411 | 65° | 53km/h | 1316m | -2.2m/s | 10.9°C | 0% | 0hPa | 5.2V | 00:00:00 | 00:00:00 | 00:00:00 | |
| DF2AP-13 | 2026-08-31 15:23:31 | 51.31701 | 10.34267 | 65° | 51km/h | 1336m | -2.0m/s | 0°C | 0% | 0hPa | 5.2V | 00:00:00 | 00:00:00 | 00:00:00 | |
| HSKMA3-T | 2026-08-31 15:23:30 | 51.31689 | 10.34229 | 63° | 53km/h | 1338m | -2m/s | 10.7°C | 0% | 0hPa | 5.2V | 00:00:00 | 00:00:00 | 00:00:00 | |
| DF2AP-13 | 2026-08-31 15:23:20 | 51.31638 | 10.34060 | 66° | 53km/h | 1362m | -2.9m/s | 0°C | 0% | 0hPa | 5.2V | 00:00:00 | 00:00:00 | 00:00:00 | |
| HSKMA3-T | 2026-08-31 15:23:19 | 51.31627 | 10.34023 | 63° | 51km/h | 1365m | -2.9m/s | 10.5°C | 0% | 0hPa | 5.2V | 00:00:00 | 00:00:00 | 00:00:00 | |
| DF2AP-13 | 2026-08-31 15:23:10 | 51.31577 | 10.33868 | 64° | 55km/h | 1392m | -2.7m/s | 0°C | 0% | 0hPa | 5.2V | 00:00:00 | 00:00:00 | 00:00:00 | |
| HSKMA3-T | 2026-08-31 15:23:08 | 51.31559 | 10.33809 | 64° | 55km/h | 1398m | -2.8m/s | 10.4°C | 0% | 0hPa | 5.2V | 00:00:00 | 00:00:00 | 00:00:00 | |
| DF2AP-13 | 2026-08-31 15:23:00 | 51.31514 | 10.33673 | 64° | 55km/h | 1420m | -2.5m/s | 0°C | 0% | 0hPa | 5.2V | 00:00:00 | 00:00:00 | 00:00:00 | |
| HSKMA3-T | 2026-08-31 15:22:57 | 51.31489 | 10.33592 | 62° | 57km/h | 1428m | -2.7m/s | 10.1°C | 0% | 0hPa | 5.2V | 00:00:00 | 00:00:00 | 00:00:00 | |
| BIOWL1-15 | 2026-08-31 15:22:57 | 51.31476 | 10.33552 | 63° | 55km/h | 1433m | -2.5m/s | 10°C | 0% | 0hPa | 5.2V | 00:00:00 | 00:00:00 | 00:00:00 | |
| DF2AP-13 | 2026-08-31 15:22:50 | 51.31450 | 10.33473 | 63° | 57km/h | 1446m | -2.4m/s | 0°C | 0% | 0hPa | 5.2V | 00:00:00 | 00:00:00 | 00:00:00 | |
| BIOWL1-15 | 2026-08-31 15:22:48 | 51.31405 | 10.33329 | 64° | 130km/h | 1461m | -2.4m/s | 9.8°C | 0% | 0hPa | 5.2V | 00:00:00 | 00:00:00 | 00:00:00 | |
| HSKMA3-T | 2026-08-31 15:22:46 | 51.31424 | 10.33392 | 64° | 57km/h | 1454m | -2.5m/s | 9.9°C | 0% | 0hPa | 5.2V | 00:00:00 | 00:00:00 | 00:00:00 | |
| BIOWL1-15 | 2026-08-31 15:22:41 | 51.31392 | 10.33288 | 66° | 58km/h | 1466m | -2.5m/s | 9.8°C | 0% | 0hPa | 5.2V | 00:00:00 | 00:00:00 | 00:00:00 | |
| BIOWL1-15 | 2026-08-31 15:22:40 | 51.31379 | 10.33245 | 63° | 58km/h | 1471m | -2.5m/s | 9.7°C | 0% | 0hPa | 5.2V | 00:00:00 | 00:00:00 | 00:00:00 | |
| DF2AP-13 | 2026-08-31 15:22:40 | 51.31386 | 10.33266 | 63° | 58km/h | 1471m | -2.4m/s | 0°C | 0% | 0hPa | 5.2V | 00:00:00 | 00:00:00 | 00:00:00 | |
| HSKMA3-T | 2026-08-31 15:22:36 | 51.31352 | 10.33161 | 62° | 58km/h | 1482m | -2.8m/s | 9.7°C | 0% | 0hPa | 5.2V | 00:00:00 | 00:00:00 | 00:00:00 | |
| DF2AP-13 | 2026-08-31 15:22:30 | 51.31320 | 10.33056 | 65° | 58km/h | 1498m | -2.6m/s | 0°C | 0% | 0hPa | 5.2V | 00:00:00 | 00:00:00 | 00:00:00 | |
| HSKMA3-T | 2026-08-31 15:22:25 | 51.31280 | 10.32928 | 62° | 58km/h | 1512m | -2.5m/s | 9.5°C | 0% | 0hPa | 5.2V | 00:00:00 | 00:00:00 | 00:00:00 | |
| BIOWL1-15 | 2026-08-31 15:22:24 | 51.31273 | 10.32907 | 62° | 60km/h | 1514m | -2.5m/s | 9.4°C | 0% | 0hPa | 5.2V | 00:00:00 | 00:00:00 | 00:00:00 | |
| BIOWL1-15 | 2026-08-31 15:22:23 | 51.31258 | 10.32865 | 62° | 58km/h | 1519m | -2.4m/s | 9.4°C | 0% | 0hPa | 5.2V | 00:00:00 | 00:00:00 | 00:00:00 | |
| DF2AP-13 | 2026-08-31 15:22:20 | 51.31251 | 10.32844 | 64° | 58km/h | 1524m | -2.4m/s | 0°C | 0% | 0hPa | 5.2V | 00:00:00 | 00:00:00 | 00:00:00 | |
| BIOWL1-15 | 2026-08-31 15:22:18 | 51.31239 | 10.32801 | 64° | 60km/h | 1527m | -2.6m/s | 9.2°C | 0% | 0hPa | 5.2V | 00:00:00 | 00:00:00 | 00:00:00 | |
| BIOWL1-15 | 2026-08-31 15:22:16 | 51.31219 | 10.32737 | 64° | 58km/h | 1534m | -2.3m/s | 9.2°C | 0% | 0hPa | 5.2V | 00:00:00 | 00:00:00 | 00:00:00 | |
| HSKMA3-T | 2026-08-31 15:22:14 | 51.31206 | 10.32695 | 63° | 58km/h | 1538m | -2.1m/s | 9.2°C | 0% | 0hPa | 5.2V | 00:00:00 | 00:00:00 | 00:00:00 | |
| BIOWL1-15 | 2026-08-31 15:22:12 | 51.31192 | 10.32653 | 63° | 57km/h | 1543m | -2.3m/s | 9.1°C | 0% | 0hPa | 5.2V | 00:00:00 | 00:00:00 | 00:00:00 | |
| DB0NH | 2026-08-31 15:22:11 | 51.31192 | 10.32653 | 64° | 58km/h | 1545m | -2.2m/s | 0°C | 0% | 0hPa | 5.2V | 00:00:00 | 00:00:00 | 00:00:00 | |
| DF2AP-13 | 2026-08-31 15:22:10 | 51.31186 | 10.32632 | 64° | 60km/h | 1547m | -2.4m/s | 0°C | 0% | 0hPa | 5.2V | 00:00:00 | 00:00:00 | 00:00:00 | |
| BIOWL1-15 | 2026-08-31 15:22:10 | 51.31179 | 10.32611 | 64° | 58km/h | 1547m | -2.5m/s | 9.1°C | 0% | 0hPa | 5.2V | 00:00:00 | 00:00:00 | 00:00:00 | |
| BIOWL1-15 | 2026-08-31 15:22:08 | 51.31166 | 10.32568 | 62° | 58km/h | 1552m | -2.3m/s | 9°C | 0% | 0hPa | 5.1V | 00:00:00 | 00:00:00 | 00:00:00 | |
| BIOWL1-15 | 2026-08-31 15:22:07 | 51.31152 | 10.32525 | 64° | 60km/h | 1557m | -2.4m/s | 8.9°C | 0% | 0hPa | 5.1V | 00:00:00 | 00:00:00 | 00:00:00 | |
| HSKMA3-T | 2026-08-31 15:22:04 | 51.31139 | 10.32482 | 63° | 60km/h | 1561m | -2.6m/s | 8.9°C | 0% | 0hPa | 5.1V | 00:00:00 | 00:00:00 | 00:00:00 | |
| BIOWL1-15 | 2026-08-31 15:22:03 | 51.31126 | 10.32439 | 65° | 60km/h | 1566m | -2.4m/s | 8.9°C | 0% | 0hPa | 5.1V | 00:00:00 | 00:00:00 | 00:00:00 | |
| BIOWL1-15 | 2026-08-31 15:22:03 | 51.31119 | 10.32417 | 65° | 60km/h | 1569m | -2.5m/s | 8.9°C | 0% | 0hPa | 5.1V | 00:00:00 | 00:00:00 | 00:00:00 | |
| DB0NH | 2026-08-31 15:22:01 | 51.31125 | 10.32438 | 66° | 60km/h | 1566m | -2.4m/s | 0°C | 0% | 0hPa | 5.1V | 00:00:00 | 00:00:00 | 00:00:00 | |
| DF2AP-13 | 2026-08-31 15:22:00 | 51.31119 | 10.32417 | 65° | 60km/h | 1572m | -2.3m/s | 0°C | 0% | 0hPa | 5.1V | 00:00:00 | 00:00:00 | 00:00:00 | |
| BIOWL1-15 | 2026-08-31 15:21:59 | 51.31107 | 10.32373 | 66° | 58km/h | 1574m | -2.5m/s | 8.8°C | 0% | 0hPa | 5.1V | 00:00:00 | 00:00:00 | 00:00:00 | |
| BIOWL1-15 | 2026-08-31 15:21:57 | 51.31094 | 10.32329 | 65° | 60km/h | 1579m | -2.3m/s | 8.8°C | 0% | 0hPa | 5.1V | 00:00:00 | 00:00:00 | 00:00:00 | |
| BIOWL1-15 | 2026-08-31 15:21:54 | 51.31081 | 10.32285 | 64° | 58km/h | 1584m | -2.4m/s | 8.7°C | 0% | 0hPa | 5.1V | 00:00:00 | 00:00:00 | 00:00:00 | |
| BIOWL1-15 | 2026-08-31 15:21:52 | 51.31068 | 10.32242 | 65° | 60km/h | 1589m | -2.3m/s | 8.7°C | 0% | 0hPa | 5.1V | 00:00:00 | 00:00:00 | 00:00:00 | |
| DB0NH | 2026-08-31 15:21:51 | 51.31061 | 10.32220 | 65° | 60km/h | 1593m | -2.4m/s | 0°C | 0% | 0hPa | 5.2V | 00:00:00 | 00:00:00 | 00:00:00 | |
| BIOWL1-15 | 2026-08-31 15:21:51 | 51.31054 | 10.32198 | 64° | 60km/h | 1593m | -2.5m/s | 8.6°C | 0% | 0hPa | 5.2V | 00:00:00 | 00:00:00 | 00:00:00 | |
| DF2AP-13 | 2026-08-31 15:21:50 | 51.31054 | 10.32198 | 65° | 60km/h | 1596m | -2.3m/s | 0°C | 0% | 0hPa | 5.2V | 00:00:00 | 00:00:00 | 00:00:00 | |
| BIOWL1-15 | 2026-08-31 15:21:48 | 51.31036 | 10.32132 | 66° | 60km/h | 1601m | -2.4m/s | 8.6°C | 0% | 0hPa | 5.2V | 00:00:00 | 00:00:00 | 00:00:00 | |
| BIOWL1-15 | 2026-08-31 15:21:46 | 51.31023 | 10.32088 | 66° | 60km/h | 1605m | -2.5m/s | 8.6°C | 0% | 0hPa | 5.2V | 00:00:00 | 00:00:00 | 00:00:00 | |
| BIOWL1-15 | 2026-08-31 15:21:44 | 51.30991 | 10.31978 | 65° | 60km/h | 1617m | -2.4m/s | 8.4°C | 0% | 0hPa | 5.2V | 00:00:00 | 00:00:00 | 00:00:00 | |
| BIOWL1-15 | 2026-08-31 15:21:44 | 51.30985 | 10.31956 | 65° | 60km/h | 1620m | -2.4m/s | 8.4°C | 0% | 0hPa | 5.2V | 00:00:00 | 00:00:00 | 00:00:00 | |
| HSKMA3-T | 2026-08-31 15:21:42 | 51.30997 | 10.32000 | 64° | 60km/h | 1615m | -2.4m/s | 8.5°C | 0% | 0hPa | 5.2V | 00:00:00 | 00:00:00 | 00:00:00 | |
| DB0NH | 2026-08-31 15:21:41 | 51.30997 | 10.32000 | 65° | 60km/h | 1617m | -2.3m/s | 0°C | 0% | 0hPa | 5.2V | 00:00:00 | 00:00:00 | 00:00:00 | |
| DF2AP-13 | 2026-08-31 15:21:40 | 51.30991 | 10.31978 | 65° | 60km/h | 1620m | -2.3m/s | 0°C | 0% | 0hPa | 5.2V | 00:00:00 | 00:00:00 | 00:00:00 | |
| BIOWL1-15 | 2026-08-31 15:21:38 | 51.30972 | 10.31912 | 66° | 60km/h | 1625m | -2.5m/s | 8.4°C | 0% | 0hPa | 5.2V | 00:00:00 | 00:00:00 | 00:00:00 | |
| BIOWL1-15 | 2026-08-31 15:21:37 | 51.30960 | 10.31867 | 67° | 60km/h | 1630m | -2.7m/s | 8.4°C | 0% | 0hPa | 5.2V | 00:00:00 | 00:00:00 | 00:00:00 | |
| BIOWL1-15 | 2026-08-31 15:21:33 | 51.30941 | 10.31801 | 66° | 58km/h | 1638m | -2.6m/s | 8.3°C | 0% | 0hPa | 5.2V | 00:00:00 | 00:00:00 | 00:00:00 | |
| BIOWL1-15 | 2026-08-31 15:21:31 | 51.30929 | 10.31756 | 65° | 60km/h | 1643m | -2.4m/s | 8.2°C | 0% | 0hPa | 5.2V | 00:00:00 | 00:00:00 | 00:00:00 | |
| DB0NH | 2026-08-31 15:21:31 | 51.30935 | 10.31778 | 66° | 62km/h | 1643m | -2.3m/s | 0°C | 0% | 0hPa | 5.2V | 00:00:00 | 00:00:00 | 00:00:00 | |
| DF2AP-13 | 2026-08-31 15:21:30 | 51.30929 | 10.31756 | 66° | 62km/h | 1645m | -2.4m/s | 0°C | 0% | 0hPa | 5.2V | 00:00:00 | 00:00:00 | 00:00:00 | |
| BIOWL1-15 | 2026-08-31 15:21:27 | 51.30896 | 10.31643 | 65° | 62km/h | 1655m | -2.8m/s | 8.1°C | 0% | 0hPa | 5.2V | 00:00:00 | 00:00:00 | 00:00:00 | |
| BIOWL1-15 | 2026-08-31 15:21:27 | 51.30890 | 10.31621 | 66° | 60km/h | 1658m | -2.5m/s | 8.1°C | 0% | 0hPa | 5.2V | 00:00:00 | 00:00:00 | 00:00:00 | |
| BIOWL1-15 | 2026-08-31 15:21:23 | 51.30877 | 10.31576 | 66° | 62km/h | 1663m | -2.8m/s | 8°C | 0% | 0hPa | 5.2V | 00:00:00 | 00:00:00 | 00:00:00 | |
| BIOWL1-15 | 2026-08-31 15:21:22 | 51.30865 | 10.31531 | 66° | 60km/h | 1669m | -2.7m/s | 8°C | 0% | 0hPa | 5.2V | 00:00:00 | 00:00:00 | 00:00:00 | |
| DB0NH | 2026-08-31 15:21:21 | 51.30871 | 10.31553 | 66° | 60km/h | 1669m | -2.6m/s | 0°C | 0% | 0hPa | 5.2V | 00:00:00 | 00:00:00 | 00:00:00 | |
| HSKMA3-T | 2026-08-31 15:21:20 | 51.30858 | 10.31509 | 67° | 60km/h | 1672m | -2.9m/s | 7.9°C | 0% | 0hPa | 5.2V | 00:00:00 | 00:00:00 | 00:00:00 | |
| DF2AP-13 | 2026-08-31 15:21:20 | 51.30864 | 10.31532 | 67° | 60km/h | 1672m | -2.9m/s | 0°C | 0% | 0hPa | 5.2V | 00:00:00 | 00:00:00 | 00:00:00 | |
| BIOWL1-15 | 2026-08-31 15:21:18 | 51.30852 | 10.31486 | 67° | 62km/h | 1675m | -2.7m/s | 7.9°C | 0% | 0hPa | 5.2V | 00:00:00 | 00:00:00 | 00:00:00 | |
| BIOWL1-15 | 2026-08-31 15:21:14 | 51.30809 | 10.31327 | 67° | 62km/h | 1693m | -2.9m/s | 7.7°C | 0% | 0hPa | 5.2V | 00:00:00 | 00:00:00 | 00:00:00 | |
| DB0NH | 2026-08-31 15:21:11 | 51.30809 | 10.31327 | 68° | 64km/h | 1696m | -2.8m/s | 0°C | 0% | 0hPa | 5.2V | 00:00:00 | 00:00:00 | 00:00:00 | |
| DF2AP-13 | 2026-08-31 15:21:10 | 51.30803 | 10.31304 | 67° | 64km/h | 1699m | -2.7m/s | 0°C | 0% | 0hPa | 5.2V | 00:00:00 | 00:00:00 | 00:00:00 | |
| HSKMA3-T | 2026-08-31 15:21:10 | 51.30797 | 10.31281 | 66° | 62km/h | 1699m | -2.8m/s | 7.7°C | 0% | 0hPa | 5.2V | 00:00:00 | 00:00:00 | 00:00:00 | |
| BIOWL1-15 | 2026-08-31 15:21:07 | 51.30771 | 10.31186 | 66° | 64km/h | 1711m | -3.2m/s | 7.5°C | 0% | 0hPa | 5.2V | 00:00:00 | 00:00:00 | 00:00:00 | |
| BIOWL1-15 | 2026-08-31 15:21:07 | 51.30764 | 10.31162 | 67° | 64km/h | 1715m | -3.1m/s | 7.5°C | 0% | 0hPa | 5.2V | 00:00:00 | 00:00:00 | 00:00:00 | |
| BIOWL1-15 | 2026-08-31 15:21:03 | 51.30745 | 10.31089 | 67° | 66km/h | 1724m | -3.1m/s | 7.4°C | 0% | 0hPa | 5.2V | 00:00:00 | 00:00:00 | 00:00:00 | |
| BIOWL1-15 | 2026-08-31 15:21:03 | 51.30739 | 10.31064 | 68° | 66km/h | 1727m | -3.3m/s | 7.4°C | 0% | 0hPa | 5.2V | 00:00:00 | 00:00:00 | 00:00:00 | |
| DB0NH | 2026-08-31 15:21:01 | 51.30745 | 10.31089 | 68° | 66km/h | 1727m | -3.2m/s | 0°C | 0% | 0hPa | 5.2V | 00:00:00 | 00:00:00 | 00:00:00 | |
| DF2AP-13 | 2026-08-31 15:21:00 | 51.30739 | 10.31064 | 68° | 66km/h | 1731m | -3.2m/s | 0°C | 0% | 0hPa | 5.2V | 00:00:00 | 00:00:00 | 00:00:00 | |
| BIOWL1-15 | 2026-08-31 15:20:58 | 51.30726 | 10.31015 | 68° | 68km/h | 1734m | -3.1m/s | 7.4°C | 0% | 0hPa | 5.2V | 00:00:00 | 00:00:00 | 00:00:00 | |
| BIOWL1-15 | 2026-08-31 15:20:56 | 51.30713 | 10.30966 | 67° | 64km/h | 1740m | -3m/s | 7.3°C | 0% | 0hPa | 5.2V | 00:00:00 | 00:00:00 | 00:00:00 | |
| BIOWL1-15 | 2026-08-31 15:20:54 | 51.30686 | 10.30871 | 64° | 64km/h | 1753m | -3.5m/s | 7.3°C | 0% | 0hPa | 5.1V | 00:00:00 | 00:00:00 | 00:00:00 | |
| BIOWL1-15 | 2026-08-31 15:20:54 | 51.30679 | 10.30848 | 65° | 64km/h | 1756m | -3.3m/s | 7.2°C | 0% | 0hPa | 5.1V | 00:00:00 | 00:00:00 | 00:00:00 | |
| DB0NH | 2026-08-31 15:20:51 | 51.30679 | 10.30848 | 65° | 68km/h | 1759m | -3.2m/s | 0°C | 0% | 0hPa | 0V | 00:00:00 | 00:00:00 | 00:00:00 | |
| DF2AP-13 | 2026-08-31 15:20:50 | 51.30671 | 10.30824 | 65° | 69km/h | 1763m | -3.1m/s | 0°C | 0% | 0hPa | 0V | 00:00:00 | 00:00:00 | 00:00:00 | |
| DM0DOS-11 | 2026-08-31 15:20:49 | 51.30664 | 10.30800 | 64° | 68km/h | 1769m | -3m/s | 0°C | 0% | 0hPa | 0V | 00:00:00 | 00:00:00 | 00:00:00 | |
| DM0DOS-11 | 2026-08-31 15:20:49 | 51.30650 | 10.30751 | 66° | 68km/h | 1775m | -3.1m/s | 0°C | 0% | 0hPa | 0V | 00:00:00 | 00:00:00 | 00:00:00 | |
| HSKMA3-T | 2026-08-31 15:20:48 | 51.30650 | 10.30751 | 66° | 68km/h | 1769m | -3m/s | 7°C | 0% | 0hPa | 5.1V | 00:00:00 | 00:00:00 | 00:00:00 | |
| BIOWL1-15 | 2026-08-31 15:20:46 | 51.30637 | 10.30699 | 68° | 69km/h | 1775m | -3.1m/s | 7°C | 0% | 0hPa | 5.1V | 00:00:00 | 00:00:00 | 00:00:00 | |
| DM0DOS-11 | 2026-08-31 15:20:43 | 51.30616 | 10.30620 | 67° | 71km/h | 1789m | -2.8m/s | 0°C | 0% | 0hPa | 0V | 00:00:00 | 00:00:00 | 00:00:00 | |
| BIOWL1-15 | 2026-08-31 15:20:42 | 51.30610 | 10.30594 | 67° | 71km/h | 1786m | -2.9m/s | 7°C | 0% | 0hPa | 5.1V | 00:00:00 | 00:00:00 | 00:00:00 | |
| BIOWL1-15 | 2026-08-31 15:20:41 | 51.30595 | 10.30544 | 65° | 66km/h | 1792m | -2.7m/s | 7°C | 0% | 0hPa | 5.1V | 00:00:00 | 00:00:00 | 00:00:00 | |
| DB0NH | 2026-08-31 15:20:41 | 51.30610 | 10.30594 | 67° | 69km/h | 1789m | -2.8m/s | 0°C | 0% | 0hPa | 0V | 00:00:00 | 00:00:00 | 00:00:00 | |
| DF2AP-13 | 2026-08-31 15:20:40 | 51.30602 | 10.30568 | 65° | 69km/h | 1792m | -2.7m/s | 0°C | 0% | 0hPa | 0V | 00:00:00 | 00:00:00 | 00:00:00 | |
| DM0DOS-11 | 2026-08-31 15:20:37 | 51.30561 | 10.30419 | 67° | 69km/h | 1812m | -2.7m/s | 0°C | 0% | 0hPa | 0V | 00:00:00 | 00:00:00 | 00:00:00 | |
| DM0DOS-11 | 2026-08-31 15:20:37 | 51.30548 | 10.30367 | 67° | 71km/h | 1814m | -2.4m/s | 0°C | 0% | 0hPa | 0V | 00:00:00 | 00:00:00 | 00:00:00 | |
| BIOWL1-15 | 2026-08-31 15:20:37 | 51.30575 | 10.30470 | 67° | 68km/h | 1801m | -2.9m/s | 6.9°C | 0% | 0hPa | 5.1V | 00:00:00 | 00:00:00 | 00:00:00 | |
| BIOWL1-15 | 2026-08-31 15:20:35 | 51.30561 | 10.30419 | 68° | 69km/h | 1807m | -2.8m/s | 6.9°C | 0% | 0hPa | 5.1V | 00:00:00 | 00:00:00 | 00:00:00 | |
| BIOWL1-15 | 2026-08-31 15:20:33 | 51.30548 | 10.30367 | 68° | 71km/h | 1812m | -2.7m/s | 7°C | 0% | 0hPa | 5.1V | 00:00:00 | 00:00:00 | 00:00:00 | |
| DM0DOS-11 | 2026-08-31 15:20:31 | 51.30534 | 10.30314 | 67° | 69km/h | 1819m | -2.5m/s | 0°C | 0% | 0hPa | 0V | 00:00:00 | 00:00:00 | 00:00:00 | |
| DM0DOS-11 | 2026-08-31 15:20:31 | 51.30521 | 10.30262 | 68° | 69km/h | 1825m | -2.4m/s | 0°C | 0% | 0hPa | 0V | 00:00:00 | 00:00:00 | 00:00:00 | |
| DM0DOS-11 | 2026-08-31 15:20:31 | 51.30507 | 10.30211 | 67° | 68km/h | 1832m | -2.4m/s | 0°C | 0% | 0hPa | 0V | 00:00:00 | 00:00:00 | 00:00:00 | |
| BIOWL1-15 | 2026-08-31 15:20:31 | 51.30521 | 10.30262 | 68° | 69km/h | 1822m | -2.7m/s | 6.8°C | 0% | 0hPa | 5.1V | 00:00:00 | 00:00:00 | 00:00:00 | |
| DB0NH | 2026-08-31 15:20:31 | 51.30540 | 10.30339 | 69° | 69km/h | 1817m | -2.5m/s | 0°C | 0% | 0hPa | 5.1V | 00:00:00 | 00:00:00 | 00:00:00 | |
| DF2AP-13 | 2026-08-31 15:20:30 | 51.30534 | 10.30314 | 68° | 69km/h | 1819m | -2.5m/s | 0°C | 0% | 0hPa | 5.1V | 00:00:00 | 00:00:00 | 00:00:00 | |
| BIOWL1-15 | 2026-08-31 15:20:27 | 51.30507 | 10.30211 | 67° | 68km/h | 1827m | -2.6m/s | 6.8°C | 0% | 0hPa | 5.1V | 00:00:00 | 00:00:00 | 00:00:00 | |
| DM0DOS-11 | 2026-08-31 15:20:25 | 51.30495 | 10.30161 | 67° | 69km/h | 1837m | -2.3m/s | 0°C | 0% | 0hPa | 0V | 00:00:00 | 00:00:00 | 00:00:00 | |
| BIOWL1-15 | 2026-08-31 15:20:24 | 51.30488 | 10.30135 | 67° | 69km/h | 1834m | -2.4m/s | 6.6°C | 0% | 0hPa | 5.1V | 00:00:00 | 00:00:00 | 00:00:00 | |
| BIOWL1-15 | 2026-08-31 15:20:22 | 51.30474 | 10.30082 | 68° | 71km/h | 1839m | -2.3m/s | 6.4°C | 0% | 0hPa | 5.1V | 00:00:00 | 00:00:00 | 00:00:00 | |
| BIOWL1-15 | 2026-08-31 15:20:20 | 51.30461 | 10.30029 | 67° | 69km/h | 1844m | -2.4m/s | 6.3°C | 0% | 0hPa | 5.1V | 00:00:00 | 00:00:00 | 00:00:00 | |
| DB0NH | 2026-08-31 15:20:19 | 51.30461 | 10.30029 | 68° | 68km/h | 1847m | -2.2m/s | 0°C | 0% | 0hPa | 5.1V | 00:00:00 | 00:00:00 | 00:00:00 | |
| BIOWL1-15 | 2026-08-31 15:20:18 | 51.30448 | 10.29978 | 67° | 68km/h | 1849m | -2.2m/s | 6.3°C | 0% | 0hPa | 5.1V | 00:00:00 | 00:00:00 | 00:00:00 | |
| DM0DOS-11 | 2026-08-31 15:20:17 | 51.30435 | 10.29928 | 66° | 68km/h | 1865m | -2.1m/s | 0°C | 0% | 0hPa | 0V | 00:00:00 | 00:00:00 | 00:00:00 | |
| HSKMA3-T | 2026-08-31 15:20:15 | 51.30435 | 10.29928 | 67° | 68km/h | 1854m | -2.4m/s | 6.3°C | 0% | 0hPa | 5.1V | 00:00:00 | 00:00:00 | 00:00:00 | |
| BIOWL1-15 | 2026-08-31 15:20:14 | 51.30421 | 10.29879 | 68° | 66km/h | 1858m | -2.3m/s | 6.2°C | 0% | 0hPa | 5.1V | 00:00:00 | 00:00:00 | 00:00:00 | |
| BIOWL1-15 | 2026-08-31 15:20:12 | 51.30409 | 10.29829 | 68° | 68km/h | 1863m | -2.3m/s | 6.2°C | 0% | 0hPa | 5.1V | 00:00:00 | 00:00:00 | 00:00:00 | |
| DM0DOS-11 | 2026-08-31 15:20:11 | 51.30395 | 10.29779 | 68° | 68km/h | 1869m | -1.9m/s | 0°C | 0% | 0hPa | 0V | 00:00:00 | 00:00:00 | 00:00:00 | |
| DM0DOS-11 | 2026-08-31 15:20:11 | 51.30376 | 10.29703 | 67° | 68km/h | 1876m | -2.2m/s | 0°C | 0% | 0hPa | 0V | 00:00:00 | 00:00:00 | 00:00:00 | |
| DF2AP-13 | 2026-08-31 15:20:10 | 51.30402 | 10.29803 | 67° | 68km/h | 1868m | -2.1m/s | 0°C | 0% | 0hPa | 5.1V | 00:00:00 | 00:00:00 | 00:00:00 | |
| BIOWL1-15 | 2026-08-31 15:20:09 | 51.30395 | 10.29778 | 67° | 68km/h | 1868m | -2.2m/s | 6.2°C | 0% | 0hPa | 5.1V | 00:00:00 | 00:00:00 | 00:00:00 | |
| DB0NH | 2026-08-31 15:20:09 | 51.30395 | 10.29779 | 69° | 68km/h | 1870m | -1.9m/s | 0°C | 0% | 0hPa | 0V | 00:00:00 | 00:00:00 | 00:00:00 | |
| DM0DOS-11 | 2026-08-31 15:20:05 | 51.30363 | 10.29653 | 68° | 66km/h | 1881m | -2.3m/s | 0°C | 0% | 0hPa | 0V | 00:00:00 | 00:00:00 | 00:00:00 | |
| DM0DOS-11 | 2026-08-31 15:20:05 | 51.30350 | 10.29603 | 67° | 66km/h | 1885m | -2.3m/s | 0°C | 0% | 0hPa | 0V | 00:00:00 | 00:00:00 | 00:00:00 | |
| DM0DOS-11 | 2026-08-31 15:20:05 | 51.30338 | 10.29554 | 67° | 66km/h | 1890m | -2.4m/s | 0°C | 0% | 0hPa | 0V | 00:00:00 | 00:00:00 | 00:00:00 | |
| DF8AY | 2026-08-31 15:20:03 | 51.30351 | 10.29603 | 67° | 66km/h | 1883m | -2.4m/s | 6.1°C | 0% | 0hPa | 5.1V | 00:00:00 | 00:00:00 | 00:00:00 | |
| SONCRA | 2026-08-31 15:20:02 | 51.30344 | 10.29578 | 67° | 66km/h | 1885m | -2.3m/s | 6.1°C | -1.0% | -1.0hPa | 5.1V | 00:00:00 | 00:00:00 | 00:00:00 | |
| DF8AY | 2026-08-31 15:20:01 | 51.30338 | 10.29554 | 68° | 66km/h | 1888m | -2.5m/s | 6.2°C | 0% | 0hPa | 5.1V | 00:00:00 | 00:00:00 | 00:00:00 | |
| DF2AP-13 | 2026-08-31 15:20:00 | 51.30338 | 10.29553 | 68° | 68km/h | 1890m | -2.3m/s | 0°C | 0% | 0hPa | 5.1V | 00:00:00 | 00:00:00 | 00:00:00 | |
| DB0NH | 2026-08-31 15:19:59 | 51.30331 | 10.29529 | 69° | 68km/h | 1893m | -2.4m/s | 0°C | 0% | 0hPa | 5.1V | 00:00:00 | 00:00:00 | 00:00:00 | |
| BIOWL1-15 | 2026-08-31 15:19:59 | 51.30325 | 10.29503 | 68° | 69km/h | 1893m | -2.5m/s | 6.2°C | 0% | 0hPa | 5.1V | 00:00:00 | 00:00:00 | 00:00:00 | |
| BIOWL1-15 | 2026-08-31 15:19:56 | 51.30305 | 10.29427 | 68° | 68km/h | 1900m | -2.6m/s | 6.1°C | 0% | 0hPa | 5.1V | 00:00:00 | 00:00:00 | 00:00:00 | |
| BIOWL1-15 | 2026-08-31 15:19:54 | 51.30292 | 10.29377 | 66° | 66km/h | 1904m | -2.6m/s | 6°C | 0% | 0hPa | 5.1V | 00:00:00 | 00:00:00 | 00:00:00 | |
| DM0DOS-11 | 2026-08-31 15:19:52 | 51.30254 | 10.29227 | 69° | 69km/h | 1935m | -3m/s | 0°C | 0% | 0hPa | 0V | 00:00:00 | 00:00:00 | 00:00:00 | |
| BIOWL1-15 | 2026-08-31 15:19:52 | 51.30279 | 10.29328 | 69° | 66km/h | 1910m | -2.5m/s | 6°C | 0% | 0hPa | 5.1V | 00:00:00 | 00:00:00 | 00:00:00 | |
| BIOWL1-15 | 2026-08-31 15:19:50 | 51.30267 | 10.29279 | 69° | 66km/h | 1914m | -2.2m/s | 5.9°C | 0% | 0hPa | 5.1V | 00:00:00 | 00:00:00 | 00:00:00 | |
| DF2AP-13 | 2026-08-31 15:19:50 | 51.30273 | 10.29304 | 69° | 69km/h | 1914m | -2.2m/s | 0°C | 0% | 0hPa | 5.1V | 00:00:00 | 00:00:00 | 00:00:00 | |
| DB0NH | 2026-08-31 15:19:49 | 51.30267 | 10.29279 | 69° | 71km/h | 1917m | -2.3m/s | 0°C | 0% | 0hPa | 5.1V | 00:00:00 | 00:00:00 | 00:00:00 | |
| BIOWL1-15 | 2026-08-31 15:19:47 | 51.30255 | 10.29227 | 69° | 69km/h | 1919m | -2.4m/s | 5.8°C | 0% | 0hPa | 5.1V | 00:00:00 | 00:00:00 | 00:00:00 | |
| BIOWL1-15 | 2026-08-31 15:19:46 | 51.30241 | 10.29174 | 67° | 71km/h | 1924m | -2.3m/s | 5.8°C | 0% | 0hPa | 5.1V | 00:00:00 | 00:00:00 | 00:00:00 | |
| DM0DOS-11 | 2026-08-31 15:19:45 | 51.30206 | 10.29041 | 66° | 71km/h | 1944m | -2.9m/s | 0°C | 0% | 0hPa | 0V | 00:00:00 | 00:00:00 | 00:00:00 | |
| DF8AY | 2026-08-31 15:19:44 | 51.30228 | 10.29121 | 67° | 71km/h | 1929m | -2.9m/s | 5.7°C | 0% | 0hPa | 5.1V | 00:00:00 | 00:00:00 | 00:00:00 | |
| BIOWL1-15 | 2026-08-31 15:19:41 | 51.30199 | 10.29015 | 67° | 71km/h | 1941m | -2.8m/s | 5.6°C | 0% | 0hPa | 5.1V | 00:00:00 | 00:00:00 | 00:00:00 | |
| HSKMA3-T | 2026-08-31 15:19:41 | 51.30206 | 10.29041 | 66° | 71km/h | 1938m | -3m/s | 5.7°C | 0% | 0hPa | 5.1V | 00:00:00 | 00:00:00 | 00:00:00 | |
| DF2AP-13 | 2026-08-31 15:19:40 | 51.30206 | 10.29041 | 67° | 71km/h | 1941m | -2.8m/s | 0°C | 0% | 0hPa | 0V | 00:00:00 | 00:00:00 | 00:00:00 | |
| THATR2-17 | 2026-08-31 15:19:39 | 51.30137 | 10.28775 | 67° | 71km/h | 1967m | 0m/s | 0°C | 0% | 0hPa | 0V | 00:00:00 | 00:00:00 | 00:00:00 | |
| DM0DOS-11 | 2026-08-31 15:19:39 | 51.30165 | 10.28881 | 68° | 71km/h | 1958m | -2.8m/s | 0°C | 0% | 0hPa | 0V | 00:00:00 | 00:00:00 | 00:00:00 | |
| DB0NH | 2026-08-31 15:19:39 | 51.30199 | 10.29014 | 68° | 71km/h | 1944m | -2.9m/s | 0°C | 0% | 0hPa | 5.1V | 00:00:00 | 00:00:00 | 00:00:00 | |
| DF8AY | 2026-08-31 15:19:39 | 51.30192 | 10.28988 | 67° | 71km/h | 1944m | -2.9m/s | 5.6°C | 0% | 0hPa | 5.1V | 00:00:00 | 00:00:00 | 00:00:00 | |
| BIOWL1-15 | 2026-08-31 15:19:36 | 51.30178 | 10.28935 | 68° | 71km/h | 1950m | -2.9m/s | 5.6°C | 0% | 0hPa | 5.1V | 00:00:00 | 00:00:00 | 00:00:00 | |
| BIOWL1-15 | 2026-08-31 15:19:34 | 51.30165 | 10.28881 | 69° | 71km/h | 1956m | -2.9m/s | 5.6°C | 0% | 0hPa | 5.1V | 00:00:00 | 00:00:00 | 00:00:00 | |
| DM0DOS-11 | 2026-08-31 15:19:33 | 51.30151 | 10.28828 | 67° | 71km/h | 1964m | -3m/s | 0°C | 0% | 0hPa | 0V | 00:00:00 | 00:00:00 | 00:00:00 | |
| DM0DOS-11 | 2026-08-31 15:19:33 | 51.30137 | 10.28775 | 67° | 73km/h | 1970m | -2.8m/s | 0°C | 0% | 0hPa | 0V | 00:00:00 | 00:00:00 | 00:00:00 | |
| DM0DOS-11 | 2026-08-31 15:19:33 | 51.30123 | 10.28720 | 68° | 73km/h | 1975m | -3m/s | 0°C | 0% | 0hPa | 0V | 00:00:00 | 00:00:00 | 00:00:00 | |
| BIOWL1-15 | 2026-08-31 15:19:32 | 51.30151 | 10.28828 | 68° | 71km/h | 1961m | -3m/s | 5.5°C | 0% | 0hPa | 5.1V | 00:00:00 | 00:00:00 | 00:00:00 | |
| BIOWL1-15 | 2026-08-31 15:19:30 | 51.30137 | 10.28775 | 68° | 73km/h | 1967m | -2.6m/s | 5.5°C | 0% | 0hPa | 5.1V | 00:00:00 | 00:00:00 | 00:00:00 | |
| DF2AP-13 | 2026-08-31 15:19:30 | 51.30137 | 10.28775 | 68° | 73km/h | 1970m | -2.7m/s | 0°C | 0% | 0hPa | 0V | 00:00:00 | 00:00:00 | 00:00:00 | |
| DB0NH | 2026-08-31 15:19:29 | 51.30130 | 10.28747 | 68° | 73km/h | 1972m | -2.7m/s | 0°C | 0% | 0hPa | 0V | 00:00:00 | 00:00:00 | 00:00:00 | |
| DM0DOS-11 | 2026-08-31 15:19:27 | 51.30109 | 10.28665 | 68° | 75km/h | 1978m | -3m/s | 0°C | 0% | 0hPa | 0V | 00:00:00 | 00:00:00 | 00:00:00 | |
| BIOWL1-15 | 2026-08-31 15:19:26 | 51.30102 | 10.28638 | 67° | 75km/h | 1981m | -2.9m/s | 5.2°C | 0% | 0hPa | 5.1V | 00:00:00 | 00:00:00 | 00:00:00 | |
| BIOWL1-15 | 2026-08-31 15:19:24 | 51.30094 | 10.28610 | 67° | 75km/h | 1984m | -2.8m/s | 5.2°C | 0% | 0hPa | 5.1V | 00:00:00 | 00:00:00 | 00:00:00 | |
| DF8AY | 2026-08-31 15:19:24 | 51.30087 | 10.28582 | 67° | 73km/h | 1987m | -2.5m/s | 5.2°C | 0% | 0hPa | 5.1V | 00:00:00 | 00:00:00 | 00:00:00 | |
| DM0DOS-11 | 2026-08-31 15:19:21 | 51.30065 | 10.28501 | 67° | 73km/h | 1997m | -2.5m/s | 0°C | 0% | 0hPa | 0V | 00:00:00 | 00:00:00 | 00:00:00 | |
| HSKMA3-T | 2026-08-31 15:19:20 | 51.30058 | 10.28474 | 68° | 73km/h | 1998m | -2.5m/s | 5.1°C | 0% | 0hPa | 5.1V | 00:00:00 | 00:00:00 | 00:00:00 | |
| DF2AP-13 | 2026-08-31 15:19:20 | 51.30065 | 10.28502 | 68° | 73km/h | 1998m | -2.5m/s | 0°C | 0% | 0hPa | 5.1V | 00:00:00 | 00:00:00 | 00:00:00 | |
| BIOWL1-15 | 2026-08-31 15:19:20 | 51.30043 | 10.28419 | 68° | 75km/h | 2003m | -2.8m/s | 5°C | 0% | 0hPa | 5.1V | 00:00:00 | 00:00:00 | 00:00:00 | |
| DB0NH | 2026-08-31 15:19:19 | 51.30058 | 10.28474 | 68° | 73km/h | 2000m | -2.6m/s | 0°C | 0% | 0hPa | 5.1V | 00:00:00 | 00:00:00 | 00:00:00 | |
| DF8AY | 2026-08-31 15:19:13 | 51.30009 | 10.28283 | 68° | 69km/h | 2015m | -2.3m/s | 4.8°C | 0% | 0hPa | 5.1V | 00:00:00 | 00:00:00 | 00:00:00 | |
| HSKMA3-T | 2026-08-31 15:19:09 | 51.29982 | 10.28176 | 68° | 71km/h | 2025m | -2.5m/s | 4.7°C | 0% | 0hPa | 5.1V | 00:00:00 | 00:00:00 | 00:00:00 | |
| DM0DOS-11 | 2026-08-31 15:19:06 | 51.29969 | 10.28120 | 68° | 75km/h | 2032m | -2.4m/s | 0°C | 0% | 0hPa | 0V | 00:00:00 | 00:00:00 | 00:00:00 | |
| BIOWL1-15 | 2026-08-31 15:19:04 | 51.29955 | 10.28064 | 70° | 75km/h | 2034m | -2.4m/s | 4.6°C | 0% | 0hPa | 5.1V | 00:00:00 | 00:00:00 | 00:00:00 | |
| DF8AY | 2026-08-31 15:19:03 | 51.29943 | 10.28007 | 71° | 75km/h | 2040m | -2.5m/s | 4.6°C | 0% | 0hPa | 5.1V | 00:00:00 | 00:00:00 | 00:00:00 | |
| DF2AP-13 | 2026-08-31 15:19:02 | 51.29942 | 10.28007 | 72° | 77km/h | 2042m | -2.5m/s | 0°C | 0% | 0hPa | 0V | 00:00:00 | 00:00:00 | 00:00:00 | |
| DM0DOS-11 | 2026-08-31 15:19:01 | 51.29905 | 10.27836 | 71° | 75km/h | 2057m | -2.4m/s | 0°C | 0% | 0hPa | 0V | 00:00:00 | 00:00:00 | 00:00:00 | |
| DB0NH | 2026-08-31 15:18:59 | 51.29924 | 10.27921 | 72° | 77km/h | 2050m | -2.5m/s | 0°C | 0% | 0hPa | 5.1V | 00:00:00 | 00:00:00 | 00:00:00 | |
| HSKMA3-T | 2026-08-31 15:18:58 | 51.29918 | 10.27893 | 71° | 75km/h | 2050m | -2.5m/s | 4.5°C | 0% | 0hPa | 5.1V | 00:00:00 | 00:00:00 | 00:00:00 | |
| BIOWL1-15 | 2026-08-31 15:18:54 | 51.29887 | 10.27748 | 71° | 77km/h | 2062m | -2.6m/s | 4.5°C | 0% | 0hPa | 5.1V | 00:00:00 | 00:00:00 | 00:00:00 | |
| DF8AY | 2026-08-31 15:18:52 | 51.29874 | 10.27689 | 72° | 78km/h | 2067m | -2.9m/s | 4.6°C | 0% | 0hPa | 5.1V | 00:00:00 | 00:00:00 | 00:00:00 | |
| DM0DOS-11 | 2026-08-31 15:18:51 | 51.29874 | 10.27689 | 71° | 78km/h | 2070m | -2.6m/s | 0°C | 0% | 0hPa | 0V | 00:00:00 | 00:00:00 | 00:00:00 | |
| DM0DOS-11 | 2026-08-31 15:18:51 | 51.29842 | 10.27539 | 70° | 78km/h | 2083m | -2.6m/s | 0°C | 0% | 0hPa | 0V | 00:00:00 | 00:00:00 | 00:00:00 | |
| DM0DOS-11 | 2026-08-31 15:18:46 | 51.29810 | 10.27389 | 72° | 77km/h | 2096m | -2.4m/s | 0°C | 0% | 0hPa | 0V | 00:00:00 | 00:00:00 | 00:00:00 | |
| HSKMA3-T | 2026-08-31 15:18:45 | 51.29835 | 10.27509 | 71° | 78km/h | 2083m | -2.6m/s | 4.6°C | 0% | 0hPa | 5.1V | 00:00:00 | 00:00:00 | 00:00:00 | |
| DF2AP-13 | 2026-08-31 15:18:42 | 51.29817 | 10.27419 | 72° | 78km/h | 2093m | -2.5m/s | 0°C | 0% | 0hPa | 5.1V | 00:00:00 | 00:00:00 | 00:00:00 | |
| DF8AY | 2026-08-31 15:18:41 | 51.29804 | 10.27359 | 72° | 78km/h | 2096m | -2.4m/s | 4.8°C | 0% | 0hPa | 5.1V | 00:00:00 | 00:00:00 | 00:00:00 | |
| DB0NH | 2026-08-31 15:18:39 | 51.29798 | 10.27329 | 72° | 78km/h | 2101m | -2.4m/s | 0°C | 0% | 0hPa | 5.1V | 00:00:00 | 00:00:00 | 00:00:00 | |
| BIOWL1-15 | 2026-08-31 15:18:38 | 51.29779 | 10.27238 | 72° | 78km/h | 2105m | -2.4m/s | 4.8°C | 0% | 0hPa | 5.1V | 00:00:00 | 00:00:00 | 00:00:00 | |
| DM0DOS-11 | 2026-08-31 15:18:36 | 51.29779 | 10.27238 | 71° | 78km/h | 2108m | -2.6m/s | 0°C | 0% | 0hPa | 0V | 00:00:00 | 00:00:00 | 00:00:00 | |
| DM0DOS-11 | 2026-08-31 15:18:36 | 51.29748 | 10.27088 | 71° | 77km/h | 2120m | -2.4m/s | 0°C | 0% | 0hPa | 0V | 00:00:00 | 00:00:00 | 00:00:00 | |
| HSKMA3-T | 2026-08-31 15:18:32 | 51.29748 | 10.27088 | 71° | 78km/h | 2117m | -2.4m/s | 4.8°C | 0% | 0hPa | 5.1V | 00:00:00 | 00:00:00 | 00:00:00 | |
| DM0DOS-11 | 2026-08-31 15:18:31 | 51.29717 | 10.26941 | 70° | 77km/h | 2131m | -2.2m/s | 0°C | 0% | 0hPa | 0V | 00:00:00 | 00:00:00 | 00:00:00 | |
| BIOWL1-15 | 2026-08-31 15:18:31 | 51.29717 | 10.26941 | 71° | 77km/h | 2129m | -2.2m/s | 4.7°C | 0% | 0hPa | 5.1V | 00:00:00 | 00:00:00 | 00:00:00 | |
| DF8AY | 2026-08-31 15:18:30 | 51.29736 | 10.27029 | 71° | 78km/h | 2122m | -2.4m/s | 4.8°C | 0% | 0hPa | 5.1V | 00:00:00 | 00:00:00 | 00:00:00 | |
| HSKMA3-T | 2026-08-31 15:18:22 | 51.29685 | 10.26793 | 71° | 78km/h | 2141m | -2.4m/s | 4.6°C | 0% | 0hPa | 5.1V | 00:00:00 | 00:00:00 | 00:00:00 | |
| DM0DOS-11 | 2026-08-31 15:18:21 | 51.29685 | 10.26793 | 70° | 78km/h | 2143m | -2.4m/s | 0°C | 0% | 0hPa | 0V | 00:00:00 | 00:00:00 | 00:00:00 | |
| DM0DOS-11 | 2026-08-31 15:18:21 | 51.29652 | 10.26643 | 70° | 77km/h | 2156m | -2.8m/s | 0°C | 0% | 0hPa | 0V | 00:00:00 | 00:00:00 | 00:00:00 | |
| DF8AY | 2026-08-31 15:18:21 | 51.29671 | 10.26733 | 71° | 78km/h | 2145m | -2.5m/s | 4.6°C | 0% | 0hPa | 5.1V | 00:00:00 | 00:00:00 | 00:00:00 | |
| DB0NH | 2026-08-31 15:18:19 | 51.29671 | 10.26733 | 71° | 77km/h | 2148m | -2.5m/s | 0°C | 0% | 0hPa | 5.1V | 00:00:00 | 00:00:00 | 00:00:00 | |
| BIOWL1-15 | 2026-08-31 15:18:17 | 51.29639 | 10.26584 | 71° | 78km/h | 2158m | -2.5m/s | 4.5°C | 0% | 0hPa | 5.1V | 00:00:00 | 00:00:00 | 00:00:00 | |
| DM0DOS-11 | 2026-08-31 15:18:16 | 51.29620 | 10.26495 | 70° | 78km/h | 2169m | -2.6m/s | 0°C | 0% | 0hPa | 0V | 00:00:00 | 00:00:00 | 00:00:00 | |
| HSKMA3-T | 2026-08-31 15:18:11 | 51.29620 | 10.26496 | 72° | 78km/h | 2166m | -2.7m/s | 4.4°C | 0% | 0hPa | 5.1V | 00:00:00 | 00:00:00 | 00:00:00 | |
| DF8AY | 2026-08-31 15:18:09 | 51.29600 | 10.26406 | 70° | 77km/h | 2174m | -2.5m/s | 4.4°C | 0% | 0hPa | 5.1V | 00:00:00 | 00:00:00 | 00:00:00 | |
| DM0DOS-11 | 2026-08-31 15:18:06 | 51.29587 | 10.26348 | 69° | 77km/h | 2181m | -2.5m/s | 0°C | 0% | 0hPa | 0V | 00:00:00 | 00:00:00 | 00:00:00 | |
| DM0DOS-11 | 2026-08-31 15:18:06 | 51.29554 | 10.26204 | 69° | 75km/h | 2194m | -2.5m/s | 0°C | 0% | 0hPa | 0V | 00:00:00 | 00:00:00 | 00:00:00 | |
| BIOWL1-15 | 2026-08-31 15:18:04 | 51.29567 | 10.26262 | 70° | 75km/h | 2186m | -2.5m/s | 4.3°C | 0% | 0hPa | 5.1V | 00:00:00 | 00:00:00 | 00:00:00 | |
| DB0NH | 2026-08-31 15:17:59 | 51.29540 | 10.26146 | 69° | 77km/h | 2199m | -2.4m/s | 0°C | 0% | 0hPa | 5.1V | 00:00:00 | 00:00:00 | 00:00:00 | |
| DF8AY | 2026-08-31 15:17:58 | 51.29526 | 10.26089 | 69° | 77km/h | 2202m | -2.4m/s | 4.2°C | 0% | 0hPa | 5.1V | 00:00:00 | 00:00:00 | 00:00:00 | |
| BIOWL1-15 | 2026-08-31 15:17:54 | 51.29499 | 10.25973 | 71° | 77km/h | 2212m | -2.4m/s | 4.2°C | 0% | 0hPa | 5.1V | 00:00:00 | 00:00:00 | 00:00:00 | |
| DM0DOS-11 | 2026-08-31 15:17:51 | 51.29486 | 10.25914 | 70° | 77km/h | 2219m | -2.4m/s | 0°C | 0% | 0hPa | 0V | 00:00:00 | 00:00:00 | 00:00:00 | |
| DM0DOS-11 | 2026-08-31 15:17:51 | 51.29454 | 10.25770 | 70° | 75km/h | 2234m | -2.4m/s | 0°C | 0% | 0hPa | 0V | 00:00:00 | 00:00:00 | 00:00:00 | |
| DF8AY | 2026-08-31 15:17:47 | 51.29455 | 10.25770 | 70° | 75km/h | 2229m | -2.5m/s | 4.1°C | 0% | 0hPa | 5.1V | 00:00:00 | 00:00:00 | 00:00:00 | |
| DM0DOS-11 | 2026-08-31 15:17:45 | 51.29417 | 10.25597 | 71° | 77km/h | 2246m | -2.4m/s | 0°C | 0% | 0hPa | 0V | 00:00:00 | 00:00:00 | 00:00:00 | |
| BIOWL1-15 | 2026-08-31 15:17:42 | 51.29430 | 10.25655 | 71° | 75km/h | 2239m | -2.5m/s | 4.1°C | 0% | 0hPa | 5.1V | 00:00:00 | 00:00:00 | 00:00:00 | |
| DB0NH | 2026-08-31 15:17:39 | 51.29411 | 10.25568 | 71° | 75km/h | 2249m | -2.2m/s | 0°C | 0% | 0hPa | 5.1V | 00:00:00 | 00:00:00 | 00:00:00 | |
| DF8AY | 2026-08-31 15:17:36 | 51.29387 | 10.25452 | 71° | 75km/h | 2256m | -2.4m/s | 3.9°C | 0% | 0hPa | 5.1V | 00:00:00 | 00:00:00 | 00:00:00 | |
| DM0DOS-11 | 2026-08-31 15:17:34 | 51.29347 | 10.25282 | 68° | 75km/h | 2272m | -2.4m/s | 0°C | 0% | 0hPa | 0V | 00:00:00 | 00:00:00 | 00:00:00 | |
| BIOWL1-15 | 2026-08-31 15:17:32 | 51.29361 | 10.25339 | 69° | 75km/h | 2265m | -2.2m/s | 3.8°C | 0% | 0hPa | 5.1V | 00:00:00 | 00:00:00 | 00:00:00 | |
| DF8AY | 2026-08-31 15:17:26 | 51.29320 | 10.25170 | 68° | 75km/h | 2279m | -2m/s | 3.7°C | 0% | 0hPa | 5.1V | 00:00:00 | 00:00:00 | 00:00:00 | |
| HSKMA3-T | 2026-08-31 15:17:21 | 51.29292 | 10.25056 | 68° | 75km/h | 2288m | -2.4m/s | 3.6°C | 0% | 0hPa | 5.1V | 00:00:00 | 00:00:00 | 00:00:00 | |
| BIOWL1-15 | 2026-08-31 15:17:21 | 51.29285 | 10.25028 | 69° | 75km/h | 2290m | -2.1m/s | 3.6°C | 0% | 0hPa | 5.1V | 00:00:00 | 00:00:00 | 00:00:00 | |
| DB0NH | 2026-08-31 15:17:19 | 51.29278 | 10.25000 | 69° | 75km/h | 2295m | -2.4m/s | 0°C | 0% | 0hPa | 5.1V | 00:00:00 | 00:00:00 | 00:00:00 | |
| DF8AY | 2026-08-31 15:17:15 | 51.29244 | 10.24859 | 69° | 75km/h | 2304m | -2.2m/s | 3.6°C | 0% | 0hPa | 5.1V | 00:00:00 | 00:00:00 | 00:00:00 | |
| BIOWL1-15 | 2026-08-31 15:17:11 | 51.29217 | 10.24746 | 69° | 77km/h | 2313m | -2.3m/s | 3.5°C | 0% | 0hPa | 5.1V | 00:00:00 | 00:00:00 | 00:00:00 | |
| DM0DOS-11 | 2026-08-31 15:17:06 | 51.29189 | 10.24632 | 67° | 75km/h | 2324m | -2.2m/s | 0°C | 0% | 0hPa | 0V | 00:00:00 | 00:00:00 | 00:00:00 | |
| DM0DOS-11 | 2026-08-31 15:17:06 | 51.29153 | 10.24493 | 68° | 75km/h | 2336m | -2.3m/s | 0°C | 0% | 0hPa | 0V | 00:00:00 | 00:00:00 | 00:00:00 | |
| DF8AY | 2026-08-31 15:17:04 | 51.29167 | 10.24549 | 68° | 75km/h | 2329m | -2.2m/s | 3.4°C | 0% | 0hPa | 5.1V | 00:00:00 | 00:00:00 | 00:00:00 | |
| DF2AP-13 | 2026-08-31 15:17:01 | 51.29153 | 10.24493 | 69° | 75km/h | 2336m | -2.2m/s | 0°C | 0% | 0hPa | 5.1V | 00:00:00 | 00:00:00 | 00:00:00 | |
| HSKMA3-T | 2026-08-31 15:16:59 | 51.29139 | 10.24436 | 69° | 75km/h | 2338m | -2.4m/s | 3.3°C | 0% | 0hPa | 5.1V | 00:00:00 | 00:00:00 | 00:00:00 | |
| DB0NH | 2026-08-31 15:16:59 | 51.29139 | 10.24436 | 69° | 75km/h | 2341m | -2.1m/s | 0°C | 0% | 0hPa | 5.1V | 00:00:00 | 00:00:00 | 00:00:00 | |
| DF8AY | 2026-08-31 15:16:53 | 51.29091 | 10.24240 | 69° | 75km/h | 2354m | -2.1m/s | 3.1°C | 0% | 0hPa | 5.1V | 00:00:00 | 00:00:00 | 00:00:00 | |
| BIOWL1-15 | 2026-08-31 15:16:49 | 51.29063 | 10.24127 | 69° | 75km/h | 2363m | -2m/s | 3°C | 0% | 0hPa | 5.1V | 00:00:00 | 00:00:00 | 00:00:00 | |
| DF8AY | 2026-08-31 15:16:44 | 51.29022 | 10.23960 | 69° | 73km/h | 2376m | -2.2m/s | 2.9°C | 0% | 0hPa | 5.1V | 00:00:00 | 00:00:00 | 00:00:00 | |
| DF2AP-13 | 2026-08-31 15:16:41 | 51.29015 | 10.23932 | 69° | 75km/h | 2380m | -2.0m/s | 0°C | 0% | 0hPa | 5.1V | 00:00:00 | 00:00:00 | 00:00:00 | |
| DB0NH | 2026-08-31 15:16:39 | 51.29001 | 10.23876 | 68° | 73km/h | 2384m | -2.2m/s | 0°C | 0% | 0hPa | 5.1V | 00:00:00 | 00:00:00 | 00:00:00 | |
| BIOWL1-15 | 2026-08-31 15:16:38 | 51.28987 | 10.23820 | 68° | 75km/h | 2386m | -2.2m/s | 2.8°C | 0% | 0hPa | 5.1V | 00:00:00 | 00:00:00 | 00:00:00 | |
| THATR2-17 | 2026-08-31 15:16:33 | 51.28758 | 10.22909 | 67° | 69km/h | 2459m | 0m/s | 0°C | 0% | 0hPa | 5.1V | 00:00:00 | 00:00:00 | 00:00:00 | |
| DF8AY | 2026-08-31 15:16:32 | 51.28946 | 10.23654 | 69° | 73km/h | 2399m | -2.1m/s | 2.7°C | 0% | 0hPa | 5.1V | 00:00:00 | 00:00:00 | 00:00:00 | |
| DM0DOS-11 | 2026-08-31 15:16:31 | 51.28946 | 10.23654 | 68° | 73km/h | 2401m | -2.2m/s | 0°C | 0% | 0hPa | 0V | 00:00:00 | 00:00:00 | 00:00:00 | |
| BIOWL1-15 | 2026-08-31 15:16:29 | 51.28918 | 10.23543 | 68° | 73km/h | 2408m | -2m/s | 2.6°C | 0% | 0hPa | 0V | 00:00:00 | 00:00:00 | 00:00:00 | |
| HSKMA3-T | 2026-08-31 15:16:27 | 51.28911 | 10.23515 | 68° | 75km/h | 2410m | -2.3m/s | 2.6°C | 0% | 0hPa | 5.1V | 00:00:00 | 00:00:00 | 00:00:00 | |
| DM0DOS-11 | 2026-08-31 15:16:26 | 51.28877 | 10.23378 | 68° | 75km/h | 2424m | -2.4m/s | 0°C | 0% | 0hPa | 0V | 00:00:00 | 00:00:00 | 00:00:00 | |
| DF8AY | 2026-08-31 15:16:21 | 51.28870 | 10.23350 | 68° | 75km/h | 2424m | -2.4m/s | 2.5°C | 0% | 0hPa | 5.1V | 00:00:00 | 00:00:00 | 00:00:00 | |
| DB0NH | 2026-08-31 15:16:19 | 51.28863 | 10.23322 | 68° | 73km/h | 2429m | -2.2m/s | 0°C | 0% | 0hPa | 5.1V | 00:00:00 | 00:00:00 | 00:00:00 | |
| HSKMA3-T | 2026-08-31 15:16:17 | 51.28841 | 10.23238 | 67° | 73km/h | 2433m | -2.2m/s | 2.4°C | 0% | 0hPa | 5.1V | 00:00:00 | 00:00:00 | 00:00:00 | |
| DM0DOS-11 | 2026-08-31 15:16:16 | 51.28841 | 10.23238 | 67° | 73km/h | 2435m | -2.1m/s | 0°C | 0% | 0hPa | 0V | 00:00:00 | 00:00:00 | 00:00:00 | |
| DM0DOS-11 | 2026-08-31 15:16:16 | 51.28807 | 10.23101 | 68° | 73km/h | 2446m | -2.1m/s | 0°C | 0% | 0hPa | 0V | 00:00:00 | 00:00:00 | 00:00:00 | |
| DM0DOS-11 | 2026-08-31 15:16:11 | 51.28772 | 10.22962 | 67° | 73km/h | 2457m | -2.2m/s | 0°C | 0% | 0hPa | 0V | 00:00:00 | 00:00:00 | 00:00:00 | |
| DF8AY | 2026-08-31 15:16:10 | 51.28793 | 10.23046 | 68° | 75km/h | 2448m | -2.2m/s | 2.3°C | 0% | 0hPa | 5.1V | 00:00:00 | 00:00:00 | 00:00:00 | |
| DL1NUX | 2026-08-31 15:16:07 | 51.28779 | 10.22991 | 68° | 73km/h | 2468m | -1.8m/s | 0°C | 0% | 0hPa | 0V | 00:00:00 | 00:00:00 | 00:00:00 | |
| DL1NUX | 2026-08-31 15:16:07 | 51.28745 | 10.22856 | 68° | 71km/h | 2468m | -1.8m/s | 0°C | 0% | 0hPa | 0V | 00:00:00 | 00:00:00 | 00:00:00 | |
| SO1NDE-10 | 2026-08-31 15:16:07 | 51.28779 | 10.22990 | 69° | 71km/h | 2468m | -1.8m/s | 0°C | 0% | 0hPa | 5.1V | 00:00:00 | 00:00:00 | 00:00:00 | |
| HSKMA3-T | 2026-08-31 15:16:06 | 51.28772 | 10.22963 | 68° | 73km/h | 2455m | -2.3m/s | 2.3°C | 0% | 0hPa | 5.1V | 00:00:00 | 00:00:00 | 00:00:00 | |
| DF8AY | 2026-08-31 15:16:04 | 51.28725 | 10.22777 | 68° | 71km/h | 2470m | -1.7m/s | 2.2°C | 0% | 0hPa | 5.1V | 00:00:00 | 00:00:00 | 00:00:00 | |
| DL1NUX | 2026-08-31 15:16:02 | 51.28711 | 10.22724 | 65° | 69km/h | 2473m | -1.9m/s | 0°C | 0% | 0hPa | 0V | 00:00:00 | 00:00:00 | 00:00:00 | |
| THATR2-17 | 2026-08-31 15:16:02 | 51.28738 | 10.22829 | 67° | 69km/h | 2466m | 0m/s | 0°C | 0% | 0hPa | 0V | 00:00:00 | 00:00:00 | 00:00:00 | |
| DM0DOS-11 | 2026-08-31 15:16:01 | 51.28738 | 10.22829 | 67° | 69km/h | 2468m | -1.8m/s | 0°C | 0% | 0hPa | 0V | 00:00:00 | 00:00:00 | 00:00:00 | |
| DM0DOS-11 | 2026-08-31 15:16:01 | 51.28703 | 10.22699 | 66° | 69km/h | 2477m | -1.9m/s | 0°C | 0% | 0hPa | 0V | 00:00:00 | 00:00:00 | 00:00:00 | |
| DF2AP-13 | 2026-08-31 15:16:01 | 51.28738 | 10.22829 | 68° | 71km/h | 2468m | -1.8m/s | 0°C | 0% | 0hPa | 0V | 00:00:00 | 00:00:00 | 00:00:00 | |
| DB0NH | 2026-08-31 15:15:59 | 51.28725 | 10.22777 | 68° | 71km/h | 2472m | -1.7m/s | 0°C | 0% | 0hPa | 0V | 00:00:00 | 00:00:00 | 00:00:00 | |
| SO1NDE-10 | 2026-08-31 15:15:57 | 51.28710 | 10.22724 | 66° | 69km/h | 2473m | -1.8m/s | 0°C | 0% | 0hPa | 0V | 00:00:00 | 00:00:00 | 00:00:00 | |
| DL1NUX | 2026-08-31 15:15:56 | 51.28671 | 10.22566 | 66° | 71km/h | 2487m | -1.9m/s | 0°C | 0% | 0hPa | 0V | 00:00:00 | 00:00:00 | 00:00:00 | |
| HSKMA3-T | 2026-08-31 15:15:55 | 51.28690 | 10.22646 | 68° | 69km/h | 2479m | -1.7m/s | 2.1°C | 0% | 0hPa | 5.1V | 00:00:00 | 00:00:00 | 00:00:00 | |
| DL1NUX | 2026-08-31 15:15:49 | 51.28623 | 10.22382 | 68° | 69km/h | 2500m | -1.8m/s | 0°C | 0% | 0hPa | 0V | 00:00:00 | 00:00:00 | 00:00:00 | |
| DF8AY | 2026-08-31 15:15:49 | 51.28651 | 10.22487 | 67° | 71km/h | 2491m | -1.7m/s | 2°C | 0% | 0hPa | 5.1V | 00:00:00 | 00:00:00 | 00:00:00 | |
| DM0DOS-11 | 2026-08-31 15:15:46 | 51.28637 | 10.22434 | 66° | 71km/h | 2497m | -1.8m/s | 0°C | 0% | 0hPa | 0V | 00:00:00 | 00:00:00 | 00:00:00 | |
| DM0DOS-11 | 2026-08-31 15:15:46 | 51.28603 | 10.22303 | 67° | 69km/h | 2505m | -1.6m/s | 0°C | 0% | 0hPa | 0V | 00:00:00 | 00:00:00 | 00:00:00 | |
| SO1NDE-10 | 2026-08-31 15:15:46 | 51.28637 | 10.22434 | 67° | 71km/h | 2498m | -1.7m/s | 0°C | 0% | 0hPa | 5.1V | 00:00:00 | 00:00:00 | 00:00:00 | |
| HSKMA3-T | 2026-08-31 15:15:44 | 51.28616 | 10.22355 | 68° | 71km/h | 2500m | -1.8m/s | 1.9°C | 0% | 0hPa | 5.1V | 00:00:00 | 00:00:00 | 00:00:00 | |
| DF2AP-13 | 2026-08-31 15:15:41 | 51.28603 | 10.22303 | 68° | 69km/h | 2505m | -1.6m/s | 0°C | 0% | 0hPa | 0V | 00:00:00 | 00:00:00 | 00:00:00 | |
| DL1NUX | 2026-08-31 15:15:39 | 51.28589 | 10.22250 | 68° | 69km/h | 2509m | -1.6m/s | 0°C | 0% | 0hPa | 0V | 00:00:00 | 00:00:00 | 00:00:00 | |
| DL1NUX | 2026-08-31 15:15:39 | 51.28555 | 10.22119 | 66° | 69km/h | 2519m | -1.5m/s | 0°C | 0% | 0hPa | 0V | 00:00:00 | 00:00:00 | 00:00:00 | |
| DB0NH | 2026-08-31 15:15:39 | 51.28589 | 10.22250 | 69° | 69km/h | 2509m | -1.5m/s | 0°C | 0% | 0hPa | 5V | 00:00:00 | 00:00:00 | 00:00:00 | |
| DF8AY | 2026-08-31 15:15:38 | 51.28576 | 10.22198 | 68° | 71km/h | 2510m | -1.7m/s | 1.8°C | 0% | 0hPa | 5V | 00:00:00 | 00:00:00 | 00:00:00 | |
| SO1NDE-10 | 2026-08-31 15:15:36 | 51.28569 | 10.22170 | 67° | 69km/h | 2516m | -1.6m/s | 0°C | 0% | 0hPa | 5V | 00:00:00 | 00:00:00 | 00:00:00 | |
| HSKMA3-T | 2026-08-31 15:15:34 | 51.28548 | 10.22093 | 67° | 69km/h | 2517m | -1.4m/s | 1.8°C | 0% | 0hPa | 5V | 00:00:00 | 00:00:00 | 00:00:00 | |
| DL1NUX | 2026-08-31 15:15:33 | 51.28514 | 10.21965 | 67° | 69km/h | 2528m | -1.5m/s | 0°C | 0% | 0hPa | 0V | 00:00:00 | 00:00:00 | 00:00:00 | |
| DM0DOS-11 | 2026-08-31 15:15:31 | 51.28534 | 10.22041 | 66° | 69km/h | 2522m | -1.7m/s | 0°C | 0% | 0hPa | 0V | 00:00:00 | 00:00:00 | 00:00:00 | |
| DM0DOS-11 | 2026-08-31 15:15:31 | 51.28500 | 10.21913 | 66° | 69km/h | 2530m | -1.4m/s | 0°C | 0% | 0hPa | 0V | 00:00:00 | 00:00:00 | 00:00:00 | |
| DF8AY | 2026-08-31 15:15:27 | 51.28500 | 10.21913 | 66° | 69km/h | 2528m | -1.5m/s | 1.6°C | 0% | 0hPa | 5.1V | 00:00:00 | 00:00:00 | 00:00:00 | |
| DL1NUX | 2026-08-31 15:15:23 | 51.28479 | 10.21836 | 66° | 71km/h | 2534m | -1.5m/s | 0°C | 0% | 0hPa | 0V | 00:00:00 | 00:00:00 | 00:00:00 | |
| DL1NUX | 2026-08-31 15:15:23 | 51.28442 | 10.21706 | 65° | 69km/h | 2543m | -1.4m/s | 0°C | 0% | 0hPa | 0V | 00:00:00 | 00:00:00 | 00:00:00 | |
| HSKMA3-T | 2026-08-31 15:15:23 | 51.28471 | 10.21810 | 66° | 69km/h | 2534m | -1.6m/s | 1.6°C | 0% | 0hPa | 5.1V | 00:00:00 | 00:00:00 | 00:00:00 | |
| DF2AP-13 | 2026-08-31 15:15:21 | 51.28464 | 10.21783 | 67° | 69km/h | 2537m | -1.4m/s | 0°C | 0% | 0hPa | 0V | 00:00:00 | 00:00:00 | 00:00:00 | |
| DB0NH | 2026-08-31 15:15:19 | 51.28450 | 10.21731 | 66° | 69km/h | 2540m | -1.3m/s | 0°C | 0% | 0hPa | 0V | 00:00:00 | 00:00:00 | 00:00:00 | |
| DL1NUX | 2026-08-31 15:15:17 | 51.28400 | 10.21553 | 66° | 69km/h | 2550m | -1.4m/s | 0°C | 0% | 0hPa | 0V | 00:00:00 | 00:00:00 | 00:00:00 | |
| DM0DOS-11 | 2026-08-31 15:15:16 | 51.28428 | 10.21655 | 66° | 69km/h | 2544m | -1.4m/s | 0°C | 0% | 0hPa | 0V | 00:00:00 | 00:00:00 | 00:00:00 | |
| DF8AY | 2026-08-31 15:15:16 | 51.28421 | 10.21629 | 66° | 69km/h | 2544m | -1.4m/s | 1.5°C | 0% | 0hPa | 5.1V | 00:00:00 | 00:00:00 | 00:00:00 | |
| HSKMA3-T | 2026-08-31 15:15:12 | 51.28400 | 10.21552 | 66° | 69km/h | 2548m | -1.3m/s | 1.4°C | 0% | 0hPa | 5.1V | 00:00:00 | 00:00:00 | 00:00:00 | |
| DL1NUX | 2026-08-31 15:15:11 | 51.28358 | 10.21397 | 66° | 69km/h | 2558m | -1.4m/s | 0°C | 0% | 0hPa | 0V | 00:00:00 | 00:00:00 | 00:00:00 | |
| SO1NDE-10 | 2026-08-31 15:15:10 | 51.28386 | 10.21501 | 67° | 69km/h | 2553m | -1.5m/s | 0°C | 0% | 0hPa | 5.1V | 00:00:00 | 00:00:00 | 00:00:00 | |
| DF8AY | 2026-08-31 15:15:06 | 51.28351 | 10.21372 | 66° | 69km/h | 2558m | -1.4m/s | 1.3°C | 0% | 0hPa | 5.1V | 00:00:00 | 00:00:00 | 00:00:00 | |
| DL1NUX | 2026-08-31 15:15:01 | 51.28323 | 10.21269 | 65° | 71km/h | 2565m | -1.6m/s | 0°C | 0% | 0hPa | 0V | 00:00:00 | 00:00:00 | 00:00:00 | |
| DL1NUX | 2026-08-31 15:15:01 | 51.28286 | 10.21142 | 65° | 68km/h | 2574m | -1.4m/s | 0°C | 0% | 0hPa | 0V | 00:00:00 | 00:00:00 | 00:00:00 | |
| HSKMA3-T | 2026-08-31 15:15:01 | 51.28315 | 10.21243 | 65° | 69km/h | 2566m | -1.6m/s | 1.3°C | 0% | 0hPa | 5.1V | 00:00:00 | 00:00:00 | 00:00:00 | |
| THATR2-17 | 2026-08-31 15:15:00 | 51.28208 | 10.20865 | 64° | 68km/h | 2588m | 0m/s | 0°C | 0% | 0hPa | 0V | 00:00:00 | 00:00:00 | 00:00:00 | |
| DB0NH | 2026-08-31 15:14:59 | 51.28308 | 10.21217 | 66° | 68km/h | 2569m | -1.4m/s | 0°C | 0% | 0hPa | 0V | 00:00:00 | 00:00:00 | 00:00:00 | |
| DM0DOS-11 | 2026-08-31 15:14:56 | 51.28252 | 10.21017 | 66° | 68km/h | 2580m | -1.3m/s | 0°C | 0% | 0hPa | 0V | 00:00:00 | 00:00:00 | 00:00:00 | |
| DL1NUX | 2026-08-31 15:14:55 | 51.28246 | 10.20991 | 66° | 69km/h | 2581m | -1.3m/s | 0°C | 0% | 0hPa | 0V | 00:00:00 | 00:00:00 | 00:00:00 | |
| DF8AY | 2026-08-31 15:14:55 | 51.28272 | 10.21092 | 68° | 68km/h | 2574m | -1.4m/s | 1.2°C | 0% | 0hPa | 5.1V | 00:00:00 | 00:00:00 | 00:00:00 | |
| BIOWL7-15 | 2026-08-31 15:14:54 | 51.28272 | 10.21092 | 69° | 68km/h | 2574m | -1.4m/s | 0°C | 0% | 0hPa | 0V | 00:00:00 | 00:00:00 | 00:00:00 | |
| DM0DOS-11 | 2026-08-31 15:14:51 | 51.28216 | 10.20890 | 64° | 69km/h | 2588m | -1.6m/s | 0°C | 0% | 0hPa | 0V | 00:00:00 | 00:00:00 | 00:00:00 | |
| HSKMA3-T | 2026-08-31 15:14:50 | 51.28245 | 10.20991 | 66° | 69km/h | 2580m | -1.3m/s | 1.1°C | 0% | 0hPa | 5.1V | 00:00:00 | 00:00:00 | 00:00:00 | |
| SO1NDE-10 | 2026-08-31 15:14:50 | 51.28245 | 10.20991 | 67° | 69km/h | 2581m | -1.3m/s | 0°C | 0% | 0hPa | 0V | 00:00:00 | 00:00:00 | 00:00:00 | |
| DL1NUX | 2026-08-31 15:14:44 | 51.28201 | 10.20840 | 66° | 68km/h | 2593m | -1.6m/s | 0°C | 0% | 0hPa | 0V | 00:00:00 | 00:00:00 | 00:00:00 | |
| DL1NUX | 2026-08-31 15:14:44 | 51.28165 | 10.20714 | 65° | 68km/h | 2599m | -1.5m/s | 0°C | 0% | 0hPa | 0V | 00:00:00 | 00:00:00 | 00:00:00 | |
| DF8AY | 2026-08-31 15:14:44 | 51.28194 | 10.20815 | 66° | 68km/h | 2591m | -1.6m/s | 1°C | 0% | 0hPa | 5.1V | 00:00:00 | 00:00:00 | 00:00:00 | |
| DM0DOS-11 | 2026-08-31 15:14:41 | 51.28180 | 10.20764 | 65° | 69km/h | 2596m | -1.6m/s | 0°C | 0% | 0hPa | 0V | 00:00:00 | 00:00:00 | 00:00:00 | |
| DM0DOS-11 | 2026-08-31 15:14:41 | 51.28143 | 10.20640 | 65° | 68km/h | 2604m | -1.6m/s | 0°C | 0% | 0hPa | 0V | 00:00:00 | 00:00:00 | 00:00:00 | |
| DF2AP-13 | 2026-08-31 15:14:41 | 51.28180 | 10.20764 | 66° | 68km/h | 2596m | -1.6m/s | 0°C | 0% | 0hPa | 5.1V | 00:00:00 | 00:00:00 | 00:00:00 | |
| HSKMA3-T | 2026-08-31 15:14:39 | 51.28165 | 10.20714 | 65° | 68km/h | 2598m | -1.6m/s | 1°C | 0% | 0hPa | 5.1V | 00:00:00 | 00:00:00 | 00:00:00 | |
| DB0NH | 2026-08-31 15:14:39 | 51.28165 | 10.20714 | 66° | 68km/h | 2599m | -1.5m/s | 0°C | 0% | 0hPa | 0V | 00:00:00 | 00:00:00 | 00:00:00 | |
| DL1NUX | 2026-08-31 15:14:38 | 51.28122 | 10.20564 | 64° | 69km/h | 2608m | -1.9m/s | 0°C | 0% | 0hPa | 0V | 00:00:00 | 00:00:00 | 00:00:00 | |
| DM0DOS-11 | 2026-08-31 15:14:31 | 51.28107 | 10.20514 | 64° | 68km/h | 2612m | -1.6m/s | 0°C | 0% | 0hPa | 0V | 00:00:00 | 00:00:00 | 00:00:00 | |
| DM0DOS-11 | 2026-08-31 15:14:31 | 51.28071 | 10.20391 | 66° | 68km/h | 2620m | -1.6m/s | 0°C | 0% | 0hPa | 0V | 00:00:00 | 00:00:00 | 00:00:00 | |
| SO1NDE-10 | 2026-08-31 15:14:30 | 51.28100 | 10.20489 | 65° | 68km/h | 2614m | -1.7m/s | 0°C | 0% | 0hPa | 5.1V | 00:00:00 | 00:00:00 | 00:00:00 | |
| HSKMA3-T | 2026-08-31 15:14:29 | 51.28085 | 10.20440 | 65° | 66km/h | 2615m | -1.6m/s | 0.8°C | 0% | 0hPa | 5.1V | 00:00:00 | 00:00:00 | 00:00:00 | |
| DL1NUX | 2026-08-31 15:14:28 | 51.28085 | 10.20440 | 65° | 66km/h | 2617m | -1.6m/s | 0°C | 0% | 0hPa | 0V | 00:00:00 | 00:00:00 | 00:00:00 | |
| DL1NUX | 2026-08-31 15:14:28 | 51.28050 | 10.20316 | 66° | 68km/h | 2630m | -1.9m/s | 0°C | 0% | 0hPa | 0V | 00:00:00 | 00:00:00 | 00:00:00 | |
| DF8AY | 2026-08-31 15:14:23 | 51.28043 | 10.20291 | 66° | 69km/h | 2626m | -2m/s | 0.7°C | 0% | 0hPa | 5.1V | 00:00:00 | 00:00:00 | 00:00:00 | |
| DF2AP-13 | 2026-08-31 15:14:21 | 51.28036 | 10.20265 | 66° | 68km/h | 2630m | -1.8m/s | 0°C | 0% | 0hPa | 0V | 00:00:00 | 00:00:00 | 00:00:00 | |
| DM0DOS-11 | 2026-08-31 15:14:20 | 51.27994 | 10.20117 | 65° | 68km/h | 2643m | -2.3m/s | 0°C | 0% | 0hPa | 0V | 00:00:00 | 00:00:00 | 00:00:00 | |
| DB0NH | 2026-08-31 15:14:19 | 51.28022 | 10.20216 | 67° | 68km/h | 2634m | -2.0m/s | 0°C | 0% | 0hPa | 0V | 00:00:00 | 00:00:00 | 00:00:00 | |
| DL1NUX | 2026-08-31 15:14:18 | 51.28015 | 10.20191 | 64° | 68km/h | 2636m | -2.1m/s | 0°C | 0% | 0hPa | 0V | 00:00:00 | 00:00:00 | 00:00:00 | |
| DL1NUX | 2026-08-31 15:14:18 | 51.27979 | 10.20068 | 63° | 68km/h | 2647m | -2.3m/s | 0°C | 0% | 0hPa | 0V | 00:00:00 | 00:00:00 | 00:00:00 | |
| HSKMA3-T | 2026-08-31 15:14:18 | 51.28008 | 10.20166 | 65° | 68km/h | 2636m | -2.1m/s | 0.6°C | 0% | 0hPa | 5V | 00:00:00 | 00:00:00 | 00:00:00 | |
| DL1NUX | 2026-08-31 15:14:13 | 51.27943 | 10.19944 | 65° | 68km/h | 2658m | -2m/s | 0°C | 0% | 0hPa | 0V | 00:00:00 | 00:00:00 | 00:00:00 | |
| DF8AY | 2026-08-31 15:14:12 | 51.27964 | 10.20019 | 66° | 68km/h | 2649m | -2.2m/s | 0.5°C | 0% | 0hPa | 5V | 00:00:00 | 00:00:00 | 00:00:00 | |
| SO1NDE-10 | 2026-08-31 15:14:10 | 51.27957 | 10.19994 | 66° | 68km/h | 2654m | -2.3m/s | 0°C | 0% | 0hPa | 0V | 00:00:00 | 00:00:00 | 00:00:00 | |
| DM0DOS-11 | 2026-08-31 15:14:05 | 51.27922 | 10.19871 | 66° | 66km/h | 2665m | -2m/s | 0°C | 0% | 0hPa | 0V | 00:00:00 | 00:00:00 | 00:00:00 | |
| DM0DOS-11 | 2026-08-31 15:14:05 | 51.27887 | 10.19748 | 66° | 66km/h | 2675m | -2m/s | 0°C | 0% | 0hPa | 0V | 00:00:00 | 00:00:00 | 00:00:00 | |
| DL1NUX | 2026-08-31 15:14:03 | 51.27908 | 10.19821 | 65° | 68km/h | 2669m | -2m/s | 0°C | 0% | 0hPa | 0V | 00:00:00 | 00:00:00 | 00:00:00 | |
| DL1NUX | 2026-08-31 15:14:03 | 51.27874 | 10.19698 | 65° | 68km/h | 2679m | -1.9m/s | 0°C | 0% | 0hPa | 0V | 00:00:00 | 00:00:00 | 00:00:00 | |
| DB0UT-7 | 2026-08-31 15:14:02 | 51.27901 | 10.19797 | 66° | 68km/h | 2671m | -1.9m/s | 0°C | 0% | 0hPa | 5V | 00:00:00 | 00:00:00 | 00:00:00 | |
| DF8AY | 2026-08-31 15:14:01 | 51.27887 | 10.19748 | 66° | 66km/h | 2672m | -2m/s | 0.3°C | 0% | 0hPa | 5V | 00:00:00 | 00:00:00 | 00:00:00 | |
| DF2AP-13 | 2026-08-31 15:14:01 | 51.27894 | 10.19772 | 67° | 68km/h | 2672m | -1.9m/s | 0°C | 0% | 0hPa | 0V | 00:00:00 | 00:00:00 | 00:00:00 | |
| DB0NH | 2026-08-31 15:13:59 | 51.27880 | 10.19723 | 66° | 68km/h | 2676m | -1.9m/s | 0°C | 0% | 0hPa | 0V | 00:00:00 | 00:00:00 | 00:00:00 | |
| DL1NUX | 2026-08-31 15:13:58 | 51.27839 | 10.19575 | 66° | 68km/h | 2688m | -2m/s | 0°C | 0% | 0hPa | 0V | 00:00:00 | 00:00:00 | 00:00:00 | |
| HSKMA3-T | 2026-08-31 15:13:57 | 51.27860 | 10.19649 | 66° | 68km/h | 2681m | -2m/s | 0.2°C | 0% | 0hPa | 5V | 00:00:00 | 00:00:00 | 00:00:00 | |
| DM0DOS-11 | 2026-08-31 15:13:50 | 51.27818 | 10.19501 | 66° | 66km/h | 2694m | -2m/s | 0°C | 0% | 0hPa | 0V | 00:00:00 | 00:00:00 | 00:00:00 | |
| DM0DOS-11 | 2026-08-31 15:13:50 | 51.27784 | 10.19379 | 65° | 68km/h | 2704m | -1.8m/s | 0°C | 0% | 0hPa | 0V | 00:00:00 | 00:00:00 | 00:00:00 | |
| DF8AY | 2026-08-31 15:13:50 | 51.27811 | 10.19477 | 66° | 66km/h | 2694m | -2m/s | 0.1°C | 0% | 0hPa | 5V | 00:00:00 | 00:00:00 | 00:00:00 | |
| HSKMA3-T | 2026-08-31 15:13:46 | 51.27783 | 10.19379 | 66° | 68km/h | 2702m | -1.9m/s | 0.1°C | 0% | 0hPa | 5V | 00:00:00 | 00:00:00 | 00:00:00 | |
| DM0DOS-11 | 2026-08-31 15:13:45 | 51.27747 | 10.19258 | 63° | 66km/h | 2713m | -2.1m/s | 0°C | 0% | 0hPa | 0V | 00:00:00 | 00:00:00 | 00:00:00 | |
| DL1NUX | 2026-08-31 15:13:43 | 51.27769 | 10.19331 | 65° | 66km/h | 2708m | -2m/s | 0°C | 0% | 0hPa | 0V | 00:00:00 | 00:00:00 | 00:00:00 | |
| DF2AP-13 | 2026-08-31 15:13:41 | 51.27755 | 10.19282 | 64° | 66km/h | 2712m | -1.7m/s | 0°C | 0% | 0hPa | 5V | 00:00:00 | 00:00:00 | 00:00:00 | |
| DF8AY | 2026-08-31 15:13:40 | 51.27740 | 10.19234 | 65° | 66km/h | 2713m | -2.1m/s | -0°C | 0% | 0hPa | 5V | 00:00:00 | 00:00:00 | 00:00:00 | |
| DB0NH | 2026-08-31 15:13:39 | 51.27740 | 10.19234 | 65° | 66km/h | 2715m | -2.0m/s | 0°C | 0% | 0hPa | 0V | 00:00:00 | 00:00:00 | 00:00:00 | |
| DB0UT-7 | 2026-08-31 15:13:38 | 51.27732 | 10.19210 | 65° | 66km/h | 2721m | -1.9m/s | 0°C | 0% | 0hPa | 0V | 00:00:00 | 00:00:00 | 00:00:00 | |
| DM0DOS-11 | 2026-08-31 15:13:35 | 51.27712 | 10.19138 | 65° | 66km/h | 2723m | -1.8m/s | 0°C | 0% | 0hPa | 0V | 00:00:00 | 00:00:00 | 00:00:00 | |
| DM0DOS-11 | 2026-08-31 15:13:35 | 51.27676 | 10.19016 | 63° | 68km/h | 2732m | -1.9m/s | 0°C | 0% | 0hPa | 0V | 00:00:00 | 00:00:00 | 00:00:00 | |
| HSKMA3-T | 2026-08-31 15:13:35 | 51.27705 | 10.19114 | 66° | 66km/h | 2723m | -1.8m/s | -0.1°C | 0% | 0hPa | 5V | 00:00:00 | 00:00:00 | 00:00:00 | |
| DM0DOS-11 | 2026-08-31 15:13:30 | 51.27641 | 10.18896 | 65° | 66km/h | 2742m | -2m/s | 0°C | 0% | 0hPa | 0V | 00:00:00 | 00:00:00 | 00:00:00 | |
| SO1NDE-10 | 2026-08-31 15:13:30 | 51.27676 | 10.19016 | 64° | 66km/h | 2733m | -1.8m/s | 0°C | 0% | 0hPa | 5V | 00:00:00 | 00:00:00 | 00:00:00 | |
| DF8AY | 2026-08-31 15:13:29 | 51.27662 | 10.18968 | 65° | 66km/h | 2735m | -1.9m/s | -0.2°C | 0% | 0hPa | 5V | 00:00:00 | 00:00:00 | 00:00:00 | |
| DL1NUX | 2026-08-31 15:13:28 | 51.27662 | 10.18968 | 64° | 66km/h | 2736m | -1.8m/s | 0°C | 0% | 0hPa | 0V | 00:00:00 | 00:00:00 | 00:00:00 | |
| HSKMA3-T | 2026-08-31 15:13:24 | 51.27634 | 10.18872 | 66° | 66km/h | 2742m | -2m/s | -0.3°C | 0% | 0hPa | 5V | 00:00:00 | 00:00:00 | 00:00:00 | |
| DF2AP-13 | 2026-08-31 15:13:21 | 51.27613 | 10.18798 | 67° | 66km/h | 2750m | -1.8m/s | 0°C | 0% | 0hPa | 0V | 00:00:00 | 00:00:00 | 00:00:00 | |
| DM0DOS-11 | 2026-08-31 15:13:20 | 51.27606 | 10.18773 | 65° | 68km/h | 2751m | -2.1m/s | 0°C | 0% | 0hPa | 0V | 00:00:00 | 00:00:00 | 00:00:00 | |
| DM0DOS-11 | 2026-08-31 15:13:20 | 51.27572 | 10.18652 | 66° | 66km/h | 2761m | -1.8m/s | 0°C | 0% | 0hPa | 0V | 00:00:00 | 00:00:00 | 00:00:00 | |
| DB0NH | 2026-08-31 15:13:19 | 51.27599 | 10.18749 | 66° | 66km/h | 2753m | -1.9m/s | 0°C | 0% | 0hPa | 0V | 00:00:00 | 00:00:00 | 00:00:00 | |
| DL1NUX | 2026-08-31 15:13:18 | 51.27592 | 10.18725 | 66° | 66km/h | 2755m | -1.7m/s | 0°C | 0% | 0hPa | 0V | 00:00:00 | 00:00:00 | 00:00:00 | |
| DF8AY | 2026-08-31 15:13:18 | 51.27586 | 10.18701 | 66° | 66km/h | 2755m | -1.7m/s | -0.4°C | 0% | 0hPa | 5V | 00:00:00 | 00:00:00 | 00:00:00 | |
| DM0DOS-11 | 2026-08-31 15:13:15 | 51.27539 | 10.18529 | 65° | 66km/h | 2769m | -1.5m/s | 0°C | 0% | 0hPa | 0V | 00:00:00 | 00:00:00 | 00:00:00 | |
| HSKMA3-T | 2026-08-31 15:13:14 | 51.27566 | 10.18627 | 67° | 66km/h | 2761m | -1.8m/s | -0.4°C | 0% | 0hPa | 5V | 00:00:00 | 00:00:00 | 00:00:00 | |
| DL1NUX | 2026-08-31 15:13:12 | 51.27518 | 10.18457 | 67° | 66km/h | 2774m | -1.5m/s | 0°C | 0% | 0hPa | 0V | 00:00:00 | 00:00:00 | 00:00:00 | |
| SO1NDE-10 | 2026-08-31 15:13:10 | 51.27539 | 10.18529 | 66° | 66km/h | 2769m | -1.4m/s | 0°C | 0% | 0hPa | 5V | 00:00:00 | 00:00:00 | 00:00:00 | |
| DF8AY | 2026-08-31 15:13:07 | 51.27511 | 10.18432 | 67° | 66km/h | 2774m | -1.5m/s | -0.6°C | 0% | 0hPa | 5V | 00:00:00 | 00:00:00 | 00:00:00 | |
| DL1NUX | 2026-08-31 15:13:02 | 51.27485 | 10.18335 | 66° | 66km/h | 2781m | -1.7m/s | 0°C | 0% | 0hPa | 0V | 00:00:00 | 00:00:00 | 00:00:00 | |
| DL1NUX | 2026-08-31 15:13:02 | 51.27451 | 10.18211 | 65° | 68km/h | 2790m | -1.8m/s | 0°C | 0% | 0hPa | 0V | 00:00:00 | 00:00:00 | 00:00:00 | |
| DF2AP-13 | 2026-08-31 15:13:01 | 51.27478 | 10.18310 | 67° | 66km/h | 2783m | -1.7m/s | 0°C | 0% | 0hPa | 5V | 00:00:00 | 00:00:00 | 00:00:00 | |
| DM0DOS-11 | 2026-08-31 15:13:00 | 51.27472 | 10.18286 | 66° | 68km/h | 2785m | -1.9m/s | 0°C | 0% | 0hPa | 0V | 00:00:00 | 00:00:00 | 00:00:00 | |
| DM0DOS-11 | 2026-08-31 15:13:00 | 51.27438 | 10.18162 | 66° | 66km/h | 2793m | -1.8m/s | 0°C | 0% | 0hPa | 0V | 00:00:00 | 00:00:00 | 00:00:00 | |
| DB0NH | 2026-08-31 15:12:59 | 51.27465 | 10.18260 | 67° | 66km/h | 2786m | -1.7m/s | 0°C | 0% | 0hPa | 5V | 00:00:00 | 00:00:00 | 00:00:00 | |
| DB0UT-7 | 2026-08-31 15:12:57 | 51.27451 | 10.18211 | 66° | 66km/h | 2792m | -1.8m/s | 0°C | 0% | 0hPa | 5V | 00:00:00 | 00:00:00 | 00:00:00 | |
| DL1NUX | 2026-08-31 15:12:57 | 51.27417 | 10.18089 | 66° | 68km/h | 2801m | -1.8m/s | 0°C | 0% | 0hPa | 0V | 00:00:00 | 00:00:00 | 00:00:00 | |
| HSKMA3-T | 2026-08-31 15:12:56 | 51.27437 | 10.18162 | 66° | 66km/h | 2792m | -1.9m/s | -0.7°C | 0% | 0hPa | 5V | 00:00:00 | 00:00:00 | 00:00:00 | |
| DM0DOS-11 | 2026-08-31 15:12:55 | 51.27404 | 10.18040 | 67° | 66km/h | 2804m | -1.5m/s | 0°C | 0% | 0hPa | 0V | 00:00:00 | 00:00:00 | 00:00:00 | |
| SO1NDE-10 | 2026-08-31 15:12:50 | 51.27403 | 10.18040 | 68° | 66km/h | 2803m | -1.6m/s | 0°C | 0% | 0hPa | 0V | 00:00:00 | 00:00:00 | 00:00:00 | |
| DL1NUX | 2026-08-31 15:12:47 | 51.27384 | 10.17965 | 67° | 68km/h | 2808m | -1.5m/s | 0°C | 0% | 0hPa | 0V | 00:00:00 | 00:00:00 | 00:00:00 | |
| DL1NUX | 2026-08-31 15:12:47 | 51.27352 | 10.17841 | 67° | 64km/h | 2815m | -1.6m/s | 0°C | 0% | 0hPa | 0V | 00:00:00 | 00:00:00 | 00:00:00 | |
| HSKMA3-T | 2026-08-31 15:12:45 | 51.27371 | 10.17916 | 69° | 68km/h | 2809m | -1.7m/s | -0.8°C | 0% | 0hPa | 5V | 00:00:00 | 00:00:00 | 00:00:00 | |
| DL1NUX | 2026-08-31 15:12:42 | 51.27320 | 10.17723 | 67° | 64km/h | 2824m | -1.9m/s | 0°C | 0% | 0hPa | 0V | 00:00:00 | 00:00:00 | 00:00:00 | |
| DF2AP-13 | 2026-08-31 15:12:41 | 51.27346 | 10.17817 | 67° | 66km/h | 2817m | -1.5m/s | 0°C | 0% | 0hPa | 0V | 00:00:00 | 00:00:00 | 00:00:00 | |
| DM0DOS-11 | 2026-08-31 15:12:39 | 51.27333 | 10.17769 | 65° | 64km/h | 2821m | -1.7m/s | 0°C | 0% | 0hPa | 0V | 00:00:00 | 00:00:00 | 00:00:00 | |
| DM0DOS-11 | 2026-08-31 15:12:39 | 51.27300 | 10.17649 | 65° | 68km/h | 2829m | -1.6m/s | 0°C | 0% | 0hPa | 0V | 00:00:00 | 00:00:00 | 00:00:00 | |
| DB0NH | 2026-08-31 15:12:39 | 51.27333 | 10.17769 | 66° | 66km/h | 2821m | -1.7m/s | 0°C | 0% | 0hPa | 5V | 00:00:00 | 00:00:00 | 00:00:00 | |
| HSKMA3-T | 2026-08-31 15:12:35 | 51.27300 | 10.17649 | 66° | 68km/h | 2828m | -1.7m/s | -1°C | 0% | 0hPa | 5V | 00:00:00 | 00:00:00 | 00:00:00 | |
| DM0DOS-11 | 2026-08-31 15:12:34 | 51.27265 | 10.17527 | 65° | 66km/h | 2836m | -1m/s | 0°C | 0% | 0hPa | 0V | 00:00:00 | 00:00:00 | 00:00:00 | |
| DL1NUX | 2026-08-31 15:12:32 | 51.27286 | 10.17600 | 65° | 66km/h | 2833m | -1.5m/s | 0°C | 0% | 0hPa | 0V | 00:00:00 | 00:00:00 | 00:00:00 | |
| DL1NUX | 2026-08-31 15:12:32 | 51.27251 | 10.17478 | 65° | 68km/h | 2839m | -1m/s | 0°C | 0% | 0hPa | 0V | 00:00:00 | 00:00:00 | 00:00:00 | |
| SO1NDE-10 | 2026-08-31 15:12:30 | 51.27272 | 10.17551 | 66° | 64km/h | 2835m | -1.1m/s | 0°C | 0% | 0hPa | 0V | 00:00:00 | 00:00:00 | 00:00:00 | |
| DM0DOS-11 | 2026-08-31 15:12:29 | 51.27230 | 10.17406 | 64° | 66km/h | 2840m | -0.9m/s | 0°C | 0% | 0hPa | 0V | 00:00:00 | 00:00:00 | 00:00:00 | |
| DM0DOS-11 | 2026-08-31 15:12:24 | 51.27194 | 10.17289 | 63° | 64km/h | 2855m | -1.8m/s | 0°C | 0% | 0hPa | 0V | 00:00:00 | 00:00:00 | 00:00:00 | |
| HSKMA3-T | 2026-08-31 15:12:24 | 51.27223 | 10.17382 | 65° | 66km/h | 2841m | -1.2m/s | -0.9°C | 0% | 0hPa | 5V | 00:00:00 | 00:00:00 | 00:00:00 | |
| DF2AP-13 | 2026-08-31 15:12:21 | 51.27209 | 10.17335 | 64° | 62km/h | 2845m | -1.3m/s | 0°C | 0% | 0hPa | 0V | 00:00:00 | 00:00:00 | 00:00:00 | |
| DB0NH | 2026-08-31 15:12:19 | 51.27194 | 10.17289 | 64° | 62km/h | 2848m | -1.2m/s | 0°C | 0% | 0hPa | 0V | 00:00:00 | 00:00:00 | 00:00:00 | |
| DM0DOS-11 | 2026-08-31 15:12:18 | 51.27151 | 10.17152 | 64° | 62km/h | 2855m | -1.8m/s | 0°C | 0% | 0hPa | 0V | 00:00:00 | 00:00:00 | 00:00:00 | |
| DL1NUX | 2026-08-31 15:12:17 | 51.27179 | 10.17243 | 63° | 64km/h | 2851m | -1.3m/s | 0°C | 0% | 0hPa | 0V | 00:00:00 | 00:00:00 | 00:00:00 | |
| DL1NUX | 2026-08-31 15:12:17 | 51.27145 | 10.17130 | 64° | 62km/h | 2858m | -1.4m/s | 0°C | 0% | 0hPa | 0V | 00:00:00 | 00:00:00 | 00:00:00 | |
| DB0UT-7 | 2026-08-31 15:12:14 | 51.27158 | 10.17174 | 64° | 60km/h | 2861m | -1.4m/s | 0°C | 0% | 0hPa | 5V | 00:00:00 | 00:00:00 | 00:00:00 | |
| HSKMA3-T | 2026-08-31 15:12:13 | 51.27145 | 10.17129 | 65° | 62km/h | 2857m | -1.4m/s | -1.1°C | 0% | 0hPa | 5V | 00:00:00 | 00:00:00 | 00:00:00 | |
| SO1NDE-10 | 2026-08-31 15:12:10 | 51.27131 | 10.17085 | 64° | 60km/h | 2861m | -1.4m/s | 0°C | 0% | 0hPa | 0V | 00:00:00 | 00:00:00 | 00:00:00 | |
| DM0DOS-11 | 2026-08-31 15:12:07 | 51.27110 | 10.17019 | 63° | 62km/h | 2866m | -1.3m/s | 0°C | 0% | 0hPa | 0V | 00:00:00 | 00:00:00 | 00:00:00 | |
| HSKMA3-T | 2026-08-31 15:12:02 | 51.27075 | 10.16909 | 64° | 60km/h | 2871m | -1.4m/s | -1.1°C | 0% | 0hPa | 5V | 00:00:00 | 00:00:00 | 00:00:00 | |
| DL1NUX | 2026-08-31 15:12:02 | 51.27075 | 10.16909 | 64° | 60km/h | 2872m | -1.5m/s | 0°C | 0% | 0hPa | 0V | 00:00:00 | 00:00:00 | 00:00:00 | |
| DL1NUX | 2026-08-31 15:12:02 | 51.27040 | 10.16799 | 63° | 60km/h | 2879m | -1.5m/s | 0°C | 0% | 0hPa | 0V | 00:00:00 | 00:00:00 | 00:00:00 | |
| DM0DOS-11 | 2026-08-31 15:12:01 | 51.27034 | 10.16777 | 62° | 60km/h | 2879m | -1.5m/s | 0°C | 0% | 0hPa | 0V | 00:00:00 | 00:00:00 | 00:00:00 | |
| DF2AP-13 | 2026-08-31 15:12:01 | 51.27068 | 10.16887 | 65° | 60km/h | 2874m | -1.3m/s | 0°C | 0% | 0hPa | 0V | 00:00:00 | 00:00:00 | 00:00:00 | |
| DB0NH | 2026-08-31 15:11:58 | 51.27047 | 10.16821 | 64° | 60km/h | 2878m | -1.4m/s | 0°C | 0% | 0hPa | 0V | 00:00:00 | 00:00:00 | 00:00:00 | |
| DL1NUX | 2026-08-31 15:11:57 | 51.27007 | 10.16691 | 64° | 58km/h | 2886m | -1.4m/s | 0°C | 0% | 0hPa | 0V | 00:00:00 | 00:00:00 | 00:00:00 | |
| DM0DOS-11 | 2026-08-31 15:11:53 | 51.26981 | 10.16604 | 64° | 62km/h | 2891m | -1.5m/s | 0°C | 0% | 0hPa | 0V | 00:00:00 | 00:00:00 | 00:00:00 | |
| HSKMA3-T | 2026-08-31 15:11:52 | 51.27000 | 10.16670 | 64° | 58km/h | 2886m | -1.4m/s | -1.1°C | 0% | 0hPa | 5V | 00:00:00 | 00:00:00 | 00:00:00 | |
| SO1NDE-10 | 2026-08-31 15:11:50 | 51.26993 | 10.16648 | 65° | 60km/h | 2889m | -1.1m/s | 0°C | 0% | 0hPa | 0V | 00:00:00 | 00:00:00 | 00:00:00 | |
| DL1NUX | 2026-08-31 15:11:47 | 51.26974 | 10.16582 | 64° | 60km/h | 2893m | -1.4m/s | 0°C | 0% | 0hPa | 0V | 00:00:00 | 00:00:00 | 00:00:00 | |
| DL1NUX | 2026-08-31 15:11:47 | 51.26941 | 10.16468 | 65° | 60km/h | 2899m | -1.3m/s | 0°C | 0% | 0hPa | 0V | 00:00:00 | 00:00:00 | 00:00:00 | |
| DM0DOS-11 | 2026-08-31 15:11:43 | 51.26947 | 10.16490 | 65° | 60km/h | 2897m | -1.1m/s | 0°C | 0% | 0hPa | 0V | 00:00:00 | 00:00:00 | 00:00:00 | |
| DM0DOS-11 | 2026-08-31 15:11:43 | 51.26916 | 10.16381 | 64° | 60km/h | 2904m | -1.6m/s | 0°C | 0% | 0hPa | 0V | 00:00:00 | 00:00:00 | 00:00:00 | |
| DL1NUX | 2026-08-31 15:11:42 | 51.26909 | 10.16361 | 66° | 60km/h | 2906m | -1.4m/s | 0°C | 0% | 0hPa | 0V | 00:00:00 | 00:00:00 | 00:00:00 | |
| HSKMA3-T | 2026-08-31 15:11:41 | 51.26929 | 10.16424 | 65° | 58km/h | 2900m | -1.1m/s | -1.3°C | 0% | 0hPa | 5V | 00:00:00 | 00:00:00 | 00:00:00 | |
| DM0DOS-11 | 2026-08-31 15:11:38 | 51.26884 | 10.16267 | 67° | 62km/h | 2911m | -0.8m/s | 0°C | 0% | 0hPa | 0V | 00:00:00 | 00:00:00 | 00:00:00 | |
| DB0NH | 2026-08-31 15:11:38 | 51.26916 | 10.16381 | 65° | 60km/h | 2904m | -1.5m/s | 0°C | 0% | 0hPa | 0V | 00:00:00 | 00:00:00 | 00:00:00 | |
| DB0UT-7 | 2026-08-31 15:11:37 | 51.26909 | 10.16360 | 66° | 60km/h | 2906m | -1.4m/s | 0°C | 0% | 0hPa | 0V | 00:00:00 | 00:00:00 | 00:00:00 | |
| DL1NUX | 2026-08-31 15:11:36 | 51.26872 | 10.16222 | 66° | 62km/h | 2913m | -0.9m/s | 0°C | 0% | 0hPa | 0V | 00:00:00 | 00:00:00 | 00:00:00 | |
| BIOWL1-15 | 2026-08-31 15:11:32 | 51.26872 | 10.16222 | 67° | 62km/h | 2912m | -1.1m/s | -1.4°C | 0% | 0hPa | 5V | 00:00:00 | 00:00:00 | 00:00:00 | |
| DL1NUX | 2026-08-31 15:11:31 | 51.26841 | 10.16112 | 66° | 60km/h | 2921m | -1.7m/s | 0°C | 0% | 0hPa | 0V | 00:00:00 | 00:00:00 | 00:00:00 | |
| SO1NDE-10 | 2026-08-31 15:11:30 | 51.26866 | 10.16199 | 65° | 60km/h | 2914m | -1.5m/s | 0°C | 0% | 0hPa | 0V | 00:00:00 | 00:00:00 | 00:00:00 | |
| HSKMA3-T | 2026-08-31 15:11:30 | 51.26859 | 10.16177 | 65° | 58km/h | 2914m | -1.5m/s | -1.5°C | 0% | 0hPa | 5V | 00:00:00 | 00:00:00 | 00:00:00 | |
| DM0DOS-11 | 2026-08-31 15:11:23 | 51.26823 | 10.16044 | 66° | 60km/h | 2925m | -1.6m/s | 0°C | 0% | 0hPa | 0V | 00:00:00 | 00:00:00 | 00:00:00 | |
| THATR2-17 | 2026-08-31 15:11:22 | 51.26798 | 10.15954 | 66° | 60km/h | 2930m | 0m/s | 0°C | 0% | 0hPa | 0V | 00:00:00 | 00:00:00 | 00:00:00 | |
| DL1NUX | 2026-08-31 15:11:21 | 51.26810 | 10.15999 | 67° | 60km/h | 2929m | -1.6m/s | 0°C | 0% | 0hPa | 0V | 00:00:00 | 00:00:00 | 00:00:00 | |
| DL1NUX | 2026-08-31 15:11:21 | 51.26780 | 10.15884 | 66° | 62km/h | 2938m | -1.6m/s | 0°C | 0% | 0hPa | 0V | 00:00:00 | 00:00:00 | 00:00:00 | |
| DF2AP-13 | 2026-08-31 15:11:21 | 51.26810 | 10.15999 | 68° | 62km/h | 2929m | -1.6m/s | 0°C | 0% | 0hPa | 5V | 00:00:00 | 00:00:00 | 00:00:00 | |
| HSKMA3-T | 2026-08-31 15:11:19 | 51.26798 | 10.15954 | 66° | 62km/h | 2930m | -1.7m/s | -1.7°C | 0% | 0hPa | 5V | 00:00:00 | 00:00:00 | 00:00:00 | |
| DB0NH | 2026-08-31 15:11:18 | 51.26792 | 10.15930 | 67° | 62km/h | 2934m | -2.0m/s | 0°C | 0% | 0hPa | 5V | 00:00:00 | 00:00:00 | 00:00:00 | |
| DB0UT-7 | 2026-08-31 15:11:17 | 51.26786 | 10.15907 | 67° | 62km/h | 2936m | -1.8m/s | 0°C | 0% | 0hPa | 5V | 00:00:00 | 00:00:00 | 00:00:00 | |
| BIOWL1-15 | 2026-08-31 15:11:15 | 51.26768 | 10.15838 | 68° | 60km/h | 2940m | -1.8m/s | -1.7°C | 0% | 0hPa | 5V | 00:00:00 | 00:00:00 | 00:00:00 | |
| DL1NUX | 2026-08-31 15:11:11 | 51.26750 | 10.15769 | 67° | 62km/h | 2947m | -1.9m/s | 0°C | 0% | 0hPa | 0V | 00:00:00 | 00:00:00 | 00:00:00 | |
| DL1NUX | 2026-08-31 15:11:11 | 51.26719 | 10.15653 | 65° | 64km/h | 2957m | -2m/s | 0°C | 0% | 0hPa | 0V | 00:00:00 | 00:00:00 | 00:00:00 | |
| SO1NDE-10 | 2026-08-31 15:11:10 | 51.26744 | 10.15746 | 68° | 68km/h | 2949m | -1.8m/s | 0°C | 0% | 0hPa | 5V | 00:00:00 | 00:00:00 | 00:00:00 | |
| HSKMA3-T | 2026-08-31 15:11:09 | 51.26732 | 10.15700 | 67° | 62km/h | 2951m | -2m/s | -1.9°C | 0% | 0hPa | 5V | 00:00:00 | 00:00:00 | 00:00:00 | |
| DM0DOS-11 | 2026-08-31 15:11:08 | 51.26732 | 10.15700 | 66° | 62km/h | 2953m | -2.1m/s | 0°C | 0% | 0hPa | 0V | 00:00:00 | 00:00:00 | 00:00:00 | |
| BIOWL1-15 | 2026-08-31 15:11:04 | 51.26706 | 10.15607 | 66° | 62km/h | 2959m | -2.1m/s | -1.9°C | 0% | 0hPa | 5V | 00:00:00 | 00:00:00 | 00:00:00 | |
| DM0DOS-11 | 2026-08-31 15:11:03 | 51.26667 | 10.15471 | 66° | 60km/h | 2974m | -2.2m/s | 0°C | 0% | 0hPa | 0V | 00:00:00 | 00:00:00 | 00:00:00 | |
| DF2AP-13 | 2026-08-31 15:11:01 | 51.26686 | 10.15538 | 66° | 62km/h | 2968m | -2.1m/s | 0°C | 0% | 0hPa | 5V | 00:00:00 | 00:00:00 | 00:00:00 | |
| HSKMA3-T | 2026-08-31 15:10:58 | 51.26661 | 10.15448 | 67° | 62km/h | 2974m | -2.2m/s | -2°C | 0% | 0hPa | 5V | 00:00:00 | 00:00:00 | 00:00:00 | |
| DB0UT-7 | 2026-08-31 15:10:57 | 51.26661 | 10.15448 | 67° | 62km/h | 2976m | -2.2m/s | 0°C | 0% | 0hPa | 0V | 00:00:00 | 00:00:00 | 00:00:00 | |
| DM0DOS-11 | 2026-08-31 15:10:53 | 51.26637 | 10.15357 | 67° | 62km/h | 2985m | -2.2m/s | 0°C | 0% | 0hPa | 0V | 00:00:00 | 00:00:00 | 00:00:00 | |
| DM0DOS-11 | 2026-08-31 15:10:53 | 51.26606 | 10.15240 | 67° | 64km/h | 2995m | -2.1m/s | 0°C | 0% | 0hPa | 0V | 00:00:00 | 00:00:00 | 00:00:00 | |
| BIOWL1-15 | 2026-08-31 15:10:51 | 51.26625 | 10.15310 | 67° | 64km/h | 2987m | -2m/s | -2.2°C | 0% | 0hPa | 5V | 00:00:00 | 00:00:00 | 00:00:00 | |
| DM0DOS-11 | 2026-08-31 15:10:48 | 51.26574 | 10.15119 | 64° | 64km/h | 3006m | -2.2m/s | 0°C | 0% | 0hPa | 0V | 00:00:00 | 00:00:00 | 00:00:00 | |
| HSKMA3-T | 2026-08-31 15:10:47 | 51.26593 | 10.15192 | 67° | 64km/h | 2997m | -2m/s | -2.3°C | 0% | 0hPa | 5V | 00:00:00 | 00:00:00 | 00:00:00 | |
| DF2AP-13 | 2026-08-31 15:10:41 | 51.26560 | 10.15074 | 64° | 68km/h | 3010m | -2.3m/s | 0°C | 0% | 0hPa | 0V | 00:00:00 | 00:00:00 | 00:00:00 | |
| DM0DOS-11 | 2026-08-31 15:10:38 | 51.26540 | 10.15007 | 65° | 62km/h | 3017m | -2.2m/s | 0°C | 0% | 0hPa | 0V | 00:00:00 | 00:00:00 | 00:00:00 | |
| DM0DOS-11 | 2026-08-31 15:10:38 | 51.26509 | 10.14883 | 70° | 68km/h | 3029m | -2.3m/s | 0°C | 0% | 0hPa | 0V | 00:00:00 | 00:00:00 | 00:00:00 | |
| DB0NH | 2026-08-31 15:10:38 | 51.26540 | 10.15007 | 66° | 68km/h | 3018m | -2.2m/s | 0°C | 0% | 0hPa | 5V | 00:00:00 | 00:00:00 | 00:00:00 | |
| DB0UT-7 | 2026-08-31 15:10:37 | 51.26534 | 10.14984 | 67° | 68km/h | 3022m | -2.1m/s | 0°C | 0% | 0hPa | 5V | 00:00:00 | 00:00:00 | 00:00:00 | |
| BIOWL1-15 | 2026-08-31 15:10:36 | 51.26527 | 10.14959 | 68° | 66km/h | 3020m | -2.6m/s | -2.4°C | 0% | 0hPa | 5V | 00:00:00 | 00:00:00 | 00:00:00 | |
| HSKMA3-T | 2026-08-31 15:10:36 | 51.26521 | 10.14934 | 70° | 68km/h | 3022m | -2.1m/s | -2.4°C | 0% | 0hPa | 5V | 00:00:00 | 00:00:00 | 00:00:00 | |
| DL1NUX | 2026-08-31 15:10:34 | 51.26487 | 10.14779 | 69° | 69km/h | 3038m | -2m/s | 0°C | 0% | 0hPa | 0V | 00:00:00 | 00:00:00 | 00:00:00 | |
| DM0DOS-11 | 2026-08-31 15:10:33 | 51.26480 | 10.14752 | 67° | 69km/h | 3040m | -1.9m/s | 0°C | 0% | 0hPa | 0V | 00:00:00 | 00:00:00 | 00:00:00 | |
| HSKMA3-T | 2026-08-31 15:10:25 | 51.26461 | 10.14676 | 69° | 66km/h | 3044m | -2.4m/s | -2.6°C | 0% | 0hPa | 5V | 00:00:00 | 00:00:00 | 00:00:00 | |
| DM0DOS-11 | 2026-08-31 15:10:23 | 51.26449 | 10.14626 | 69° | 68km/h | 3051m | -2.2m/s | 0°C | 0% | 0hPa | 0V | 00:00:00 | 00:00:00 | 00:00:00 | |
| DM0DOS-11 | 2026-08-31 15:10:23 | 51.26418 | 10.14496 | 67° | 69km/h | 3061m | -2m/s | 0°C | 0% | 0hPa | 0V | 00:00:00 | 00:00:00 | 00:00:00 | |
| DL1NUX | 2026-08-31 15:10:19 | 51.26425 | 10.14522 | 67° | 69km/h | 3059m | -1.9m/s | 0°C | 0% | 0hPa | 0V | 00:00:00 | 00:00:00 | 00:00:00 | |
| DL1NUX | 2026-08-31 15:10:19 | 51.26390 | 10.14396 | 66° | 66km/h | 3069m | -2.1m/s | 0°C | 0% | 0hPa | 0V | 00:00:00 | 00:00:00 | 00:00:00 | |
| SO1NDE-10 | 2026-08-31 15:10:18 | 51.26418 | 10.14496 | 68° | 69km/h | 3061m | -1.9m/s | 0°C | 0% | 0hPa | 5V | 00:00:00 | 00:00:00 | 00:00:00 | |
| HSKMA3-T | 2026-08-31 15:10:15 | 51.26390 | 10.14396 | 67° | 66km/h | 3067m | -1.5m/s | -2.7°C | 0% | 0hPa | 5V | 00:00:00 | 00:00:00 | 00:00:00 | |
| DF2AP-13 | 2026-08-31 15:10:11 | 51.26371 | 10.14322 | 71° | 69km/h | 3075m | -2.2m/s | 0°C | 0% | 0hPa | 5V | 00:00:00 | 00:00:00 | 00:00:00 | |
| BIOWL1-15 | 2026-08-31 15:10:10 | 51.26365 | 10.14296 | 70° | 69km/h | 3075m | -2.2m/s | -2.8°C | 0% | 0hPa | 5V | 00:00:00 | 00:00:00 | 00:00:00 | |
| DL1NUX | 2026-08-31 15:10:08 | 51.26353 | 10.14243 | 69° | 71km/h | 3082m | -2.7m/s | 0°C | 0% | 0hPa | 0V | 00:00:00 | 00:00:00 | 00:00:00 | |
| DL1NUX | 2026-08-31 15:10:08 | 51.26322 | 10.14110 | 69° | 69km/h | 3094m | -2.5m/s | 0°C | 0% | 0hPa | 0V | 00:00:00 | 00:00:00 | 00:00:00 | |
| DB0NH | 2026-08-31 15:10:08 | 51.26353 | 10.14243 | 70° | 69km/h | 3083m | -2.7m/s | 0°C | 0% | 0hPa | 5V | 00:00:00 | 00:00:00 | 00:00:00 | |
| DB0UT-7 | 2026-08-31 15:10:07 | 51.26346 | 10.14216 | 70° | 69km/h | 3085m | -2.2m/s | 0°C | 0% | 0hPa | 5V | 00:00:00 | 00:00:00 | 00:00:00 | |
| HSKMA3-T | 2026-08-31 15:10:04 | 51.26322 | 10.14110 | 69° | 69km/h | 3092m | -2.6m/s | -2.9°C | 0% | 0hPa | 5V | 00:00:00 | 00:00:00 | 00:00:00 | |
| BIOWL1-15 | 2026-08-31 15:10:02 | 51.26295 | 10.14006 | 68° | 71km/h | 3103m | -2.9m/s | -3°C | 0% | 0hPa | 5V | 00:00:00 | 00:00:00 | 00:00:00 | |
| SO1NDE-10 | 2026-08-31 15:09:58 | 51.26288 | 10.13979 | 69° | 68km/h | 3108m | -2.5m/s | 0°C | 0% | 0hPa | 0V | 00:00:00 | 00:00:00 | 00:00:00 | |
| DL1NUX | 2026-08-31 15:09:53 | 51.26258 | 10.13850 | 69° | 66km/h | 3121m | -2.7m/s | 0°C | 0% | 0hPa | 0V | 00:00:00 | 00:00:00 | 00:00:00 | |
| DL1NUX | 2026-08-31 15:09:53 | 51.26229 | 10.13723 | 69° | 69km/h | 3135m | -2.9m/s | 0°C | 0% | 0hPa | 0V | 00:00:00 | 00:00:00 | 00:00:00 | |
| HSKMA3-T | 2026-08-31 15:09:53 | 51.26252 | 10.13825 | 70° | 66km/h | 3121m | -2.7m/s | -3.1°C | 0% | 0hPa | 5V | 00:00:00 | 00:00:00 | 00:00:00 | |
| DL1NUX | 2026-08-31 15:09:48 | 51.26199 | 10.13591 | 69° | 69km/h | 3152m | -3.8m/s | 0°C | 0% | 0hPa | 0V | 00:00:00 | 00:00:00 | 00:00:00 | |
| HSKMA3-T | 2026-08-31 15:09:43 | 51.26193 | 10.13565 | 69° | 69km/h | 3152m | -3.8m/s | -3.2°C | 0% | 0hPa | 5V | 00:00:00 | 00:00:00 | 00:00:00 | |
| DF2AP-13 | 2026-08-31 15:09:41 | 51.26186 | 10.13539 | 69° | 69km/h | 3160m | -3.7m/s | 0°C | 0% | 0hPa | 0V | 00:00:00 | 00:00:00 | 00:00:00 | |
| DL1NUX | 2026-08-31 15:09:38 | 51.26167 | 10.13462 | 67° | 68km/h | 3171m | -3.9m/s | 0°C | 0% | 0hPa | 0V | 00:00:00 | 00:00:00 | 00:00:00 | |
| DL1NUX | 2026-08-31 15:09:38 | 51.26134 | 10.13335 | 67° | 68km/h | 3192m | -4.1m/s | 0°C | 0% | 0hPa | 0V | 00:00:00 | 00:00:00 | 00:00:00 | |
| DB0NH | 2026-08-31 15:09:38 | 51.26167 | 10.13462 | 68° | 69km/h | 3172m | -3.9m/s | 0°C | 0% | 0hPa | 0V | 00:00:00 | 00:00:00 | 00:00:00 | |
| DB0UT-7 | 2026-08-31 15:09:37 | 51.26160 | 10.13437 | 68° | 69km/h | 3176m | -4.0m/s | 0°C | 0% | 0hPa | 0V | 00:00:00 | 00:00:00 | 00:00:00 | |
| DL1NUX | 2026-08-31 15:09:33 | 51.26099 | 10.13208 | 66° | 69km/h | 3210m | -3.5m/s | 0°C | 0% | 0hPa | 0V | 00:00:00 | 00:00:00 | 00:00:00 | |
| HSKMA3-T | 2026-08-31 15:09:32 | 51.26120 | 10.13284 | 67° | 69km/h | 3196m | -3.9m/s | -3.5°C | 0% | 0hPa | 5V | 00:00:00 | 00:00:00 | 00:00:00 | |
| BIOWL1-15 | 2026-08-31 15:09:27 | 51.26092 | 10.13182 | 66° | 71km/h | 3210m | -3.5m/s | -3.7°C | 0% | 0hPa | 5V | 00:00:00 | 00:00:00 | 00:00:00 | |
| DL1NUX | 2026-08-31 15:09:23 | 51.26063 | 10.13080 | 67° | 69km/h | 3227m | -2.9m/s | 0°C | 0% | 0hPa | 0V | 00:00:00 | 00:00:00 | 00:00:00 | |
| DL1NUX | 2026-08-31 15:09:23 | 51.26028 | 10.12949 | 66° | 71km/h | 3242m | -2.8m/s | 0°C | 0% | 0hPa | 0V | 00:00:00 | 00:00:00 | 00:00:00 | |
| HSKMA3-T | 2026-08-31 15:09:21 | 51.26042 | 10.13002 | 67° | 71km/h | 3233m | -3m/s | -3.7°C | 0% | 0hPa | 5V | 00:00:00 | 00:00:00 | 00:00:00 | |
| SO1NDE-10 | 2026-08-31 15:09:18 | 51.26028 | 10.12949 | 67° | 73km/h | 3242m | -2.8m/s | 0°C | 0% | 0hPa | 0V | 00:00:00 | 00:00:00 | 00:00:00 | |
| DM0DOS-11 | 2026-08-31 15:09:14 | 51.25962 | 10.12711 | 67° | 73km/h | 3269m | -3m/s | 0°C | 0% | 0hPa | 0V | 00:00:00 | 00:00:00 | 00:00:00 | |
| DL1NUX | 2026-08-31 15:09:12 | 51.25983 | 10.12792 | 67° | 71km/h | 3260m | -3m/s | 0°C | 0% | 0hPa | 0V | 00:00:00 | 00:00:00 | 00:00:00 | |
| DL1NUX | 2026-08-31 15:09:12 | 51.25948 | 10.12657 | 66° | 73km/h | 3275m | -3m/s | 0°C | 0% | 0hPa | 0V | 00:00:00 | 00:00:00 | 00:00:00 | |
| DF2AP-13 | 2026-08-31 15:09:11 | 51.25976 | 10.12765 | 68° | 75km/h | 3263m | -3.1m/s | 0°C | 0% | 0hPa | 5V | 00:00:00 | 00:00:00 | 00:00:00 | |
| BIOWL1-15 | 2026-08-31 15:09:10 | 51.25962 | 10.12711 | 68° | 73km/h | 3266m | -2.7m/s | -4°C | 0% | 0hPa | 5V | 00:00:00 | 00:00:00 | 00:00:00 | |
| DM0DOS-11 | 2026-08-31 15:09:09 | 51.25925 | 10.12576 | 65° | 73km/h | 3284m | -2.8m/s | 0°C | 0% | 0hPa | 0V | 00:00:00 | 00:00:00 | 00:00:00 | |
| DB0NH | 2026-08-31 15:09:08 | 51.25955 | 10.12684 | 67° | 75km/h | 3272m | -3.1m/s | 0°C | 0% | 0hPa | 0V | 00:00:00 | 00:00:00 | 00:00:00 | |
| DL1NUX | 2026-08-31 15:09:07 | 51.25910 | 10.12522 | 65° | 73km/h | 3290m | -3m/s | 0°C | 0% | 0hPa | 0V | 00:00:00 | 00:00:00 | 00:00:00 | |
| HSKMA3-T | 2026-08-31 15:09:00 | 51.25888 | 10.12441 | 66° | 73km/h | 3296m | -3m/s | -4.1°C | 0% | 0hPa | 5V | 00:00:00 | 00:00:00 | 00:00:00 | |
| DM0DOS-11 | 2026-08-31 15:08:59 | 51.25888 | 10.12441 | 66° | 73km/h | 3302m | -2.7m/s | 0°C | 0% | 0hPa | 0V | 00:00:00 | 00:00:00 | 00:00:00 | |
| DM0DOS-11 | 2026-08-31 15:08:59 | 51.25850 | 10.12305 | 64° | 75km/h | 3312m | -2.4m/s | 0°C | 0% | 0hPa | 0V | 00:00:00 | 00:00:00 | 00:00:00 | |
| DL1NUX | 2026-08-31 15:08:57 | 51.25874 | 10.12387 | 65° | 73km/h | 3304m | -2.5m/s | 0°C | 0% | 0hPa | 0V | 00:00:00 | 00:00:00 | 00:00:00 | |
| DL1NUX | 2026-08-31 15:08:57 | 51.25834 | 10.12250 | 64° | 77km/h | 3317m | -2.6m/s | 0°C | 0% | 0hPa | 0V | 00:00:00 | 00:00:00 | 00:00:00 | |
| BIOWL1-15 | 2026-08-31 15:08:57 | 51.25850 | 10.12305 | 65° | 75km/h | 3309m | -2.5m/s | -4.2°C | 0% | 0hPa | 5V | 00:00:00 | 00:00:00 | 00:00:00 | |
| SO1NDE-10 | 2026-08-31 15:08:57 | 51.25873 | 10.12387 | 66° | 75km/h | 3304m | -2.5m/s | 0°C | 0% | 0hPa | 0V | 00:00:00 | 00:00:00 | 00:00:00 | |
| DM0DOS-11 | 2026-08-31 15:08:49 | 51.25811 | 10.12166 | 68° | 75km/h | 3325m | -3.1m/s | 0°C | 0% | 0hPa | 0V | 00:00:00 | 00:00:00 | 00:00:00 | |
| DM0DOS-11 | 2026-08-31 15:08:49 | 51.25759 | 10.11938 | 69° | 75km/h | 3351m | -3m/s | 0°C | 0% | 0hPa | 0V | 00:00:00 | 00:00:00 | 00:00:00 | |
| HSKMA3-T | 2026-08-31 15:08:49 | 51.25804 | 10.12138 | 69° | 75km/h | 3325m | -3.1m/s | -4.3°C | 0% | 0hPa | 5V | 00:00:00 | 00:00:00 | 00:00:00 | |
| DL1NUX | 2026-08-31 15:08:47 | 51.25766 | 10.11966 | 69° | 77km/h | 3348m | -3.2m/s | 0°C | 0% | 0hPa | 0V | 00:00:00 | 00:00:00 | 00:00:00 | |
| DF2AP-13 | 2026-08-31 15:08:41 | 51.25759 | 10.11938 | 70° | 77km/h | 3351m | -2.9m/s | 0°C | 0% | 0hPa | 5V | 00:00:00 | 00:00:00 | 00:00:00 | |
| BIOWL1-15 | 2026-08-31 15:08:40 | 51.25746 | 10.11881 | 70° | 75km/h | 3354m | -3.1m/s | -4.5°C | 0% | 0hPa | 5V | 00:00:00 | 00:00:00 | 00:00:00 | |
| HSKMA3-T | 2026-08-31 15:08:38 | 51.25733 | 10.11824 | 70° | 77km/h | 3360m | -2.6m/s | -4.5°C | 0% | 0hPa | 5V | 00:00:00 | 00:00:00 | 00:00:00 | |
| DL1NUX | 2026-08-31 15:08:37 | 51.25733 | 10.11824 | 69° | 77km/h | 3367m | -2.4m/s | 0°C | 0% | 0hPa | 0V | 00:00:00 | 00:00:00 | 00:00:00 | |
| DL1NUX | 2026-08-31 15:08:37 | 51.25699 | 10.11677 | 69° | 77km/h | 3374m | -2.3m/s | 0°C | 0% | 0hPa | 0V | 00:00:00 | 00:00:00 | 00:00:00 | |
| SO1NDE-10 | 2026-08-31 15:08:37 | 51.25733 | 10.11824 | 70° | 77km/h | 3367m | -2.3m/s | 0°C | 0% | 0hPa | 0V | 00:00:00 | 00:00:00 | 00:00:00 | |
| DM0DOS-11 | 2026-08-31 15:08:31 | 51.25692 | 10.11648 | 69° | 78km/h | 3377m | -2.2m/s | 0°C | 0% | 0hPa | 0V | 00:00:00 | 00:00:00 | 00:00:00 | |
| DM0DOS-11 | 2026-08-31 15:08:31 | 51.25660 | 10.11501 | 72° | 77km/h | 3387m | -2m/s | 0°C | 0% | 0hPa | 0V | 00:00:00 | 00:00:00 | 00:00:00 | |
| DL1NUX | 2026-08-31 15:08:27 | 51.25666 | 10.11531 | 72° | 77km/h | 3385m | -1.7m/s | 0°C | 0% | 0hPa | 0V | 00:00:00 | 00:00:00 | 00:00:00 | |
| DL1NUX | 2026-08-31 15:08:27 | 51.25636 | 10.11381 | 72° | 78km/h | 3396m | -2.5m/s | 0°C | 0% | 0hPa | 0V | 00:00:00 | 00:00:00 | 00:00:00 | |
| HSKMA3-T | 2026-08-31 15:08:27 | 51.25660 | 10.11501 | 72° | 77km/h | 3385m | -1.7m/s | -4.7°C | 0% | 0hPa | 5V | 00:00:00 | 00:00:00 | 00:00:00 | |
| DM0DOS-11 | 2026-08-31 15:08:26 | 51.25629 | 10.11350 | 71° | 78km/h | 3399m | -2.4m/s | 0°C | 0% | 0hPa | 0V | 00:00:00 | 00:00:00 | 00:00:00 | |
| BIOWL1-15 | 2026-08-31 15:08:21 | 51.25611 | 10.11262 | 71° | 77km/h | 3403m | -2.6m/s | -4.7°C | 0% | 0hPa | 5V | 00:00:00 | 00:00:00 | 00:00:00 | |
| DL1NUX | 2026-08-31 15:08:17 | 51.25574 | 10.11088 | 69° | 77km/h | 3422m | -2.6m/s | 0°C | 0% | 0hPa | 0V | 00:00:00 | 00:00:00 | 00:00:00 | |
| DM0DOS-11 | 2026-08-31 15:08:16 | 51.25599 | 10.11205 | 71° | 75km/h | 3411m | -2.6m/s | 0°C | 0% | 0hPa | 0V | 00:00:00 | 00:00:00 | 00:00:00 | |
| DM0DOS-11 | 2026-08-31 15:08:16 | 51.25568 | 10.11059 | 69° | 77km/h | 3424m | -2.6m/s | 0°C | 0% | 0hPa | 0V | 00:00:00 | 00:00:00 | 00:00:00 | |
| HSKMA3-T | 2026-08-31 15:08:16 | 51.25593 | 10.11176 | 72° | 75km/h | 3411m | -2.6m/s | -4.7°C | 0% | 0hPa | 5V | 00:00:00 | 00:00:00 | 00:00:00 | |
| DF2AP-13 | 2026-08-31 15:08:11 | 51.25568 | 10.11059 | 70° | 75km/h | 3424m | -2.6m/s | 0°C | 0% | 0hPa | 5V | 00:00:00 | 00:00:00 | 00:00:00 | |
| BIOWL1-15 | 2026-08-31 15:08:08 | 51.25541 | 10.10944 | 70° | 75km/h | 3432m | -2.7m/s | -4.9°C | 0% | 0hPa | 5V | 00:00:00 | 00:00:00 | 00:00:00 | |
| DB0NH | 2026-08-31 15:08:08 | 51.25547 | 10.10972 | 71° | 75km/h | 3432m | -2.7m/s | 0°C | 0% | 0hPa | 0V | 00:00:00 | 00:00:00 | 00:00:00 | |
| DL1NUX | 2026-08-31 15:08:07 | 51.25541 | 10.10944 | 70° | 75km/h | 3434m | -2.6m/s | 0°C | 0% | 0hPa | 0V | 00:00:00 | 00:00:00 | 00:00:00 | |
| DL1NUX | 2026-08-31 15:08:07 | 51.25511 | 10.10800 | 71° | 77km/h | 3448m | -2.9m/s | 0°C | 0% | 0hPa | 0V | 00:00:00 | 00:00:00 | 00:00:00 | |
| DB0UT-7 | 2026-08-31 15:08:07 | 51.25541 | 10.10944 | 71° | 75km/h | 3435m | -2.5m/s | 0°C | 0% | 0hPa | 5V | 00:00:00 | 00:00:00 | 00:00:00 | |
| SO1NDE-10 | 2026-08-31 15:08:06 | 51.25535 | 10.10916 | 72° | 75km/h | 3437m | -2.7m/s | 0°C | 0% | 0hPa | 5V | 00:00:00 | 00:00:00 | 00:00:00 | |
| HSKMA3-T | 2026-08-31 15:08:05 | 51.25529 | 10.10887 | 72° | 75km/h | 3437m | -2.7m/s | -4.9°C | 0% | 0hPa | 5V | 00:00:00 | 00:00:00 | 00:00:00 | |
| DL1NUX | 2026-08-31 15:08:02 | 51.25480 | 10.10654 | 72° | 75km/h | 3461m | -2.5m/s | 0°C | 0% | 0hPa | 0V | 00:00:00 | 00:00:00 | 00:00:00 | |
| DM0DOS-11 | 2026-08-31 15:08:01 | 51.25504 | 10.10770 | 71° | 77km/h | 3450m | -3m/s | 0°C | 0% | 0hPa | 0V | 00:00:00 | 00:00:00 | 00:00:00 | |
| DM0DOS-11 | 2026-08-31 15:08:01 | 51.25474 | 10.10625 | 72° | 75km/h | 3463m | -2.6m/s | 0°C | 0% | 0hPa | 0V | 00:00:00 | 00:00:00 | 00:00:00 | |
| BIOWL1-15 | 2026-08-31 15:07:56 | 51.25474 | 10.10625 | 73° | 75km/h | 3461m | -2.5m/s | -5°C | 0% | 0hPa | 5V | 00:00:00 | 00:00:00 | 00:00:00 | |
| DM0DOS-11 | 2026-08-31 15:07:56 | 51.25446 | 10.10480 | 72° | 75km/h | 3476m | -2.5m/s | 0°C | 0% | 0hPa | 0V | 00:00:00 | 00:00:00 | 00:00:00 | |
| HSKMA3-T | 2026-08-31 15:07:55 | 51.25462 | 10.10567 | 72° | 75km/h | 3466m | -2.7m/s | -5°C | 0% | 0hPa | 5V | 00:00:00 | 00:00:00 | 00:00:00 | |
| DL1NUX | 2026-08-31 15:07:52 | 51.25451 | 10.10509 | 73° | 75km/h | 3474m | -2.4m/s | 0°C | 0% | 0hPa | 0V | 00:00:00 | 00:00:00 | 00:00:00 | |
| DL1NUX | 2026-08-31 15:07:52 | 51.25423 | 10.10364 | 72° | 75km/h | 3486m | -2.8m/s | 0°C | 0% | 0hPa | 0V | 00:00:00 | 00:00:00 | 00:00:00 | |
| BIOWL1-15 | 2026-08-31 15:07:48 | 51.25412 | 10.10306 | 73° | 75km/h | 3488m | -2.8m/s | -5.2°C | 0% | 0hPa | 5V | 00:00:00 | 00:00:00 | 00:00:00 | |
| DM0DOS-11 | 2026-08-31 15:07:46 | 51.25418 | 10.10335 | 72° | 75km/h | 3488m | -2.8m/s | 0°C | 0% | 0hPa | 0V | 00:00:00 | 00:00:00 | 00:00:00 | |
| DM0DOS-11 | 2026-08-31 15:07:46 | 51.25389 | 10.10191 | 72° | 75km/h | 3501m | -2.4m/s | 0°C | 0% | 0hPa | 0V | 00:00:00 | 00:00:00 | 00:00:00 | |
| HSKMA3-T | 2026-08-31 15:07:44 | 51.25401 | 10.10249 | 72° | 75km/h | 3494m | -2.5m/s | -5.2°C | 0% | 0hPa | 5V | 00:00:00 | 00:00:00 | 00:00:00 | |
| DM0DOS-11 | 2026-08-31 15:07:41 | 51.25362 | 10.10044 | 74° | 77km/h | 3516m | -3m/s | 0°C | 0% | 0hPa | 0V | 00:00:00 | 00:00:00 | 00:00:00 | |
| DF2AP-13 | 2026-08-31 15:07:41 | 51.25389 | 10.10191 | 73° | 77km/h | 3501m | -2.3m/s | 0°C | 0% | 0hPa | 0V | 00:00:00 | 00:00:00 | 00:00:00 | |
| DB0NH | 2026-08-31 15:07:38 | 51.25373 | 10.10104 | 75° | 77km/h | 3510m | -3.1m/s | 0°C | 0% | 0hPa | 0V | 00:00:00 | 00:00:00 | 00:00:00 | |
| DL1NUX | 2026-08-31 15:07:37 | 51.25367 | 10.10074 | 74° | 77km/h | 3513m | -3m/s | 0°C | 0% | 0hPa | 0V | 00:00:00 | 00:00:00 | 00:00:00 | |
| DL1NUX | 2026-08-31 15:07:37 | 51.25343 | 10.09925 | 74° | 77km/h | 3527m | -3.1m/s | 0°C | 0% | 0hPa | 0V | 00:00:00 | 00:00:00 | 00:00:00 | |
| DB0UT-7 | 2026-08-31 15:07:37 | 51.25367 | 10.10074 | 75° | 77km/h | 3513m | -3.0m/s | 0°C | 0% | 0hPa | 4.9V | 00:00:00 | 00:00:00 | 00:00:00 | |
| SO1NDE-10 | 2026-08-31 15:07:36 | 51.25362 | 10.10044 | 75° | 77km/h | 3516m | -2.9m/s | 0°C | 0% | 0hPa | 4.9V | 00:00:00 | 00:00:00 | 00:00:00 | |
| BIOWL1-15 | 2026-08-31 15:07:35 | 51.25352 | 10.09985 | 76° | 77km/h | 3519m | -3m/s | -5.4°C | 0% | 0hPa | 4.9V | 00:00:00 | 00:00:00 | 00:00:00 | |
| DL1NUX | 2026-08-31 15:07:32 | 51.25316 | 10.09776 | 72° | 77km/h | 3546m | -3m/s | 0°C | 0% | 0hPa | 0V | 00:00:00 | 00:00:00 | 00:00:00 | |
| AM1SDL-15 | 2026-08-31 15:07:32 | 51.25342 | 10.09925 | 75° | 77km/h | 3528m | -3.1m/s | 0°C | 0% | 0hPa | 0V | 00:00:00 | 00:00:00 | 00:00:00 | |
| DM0DOS-11 | 2026-08-31 15:07:31 | 51.25338 | 10.09895 | 74° | 77km/h | 3530m | -2.9m/s | 0°C | 0% | 0hPa | 0V | 00:00:00 | 00:00:00 | 00:00:00 | |
| DM0DOS-11 | 2026-08-31 15:07:31 | 51.25310 | 10.09746 | 72° | 77km/h | 3546m | -3m/s | 0°C | 0% | 0hPa | 0V | 00:00:00 | 00:00:00 | 00:00:00 | |
| BIOWL1-15 | 2026-08-31 15:07:27 | 51.25299 | 10.09686 | 73° | 77km/h | 3549m | -2.8m/s | -5.6°C | 0% | 0hPa | 5V | 00:00:00 | 00:00:00 | 00:00:00 | |
| HSKMA3-T | 2026-08-31 15:07:22 | 51.25288 | 10.09625 | 74° | 78km/h | 3555m | -3.2m/s | -5.7°C | 0% | 0hPa | 5V | 00:00:00 | 00:00:00 | 00:00:00 | |
| DL1NUX | 2026-08-31 15:07:21 | 51.25254 | 10.09446 | 74° | 75km/h | 3576m | -3m/s | 0°C | 0% | 0hPa | 0V | 00:00:00 | 00:00:00 | 00:00:00 | |
| AM1SDL-15 | 2026-08-31 15:07:20 | 51.25276 | 10.09564 | 73° | 77km/h | 3564m | -2.9m/s | 0°C | 0% | 0hPa | 4.9V | 00:00:00 | 00:00:00 | 00:00:00 | |
| BIOWL1-15 | 2026-08-31 15:07:16 | 51.25238 | 10.09357 | 76° | 77km/h | 3582m | -3m/s | -5.8°C | 0% | 0hPa | 4.9V | 00:00:00 | 00:00:00 | 00:00:00 | |
| BIOWL7-15 | 2026-08-31 15:07:13 | 51.25238 | 10.09357 | 77° | 78km/h | 3582m | -3.0m/s | -5.8°C | 0% | 0hPa | 4.9V | 00:00:00 | 00:00:00 | 00:00:00 | |
| HSKMA3-T | 2026-08-31 15:07:12 | 51.25228 | 10.09295 | 75° | 80km/h | 3588m | -3.3m/s | -5.9°C | 0% | 0hPa | 4.9V | 00:00:00 | 00:00:00 | 00:00:00 | |
| DM0DOS-11 | 2026-08-31 15:07:11 | 51.25229 | 10.09295 | 74° | 80km/h | 3591m | -3.2m/s | 0°C | 0% | 0hPa | 0V | 00:00:00 | 00:00:00 | 00:00:00 | |
| DM0DOS-11 | 2026-08-31 15:07:11 | 51.25202 | 10.09143 | 75° | 77km/h | 3608m | -3.5m/s | 0°C | 0% | 0hPa | 0V | 00:00:00 | 00:00:00 | 00:00:00 | |
| DF2AP-13 | 2026-08-31 15:07:11 | 51.25228 | 10.09295 | 75° | 77km/h | 3591m | -3.2m/s | 0°C | 0% | 0hPa | 4.9V | 00:00:00 | 00:00:00 | 00:00:00 | |
| DB0NH | 2026-08-31 15:07:08 | 51.25212 | 10.09203 | 75° | 77km/h | 3601m | -3.4m/s | 0°C | 0% | 0hPa | 4.9V | 00:00:00 | 00:00:00 | 00:00:00 | |
| DB0UT-7 | 2026-08-31 15:07:07 | 51.25207 | 10.09173 | 76° | 77km/h | 3605m | -3.6m/s | 0°C | 0% | 0hPa | 4.9V | 00:00:00 | 00:00:00 | 00:00:00 | |
| SO1NDE-10 | 2026-08-31 15:07:06 | 51.25202 | 10.09143 | 76° | 77km/h | 3608m | -3.4m/s | 0°C | 0% | 0hPa | 4.9V | 00:00:00 | 00:00:00 | 00:00:00 | |
| BIOWL1-15 | 2026-08-31 15:07:05 | 51.25182 | 10.09023 | 75° | 78km/h | 3619m | -3.3m/s | -6°C | 0% | 0hPa | 4.9V | 00:00:00 | 00:00:00 | 00:00:00 | |
| DB0ND-19 | 2026-08-31 15:07:03 | 51.25187 | 10.09053 | 74° | 77km/h | 3615m | -3.4m/s | -5.4°C | -1.0% | -1.0hPa | 4.9V | 00:00:00 | 00:00:00 | 00:00:00 | |
| HSKMA3-T | 2026-08-31 15:07:01 | 51.25171 | 10.08961 | 75° | 80km/h | 3625m | -3m/s | -5.9°C | 0% | 0hPa | 4.9V | 00:00:00 | 00:00:00 | 00:00:00 | |
| DL1NUX | 2026-08-31 15:06:56 | 51.25151 | 10.08837 | 77° | 78km/h | 3641m | -3.6m/s | 0°C | 0% | 0hPa | 0V | 00:00:00 | 00:00:00 | 00:00:00 | |
| DL1NUX | 2026-08-31 15:06:56 | 51.25130 | 10.08687 | 76° | 75km/h | 3660m | -4.1m/s | 0°C | 0% | 0hPa | 0V | 00:00:00 | 00:00:00 | 00:00:00 | |
| AM1SDL-15 | 2026-08-31 15:06:53 | 51.25138 | 10.08746 | 78° | 73km/h | 3652m | -3.9m/s | 0°C | 0% | 0hPa | 0V | 00:00:00 | 00:00:00 | 00:00:00 | |
| DL1NUX | 2026-08-31 15:06:51 | 51.25108 | 10.08541 | 77° | 73km/h | 3682m | -4.5m/s | 0°C | 0% | 0hPa | 0V | 00:00:00 | 00:00:00 | 00:00:00 | |
| HSKMA3-T | 2026-08-31 15:06:50 | 51.25121 | 10.08628 | 76° | 75km/h | 3664m | -4m/s | -6.2°C | 0% | 0hPa | 4.9V | 00:00:00 | 00:00:00 | 00:00:00 | |
| BIOWL7-15 | 2026-08-31 15:06:46 | 51.25108 | 10.08541 | 78° | 73km/h | 3678m | -4.4m/s | 0°C | 0% | 0hPa | 4.9V | 00:00:00 | 00:00:00 | 00:00:00 | |
| THATR2-17 | 2026-08-31 15:06:43 | 51.25071 | 10.08280 | 76° | 75km/h | 3716m | 0m/s | 0°C | 0% | 0hPa | 4.9V | 00:00:00 | 00:00:00 | 00:00:00 | |
| BIOWL1-15 | 2026-08-31 15:06:41 | 51.25088 | 10.08399 | 77° | 75km/h | 3699m | -4m/s | -6.6°C | 0% | 0hPa | 4.9V | 00:00:00 | 00:00:00 | 00:00:00 | |
| DL1NUX | 2026-08-31 15:06:41 | 51.25088 | 10.08399 | 76° | 75km/h | 3703m | -4m/s | 0°C | 0% | 0hPa | 0V | 00:00:00 | 00:00:00 | 00:00:00 | |
| DL1NUX | 2026-08-31 15:06:41 | 51.25066 | 10.08250 | 76° | 75km/h | 3724m | -4.5m/s | 0°C | 0% | 0hPa | 0V | 00:00:00 | 00:00:00 | 00:00:00 | |
| AM1SDL-15 | 2026-08-31 15:06:41 | 51.25088 | 10.08399 | 77° | 73km/h | 3704m | -3.9m/s | 0°C | 0% | 0hPa | 4.9V | 00:00:00 | 00:00:00 | 00:00:00 | |
| HSKMA3-T | 2026-08-31 15:06:40 | 51.25080 | 10.08340 | 78° | 75km/h | 3708m | -4m/s | -6.7°C | 0% | 0hPa | 4.9V | 00:00:00 | 00:00:00 | 00:00:00 | |
| DB0NH | 2026-08-31 15:06:38 | 51.25075 | 10.08310 | 78° | 75km/h | 3716m | -4.0m/s | 0°C | 0% | 0hPa | 0V | 00:00:00 | 00:00:00 | 00:00:00 | |
| DB0UT-7 | 2026-08-31 15:06:37 | 51.25071 | 10.08279 | 77° | 75km/h | 3720m | -4.3m/s | 0°C | 0% | 0hPa | 0V | 00:00:00 | 00:00:00 | 00:00:00 | |
| DL1NUX | 2026-08-31 15:06:36 | 51.25043 | 10.08110 | 74° | 69km/h | 3745m | -4m/s | 0°C | 0% | 0hPa | 0V | 00:00:00 | 00:00:00 | 00:00:00 | |
| SO1NDE-10 | 2026-08-31 15:06:36 | 51.25067 | 10.08250 | 77° | 75km/h | 3724m | -4.4m/s | 0°C | 0% | 0hPa | 4.9V | 00:00:00 | 00:00:00 | 00:00:00 | |
| BIOWL1-15 | 2026-08-31 15:06:33 | 51.25043 | 10.08110 | 74° | 71km/h | 3741m | -4.1m/s | -7.1°C | 0% | 0hPa | 4.9V | 00:00:00 | 00:00:00 | 00:00:00 | |
| HSKMA3-T | 2026-08-31 15:06:29 | 51.25030 | 10.08028 | 77° | 73km/h | 3753m | -3.8m/s | -7.1°C | 0% | 0hPa | 4.9V | 00:00:00 | 00:00:00 | 00:00:00 | |
| AM1SDL-15 | 2026-08-31 15:06:29 | 51.25034 | 10.08056 | 77° | 75km/h | 3753m | -3.7m/s | 0°C | 0% | 0hPa | 0V | 00:00:00 | 00:00:00 | 00:00:00 | |
| DL1NUX | 2026-08-31 15:06:26 | 51.25021 | 10.07970 | 76° | 75km/h | 3763m | -3.5m/s | 0°C | 0% | 0hPa | 0V | 00:00:00 | 00:00:00 | 00:00:00 | |
| DL1NUX | 2026-08-31 15:06:26 | 51.24994 | 10.07821 | 70° | 77km/h | 3780m | -3.6m/s | 0°C | 0% | 0hPa | 0V | 00:00:00 | 00:00:00 | 00:00:00 | |
| BIOWL1-15 | 2026-08-31 15:06:20 | 51.24981 | 10.07763 | 71° | 77km/h | 3784m | -3.7m/s | -7.5°C | 0% | 0hPa | 4.9V | 00:00:00 | 00:00:00 | 00:00:00 | |
| HSKMA3-T | 2026-08-31 15:06:18 | 51.24970 | 10.07704 | 75° | 77km/h | 3791m | -3.7m/s | -7.7°C | 0% | 0hPa | 4.9V | 00:00:00 | 00:00:00 | 00:00:00 | |
| AM1SDL-15 | 2026-08-31 15:06:17 | 51.24970 | 10.07703 | 75° | 75km/h | 3795m | -3.3m/s | 0°C | 0% | 0hPa | 0V | 00:00:00 | 00:00:00 | 00:00:00 | |
| DL1NUX | 2026-08-31 15:06:11 | 51.24945 | 10.07530 | 76° | 73km/h | 3816m | -3.9m/s | 0°C | 0% | 0hPa | 0V | 00:00:00 | 00:00:00 | 00:00:00 | |
| DL1NUX | 2026-08-31 15:06:11 | 51.24920 | 10.07385 | 74° | 77km/h | 3834m | -3.9m/s | 0°C | 0% | 0hPa | 0V | 00:00:00 | 00:00:00 | 00:00:00 | |
| DF2AP-13 | 2026-08-31 15:06:11 | 51.24945 | 10.07530 | 77° | 75km/h | 3816m | -3.9m/s | 0°C | 0% | 0hPa | 4.9V | 00:00:00 | 00:00:00 | 00:00:00 | |
| BIOWL1-15 | 2026-08-31 15:06:09 | 51.24931 | 10.07444 | 74° | 75km/h | 3823m | -3.6m/s | -7.9°C | 0% | 0hPa | 4.9V | 00:00:00 | 00:00:00 | 00:00:00 | |
| DB0NH | 2026-08-31 15:06:08 | 51.24931 | 10.07444 | 75° | 75km/h | 3827m | -3.7m/s | 0°C | 0% | 0hPa | 4.9V | 00:00:00 | 00:00:00 | 00:00:00 | |
| HSKMA3-T | 2026-08-31 15:06:07 | 51.24920 | 10.07385 | 74° | 77km/h | 3830m | -3.3m/s | -8°C | 0% | 0hPa | 4.9V | 00:00:00 | 00:00:00 | 00:00:00 | |
| SO1NDE-10 | 2026-08-31 15:06:06 | 51.24920 | 10.07385 | 75° | 75km/h | 3834m | -3.9m/s | 0°C | 0% | 0hPa | 4.9V | 00:00:00 | 00:00:00 | 00:00:00 | |
| DL1NUX | 2026-08-31 15:06:06 | 51.24897 | 10.07240 | 76° | 75km/h | 3851m | -3.2m/s | 0°C | 0% | 0hPa | 0V | 00:00:00 | 00:00:00 | 00:00:00 | |
| AM1SDL-15 | 2026-08-31 15:06:05 | 51.24915 | 10.07356 | 75° | 75km/h | 3834m | -3.9m/s | 0°C | 0% | 0hPa | 4.9V | 00:00:00 | 00:00:00 | 00:00:00 | |
| SONCRA | 2026-08-31 15:06:04 | 51.24906 | 10.07298 | 75° | 73km/h | 3841m | -3.3m/s | -7.9°C | -1.0% | -1.0hPa | 4.9V | 00:00:00 | 00:00:00 | 00:00:00 | |
| DB0ND-19 | 2026-08-31 15:06:01 | 51.24897 | 10.07240 | 76° | 73km/h | 3848m | -3.2m/s | -7.4°C | -1.0% | -1.0hPa | 4.9V | 00:00:00 | 00:00:00 | 00:00:00 | |
| BIOWL1-15 | 2026-08-31 15:06:00 | 51.24882 | 10.07151 | 75° | 77km/h | 3858m | -3.2m/s | -7.7°C | 0% | 0hPa | 4.9V | 00:00:00 | 00:00:00 | 00:00:00 | |
| DL1NUX | 2026-08-31 15:05:56 | 51.24871 | 10.07091 | 71° | 77km/h | 3867m | -3.2m/s | 0°C | 0% | 0hPa | 0V | 00:00:00 | 00:00:00 | 00:00:00 | |
| DL1NUX | 2026-08-31 15:05:56 | 51.24841 | 10.06948 | 71° | 75km/h | 3883m | -3.3m/s | 0°C | 0% | 0hPa | 0V | 00:00:00 | 00:00:00 | 00:00:00 | |
| HSKMA3-T | 2026-08-31 15:05:56 | 51.24865 | 10.07062 | 72° | 77km/h | 3867m | -3.2m/s | -7.7°C | 0% | 0hPa | 4.9V | 00:00:00 | 00:00:00 | 00:00:00 | |
| DL3OBA | 2026-08-31 15:05:55 | 51.24866 | 10.07062 | 73° | 77km/h | 3867m | -3.2m/s | -7.7°C | 0% | 0hPa | 4.9V | 00:00:00 | 00:00:00 | 00:00:00 | |
| AM1SDL-15 | 2026-08-31 15:05:53 | 51.24853 | 10.07004 | 71° | 73km/h | 3880m | -2.9m/s | 0°C | 0% | 0hPa | 4.9V | 00:00:00 | 00:00:00 | 00:00:00 | |
| BIOWL7-15 | 2026-08-31 15:05:50 | 51.24835 | 10.06919 | 72° | 75km/h | 3883m | -3.3m/s | -8.0°C | 0% | 0hPa | 4.9V | 00:00:00 | 00:00:00 | 00:00:00 | |
| BIOWL1-15 | 2026-08-31 15:05:47 | 51.24816 | 10.06833 | 70° | 75km/h | 3893m | -3m/s | -8.1°C | 0% | 0hPa | 4.9V | 00:00:00 | 00:00:00 | 00:00:00 | |
| HSKMA3-T | 2026-08-31 15:05:46 | 51.24802 | 10.06777 | 68° | 73km/h | 3899m | -2.9m/s | -8.1°C | 0% | 0hPa | 4.9V | 00:00:00 | 00:00:00 | 00:00:00 | |
| DL1NUX | 2026-08-31 15:05:41 | 51.24775 | 10.06669 | 70° | 73km/h | 3914m | -3.2m/s | 0°C | 0% | 0hPa | 0V | 00:00:00 | 00:00:00 | 00:00:00 | |
| DL1NUX | 2026-08-31 15:05:41 | 51.24743 | 10.06524 | 70° | 77km/h | 3930m | -3.1m/s | 0°C | 0% | 0hPa | 0V | 00:00:00 | 00:00:00 | 00:00:00 | |
| DF2AP-13 | 2026-08-31 15:05:40 | 51.24768 | 10.06640 | 71° | 73km/h | 3918m | -3.1m/s | 0°C | 0% | 0hPa | 4.9V | 00:00:00 | 00:00:00 | 00:00:00 | |
| BIOWL1-15 | 2026-08-31 15:05:39 | 51.24743 | 10.06524 | 70° | 77km/h | 3926m | -3.2m/s | -6.9°C | 0% | 0hPa | 4.9V | 00:00:00 | 00:00:00 | 00:00:00 | |
| DB0NH | 2026-08-31 15:05:38 | 51.24755 | 10.06582 | 72° | 73km/h | 3924m | -3.0m/s | 0°C | 0% | 0hPa | 0V | 00:00:00 | 00:00:00 | 00:00:00 | |
| DB0UT-7 | 2026-08-31 15:05:37 | 51.24749 | 10.06552 | 71° | 73km/h | 3927m | -3.1m/s | 0°C | 0% | 0hPa | 0V | 00:00:00 | 00:00:00 | 00:00:00 | |
| DL1NUX | 2026-08-31 15:05:36 | 51.24707 | 10.06388 | 65° | 71km/h | 3946m | -3.2m/s | 0°C | 0% | 0hPa | 0V | 00:00:00 | 00:00:00 | 00:00:00 | |
| SO1NDE-10 | 2026-08-31 15:05:36 | 51.24743 | 10.06524 | 71° | 73km/h | 3930m | -3.0m/s | 0°C | 0% | 0hPa | 4.9V | 00:00:00 | 00:00:00 | 00:00:00 | |
| HSKMA3-T | 2026-08-31 15:05:35 | 51.24729 | 10.06468 | 68° | 73km/h | 3933m | -3.3m/s | -6.4°C | 0% | 0hPa | 4.9V | 00:00:00 | 00:00:00 | 00:00:00 | |
| DL3OBA | 2026-08-31 15:05:30 | 51.24699 | 10.06361 | 67° | 73km/h | 3946m | -3.2m/s | -6.2°C | 0% | 0hPa | 0V | 00:00:00 | 00:00:00 | 00:00:00 | |
| DL1NUX | 2026-08-31 15:05:26 | 51.24671 | 10.06250 | 68° | 75km/h | 3961m | -3.2m/s | 0°C | 0% | 0hPa | 0V | 00:00:00 | 00:00:00 | 00:00:00 | |
| DL1NUX | 2026-08-31 15:05:26 | 51.24637 | 10.06113 | 67° | 71km/h | 3976m | -3.1m/s | 0°C | 0% | 0hPa | 0V | 00:00:00 | 00:00:00 | 00:00:00 | |
| BIOWL1-15 | 2026-08-31 15:05:26 | 51.24664 | 10.06222 | 69° | 75km/h | 3961m | -3.2m/s | -6.3°C | 0% | 0hPa | 4.9V | 00:00:00 | 00:00:00 | 00:00:00 | |
| HSKMA3-T | 2026-08-31 15:05:24 | 51.24651 | 10.06167 | 69° | 73km/h | 3967m | -3.1m/s | -6.3°C | 0% | 0hPa | 4.9V | 00:00:00 | 00:00:00 | 00:00:00 | |
| DL1NUX | 2026-08-31 15:05:21 | 51.24603 | 10.05982 | 67° | 69km/h | 3992m | -3m/s | 0°C | 0% | 0hPa | 0V | 00:00:00 | 00:00:00 | 00:00:00 | |
| BIOWL7-15 | 2026-08-31 15:05:17 | 51.24609 | 10.06008 | 68° | 69km/h | 3986m | -3.2m/s | -6.4°C | 0% | 0hPa | 4.9V | 00:00:00 | 00:00:00 | 00:00:00 | |
| BIOWL1-15 | 2026-08-31 15:05:16 | 51.24596 | 10.05956 | 68° | 69km/h | 3992m | -3m/s | -6.4°C | 0% | 0hPa | 4.9V | 00:00:00 | 00:00:00 | 00:00:00 | |
| DL1NUX | 2026-08-31 15:05:11 | 51.24570 | 10.05850 | 69° | 73km/h | 4007m | -2.7m/s | 0°C | 0% | 0hPa | 0V | 00:00:00 | 00:00:00 | 00:00:00 | |
| DL1NUX | 2026-08-31 15:05:11 | 51.24538 | 10.05713 | 69° | 71km/h | 4028m | -2.9m/s | 0°C | 0% | 0hPa | 0V | 00:00:00 | 00:00:00 | 00:00:00 | |
| DF2AP-13 | 2026-08-31 15:05:10 | 51.24564 | 10.05823 | 70° | 69km/h | 4010m | -2.7m/s | 0°C | 0% | 0hPa | 4.9V | 00:00:00 | 00:00:00 | 00:00:00 | |
| DB0NH | 2026-08-31 15:05:08 | 51.24551 | 10.05767 | 70° | 69km/h | 4015m | -2.9m/s | 0°C | 0% | 0hPa | 4.9V | 00:00:00 | 00:00:00 | 00:00:00 | |
| DB0UT-7 | 2026-08-31 15:05:07 | 51.24545 | 10.05740 | 70° | 69km/h | 4018m | -3.2m/s | 0°C | 0% | 0hPa | 4.9V | 00:00:00 | 00:00:00 | 00:00:00 | |
| SO1NDE-10 | 2026-08-31 15:05:06 | 51.24538 | 10.05713 | 70° | 69km/h | 4028m | -2.9m/s | 0°C | 0% | 0hPa | 4.9V | 00:00:00 | 00:00:00 | 00:00:00 | |
| BIOWL1-15 | 2026-08-31 15:05:05 | 51.24526 | 10.05660 | 70° | 69km/h | 4025m | -2.8m/s | -6.7°C | 0% | 0hPa | 4.9V | 00:00:00 | 00:00:00 | 00:00:00 | |
| DL1NUX | 2026-08-31 15:05:05 | 51.24503 | 10.05554 | 69° | 69km/h | 4037m | -2.9m/s | 0°C | 0% | 0hPa | 0V | 00:00:00 | 00:00:00 | 00:00:00 | |
| HSKMA3-T | 2026-08-31 15:05:03 | 51.24515 | 10.05607 | 71° | 69km/h | 4031m | -3.1m/s | -6.7°C | 0% | 0hPa | 4.9V | 00:00:00 | 00:00:00 | 00:00:00 | |
| DM0DOS-11 | 2026-08-31 15:05:01 | 51.24478 | 10.05449 | 69° | 69km/h | 4051m | -2.7m/s | 0°C | 0% | 0hPa | 0V | 00:00:00 | 00:00:00 | 00:00:00 | |
| DL1NUX | 2026-08-31 15:05:00 | 51.24472 | 10.05423 | 69° | 69km/h | 4054m | -2.7m/s | 0°C | 0% | 0hPa | 0V | 00:00:00 | 00:00:00 | 00:00:00 | |
| BIOWL1-15 | 2026-08-31 15:04:56 | 51.24459 | 10.05370 | 69° | 69km/h | 4057m | -2.7m/s | -7°C | 0% | 0hPa | 4.9V | 00:00:00 | 00:00:00 | 00:00:00 | |
| HSKMA3-T | 2026-08-31 15:04:52 | 51.24446 | 10.05318 | 69° | 69km/h | 4062m | -2.7m/s | -7°C | 0% | 0hPa | 4.9V | 00:00:00 | 00:00:00 | 00:00:00 | |
| DM0DOS-11 | 2026-08-31 15:04:51 | 51.24446 | 10.05318 | 68° | 69km/h | 4065m | -2.8m/s | 0°C | 0% | 0hPa | 0V | 00:00:00 | 00:00:00 | 00:00:00 | |
| DM0DOS-11 | 2026-08-31 15:04:51 | 51.24414 | 10.05186 | 69° | 69km/h | 4077m | -2.6m/s | 0°C | 0% | 0hPa | 0V | 00:00:00 | 00:00:00 | 00:00:00 | |
| DM0DOS-11 | 2026-08-31 15:04:46 | 51.24384 | 10.05059 | 69° | 68km/h | 4090m | -2.4m/s | 0°C | 0% | 0hPa | 0V | 00:00:00 | 00:00:00 | 00:00:00 | |
| DL1NUX | 2026-08-31 15:04:45 | 51.24408 | 10.05161 | 70° | 68km/h | 4080m | -2.6m/s | 0°C | 0% | 0hPa | 0V | 00:00:00 | 00:00:00 | 00:00:00 | |
| DL1NUX | 2026-08-31 15:04:45 | 51.24378 | 10.05033 | 69° | 69km/h | 4095m | -2.5m/s | 0°C | 0% | 0hPa | 0V | 00:00:00 | 00:00:00 | 00:00:00 | |
| AM1SDL-15 | 2026-08-31 15:04:42 | 51.24390 | 10.05084 | 70° | 69km/h | 4090m | -2.3m/s | 0°C | 0% | 0hPa | 4.9V | 00:00:00 | 00:00:00 | 00:00:00 | |
| HSKMA3-T | 2026-08-31 15:04:41 | 51.24378 | 10.05033 | 70° | 69km/h | 4090m | -2.4m/s | -7.2°C | 0% | 0hPa | 4.9V | 00:00:00 | 00:00:00 | 00:00:00 | |
| DL1NUX | 2026-08-31 15:04:40 | 51.24346 | 10.04899 | 68° | 71km/h | 4105m | -2.1m/s | 0°C | 0% | 0hPa | 0V | 00:00:00 | 00:00:00 | 00:00:00 | |
| DF8AY | 2026-08-31 15:04:39 | 51.24366 | 10.04980 | 69° | 69km/h | 4095m | -2.5m/s | -7.3°C | 0% | 0hPa | 4.9V | 00:00:00 | 00:00:00 | 00:00:00 | |
| DB0NH | 2026-08-31 15:04:38 | 51.24366 | 10.04980 | 69° | 69km/h | 4097m | -2.2m/s | 0°C | 0% | 0hPa | 0V | 00:00:00 | 00:00:00 | 00:00:00 | |
| DB0UT-7 | 2026-08-31 15:04:37 | 51.24359 | 10.04953 | 69° | 69km/h | 4100m | -2.2m/s | 0°C | 0% | 0hPa | 0V | 00:00:00 | 00:00:00 | 00:00:00 | |
| DM0DOS-11 | 2026-08-31 15:04:36 | 51.24353 | 10.04926 | 68° | 71km/h | 4102m | -2.2m/s | 0°C | 0% | 0hPa | 0V | 00:00:00 | 00:00:00 | 00:00:00 | |
| DM0DOS-11 | 2026-08-31 15:04:36 | 51.24321 | 10.04794 | 68° | 68km/h | 4114m | -2.4m/s | 0°C | 0% | 0hPa | 0V | 00:00:00 | 00:00:00 | 00:00:00 | |
| SO1NDE-10 | 2026-08-31 15:04:36 | 51.24353 | 10.04926 | 69° | 69km/h | 4102m | -2.2m/s | 0°C | 0% | 0hPa | 0V | 00:00:00 | 00:00:00 | 00:00:00 | |
| DL3OBA | 2026-08-31 15:04:33 | 51.24334 | 10.04845 | 70° | 69km/h | 4107m | -2.3m/s | -7.4°C | 0% | 0hPa | 0V | 00:00:00 | 00:00:00 | 00:00:00 | |
| DL1NUX | 2026-08-31 15:04:30 | 51.24315 | 10.04768 | 69° | 68km/h | 4116m | -2.3m/s | 0°C | 0% | 0hPa | 0V | 00:00:00 | 00:00:00 | 00:00:00 | |
| DL1NUX | 2026-08-31 15:04:30 | 51.24287 | 10.04641 | 70° | 68km/h | 4126m | -2.3m/s | 0°C | 0% | 0hPa | 0V | 00:00:00 | 00:00:00 | 00:00:00 | |
| HSKMA3-T | 2026-08-31 15:04:30 | 51.24309 | 10.04743 | 70° | 68km/h | 4116m | -2.3m/s | -7.5°C | 0% | 0hPa | 4.9V | 00:00:00 | 00:00:00 | 00:00:00 | |
| DF8AY | 2026-08-31 15:04:29 | 51.24298 | 10.04692 | 72° | 68km/h | 4120m | -1.9m/s | -7.5°C | 0% | 0hPa | 4.9V | 00:00:00 | 00:00:00 | 00:00:00 | |
| DM0DOS-11 | 2026-08-31 15:04:21 | 51.24262 | 10.04538 | 67° | 68km/h | 4134m | -1.9m/s | 0°C | 0% | 0hPa | 0V | 00:00:00 | 00:00:00 | 00:00:00 | |
| DM0DOS-11 | 2026-08-31 15:04:21 | 51.24230 | 10.04411 | 69° | 69km/h | 4147m | -2.1m/s | 0°C | 0% | 0hPa | 0V | 00:00:00 | 00:00:00 | 00:00:00 | |
| HSKMA3-T | 2026-08-31 15:04:20 | 51.24249 | 10.04488 | 68° | 69km/h | 4136m | -2.1m/s | -7.6°C | 0% | 0hPa | 4.9V | 00:00:00 | 00:00:00 | 00:00:00 | |
| DL1NUX | 2026-08-31 15:04:19 | 51.24249 | 10.04488 | 67° | 68km/h | 4139m | -2.1m/s | 0°C | 0% | 0hPa | 0V | 00:00:00 | 00:00:00 | 00:00:00 | |
| DL1NUX | 2026-08-31 15:04:19 | 51.24218 | 10.04359 | 69° | 69km/h | 4149m | -2.2m/s | 0°C | 0% | 0hPa | 0V | 00:00:00 | 00:00:00 | 00:00:00 | |
| AM1SDL-15 | 2026-08-31 15:04:18 | 51.24242 | 10.04462 | 68° | 69km/h | 4141m | -2.1m/s | 0°C | 0% | 0hPa | 4.9V | 00:00:00 | 00:00:00 | 00:00:00 | |
| DF8AY | 2026-08-31 15:04:17 | 51.24230 | 10.04411 | 69° | 69km/h | 4143m | -2.2m/s | -7.7°C | 0% | 0hPa | 4.9V | 00:00:00 | 00:00:00 | 00:00:00 | |
| DL1NUX | 2026-08-31 15:04:14 | 51.24186 | 10.04228 | 67° | 69km/h | 4160m | -2.3m/s | 0°C | 0% | 0hPa | 0V | 00:00:00 | 00:00:00 | 00:00:00 | |
| DL3OBA | 2026-08-31 15:04:13 | 51.24212 | 10.04332 | 71° | 69km/h | 4150m | -2.2m/s | -7.7°C | 0% | 0hPa | 0V | 00:00:00 | 00:00:00 | 00:00:00 | |
| DM0DOS-11 | 2026-08-31 15:04:11 | 51.24199 | 10.04280 | 68° | 69km/h | 4156m | -2.1m/s | 0°C | 0% | 0hPa | 0V | 00:00:00 | 00:00:00 | 00:00:00 | |
| DM0DOS-11 | 2026-08-31 15:04:11 | 51.24159 | 10.04127 | 65° | 68km/h | 4170m | -2.5m/s | 0°C | 0% | 0hPa | 0V | 00:00:00 | 00:00:00 | 00:00:00 | |
| DF2AP-13 | 2026-08-31 15:04:10 | 51.24193 | 10.04254 | 69° | 68km/h | 4158m | -2.3m/s | 0°C | 0% | 0hPa | 4.9V | 00:00:00 | 00:00:00 | 00:00:00 | |
| HSKMA3-T | 2026-08-31 15:04:08 | 51.24180 | 10.04203 | 67° | 68km/h | 4160m | -2.3m/s | -7.8°C | 0% | 0hPa | 4.9V | 00:00:00 | 00:00:00 | 00:00:00 | |
| DF8AY | 2026-08-31 15:04:07 | 51.24166 | 10.04153 | 66° | 68km/h | 4165m | -2.7m/s | -7.9°C | 0% | 0hPa | 4.9V | 00:00:00 | 00:00:00 | 00:00:00 | |
| SO1NDE-10 | 2026-08-31 15:04:06 | 51.24166 | 10.04153 | 67° | 68km/h | 4168m | -2.5m/s | 0°C | 0% | 0hPa | 0V | 00:00:00 | 00:00:00 | 00:00:00 | |
| DM0DOS-11 | 2026-08-31 15:04:05 | 51.24125 | 10.04002 | 67° | 68km/h | 4184m | -2.8m/s | 0°C | 0% | 0hPa | 0V | 00:00:00 | 00:00:00 | 00:00:00 | |
| DL1NUX | 2026-08-31 15:04:04 | 51.24152 | 10.04103 | 66° | 68km/h | 4172m | -2.5m/s | 0°C | 0% | 0hPa | 0V | 00:00:00 | 00:00:00 | 00:00:00 | |
| DL1NUX | 2026-08-31 15:04:04 | 51.24118 | 10.03977 | 67° | 68km/h | 4186m | -2.7m/s | 0°C | 0% | 0hPa | 0V | 00:00:00 | 00:00:00 | 00:00:00 | |
| HSKMA3-T | 2026-08-31 15:03:58 | 51.24105 | 10.03925 | 68° | 68km/h | 4189m | -2.8m/s | -8.1°C | 0% | 0hPa | 4.9V | 00:00:00 | 00:00:00 | 00:00:00 | |
| DF8AY | 2026-08-31 15:03:56 | 51.24092 | 10.03874 | 69° | 68km/h | 4194m | -2.6m/s | -8.1°C | 0% | 0hPa | 4.9V | 00:00:00 | 00:00:00 | 00:00:00 | |
| DM0DOS-11 | 2026-08-31 15:03:55 | 51.24092 | 10.03874 | 68° | 68km/h | 4197m | -2.8m/s | 0°C | 0% | 0hPa | 0V | 00:00:00 | 00:00:00 | 00:00:00 | |
| DM0DOS-11 | 2026-08-31 15:03:55 | 51.24060 | 10.03749 | 67° | 69km/h | 4210m | -2.5m/s | 0°C | 0% | 0hPa | 0V | 00:00:00 | 00:00:00 | 00:00:00 | |
| DL1NUX | 2026-08-31 15:03:54 | 51.24053 | 10.03723 | 66° | 69km/h | 4213m | -2.4m/s | 0°C | 0% | 0hPa | 0V | 00:00:00 | 00:00:00 | 00:00:00 | |
| DL3OBA | 2026-08-31 15:03:53 | 51.24073 | 10.03800 | 69° | 66km/h | 4202m | -2.8m/s | -8.2°C | 0% | 0hPa | 4.9V | 00:00:00 | 00:00:00 | 00:00:00 | |
| BIOWL1-15 | 2026-08-31 15:03:47 | 51.24032 | 10.03645 | 66° | 69km/h | 4218m | -2.6m/s | -8.3°C | 0% | 0hPa | 4.9V | 00:00:00 | 00:00:00 | 00:00:00 | |
| DF8AY | 2026-08-31 15:03:45 | 51.24018 | 10.03594 | 68° | 68km/h | 4223m | -2.6m/s | -8.3°C | 0% | 0hPa | 4.9V | 00:00:00 | 00:00:00 | 00:00:00 | |
| DL1NUX | 2026-08-31 15:03:44 | 51.24018 | 10.03594 | 67° | 68km/h | 4225m | -2.5m/s | 0°C | 0% | 0hPa | 0V | 00:00:00 | 00:00:00 | 00:00:00 | |
| DL1NUX | 2026-08-31 15:03:44 | 51.23987 | 10.03471 | 67° | 64km/h | 4240m | -2m/s | 0°C | 0% | 0hPa | 0V | 00:00:00 | 00:00:00 | 00:00:00 | |
| AM1SDL-15 | 2026-08-31 15:03:42 | 51.24005 | 10.03544 | 69° | 66km/h | 4230m | -2.5m/s | 0°C | 0% | 0hPa | 0V | 00:00:00 | 00:00:00 | 00:00:00 | |
| DM0DOS-11 | 2026-08-31 15:03:40 | 51.23993 | 10.03495 | 68° | 66km/h | 4235m | -2.5m/s | 0°C | 0% | 0hPa | 0V | 00:00:00 | 00:00:00 | 00:00:00 | |
| DM0DOS-11 | 2026-08-31 15:03:40 | 51.23960 | 10.03373 | 65° | 66km/h | 4247m | -2.3m/s | 0°C | 0% | 0hPa | 0V | 00:00:00 | 00:00:00 | 00:00:00 | |
| DF2AP-13 | 2026-08-31 15:03:40 | 51.23993 | 10.03495 | 69° | 66km/h | 4235m | -2.4m/s | 0°C | 0% | 0hPa | 0V | 00:00:00 | 00:00:00 | 00:00:00 | |
| DL1NUX | 2026-08-31 15:03:38 | 51.23946 | 10.03323 | 66° | 66km/h | 4261m | -2.1m/s | 0°C | 0% | 0hPa | 0V | 00:00:00 | 00:00:00 | 00:00:00 | |
| DB0UT-7 | 2026-08-31 15:03:37 | 51.23974 | 10.03422 | 66° | 66km/h | 4243m | -2.6m/s | 0°C | 0% | 0hPa | 0V | 00:00:00 | 00:00:00 | 00:00:00 | |
| SO1NDE-10 | 2026-08-31 15:03:36 | 51.23967 | 10.03397 | 67° | 66km/h | 4245m | -2.2m/s | 0°C | 0% | 0hPa | 0V | 00:00:00 | 00:00:00 | 00:00:00 | |
| HSKMA3-T | 2026-08-31 15:03:36 | 51.23960 | 10.03373 | 66° | 66km/h | 4245m | -2.2m/s | -8.5°C | 0% | 0hPa | 4.9V | 00:00:00 | 00:00:00 | 00:00:00 | |
| DM0DOS-11 | 2026-08-31 15:03:35 | 51.23928 | 10.03250 | 68° | 66km/h | 4259m | -2m/s | 0°C | 0% | 0hPa | 0V | 00:00:00 | 00:00:00 | 00:00:00 | |
| DF8AY | 2026-08-31 15:03:34 | 51.23947 | 10.03323 | 66° | 66km/h | 4250m | -2.4m/s | -8.5°C | 0% | 0hPa | 4.9V | 00:00:00 | 00:00:00 | 00:00:00 | |
| DL1NUX | 2026-08-31 15:03:31 | 51.23903 | 10.03151 | 66° | 66km/h | 4267m | -2.3m/s | 0°C | 0% | 0hPa | 0V | 00:00:00 | 00:00:00 | 00:00:00 | |
| AM1SDL-15 | 2026-08-31 15:03:30 | 51.23928 | 10.03250 | 69° | 66km/h | 4259m | -1.9m/s | 0°C | 0% | 0hPa | 4.9V | 00:00:00 | 00:00:00 | 00:00:00 | |
| DL3OBA | 2026-08-31 15:03:29 | 51.23921 | 10.03225 | 69° | 66km/h | 4259m | -2.0m/s | -8.6°C | 0% | 0hPa | 4.9V | 00:00:00 | 00:00:00 | 00:00:00 | |
| BIOWL1-15 | 2026-08-31 15:03:25 | 51.23896 | 10.03127 | 66° | 66km/h | 4267m | -2.3m/s | -8.8°C | 0% | 0hPa | 4.9V | 00:00:00 | 00:00:00 | 00:00:00 | |
| DM0DOS-11 | 2026-08-31 15:03:25 | 51.23896 | 10.03127 | 66° | 66km/h | 4270m | -2.5m/s | 0°C | 0% | 0hPa | 0V | 00:00:00 | 00:00:00 | 00:00:00 | |
| DM0DOS-11 | 2026-08-31 15:03:25 | 51.23865 | 10.03008 | 69° | 64km/h | 4280m | -2m/s | 0°C | 0% | 0hPa | 0V | 00:00:00 | 00:00:00 | 00:00:00 | |
| DF8AY | 2026-08-31 15:03:24 | 51.23883 | 10.03079 | 67° | 64km/h | 4272m | -2.1m/s | -8.8°C | 0% | 0hPa | 4.9V | 00:00:00 | 00:00:00 | 00:00:00 | |
| DL1NUX | 2026-08-31 15:03:21 | 51.23871 | 10.03033 | 69° | 64km/h | 4278m | -2.3m/s | 0°C | 0% | 0hPa | 0V | 00:00:00 | 00:00:00 | 00:00:00 | |
| DL1NUX | 2026-08-31 15:03:21 | 51.23840 | 10.02909 | 66° | 68km/h | 4289m | -2.3m/s | 0°C | 0% | 0hPa | 0V | 00:00:00 | 00:00:00 | 00:00:00 | |
| DM0DOS-11 | 2026-08-31 15:03:20 | 51.23833 | 10.02884 | 66° | 66km/h | 4291m | -2.2m/s | 0°C | 0% | 0hPa | 0V | 00:00:00 | 00:00:00 | 00:00:00 | |
| AM1SDL-15 | 2026-08-31 15:03:18 | 51.23853 | 10.02959 | 69° | 66km/h | 4285m | -2.1m/s | 0°C | 0% | 0hPa | 4.9V | 00:00:00 | 00:00:00 | 00:00:00 | |
| BIOWL1-15 | 2026-08-31 15:03:15 | 51.23827 | 10.02860 | 66° | 64km/h | 4291m | -2.2m/s | -9°C | 0% | 0hPa | 4.9V | 00:00:00 | 00:00:00 | 00:00:00 | |
| DF8AY | 2026-08-31 15:03:13 | 51.23813 | 10.02813 | 65° | 64km/h | 4296m | -2.3m/s | -8.9°C | 0% | 0hPa | 4.9V | 00:00:00 | 00:00:00 | 00:00:00 | |
| DM0DOS-11 | 2026-08-31 15:03:10 | 51.23800 | 10.02765 | 67° | 64km/h | 4303m | -2.3m/s | 0°C | 0% | 0hPa | 0V | 00:00:00 | 00:00:00 | 00:00:00 | |
| DM0DOS-11 | 2026-08-31 15:03:10 | 51.23768 | 10.02644 | 65° | 66km/h | 4314m | -2.2m/s | 0°C | 0% | 0hPa | 0V | 00:00:00 | 00:00:00 | 00:00:00 | |
| DF2AP-13 | 2026-08-31 15:03:10 | 51.23800 | 10.02765 | 68° | 64km/h | 4303m | -2.2m/s | 0°C | 0% | 0hPa | 0V | 00:00:00 | 00:00:00 | 00:00:00 | |
| BIOWL7-15 | 2026-08-31 15:03:08 | 51.23788 | 10.02717 | 68° | 66km/h | 4305m | -2.5m/s | -9.1°C | 0% | 0hPa | 0V | 00:00:00 | 00:00:00 | 00:00:00 | |
| DB0UT-7 | 2026-08-31 15:03:07 | 51.23781 | 10.02692 | 68° | 64km/h | 4310m | -2.3m/s | 0°C | 0% | 0hPa | 0V | 00:00:00 | 00:00:00 | 00:00:00 | |
| DL1NUX | 2026-08-31 15:03:06 | 51.23775 | 10.02668 | 65° | 66km/h | 4312m | -2.5m/s | 0°C | 0% | 0hPa | 0V | 00:00:00 | 00:00:00 | 00:00:00 | |
| DL1NUX | 2026-08-31 15:03:06 | 51.23739 | 10.02550 | 63° | 64km/h | 4324m | -2.3m/s | 0°C | 0% | 0hPa | 0V | 00:00:00 | 00:00:00 | 00:00:00 | |
| SO1NDE-10 | 2026-08-31 15:03:06 | 51.23775 | 10.02668 | 66° | 64km/h | 4312m | -2.5m/s | 0°C | 0% | 0hPa | 4.8V | 00:00:00 | 00:00:00 | 00:00:00 | |
| THATR2-17 | 2026-08-31 15:03:05 | 51.23761 | 10.02621 | 64° | 64km/h | 4314m | 0m/s | 0°C | 0% | 0hPa | 4.8V | 00:00:00 | 00:00:00 | 00:00:00 | |
| HSKMA3-T | 2026-08-31 15:03:04 | 51.23754 | 10.02597 | 64° | 66km/h | 4317m | -2.2m/s | -9.1°C | 0% | 0hPa | 4.8V | 00:00:00 | 00:00:00 | 00:00:00 | |
| DF8AY | 2026-08-31 15:03:02 | 51.23739 | 10.02550 | 63° | 64km/h | 4321m | -2.2m/s | -9.2°C | 0% | 0hPa | 4.9V | 00:00:00 | 00:00:00 | 00:00:00 | |
| DL1NUX | 2026-08-31 15:03:01 | 51.23706 | 10.02433 | 67° | 64km/h | 4335m | -2m/s | 0°C | 0% | 0hPa | 0V | 00:00:00 | 00:00:00 | 00:00:00 | |
| DM0DOS-11 | 2026-08-31 15:02:55 | 51.23700 | 10.02410 | 67° | 64km/h | 4337m | -2.3m/s | 0°C | 0% | 0hPa | 0V | 00:00:00 | 00:00:00 | 00:00:00 | |
| DM0DOS-11 | 2026-08-31 15:02:55 | 51.23667 | 10.02291 | 65° | 64km/h | 4348m | -2m/s | 0°C | 0% | 0hPa | 0V | 00:00:00 | 00:00:00 | 00:00:00 | |
| DL1NUX | 2026-08-31 15:02:51 | 51.23674 | 10.02315 | 65° | 66km/h | 4346m | -2m/s | 0°C | 0% | 0hPa | 0V | 00:00:00 | 00:00:00 | 00:00:00 | |
| DL1NUX | 2026-08-31 15:02:51 | 51.23641 | 10.02196 | 66° | 64km/h | 4356m | -1.8m/s | 0°C | 0% | 0hPa | 0V | 00:00:00 | 00:00:00 | 00:00:00 | |
| DF8AY | 2026-08-31 15:02:51 | 51.23667 | 10.02291 | 66° | 64km/h | 4346m | -2m/s | -9.4°C | 0% | 0hPa | 4.9V | 00:00:00 | 00:00:00 | 00:00:00 | |
| DM0DOS-11 | 2026-08-31 15:02:50 | 51.23635 | 10.02173 | 67° | 62km/h | 4358m | -1.9m/s | 0°C | 0% | 0hPa | 0V | 00:00:00 | 00:00:00 | 00:00:00 | |
| AM1SDL-15 | 2026-08-31 15:02:48 | 51.23654 | 10.02243 | 68° | 62km/h | 4352m | -1.8m/s | 0°C | 0% | 0hPa | 4.9V | 00:00:00 | 00:00:00 | 00:00:00 | |
| BIOWL7-15 | 2026-08-31 15:02:44 | 51.23629 | 10.02149 | 69° | 62km/h | 4358m | -1.9m/s | -9.5°C | 0% | 0hPa | 4.9V | 00:00:00 | 00:00:00 | 00:00:00 | |
| BIOWL1-15 | 2026-08-31 15:02:42 | 51.23617 | 10.02103 | 67° | 62km/h | 4362m | -2.1m/s | -9.5°C | 0% | 0hPa | 4.9V | 00:00:00 | 00:00:00 | 00:00:00 | |
| DL1NUX | 2026-08-31 15:02:40 | 51.23605 | 10.02057 | 65° | 62km/h | 4367m | -1.7m/s | 0°C | 0% | 0hPa | 0V | 00:00:00 | 00:00:00 | 00:00:00 | |
| DL1NUX | 2026-08-31 15:02:40 | 51.23574 | 10.01941 | 67° | 62km/h | 4375m | -1.6m/s | 0°C | 0% | 0hPa | 0V | 00:00:00 | 00:00:00 | 00:00:00 | |
| DF8AY | 2026-08-31 15:02:40 | 51.23598 | 10.02034 | 66° | 62km/h | 4367m | -1.7m/s | -9.6°C | 0% | 0hPa | 4.9V | 00:00:00 | 00:00:00 | 00:00:00 | |
| DB0UT-7 | 2026-08-31 15:02:37 | 51.23586 | 10.01988 | 68° | 62km/h | 4372m | -1.6m/s | 0°C | 0% | 0hPa | 4.8V | 00:00:00 | 00:00:00 | 00:00:00 | |
| SO1NDE-10 | 2026-08-31 15:02:36 | 51.23580 | 10.01964 | 68° | 62km/h | 4374m | -1.5m/s | 0°C | 0% | 0hPa | 4.8V | 00:00:00 | 00:00:00 | 00:00:00 | |
| DF8AY | 2026-08-31 15:02:35 | 51.23536 | 10.01803 | 66° | 62km/h | 4383m | -1.5m/s | -9.7°C | 0% | 0hPa | 4.8V | 00:00:00 | 00:00:00 | 00:00:00 | |
| BIOWL1-15 | 2026-08-31 15:02:31 | 51.23549 | 10.01849 | 67° | 62km/h | 4380m | -1.6m/s | -9.7°C | 0% | 0hPa | 4.9V | 00:00:00 | 00:00:00 | 00:00:00 | |
| DL1NUX | 2026-08-31 15:02:25 | 51.23512 | 10.01712 | 66° | 62km/h | 4390m | -1.4m/s | 0°C | 0% | 0hPa | 0V | 00:00:00 | 00:00:00 | 00:00:00 | |
| DL1NUX | 2026-08-31 15:02:25 | 51.23481 | 10.01596 | 66° | 62km/h | 4398m | -1.3m/s | 0°C | 0% | 0hPa | 0V | 00:00:00 | 00:00:00 | 00:00:00 | |
| AM1SDL-15 | 2026-08-31 15:02:24 | 51.23505 | 10.01689 | 67° | 62km/h | 4392m | -1.3m/s | 0°C | 0% | 0hPa | 4.8V | 00:00:00 | 00:00:00 | 00:00:00 | |
| BIOWL1-15 | 2026-08-31 15:02:21 | 51.23481 | 10.01596 | 67° | 62km/h | 4396m | -1.4m/s | -9.8°C | 0% | 0hPa | 4.8V | 00:00:00 | 00:00:00 | 00:00:00 | |
| DL1NUX | 2026-08-31 15:02:20 | 51.23450 | 10.01481 | 67° | 60km/h | 4405m | -1.4m/s | 0°C | 0% | 0hPa | 0V | 00:00:00 | 00:00:00 | 00:00:00 | |
| DF8AY | 2026-08-31 15:02:19 | 51.23469 | 10.01550 | 67° | 62km/h | 4399m | -1.3m/s | -9.9°C | 0% | 0hPa | 4.8V | 00:00:00 | 00:00:00 | 00:00:00 | |
| DL3OBA | 2026-08-31 15:02:17 | 51.23463 | 10.01526 | 68° | 62km/h | 4400m | -1.4m/s | -9.9°C | 0% | 0hPa | 0V | 00:00:00 | 00:00:00 | 00:00:00 | |
| AM1SDL-15 | 2026-08-31 15:02:12 | 51.23433 | 10.01415 | 69° | 62km/h | 4409m | -1.3m/s | 0°C | 0% | 0hPa | 0V | 00:00:00 | 00:00:00 | 00:00:00 | |
| DL1NUX | 2026-08-31 15:02:10 | 51.23421 | 10.01368 | 67° | 64km/h | 4412m | -1.3m/s | 0°C | 0% | 0hPa | 0V | 00:00:00 | 00:00:00 | 00:00:00 | |
| DL1NUX | 2026-08-31 15:02:10 | 51.23390 | 10.01250 | 66° | 62km/h | 4418m | -0.9m/s | 0°C | 0% | 0hPa | 0V | 00:00:00 | 00:00:00 | 00:00:00 | |
| BIOWL1-15 | 2026-08-31 15:02:10 | 51.23416 | 10.01344 | 67° | 64km/h | 4412m | -1.3m/s | -10°C | 0% | 0hPa | 4.8V | 00:00:00 | 00:00:00 | 00:00:00 | |
| DF8AY | 2026-08-31 15:02:08 | 51.23403 | 10.01297 | 67° | 64km/h | 4414m | -1.1m/s | -10°C | 0% | 0hPa | 4.8V | 00:00:00 | 00:00:00 | 00:00:00 | |
| DB0UT-7 | 2026-08-31 15:02:07 | 51.23403 | 10.01297 | 68° | 62km/h | 4415m | -1.0m/s | 0°C | 0% | 0hPa | 0V | 00:00:00 | 00:00:00 | 00:00:00 | |
| SO1NDE-10 | 2026-08-31 15:02:06 | 51.23397 | 10.01273 | 67° | 62km/h | 4417m | -1.4m/s | 0°C | 0% | 0hPa | 0V | 00:00:00 | 00:00:00 | 00:00:00 | |
| DL1NUX | 2026-08-31 15:02:05 | 51.23361 | 10.01139 | 67° | 60km/h | 4424m | -0.9m/s | 0°C | 0% | 0hPa | 0V | 00:00:00 | 00:00:00 | 00:00:00 | |
| THATR2-17 | 2026-08-31 15:02:03 | 51.23302 | 10.00913 | 66° | 58km/h | 4433m | 0m/s | 0°C | 0% | 0hPa | 4.8V | 00:00:00 | 00:00:00 | 00:00:00 | |
| BIOWL1-15 | 2026-08-31 15:02:00 | 51.23355 | 10.01116 | 67° | 60km/h | 4424m | -0.9m/s | -10.1°C | 0% | 0hPa | 4.8V | 00:00:00 | 00:00:00 | 00:00:00 | |
| DL1NUX | 2026-08-31 15:01:55 | 51.23331 | 10.01025 | 68° | 62km/h | 4429m | -1.1m/s | 0°C | 0% | 0hPa | 0V | 00:00:00 | 00:00:00 | 00:00:00 | |
| DL1NUX | 2026-08-31 15:01:55 | 51.23302 | 10.00913 | 66° | 60km/h | 4435m | -1.4m/s | 0°C | 0% | 0hPa | 0V | 00:00:00 | 00:00:00 | 00:00:00 | |
| HSKMA3-T | 2026-08-31 15:01:48 | 51.23289 | 10.00868 | 66° | 62km/h | 4436m | -1.4m/s | -10.3°C | 0% | 0hPa | 4.8V | 00:00:00 | 00:00:00 | 00:00:00 | |
| AM1SDL-15 | 2026-08-31 15:01:48 | 51.23289 | 10.00868 | 66° | 62km/h | 4438m | -1.5m/s | 0°C | 0% | 0hPa | 4.8V | 00:00:00 | 00:00:00 | 00:00:00 | |
| DF8AY | 2026-08-31 15:01:47 | 51.23276 | 10.00823 | 67° | 62km/h | 4439m | -1.5m/s | -10.3°C | 0% | 0hPa | 4.8V | 00:00:00 | 00:00:00 | 00:00:00 | |
| DL1NUX | 2026-08-31 15:01:45 | 51.23240 | 10.00684 | 66° | 60km/h | 4449m | -1.6m/s | 0°C | 0% | 0hPa | 0V | 00:00:00 | 00:00:00 | 00:00:00 | |
| DF2AP-13 | 2026-08-31 15:01:40 | 51.23240 | 10.00684 | 67° | 60km/h | 4449m | -1.5m/s | 0°C | 0% | 0hPa | 4.8V | 00:00:00 | 00:00:00 | 00:00:00 | |
| BIOWL1-15 | 2026-08-31 15:01:38 | 51.23222 | 10.00616 | 66° | 62km/h | 4453m | -1.5m/s | -10.4°C | 0% | 0hPa | 4.8V | 00:00:00 | 00:00:00 | 00:00:00 | |
| DB0UT-7 | 2026-08-31 15:01:37 | 51.23222 | 10.00616 | 66° | 60km/h | 4455m | -1.7m/s | 0°C | 0% | 0hPa | 4.8V | 00:00:00 | 00:00:00 | 00:00:00 | |
| DF8AY | 2026-08-31 15:01:36 | 51.23209 | 10.00572 | 66° | 60km/h | 4456m | -1.6m/s | -10.5°C | 0% | 0hPa | 4.8V | 00:00:00 | 00:00:00 | 00:00:00 | |
| AM1SDL-15 | 2026-08-31 15:01:36 | 51.23215 | 10.00594 | 66° | 60km/h | 4456m | -1.6m/s | 0°C | 0% | 0hPa | 0V | 00:00:00 | 00:00:00 | 00:00:00 | |
| DM0DOS-11 | 2026-08-31 15:01:35 | 51.23209 | 10.00572 | 65° | 60km/h | 4458m | -1.6m/s | 0°C | 0% | 0hPa | 0V | 00:00:00 | 00:00:00 | 00:00:00 | |
| DM0DOS-11 | 2026-08-31 15:01:35 | 51.23177 | 10.00459 | 66° | 62km/h | 4466m | -1.7m/s | 0°C | 0% | 0hPa | 0V | 00:00:00 | 00:00:00 | 00:00:00 | |
| DL3OBA | 2026-08-31 15:01:34 | 51.23203 | 10.00549 | 67° | 60km/h | 4458m | -1.6m/s | -10.5°C | 0% | 0hPa | 0V | 00:00:00 | 00:00:00 | 00:00:00 | |
| DL1NUX | 2026-08-31 15:01:29 | 51.23171 | 10.00436 | 66° | 62km/h | 4468m | -1.5m/s | 0°C | 0% | 0hPa | 0V | 00:00:00 | 00:00:00 | 00:00:00 | |
| DL1NUX | 2026-08-31 15:01:29 | 51.23141 | 10.00324 | 66° | 60km/h | 4475m | -1.6m/s | 0°C | 0% | 0hPa | 0V | 00:00:00 | 00:00:00 | 00:00:00 | |
| BIOWL1-15 | 2026-08-31 15:01:27 | 51.23153 | 10.00369 | 67° | 60km/h | 4471m | -1.3m/s | -10.6°C | 0% | 0hPa | 4.8V | 00:00:00 | 00:00:00 | 00:00:00 | |
| DF8AY | 2026-08-31 15:01:26 | 51.23141 | 10.00324 | 67° | 60km/h | 4474m | -1.5m/s | -10.6°C | 0% | 0hPa | 4.8V | 00:00:00 | 00:00:00 | 00:00:00 | |
| DL1NUX | 2026-08-31 15:01:24 | 51.23111 | 10.00210 | 67° | 62km/h | 4483m | -1.4m/s | 0°C | 0% | 0hPa | 0V | 00:00:00 | 00:00:00 | 00:00:00 | |
| DM0DOS-11 | 2026-08-31 15:01:20 | 51.23117 | 10.00233 | 67° | 60km/h | 4481m | -1.4m/s | 0°C | 0% | 0hPa | 0V | 00:00:00 | 00:00:00 | 00:00:00 | |
| DM0DOS-11 | 2026-08-31 15:01:20 | 51.23087 | 10.00121 | 65° | 60km/h | 4489m | -1.8m/s | 0°C | 0% | 0hPa | 0V | 00:00:00 | 00:00:00 | 00:00:00 | |
| DM0DOS-11 | 2026-08-31 15:01:15 | 51.23056 | 10.00011 | 67° | 58km/h | 4496m | -1.3m/s | 0°C | 0% | 0hPa | 0V | 00:00:00 | 00:00:00 | 00:00:00 | |
| DL1NUX | 2026-08-31 15:01:14 | 51.23080 | 10.00099 | 66° | 60km/h | 4490m | -1.4m/s | 0°C | 0% | 0hPa | 0V | 00:00:00 | 00:00:00 | 00:00:00 | |
| DL1NUX | 2026-08-31 15:01:14 | 51.23050 | 9.99989 | 67° | 60km/h | 4497m | -1.2m/s | 0°C | 0% | 0hPa | 0V | 00:00:00 | 00:00:00 | 00:00:00 | |
| DF8AY | 2026-08-31 15:01:14 | 51.23074 | 10.00077 | 67° | 60km/h | 4490m | -1.4m/s | -10.8°C | 0% | 0hPa | 4.8V | 00:00:00 | 00:00:00 | 00:00:00 | |
| DL3OBA | 2026-08-31 15:01:13 | 51.23075 | 10.00077 | 68° | 60km/h | 4490m | -1.4m/s | -10.8°C | 0% | 0hPa | 4.8V | 00:00:00 | 00:00:00 | 00:00:00 | |
| AM1SDL-15 | 2026-08-31 15:01:12 | 51.23068 | 10.00054 | 66° | 58km/h | 4492m | -1.5m/s | 0°C | 0% | 0hPa | 4.8V | 00:00:00 | 00:00:00 | 00:00:00 | |
| DF2AP-13 | 2026-08-31 15:01:10 | 51.23056 | 10.00011 | 68° | 58km/h | 4496m | -1.2m/s | 0°C | 0% | 0hPa | 4.8V | 00:00:00 | 00:00:00 | 00:00:00 | |
| DB0UT-7 | 2026-08-31 15:01:07 | 51.23038 | 9.99944 | 66° | 58km/h | 4500m | -1.2m/s | 0°C | 0% | 0hPa | 4.8V | 00:00:00 | 00:00:00 | 00:00:00 | |
| HSKMA3-T | 2026-08-31 15:01:06 | 51.23025 | 9.99901 | 64° | 57km/h | 4501m | -1.2m/s | -10.8°C | 0% | 0hPa | 4.8V | 00:00:00 | 00:00:00 | 00:00:00 | |
| DM0DOS-11 | 2026-08-31 15:01:05 | 51.23025 | 9.99901 | 63° | 57km/h | 4503m | -1.4m/s | 0°C | 0% | 0hPa | 0V | 00:00:00 | 00:00:00 | 00:00:00 | |
| DM0DOS-11 | 2026-08-31 15:01:05 | 51.22994 | 9.99796 | 64° | 58km/h | 4510m | -1.4m/s | 0°C | 0% | 0hPa | 0V | 00:00:00 | 00:00:00 | 00:00:00 | |
| DF8AY | 2026-08-31 15:01:04 | 51.23013 | 9.99860 | 66° | 57km/h | 4504m | -1.4m/s | -10.8°C | 0% | 0hPa | 4.8V | 00:00:00 | 00:00:00 | 00:00:00 | |
| DM0DOS-11 | 2026-08-31 15:01:00 | 51.22963 | 9.99690 | 64° | 58km/h | 4517m | -1.4m/s | 0°C | 0% | 0hPa | 0V | 00:00:00 | 00:00:00 | 00:00:00 | |
| AM1SDL-15 | 2026-08-31 15:01:00 | 51.22994 | 9.99796 | 65° | 58km/h | 4510m | -1.3m/s | 0°C | 0% | 0hPa | 0V | 00:00:00 | 00:00:00 | 00:00:00 | |
| DL1NUX | 2026-08-31 15:00:59 | 51.22988 | 9.99775 | 65° | 57km/h | 4511m | -1.3m/s | 0°C | 0% | 0hPa | 0V | 00:00:00 | 00:00:00 | 00:00:00 | |
| DL1NUX | 2026-08-31 15:00:59 | 51.22956 | 9.99669 | 64° | 57km/h | 4518m | -1.4m/s | 0°C | 0% | 0hPa | 0V | 00:00:00 | 00:00:00 | 00:00:00 | |
| HSKMA3-T | 2026-08-31 15:00:54 | 51.22956 | 9.99669 | 64° | 57km/h | 4517m | -1.4m/s | -10.9°C | 0% | 0hPa | 4.8V | 00:00:00 | 00:00:00 | 00:00:00 | |
| DL1NUX | 2026-08-31 15:00:54 | 51.22926 | 9.99564 | 65° | 57km/h | 4525m | -1.4m/s | 0°C | 0% | 0hPa | 0V | 00:00:00 | 00:00:00 | 00:00:00 | |
| DF8AY | 2026-08-31 15:00:53 | 51.22944 | 9.99628 | 67° | 57km/h | 4520m | -1.4m/s | -10.9°C | 0% | 0hPa | 4.8V | 00:00:00 | 00:00:00 | 00:00:00 | |
| DL3OBA | 2026-08-31 15:00:52 | 51.22944 | 9.99628 | 68° | 57km/h | 4520m | -1.4m/s | -10.9°C | 0% | 0hPa | 0V | 00:00:00 | 00:00:00 | 00:00:00 | |
| DM0DOS-11 | 2026-08-31 15:00:50 | 51.22932 | 9.99585 | 65° | 58km/h | 4524m | -1.2m/s | 0°C | 0% | 0hPa | 0V | 00:00:00 | 00:00:00 | 00:00:00 | |
| DM0DOS-11 | 2026-08-31 15:00:50 | 51.22901 | 9.99479 | 63° | 57km/h | 4530m | -1.3m/s | 0°C | 0% | 0hPa | 0V | 00:00:00 | 00:00:00 | 00:00:00 | |
| DL1NUX | 2026-08-31 15:00:49 | 51.22895 | 9.99459 | 67° | 57km/h | 4531m | -1.5m/s | 0°C | 0% | 0hPa | 0V | 00:00:00 | 00:00:00 | 00:00:00 | |
| AM1SDL-15 | 2026-08-31 15:00:48 | 51.22920 | 9.99542 | 64° | 57km/h | 4526m | -1.2m/s | 0°C | 0% | 0hPa | 4.8V | 00:00:00 | 00:00:00 | 00:00:00 | |
| BIOWL1-15 | 2026-08-31 15:00:43 | 51.22889 | 9.99437 | 67° | 57km/h | 4531m | -1.5m/s | -10.7°C | 0% | 0hPa | 4.8V | 00:00:00 | 00:00:00 | 00:00:00 | |
| DF8AY | 2026-08-31 15:00:42 | 51.22877 | 9.99395 | 66° | 57km/h | 4534m | -1.2m/s | -10.6°C | 0% | 0hPa | 4.8V | 00:00:00 | 00:00:00 | 00:00:00 | |
| DF2AP-13 | 2026-08-31 15:00:40 | 51.22871 | 9.99373 | 67° | 57km/h | 4537m | -1.1m/s | 0°C | 0% | 0hPa | 0V | 00:00:00 | 00:00:00 | 00:00:00 | |
| DL1NUX | 2026-08-31 15:00:39 | 51.22866 | 9.99353 | 66° | 55km/h | 4538m | -1.1m/s | 0°C | 0% | 0hPa | 0V | 00:00:00 | 00:00:00 | 00:00:00 | |
| DL1NUX | 2026-08-31 15:00:39 | 51.22839 | 9.99248 | 68° | 58km/h | 4545m | -1.2m/s | 0°C | 0% | 0hPa | 0V | 00:00:00 | 00:00:00 | 00:00:00 | |
| DB0UT-7 | 2026-08-31 15:00:37 | 51.22855 | 9.99312 | 69° | 57km/h | 4540m | -1.2m/s | 0°C | 0% | 0hPa | 0V | 00:00:00 | 00:00:00 | 00:00:00 | |
| DB0NH | 2026-08-31 15:00:36 | 51.22850 | 9.99290 | 69° | 57km/h | 4541m | -1.1m/s | 0°C | 0% | 0hPa | 0V | 00:00:00 | 00:00:00 | 00:00:00 | |
| DM0DOS-11 | 2026-08-31 15:00:35 | 51.22845 | 9.99269 | 69° | 57km/h | 4542m | -1.2m/s | 0°C | 0% | 0hPa | 0V | 00:00:00 | 00:00:00 | 00:00:00 | |
| DM0DOS-11 | 2026-08-31 15:00:35 | 51.22818 | 9.99163 | 67° | 57km/h | 4549m | -1.3m/s | 0°C | 0% | 0hPa | 0V | 00:00:00 | 00:00:00 | 00:00:00 | |
| DL1NUX | 2026-08-31 15:00:33 | 51.22807 | 9.99122 | 68° | 55km/h | 4551m | -1.3m/s | 0°C | 0% | 0hPa | 0V | 00:00:00 | 00:00:00 | 00:00:00 | |
| BIOWL1-15 | 2026-08-31 15:00:33 | 51.22829 | 9.99205 | 69° | 57km/h | 4545m | -1.2m/s | -10.4°C | 0% | 0hPa | 4.8V | 00:00:00 | 00:00:00 | 00:00:00 | |
| DL3OBA | 2026-08-31 15:00:32 | 51.22823 | 9.99184 | 69° | 57km/h | 4546m | -1.3m/s | -10.4°C | 0% | 0hPa | 4.8V | 00:00:00 | 00:00:00 | 00:00:00 | |
| DF8AY | 2026-08-31 15:00:31 | 51.22818 | 9.99163 | 67° | 57km/h | 4547m | -1.3m/s | -10.4°C | 0% | 0hPa | 4.8V | 00:00:00 | 00:00:00 | 00:00:00 | |
| DM0DOS-11 | 2026-08-31 15:00:30 | 51.22792 | 9.99059 | 68° | 57km/h | 4555m | -1m/s | 0°C | 0% | 0hPa | 0V | 00:00:00 | 00:00:00 | 00:00:00 | |
| DL1NUX | 2026-08-31 15:00:28 | 51.22781 | 9.99016 | 68° | 57km/h | 4558m | -1.3m/s | 0°C | 0% | 0hPa | 0V | 00:00:00 | 00:00:00 | 00:00:00 | |
| BIOWL7-15 | 2026-08-31 15:00:27 | 51.22802 | 9.99101 | 69° | 55km/h | 4551m | -1.3m/s | -10.4°C | 0% | 0hPa | 4.8V | 00:00:00 | 00:00:00 | 00:00:00 | |
| HSKMA3-T | 2026-08-31 15:00:23 | 51.22776 | 9.98995 | 69° | 58km/h | 4558m | -1.3m/s | -10.2°C | 0% | 0hPa | 4.8V | 00:00:00 | 00:00:00 | 00:00:00 | |
| DM0DOS-11 | 2026-08-31 15:00:20 | 51.22766 | 9.98951 | 68° | 57km/h | 4562m | -1.4m/s | 0°C | 0% | 0hPa | 0V | 00:00:00 | 00:00:00 | 00:00:00 | |
| DM0DOS-11 | 2026-08-31 15:00:20 | 51.22741 | 9.98849 | 69° | 55km/h | 4568m | -1.4m/s | 0°C | 0% | 0hPa | 0V | 00:00:00 | 00:00:00 | 00:00:00 | |
| DL1NUX | 2026-08-31 15:00:18 | 51.22755 | 9.98910 | 68° | 55km/h | 4564m | -1.1m/s | 0°C | 0% | 0hPa | 0V | 00:00:00 | 00:00:00 | 00:00:00 | |
| DL1NUX | 2026-08-31 15:00:18 | 51.22731 | 9.98808 | 69° | 57km/h | 4571m | -1.3m/s | 0°C | 0% | 0hPa | 0V | 00:00:00 | 00:00:00 | 00:00:00 | |
| BIOWL1-15 | 2026-08-31 15:00:11 | 51.22720 | 9.98765 | 67° | 57km/h | 4572m | -1.4m/s | -10.3°C | 0% | 0hPa | 4.8V | 00:00:00 | 00:00:00 | 00:00:00 | |
| DF8AY | 2026-08-31 15:00:10 | 51.22709 | 9.98722 | 68° | 57km/h | 4575m | -1.4m/s | -10.3°C | 0% | 0hPa | 4.8V | 00:00:00 | 00:00:00 | 00:00:00 | |
| DL1NUX | 2026-08-31 15:00:08 | 51.22678 | 9.98599 | 67° | 55km/h | 4584m | -1.2m/s | 0°C | 0% | 0hPa | 0V | 00:00:00 | 00:00:00 | 00:00:00 | |
| DB0UT-7 | 2026-08-31 15:00:07 | 51.22698 | 9.98680 | 68° | 57km/h | 4580m | -1.2m/s | 0°C | 0% | 0hPa | 0V | 00:00:00 | 00:00:00 | 00:00:00 | |
| DB0NH | 2026-08-31 15:00:06 | 51.22693 | 9.98660 | 69° | 57km/h | 4581m | -1.5m/s | 0°C | 0% | 0hPa | 0V | 00:00:00 | 00:00:00 | 00:00:00 | |
| DM0DOS-11 | 2026-08-31 15:00:05 | 51.22688 | 9.98639 | 67° | 55km/h | 4582m | -1.2m/s | 0°C | 0% | 0hPa | 0V | 00:00:00 | 00:00:00 | 00:00:00 | |
| DM0DOS-11 | 2026-08-31 15:00:05 | 51.22661 | 9.98536 | 66° | 57km/h | 4589m | -1.2m/s | 0°C | 0% | 0hPa | 0V | 00:00:00 | 00:00:00 | 00:00:00 | |
| BIOWL1-15 | 2026-08-31 15:00:01 | 51.22661 | 9.98536 | 66° | 57km/h | 4587m | -1.2m/s | -10.4°C | 0% | 0hPa | 4.8V | 00:00:00 | 00:00:00 | 00:00:00 | |
| DM0DOS-11 | 2026-08-31 15:00:00 | 51.22633 | 9.98431 | 68° | 57km/h | 4595m | -1.4m/s | 0°C | 0% | 0hPa | 0V | 00:00:00 | 00:00:00 | 00:00:00 | |
| DF8AY | 2026-08-31 14:59:59 | 51.22650 | 9.98493 | 67° | 57km/h | 4590m | -1.3m/s | -10.4°C | 0% | 0hPa | 4.8V | 00:00:00 | 00:00:00 | 00:00:00 | |
| DL1NUX | 2026-08-31 14:59:58 | 51.22650 | 9.98493 | 66° | 57km/h | 4591m | -1.3m/s | 0°C | 0% | 0hPa | 0V | 00:00:00 | 00:00:00 | 00:00:00 | |
| DL1NUX | 2026-08-31 14:59:58 | 51.22623 | 9.98389 | 67° | 57km/h | 4598m | -1.4m/s | 0°C | 0% | 0hPa | 0V | 00:00:00 | 00:00:00 | 00:00:00 | |
| DM0DOS-11 | 2026-08-31 14:59:50 | 51.22606 | 9.98326 | 66° | 57km/h | 4602m | -1.3m/s | 0°C | 0% | 0hPa | 0V | 00:00:00 | 00:00:00 | 00:00:00 | |
| DM0DOS-11 | 2026-08-31 14:59:50 | 51.22578 | 9.98221 | 67° | 57km/h | 4609m | -1.4m/s | 0°C | 0% | 0hPa | 0V | 00:00:00 | 00:00:00 | 00:00:00 | |
| HSKMA3-T | 2026-08-31 14:59:50 | 51.22601 | 9.98305 | 67° | 57km/h | 4602m | -1.3m/s | -10.5°C | 0% | 0hPa | 4.8V | 00:00:00 | 00:00:00 | 00:00:00 | |
| DF8AY | 2026-08-31 14:59:48 | 51.22589 | 9.98263 | 66° | 57km/h | 4605m | -1.4m/s | -10.5°C | 0% | 0hPa | 4.8V | 00:00:00 | 00:00:00 | 00:00:00 | |
| DM0DOS-11 | 2026-08-31 14:59:45 | 51.22551 | 9.98116 | 68° | 57km/h | 4616m | -1.5m/s | 0°C | 0% | 0hPa | 0V | 00:00:00 | 00:00:00 | 00:00:00 | |
| DL1NUX | 2026-08-31 14:59:43 | 51.22567 | 9.98179 | 66° | 57km/h | 4612m | -1.4m/s | 0°C | 0% | 0hPa | 0V | 00:00:00 | 00:00:00 | 00:00:00 | |
| DF2AP-13 | 2026-08-31 14:59:40 | 51.22550 | 9.98116 | 69° | 57km/h | 4616m | -1.4m/s | 0°C | 0% | 0hPa | 4.8V | 00:00:00 | 00:00:00 | 00:00:00 | |
| BIOWL1-15 | 2026-08-31 14:59:39 | 51.22545 | 9.98095 | 68° | 57km/h | 4616m | -1.5m/s | -10.6°C | 0% | 0hPa | 4.8V | 00:00:00 | 00:00:00 | 00:00:00 | |
| DL1NUX | 2026-08-31 14:59:38 | 51.22511 | 9.97967 | 64° | 58km/h | 4626m | -1.5m/s | 0°C | 0% | 0hPa | 0V | 00:00:00 | 00:00:00 | 00:00:00 | |
| DB0UT-7 | 2026-08-31 14:59:37 | 51.22534 | 9.98052 | 67° | 57km/h | 4621m | -1.3m/s | 0°C | 0% | 0hPa | 0V | 00:00:00 | 00:00:00 | 00:00:00 | |
| DB0NH | 2026-08-31 14:59:36 | 51.22529 | 9.98031 | 67° | 57km/h | 4622m | -1.3m/s | 0°C | 0% | 0hPa | 0V | 00:00:00 | 00:00:00 | 00:00:00 | |
| DM0DOS-11 | 2026-08-31 14:59:35 | 51.22523 | 9.98010 | 65° | 57km/h | 4624m | -1.2m/s | 0°C | 0% | 0hPa | 0V | 00:00:00 | 00:00:00 | 00:00:00 | |
| DM0DOS-11 | 2026-08-31 14:59:35 | 51.22493 | 9.97905 | 66° | 57km/h | 4631m | -1.5m/s | 0°C | 0% | 0hPa | 0V | 00:00:00 | 00:00:00 | 00:00:00 | |
| BIOWL7-15 | 2026-08-31 14:59:31 | 51.22499 | 9.97926 | 66° | 57km/h | 4628m | -1.2m/s | -10.7°C | 0% | 0hPa | 4.8V | 00:00:00 | 00:00:00 | 00:00:00 | |
| BIOWL1-15 | 2026-08-31 14:59:28 | 51.22482 | 9.97863 | 67° | 57km/h | 4632m | -1.3m/s | -10.7°C | 0% | 0hPa | 4.8V | 00:00:00 | 00:00:00 | 00:00:00 | |
| DL1NUX | 2026-08-31 14:59:28 | 51.22482 | 9.97863 | 67° | 57km/h | 4633m | -1.4m/s | 0°C | 0% | 0hPa | 0V | 00:00:00 | 00:00:00 | 00:00:00 | |
| DL1NUX | 2026-08-31 14:59:28 | 51.22453 | 9.97756 | 66° | 57km/h | 4640m | -1.5m/s | 0°C | 0% | 0hPa | 0V | 00:00:00 | 00:00:00 | 00:00:00 | |
| DL3OBA | 2026-08-31 14:59:28 | 51.22477 | 9.97842 | 69° | 58km/h | 4633m | -1.4m/s | -10.7°C | 0% | 0hPa | 4.8V | 00:00:00 | 00:00:00 | 00:00:00 | |
| DF8AY | 2026-08-31 14:59:27 | 51.22471 | 9.97820 | 67° | 58km/h | 4635m | -1.3m/s | -10.7°C | 0% | 0hPa | 4.8V | 00:00:00 | 00:00:00 | 00:00:00 | |
| DM0DOS-11 | 2026-08-31 14:59:25 | 51.22435 | 9.97693 | 67° | 57km/h | 4644m | -1.2m/s | 0°C | 0% | 0hPa | 0V | 00:00:00 | 00:00:00 | 00:00:00 | |
| DL1NUX | 2026-08-31 14:59:23 | 51.22424 | 9.97651 | 65° | 57km/h | 4647m | -1.3m/s | 0°C | 0% | 0hPa | 0V | 00:00:00 | 00:00:00 | 00:00:00 | |
| BIOWL1-15 | 2026-08-31 14:59:17 | 51.22418 | 9.97630 | 66° | 57km/h | 4647m | -1.3m/s | -10.8°C | 0% | 0hPa | 4.8V | 00:00:00 | 00:00:00 | 00:00:00 | |
| DF8AY | 2026-08-31 14:59:16 | 51.22406 | 9.97587 | 67° | 58km/h | 4649m | -1.3m/s | -10.8°C | 0% | 0hPa | 4.8V | 00:00:00 | 00:00:00 | 00:00:00 | |
| DM0DOS-11 | 2026-08-31 14:59:15 | 51.22406 | 9.97587 | 67° | 58km/h | 4651m | -1.3m/s | 0°C | 0% | 0hPa | 0V | 00:00:00 | 00:00:00 | 00:00:00 | |
| DM0DOS-11 | 2026-08-31 14:59:15 | 51.22377 | 9.97479 | 66° | 58km/h | 4657m | -1.2m/s | 0°C | 0% | 0hPa | 0V | 00:00:00 | 00:00:00 | 00:00:00 | |
| DL1NUX | 2026-08-31 14:59:13 | 51.22395 | 9.97544 | 65° | 58km/h | 4653m | -1.2m/s | 0°C | 0% | 0hPa | 0V | 00:00:00 | 00:00:00 | 00:00:00 | |
| DL1NUX | 2026-08-31 14:59:13 | 51.22365 | 9.97437 | 66° | 55km/h | 4660m | -1.2m/s | 0°C | 0% | 0hPa | 0V | 00:00:00 | 00:00:00 | 00:00:00 | |
| DF2AP-13 | 2026-08-31 14:59:10 | 51.22377 | 9.97479 | 67° | 58km/h | 4657m | -1.2m/s | 0°C | 0% | 0hPa | 4.8V | 00:00:00 | 00:00:00 | 00:00:00 | |
| HSKMA3-T | 2026-08-31 14:59:07 | 51.22354 | 9.97396 | 66° | 58km/h | 4661m | -1.3m/s | -11°C | 0% | 0hPa | 4.8V | 00:00:00 | 00:00:00 | 00:00:00 | |
| DB0NH | 2026-08-31 14:59:06 | 51.22353 | 9.97396 | 67° | 58km/h | 4663m | -0.9m/s | 0°C | 0% | 0hPa | 0V | 00:00:00 | 00:00:00 | 00:00:00 | |
| DL1NUX | 2026-08-31 14:59:03 | 51.22336 | 9.97332 | 65° | 58km/h | 4666m | -1.2m/s | 0°C | 0% | 0hPa | 0V | 00:00:00 | 00:00:00 | 00:00:00 | |
| DL1NUX | 2026-08-31 14:59:03 | 51.22305 | 9.97225 | 65° | 58km/h | 4676m | -1.2m/s | 0°C | 0% | 0hPa | 0V | 00:00:00 | 00:00:00 | 00:00:00 | |
| DM0DOS-11 | 2026-08-31 14:59:00 | 51.22318 | 9.97268 | 65° | 58km/h | 4669m | -0.9m/s | 0°C | 0% | 0hPa | 0V | 00:00:00 | 00:00:00 | 00:00:00 | |
| DM0DOS-11 | 2026-08-31 14:59:00 | 51.22287 | 9.97162 | 66° | 58km/h | 4673m | -0.9m/s | 0°C | 0% | 0hPa | 0V | 00:00:00 | 00:00:00 | 00:00:00 | |
| BIOWL7-15 | 2026-08-31 14:58:58 | 51.22305 | 9.97225 | 66° | 58km/h | 4670m | -0.9m/s | -11.0°C | 0% | 0hPa | 4.8V | 00:00:00 | 00:00:00 | 00:00:00 | |
| THATR2-17 | 2026-08-31 14:58:57 | 51.22109 | 9.96582 | 62° | 58km/h | 4703m | 0m/s | 0°C | 0% | 0hPa | 4.8V | 00:00:00 | 00:00:00 | 00:00:00 | |
| BIOWL1-15 | 2026-08-31 14:58:56 | 51.22287 | 9.97162 | 67° | 58km/h | 4673m | -1.1m/s | -11.1°C | 0% | 0hPa | 4.8V | 00:00:00 | 00:00:00 | 00:00:00 | |
| DL1NUX | 2026-08-31 14:58:55 | 51.22256 | 9.97053 | 63° | 60km/h | 4678m | -1m/s | 0°C | 0% | 0hPa | 0V | 00:00:00 | 00:00:00 | 00:00:00 | |
| DF8AY | 2026-08-31 14:58:54 | 51.22275 | 9.97119 | 66° | 58km/h | 4675m | -0.9m/s | -11.1°C | 0% | 0hPa | 4.8V | 00:00:00 | 00:00:00 | 00:00:00 | |
| DL3OBA | 2026-08-31 14:58:46 | 51.22229 | 9.96967 | 63° | 58km/h | 4683m | -1.3m/s | -11.2°C | 0% | 0hPa | 4.8V | 00:00:00 | 00:00:00 | 00:00:00 | |
| BIOWL1-15 | 2026-08-31 14:58:45 | 51.22222 | 9.96946 | 64° | 57km/h | 4684m | -1.1m/s | -11.1°C | 0% | 0hPa | 4.8V | 00:00:00 | 00:00:00 | 00:00:00 | |
| DL1NUX | 2026-08-31 14:58:45 | 51.22222 | 9.96946 | 63° | 57km/h | 4685m | -1.1m/s | 0°C | 0% | 0hPa | 0V | 00:00:00 | 00:00:00 | 00:00:00 | |
| DL1NUX | 2026-08-31 14:58:45 | 51.22192 | 9.96839 | 64° | 58km/h | 4691m | -1.2m/s | 0°C | 0% | 0hPa | 0V | 00:00:00 | 00:00:00 | 00:00:00 | |
| DF8AY | 2026-08-31 14:58:43 | 51.22204 | 9.96882 | 66° | 58km/h | 4687m | -1.2m/s | -11.2°C | 0% | 0hPa | 4.8V | 00:00:00 | 00:00:00 | 00:00:00 | |
| DF2AP-13 | 2026-08-31 14:58:40 | 51.22191 | 9.96839 | 65° | 60km/h | 4691m | -1.1m/s | 0°C | 0% | 0hPa | 4.8V | 00:00:00 | 00:00:00 | 00:00:00 | |
| DL1NUX | 2026-08-31 14:58:40 | 51.22157 | 9.96734 | 62° | 58km/h | 4697m | -1.4m/s | 0°C | 0% | 0hPa | 0V | 00:00:00 | 00:00:00 | 00:00:00 | |
| HSKMA3-T | 2026-08-31 14:58:35 | 51.22150 | 9.96713 | 63° | 60km/h | 4697m | -1.4m/s | -11.3°C | 0% | 0hPa | 4.8V | 00:00:00 | 00:00:00 | 00:00:00 | |
| DF8AY | 2026-08-31 14:58:33 | 51.22136 | 9.96670 | 65° | 60km/h | 4699m | -1.2m/s | -11.3°C | 0% | 0hPa | 4.8V | 00:00:00 | 00:00:00 | 00:00:00 | |
| DL1NUX | 2026-08-31 14:58:30 | 51.22123 | 9.96625 | 63° | 62km/h | 4702m | -1.2m/s | 0°C | 0% | 0hPa | 0V | 00:00:00 | 00:00:00 | 00:00:00 | |
| DL1NUX | 2026-08-31 14:58:30 | 51.22088 | 9.96519 | 61° | 57km/h | 4708m | -1.2m/s | 0°C | 0% | 0hPa | 0V | 00:00:00 | 00:00:00 | 00:00:00 | |
| DL3OBA | 2026-08-31 14:58:25 | 51.22088 | 9.96519 | 62° | 57km/h | 4707m | -1.4m/s | -11.4°C | 0% | 0hPa | 4.8V | 00:00:00 | 00:00:00 | 00:00:00 | |
| HSKMA3-T | 2026-08-31 14:58:24 | 51.22074 | 9.96478 | 63° | 60km/h | 4709m | -1.3m/s | -11.4°C | 0% | 0hPa | 4.8V | 00:00:00 | 00:00:00 | 00:00:00 | |
| DF8AY | 2026-08-31 14:58:22 | 51.22061 | 9.96433 | 65° | 64km/h | 4712m | -1.4m/s | -11.5°C | 0% | 0hPa | 4.8V | 00:00:00 | 00:00:00 | 00:00:00 | |
| DL1NUX | 2026-08-31 14:58:15 | 51.22018 | 9.96293 | 64° | 58km/h | 4722m | -1.9m/s | 0°C | 0% | 0hPa | 0V | 00:00:00 | 00:00:00 | 00:00:00 | |
| DL1NUX | 2026-08-31 14:58:15 | 51.21986 | 9.96180 | 63° | 64km/h | 4729m | -0.9m/s | 0°C | 0% | 0hPa | 0V | 00:00:00 | 00:00:00 | 00:00:00 | |
| HSKMA3-T | 2026-08-31 14:58:13 | 51.21999 | 9.96226 | 66° | 64km/h | 4725m | -1m/s | -11.5°C | 0% | 0hPa | 4.8V | 00:00:00 | 00:00:00 | 00:00:00 | |
| DF8AY | 2026-08-31 14:58:11 | 51.21986 | 9.96180 | 64° | 64km/h | 4727m | -1.1m/s | -11.5°C | 0% | 0hPa | 4.8V | 00:00:00 | 00:00:00 | 00:00:00 | |
| DL1NUX | 2026-08-31 14:58:10 | 51.21951 | 9.96070 | 65° | 58km/h | 4734m | -1.4m/s | 0°C | 0% | 0hPa | 0V | 00:00:00 | 00:00:00 | 00:00:00 | |
| DB0UT-7 | 2026-08-31 14:58:06 | 51.21957 | 9.96091 | 64° | 62km/h | 4733m | -1.2m/s | 0°C | 0% | 0hPa | 4.8V | 00:00:00 | 00:00:00 | 00:00:00 | |
| DL3OBA | 2026-08-31 14:58:05 | 51.21951 | 9.96070 | 66° | 58km/h | 4733m | -1.3m/s | -11.6°C | 0% | 0hPa | 4.8V | 00:00:00 | 00:00:00 | 00:00:00 | |
| HSKMA3-T | 2026-08-31 14:58:03 | 51.21932 | 9.96004 | 64° | 60km/h | 4737m | -1.4m/s | -11.6°C | 0% | 0hPa | 4.8V | 00:00:00 | 00:00:00 | 00:00:00 | |
| DM0DOS-11 | 2026-08-31 14:58:00 | 51.21918 | 9.95959 | 63° | 64km/h | 4741m | -1.4m/s | 0°C | 0% | 0hPa | 0V | 00:00:00 | 00:00:00 | 00:00:00 | |
| DM0DOS-11 | 2026-08-31 14:58:00 | 51.21882 | 9.95843 | 63° | 64km/h | 4748m | -1.2m/s | 0°C | 0% | 0hPa | 0V | 00:00:00 | 00:00:00 | 00:00:00 | |
| DF8AY | 2026-08-31 14:58:00 | 51.21911 | 9.95935 | 63° | 64km/h | 4741m | -1.4m/s | -11.6°C | 0% | 0hPa | 4.8V | 00:00:00 | 00:00:00 | 00:00:00 | |
| BIOWL1-15 | 2026-08-31 14:57:51 | 51.21857 | 9.95753 | 67° | 60km/h | 4752m | -1m/s | -11.7°C | 0% | 0hPa | 4.8V | 00:00:00 | 00:00:00 | 00:00:00 | |
| DF8AY | 2026-08-31 14:57:50 | 51.21844 | 9.95708 | 65° | 62km/h | 4754m | -1.4m/s | -11.7°C | 0% | 0hPa | 4.8V | 00:00:00 | 00:00:00 | 00:00:00 | |
| DL1NUX | 2026-08-31 14:57:45 | 51.21816 | 9.95619 | 62° | 64km/h | 4760m | -1.7m/s | 0°C | 0% | 0hPa | 0V | 00:00:00 | 00:00:00 | 00:00:00 | |
| DL1NUX | 2026-08-31 14:57:45 | 51.21781 | 9.95509 | 63° | 60km/h | 4767m | -1.6m/s | 0°C | 0% | 0hPa | 0V | 00:00:00 | 00:00:00 | 00:00:00 | |
| DL3OBA | 2026-08-31 14:57:44 | 51.21808 | 9.95597 | 63° | 62km/h | 4760m | -1.7m/s | -11.8°C | 0% | 0hPa | 4.7V | 00:00:00 | 00:00:00 | 00:00:00 | |
| HSKMA3-T | 2026-08-31 14:57:41 | 51.21781 | 9.95509 | 64° | 60km/h | 4766m | -1m/s | -11.8°C | 0% | 0hPa | 4.7V | 00:00:00 | 00:00:00 | 00:00:00 | |
| DL1NUX | 2026-08-31 14:57:40 | 51.21746 | 9.95396 | 63° | 64km/h | 4775m | -1.8m/s | 0°C | 0% | 0hPa | 0V | 00:00:00 | 00:00:00 | 00:00:00 | |
| DF2AP-13 | 2026-08-31 14:57:40 | 51.21781 | 9.95509 | 64° | 64km/h | 4767m | -1.6m/s | 0°C | 0% | 0hPa | 4.7V | 00:00:00 | 00:00:00 | 00:00:00 | |
| DF8AY | 2026-08-31 14:57:39 | 51.21768 | 9.95464 | 64° | 62km/h | 4769m | -1.5m/s | -11.9°C | 0% | 0hPa | 4.7V | 00:00:00 | 00:00:00 | 00:00:00 | |
| BIOWL7-15 | 2026-08-31 14:57:38 | 51.21768 | 9.95464 | 65° | 62km/h | 4769m | -1.5m/s | -11.9°C | 0% | 0hPa | 0V | 00:00:00 | 00:00:00 | 00:00:00 | |
| DB0UT-7 | 2026-08-31 14:57:36 | 51.21753 | 9.95419 | 64° | 64km/h | 4773m | -1.4m/s | 0°C | 0% | 0hPa | 0V | 00:00:00 | 00:00:00 | 00:00:00 | |
| DL1NUX | 2026-08-31 14:57:30 | 51.21710 | 9.95282 | 63° | 64km/h | 4783m | -1.6m/s | 0°C | 0% | 0hPa | 0V | 00:00:00 | 00:00:00 | 00:00:00 | |
| DL1NUX | 2026-08-31 14:57:30 | 51.21676 | 9.95164 | 66° | 64km/h | 4794m | -1.7m/s | 0°C | 0% | 0hPa | 0V | 00:00:00 | 00:00:00 | 00:00:00 | |
| BIOWL1-15 | 2026-08-31 14:57:30 | 51.21703 | 9.95258 | 64° | 64km/h | 4783m | -1.6m/s | -12°C | 0% | 0hPa | 4.7V | 00:00:00 | 00:00:00 | 00:00:00 | |
| DF8AY | 2026-08-31 14:57:28 | 51.21689 | 9.95211 | 67° | 64km/h | 4786m | -1.4m/s | -12°C | 0% | 0hPa | 4.7V | 00:00:00 | 00:00:00 | 00:00:00 | |
| DL1NUX | 2026-08-31 14:57:25 | 51.21642 | 9.95049 | 61° | 64km/h | 4801m | -1.6m/s | 0°C | 0% | 0hPa | 0V | 00:00:00 | 00:00:00 | 00:00:00 | |
| DL3OBA | 2026-08-31 14:57:24 | 51.21670 | 9.95141 | 67° | 62km/h | 4792m | -1.7m/s | -12.0°C | 0% | 0hPa | 4.7V | 00:00:00 | 00:00:00 | 00:00:00 | |
| AM1SDL-15 | 2026-08-31 14:57:22 | 51.21657 | 9.95095 | 65° | 66km/h | 4797m | -1.5m/s | 0°C | 0% | 0hPa | 4.7V | 00:00:00 | 00:00:00 | 00:00:00 | |
| BIOWL1-15 | 2026-08-31 14:57:19 | 51.21634 | 9.95027 | 62° | 64km/h | 4801m | -1.6m/s | -12.1°C | 0% | 0hPa | 4.7V | 00:00:00 | 00:00:00 | 00:00:00 | |
| DL1NUX | 2026-08-31 14:57:15 | 51.21603 | 9.94934 | 64° | 64km/h | 4810m | -1.8m/s | 0°C | 0% | 0hPa | 0V | 00:00:00 | 00:00:00 | 00:00:00 | |
| DL1NUX | 2026-08-31 14:57:15 | 51.21568 | 9.94817 | 63° | 66km/h | 4819m | -1.6m/s | 0°C | 0% | 0hPa | 0V | 00:00:00 | 00:00:00 | 00:00:00 | |
| DF2AP-13 | 2026-08-31 14:57:10 | 51.21568 | 9.94817 | 64° | 68km/h | 4819m | -1.6m/s | 0°C | 0% | 0hPa | 4.7V | 00:00:00 | 00:00:00 | 00:00:00 | |
| HSKMA3-T | 2026-08-31 14:57:09 | 51.21554 | 9.94769 | 64° | 66km/h | 4820m | -1.5m/s | -12.2°C | 0% | 0hPa | 4.7V | 00:00:00 | 00:00:00 | 00:00:00 | |
| AM1SDL-15 | 2026-08-31 14:57:08 | 51.21554 | 9.94769 | 64° | 66km/h | 4829m | -2.0m/s | 0°C | 0% | 0hPa | 4.7V | 00:00:00 | 00:00:00 | 00:00:00 | |
| DF8AY | 2026-08-31 14:57:07 | 51.21539 | 9.94721 | 64° | 66km/h | 4824m | -1.6m/s | -12.2°C | 0% | 0hPa | 4.7V | 00:00:00 | 00:00:00 | 00:00:00 | |
| DB0NH | 2026-08-31 14:57:06 | 51.21539 | 9.94721 | 65° | 68km/h | 4826m | -1.8m/s | 0°C | 0% | 0hPa | 0V | 00:00:00 | 00:00:00 | 00:00:00 | |
| DL1NUX | 2026-08-31 14:57:05 | 51.21494 | 9.94576 | 63° | 68km/h | 4836m | -1.8m/s | 0°C | 0% | 0hPa | 0V | 00:00:00 | 00:00:00 | 00:00:00 | |
| DL3OBA | 2026-08-31 14:57:03 | 51.21517 | 9.94648 | 64° | 68km/h | 4829m | -2.0m/s | -12.3°C | 0% | 0hPa | 4.7V | 00:00:00 | 00:00:00 | 00:00:00 | |
| BIOWL1-15 | 2026-08-31 14:56:57 | 51.21472 | 9.94505 | 67° | 66km/h | 4839m | -1.4m/s | -12.5°C | 0% | 0hPa | 4.7V | 00:00:00 | 00:00:00 | 00:00:00 | |
| DF8AY | 2026-08-31 14:56:56 | 51.21459 | 9.94455 | 67° | 68km/h | 4842m | -1.5m/s | -12.5°C | 0% | 0hPa | 4.7V | 00:00:00 | 00:00:00 | 00:00:00 | |
| DL1NUX | 2026-08-31 14:56:55 | 51.21459 | 9.94455 | 67° | 68km/h | 4844m | -1.8m/s | 0°C | 0% | 0hPa | 0V | 00:00:00 | 00:00:00 | 00:00:00 | |
| DL1NUX | 2026-08-31 14:56:55 | 51.21423 | 9.94329 | 63° | 69km/h | 4853m | -1.6m/s | 0°C | 0% | 0hPa | 0V | 00:00:00 | 00:00:00 | 00:00:00 | |
| AM1SDL-15 | 2026-08-31 14:56:52 | 51.21438 | 9.94379 | 66° | 68km/h | 4859m | -1.4m/s | 0°C | 0% | 0hPa | 4.7V | 00:00:00 | 00:00:00 | 00:00:00 | |
| BIOWL1-15 | 2026-08-31 14:56:47 | 51.21393 | 9.94230 | 65° | 66km/h | 4858m | -1.7m/s | -12.4°C | 0% | 0hPa | 4.7V | 00:00:00 | 00:00:00 | 00:00:00 | |
| DF8AY | 2026-08-31 14:56:45 | 51.21380 | 9.94181 | 68° | 68km/h | 4861m | -1.7m/s | -12.4°C | 0% | 0hPa | 4.7V | 00:00:00 | 00:00:00 | 00:00:00 | |
| DL3OBA | 2026-08-31 14:56:43 | 51.21373 | 9.94156 | 69° | 68km/h | 4862m | -1.7m/s | -12.4°C | 0% | 0hPa | 0V | 00:00:00 | 00:00:00 | 00:00:00 | |
| BIOWL7-15 | 2026-08-31 14:56:41 | 51.21361 | 9.94104 | 70° | 69km/h | 4866m | -1.6m/s | -12.5°C | 0% | 0hPa | 0V | 00:00:00 | 00:00:00 | 00:00:00 | |
| DL1NUX | 2026-08-31 14:56:40 | 51.21354 | 9.94078 | 66° | 71km/h | 4869m | -1.8m/s | 0°C | 0% | 0hPa | 0V | 00:00:00 | 00:00:00 | 00:00:00 | |
| DL1NUX | 2026-08-31 14:56:40 | 51.21315 | 9.93953 | 62° | 66km/h | 4879m | -1.8m/s | 0°C | 0% | 0hPa | 0V | 00:00:00 | 00:00:00 | 00:00:00 | |
| DF2AP-13 | 2026-08-31 14:56:40 | 51.21354 | 9.94077 | 67° | 69km/h | 4869m | -1.7m/s | 0°C | 0% | 0hPa | 4.7V | 00:00:00 | 00:00:00 | 00:00:00 | |
| AM1SDL-15 | 2026-08-31 14:56:37 | 51.21331 | 9.94001 | 63° | 69km/h | 4880m | -1.7m/s | 0°C | 0% | 0hPa | 4.7V | 00:00:00 | 00:00:00 | 00:00:00 | |
| BIOWL1-15 | 2026-08-31 14:56:36 | 51.21315 | 9.93953 | 63° | 66km/h | 4876m | -1.9m/s | -12.4°C | 0% | 0hPa | 4.7V | 00:00:00 | 00:00:00 | 00:00:00 | |
| DL1NUX | 2026-08-31 14:56:35 | 51.21284 | 9.93829 | 69° | 71km/h | 4887m | -1.6m/s | 0°C | 0% | 0hPa | 0V | 00:00:00 | 00:00:00 | 00:00:00 | |
| DF8AY | 2026-08-31 14:56:34 | 51.21302 | 9.93905 | 68° | 66km/h | 4880m | -1.7m/s | -12.5°C | 0% | 0hPa | 4.7V | 00:00:00 | 00:00:00 | 00:00:00 | |
| HSKMA3-T | 2026-08-31 14:56:26 | 51.21246 | 9.93695 | 62° | 69km/h | 4896m | -2.4m/s | -12.7°C | 0% | 0hPa | 4.7V | 00:00:00 | 00:00:00 | 00:00:00 | |
| DL1NUX | 2026-08-31 14:56:25 | 51.21246 | 9.93695 | 61° | 69km/h | 4898m | -2.5m/s | 0°C | 0% | 0hPa | 0V | 00:00:00 | 00:00:00 | 00:00:00 | |
| AM1SDL-15 | 2026-08-31 14:56:25 | 51.21246 | 9.93695 | 62° | 69km/h | 4903m | -2.1m/s | 0°C | 0% | 0hPa | 4.7V | 00:00:00 | 00:00:00 | 00:00:00 | |
| DF8AY | 2026-08-31 14:56:24 | 51.21230 | 9.93646 | 63° | 66km/h | 4901m | -2.5m/s | -12.7°C | 0% | 0hPa | 4.7V | 00:00:00 | 00:00:00 | 00:00:00 | |
| DL3OBA | 2026-08-31 14:56:22 | 51.21222 | 9.93622 | 66° | 66km/h | 4903m | -2.2m/s | -12.7°C | 0% | 0hPa | 4.7V | 00:00:00 | 00:00:00 | 00:00:00 | |
| DO2JMG | 2026-08-31 14:56:21 | 51.21215 | 9.93598 | 66° | 66km/h | 4905m | -2.5m/s | -12.8°C | 0% | 0hPa | 4.7V | 00:00:00 | 00:00:00 | 00:00:00 | |
| DM0DOS-11 | 2026-08-31 14:56:20 | 51.21170 | 9.93447 | 64° | 69km/h | 4919m | -2m/s | 0°C | 0% | 0hPa | 0V | 00:00:00 | 00:00:00 | 00:00:00 | |
| BIOWL1-15 | 2026-08-31 14:56:15 | 51.21163 | 9.93422 | 64° | 69km/h | 4919m | -2m/s | -12.9°C | 0% | 0hPa | 4.7V | 00:00:00 | 00:00:00 | 00:00:00 | |
| DF8AY | 2026-08-31 14:56:14 | 51.21147 | 9.93372 | 65° | 69km/h | 4923m | -1.9m/s | -12.9°C | 0% | 0hPa | 4.7V | 00:00:00 | 00:00:00 | 00:00:00 | |
| AM1SDL-15 | 2026-08-31 14:56:13 | 51.21155 | 9.93396 | 65° | 73km/h | 4921m | -1.9m/s | 0°C | 0% | 0hPa | 0V | 00:00:00 | 00:00:00 | 00:00:00 | |
| DL1NUX | 2026-08-31 14:56:10 | 51.21132 | 9.93320 | 64° | 69km/h | 4928m | -1.8m/s | 0°C | 0% | 0hPa | 0V | 00:00:00 | 00:00:00 | 00:00:00 | |
| DL1NUX | 2026-08-31 14:56:10 | 51.21094 | 9.93193 | 64° | 71km/h | 4939m | -2.2m/s | 0°C | 0% | 0hPa | 0V | 00:00:00 | 00:00:00 | 00:00:00 | |
| DF2AP-13 | 2026-08-31 14:56:10 | 51.21132 | 9.93320 | 65° | 73km/h | 4928m | -1.8m/s | 0°C | 0% | 0hPa | 4.7V | 00:00:00 | 00:00:00 | 00:00:00 | |
| DO2JMG | 2026-08-31 14:56:08 | 51.21117 | 9.93270 | 64° | 69km/h | 4930m | -2m/s | -13°C | 0% | 0hPa | 4.7V | 00:00:00 | 00:00:00 | 00:00:00 | |
| DB0UT-7 | 2026-08-31 14:56:06 | 51.21101 | 9.93219 | 65° | 73km/h | 4937m | -2.1m/s | 0°C | 0% | 0hPa | 4.7V | 00:00:00 | 00:00:00 | 00:00:00 | |
| BIOWL1-15 | 2026-08-31 14:56:03 | 51.21078 | 9.93141 | 65° | 71km/h | 4941m | -2.3m/s | -13°C | 0% | 0hPa | 4.7V | 00:00:00 | 00:00:00 | 00:00:00 | |
| BIOWL9-15 | 2026-08-31 14:56:02 | 51.21062 | 9.93089 | 64° | 71km/h | 4945m | -2.4m/s | -13.0°C | -1.0% | -1.0hPa | 0V | 00:00:00 | 00:00:00 | 00:00:00 | |
| DF8AY | 2026-08-31 14:56:02 | 51.21062 | 9.93089 | 64° | 73km/h | 4945m | -2.4m/s | -13°C | 0% | 0hPa | 4.7V | 00:00:00 | 00:00:00 | 00:00:00 | |
| DL1NUX | 2026-08-31 14:55:55 | 51.21015 | 9.92930 | 64° | 71km/h | 4962m | -2.4m/s | 0°C | 0% | 0hPa | 0V | 00:00:00 | 00:00:00 | 00:00:00 | |
| DL1NUX | 2026-08-31 14:55:55 | 51.20976 | 9.92800 | 65° | 73km/h | 4974m | -2.2m/s | 0°C | 0% | 0hPa | 0V | 00:00:00 | 00:00:00 | 00:00:00 | |
| AM1SDL-15 | 2026-08-31 14:55:55 | 51.21015 | 9.92930 | 65° | 73km/h | 4962m | -2.4m/s | 0°C | 0% | 0hPa | 4.7V | 00:00:00 | 00:00:00 | 00:00:00 | |
| HSKMA3-T | 2026-08-31 14:55:53 | 51.20991 | 9.92852 | 65° | 71km/h | 4967m | -2.3m/s | -13°C | 0% | 0hPa | 4.7V | 00:00:00 | 00:00:00 | 00:00:00 | |
| DO2JMG | 2026-08-31 14:55:51 | 51.20976 | 9.92800 | 65° | 73km/h | 4972m | -2.4m/s | -13.2°C | 0% | 0hPa | 4.7V | 00:00:00 | 00:00:00 | 00:00:00 | |
| DL1NUX | 2026-08-31 14:55:45 | 51.20936 | 9.92665 | 62° | 75km/h | 4987m | -2.5m/s | 0°C | 0% | 0hPa | 0V | 00:00:00 | 00:00:00 | 00:00:00 | |
| DL1NUX | 2026-08-31 14:55:45 | 51.20894 | 9.92535 | 64° | 73km/h | 4999m | -2.4m/s | 0°C | 0% | 0hPa | 0V | 00:00:00 | 00:00:00 | 00:00:00 | |
| AM1SDL-15 | 2026-08-31 14:55:43 | 51.20919 | 9.92613 | 63° | 75km/h | 4991m | -2.2m/s | 0°C | 0% | 0hPa | 4.7V | 00:00:00 | 00:00:00 | 00:00:00 | |
| HSKMA3-T | 2026-08-31 14:55:42 | 51.20910 | 9.92587 | 63° | 73km/h | 4991m | -2.2m/s | -13.1°C | 0% | 0hPa | 4.7V | 00:00:00 | 00:00:00 | 00:00:00 | |
| DL3OBA | 2026-08-31 14:55:42 | 51.20902 | 9.92560 | 64° | 73km/h | 4994m | -2.5m/s | -13.2°C | 0% | 0hPa | 4.7V | 00:00:00 | 00:00:00 | 00:00:00 | |
| DF8AY | 2026-08-31 14:55:40 | 51.20886 | 9.92508 | 65° | 73km/h | 4999m | -2.4m/s | -13.2°C | 0% | 0hPa | 4.7V | 00:00:00 | 00:00:00 | 00:00:00 | |
| DF2AP-13 | 2026-08-31 14:55:40 | 51.20894 | 9.92535 | 65° | 77km/h | 4999m | -2.4m/s | 0°C | 0% | 0hPa | 0V | 00:00:00 | 00:00:00 | 00:00:00 | |
| DL1NUX | 2026-08-31 14:55:39 | 51.20845 | 9.92370 | 62° | 77km/h | 5014m | -2.5m/s | 0°C | 0% | 0hPa | 0V | 00:00:00 | 00:00:00 | 00:00:00 | |
| DM0DOS-11 | 2026-08-31 14:55:38 | 51.20836 | 9.92343 | 62° | 78km/h | 5016m | -2.7m/s | 0°C | 0% | 0hPa | 0V | 00:00:00 | 00:00:00 | 00:00:00 | |
| DB0UT-7 | 2026-08-31 14:55:36 | 51.20862 | 9.92426 | 64° | 77km/h | 5009m | -2.6m/s | 0°C | 0% | 0hPa | 4.7V | 00:00:00 | 00:00:00 | 00:00:00 | |
| HSKMA3-T | 2026-08-31 14:55:32 | 51.20817 | 9.92289 | 59° | 75km/h | 5019m | -2.6m/s | -13.4°C | 0% | 0hPa | 4.7V | 00:00:00 | 00:00:00 | 00:00:00 | |
| AM1SDL-15 | 2026-08-31 14:55:31 | 51.20817 | 9.92288 | 60° | 75km/h | 5022m | -2.8m/s | 0°C | 0% | 0hPa | 4.7V | 00:00:00 | 00:00:00 | 00:00:00 | |
| DF8AY | 2026-08-31 14:55:30 | 51.20799 | 9.92237 | 61° | 73km/h | 5024m | -2.8m/s | -13.4°C | 0% | 0hPa | 4.7V | 00:00:00 | 00:00:00 | 00:00:00 | |
| DL1NUX | 2026-08-31 14:55:29 | 51.20755 | 9.92102 | 62° | 75km/h | 5041m | -2.7m/s | 0°C | 0% | 0hPa | 0V | 00:00:00 | 00:00:00 | 00:00:00 | |
| DM0DOS-11 | 2026-08-31 14:55:28 | 51.20747 | 9.92075 | 63° | 77km/h | 5044m | -2.8m/s | 0°C | 0% | 0hPa | 0V | 00:00:00 | 00:00:00 | 00:00:00 | |
| BIOWL1-15 | 2026-08-31 14:55:21 | 51.20720 | 9.91992 | 62° | 77km/h | 5050m | -2.9m/s | -13.5°C | 0% | 0hPa | 4.7V | 00:00:00 | 00:00:00 | 00:00:00 | |
| DL1NUX | 2026-08-31 14:55:19 | 51.20665 | 9.91827 | 61° | 77km/h | 5069m | -2.9m/s | 0°C | 0% | 0hPa | 0V | 00:00:00 | 00:00:00 | 00:00:00 | |
| AM1SDL-15 | 2026-08-31 14:55:19 | 51.20710 | 9.91965 | 63° | 78km/h | 5055m | -2.7m/s | 0°C | 0% | 0hPa | 0V | 00:00:00 | 00:00:00 | 00:00:00 | |
| DF8AY | 2026-08-31 14:55:19 | 51.20701 | 9.91938 | 63° | 77km/h | 5055m | -2.8m/s | -13.5°C | 0% | 0hPa | 4.7V | 00:00:00 | 00:00:00 | 00:00:00 | |
| DM0DOS-11 | 2026-08-31 14:55:18 | 51.20655 | 9.91800 | 62° | 78km/h | 5072m | -2.7m/s | 0°C | 0% | 0hPa | 0V | 00:00:00 | 00:00:00 | 00:00:00 | |
| BIOWL1-15 | 2026-08-31 14:55:10 | 51.20617 | 9.91688 | 62° | 78km/h | 5080m | -2.8m/s | -13.7°C | 0% | 0hPa | 4.7V | 00:00:00 | 00:00:00 | 00:00:00 | |
| DL1NUX | 2026-08-31 14:55:09 | 51.20570 | 9.91546 | 60° | 80km/h | 5097m | -2.9m/s | 0°C | 0% | 0hPa | 0V | 00:00:00 | 00:00:00 | 00:00:00 | |
| DM0DOS-11 | 2026-08-31 14:55:08 | 51.20560 | 9.91518 | 60° | 80km/h | 5100m | -3m/s | 0°C | 0% | 0hPa | 0V | 00:00:00 | 00:00:00 | 00:00:00 | |
| DF8AY | 2026-08-31 14:55:08 | 51.20599 | 9.91631 | 62° | 80km/h | 5086m | -2.8m/s | -13.7°C | 0% | 0hPa | 4.7V | 00:00:00 | 00:00:00 | 00:00:00 | |
| AM1SDL-15 | 2026-08-31 14:55:07 | 51.20599 | 9.91631 | 62° | 80km/h | 5097m | -2.9m/s | 0°C | 0% | 0hPa | 4.7V | 00:00:00 | 00:00:00 | 00:00:00 | |
| DB0UT-7 | 2026-08-31 14:55:06 | 51.20589 | 9.91603 | 62° | 80km/h | 5091m | -2.8m/s | 0°C | 0% | 0hPa | 4.7V | 00:00:00 | 00:00:00 | 00:00:00 | |
| DL3OBA | 2026-08-31 14:55:01 | 51.20530 | 9.91434 | 62° | 78km/h | 5106m | -2.9m/s | -13.9°C | 0% | 0hPa | 4.7V | 00:00:00 | 00:00:00 | 00:00:00 | |
| HSKMA3-T | 2026-08-31 14:55:00 | 51.20520 | 9.91406 | 61° | 80km/h | 5109m | -3.1m/s | -13.9°C | 0% | 0hPa | 4.7V | 00:00:00 | 00:00:00 | 00:00:00 | |
| DL1NUX | 2026-08-31 14:54:59 | 51.20470 | 9.91265 | 59° | 82km/h | 5127m | -3.1m/s | 0°C | 0% | 0hPa | 0V | 00:00:00 | 00:00:00 | 00:00:00 | |
| DF8AY | 2026-08-31 14:54:57 | 51.20490 | 9.91322 | 61° | 80km/h | 5118m | -3m/s | -14°C | 0% | 0hPa | 4.7V | 00:00:00 | 00:00:00 | 00:00:00 | |
| DL1NUX | 2026-08-31 14:54:49 | 51.20367 | 9.90985 | 58° | 82km/h | 5158m | -3.2m/s | 0°C | 0% | 0hPa | 0V | 00:00:00 | 00:00:00 | 00:00:00 | |
| BIOWL1-15 | 2026-08-31 14:54:48 | 51.20408 | 9.91099 | 60° | 78km/h | 5143m | -3m/s | -14.1°C | 0% | 0hPa | 4.7V | 00:00:00 | 00:00:00 | 00:00:00 | |
| BIOWL7-15 | 2026-08-31 14:54:48 | 51.20408 | 9.91099 | 61° | 78km/h | 5143m | -3.0m/s | -14.1°C | 0% | 0hPa | 4.7V | 00:00:00 | 00:00:00 | 00:00:00 | |
| DF8AY | 2026-08-31 14:54:47 | 51.20388 | 9.91043 | 61° | 82km/h | 5149m | -3.2m/s | -14.2°C | 0% | 0hPa | 4.7V | 00:00:00 | 00:00:00 | 00:00:00 | |
| DF2AP-13 | 2026-08-31 14:54:40 | 51.20325 | 9.90874 | 59° | 80km/h | 5171m | -3.1m/s | 0°C | 0% | 0hPa | 4.6V | 00:00:00 | 00:00:00 | 00:00:00 | |
| BIOWL1-15 | 2026-08-31 14:54:38 | 51.20294 | 9.90791 | 60° | 80km/h | 5177m | -3.2m/s | -14.4°C | 0% | 0hPa | 4.6V | 00:00:00 | 00:00:00 | 00:00:00 | |
| DF8AY | 2026-08-31 14:54:36 | 51.20273 | 9.90734 | 60° | 82km/h | 5183m | -3.2m/s | -14.4°C | 0% | 0hPa | 4.6V | 00:00:00 | 00:00:00 | 00:00:00 | |
| DL1NUX | 2026-08-31 14:54:29 | 51.20158 | 9.90425 | 60° | 80km/h | 5221m | -3.4m/s | 0°C | 0% | 0hPa | 0V | 00:00:00 | 00:00:00 | 00:00:00 | |
| HSKMA3-T | 2026-08-31 14:54:27 | 51.20179 | 9.90480 | 59° | 80km/h | 5211m | -3.2m/s | -14.6°C | 0% | 0hPa | 4.7V | 00:00:00 | 00:00:00 | 00:00:00 | |
| DF8AY | 2026-08-31 14:54:25 | 51.20159 | 9.90425 | 60° | 80km/h | 5217m | -3.2m/s | -14.7°C | 0% | 0hPa | 4.7V | 00:00:00 | 00:00:00 | 00:00:00 | |
| DL3OBA | 2026-08-31 14:54:20 | 51.20106 | 9.90283 | 60° | 80km/h | 5234m | -3.2m/s | -14.8°C | 0% | 0hPa | 4.7V | 00:00:00 | 00:00:00 | 00:00:00 | |
| BIOWL1-15 | 2026-08-31 14:54:16 | 51.20064 | 9.90172 | 61° | 80km/h | 5247m | -3.1m/s | -14.9°C | 0% | 0hPa | 4.7V | 00:00:00 | 00:00:00 | 00:00:00 | |
| DF8AY | 2026-08-31 14:54:14 | 51.20044 | 9.90114 | 59° | 82km/h | 5253m | -3.2m/s | -15°C | 0% | 0hPa | 4.7V | 00:00:00 | 00:00:00 | 00:00:00 | |
| DF2AP-13 | 2026-08-31 14:54:10 | 51.20012 | 9.90030 | 60° | 80km/h | 5266m | -3.2m/s | 0°C | 0% | 0hPa | 4.7V | 00:00:00 | 00:00:00 | 00:00:00 | |
| DO2JMG | 2026-08-31 14:54:08 | 51.19991 | 9.89973 | 59° | 82km/h | 5269m | -3.3m/s | -15.3°C | 0% | 0hPa | 4.7V | 00:00:00 | 00:00:00 | 00:00:00 | |
| DB0NH | 2026-08-31 14:54:06 | 51.19969 | 9.89917 | 59° | 80km/h | 5279m | -3.2m/s | 0°C | 0% | 0hPa | 4.7V | 00:00:00 | 00:00:00 | 00:00:00 | |
| BIOWL1-15 | 2026-08-31 14:54:05 | 51.19959 | 9.89890 | 60° | 80km/h | 5279m | -3.3m/s | -15.2°C | 0% | 0hPa | 4.7V | 00:00:00 | 00:00:00 | 00:00:00 | |
| DF8AY | 2026-08-31 14:54:03 | 51.19927 | 9.89806 | 59° | 80km/h | 5289m | -3.2m/s | -15.3°C | 0% | 0hPa | 4.7V | 00:00:00 | 00:00:00 | 00:00:00 | |
| DL1NUX | 2026-08-31 14:53:59 | 51.19843 | 9.89581 | 59° | 82km/h | 5319m | -3.2m/s | 0°C | 0% | 0hPa | 0V | 00:00:00 | 00:00:00 | 00:00:00 | |
| HSKMA3-T | 2026-08-31 14:53:55 | 51.19843 | 9.89581 | 59° | 82km/h | 5315m | -3.1m/s | -15.6°C | 0% | 0hPa | 4.7V | 00:00:00 | 00:00:00 | 00:00:00 | |
| DF8AY | 2026-08-31 14:53:53 | 51.19822 | 9.89525 | 59° | 80km/h | 5322m | -3.3m/s | -15.7°C | 0% | 0hPa | 4.7V | 00:00:00 | 00:00:00 | 00:00:00 | |
| BIOWL7-15 | 2026-08-31 14:53:52 | 51.19822 | 9.89525 | 60° | 80km/h | 5322m | -3.3m/s | -15.7°C | 0% | 0hPa | 0V | 00:00:00 | 00:00:00 | 00:00:00 | |
| DL1NUX | 2026-08-31 14:53:49 | 51.19738 | 9.89300 | 59° | 80km/h | 5352m | -3.2m/s | 0°C | 0% | 0hPa | 0V | 00:00:00 | 00:00:00 | 00:00:00 | |
| THATR2-17 | 2026-08-31 14:53:46 | 51.19707 | 9.89216 | 59° | 78km/h | 5358m | 0m/s | 0°C | 0% | 0hPa | 4.6V | 00:00:00 | 00:00:00 | 00:00:00 | |
| BIOWL1-15 | 2026-08-31 14:53:43 | 51.19728 | 9.89272 | 59° | 80km/h | 5352m | -3.2m/s | -16°C | 0% | 0hPa | 4.6V | 00:00:00 | 00:00:00 | 00:00:00 | |
| DF8AY | 2026-08-31 14:53:42 | 51.19707 | 9.89216 | 60° | 80km/h | 5358m | -3.1m/s | -16°C | 0% | 0hPa | 4.6V | 00:00:00 | 00:00:00 | 00:00:00 | |
| DF2AP-13 | 2026-08-31 14:53:40 | 51.19697 | 9.89188 | 60° | 80km/h | 5365m | -3.1m/s | 0°C | 0% | 0hPa | 0V | 00:00:00 | 00:00:00 | 00:00:00 | |
| DL1NUX | 2026-08-31 14:53:39 | 51.19633 | 9.89021 | 59° | 80km/h | 5384m | -3.2m/s | 0°C | 0% | 0hPa | 0V | 00:00:00 | 00:00:00 | 00:00:00 | |
| DL3OBA | 2026-08-31 14:53:38 | 51.19676 | 9.89131 | 59° | 82km/h | 5368m | -3.3m/s | -16.0°C | 0% | 0hPa | 4.6V | 00:00:00 | 00:00:00 | 00:00:00 | |
| DB0NH | 2026-08-31 14:53:36 | 51.19654 | 9.89076 | 59° | 80km/h | 5378m | -3.1m/s | 0°C | 0% | 0hPa | 4.6V | 00:00:00 | 00:00:00 | 00:00:00 | |
| BIOWL1-15 | 2026-08-31 14:53:33 | 51.19613 | 9.88965 | 59° | 80km/h | 5387m | -3.1m/s | -16.2°C | 0% | 0hPa | 4.6V | 00:00:00 | 00:00:00 | 00:00:00 | |
| DF8AY | 2026-08-31 14:53:31 | 51.19593 | 9.88909 | 61° | 82km/h | 5394m | -3.1m/s | -16.3°C | 0% | 0hPa | 4.6V | 00:00:00 | 00:00:00 | 00:00:00 | |
| DL1NUX | 2026-08-31 14:53:29 | 51.19529 | 9.88742 | 58° | 78km/h | 5416m | -3.2m/s | 0°C | 0% | 0hPa | 0V | 00:00:00 | 00:00:00 | 00:00:00 | |
| HSKMA3-T | 2026-08-31 14:53:22 | 51.19509 | 9.88688 | 60° | 78km/h | 5419m | -3.2m/s | -16.6°C | 0% | 0hPa | 4.6V | 00:00:00 | 00:00:00 | 00:00:00 | |
| DF8AY | 2026-08-31 14:53:20 | 51.19478 | 9.88604 | 59° | 82km/h | 5429m | -3.2m/s | -16.7°C | 0% | 0hPa | 4.6V | 00:00:00 | 00:00:00 | 00:00:00 | |
| DL1NUX | 2026-08-31 14:53:19 | 51.19425 | 9.88465 | 58° | 80km/h | 5447m | -3.1m/s | 0°C | 0% | 0hPa | 0V | 00:00:00 | 00:00:00 | 00:00:00 | |
| DL3OBA | 2026-08-31 14:53:17 | 51.19457 | 9.88548 | 60° | 80km/h | 5435m | -3.2m/s | -16.8°C | 0% | 0hPa | 4.6V | 00:00:00 | 00:00:00 | 00:00:00 | |
| BIOWL1-15 | 2026-08-31 14:53:12 | 51.19395 | 9.88383 | 60° | 80km/h | 5453m | -3.1m/s | -17°C | 0% | 0hPa | 4.6V | 00:00:00 | 00:00:00 | 00:00:00 | |
| DF8AY | 2026-08-31 14:53:10 | 51.19374 | 9.88327 | 59° | 80km/h | 5460m | -3.1m/s | -17°C | 0% | 0hPa | 4.6V | 00:00:00 | 00:00:00 | 00:00:00 | |
| DL1NUX | 2026-08-31 14:53:09 | 51.19322 | 9.88190 | 57° | 78km/h | 5479m | -3.2m/s | 0°C | 0% | 0hPa | 0V | 00:00:00 | 00:00:00 | 00:00:00 | |
| WPPR-10 | 2026-08-31 14:53:08 | 51.19354 | 9.88272 | 59° | 78km/h | 5466m | -3.0m/s | -17.1°C | -1.0% | -1.0hPa | 4.6V | 00:00:00 | 00:00:00 | 00:00:00 | |
| SONCRA | 2026-08-31 14:53:07 | 51.19333 | 9.88217 | 57° | 78km/h | 5472m | -3.1m/s | -17.1°C | -1.0% | -1.0hPa | 4.6V | 00:00:00 | 00:00:00 | 00:00:00 | |
| DB0ND-19 | 2026-08-31 14:53:06 | 51.19333 | 9.88217 | 57° | 78km/h | 5472m | -3.1m/s | -16.6°C | -1.0% | -1.0hPa | 4.6V | 00:00:00 | 00:00:00 | 00:00:00 | |
| HSKMA3-T | 2026-08-31 14:53:01 | 51.19282 | 9.88080 | 59° | 80km/h | 5488m | -3.1m/s | -17.3°C | 0% | 0hPa | 4.6V | 00:00:00 | 00:00:00 | 00:00:00 | |
| DL1NUX | 2026-08-31 14:52:59 | 51.19219 | 9.87914 | 57° | 78km/h | 5513m | -3.1m/s | 0°C | 0% | 0hPa | 0V | 00:00:00 | 00:00:00 | 00:00:00 | |
| DF8AY | 2026-08-31 14:52:59 | 51.19261 | 9.88024 | 60° | 80km/h | 5495m | -3.1m/s | -17.3°C | 0% | 0hPa | 4.6V | 00:00:00 | 00:00:00 | 00:00:00 | |
| DL3OBA | 2026-08-31 14:52:57 | 51.19251 | 9.87996 | 61° | 80km/h | 5498m | -3.0m/s | -17.4°C | 0% | 0hPa | 5.4V | 00:00:00 | 00:00:00 | 00:00:00 | |
| BIOWL7-15 | 2026-08-31 14:52:55 | 51.19230 | 9.87941 | 59° | 80km/h | 5504m | -3.0m/s | -17.4°C | 0% | 0hPa | 5.4V | 00:00:00 | 00:00:00 | 00:00:00 | |
| DL1XH-west | 2026-08-31 14:52:50 | 51.19168 | 9.87777 | 60° | 78km/h | 5523m | -2.9m/s | -17.6°C | 0% | 0hPa | 5.4V | 00:00:00 | 00:00:00 | 00:00:00 | |
| DM0DOS-11 | 2026-08-31 14:52:49 | 51.19116 | 9.87636 | 58° | 80km/h | 5541m | -3m/s | 0°C | 0% | 0hPa | 0V | 00:00:00 | 00:00:00 | 00:00:00 | |
| DL1NUX | 2026-08-31 14:52:48 | 51.19105 | 9.87608 | 58° | 80km/h | 5544m | -3m/s | 0°C | 0% | 0hPa | 0V | 00:00:00 | 00:00:00 | 00:00:00 | |
| DF8AY | 2026-08-31 14:52:48 | 51.19148 | 9.87721 | 60° | 82km/h | 5529m | -3.2m/s | -17.6°C | 0% | 0hPa | 4.6V | 00:00:00 | 00:00:00 | 00:00:00 | |
| DF2AP-13 | 2026-08-31 14:52:40 | 51.19073 | 9.87527 | 60° | 82km/h | 5553m | -2.9m/s | 0°C | 0% | 0hPa | 4.6V | 00:00:00 | 00:00:00 | 00:00:00 | |
| BIOWL1-15 | 2026-08-31 14:52:39 | 51.19063 | 9.87500 | 61° | 78km/h | 5553m | -3m/s | -17.8°C | 0% | 0hPa | 4.6V | 00:00:00 | 00:00:00 | 00:00:00 | |
| DM0DOS-11 | 2026-08-31 14:52:39 | 51.19012 | 9.87356 | 59° | 84km/h | 5570m | -2.9m/s | 0°C | 0% | 0hPa | 0V | 00:00:00 | 00:00:00 | 00:00:00 | |
| DL1NUX | 2026-08-31 14:52:38 | 51.19001 | 9.87326 | 56° | 84km/h | 5573m | -3m/s | 0°C | 0% | 0hPa | 0V | 00:00:00 | 00:00:00 | 00:00:00 | |
| DO2JMG | 2026-08-31 14:52:37 | 51.19033 | 9.87414 | 60° | 82km/h | 5561m | -2.9m/s | -17.9°C | 0% | 0hPa | 4.6V | 00:00:00 | 00:00:00 | 00:00:00 | |
| DB0NH | 2026-08-31 14:52:36 | 51.19033 | 9.87414 | 61° | 82km/h | 5564m | -2.9m/s | 0°C | 0% | 0hPa | 0V | 00:00:00 | 00:00:00 | 00:00:00 | |
| DM0DOS-11 | 2026-08-31 14:52:29 | 51.18904 | 9.87077 | 58° | 82km/h | 5601m | -2.9m/s | 0°C | 0% | 0hPa | 0V | 00:00:00 | 00:00:00 | 00:00:00 | |
| DL1XH-west | 2026-08-31 14:52:29 | 51.18948 | 9.87191 | 61° | 82km/h | 5585m | -3.2m/s | -18.2°C | 0% | 0hPa | 4.6V | 00:00:00 | 00:00:00 | 00:00:00 | |
| DL1NUX | 2026-08-31 14:52:28 | 51.18894 | 9.87049 | 58° | 80km/h | 5604m | -2.9m/s | 0°C | 0% | 0hPa | 0V | 00:00:00 | 00:00:00 | 00:00:00 | |
| DO2JMG | 2026-08-31 14:52:27 | 51.18927 | 9.87133 | 59° | 84km/h | 5592m | -3m/s | 0°C | 0% | 0hPa | 4.6V | 00:00:00 | 00:00:00 | 00:00:00 | |
| AM1SDL-15 | 2026-08-31 14:52:23 | 51.18894 | 9.87049 | 59° | 82km/h | 5612m | -2.7m/s | 0°C | 0% | 0hPa | 0V | 00:00:00 | 00:00:00 | 00:00:00 | |
| DL1NUX | 2026-08-31 14:52:18 | 51.18783 | 9.86767 | 57° | 80km/h | 5631m | -2.8m/s | 0°C | 0% | 0hPa | 0V | 00:00:00 | 00:00:00 | 00:00:00 | |
| HSKMA3-T | 2026-08-31 14:52:18 | 51.18828 | 9.86880 | 59° | 82km/h | 5618m | -2.8m/s | -18.5°C | 0% | 0hPa | 4.6V | 00:00:00 | 00:00:00 | 00:00:00 | |
| DL1XH-west | 2026-08-31 14:52:16 | 51.18817 | 9.86851 | 58° | 84km/h | 5621m | -2.7m/s | -18.5°C | 0% | 0hPa | 4.6V | 00:00:00 | 00:00:00 | 00:00:00 | |
| DF8AY | 2026-08-31 14:52:16 | 51.18805 | 9.86823 | 57° | 84km/h | 5624m | -2.7m/s | -18.5°C | 0% | 0hPa | 4.6V | 00:00:00 | 00:00:00 | 00:00:00 | |
| DF2AP-13 | 2026-08-31 14:52:10 | 51.18750 | 9.86682 | 58° | 82km/h | 5640m | -2.6m/s | 0°C | 0% | 0hPa | 0V | 00:00:00 | 00:00:00 | 00:00:00 | |
| DM0DOS-11 | 2026-08-31 14:52:09 | 51.18682 | 9.86514 | 57° | 82km/h | 5656m | -2.6m/s | 0°C | 0% | 0hPa | 0V | 00:00:00 | 00:00:00 | 00:00:00 | |
| BIOWL1-15 | 2026-08-31 14:52:07 | 51.18705 | 9.86570 | 57° | 84km/h | 5648m | -2.8m/s | -18.7°C | 0% | 0hPa | 4.6V | 00:00:00 | 00:00:00 | 00:00:00 | |
| AM1SDL-15 | 2026-08-31 14:52:07 | 51.18716 | 9.86599 | 59° | 82km/h | 5648m | -2.7m/s | 0°C | 0% | 0hPa | 4.6V | 00:00:00 | 00:00:00 | 00:00:00 | |
| SO1NDE-10 | 2026-08-31 14:52:06 | 51.18705 | 9.86569 | 58° | 82km/h | 5651m | -2.7m/s | 0°C | 0% | 0hPa | 4.6V | 00:00:00 | 00:00:00 | 00:00:00 | |
| DF8AY | 2026-08-31 14:52:05 | 51.18682 | 9.86514 | 57° | 82km/h | 5654m | -2.8m/s | -18.8°C | 0% | 0hPa | 4.6V | 00:00:00 | 00:00:00 | 00:00:00 | |
| DB0ND-19 | 2026-08-31 14:52:04 | 51.18671 | 9.86486 | 58° | 80km/h | 5656m | -2.6m/s | -18.3°C | -1.0% | -1.0hPa | 4.6V | 00:00:00 | 00:00:00 | 00:00:00 | |
| DL1XH-west | 2026-08-31 14:52:01 | 51.18638 | 9.86401 | 57° | 84km/h | 5664m | -2.6m/s | -18.9°C | 0% | 0hPa | 4.6V | 00:00:00 | 00:00:00 | 00:00:00 | |
| BIOWL7-15 | 2026-08-31 14:51:59 | 51.18626 | 9.86373 | 58° | 82km/h | 5667m | -2.6m/s | -18.9°C | 0% | 0hPa | 0V | 00:00:00 | 00:00:00 | 00:00:00 | |
| DL1NUX | 2026-08-31 14:51:58 | 51.18558 | 9.86205 | 58° | 82km/h | 5685m | -2.5m/s | 0°C | 0% | 0hPa | 0V | 00:00:00 | 00:00:00 | 00:00:00 | |
| BIOWL1-15 | 2026-08-31 14:51:56 | 51.18581 | 9.86260 | 56° | 82km/h | 5678m | -2.6m/s | -19°C | 0% | 0hPa | 4.6V | 00:00:00 | 00:00:00 | 00:00:00 | |
| DL3OBA | 2026-08-31 14:51:55 | 51.18580 | 9.86260 | 57° | 82km/h | 5678m | -2.7m/s | -19.0°C | 0% | 0hPa | 4.6V | 00:00:00 | 00:00:00 | 00:00:00 | |
| DF8AY | 2026-08-31 14:51:54 | 51.18558 | 9.86205 | 58° | 82km/h | 5683m | -2.6m/s | -19°C | 0% | 0hPa | 4.6V | 00:00:00 | 00:00:00 | 00:00:00 | |
| DL1XH-west | 2026-08-31 14:51:50 | 51.18525 | 9.86120 | 58° | 82km/h | 5691m | -2.5m/s | -19.1°C | 0% | 0hPa | 4.6V | 00:00:00 | 00:00:00 | 00:00:00 | |
| DL1NUX | 2026-08-31 14:51:48 | 51.18446 | 9.85923 | 57° | 84km/h | 5711m | -2.5m/s | 0°C | 0% | 0hPa | 0V | 00:00:00 | 00:00:00 | 00:00:00 | |
| BIOWL1-15 | 2026-08-31 14:51:46 | 51.18468 | 9.85979 | 57° | 82km/h | 5703m | -2.4m/s | -19.2°C | 0% | 0hPa | 4.6V | 00:00:00 | 00:00:00 | 00:00:00 | |
| DF8AY | 2026-08-31 14:51:44 | 51.18446 | 9.85923 | 57° | 84km/h | 5708m | -2.4m/s | -19.3°C | 0% | 0hPa | 4.6V | 00:00:00 | 00:00:00 | 00:00:00 | |
| DF2AP-13 | 2026-08-31 14:51:40 | 51.18412 | 9.85839 | 58° | 82km/h | 5719m | -2.5m/s | 0°C | 0% | 0hPa | 0V | 00:00:00 | 00:00:00 | 00:00:00 | |
| DM0DOS-11 | 2026-08-31 14:51:39 | 51.18343 | 9.85671 | 57° | 82km/h | 5734m | -2.3m/s | 0°C | 0% | 0hPa | 0V | 00:00:00 | 00:00:00 | 00:00:00 | |
| DL1XH-west | 2026-08-31 14:51:39 | 51.18389 | 9.85783 | 57° | 84km/h | 5721m | -2.5m/s | -19.4°C | 0% | 0hPa | 4.6V | 00:00:00 | 00:00:00 | 00:00:00 | |
| DB0NH | 2026-08-31 14:51:36 | 51.18366 | 9.85726 | 56° | 82km/h | 5729m | -2.4m/s | 0°C | 0% | 0hPa | 4.6V | 00:00:00 | 00:00:00 | 00:00:00 | |
| HSKMA3-T | 2026-08-31 14:51:35 | 51.18343 | 9.85671 | 57° | 82km/h | 5731m | -2.4m/s | -19.5°C | 0% | 0hPa | 4.6V | 00:00:00 | 00:00:00 | 00:00:00 | |
| DF8AY | 2026-08-31 14:51:33 | 51.18320 | 9.85615 | 57° | 82km/h | 5736m | -2.3m/s | -19.5°C | 0% | 0hPa | 4.6V | 00:00:00 | 00:00:00 | 00:00:00 | |
| DL1NUX | 2026-08-31 14:51:28 | 51.18218 | 9.85365 | 55° | 84km/h | 5760m | -2.4m/s | 0°C | 0% | 0hPa | 0V | 00:00:00 | 00:00:00 | 00:00:00 | |
| DL1XH-west | 2026-08-31 14:51:28 | 51.18264 | 9.85476 | 56° | 82km/h | 5748m | -2.4m/s | -19.6°C | 0% | 0hPa | 4.6V | 00:00:00 | 00:00:00 | 00:00:00 | |
| AM1SDL-15 | 2026-08-31 14:51:27 | 51.18264 | 9.85476 | 57° | 82km/h | 5767m | -2.2m/s | 0°C | 0% | 0hPa | 4.6V | 00:00:00 | 00:00:00 | 00:00:00 | |
| HSKMA3-T | 2026-08-31 14:51:24 | 51.18218 | 9.85365 | 56° | 84km/h | 5757m | -2.4m/s | -19.6°C | 0% | 0hPa | 4.6V | 00:00:00 | 00:00:00 | 00:00:00 | |
| DF8AY | 2026-08-31 14:51:22 | 51.18195 | 9.85310 | 57° | 80km/h | 5762m | -2.4m/s | -19.7°C | 0% | 0hPa | 4.6V | 00:00:00 | 00:00:00 | 00:00:00 | |
| DL1NUX | 2026-08-31 14:51:18 | 51.18107 | 9.85089 | 57° | 80km/h | 5784m | -2.3m/s | 0°C | 0% | 0hPa | 0V | 00:00:00 | 00:00:00 | 00:00:00 | |
| DL1XH-west | 2026-08-31 14:51:18 | 51.18151 | 9.85200 | 58° | 80km/h | 5772m | -2.5m/s | -19.7°C | 0% | 0hPa | 4.6V | 00:00:00 | 00:00:00 | 00:00:00 | |
| DL3OBA | 2026-08-31 14:51:14 | 51.18118 | 9.85117 | 58° | 82km/h | 5779m | -2.3m/s | -19.8°C | 0% | 0hPa | 4.6V | 00:00:00 | 00:00:00 | 00:00:00 | |
| HSKMA3-T | 2026-08-31 14:51:13 | 51.18096 | 9.85062 | 57° | 80km/h | 5784m | -2.4m/s | -19.8°C | 0% | 0hPa | 4.6V | 00:00:00 | 00:00:00 | 00:00:00 | |
| AM1SDL-15 | 2026-08-31 14:51:12 | 51.18096 | 9.85062 | 58° | 80km/h | 5787m | -2.3m/s | 0°C | 0% | 0hPa | 4.6V | 00:00:00 | 00:00:00 | 00:00:00 | |
| DF8AY | 2026-08-31 14:51:11 | 51.18074 | 9.85006 | 58° | 82km/h | 5789m | -2.3m/s | -19.8°C | 0% | 0hPa | 4.6V | 00:00:00 | 00:00:00 | 00:00:00 | |
| DF2AP-13 | 2026-08-31 14:51:10 | 51.18074 | 9.85006 | 58° | 82km/h | 5791m | -2.3m/s | 0°C | 0% | 0hPa | 4.6V | 00:00:00 | 00:00:00 | 00:00:00 | |
| DL1XH-west | 2026-08-31 14:51:07 | 51.18030 | 9.84896 | 58° | 82km/h | 5798m | -2.3m/s | -19.9°C | 0% | 0hPa | 4.6V | 00:00:00 | 00:00:00 | 00:00:00 | |
| DB0NH | 2026-08-31 14:51:06 | 51.18030 | 9.84896 | 59° | 82km/h | 5801m | -2.3m/s | 0°C | 0% | 0hPa | 4.6V | 00:00:00 | 00:00:00 | 00:00:00 | |
| DO2JMG | 2026-08-31 14:51:04 | 51.18007 | 9.84840 | 57° | 80km/h | 5803m | -2.3m/s | 0°C | 0% | 0hPa | 4.6V | 00:00:00 | 00:00:00 | 00:00:00 | |
| HSKMA3-T | 2026-08-31 14:51:03 | 51.17985 | 9.84785 | 58° | 82km/h | 5807m | -2.2m/s | -19.9°C | 0% | 0hPa | 4.6V | 00:00:00 | 00:00:00 | 00:00:00 | |
| DF8AY | 2026-08-31 14:51:00 | 51.17952 | 9.84702 | 57° | 80km/h | 5814m | -2.3m/s | -20°C | 0% | 0hPa | 4.6V | 00:00:00 | 00:00:00 | 00:00:00 | |
| DL1NUX | 2026-08-31 14:50:58 | 51.17886 | 9.84535 | 58° | 82km/h | 5830m | -2.2m/s | 0°C | 0% | 0hPa | 0V | 00:00:00 | 00:00:00 | 00:00:00 | |
| DL1XH-west | 2026-08-31 14:50:56 | 51.17908 | 9.84591 | 57° | 80km/h | 5823m | -2.3m/s | -20°C | 0% | 0hPa | 4.6V | 00:00:00 | 00:00:00 | 00:00:00 | |
| BIOWL1-15 | 2026-08-31 14:50:51 | 51.17864 | 9.84480 | 57° | 82km/h | 5832m | -2.2m/s | -20°C | 0% | 0hPa | 4.6V | 00:00:00 | 00:00:00 | 00:00:00 | |
| DF8AY | 2026-08-31 14:50:50 | 51.17842 | 9.84425 | 58° | 80km/h | 5837m | -2.1m/s | -20.1°C | 0% | 0hPa | 4.6V | 00:00:00 | 00:00:00 | 00:00:00 | |
| DL1XH-west | 2026-08-31 14:50:45 | 51.17787 | 9.84286 | 58° | 82km/h | 5848m | -2.1m/s | -20.2°C | 0% | 0hPa | 4.6V | 00:00:00 | 00:00:00 | 00:00:00 | |
| HSKMA3-T | 2026-08-31 14:50:41 | 51.17743 | 9.84175 | 58° | 80km/h | 5857m | -2.2m/s | -20.3°C | 0% | 0hPa | 4.6V | 00:00:00 | 00:00:00 | 00:00:00 | |
| THATR2-17 | 2026-08-31 14:50:40 | 51.17532 | 9.83646 | 57° | 82km/h | 5899m | 0m/s | 0°C | 0% | 0hPa | 4.6V | 00:00:00 | 00:00:00 | 00:00:00 | |
| DF8AY | 2026-08-31 14:50:39 | 51.17721 | 9.84119 | 58° | 82km/h | 5861m | -2.1m/s | -20.3°C | 0% | 0hPa | 4.6V | 00:00:00 | 00:00:00 | 00:00:00 | |
| DB0NH | 2026-08-31 14:50:36 | 51.17699 | 9.84064 | 59° | 82km/h | 5868m | -2.2m/s | 0°C | 0% | 0hPa | 4.6V | 00:00:00 | 00:00:00 | 00:00:00 | |
| DL1XH-west | 2026-08-31 14:50:35 | 51.17677 | 9.84007 | 58° | 84km/h | 5870m | -2.1m/s | -20.4°C | 0% | 0hPa | 4.6V | 00:00:00 | 00:00:00 | 00:00:00 | |
| DL3OBA | 2026-08-31 14:50:33 | 51.17665 | 9.83979 | 58° | 82km/h | 5872m | -2.3m/s | -20.5°C | 0% | 0hPa | 4.5V | 00:00:00 | 00:00:00 | 00:00:00 | |
| BIOWL1-15 | 2026-08-31 14:50:30 | 51.17621 | 9.83868 | 57° | 82km/h | 5881m | -2.1m/s | -20.5°C | 0% | 0hPa | 4.5V | 00:00:00 | 00:00:00 | 00:00:00 | |
| AM1SDL-15 | 2026-08-31 14:50:29 | 51.17621 | 9.83868 | 57° | 82km/h | 5883m | -2.2m/s | 0°C | 0% | 0hPa | 0V | 00:00:00 | 00:00:00 | 00:00:00 | |
| DL1NUX | 2026-08-31 14:50:28 | 51.17554 | 9.83702 | 57° | 82km/h | 5897m | -2.1m/s | 0°C | 0% | 0hPa | 0V | 00:00:00 | 00:00:00 | 00:00:00 | |
| DF8AY | 2026-08-31 14:50:28 | 51.17599 | 9.83813 | 58° | 80km/h | 5885m | -2.2m/s | -20.6°C | 0% | 0hPa | 4.5V | 00:00:00 | 00:00:00 | 00:00:00 | |
| DL1XH-west | 2026-08-31 14:50:23 | 51.17555 | 9.83702 | 58° | 82km/h | 5895m | -2.2m/s | -20.6°C | 0% | 0hPa | 4.6V | 00:00:00 | 00:00:00 | 00:00:00 | |
| BIOWL1-15 | 2026-08-31 14:50:19 | 51.17510 | 9.83590 | 57° | 80km/h | 5903m | -2.1m/s | -20.7°C | 0% | 0hPa | 4.6V | 00:00:00 | 00:00:00 | 00:00:00 | |
| DL1NUX | 2026-08-31 14:50:18 | 51.17443 | 9.83425 | 58° | 82km/h | 5918m | -2m/s | 0°C | 0% | 0hPa | 0V | 00:00:00 | 00:00:00 | 00:00:00 | |
| DF8AY | 2026-08-31 14:50:17 | 51.17476 | 9.83507 | 57° | 82km/h | 5909m | -2.1m/s | -20.8°C | 0% | 0hPa | 4.6V | 00:00:00 | 00:00:00 | 00:00:00 | |
| DL3OBA | 2026-08-31 14:50:13 | 51.17443 | 9.83425 | 60° | 82km/h | 5916m | -2.0m/s | -20.9°C | 0% | 0hPa | 4.6V | 00:00:00 | 00:00:00 | 00:00:00 | |
| DL1XH-west | 2026-08-31 14:50:12 | 51.17432 | 9.83396 | 58° | 84km/h | 5918m | -2m/s | -20.9°C | 0% | 0hPa | 4.6V | 00:00:00 | 00:00:00 | 00:00:00 | |
| DO2JMG | 2026-08-31 14:50:11 | 51.17410 | 9.83340 | 57° | 82km/h | 5922m | -2m/s | -20.9°C | 0% | 0hPa | 4.6V | 00:00:00 | 00:00:00 | 00:00:00 | |
| DF2AP-13 | 2026-08-31 14:50:10 | 51.17410 | 9.83340 | 58° | 82km/h | 5924m | -2.0m/s | 0°C | 0% | 0hPa | 4.6V | 00:00:00 | 00:00:00 | 00:00:00 | |
| HSKMA3-T | 2026-08-31 14:50:09 | 51.17388 | 9.83284 | 57° | 82km/h | 5926m | -1.9m/s | -20.9°C | 0% | 0hPa | 4.6V | 00:00:00 | 00:00:00 | 00:00:00 | |
| DL1NUX | 2026-08-31 14:50:08 | 51.17332 | 9.83146 | 57° | 82km/h | 5938m | -2.1m/s | 0°C | 0% | 0hPa | 0V | 00:00:00 | 00:00:00 | 00:00:00 | |
| DF8AY | 2026-08-31 14:50:07 | 51.17365 | 9.83228 | 56° | 80km/h | 5930m | -2m/s | -20.9°C | 0% | 0hPa | 4.6V | 00:00:00 | 00:00:00 | 00:00:00 | |
| DB0NH | 2026-08-31 14:50:06 | 51.17365 | 9.83228 | 57° | 82km/h | 5932m | -2.0m/s | 0°C | 0% | 0hPa | 4.6V | 00:00:00 | 00:00:00 | 00:00:00 | |
| AM1SDL-15 | 2026-08-31 14:50:05 | 51.17354 | 9.83201 | 58° | 80km/h | 5934m | -2.0m/s | 0°C | 0% | 0hPa | 4.6V | 00:00:00 | 00:00:00 | 00:00:00 | |
| DL1XH-west | 2026-08-31 14:50:02 | 51.17310 | 9.83091 | 57° | 80km/h | 5941m | -2.1m/s | -21°C | 0% | 0hPa | 4.6V | 00:00:00 | 00:00:00 | 00:00:00 | |
| DL1NUX | 2026-08-31 14:49:58 | 51.17221 | 9.82867 | 57° | 82km/h | 5959m | -2m/s | 0°C | 0% | 0hPa | 0V | 00:00:00 | 00:00:00 | 00:00:00 | |
| BIOWL1-15 | 2026-08-31 14:49:57 | 51.17266 | 9.82979 | 57° | 82km/h | 5949m | -2.1m/s | -21.1°C | 0% | 0hPa | 4.5V | 00:00:00 | 00:00:00 | 00:00:00 | |
| DO2JMG | 2026-08-31 14:49:55 | 51.17243 | 9.82923 | 58° | 82km/h | 5953m | -2m/s | -21.2°C | 0% | 0hPa | 4.5V | 00:00:00 | 00:00:00 | 00:00:00 | |
| DL3OBA | 2026-08-31 14:49:52 | 51.17210 | 9.82839 | 58° | 82km/h | 5959m | -2.0m/s | -21.2°C | 0% | 0hPa | 4.5V | 00:00:00 | 00:00:00 | 00:00:00 | |
| DL1XH-west | 2026-08-31 14:49:51 | 51.17188 | 9.82784 | 58° | 82km/h | 5963m | -2.1m/s | -21.3°C | 0% | 0hPa | 4.5V | 00:00:00 | 00:00:00 | 00:00:00 | |
| HSKMA3-T | 2026-08-31 14:49:47 | 51.17143 | 9.82672 | 59° | 82km/h | 5971m | -2m/s | -21.4°C | 0% | 0hPa | 4.5V | 00:00:00 | 00:00:00 | 00:00:00 | |
| DO2JMG | 2026-08-31 14:49:44 | 51.17121 | 9.82615 | 58° | 82km/h | 5976m | -2.1m/s | -21.4°C | 0% | 0hPa | 4.5V | 00:00:00 | 00:00:00 | 00:00:00 | |
| DL1XH-west | 2026-08-31 14:49:40 | 51.17077 | 9.82500 | 58° | 84km/h | 5984m | -2m/s | -21.4°C | 0% | 0hPa | 4.5V | 00:00:00 | 00:00:00 | 00:00:00 | |
| DF2AP-13 | 2026-08-31 14:49:40 | 51.17077 | 9.82500 | 58° | 82km/h | 5986m | -1.9m/s | 0°C | 0% | 0hPa | 0V | 00:00:00 | 00:00:00 | 00:00:00 | |
| DL1NUX | 2026-08-31 14:49:38 | 51.16999 | 9.82302 | 58° | 82km/h | 6001m | -1.9m/s | 0°C | 0% | 0hPa | 0V | 00:00:00 | 00:00:00 | 00:00:00 | |
| BIOWL1-15 | 2026-08-31 14:49:36 | 51.17022 | 9.82358 | 58° | 84km/h | 5995m | -2.1m/s | -21.5°C | 0% | 0hPa | 4.5V | 00:00:00 | 00:00:00 | 00:00:00 | |
| DO2JMG | 2026-08-31 14:49:34 | 51.16999 | 9.82302 | 58° | 82km/h | 5999m | -2m/s | -21.5°C | 0% | 0hPa | 4.5V | 00:00:00 | 00:00:00 | 00:00:00 | |
| DL3OBA | 2026-08-31 14:49:32 | 51.16988 | 9.82273 | 59° | 84km/h | 6001m | -2.0m/s | -21.5°C | 0% | 0hPa | 4.5V | 00:00:00 | 00:00:00 | 00:00:00 | |
| DL1XH-west | 2026-08-31 14:49:30 | 51.16955 | 9.82189 | 59° | 82km/h | 6007m | -2.2m/s | -21.5°C | 0% | 0hPa | 4.5V | 00:00:00 | 00:00:00 | 00:00:00 | |
| DL1NUX | 2026-08-31 14:49:28 | 51.16888 | 9.82019 | 57° | 84km/h | 6021m | -2.1m/s | 0°C | 0% | 0hPa | 0V | 00:00:00 | 00:00:00 | 00:00:00 | |
| HSKMA3-T | 2026-08-31 14:49:26 | 51.16910 | 9.82075 | 58° | 82km/h | 6015m | -2m/s | -21.6°C | 0% | 0hPa | 4.5V | 00:00:00 | 00:00:00 | 00:00:00 | |
| DF8AY | 2026-08-31 14:49:24 | 51.16888 | 9.82019 | 58° | 84km/h | 6019m | -2.1m/s | -21.6°C | 0% | 0hPa | 4.5V | 00:00:00 | 00:00:00 | 00:00:00 | |
| DL1XH-west | 2026-08-31 14:49:19 | 51.16832 | 9.81879 | 58° | 82km/h | 6029m | -2m/s | -21.7°C | 0% | 0hPa | 4.5V | 00:00:00 | 00:00:00 | 00:00:00 | |
| BIOWL1-15 | 2026-08-31 14:49:15 | 51.16789 | 9.81767 | 58° | 82km/h | 6038m | -2.1m/s | -21.8°C | 0% | 0hPa | 4.5V | 00:00:00 | 00:00:00 | 00:00:00 | |
| DF8AY | 2026-08-31 14:49:13 | 51.16767 | 9.81711 | 58° | 80km/h | 6042m | -2.1m/s | -21.8°C | 0% | 0hPa | 4.5V | 00:00:00 | 00:00:00 | 00:00:00 | |
| DL3OBA | 2026-08-31 14:49:12 | 51.16756 | 9.81684 | 60° | 82km/h | 6044m | -2.1m/s | -21.8°C | 0% | 0hPa | 4.5V | 00:00:00 | 00:00:00 | 00:00:00 | |
| DO2JMG | 2026-08-31 14:49:11 | 51.16745 | 9.81655 | 58° | 82km/h | 6046m | -2.1m/s | -21.8°C | 0% | 0hPa | 4.5V | 00:00:00 | 00:00:00 | 00:00:00 | |
| DF2AP-13 | 2026-08-31 14:49:10 | 51.16745 | 9.81655 | 58° | 80km/h | 6048m | -2.1m/s | 0°C | 0% | 0hPa | 0V | 00:00:00 | 00:00:00 | 00:00:00 | |
| DL1NUX | 2026-08-31 14:49:08 | 51.16669 | 9.81462 | 58° | 80km/h | 6063m | -2.2m/s | 0°C | 0% | 0hPa | 0V | 00:00:00 | 00:00:00 | 00:00:00 | |
| DL1XH-west | 2026-08-31 14:49:08 | 51.16712 | 9.81573 | 58° | 82km/h | 6052m | -2.2m/s | -21.9°C | 0% | 0hPa | 4.5V | 00:00:00 | 00:00:00 | 00:00:00 | |
| DB0NH | 2026-08-31 14:49:06 | 51.16701 | 9.81545 | 58° | 80km/h | 6056m | -2.0m/s | 0°C | 0% | 0hPa | 4.5V | 00:00:00 | 00:00:00 | 00:00:00 | |
| BIOWL1-15 | 2026-08-31 14:49:04 | 51.16669 | 9.81462 | 59° | 80km/h | 6061m | -2.3m/s | -22°C | 0% | 0hPa | 4.5V | 00:00:00 | 00:00:00 | 00:00:00 | |
| DF8AY | 2026-08-31 14:49:02 | 51.16647 | 9.81406 | 57° | 82km/h | 6066m | -2.3m/s | -22°C | 0% | 0hPa | 4.5V | 00:00:00 | 00:00:00 | 00:00:00 | |
| DO2JMG | 2026-08-31 14:49:00 | 51.16636 | 9.81379 | 57° | 80km/h | 6068m | -2.2m/s | -22.1°C | 0% | 0hPa | 4.5V | 00:00:00 | 00:00:00 | 00:00:00 | |
| DL1NUX | 2026-08-31 14:48:58 | 51.16560 | 9.81187 | 56° | 80km/h | 6087m | -2.3m/s | 0°C | 0% | 0hPa | 0V | 00:00:00 | 00:00:00 | 00:00:00 | |
| DL1XH-west | 2026-08-31 14:48:57 | 51.16603 | 9.81296 | 57° | 80km/h | 6075m | -2.3m/s | -22.1°C | 0% | 0hPa | 4.5V | 00:00:00 | 00:00:00 | 00:00:00 | |
| HSKMA3-T | 2026-08-31 14:48:53 | 51.16549 | 9.81160 | 57° | 80km/h | 6087m | -2.3m/s | -22.2°C | 0% | 0hPa | 4.5V | 00:00:00 | 00:00:00 | 00:00:00 | |
| DF8AY | 2026-08-31 14:48:51 | 51.16527 | 9.81106 | 58° | 80km/h | 6091m | -2.2m/s | -22.2°C | 0% | 0hPa | 4.5V | 00:00:00 | 00:00:00 | 00:00:00 | |
| DO2JMG | 2026-08-31 14:48:48 | 51.16505 | 9.81052 | 57° | 78km/h | 6095m | -2.2m/s | -22.3°C | 0% | 0hPa | 4.5V | 00:00:00 | 00:00:00 | 00:00:00 | |
| BIOWL7-15 | 2026-08-31 14:48:46 | 51.16484 | 9.80998 | 59° | 80km/h | 6100m | -2.3m/s | -22.3°C | 0% | 0hPa | 4.5V | 00:00:00 | 00:00:00 | 00:00:00 | |
| DL1XH-west | 2026-08-31 14:48:45 | 51.16462 | 9.80944 | 57° | 78km/h | 6105m | -2.2m/s | -22.4°C | 0% | 0hPa | 4.5V | 00:00:00 | 00:00:00 | 00:00:00 | |
| BIOWL1-15 | 2026-08-31 14:48:42 | 51.16440 | 9.80891 | 58° | 80km/h | 6109m | -2.4m/s | -22.4°C | 0% | 0hPa | 4.5V | 00:00:00 | 00:00:00 | 00:00:00 | |
| DF8AY | 2026-08-31 14:48:40 | 51.16408 | 9.80811 | 57° | 78km/h | 6116m | -2.2m/s | -22.5°C | 0% | 0hPa | 4.5V | 00:00:00 | 00:00:00 | 00:00:00 | |
| NBG1-10 | 2026-08-31 14:48:40 | 51.16419 | 9.80837 | 58° | 78km/h | 6119m | -2.2m/s | 0°C | 0% | 0hPa | 0V | 00:00:00 | 00:00:00 | 00:00:00 | |
| DL1NUX | 2026-08-31 14:48:38 | 51.16343 | 9.80650 | 56° | 80km/h | 6132m | -2.4m/s | 0°C | 0% | 0hPa | 0V | 00:00:00 | 00:00:00 | 00:00:00 | |
| SO1NDE-10 | 2026-08-31 14:48:36 | 51.16375 | 9.80730 | 58° | 78km/h | 6126m | -2.2m/s | 0°C | 0% | 0hPa | 4.5V | 00:00:00 | 00:00:00 | 00:00:00 | |
| DL1XH-west | 2026-08-31 14:48:33 | 51.16343 | 9.80650 | 57° | 80km/h | 6130m | -2.2m/s | -22.6°C | 0% | 0hPa | 4.5V | 00:00:00 | 00:00:00 | 00:00:00 | |
| HSKMA3-T | 2026-08-31 14:48:32 | 51.16321 | 9.80596 | 58° | 78km/h | 6135m | -2.3m/s | -22.6°C | 0% | 0hPa | 4.5V | 00:00:00 | 00:00:00 | 00:00:00 | |
| DF8AY | 2026-08-31 14:48:30 | 51.16300 | 9.80542 | 57° | 78km/h | 6139m | -2.1m/s | -22.7°C | 0% | 0hPa | 4.5V | 00:00:00 | 00:00:00 | 00:00:00 | |
| DL1NUX | 2026-08-31 14:48:28 | 51.16235 | 9.80380 | 57° | 80km/h | 6155m | -2.2m/s | 0°C | 0% | 0hPa | 0V | 00:00:00 | 00:00:00 | 00:00:00 | |
| DL1XH-west | 2026-08-31 14:48:23 | 51.16225 | 9.80353 | 57° | 80km/h | 6155m | -2.2m/s | -22.7°C | 0% | 0hPa | 4.5V | 00:00:00 | 00:00:00 | 00:00:00 | |
| HSKMA3-T | 2026-08-31 14:48:21 | 51.16203 | 9.80299 | 57° | 78km/h | 6159m | -2.3m/s | -22.8°C | 0% | 0hPa | 4.5V | 00:00:00 | 00:00:00 | 00:00:00 | |
| DO2JMG | 2026-08-31 14:48:18 | 51.16181 | 9.80245 | 58° | 78km/h | 6164m | -2.4m/s | -22.8°C | 0% | 0hPa | 4.5V | 00:00:00 | 00:00:00 | 00:00:00 | |
| DL1NUX | 2026-08-31 14:48:18 | 51.16128 | 9.80110 | 56° | 80km/h | 6178m | -2.3m/s | 0°C | 0% | 0hPa | 0V | 00:00:00 | 00:00:00 | 00:00:00 | |
| DM0DOS-11 | 2026-08-31 14:48:17 | 51.16117 | 9.80084 | 57° | 78km/h | 6180m | -2.2m/s | 0°C | 0% | 0hPa | 0V | 00:00:00 | 00:00:00 | 00:00:00 | |
| DL1XH-west | 2026-08-31 14:48:12 | 51.16106 | 9.80057 | 58° | 80km/h | 6180m | -2.2m/s | -22.9°C | 0% | 0hPa | 4.5V | 00:00:00 | 00:00:00 | 00:00:00 | |
| HSKMA3-T | 2026-08-31 14:48:10 | 51.16084 | 9.80002 | 57° | 80km/h | 6185m | -2.2m/s | -23°C | 0% | 0hPa | 4.5V | 00:00:00 | 00:00:00 | 00:00:00 | |
| DL3OBA | 2026-08-31 14:48:09 | 51.16084 | 9.80002 | 58° | 80km/h | 6185m | -2.2m/s | -23.0°C | 0% | 0hPa | 4.5V | 00:00:00 | 00:00:00 | 00:00:00 | |
| DO2JMG | 2026-08-31 14:48:08 | 51.16073 | 9.79975 | 57° | 78km/h | 6187m | -2.2m/s | -23°C | 0% | 0hPa | 4.5V | 00:00:00 | 00:00:00 | 00:00:00 | |
| DL1NUX | 2026-08-31 14:48:08 | 51.16020 | 9.79840 | 58° | 78km/h | 6201m | -2.2m/s | 0°C | 0% | 0hPa | 0V | 00:00:00 | 00:00:00 | 00:00:00 | |
| DF8AY | 2026-08-31 14:48:08 | 51.16063 | 9.79948 | 58° | 80km/h | 6189m | -2.3m/s | -23°C | 0% | 0hPa | 4.5V | 00:00:00 | 00:00:00 | 00:00:00 | |
| DM0DOS-11 | 2026-08-31 14:48:07 | 51.16010 | 9.79813 | 58° | 80km/h | 6203m | -2.2m/s | 0°C | 0% | 0hPa | 0V | 00:00:00 | 00:00:00 | 00:00:00 | |
| SO1NDE-10 | 2026-08-31 14:48:06 | 51.16052 | 9.79921 | 58° | 80km/h | 6194m | -2.2m/s | 0°C | 0% | 0hPa | 4.5V | 00:00:00 | 00:00:00 | 00:00:00 | |
| DL1XH-west | 2026-08-31 14:48:01 | 51.15999 | 9.79785 | 58° | 80km/h | 6203m | -2.2m/s | -23.2°C | 0% | 0hPa | 4.5V | 00:00:00 | 00:00:00 | 00:00:00 | |
| BIOWL1-15 | 2026-08-31 14:47:59 | 51.15977 | 9.79730 | 58° | 80km/h | 6208m | -2.3m/s | -23.2°C | 0% | 0hPa | 4.5V | 00:00:00 | 00:00:00 | 00:00:00 | |
| DM0DOS-11 | 2026-08-31 14:47:57 | 51.15901 | 9.79541 | 58° | 78km/h | 6226m | -2.3m/s | 0°C | 0% | 0hPa | 0V | 00:00:00 | 00:00:00 | 00:00:00 | |
| DO2JMG | 2026-08-31 14:47:57 | 51.15944 | 9.79648 | 57° | 78km/h | 6215m | -2.4m/s | -23.3°C | 0% | 0hPa | 4.5V | 00:00:00 | 00:00:00 | 00:00:00 | |
| DL1XH-west | 2026-08-31 14:47:51 | 51.15880 | 9.79487 | 59° | 80km/h | 6229m | -2.2m/s | -23.3°C | 0% | 0hPa | 4.5V | 00:00:00 | 00:00:00 | 00:00:00 | |
| BIOWL1-15 | 2026-08-31 14:47:49 | 51.15858 | 9.79432 | 57° | 80km/h | 6233m | -2.2m/s | -23.4°C | 0% | 0hPa | 4.5V | 00:00:00 | 00:00:00 | 00:00:00 | |
| DM0DOS-11 | 2026-08-31 14:47:47 | 51.15792 | 9.79272 | 57° | 78km/h | 6249m | -2.3m/s | 0°C | 0% | 0hPa | 0V | 00:00:00 | 00:00:00 | 00:00:00 | |
| DF8AY | 2026-08-31 14:47:47 | 51.15836 | 9.79377 | 57° | 80km/h | 6238m | -2.2m/s | -23.4°C | 0% | 0hPa | 4.5V | 00:00:00 | 00:00:00 | 00:00:00 | |
| DF2AP-13 | 2026-08-31 14:47:40 | 51.15771 | 9.79218 | 60° | 80km/h | 6253m | -2.2m/s | 0°C | 0% | 0hPa | 4.5V | 00:00:00 | 00:00:00 | 00:00:00 | |
| DL1XH-west | 2026-08-31 14:47:39 | 51.15761 | 9.79191 | 59° | 80km/h | 6253m | -2.3m/s | -23.6°C | 0% | 0hPa | 4.5V | 00:00:00 | 00:00:00 | 00:00:00 | |
| BIOWL1-15 | 2026-08-31 14:47:38 | 51.15739 | 9.79136 | 57° | 80km/h | 6258m | -2.2m/s | -23.6°C | 0% | 0hPa | 4.5V | 00:00:00 | 00:00:00 | 00:00:00 | |
| DM0DOS-11 | 2026-08-31 14:47:37 | 51.15683 | 9.79002 | 56° | 77km/h | 6272m | -2.1m/s | 0°C | 0% | 0hPa | 0V | 00:00:00 | 00:00:00 | 00:00:00 | |
| DF8AY | 2026-08-31 14:47:36 | 51.15717 | 9.79081 | 56° | 80km/h | 6262m | -2.3m/s | -23.6°C | 0% | 0hPa | 4.5V | 00:00:00 | 00:00:00 | 00:00:00 | |
| DO2KSM | 2026-08-31 14:47:31 | 51.15673 | 9.78976 | 59° | 77km/h | 6272m | -2.1m/s | -23.6°C | 0% | 0hPa | 4.5V | 00:00:00 | 00:00:00 | 00:00:00 | |
| DL1XH-west | 2026-08-31 14:47:29 | 51.15642 | 9.78895 | 60° | 78km/h | 6279m | -2.3m/s | -23.6°C | 0% | 0hPa | 4.5V | 00:00:00 | 00:00:00 | 00:00:00 | |
| DL3OBA | 2026-08-31 14:47:28 | 51.15642 | 9.78895 | 61° | 78km/h | 6279m | -2.3m/s | -23.6°C | 0% | 0hPa | 0V | 00:00:00 | 00:00:00 | 00:00:00 | |
| DM0DOS-11 | 2026-08-31 14:47:27 | 51.15574 | 9.78732 | 53° | 78km/h | 6295m | -2.4m/s | 0°C | 0% | 0hPa | 0V | 00:00:00 | 00:00:00 | 00:00:00 | |
| BIOWL1-15 | 2026-08-31 14:47:27 | 51.15621 | 9.78839 | 58° | 82km/h | 6284m | -2.3m/s | -23.7°C | 0% | 0hPa | 4.5V | 00:00:00 | 00:00:00 | 00:00:00 | |
| DF8AY | 2026-08-31 14:47:25 | 51.15598 | 9.78784 | 55° | 82km/h | 6288m | -2.2m/s | -23.7°C | 0% | 0hPa | 4.5V | 00:00:00 | 00:00:00 | 00:00:00 | |
| DL1XH-west | 2026-08-31 14:47:18 | 51.15531 | 9.78630 | 60° | 77km/h | 6302m | -2.1m/s | -23.8°C | 0% | 0hPa | 4.5V | 00:00:00 | 00:00:00 | 00:00:00 | |
| HSKMA3-T | 2026-08-31 14:47:16 | 51.15501 | 9.78545 | 59° | 86km/h | 6309m | -2.3m/s | -23.9°C | 0% | 0hPa | 4.5V | 00:00:00 | 00:00:00 | 00:00:00 | |
| DF8AY | 2026-08-31 14:47:14 | 51.15476 | 9.78486 | 54° | 86km/h | 6313m | -2.2m/s | -24°C | 0% | 0hPa | 4.5V | 00:00:00 | 00:00:00 | 00:00:00 | |
| DF2AP-13 | 2026-08-31 14:47:10 | 51.15438 | 9.78409 | 54° | 80km/h | 6323m | -2.3m/s | 0°C | 0% | 0hPa | 4.5V | 00:00:00 | 00:00:00 | 00:00:00 | |
| BIOWL7-15 | 2026-08-31 14:47:09 | 51.15427 | 9.78385 | 55° | 71km/h | 6323m | -2.3m/s | -24.0°C | 0% | 0hPa | 4.5V | 00:00:00 | 00:00:00 | 00:00:00 | |
| DL3OBA | 2026-08-31 14:47:08 | 51.15417 | 9.78361 | 60° | 71km/h | 6325m | -2.5m/s | -24.1°C | 0% | 0hPa | 4.5V | 00:00:00 | 00:00:00 | 00:00:00 | |
| DL1XH-west | 2026-08-31 14:47:07 | 51.15408 | 9.78336 | 63° | 73km/h | 6327m | -2.4m/s | -24.1°C | 0% | 0hPa | 4.5V | 00:00:00 | 00:00:00 | 00:00:00 | |
| DL1NUX | 2026-08-31 14:47:06 | 51.15340 | 9.78157 | 48° | 88km/h | 6345m | -2.5m/s | 0°C | 0% | 0hPa | 0V | 00:00:00 | 00:00:00 | 00:00:00 | |
| BIOWL1-15 | 2026-08-31 14:47:05 | 51.15389 | 9.78279 | 63° | 86km/h | 6332m | -2.6m/s | -24.2°C | 0% | 0hPa | 4.5V | 00:00:00 | 00:00:00 | 00:00:00 | |
| DF8AY | 2026-08-31 14:47:04 | 51.15367 | 9.78217 | 57° | 91km/h | 6337m | -2.5m/s | -24.3°C | 0% | 0hPa | 4.5V | 00:00:00 | 00:00:00 | 00:00:00 | |
| DB0NH | 2026-08-31 14:47:01 | 51.15340 | 9.78157 | 49° | 80km/h | 6345m | -2.5m/s | 0°C | 0% | 0hPa | 0V | 00:00:00 | 00:00:00 | 00:00:00 | |
| DM0DOS-11 | 2026-08-31 14:46:57 | 51.15242 | 9.77921 | 58° | 91km/h | 6368m | -2.7m/s | 0°C | 0% | 0hPa | 0V | 00:00:00 | 00:00:00 | 00:00:00 | |
| DL1XH-west | 2026-08-31 14:46:56 | 51.15281 | 9.78039 | 61° | 73km/h | 6355m | -2.4m/s | -24.3°C | 0% | 0hPa | 4.5V | 00:00:00 | 00:00:00 | 00:00:00 | |
| BIOWL1-15 | 2026-08-31 14:46:54 | 51.15263 | 9.77983 | 63° | 84km/h | 6360m | -2.6m/s | -24.4°C | 0% | 0hPa | 4.5V | 00:00:00 | 00:00:00 | 00:00:00 | |
| DF8AY | 2026-08-31 14:46:53 | 51.15242 | 9.77921 | 59° | 91km/h | 6366m | -2.8m/s | -24.5°C | 0% | 0hPa | 4.5V | 00:00:00 | 00:00:00 | 00:00:00 | |
| SO1NDE-10 | 2026-08-31 14:46:51 | 51.15229 | 9.77890 | 56° | 82km/h | 6382m | -2.5m/s | 0°C | 0% | 0hPa | 4.5V | 00:00:00 | 00:00:00 | 00:00:00 | |
| DL3OBA | 2026-08-31 14:46:47 | 51.15174 | 9.77783 | 51° | 75km/h | 6379m | -2.5m/s | -24.5°C | 0% | 0hPa | 4.5V | 00:00:00 | 00:00:00 | 00:00:00 | |
| DL1XH-west | 2026-08-31 14:46:46 | 51.15152 | 9.77737 | 57° | 71km/h | 6384m | -2.5m/s | -24.6°C | 0% | 0hPa | 4.5V | 00:00:00 | 00:00:00 | 00:00:00 | |
| NBG1-10 | 2026-08-31 14:46:45 | 51.15152 | 9.77737 | 58° | 82km/h | 6387m | -2.6m/s | 0°C | 0% | 0hPa | 0V | 00:00:00 | 00:00:00 | 00:00:00 | |
| DL1NUX | 2026-08-31 14:46:44 | 51.15092 | 9.77563 | 55° | 93km/h | 6403m | -2.5m/s | 0°C | 0% | 0hPa | 0V | 00:00:00 | 00:00:00 | 00:00:00 | |
| HSKMA3-T | 2026-08-31 14:46:44 | 51.15134 | 9.77686 | 64° | 77km/h | 6390m | -2.6m/s | -24.7°C | 0% | 0hPa | 4.5V | 00:00:00 | 00:00:00 | 00:00:00 | |
| DF8AY | 2026-08-31 14:46:42 | 51.15115 | 9.77626 | 62° | 88km/h | 6395m | -2.6m/s | -24.7°C | 0% | 0hPa | 4.5V | 00:00:00 | 00:00:00 | 00:00:00 | |
| DF2AP-13 | 2026-08-31 14:46:40 | 51.15104 | 9.77593 | 56° | 84km/h | 6400m | -2.5m/s | 0°C | 0% | 0hPa | 0V | 00:00:00 | 00:00:00 | 00:00:00 | |
| DO2KSM | 2026-08-31 14:46:38 | 51.15078 | 9.77534 | 53° | 91km/h | 6403m | -2.5m/s | -24.8°C | 0% | 0hPa | 0V | 00:00:00 | 00:00:00 | 00:00:00 | |
| DM0DOS-11 | 2026-08-31 14:46:37 | 51.15004 | 9.77383 | 61° | 73km/h | 6422m | -2.5m/s | 0°C | 0% | 0hPa | 0V | 00:00:00 | 00:00:00 | 00:00:00 | |
| DL1XH-west | 2026-08-31 14:46:35 | 51.15036 | 9.77456 | 49° | 77km/h | 6411m | -2.5m/s | -24.9°C | 0% | 0hPa | 4.5V | 00:00:00 | 00:00:00 | 00:00:00 | |
| BIOWL1-15 | 2026-08-31 14:46:33 | 51.15004 | 9.77383 | 62° | 75km/h | 6419m | -2.4m/s | -24.9°C | 0% | 0hPa | 4.5V | 00:00:00 | 00:00:00 | 00:00:00 | |
| DB0UT-7 | 2026-08-31 14:46:32 | 51.15004 | 9.77383 | 62° | 84km/h | 6422m | -2.4m/s | 0°C | 0% | 0hPa | 4.5V | 00:00:00 | 00:00:00 | 00:00:00 | |
| DF8AY | 2026-08-31 14:46:31 | 51.14987 | 9.77327 | 64° | 84km/h | 6424m | -2.6m/s | -25°C | 0% | 0hPa | 4.5V | 00:00:00 | 00:00:00 | 00:00:00 | |
| DM0DOS-11 | 2026-08-31 14:46:27 | 51.14885 | 9.77101 | 50° | 73km/h | 6448m | -2.7m/s | 0°C | 0% | 0hPa | 0V | 00:00:00 | 00:00:00 | 00:00:00 | |
| DO2JMG | 2026-08-31 14:46:25 | 51.14911 | 9.77149 | 48° | 84km/h | 6440m | -2.5m/s | -25.2°C | 0% | 0hPa | 4.5V | 00:00:00 | 00:00:00 | 00:00:00 | |
| DL1NUX | 2026-08-31 14:46:24 | 51.14854 | 9.77028 | 61° | 75km/h | 6456m | -2.6m/s | 0°C | 0% | 0hPa | 0V | 00:00:00 | 00:00:00 | 00:00:00 | |
| HSKMA3-T | 2026-08-31 14:46:23 | 51.14884 | 9.77101 | 50° | 75km/h | 6445m | -2.6m/s | -25.2°C | 0% | 0hPa | 4.5V | 00:00:00 | 00:00:00 | 00:00:00 | |
| DF8AY | 2026-08-31 14:46:20 | 51.14854 | 9.77028 | 62° | 75km/h | 6453m | -2.7m/s | -25.3°C | 0% | 0hPa | 4.5V | 00:00:00 | 00:00:00 | 00:00:00 | |
| SO1NDE-10 | 2026-08-31 14:46:19 | 51.14854 | 9.77028 | 62° | 84km/h | 6456m | -2.6m/s | 0°C | 0% | 0hPa | 0V | 00:00:00 | 00:00:00 | 00:00:00 | |
| DO2KSM | 2026-08-31 14:46:17 | 51.14835 | 9.76971 | 64° | 86km/h | 6459m | -2.7m/s | -25.4°C | 0% | 0hPa | 0V | 00:00:00 | 00:00:00 | 00:00:00 | |
| DL1NUX | 2026-08-31 14:46:14 | 51.14733 | 9.76748 | 53° | 73km/h | 6483m | -2.7m/s | 0°C | 0% | 0hPa | 0V | 00:00:00 | 00:00:00 | 00:00:00 | |
| DO2JMG | 2026-08-31 14:46:13 | 51.14785 | 9.76847 | 51° | 89km/h | 6469m | -2.5m/s | -25.5°C | 0% | 0hPa | 4.5V | 00:00:00 | 00:00:00 | 00:00:00 | |
| HSKMA3-T | 2026-08-31 14:46:12 | 51.14757 | 9.76795 | 49° | 80km/h | 6475m | -2.7m/s | -25.4°C | 0% | 0hPa | 4.5V | 00:00:00 | 00:00:00 | 00:00:00 | |
| DF8AY | 2026-08-31 14:46:10 | 51.14733 | 9.76748 | 54° | 73km/h | 6480m | -2.8m/s | -25.4°C | 0% | 0hPa | 4.5V | 00:00:00 | 00:00:00 | 00:00:00 | |
| DM0DOS-11 | 2026-08-31 14:46:07 | 51.14652 | 9.76547 | 51° | 89km/h | 6502m | -2.5m/s | 0°C | 0% | 0hPa | 0V | 00:00:00 | 00:00:00 | 00:00:00 | |
| DL3OBA | 2026-08-31 14:46:06 | 51.14702 | 9.76668 | 62° | 84km/h | 6489m | -2.5m/s | -25.5°C | 0% | 0hPa | 4.5V | 00:00:00 | 00:00:00 | 00:00:00 | |
| DL1XH-west | 2026-08-31 14:46:02 | 51.14652 | 9.76547 | 52° | 89km/h | 6499m | -2.7m/s | -25.6°C | 0% | 0hPa | 4.5V | 00:00:00 | 00:00:00 | 00:00:00 | |
| DB0UT-7 | 2026-08-31 14:46:02 | 51.14652 | 9.76547 | 52° | 84km/h | 6502m | -2.5m/s | 0°C | 0% | 0hPa | 4.5V | 00:00:00 | 00:00:00 | 00:00:00 | |
| DO2JMG | 2026-08-31 14:46:01 | 51.14638 | 9.76520 | 51° | 84km/h | 6502m | -2.5m/s | -25.5°C | 0% | 0hPa | 4.5V | 00:00:00 | 00:00:00 | 00:00:00 | |
| HSKMA3-T | 2026-08-31 14:46:01 | 51.14626 | 9.76494 | 52° | 78km/h | 6504m | -2.4m/s | -25.5°C | 0% | 0hPa | 4.5V | 00:00:00 | 00:00:00 | 00:00:00 | |
| DB0NH | 2026-08-31 14:46:01 | 51.14638 | 9.76519 | 53° | 84km/h | 6505m | -2.3m/s | 0°C | 0% | 0hPa | 4.5V | 00:00:00 | 00:00:00 | 00:00:00 | |
| THATR2-17 | 2026-08-31 14:46:00 | 51.14361 | 9.75863 | 56° | 86km/h | 6562m | 0m/s | 0°C | 0% | 0hPa | 4.5V | 00:00:00 | 00:00:00 | 00:00:00 | |
| DF8AY | 2026-08-31 14:45:59 | 51.14603 | 9.76444 | 56° | 73km/h | 6510m | -2.5m/s | -25.6°C | 0% | 0hPa | 4.5V | 00:00:00 | 00:00:00 | 00:00:00 | |
| DM0DOS-11 | 2026-08-31 14:45:57 | 51.14541 | 9.76281 | 56° | 91km/h | 6528m | -2.5m/s | 0°C | 0% | 0hPa | 0V | 00:00:00 | 00:00:00 | 00:00:00 | |
| DL1NUX | 2026-08-31 14:45:54 | 51.14501 | 9.76189 | 52° | 91km/h | 6536m | -2.5m/s | 0°C | 0% | 0hPa | 0V | 00:00:00 | 00:00:00 | 00:00:00 | |
| DL1XH-west | 2026-08-31 14:45:52 | 51.14528 | 9.76250 | 56° | 93km/h | 6528m | -2.5m/s | -25.9°C | 0% | 0hPa | 4.5V | 00:00:00 | 00:00:00 | 00:00:00 | |
| BIOWL1-15 | 2026-08-31 14:45:50 | 51.14501 | 9.76189 | 53° | 91km/h | 6533m | -2.6m/s | -25.8°C | 0% | 0hPa | 4.5V | 00:00:00 | 00:00:00 | 00:00:00 | |
| SO1NDE-10 | 2026-08-31 14:45:49 | 51.14501 | 9.76189 | 53° | 82km/h | 6536m | -2.4m/s | 0°C | 0% | 0hPa | 4.5V | 00:00:00 | 00:00:00 | 00:00:00 | |
| DF8AY | 2026-08-31 14:45:48 | 51.14474 | 9.76133 | 52° | 82km/h | 6539m | -2.2m/s | -25.7°C | 0% | 0hPa | 4.5V | 00:00:00 | 00:00:00 | 00:00:00 | |
| DM0DOS-11 | 2026-08-31 14:45:47 | 51.14418 | 9.76005 | 58° | 78km/h | 6553m | -2.3m/s | 0°C | 0% | 0hPa | 0V | 00:00:00 | 00:00:00 | 00:00:00 | |
| DL3OBA | 2026-08-31 14:45:46 | 51.14462 | 9.76107 | 54° | 78km/h | 6541m | -2.2m/s | -25.7°C | 0% | 0hPa | 0V | 00:00:00 | 00:00:00 | 00:00:00 | |
| DL1NUX | 2026-08-31 14:45:44 | 51.14386 | 9.75921 | 57° | 86km/h | 6560m | -2.3m/s | 0°C | 0% | 0hPa | 0V | 00:00:00 | 00:00:00 | 00:00:00 | |
| DL1XH-west | 2026-08-31 14:45:41 | 51.14408 | 9.75978 | 59° | 80km/h | 6553m | -2.3m/s | -25.8°C | 0% | 0hPa | 4.5V | 00:00:00 | 00:00:00 | 00:00:00 | |
| HSKMA3-T | 2026-08-31 14:45:40 | 51.14386 | 9.75921 | 57° | 86km/h | 6557m | -2.2m/s | -25.9°C | 0% | 0hPa | 4.5V | 00:00:00 | 00:00:00 | 00:00:00 | |
| NBG1-10 | 2026-08-31 14:45:39 | 51.14386 | 9.75921 | 58° | 82km/h | 6560m | -2.3m/s | 0°C | 0% | 0hPa | 0V | 00:00:00 | 00:00:00 | 00:00:00 | |
| DM0DOS-11 | 2026-08-31 14:45:37 | 51.14298 | 9.75714 | 54° | 91km/h | 6577m | -2.5m/s | 0°C | 0% | 0hPa | 0V | 00:00:00 | 00:00:00 | 00:00:00 | |
| DF8AY | 2026-08-31 14:45:37 | 51.14349 | 9.75834 | 56° | 88km/h | 6564m | -2.3m/s | -26°C | 0% | 0hPa | 4.5V | 00:00:00 | 00:00:00 | 00:00:00 | |
| DO2KSM | 2026-08-31 14:45:36 | 51.14349 | 9.75834 | 57° | 88km/h | 6564m | -2.3m/s | -26.0°C | 0% | 0hPa | 4.5V | 00:00:00 | 00:00:00 | 00:00:00 | |
| DO2JMG | 2026-08-31 14:45:35 | 51.14324 | 9.75774 | 56° | 89km/h | 6569m | -2.4m/s | -26.1°C | 0% | 0hPa | 4.5V | 00:00:00 | 00:00:00 | 00:00:00 | |
| DB0UT-7 | 2026-08-31 14:45:32 | 51.14298 | 9.75714 | 55° | 82km/h | 6577m | -2.5m/s | 0°C | 0% | 0hPa | 4.5V | 00:00:00 | 00:00:00 | 00:00:00 | |
| DB0NH | 2026-08-31 14:45:31 | 51.14284 | 9.75683 | 52° | 82km/h | 6579m | -2.4m/s | 0°C | 0% | 0hPa | 4.5V | 00:00:00 | 00:00:00 | 00:00:00 | |
| DL1XH-west | 2026-08-31 14:45:31 | 51.14271 | 9.75656 | 52° | 88km/h | 6579m | -2.5m/s | -26.2°C | 0% | 0hPa | 4.5V | 00:00:00 | 00:00:00 | 00:00:00 | |
| BIOWL1-15 | 2026-08-31 14:45:29 | 51.14243 | 9.75602 | 51° | 84km/h | 6584m | -2.6m/s | -26.2°C | 0% | 0hPa | 4.5V | 00:00:00 | 00:00:00 | 00:00:00 | |
| DF8AY | 2026-08-31 14:45:27 | 51.14217 | 9.75551 | 51° | 80km/h | 6589m | -2.5m/s | -26.2°C | 0% | 0hPa | 4.5V | 00:00:00 | 00:00:00 | 00:00:00 | |
| DL3OBA | 2026-08-31 14:45:25 | 51.14205 | 9.75526 | 53° | 78km/h | 6592m | -2.4m/s | -26.3°C | 0% | 0hPa | 0V | 00:00:00 | 00:00:00 | 00:00:00 | |
| DL1NUX | 2026-08-31 14:45:24 | 51.14138 | 9.75374 | 57° | 82km/h | 6610m | -2.5m/s | 0°C | 0% | 0hPa | 0V | 00:00:00 | 00:00:00 | 00:00:00 | |
| DO2JMG | 2026-08-31 14:45:24 | 51.14182 | 9.75477 | 54° | 75km/h | 6596m | -2.5m/s | -26.3°C | 0% | 0hPa | 4.5V | 00:00:00 | 00:00:00 | 00:00:00 | |
| DL1XH-west | 2026-08-31 14:45:20 | 51.14138 | 9.75374 | 57° | 82km/h | 6607m | -2.7m/s | -26.5°C | 0% | 0hPa | 4.5V | 00:00:00 | 00:00:00 | 00:00:00 | |
| SO1NDE-10 | 2026-08-31 14:45:19 | 51.14138 | 9.75374 | 58° | 82km/h | 6610m | -2.5m/s | 0°C | 0% | 0hPa | 4.5V | 00:00:00 | 00:00:00 | 00:00:00 | |
| HSKMA3-T | 2026-08-31 14:45:18 | 51.14115 | 9.75317 | 56° | 86km/h | 6612m | -2.5m/s | -26.6°C | 0% | 0hPa | 4.5V | 00:00:00 | 00:00:00 | 00:00:00 | |
| DF8AY | 2026-08-31 14:45:16 | 51.14090 | 9.75261 | 55° | 84km/h | 6617m | -2.4m/s | -26.8°C | 0% | 0hPa | 4.5V | 00:00:00 | 00:00:00 | 00:00:00 | |
| DL1NUX | 2026-08-31 14:45:14 | 51.14028 | 9.75094 | 56° | 82km/h | 6632m | -2.5m/s | 0°C | 0% | 0hPa | 0V | 00:00:00 | 00:00:00 | 00:00:00 | |
| DO2JMG | 2026-08-31 14:45:14 | 51.14067 | 9.75206 | 59° | 80km/h | 6622m | -2.5m/s | -27°C | 0% | 0hPa | 4.5V | 00:00:00 | 00:00:00 | 00:00:00 | |
| DF2AP-13 | 2026-08-31 14:45:10 | 51.14038 | 9.75121 | 60° | 80km/h | 6632m | -2.5m/s | 0°C | 0% | 0hPa | 4.5V | 00:00:00 | 00:00:00 | 00:00:00 | |
| DL1XH-west | 2026-08-31 14:45:08 | 51.14015 | 9.75067 | 54° | 82km/h | 6635m | -2.3m/s | -26.8°C | 0% | 0hPa | 4.5V | 00:00:00 | 00:00:00 | 00:00:00 | |
| HSKMA3-T | 2026-08-31 14:45:07 | 51.13990 | 9.75014 | 52° | 84km/h | 6640m | -2.8m/s | -26.7°C | 0% | 0hPa | 4.5V | 00:00:00 | 00:00:00 | 00:00:00 | |
| DF8AY | 2026-08-31 14:45:05 | 51.13964 | 9.74958 | 54° | 88km/h | 6645m | -2.8m/s | -26.7°C | 0% | 0hPa | 4.5V | 00:00:00 | 00:00:00 | 00:00:00 | |
| DL1NUX | 2026-08-31 14:45:04 | 51.13905 | 9.74807 | 62° | 82km/h | 6663m | -3.1m/s | 0°C | 0% | 0hPa | 0V | 00:00:00 | 00:00:00 | 00:00:00 | |
| DO2JMG | 2026-08-31 14:45:03 | 51.13951 | 9.74929 | 56° | 89km/h | 6648m | -3m/s | -26.7°C | 0% | 0hPa | 4.5V | 00:00:00 | 00:00:00 | 00:00:00 | |
| DB0UT-7 | 2026-08-31 14:45:02 | 51.13938 | 9.74898 | 58° | 77km/h | 6654m | -3.4m/s | 0°C | 0% | 0hPa | 4.5V | 00:00:00 | 00:00:00 | 00:00:00 | |
| D01LWL | 2026-08-31 14:45:01 | 51.13926 | 9.74867 | 59° | 88km/h | 6654m | -3.4m/s | -26.7°C | -1.0% | -1.0hPa | 4.5V | 00:00:00 | 00:00:00 | 00:00:00 | |
| BIOWL7-15 | 2026-08-31 14:45:00 | 51.13916 | 9.74836 | 63° | 86km/h | 6657m | -3.2m/s | -26.7°C | 0% | 0hPa | 4.5V | 00:00:00 | 00:00:00 | 00:00:00 | |
| DL1XH-west | 2026-08-31 14:44:58 | 51.13896 | 9.74779 | 61° | 77km/h | 6663m | -3.1m/s | -26.8°C | 0% | 0hPa | 4.5V | 00:00:00 | 00:00:00 | 00:00:00 | |
| BIOWL1-15 | 2026-08-31 14:44:56 | 51.13877 | 9.74729 | 55° | 71km/h | 6670m | -3.3m/s | -26.9°C | 0% | 0hPa | 4.5V | 00:00:00 | 00:00:00 | 00:00:00 | |
| DM0DOS-11 | 2026-08-31 14:44:56 | 51.13817 | 9.74600 | 58° | 88km/h | 6690m | -3.3m/s | 0°C | 0% | 0hPa | 0V | 00:00:00 | 00:00:00 | 00:00:00 | |
| DO2KSM | 2026-08-31 14:44:55 | 51.13866 | 9.74705 | 53° | 73km/h | 6673m | -3.5m/s | -27.0°C | 0% | 0hPa | 0V | 00:00:00 | 00:00:00 | 00:00:00 | |
| DL1NUX | 2026-08-31 14:44:54 | 51.13796 | 9.74540 | 63° | 82km/h | 6696m | -3.4m/s | 0°C | 0% | 0hPa | 0V | 00:00:00 | 00:00:00 | 00:00:00 | |
| DF8AY | 2026-08-31 14:44:54 | 51.13841 | 9.74657 | 52° | 82km/h | 6680m | -2.9m/s | -27°C | 0% | 0hPa | 4.5V | 00:00:00 | 00:00:00 | 00:00:00 | |
| DL1XH-15 | 2026-08-31 14:44:50 | 51.13763 | 9.74436 | 57° | 68km/h | 6751m | -3.3m/s | 0°C | 0% | 0hPa | 0V | 00:00:00 | 00:00:00 | 00:00:00 | |
| SO1NDE-10 | 2026-08-31 14:44:49 | 51.13796 | 9.74540 | 64° | 73km/h | 6696m | -3.3m/s | 0°C | 0% | 0hPa | 4.5V | 00:00:00 | 00:00:00 | 00:00:00 | |
| DL1XH-west | 2026-08-31 14:44:47 | 51.13779 | 9.74484 | 64° | 73km/h | 6700m | -3.2m/s | -27.2°C | 0% | 0hPa | 4.5V | 00:00:00 | 00:00:00 | 00:00:00 | |
| DM0DOS-11 | 2026-08-31 14:44:46 | 51.13720 | 9.74340 | 60° | 82km/h | 6722m | -3.1m/s | 0°C | 0% | 0hPa | 0V | 00:00:00 | 00:00:00 | 00:00:00 | |
| BIOWL1-15 | 2026-08-31 14:44:46 | 51.13763 | 9.74436 | 58° | 68km/h | 6707m | -3.3m/s | -27.2°C | 0% | 0hPa | 4.5V | 00:00:00 | 00:00:00 | 00:00:00 | |
| HSKMA3-T | 2026-08-31 14:44:44 | 51.13742 | 9.74390 | 53° | 73km/h | 6713m | -3.2m/s | -27.2°C | 0% | 0hPa | 4.5V | 00:00:00 | 00:00:00 | 00:00:00 | |
| DO2JMG | 2026-08-31 14:44:41 | 51.13708 | 9.74310 | 61° | 84km/h | 6722m | -3.1m/s | -27.2°C | 0% | 0hPa | 4.5V | 00:00:00 | 00:00:00 | 00:00:00 | |
| DF2AP-13 | 2026-08-31 14:44:40 | 51.13708 | 9.74310 | 61° | 73km/h | 6726m | -3.2m/s | 0°C | 0% | 0hPa | 4.5V | 00:00:00 | 00:00:00 | 00:00:00 | |
| DL1XH-west | 2026-08-31 14:44:37 | 51.13675 | 9.74193 | 68° | 71km/h | 6735m | -3.4m/s | -27.3°C | 0% | 0hPa | 4.5V | 00:00:00 | 00:00:00 | 00:00:00 | |
| BIOWL1-15 | 2026-08-31 14:44:36 | 51.13661 | 9.74144 | 62° | 64km/h | 6742m | -3.2m/s | -27.3°C | 0% | 0hPa | 4.5V | 00:00:00 | 00:00:00 | 00:00:00 | |
| DO2KSM | 2026-08-31 14:44:35 | 51.13668 | 9.74168 | 67° | 66km/h | 6739m | -3.1m/s | -27.3°C | 0% | 0hPa | 4.5V | 00:00:00 | 00:00:00 | 00:00:00 | |
| HSKMA3-T | 2026-08-31 14:44:33 | 51.13643 | 9.74100 | 54° | 69km/h | 6748m | -3.2m/s | -27.3°C | 0% | 0hPa | 4.5V | 00:00:00 | 00:00:00 | 00:00:00 | |
| NBG1-10 | 2026-08-31 14:44:32 | 51.13643 | 9.74100 | 55° | 68km/h | 6751m | -3.3m/s | 0°C | 0% | 0hPa | 4.5V | 00:00:00 | 00:00:00 | 00:00:00 | |
| DB0NH | 2026-08-31 14:44:31 | 51.13632 | 9.74077 | 55° | 71km/h | 6755m | -3.2m/s | 0°C | 0% | 0hPa | 4.5V | 00:00:00 | 00:00:00 | 00:00:00 | |
| DO2JMG | 2026-08-31 14:44:30 | 51.13622 | 9.74052 | 57° | 78km/h | 6754m | -3.2m/s | -27.2°C | 0% | 0hPa | 4.5V | 00:00:00 | 00:00:00 | 00:00:00 | |
| DM0DOS-11 | 2026-08-31 14:44:26 | 51.13551 | 9.73813 | 59° | 64km/h | 6788m | -3.5m/s | 0°C | 0% | 0hPa | 0V | 00:00:00 | 00:00:00 | 00:00:00 | |
| DL1XH-west | 2026-08-31 14:44:25 | 51.13579 | 9.73910 | 69° | 73km/h | 6771m | -3.6m/s | -27.2°C | 0% | 0hPa | 4.5V | 00:00:00 | 00:00:00 | 00:00:00 | |
| AM1SDL-15 | 2026-08-31 14:44:25 | 51.13579 | 9.73910 | 70° | 68km/h | 6778m | -3.4m/s | 0°C | 0% | 0hPa | 0V | 00:00:00 | 00:00:00 | 00:00:00 | |
| DL1NUX | 2026-08-31 14:44:24 | 51.13533 | 9.73768 | 56° | 71km/h | 6794m | -3.4m/s | 0°C | 0% | 0hPa | 0V | 00:00:00 | 00:00:00 | 00:00:00 | |
| BIOWL1-15 | 2026-08-31 14:44:24 | 51.13566 | 9.73858 | 67° | 66km/h | 6778m | -3.5m/s | -27.2°C | 0% | 0hPa | 4.5V | 00:00:00 | 00:00:00 | 00:00:00 | |
| HSKMA3-T | 2026-08-31 14:44:22 | 51.13551 | 9.73813 | 59° | 64km/h | 6785m | -3.3m/s | -27.2°C | 0% | 0hPa | 4.5V | 00:00:00 | 00:00:00 | 00:00:00 | |
| DO2JMG | 2026-08-31 14:44:20 | 51.13533 | 9.73768 | 57° | 71km/h | 6791m | -3.4m/s | 0°C | 0% | 0hPa | 4.5V | 00:00:00 | 00:00:00 | 00:00:00 | |
| SO1NDE-10 | 2026-08-31 14:44:19 | 51.13533 | 9.73768 | 57° | 69km/h | 6795m | -3.3m/s | 0°C | 0% | 0hPa | 4.5V | 00:00:00 | 00:00:00 | 00:00:00 | |
| DL1XH-west | 2026-08-31 14:44:15 | 51.13498 | 9.73659 | 69° | 75km/h | 6804m | -3.4m/s | -27.3°C | 0% | 0hPa | 4.5V | 00:00:00 | 00:00:00 | 00:00:00 | |
| DO2KSM | 2026-08-31 14:44:14 | 51.13492 | 9.73631 | 72° | 71km/h | 6808m | -3.7m/s | -27.3°C | 0% | 0hPa | 0V | 00:00:00 | 00:00:00 | 00:00:00 | |
| DL1NUX | 2026-08-31 14:44:13 | 51.13451 | 9.73490 | 58° | 68km/h | 6832m | -3.4m/s | 0°C | 0% | 0hPa | 0V | 00:00:00 | 00:00:00 | 00:00:00 | |
| BIOWL1-15 | 2026-08-31 14:44:13 | 51.13480 | 9.73580 | 69° | 64km/h | 6815m | -3.8m/s | -27.4°C | 0% | 0hPa | 4.4V | 00:00:00 | 00:00:00 | 00:00:00 | |
| HSKMA3-T | 2026-08-31 14:44:11 | 51.13467 | 9.73534 | 62° | 62km/h | 6822m | -3.4m/s | -27.4°C | 0% | 0hPa | 4.4V | 00:00:00 | 00:00:00 | 00:00:00 | |
| DF2AP-13 | 2026-08-31 14:44:10 | 51.13467 | 9.73534 | 63° | 69km/h | 6826m | -3.5m/s | 0°C | 0% | 0hPa | 4.5V | 00:00:00 | 00:00:00 | 00:00:00 | |
| DL1XH-west | 2026-08-31 14:44:05 | 51.13419 | 9.73385 | 70° | 73km/h | 6842m | -3.6m/s | -27.4°C | 0% | 0hPa | 4.5V | 00:00:00 | 00:00:00 | 00:00:00 | |
| BIOWL1-15 | 2026-08-31 14:44:04 | 51.13408 | 9.73332 | 72° | 64km/h | 6849m | -3.5m/s | -27.5°C | 0% | 0hPa | 4.5V | 00:00:00 | 00:00:00 | 00:00:00 | |
| DL3OBA | 2026-08-31 14:44:04 | 51.13413 | 9.73358 | 73° | 69km/h | 6846m | -3.5m/s | -27.5°C | 0% | 0hPa | 4.5V | 00:00:00 | 00:00:00 | 00:00:00 | |
| DO3DL | 2026-08-31 14:44:03 | 51.13413 | 9.73358 | 73° | 69km/h | 6846m | -3.5m/s | -27.5°C | 0% | 0hPa | 4.5V | 00:00:00 | 00:00:00 | 00:00:00 | |
| DB0UT-7 | 2026-08-31 14:44:02 | 51.13408 | 9.73332 | 72° | 68km/h | 6853m | -3.5m/s | 0°C | 0% | 0hPa | 4.5V | 00:00:00 | 00:00:00 | 00:00:00 | |
| DB0NH | 2026-08-31 14:44:01 | 51.13402 | 9.73308 | 69° | 68km/h | 6856m | -3.5m/s | 0°C | 0% | 0hPa | 4.5V | 00:00:00 | 00:00:00 | 00:00:00 | |
| HSKMA3-T | 2026-08-31 14:44:00 | 51.13389 | 9.73265 | 60° | 62km/h | 6860m | -3.6m/s | -27.6°C | 0% | 0hPa | 4.5V | 00:00:00 | 00:00:00 | 00:00:00 | |
| NBG1-10 | 2026-08-31 14:43:59 | 51.13389 | 9.73265 | 61° | 66km/h | 6863m | -3.2m/s | 0°C | 0% | 0hPa | 0V | 00:00:00 | 00:00:00 | 00:00:00 | |
| DO3DL | 2026-08-31 14:43:57 | 51.13362 | 9.73192 | 63° | 77km/h | 6870m | -3.5m/s | -27.7°C | 0% | 0hPa | 0V | 00:00:00 | 00:00:00 | 00:00:00 | |
| DM0DOS-11 | 2026-08-31 14:43:56 | 51.13331 | 9.73056 | 73° | 62km/h | 6892m | -3.8m/s | 0°C | 0% | 0hPa | 0V | 00:00:00 | 00:00:00 | 00:00:00 | |
| DL1XH-15 | 2026-08-31 14:43:54 | 51.13321 | 9.73011 | 66° | 58km/h | 6930m | -3.8m/s | 0°C | 0% | 0hPa | 0V | 00:00:00 | 00:00:00 | 00:00:00 | |
| DL1XH-west | 2026-08-31 14:43:54 | 51.13341 | 9.73108 | 73° | 73km/h | 6881m | -3.6m/s | -27.8°C | 0% | 0hPa | 4.5V | 00:00:00 | 00:00:00 | 00:00:00 | |
| BIOWL1-15 | 2026-08-31 14:43:51 | 51.13331 | 9.73056 | 74° | 62km/h | 6888m | -3.8m/s | -27.9°C | 0% | 0hPa | 4.5V | 00:00:00 | 00:00:00 | 00:00:00 | |
| DO3DL | 2026-08-31 14:43:51 | 51.13331 | 9.73056 | 75° | 62km/h | 6888m | -3.8m/s | -27.9°C | 0% | 0hPa | 4.5V | 00:00:00 | 00:00:00 | 00:00:00 | |
| HSKMA3-T | 2026-08-31 14:43:49 | 51.13321 | 9.73011 | 66° | 58km/h | 6896m | -3.9m/s | -27.9°C | 0% | 0hPa | 4.5V | 00:00:00 | 00:00:00 | 00:00:00 | |
| AM1SDL-15 | 2026-08-31 14:43:49 | 51.13321 | 9.73011 | 67° | 68km/h | 6900m | -3.6m/s | 0°C | 0% | 0hPa | 0V | 00:00:00 | 00:00:00 | 00:00:00 | |
| SO1NDE-10 | 2026-08-31 14:43:48 | 51.13314 | 9.72990 | 62° | 69km/h | 6904m | -3.6m/s | 0°C | 0% | 0hPa | 0V | 00:00:00 | 00:00:00 | 00:00:00 | |
| DO3DL | 2026-08-31 14:43:45 | 51.13288 | 9.72918 | 63° | 77km/h | 6911m | -3.7m/s | -28.2°C | 0% | 0hPa | 0V | 00:00:00 | 00:00:00 | 00:00:00 | |
| DL1NUX | 2026-08-31 14:43:43 | 51.13244 | 9.72732 | 67° | 58km/h | 6942m | -3.7m/s | 0°C | 0% | 0hPa | 0V | 00:00:00 | 00:00:00 | 00:00:00 | |
| DL1XH-west | 2026-08-31 14:43:42 | 51.13265 | 9.72833 | 70° | 75km/h | 6922m | -4.1m/s | -28.1°C | 0% | 0hPa | 4.5V | 00:00:00 | 00:00:00 | 00:00:00 | |
| DL3OBA | 2026-08-31 14:43:42 | 51.13265 | 9.72833 | 71° | 75km/h | 6922m | -4.1m/s | -28.1°C | 0% | 0hPa | 4.5V | 00:00:00 | 00:00:00 | 00:00:00 | |
| DF2AP-13 | 2026-08-31 14:43:40 | 51.13254 | 9.72779 | 74° | 69km/h | 6934m | -3.6m/s | 0°C | 0% | 0hPa | 4.5V | 00:00:00 | 00:00:00 | 00:00:00 | |
| HSKMA3-T | 2026-08-31 14:43:39 | 51.13244 | 9.72732 | 68° | 58km/h | 6938m | -3.8m/s | -28.2°C | 0% | 0hPa | 4.5V | 00:00:00 | 00:00:00 | 00:00:00 | |
| BIOWL1-15 | 2026-08-31 14:43:38 | 51.13231 | 9.72690 | 59° | 62km/h | 6945m | -3.7m/s | -28.5°C | 0% | 0hPa | 4.5V | 00:00:00 | 00:00:00 | 00:00:00 | |
| DL1XH-15 | 2026-08-31 14:43:38 | 51.13204 | 9.72618 | 61° | 77km/h | 6964m | -4m/s | 0°C | 0% | 0hPa | 0V | 00:00:00 | 00:00:00 | 00:00:00 | |
| AM1SDL-15 | 2026-08-31 14:43:37 | 51.13238 | 9.72712 | 60° | 68km/h | 6949m | -3.6m/s | 0°C | 0% | 0hPa | 0V | 00:00:00 | 00:00:00 | 00:00:00 | |
| DM0DOS-11 | 2026-08-31 14:43:36 | 51.13187 | 9.72561 | 69° | 77km/h | 6967m | -3.9m/s | 0°C | 0% | 0hPa | 0V | 00:00:00 | 00:00:00 | 00:00:00 | |
| DL1NUX | 2026-08-31 14:43:33 | 51.13171 | 9.72479 | 67° | 62km/h | 6978m | -3.8m/s | 0°C | 0% | 0hPa | 0V | 00:00:00 | 00:00:00 | 00:00:00 | |
| DL1XH-west | 2026-08-31 14:43:32 | 51.13187 | 9.72561 | 69° | 77km/h | 6964m | -4.1m/s | -28.5°C | 0% | 0hPa | 4.5V | 00:00:00 | 00:00:00 | 00:00:00 | |
| DB0UT-7 | 2026-08-31 14:43:32 | 51.13195 | 9.72589 | 70° | 71km/h | 6964m | -4.0m/s | 0°C | 0% | 0hPa | 4.5V | 00:00:00 | 00:00:00 | 00:00:00 | |
| DB0NH | 2026-08-31 14:43:31 | 51.13187 | 9.72561 | 70° | 71km/h | 6968m | -3.8m/s | 0°C | 0% | 0hPa | 4.5V | 00:00:00 | 00:00:00 | 00:00:00 | |
| HSKMA3-T | 2026-08-31 14:43:28 | 51.13165 | 9.72457 | 67° | 60km/h | 6978m | -3.8m/s | -28.5°C | 0% | 0hPa | 4.5V | 00:00:00 | 00:00:00 | 00:00:00 | |
| DO3DL | 2026-08-31 14:43:27 | 51.13165 | 9.72457 | 68° | 60km/h | 6978m | -3.8m/s | -28.5°C | 0% | 0hPa | 0V | 00:00:00 | 00:00:00 | 00:00:00 | |
| DM0DOS-11 | 2026-08-31 14:43:26 | 51.13113 | 9.72309 | 65° | 80km/h | 7005m | -3.8m/s | 0°C | 0% | 0hPa | 0V | 00:00:00 | 00:00:00 | 00:00:00 | |
| NBG1-10 | 2026-08-31 14:43:26 | 51.13158 | 9.72436 | 59° | 73km/h | 6986m | -3.9m/s | 0°C | 0% | 0hPa | 0V | 00:00:00 | 00:00:00 | 00:00:00 | |
| AM1SDL-15 | 2026-08-31 14:43:25 | 51.13151 | 9.72413 | 59° | 71km/h | 6990m | -3.8m/s | 0°C | 0% | 0hPa | 0V | 00:00:00 | 00:00:00 | 00:00:00 | |
| DL1NUX | 2026-08-31 14:43:23 | 51.13094 | 9.72221 | 73° | 71km/h | 7016m | -3.9m/s | 0°C | 0% | 0hPa | 0V | 00:00:00 | 00:00:00 | 00:00:00 | |
| DL3OBA | 2026-08-31 14:43:22 | 51.13122 | 9.72338 | 63° | 78km/h | 6998m | -3.8m/s | -28.8°C | 0% | 0hPa | 4.5V | 00:00:00 | 00:00:00 | 00:00:00 | |
| DL1XH-west | 2026-08-31 14:43:21 | 51.13114 | 9.72309 | 66° | 80km/h | 7002m | -3.9m/s | -28.8°C | 0% | 0hPa | 4.5V | 00:00:00 | 00:00:00 | 00:00:00 | |
| SO1NDE-10 | 2026-08-31 14:43:18 | 51.13094 | 9.72221 | 74° | 73km/h | 7017m | -3.8m/s | 0°C | 0% | 0hPa | 4.5V | 00:00:00 | 00:00:00 | 00:00:00 | |
| HSKMA3-T | 2026-08-31 14:43:17 | 51.13083 | 9.72170 | 69° | 64km/h | 7020m | -4m/s | -28.8°C | 0% | 0hPa | 4.5V | 00:00:00 | 00:00:00 | 00:00:00 | |
| DM0DOS-11 | 2026-08-31 14:43:16 | 51.13041 | 9.72054 | 63° | 78km/h | 7045m | -4m/s | 0°C | 0% | 0hPa | 0V | 00:00:00 | 00:00:00 | 00:00:00 | |
| DL1NUX | 2026-08-31 14:43:13 | 51.13015 | 9.71963 | 70° | 80km/h | 7056m | -4m/s | 0°C | 0% | 0hPa | 0V | 00:00:00 | 00:00:00 | 00:00:00 | |
| AM1SDL-15 | 2026-08-31 14:43:13 | 51.13060 | 9.72102 | 58° | 77km/h | 7033m | -3.8m/s | 0°C | 0% | 0hPa | 4.5V | 00:00:00 | 00:00:00 | 00:00:00 | |
| DL1XH-west | 2026-08-31 14:43:11 | 51.13032 | 9.72024 | 63° | 82km/h | 7045m | -4m/s | -29.1°C | 0% | 0hPa | 4.5V | 00:00:00 | 00:00:00 | 00:00:00 | |
| DF2AP-13 | 2026-08-31 14:43:10 | 51.13031 | 9.72024 | 64° | 77km/h | 7049m | -3.9m/s | 0°C | 0% | 0hPa | 4.5V | 00:00:00 | 00:00:00 | 00:00:00 | |
| HSKMA3-T | 2026-08-31 14:43:07 | 51.13004 | 9.71905 | 73° | 71km/h | 7060m | -3.9m/s | -29.1°C | 0% | 0hPa | 4.5V | 00:00:00 | 00:00:00 | 00:00:00 | |
| DM0DOS-11 | 2026-08-31 14:43:06 | 51.12967 | 9.71780 | 58° | 75km/h | 7083m | -4.1m/s | 0°C | 0% | 0hPa | 0V | 00:00:00 | 00:00:00 | 00:00:00 | |
| DO3DL | 2026-08-31 14:43:03 | 51.12985 | 9.71829 | 63° | 68km/h | 7072m | -4.0m/s | -29.2°C | 0% | 0hPa | 4.5V | 00:00:00 | 00:00:00 | 00:00:00 | |
| DB0UT-7 | 2026-08-31 14:43:02 | 51.12977 | 9.71806 | 59° | 77km/h | 7080m | -3.9m/s | 0°C | 0% | 0hPa | 4.5V | 00:00:00 | 00:00:00 | 00:00:00 | |
| DB0NH | 2026-08-31 14:43:01 | 51.12967 | 9.71780 | 59° | 77km/h | 7084m | -4.0m/s | 0°C | 0% | 0hPa | 4.5V | 00:00:00 | 00:00:00 | 00:00:00 | |
| DL1XH-west | 2026-08-31 14:43:00 | 51.12947 | 9.71726 | 61° | 82km/h | 7088m | -4.3m/s | -29.5°C | 0% | 0hPa | 4.5V | 00:00:00 | 00:00:00 | 00:00:00 | |
| AM1SDL-15 | 2026-08-31 14:42:57 | 51.12928 | 9.71666 | 67° | 77km/h | 7100m | -4.0m/s | 0°C | 0% | 0hPa | 0V | 00:00:00 | 00:00:00 | 00:00:00 | |
| DM0DOS-11 | 2026-08-31 14:42:56 | 51.12891 | 9.71504 | 66° | 71km/h | 7125m | -4m/s | 0°C | 0% | 0hPa | 0V | 00:00:00 | 00:00:00 | 00:00:00 | |
| HSKMA3-T | 2026-08-31 14:42:56 | 51.12915 | 9.71609 | 71° | 73km/h | 7104m | -3.9m/s | -29.5°C | 0% | 0hPa | 4.5V | 00:00:00 | 00:00:00 | 00:00:00 | |
| DO2JMG | 2026-08-31 14:42:54 | 51.12909 | 9.71581 | 72° | 69km/h | 7108m | -4.1m/s | -29.6°C | 0% | 0hPa | 4.5V | 00:00:00 | 00:00:00 | 00:00:00 | |
| DL1NUX | 2026-08-31 14:42:53 | 51.12865 | 9.71421 | 62° | 82km/h | 7136m | -4.2m/s | 0°C | 0% | 0hPa | 0V | 00:00:00 | 00:00:00 | 00:00:00 | |
| NBG1-10 | 2026-08-31 14:42:53 | 51.12903 | 9.71556 | 71° | 78km/h | 7116m | -4.5m/s | 0°C | 0% | 0hPa | 4.5V | 00:00:00 | 00:00:00 | 00:00:00 | |
| DO2KSM | 2026-08-31 14:42:52 | 51.12897 | 9.71530 | 70° | 68km/h | 7116m | -4.6m/s | -29.7°C | 0% | 0hPa | 4.5V | 00:00:00 | 00:00:00 | 00:00:00 | |
| DL1XH-west | 2026-08-31 14:42:49 | 51.12865 | 9.71421 | 63° | 82km/h | 7132m | -3.9m/s | -29.9°C | 0% | 0hPa | 4.5V | 00:00:00 | 00:00:00 | 00:00:00 | |
| SO1NDE-10 | 2026-08-31 14:42:48 | 51.12865 | 9.71421 | 63° | 78km/h | 7136m | -4.2m/s | 0°C | 0% | 0hPa | 0V | 00:00:00 | 00:00:00 | 00:00:00 | |
| DL1XH-15 | 2026-08-31 14:42:47 | 51.12807 | 9.71246 | 63° | 77km/h | 7162m | -4.1m/s | 0°C | 0% | 0hPa | 0V | 00:00:00 | 00:00:00 | 00:00:00 | |
| DJTTGO | 2026-08-31 14:42:46 | 51.12845 | 9.71361 | 63° | 84km/h | 7141m | -4.4m/s | 0°C | 0% | 0hPa | 4.5V | 00:00:00 | 00:00:00 | 00:00:00 | |
| HSKMA3-T | 2026-08-31 14:42:45 | 51.12826 | 9.71302 | 62° | 80km/h | 7149m | -4.5m/s | -30°C | 0% | 0hPa | 4.5V | 00:00:00 | 00:00:00 | 00:00:00 | |
| DL1NUX | 2026-08-31 14:42:43 | 51.12775 | 9.71138 | 65° | 73km/h | 7179m | -4.3m/s | 0°C | 0% | 0hPa | 0V | 00:00:00 | 00:00:00 | 00:00:00 | |
| DO2JMG | 2026-08-31 14:42:42 | 51.12807 | 9.71246 | 63° | 77km/h | 7158m | -4.4m/s | -30.1°C | 0% | 0hPa | 4.5V | 00:00:00 | 00:00:00 | 00:00:00 | |
| DL3OBA | 2026-08-31 14:42:41 | 51.12799 | 9.71218 | 65° | 75km/h | 7162m | -4.1m/s | -30.1°C | 0% | 0hPa | 4.5V | 00:00:00 | 00:00:00 | 00:00:00 | |
| DF2AP-13 | 2026-08-31 14:42:40 | 51.12791 | 9.71192 | 66° | 80km/h | 7170m | -4.0m/s | 0°C | 0% | 0hPa | 4.5V | 00:00:00 | 00:00:00 | 00:00:00 | |
| DL1XH-west | 2026-08-31 14:42:39 | 51.12776 | 9.71138 | 66° | 73km/h | 7174m | -4.2m/s | -30.2°C | 0% | 0hPa | 4.5V | 00:00:00 | 00:00:00 | 00:00:00 | |
| DM0DOS-11 | 2026-08-31 14:42:36 | 51.12711 | 9.70942 | 61° | 80km/h | 7209m | -4.5m/s | 0°C | 0% | 0hPa | 0V | 00:00:00 | 00:00:00 | 00:00:00 | |
| BIOWL1-15 | 2026-08-31 14:42:34 | 51.12731 | 9.71000 | 62° | 82km/h | 7196m | -4.2m/s | -30.1°C | 0% | 0hPa | 4.5V | 00:00:00 | 00:00:00 | 00:00:00 | |
| AM1SDL-15 | 2026-08-31 14:42:33 | 51.12731 | 9.71000 | 62° | 78km/h | 7200m | -4.1m/s | 0°C | 0% | 0hPa | 4.5V | 00:00:00 | 00:00:00 | 00:00:00 | |
| DL1NUX | 2026-08-31 14:42:33 | 51.12685 | 9.70859 | 67° | 75km/h | 7222m | -4.3m/s | 0°C | 0% | 0hPa | 0V | 00:00:00 | 00:00:00 | 00:00:00 | |
| DB0UT-7 | 2026-08-31 14:42:32 | 51.12721 | 9.70970 | 62° | 80km/h | 7205m | -4.4m/s | 0°C | 0% | 0hPa | 4.5V | 00:00:00 | 00:00:00 | 00:00:00 | |
| DB0NH | 2026-08-31 14:42:31 | 51.12711 | 9.70942 | 62° | 80km/h | 7209m | -4.4m/s | 0°C | 0% | 0hPa | 4.5V | 00:00:00 | 00:00:00 | 00:00:00 | |
| DO3DL | 2026-08-31 14:42:29 | 51.12692 | 9.70886 | 64° | 77km/h | 7213m | -4.4m/s | -30.1°C | 0% | 0hPa | 4.5V | 00:00:00 | 00:00:00 | 00:00:00 | |
| DL1XH-west | 2026-08-31 14:42:28 | 51.12677 | 9.70830 | 68° | 77km/h | 7222m | -4.3m/s | -30.1°C | 0% | 0hPa | 4.5V | 00:00:00 | 00:00:00 | 00:00:00 | |
| DM0DOS-11 | 2026-08-31 14:42:26 | 51.12635 | 9.70652 | 68° | 84km/h | 7253m | -4.2m/s | 0°C | 0% | 0hPa | 0V | 00:00:00 | 00:00:00 | 00:00:00 | |
| HSKMA3-T | 2026-08-31 14:42:23 | 51.12649 | 9.70713 | 70° | 80km/h | 7239m | -4.5m/s | -30.2°C | 0% | 0hPa | 4.5V | 00:00:00 | 00:00:00 | 00:00:00 | |
| DL1NUX | 2026-08-31 14:42:23 | 51.12611 | 9.70555 | 68° | 86km/h | 7269m | -4.4m/s | 0°C | 0% | 0hPa | 0V | 00:00:00 | 00:00:00 | 00:00:00 | |
| THATR2-17 | 2026-08-31 14:42:23 | 51.12538 | 9.70309 | 64° | 80km/h | 7296m | 0m/s | 0°C | 0% | 0hPa | 4.5V | 00:00:00 | 00:00:00 | 00:00:00 | |
| DO3DL | 2026-08-31 14:42:22 | 51.12642 | 9.70682 | 71° | 82km/h | 7244m | -4.5m/s | -30.2°C | 0% | 0hPa | 4.5V | 00:00:00 | 00:00:00 | 00:00:00 | |
| BIOWL1-15 | 2026-08-31 14:42:21 | 51.12627 | 9.70619 | 69° | 86km/h | 7253m | -4.2m/s | -30.3°C | 0% | 0hPa | 4.5V | 00:00:00 | 00:00:00 | 00:00:00 | |
| NBG1-10 | 2026-08-31 14:42:20 | 51.12627 | 9.70619 | 69° | 80km/h | 7257m | -4.1m/s | 0°C | 0% | 0hPa | 4.5V | 00:00:00 | 00:00:00 | 00:00:00 | |
| DL1CLM-18 | 2026-08-31 14:42:19 | 51.12619 | 9.70587 | 69° | 86km/h | 7257m | -4.2m/s | -30.3°C | 0% | 0hPa | 4.5V | 00:00:00 | 00:00:00 | 00:00:00 | |
| SO1NDE-10 | 2026-08-31 14:42:18 | 51.12611 | 9.70555 | 69° | 82km/h | 7270m | -4.4m/s | 0°C | 0% | 0hPa | 4.5V | 00:00:00 | 00:00:00 | 00:00:00 | |
| DL1XH-west | 2026-08-31 14:42:17 | 51.12594 | 9.70491 | 66° | 86km/h | 7270m | -4.4m/s | -30.4°C | 0% | 0hPa | 4.5V | 00:00:00 | 00:00:00 | 00:00:00 | |
| DO3DL | 2026-08-31 14:42:17 | 51.12594 | 9.70491 | 67° | 86km/h | 7270m | -4.4m/s | -30.4°C | 0% | 0hPa | 0V | 00:00:00 | 00:00:00 | 00:00:00 | |
| DL1NUX | 2026-08-31 14:42:13 | 51.12520 | 9.70249 | 63° | 80km/h | 7308m | -4.2m/s | 0°C | 0% | 0hPa | 0V | 00:00:00 | 00:00:00 | 00:00:00 | |
| HSKMA3-T | 2026-08-31 14:42:13 | 51.12557 | 9.70368 | 64° | 82km/h | 7287m | -4.3m/s | -30.5°C | 0% | 0hPa | 4.4V | 00:00:00 | 00:00:00 | 00:00:00 | |
| DO2KSM | 2026-08-31 14:42:11 | 51.12548 | 9.70338 | 65° | 82km/h | 7292m | -4.3m/s | -30.5°C | 0% | 0hPa | 0V | 00:00:00 | 00:00:00 | 00:00:00 | |
| DF2AP-13 | 2026-08-31 14:42:10 | 51.12538 | 9.70309 | 65° | 82km/h | 7300m | -4.1m/s | 0°C | 0% | 0hPa | 0V | 00:00:00 | 00:00:00 | 00:00:00 | |
| AM1SDL-15 | 2026-08-31 14:42:09 | 51.12529 | 9.70279 | 65° | 78km/h | 7305m | -4.2m/s | 0°C | 0% | 0hPa | 0V | 00:00:00 | 00:00:00 | 00:00:00 | |
| DL1XH-15 | 2026-08-31 14:42:08 | 51.12475 | 9.70109 | 63° | 77km/h | 7330m | -4.3m/s | 0°C | 0% | 0hPa | 0V | 00:00:00 | 00:00:00 | 00:00:00 | |
| BIOWL1-15 | 2026-08-31 14:42:06 | 51.12502 | 9.70193 | 63° | 78km/h | 7313m | -4.3m/s | -30.5°C | 0% | 0hPa | 4.4V | 00:00:00 | 00:00:00 | 00:00:00 | |
| DM0DOS-11 | 2026-08-31 14:42:06 | 51.12458 | 9.70054 | 66° | 77km/h | 7338m | -4.4m/s | 0°C | 0% | 0hPa | 0V | 00:00:00 | 00:00:00 | 00:00:00 | |
| DL1XH-west | 2026-08-31 14:42:06 | 51.12493 | 9.70165 | 63° | 78km/h | 7317m | -4.2m/s | -30.6°C | 0% | 0hPa | 4.4V | 00:00:00 | 00:00:00 | 00:00:00 | |
| DL1NUX | 2026-08-31 14:42:03 | 51.12437 | 9.69967 | 71° | 78km/h | 7351m | -4m/s | 0°C | 0% | 0hPa | 0V | 00:00:00 | 00:00:00 | 00:00:00 | |
| HSKMA3-T | 2026-08-31 14:42:02 | 51.12458 | 9.70054 | 66° | 77km/h | 7334m | -4.2m/s | -30.6°C | 0% | 0hPa | 4.4V | 00:00:00 | 00:00:00 | 00:00:00 | |
| DB0NH | 2026-08-31 14:42:01 | 51.12458 | 9.70054 | 67° | 86km/h | 7338m | -4.4m/s | 0°C | 0% | 0hPa | 0V | 00:00:00 | 00:00:00 | 00:00:00 | |
| DL1XH-15 | 2026-08-31 14:41:58 | 51.12403 | 9.69814 | 70° | 82km/h | 7368m | -4.2m/s | 0°C | 0% | 0hPa | 0V | 00:00:00 | 00:00:00 | 00:00:00 | |
| AM1SDL-15 | 2026-08-31 14:41:57 | 51.12430 | 9.69936 | 72° | 84km/h | 7355m | -4.1m/s | 0°C | 0% | 0hPa | 0V | 00:00:00 | 00:00:00 | 00:00:00 | |
| DM0DOS-11 | 2026-08-31 14:41:56 | 51.12390 | 9.69752 | 71° | 84km/h | 7381m | -4.4m/s | 0°C | 0% | 0hPa | 0V | 00:00:00 | 00:00:00 | 00:00:00 | |
| DL1XH-west | 2026-08-31 14:41:55 | 51.12417 | 9.69876 | 71° | 80km/h | 7360m | -4.4m/s | -30.9°C | 0% | 0hPa | 4.4V | 00:00:00 | 00:00:00 | 00:00:00 | |
| DL1NUX | 2026-08-31 14:41:53 | 51.12369 | 9.69654 | 71° | 86km/h | 7394m | -4.2m/s | 0°C | 0% | 0hPa | 0V | 00:00:00 | 00:00:00 | 00:00:00 | |
| HSKMA3-T | 2026-08-31 14:41:51 | 51.12383 | 9.69719 | 71° | 84km/h | 7381m | -4.4m/s | -31°C | 0% | 0hPa | 4.4V | 00:00:00 | 00:00:00 | 00:00:00 | |
| DO3DL | 2026-08-31 14:41:50 | 51.12383 | 9.69719 | 72° | 84km/h | 7381m | -4.4m/s | -31.0°C | 0% | 0hPa | 4.5V | 00:00:00 | 00:00:00 | 00:00:00 | |
| SO1NDE-10 | 2026-08-31 14:41:48 | 51.12369 | 9.69654 | 72° | 89km/h | 7394m | -4.2m/s | 0°C | 0% | 0hPa | 4.5V | 00:00:00 | 00:00:00 | 00:00:00 | |
| BIOWL1-15 | 2026-08-31 14:41:45 | 51.12324 | 9.69459 | 68° | 86km/h | 7415m | -3.9m/s | -31.2°C | 0% | 0hPa | 4.5V | 00:00:00 | 00:00:00 | 00:00:00 | |
| DL1XH-west | 2026-08-31 14:41:44 | 51.12340 | 9.69523 | 69° | 86km/h | 7406m | -4.2m/s | -31.1°C | 0% | 0hPa | 4.5V | 00:00:00 | 00:00:00 | 00:00:00 | |
| NBG1-10 | 2026-08-31 14:41:44 | 51.12340 | 9.69523 | 70° | 91km/h | 7415m | -3.9m/s | 0°C | 0% | 0hPa | 4.5V | 00:00:00 | 00:00:00 | 00:00:00 | |
| DO3DL | 2026-08-31 14:41:43 | 51.12332 | 9.69491 | 69° | 86km/h | 7411m | -4.1m/s | -31.1°C | 0% | 0hPa | 4.5V | 00:00:00 | 00:00:00 | 00:00:00 | |
| HSKMA3-T | 2026-08-31 14:41:40 | 51.12301 | 9.69364 | 70° | 86km/h | 7426m | -4.1m/s | -31.2°C | 0% | 0hPa | 4.5V | 00:00:00 | 00:00:00 | 00:00:00 | |
| DF2AP-13 | 2026-08-31 14:41:40 | 51.12308 | 9.69396 | 70° | 95km/h | 7426m | -4.0m/s | 0°C | 0% | 0hPa | 0V | 00:00:00 | 00:00:00 | 00:00:00 | |
| DO3DL | 2026-08-31 14:41:37 | 51.12286 | 9.69298 | 73° | 88km/h | 7435m | -4.3m/s | -31.3°C | 0% | 0hPa | 0V | 00:00:00 | 00:00:00 | 00:00:00 | |
| DM0DOS-11 | 2026-08-31 14:41:36 | 51.12237 | 9.69083 | 65° | 102km/h | 7465m | -4.3m/s | 0°C | 0% | 0hPa | 0V | 00:00:00 | 00:00:00 | 00:00:00 | |
| DL1XH-west | 2026-08-31 14:41:34 | 51.12256 | 9.69157 | 70° | 99km/h | 7452m | -4.7m/s | -31.6°C | 0% | 0hPa | 4.5V | 00:00:00 | 00:00:00 | 00:00:00 | |
| DB0UT-7 | 2026-08-31 14:41:32 | 51.12247 | 9.69119 | 66° | 95km/h | 7461m | -4.5m/s | 0°C | 0% | 0hPa | 4.5V | 00:00:00 | 00:00:00 | 00:00:00 | |
| DO2KSM | 2026-08-31 14:41:31 | 51.12226 | 9.69045 | 65° | 102km/h | 7466m | -4.3m/s | -31.6°C | 0% | 0hPa | 4.5V | 00:00:00 | 00:00:00 | 00:00:00 | |
| HSKMA3-T | 2026-08-31 14:41:30 | 51.12214 | 9.69009 | 61° | 102km/h | 7470m | -4.3m/s | -31.6°C | 0% | 0hPa | 4.5V | 00:00:00 | 00:00:00 | 00:00:00 | |
| DO3DL | 2026-08-31 14:41:24 | 51.12152 | 9.68849 | 61° | 84km/h | 7491m | -4.2m/s | -31.5°C | 0% | 0hPa | 0V | 00:00:00 | 00:00:00 | 00:00:00 | |
| DL1NUX | 2026-08-31 14:41:23 | 51.12099 | 9.68654 | 68° | 99km/h | 7520m | -4.4m/s | 0°C | 0% | 0hPa | 0V | 00:00:00 | 00:00:00 | 00:00:00 | |
| DL1XH-west | 2026-08-31 14:41:23 | 51.12133 | 9.68790 | 65° | 84km/h | 7499m | -4.1m/s | -31.5°C | 0% | 0hPa | 4.5V | 00:00:00 | 00:00:00 | 00:00:00 | |
| DL8DAS-15 | 2026-08-31 14:41:22 | 51.12133 | 9.68790 | 66° | 84km/h | 7499m | -4.1m/s | -31.5°C | 0% | 0hPa | 4.5V | 00:00:00 | 00:00:00 | 00:00:00 | |
| BIOWL1-15 | 2026-08-31 14:41:21 | 51.12089 | 9.68616 | 68° | 102km/h | 7520m | -4.4m/s | -31.8°C | 0% | 0hPa | 4.5V | 00:00:00 | 00:00:00 | 00:00:00 | |
| DL1XH-15 | 2026-08-31 14:41:20 | 51.12067 | 9.68539 | 63° | 106km/h | 7533m | -4.3m/s | 0°C | 0% | 0hPa | 0V | 00:00:00 | 00:00:00 | 00:00:00 | |
| AM1SDL-15 | 2026-08-31 14:41:20 | 51.12116 | 9.68725 | 69° | 99km/h | 7511m | -4.2m/s | 0°C | 0% | 0hPa | 4.5V | 00:00:00 | 00:00:00 | 00:00:00 | |
| HSKMA3-T | 2026-08-31 14:41:19 | 51.12099 | 9.68654 | 69° | 99km/h | 7516m | -4.7m/s | -31.8°C | 0% | 0hPa | 4.5V | 00:00:00 | 00:00:00 | 00:00:00 | |
| SO1NDE-10 | 2026-08-31 14:41:18 | 51.12099 | 9.68654 | 69° | 99km/h | 7520m | -4.4m/s | 0°C | 0% | 0hPa | 0V | 00:00:00 | 00:00:00 | 00:00:00 | |
| DM0DOS-11 | 2026-08-31 14:41:16 | 51.12015 | 9.68396 | 56° | 97km/h | 7551m | -4.2m/s | 0°C | 0% | 0hPa | 0V | 00:00:00 | 00:00:00 | 00:00:00 | |
| DL3OBA | 2026-08-31 14:41:15 | 51.12067 | 9.68539 | 65° | 106km/h | 7529m | -4.3m/s | -32.0°C | 0% | 0hPa | 0V | 00:00:00 | 00:00:00 | 00:00:00 | |
| DL1NUX | 2026-08-31 14:41:13 | 51.11978 | 9.68303 | 63° | 86km/h | 7563m | -4.4m/s | 0°C | 0% | 0hPa | 0V | 00:00:00 | 00:00:00 | 00:00:00 | |
| DL1XH-west | 2026-08-31 14:41:12 | 51.12015 | 9.68396 | 57° | 97km/h | 7546m | -4.4m/s | -32°C | 0% | 0hPa | 4.5V | 00:00:00 | 00:00:00 | 00:00:00 | |
| NBG1-10 | 2026-08-31 14:41:10 | 51.12001 | 9.68363 | 59° | 97km/h | 7555m | -4.2m/s | 0°C | 0% | 0hPa | 4.4V | 00:00:00 | 00:00:00 | 00:00:00 | |
| DO2KSM | 2026-08-31 14:41:09 | 51.11989 | 9.68333 | 59° | 89km/h | 7555m | -4.2m/s | -32.0°C | 0% | 0hPa | 4.4V | 00:00:00 | 00:00:00 | 00:00:00 | |
| HSKMA3-T | 2026-08-31 14:41:08 | 51.11967 | 9.68272 | 63° | 86km/h | 7563m | -4.4m/s | -32.1°C | 0% | 0hPa | 4.4V | 00:00:00 | 00:00:00 | 00:00:00 | |
| DM0DOS-11 | 2026-08-31 14:41:06 | 51.11915 | 9.68062 | 68° | 106km/h | 7593m | -4.4m/s | 0°C | 0% | 0hPa | 0V | 00:00:00 | 00:00:00 | 00:00:00 | |
| DO2JMG | 2026-08-31 14:41:06 | 51.11949 | 9.68208 | 68° | 89km/h | 7572m | -4.2m/s | -32.2°C | 0% | 0hPa | 4.4V | 00:00:00 | 00:00:00 | 00:00:00 | |
| DO3DL | 2026-08-31 14:41:05 | 51.11949 | 9.68208 | 69° | 89km/h | 7572m | -4.2m/s | -32.2°C | 0% | 0hPa | 0V | 00:00:00 | 00:00:00 | 00:00:00 | |
| DL1NUX | 2026-08-31 14:41:03 | 51.11882 | 9.67943 | 62° | 110km/h | 7605m | -4.3m/s | 0°C | 0% | 0hPa | 0V | 00:00:00 | 00:00:00 | 00:00:00 | |
| DB0UT-7 | 2026-08-31 14:41:02 | 51.11924 | 9.68101 | 70° | 100km/h | 7589m | -4.2m/s | 0°C | 0% | 0hPa | 4.4V | 00:00:00 | 00:00:00 | 00:00:00 | |
| DL1XH-west | 2026-08-31 14:41:01 | 51.11915 | 9.68062 | 69° | 106km/h | 7588m | -4.2m/s | -32.5°C | 0% | 0hPa | 4.4V | 00:00:00 | 00:00:00 | 00:00:00 | |
| DB0NH | 2026-08-31 14:41:01 | 51.11915 | 9.68062 | 69° | 100km/h | 7593m | -4.3m/s | 0°C | 0% | 0hPa | 4.5V | 00:00:00 | 00:00:00 | 00:00:00 | |
| DM7RM-13 | 2026-08-31 14:40:58 | 51.11882 | 9.67943 | 64° | 110km/h | 7601m | -4.4m/s | -25.0°C | 0% | 0hPa | 4.5V | 00:00:00 | 00:00:00 | 00:00:00 | |
| BIOWL1-15 | 2026-08-31 14:40:57 | 51.11855 | 9.67868 | 59° | 104km/h | 7610m | -4.2m/s | -32.6°C | 0% | 0hPa | 4.5V | 00:00:00 | 00:00:00 | 00:00:00 | |
| DM0DOS-11 | 2026-08-31 14:40:56 | 51.11791 | 9.67704 | 63° | 89km/h | 7635m | -4.1m/s | 0°C | 0% | 0hPa | 0V | 00:00:00 | 00:00:00 | 00:00:00 | |
| DO2JMG | 2026-08-31 14:40:56 | 51.11842 | 9.67833 | 58° | 100km/h | 7614m | -4.2m/s | -32.5°C | 0% | 0hPa | 4.4V | 00:00:00 | 00:00:00 | 00:00:00 | |
| DL1NUX | 2026-08-31 14:40:53 | 51.11762 | 9.67605 | 67° | 93km/h | 7648m | -4.2m/s | 0°C | 0% | 0hPa | 0V | 00:00:00 | 00:00:00 | 00:00:00 | |
| DL1XH-west | 2026-08-31 14:40:51 | 51.11781 | 9.67672 | 64° | 89km/h | 7635m | -4.1m/s | -32.5°C | 0% | 0hPa | 4.5V | 00:00:00 | 00:00:00 | 00:00:00 | |
| DL1XH-15 | 2026-08-31 14:40:49 | 51.11726 | 9.67454 | 64° | 104km/h | 7664m | -4m/s | 0°C | 0% | 0hPa | 0V | 00:00:00 | 00:00:00 | 00:00:00 | |
| SO1NDE-10 | 2026-08-31 14:40:48 | 51.11762 | 9.67605 | 68° | 100km/h | 7648m | -4.2m/s | 0°C | 0% | 0hPa | 4.5V | 00:00:00 | 00:00:00 | 00:00:00 | |
| HSKMA3-T | 2026-08-31 14:40:46 | 51.11744 | 9.67534 | 70° | 99km/h | 7652m | -4.2m/s | -32.7°C | 0% | 0hPa | 4.5V | 00:00:00 | 00:00:00 | 00:00:00 | |
| DM0DOS-11 | 2026-08-31 14:40:46 | 51.11694 | 9.67342 | 64° | 106km/h | 7676m | -4.2m/s | 0°C | 0% | 0hPa | 0V | 00:00:00 | 00:00:00 | 00:00:00 | |
| AM1SDL-15 | 2026-08-31 14:40:44 | 51.11726 | 9.67458 | 68° | 106km/h | 7665m | -3.9m/s | 0°C | 0% | 0hPa | 4.4V | 00:00:00 | 00:00:00 | 00:00:00 | |
| DO3DL | 2026-08-31 14:40:42 | 51.11705 | 9.67380 | 67° | 106km/h | 7668m | -4.1m/s | -32.9°C | 0% | 0hPa | 4.4V | 00:00:00 | 00:00:00 | 00:00:00 | |
| DL1XH-west | 2026-08-31 14:40:40 | 51.11670 | 9.67268 | 62° | 104km/h | 7681m | -4.3m/s | -33°C | 0% | 0hPa | 4.4V | 00:00:00 | 00:00:00 | 00:00:00 | |
| DL1XH-15 | 2026-08-31 14:40:37 | 51.11583 | 9.67016 | 60° | 102km/h | 7713m | -4.1m/s | 0°C | 0% | 0hPa | 0V | 00:00:00 | 00:00:00 | 00:00:00 | |
| NBG1-10 | 2026-08-31 14:40:37 | 51.11645 | 9.67195 | 62° | 99km/h | 7693m | -3.9m/s | 0°C | 0% | 0hPa | 0V | 00:00:00 | 00:00:00 | 00:00:00 | |
| DM0DOS-11 | 2026-08-31 14:40:36 | 51.11570 | 9.66981 | 60° | 102km/h | 7717m | -4m/s | 0°C | 0% | 0hPa | 0V | 00:00:00 | 00:00:00 | 00:00:00 | |
| HSKMA3-T | 2026-08-31 14:40:36 | 51.11621 | 9.67123 | 61° | 102km/h | 7697m | -4.1m/s | -33.1°C | 0% | 0hPa | 4.4V | 00:00:00 | 00:00:00 | 00:00:00 | |
| DO3DL | 2026-08-31 14:40:35 | 51.11608 | 9.67088 | 61° | 102km/h | 7697m | -4.1m/s | -33.2°C | 0% | 0hPa | 0V | 00:00:00 | 00:00:00 | 00:00:00 | |
| DL1NUX | 2026-08-31 14:40:33 | 51.11532 | 9.66874 | 60° | 100km/h | 7729m | -4m/s | 0°C | 0% | 0hPa | 0V | 00:00:00 | 00:00:00 | 00:00:00 | |
| DL3OBA | 2026-08-31 14:40:33 | 51.11582 | 9.67016 | 61° | 102km/h | 7709m | -4.0m/s | -33.2°C | 0% | 0hPa | 0V | 00:00:00 | 00:00:00 | 00:00:00 | |
| DB0UT-7 | 2026-08-31 14:40:32 | 51.11582 | 9.67016 | 61° | 102km/h | 7713m | -4.0m/s | 0°C | 0% | 0hPa | 0V | 00:00:00 | 00:00:00 | 00:00:00 | |
| DB0NH | 2026-08-31 14:40:31 | 51.11570 | 9.66981 | 61° | 100km/h | 7717m | -3.9m/s | 0°C | 0% | 0hPa | 0V | 00:00:00 | 00:00:00 | 00:00:00 | |
| DO3DL | 2026-08-31 14:40:29 | 51.11532 | 9.66874 | 62° | 100km/h | 7725m | -3.9m/s | -33.2°C | 0% | 0hPa | 0V | 00:00:00 | 00:00:00 | 00:00:00 | |
| DL1XH-west | 2026-08-31 14:40:29 | 51.11532 | 9.66874 | 61° | 100km/h | 7725m | -3.9m/s | -33.2°C | 0% | 0hPa | 4.4V | 00:00:00 | 00:00:00 | 00:00:00 | |
| DO2KSM | 2026-08-31 14:40:28 | 51.11532 | 9.66874 | 62° | 100km/h | 7725m | -3.9m/s | -33.2°C | 0% | 0hPa | 0V | 00:00:00 | 00:00:00 | 00:00:00 | |
| DM0DOS-11 | 2026-08-31 14:40:26 | 51.11444 | 9.66634 | 59° | 95km/h | 7755m | -4m/s | 0°C | 0% | 0hPa | 0V | 00:00:00 | 00:00:00 | 00:00:00 | |
| BIOWL1-15 | 2026-08-31 14:40:24 | 51.11482 | 9.66735 | 60° | 99km/h | 7740m | -3.8m/s | -33.3°C | 0% | 0hPa | 4.4V | 00:00:00 | 00:00:00 | 00:00:00 | |
| DL1NUX | 2026-08-31 14:40:23 | 51.11409 | 9.66537 | 62° | 91km/h | 7767m | -3.8m/s | 0°C | 0% | 0hPa | 0V | 00:00:00 | 00:00:00 | 00:00:00 | |
| DO3DL | 2026-08-31 14:40:22 | 51.11456 | 9.66668 | 60° | 97km/h | 7748m | -3.7m/s | -33.3°C | 0% | 0hPa | 4.4V | 00:00:00 | 00:00:00 | 00:00:00 | |
| DL1XH-west | 2026-08-31 14:40:18 | 51.11409 | 9.66537 | 63° | 91km/h | 7763m | -4.1m/s | -33.4°C | 0% | 0hPa | 4.4V | 00:00:00 | 00:00:00 | 00:00:00 | |
| SO1NDE-10 | 2026-08-31 14:40:18 | 51.11409 | 9.66537 | 63° | 106km/h | 7767m | -3.8m/s | 0°C | 0% | 0hPa | 0V | 00:00:00 | 00:00:00 | 00:00:00 | |
| DJTTGO | 2026-08-31 14:40:17 | 51.11399 | 9.66504 | 66° | 91km/h | 7767m | -3.8m/s | -33.5°C | 0% | 0hPa | 0V | 00:00:00 | 00:00:00 | 00:00:00 | |
| DM0DOS-11 | 2026-08-31 14:40:16 | 51.11345 | 9.66284 | 68° | 110km/h | 7794m | -4m/s | 0°C | 0% | 0hPa | 0V | 00:00:00 | 00:00:00 | 00:00:00 | |
| BIOWL1-15 | 2026-08-31 14:40:14 | 51.11363 | 9.66364 | 71° | 100km/h | 7783m | -3.8m/s | -33.7°C | 0% | 0hPa | 4.4V | 00:00:00 | 00:00:00 | 00:00:00 | |
| DL1NUX | 2026-08-31 14:40:13 | 51.11310 | 9.66158 | 60° | 115km/h | 7806m | -4.2m/s | 0°C | 0% | 0hPa | 0V | 00:00:00 | 00:00:00 | 00:00:00 | |
| DL1XH-15 | 2026-08-31 14:40:12 | 51.11296 | 9.66119 | 60° | 113km/h | 7810m | -3.9m/s | 0°C | 0% | 0hPa | 0V | 00:00:00 | 00:00:00 | 00:00:00 | |
| DF2AP-13 | 2026-08-31 14:40:10 | 51.11334 | 9.66242 | 65° | 106km/h | 7798m | -4.0m/s | 0°C | 0% | 0hPa | 4.4V | 00:00:00 | 00:00:00 | 00:00:00 | |
| DO3DL | 2026-08-31 14:40:09 | 51.11323 | 9.66200 | 66° | 115km/h | 7798m | -4.0m/s | -34.0°C | 0% | 0hPa | 4.4V | 00:00:00 | 00:00:00 | 00:00:00 | |
| DL1XH-west | 2026-08-31 14:40:08 | 51.11296 | 9.66119 | 60° | 113km/h | 7806m | -4.2m/s | -34°C | 0% | 0hPa | 4.4V | 00:00:00 | 00:00:00 | 00:00:00 | |
| DO8TBO-1 | 2026-08-31 14:40:07 | 51.11267 | 9.66042 | 57° | 108km/h | 7818m | -4.0m/s | 0°C | 0% | 0hPa | 0V | 00:00:00 | 00:00:00 | 00:00:00 | |
| DM0DOS-11 | 2026-08-31 14:40:06 | 51.11212 | 9.65907 | 64° | 93km/h | 7834m | -3.9m/s | 0°C | 0% | 0hPa | 0V | 00:00:00 | 00:00:00 | 00:00:00 | |
| BIOWL1-15 | 2026-08-31 14:40:04 | 51.11237 | 9.65972 | 57° | 100km/h | 7822m | -4m/s | -34°C | 0% | 0hPa | 4.4V | 00:00:00 | 00:00:00 | 00:00:00 | |
| DL1NUX | 2026-08-31 14:40:03 | 51.11182 | 9.65800 | 69° | 100km/h | 7846m | -4m/s | 0°C | 0% | 0hPa | 0V | 00:00:00 | 00:00:00 | 00:00:00 | |
| DO3DL | 2026-08-31 14:40:03 | 51.11224 | 9.65939 | 59° | 97km/h | 7826m | -3.9m/s | -34.0°C | 0% | 0hPa | 0V | 00:00:00 | 00:00:00 | 00:00:00 | |
| DB0UT-7 | 2026-08-31 14:40:02 | 51.11224 | 9.65939 | 59° | 108km/h | 7830m | -3.9m/s | 0°C | 0% | 0hPa | 0V | 00:00:00 | 00:00:00 | 00:00:00 | |
| DL1XH-15 | 2026-08-31 14:40:01 | 51.11164 | 9.65721 | 69° | 110km/h | 7853m | -4m/s | 0°C | 0% | 0hPa | 0V | 00:00:00 | 00:00:00 | 00:00:00 | |
| DB0NH | 2026-08-31 14:40:01 | 51.11212 | 9.65907 | 65° | 108km/h | 7834m | -3.8m/s | 0°C | 0% | 0hPa | 4.4V | 00:00:00 | 00:00:00 | 00:00:00 | |
| DL1XH-west | 2026-08-31 14:39:56 | 51.11164 | 9.65721 | 70° | 110km/h | 7850m | -4m/s | -34.3°C | 0% | 0hPa | 4.4V | 00:00:00 | 00:00:00 | 00:00:00 | |
| DL3OBA | 2026-08-31 14:39:54 | 51.11143 | 9.65637 | 68° | 117km/h | 7858m | -4.1m/s | -34.3°C | 0% | 0hPa | 0V | 00:00:00 | 00:00:00 | 00:00:00 | |
| DL1NUX | 2026-08-31 14:39:53 | 51.11058 | 9.65390 | 55° | 108km/h | 7885m | -4m/s | 0°C | 0% | 0hPa | 0V | 00:00:00 | 00:00:00 | 00:00:00 | |
| DO2JMG | 2026-08-31 14:39:52 | 51.11118 | 9.65551 | 64° | 120km/h | 7866m | -4.1m/s | -35.2°C | 0% | 0hPa | 4.4V | 00:00:00 | 00:00:00 | 00:00:00 | |
| DL1XH-15 | 2026-08-31 14:39:51 | 51.11029 | 9.65323 | 60° | 97km/h | 7894m | -3.9m/s | 0°C | 0% | 0hPa | 0V | 00:00:00 | 00:00:00 | 00:00:00 | |
| DO3DL | 2026-08-31 14:39:49 | 51.11074 | 9.65428 | 58° | 113km/h | 7878m | -4.0m/s | -34.5°C | 0% | 0hPa | 4.4V | 00:00:00 | 00:00:00 | 00:00:00 | |
| SO1NDE-10 | 2026-08-31 14:39:48 | 51.11058 | 9.65390 | 56° | 108km/h | 7886m | -3.9m/s | 0°C | 0% | 0hPa | 4.4V | 00:00:00 | 00:00:00 | 00:00:00 | |
| DO2KSM | 2026-08-31 14:39:47 | 51.11043 | 9.65356 | 57° | 102km/h | 7886m | -4.0m/s | -34.5°C | 0% | 0hPa | 4.4V | 00:00:00 | 00:00:00 | 00:00:00 | |
| DL1XH-west | 2026-08-31 14:39:46 | 51.11017 | 9.65290 | 61° | 95km/h | 7894m | -3.9m/s | -34.5°C | 0% | 0hPa | 4.4V | 00:00:00 | 00:00:00 | 00:00:00 | |
| DL1NUX | 2026-08-31 14:39:43 | 51.10942 | 9.65016 | 63° | 120km/h | 7924m | -3.8m/s | 0°C | 0% | 0hPa | 0V | 00:00:00 | 00:00:00 | 00:00:00 | |
| BIOWL1-15 | 2026-08-31 14:39:42 | 51.10986 | 9.65183 | 69° | 102km/h | 7906m | -3.9m/s | -34.7°C | 0% | 0hPa | 4.4V | 00:00:00 | 00:00:00 | 00:00:00 | |
| HSKMA3-T | 2026-08-31 14:39:42 | 51.10977 | 9.65144 | 69° | 108km/h | 7909m | -3.8m/s | -34.7°C | 0% | 0hPa | 4.4V | 00:00:00 | 00:00:00 | 00:00:00 | |
| DL1XH-15 | 2026-08-31 14:39:41 | 51.10912 | 9.64932 | 58° | 119km/h | 7936m | -3.9m/s | 0°C | 0% | 0hPa | 0V | 00:00:00 | 00:00:00 | 00:00:00 | |
| DF2AP-13 | 2026-08-31 14:39:40 | 51.10966 | 9.65102 | 66° | 110km/h | 7917m | -3.7m/s | 0°C | 0% | 0hPa | 0V | 00:00:00 | 00:00:00 | 00:00:00 | |
| DO3DL | 2026-08-31 14:39:37 | 51.10912 | 9.64932 | 60° | 119km/h | 7929m | -3.9m/s | -34.8°C | 0% | 0hPa | 0V | 00:00:00 | 00:00:00 | 00:00:00 | |
| DM0DOS-11 | 2026-08-31 14:39:36 | 51.10836 | 9.64750 | 60° | 99km/h | 7951m | -3.8m/s | 0°C | 0% | 0hPa | 0V | 00:00:00 | 00:00:00 | 00:00:00 | |
| DL1XH-west | 2026-08-31 14:39:35 | 51.10897 | 9.64892 | 57° | 115km/h | 7932m | -3.8m/s | -34.8°C | 0% | 0hPa | 4.4V | 00:00:00 | 00:00:00 | 00:00:00 | |
| DL1NUX | 2026-08-31 14:39:33 | 51.10801 | 9.64647 | 64° | 99km/h | 7962m | -3.6m/s | 0°C | 0% | 0hPa | 0V | 00:00:00 | 00:00:00 | 00:00:00 | |
| DB0UT-7 | 2026-08-31 14:39:32 | 51.10850 | 9.64784 | 57° | 108km/h | 7947m | -3.8m/s | 0°C | 0% | 0hPa | 0V | 00:00:00 | 00:00:00 | 00:00:00 | |
| DL1XH-15 | 2026-08-31 14:39:31 | 51.10780 | 9.64572 | 65° | 106km/h | 8014m | -3.8m/s | 0°C | 0% | 0hPa | 0V | 00:00:00 | 00:00:00 | 00:00:00 | |
| HSKMA3-T | 2026-08-31 14:39:31 | 51.10824 | 9.64716 | 60° | 97km/h | 7951m | -3.8m/s | -34.8°C | 0% | 0hPa | 4.4V | 00:00:00 | 00:00:00 | 00:00:00 | |
| DO3DL | 2026-08-31 14:39:30 | 51.10824 | 9.64716 | 61° | 97km/h | 7951m | -3.8m/s | -34.8°C | 0% | 0hPa | 0V | 00:00:00 | 00:00:00 | 00:00:00 | |
| DJTTGO | 2026-08-31 14:39:29 | 51.10812 | 9.64682 | 64° | 97km/h | 7955m | -3.8m/s | -34.8°C | 0% | 0hPa | 0V | 00:00:00 | 00:00:00 | 00:00:00 | |
| DO2KSM | 2026-08-31 14:39:27 | 51.10790 | 9.64610 | 67° | 102km/h | 7962m | -3.6m/s | -34.9°C | 0% | 0hPa | 0V | 00:00:00 | 00:00:00 | 00:00:00 | |
| DM0DOS-11 | 2026-08-31 14:39:26 | 51.10718 | 9.64367 | 61° | 117km/h | 7988m | -3.8m/s | 0°C | 0% | 0hPa | 0V | 00:00:00 | 00:00:00 | 00:00:00 | |
| DL1XH-west | 2026-08-31 14:39:25 | 51.10757 | 9.64492 | 65° | 113km/h | 7973m | -3.8m/s | -35°C | 0% | 0hPa | 4.4V | 00:00:00 | 00:00:00 | 00:00:00 | |
| DO3DL | 2026-08-31 14:39:23 | 51.10744 | 9.64450 | 65° | 115km/h | 7977m | -3.6m/s | -35.0°C | 0% | 0hPa | 4.4V | 00:00:00 | 00:00:00 | 00:00:00 | |
| HSKMA3-T | 2026-08-31 14:39:20 | 51.10689 | 9.64285 | 60° | 119km/h | 7992m | -3.9m/s | -35.2°C | 0% | 0hPa | 4.4V | 00:00:00 | 00:00:00 | 00:00:00 | |
| SO1NDE-10 | 2026-08-31 14:39:18 | 51.10673 | 9.64243 | 58° | 111km/h | 7999m | -3.7m/s | 0°C | 0% | 0hPa | 0V | 00:00:00 | 00:00:00 | 00:00:00 | |
| DM0DOS-11 | 2026-08-31 14:39:16 | 51.10565 | 9.63986 | 56° | 102km/h | 8025m | -3.8m/s | 0°C | 0% | 0hPa | 0V | 00:00:00 | 00:00:00 | 00:00:00 | |
| DL1XH-west | 2026-08-31 14:39:14 | 51.10610 | 9.64092 | 56° | 110km/h | 8010m | -3.6m/s | -35.2°C | 0% | 0hPa | 4.4V | 00:00:00 | 00:00:00 | 00:00:00 | |
| DO3DL | 2026-08-31 14:39:11 | 51.10565 | 9.63986 | 58° | 102km/h | 8021m | -3.7m/s | -35.1°C | 0% | 0hPa | 4.4V | 00:00:00 | 00:00:00 | 00:00:00 | |
| DO2JMG | 2026-08-31 14:39:10 | 51.10551 | 9.63952 | 58° | 102km/h | 8025m | -3.8m/s | -35.1°C | 0% | 0hPa | 4.4V | 00:00:00 | 00:00:00 | 00:00:00 | |
| DF2AP-13 | 2026-08-31 14:39:10 | 51.10551 | 9.63952 | 60° | 106km/h | 8029m | -3.6m/s | 0°C | 0% | 0hPa | 4.4V | 00:00:00 | 00:00:00 | 00:00:00 | |
| BIOWL1-15 | 2026-08-31 14:39:09 | 51.10538 | 9.63917 | 59° | 100km/h | 8029m | -3.7m/s | -35.1°C | 0% | 0hPa | 4.4V | 00:00:00 | 00:00:00 | 00:00:00 | |
| DO2KSM | 2026-08-31 14:39:06 | 51.10500 | 9.63810 | 64° | 104km/h | 8039m | -3.5m/s | -35.2°C | 0% | 0hPa | 0V | 00:00:00 | 00:00:00 | 00:00:00 | |
| DJTTGO | 2026-08-31 14:39:05 | 51.10488 | 9.63772 | 65° | 104km/h | 8043m | -3.6m/s | -35.3°C | 0% | 0hPa | 0V | 00:00:00 | 00:00:00 | 00:00:00 | |
| DO3DL | 2026-08-31 14:39:04 | 51.10477 | 9.63734 | 65° | 106km/h | 8046m | -3.7m/s | -35.3°C | 0% | 0hPa | 0V | 00:00:00 | 00:00:00 | 00:00:00 | |
| DL1NUX | 2026-08-31 14:39:03 | 51.10404 | 9.63490 | 63° | 117km/h | 8071m | -3.7m/s | 0°C | 0% | 0hPa | 0V | 00:00:00 | 00:00:00 | 00:00:00 | |
| DL1XH-west | 2026-08-31 14:39:03 | 51.10454 | 9.63655 | 65° | 110km/h | 8053m | -3.6m/s | -35.4°C | 0% | 0hPa | 4.4V | 00:00:00 | 00:00:00 | 00:00:00 | |
| DB0UT-7 | 2026-08-31 14:39:02 | 51.10453 | 9.63655 | 65° | 111km/h | 8057m | -3.7m/s | 0°C | 0% | 0hPa | 4.4V | 00:00:00 | 00:00:00 | 00:00:00 | |
| DB0NH | 2026-08-31 14:39:01 | 51.10442 | 9.63615 | 65° | 111km/h | 8061m | -3.5m/s | 0°C | 0% | 0hPa | 4.4V | 00:00:00 | 00:00:00 | 00:00:00 | |
| BIOWL1-15 | 2026-08-31 14:38:59 | 51.10404 | 9.63490 | 63° | 117km/h | 8068m | -3.7m/s | -35.6°C | 0% | 0hPa | 4.4V | 00:00:00 | 00:00:00 | 00:00:00 | |
| NBG1-10 | 2026-08-31 14:38:58 | 51.10404 | 9.63490 | 64° | 108km/h | 8096m | -3.4m/s | 0°C | 0% | 0hPa | 0V | 00:00:00 | 00:00:00 | 00:00:00 | |
| DM0DOS-11 | 2026-08-31 14:38:56 | 51.10299 | 9.63201 | 57° | 117km/h | 8096m | -3.4m/s | 0°C | 0% | 0hPa | 0V | 00:00:00 | 00:00:00 | 00:00:00 | |
| AM1SDL-15 | 2026-08-31 14:38:56 | 51.10376 | 9.63406 | 62° | 106km/h | 8086m | -3.4m/s | 0°C | 0% | 0hPa | 0V | 00:00:00 | 00:00:00 | 00:00:00 | |
| DL1NUX | 2026-08-31 14:38:53 | 51.10252 | 9.63086 | 56° | 110km/h | 8106m | -3.5m/s | 0°C | 0% | 0hPa | 0V | 00:00:00 | 00:00:00 | 00:00:00 | |
| DL1XH-west | 2026-08-31 14:38:52 | 51.10299 | 9.63201 | 57° | 117km/h | 8092m | -3.5m/s | -35.7°C | 0% | 0hPa | 4.4V | 00:00:00 | 00:00:00 | 00:00:00 | |
| DO3DL | 2026-08-31 14:38:52 | 51.10299 | 9.63201 | 58° | 117km/h | 8093m | -3.5m/s | -35.7°C | 0% | 0hPa | 4.4V | 00:00:00 | 00:00:00 | 00:00:00 | |
| DC6BW-12 | 2026-08-31 14:38:51 | 51.10299 | 9.63201 | 58° | 117km/h | 8093m | -3.5m/s | -35.7°C | 0% | 0hPa | 4.4V | 00:00:00 | 00:00:00 | 00:00:00 | |
| SO1NDE-10 | 2026-08-31 14:38:48 | 51.10252 | 9.63086 | 57° | 108km/h | 8106m | -3.5m/s | 0°C | 0% | 0hPa | 4.4V | 00:00:00 | 00:00:00 | 00:00:00 | |
| BIOWL1-15 | 2026-08-31 14:38:47 | 51.10237 | 9.63049 | 57° | 108km/h | 8106m | -3.5m/s | -35.7°C | 0% | 0hPa | 4.4V | 00:00:00 | 00:00:00 | 00:00:00 | |
| DM0DOS-11 | 2026-08-31 14:38:46 | 51.10155 | 9.62833 | 61° | 104km/h | 8131m | -3.5m/s | 0°C | 0% | 0hPa | 0V | 00:00:00 | 00:00:00 | 00:00:00 | |
| DO3DL | 2026-08-31 14:38:45 | 51.10208 | 9.62977 | 59° | 106km/h | 8113m | -3.5m/s | -35.8°C | 0% | 0hPa | 0V | 00:00:00 | 00:00:00 | 00:00:00 | |
| DL1XH-15 | 2026-08-31 14:38:42 | 51.10106 | 9.62683 | 64° | 108km/h | 8145m | -3.4m/s | 0°C | 0% | 0hPa | 0V | 00:00:00 | 00:00:00 | 00:00:00 | |
| DL1XH-west | 2026-08-31 14:38:41 | 51.10155 | 9.62833 | 61° | 104km/h | 8127m | -3.5m/s | -35.9°C | 0% | 0hPa | 4.4V | 00:00:00 | 00:00:00 | 00:00:00 | |
| DF2AP-13 | 2026-08-31 14:38:40 | 51.10142 | 9.62796 | 62° | 110km/h | 8134m | -3.5m/s | 0°C | 0% | 0hPa | 4.4V | 00:00:00 | 00:00:00 | 00:00:00 | |
| DO2JMG | 2026-08-31 14:38:39 | 51.10130 | 9.62759 | 63° | 104km/h | 8134m | -3.6m/s | -36°C | 0% | 0hPa | 4.4V | 00:00:00 | 00:00:00 | 00:00:00 | |
| DO3DL | 2026-08-31 14:38:39 | 51.10118 | 9.62721 | 64° | 106km/h | 8138m | -3.5m/s | -35.9°C | 0% | 0hPa | 4.4V | 00:00:00 | 00:00:00 | 00:00:00 | |
| HSKMA3-T | 2026-08-31 14:38:37 | 51.10094 | 9.62644 | 64° | 110km/h | 8145m | -3.4m/s | -36°C | 0% | 0hPa | 4.4V | 00:00:00 | 00:00:00 | 00:00:00 | |
| DM0DOS-11 | 2026-08-31 14:38:36 | 51.10035 | 9.62442 | 64° | 110km/h | 8166m | -3.4m/s | 0°C | 0% | 0hPa | 0V | 00:00:00 | 00:00:00 | 00:00:00 | |
| DL3OBA | 2026-08-31 14:38:35 | 51.10082 | 9.62563 | 66° | 111km/h | 8152m | -3.5m/s | -36.1°C | 0% | 0hPa | 0V | 00:00:00 | 00:00:00 | 00:00:00 | |
| DL1NUX | 2026-08-31 14:38:33 | 51.09999 | 9.62326 | 63° | 106km/h | 8176m | -3.5m/s | 0°C | 0% | 0hPa | 0V | 00:00:00 | 00:00:00 | 00:00:00 | |
| DB0UT-7 | 2026-08-31 14:38:32 | 51.10046 | 9.62483 | 65° | 113km/h | 8162m | -3.5m/s | 0°C | 0% | 0hPa | 4.4V | 00:00:00 | 00:00:00 | 00:00:00 | |
| DB0NH | 2026-08-31 14:38:31 | 51.10034 | 9.62442 | 65° | 113km/h | 8166m | -3.4m/s | 0°C | 0% | 0hPa | 4.4V | 00:00:00 | 00:00:00 | 00:00:00 | |
| DL1XH-west | 2026-08-31 14:38:30 | 51.10023 | 9.62403 | 64° | 108km/h | 8166m | -3.4m/s | -36.1°C | 0% | 0hPa | 4.4V | 00:00:00 | 00:00:00 | 00:00:00 | |
| DO2JMG | 2026-08-31 14:38:28 | 51.09999 | 9.62326 | 64° | 106km/h | 8172m | -3.4m/s | -36.2°C | 0% | 0hPa | 4.4V | 00:00:00 | 00:00:00 | 00:00:00 | |
| BIOWL1-15 | 2026-08-31 14:38:28 | 51.09936 | 9.62138 | 60° | 106km/h | 8189m | -3.3m/s | -36.3°C | 0% | 0hPa | 4.4V | 00:00:00 | 00:00:00 | 00:00:00 | |
| AM1SDL-15 | 2026-08-31 14:38:27 | 51.09987 | 9.62288 | 64° | 108km/h | 8179m | -3.3m/s | 0°C | 0% | 0hPa | 4.4V | 00:00:00 | 00:00:00 | 00:00:00 | |
| HSKMA3-T | 2026-08-31 14:38:26 | 51.09975 | 9.62250 | 62° | 106km/h | 8179m | -3.4m/s | -36.3°C | 0% | 0hPa | 4.4V | 00:00:00 | 00:00:00 | 00:00:00 | |
| DM0DOS-11 | 2026-08-31 14:38:26 | 51.09909 | 9.62064 | 59° | 108km/h | 8199m | -3.4m/s | 0°C | 0% | 0hPa | 0V | 00:00:00 | 00:00:00 | 00:00:00 | |
| BIOWL7-15 | 2026-08-31 14:38:26 | 51.09962 | 9.62212 | 63° | 106km/h | 8183m | -3.4m/s | -36.3°C | 0% | 0hPa | 0V | 00:00:00 | 00:00:00 | 00:00:00 | |
| NBG1-10 | 2026-08-31 14:38:25 | 51.09962 | 9.62212 | 62° | 110km/h | 8186m | -3.3m/s | 0°C | 0% | 0hPa | 0V | 00:00:00 | 00:00:00 | 00:00:00 | |
| DL1XH-15 | 2026-08-31 14:38:22 | 51.09851 | 9.61916 | 57° | 2km/h | 8216m | -3.5m/s | 0°C | 0% | 0hPa | 0V | 00:00:00 | 00:00:00 | 00:00:00 | |
| DM7RM-13 | 2026-08-31 14:38:21 | 51.09909 | 9.62064 | 60° | 108km/h | 8199m | -3.4m/s | -29.2°C | 0% | 0hPa | 4.4V | 00:00:00 | 00:00:00 | 00:00:00 | |
| DL1XH-west | 2026-08-31 14:38:20 | 51.09881 | 9.61990 | 58° | 110km/h | 8202m | -3.4m/s | -36.5°C | 0% | 0hPa | 4.4V | 00:00:00 | 00:00:00 | 00:00:00 | |
| DO3DL | 2026-08-31 14:38:19 | 51.09881 | 9.61990 | 59° | 110km/h | 8202m | -3.4m/s | -36.5°C | 0% | 0hPa | 4.4V | 00:00:00 | 00:00:00 | 00:00:00 | |
| DO2JMG | 2026-08-31 14:38:18 | 51.09851 | 9.61916 | 58° | 110km/h | 8209m | -3.5m/s | -36.6°C | 0% | 0hPa | 4.4V | 00:00:00 | 00:00:00 | 00:00:00 | |
| DL1CLM-18 | 2026-08-31 14:38:17 | 51.09851 | 9.61916 | 59° | 110km/h | 8209m | -3.5m/s | -36.6°C | 0% | 0hPa | 0V | 00:00:00 | 00:00:00 | 00:00:00 | |
| DM0DOS-11 | 2026-08-31 14:38:16 | 51.09757 | 9.61686 | 57° | 119km/h | 8236m | -3.5m/s | 0°C | 0% | 0hPa | 0V | 00:00:00 | 00:00:00 | 00:00:00 | |
| HSKMA3-T | 2026-08-31 14:38:16 | 51.09821 | 9.61841 | 57° | 113km/h | 8216m | -3.5m/s | -36.7°C | 0% | 0hPa | 4.4V | 00:00:00 | 00:00:00 | 00:00:00 | |
| BIOWL1-15 | 2026-08-31 14:38:15 | 51.09789 | 9.61764 | 57° | 115km/h | 8223m | -3.4m/s | -36.8°C | 0% | 0hPa | 4.4V | 00:00:00 | 00:00:00 | 00:00:00 | |
| AM1SDL-15 | 2026-08-31 14:38:15 | 51.09821 | 9.61840 | 57° | 119km/h | 8220m | -3.3m/s | 0°C | 0% | 0hPa | 0V | 00:00:00 | 00:00:00 | 00:00:00 | |
| DL1NUX | 2026-08-31 14:38:13 | 51.09708 | 9.61563 | 58° | 122km/h | 8247m | -3.3m/s | 0°C | 0% | 0hPa | 0V | 00:00:00 | 00:00:00 | 00:00:00 | |
| DO3DL | 2026-08-31 14:38:13 | 51.09773 | 9.61725 | 58° | 117km/h | 8226m | -3.4m/s | -36.8°C | 0% | 0hPa | 4.4V | 00:00:00 | 00:00:00 | 00:00:00 | |
| DF2AP-13 | 2026-08-31 14:38:10 | 51.09741 | 9.61646 | 58° | 117km/h | 8236m | -3.4m/s | 0°C | 0% | 0hPa | 4.4V | 00:00:00 | 00:00:00 | 00:00:00 | |
| DL1XH-west | 2026-08-31 14:38:09 | 51.09708 | 9.61563 | 59° | 122km/h | 8240m | -3.5m/s | -36.9°C | 0% | 0hPa | 4.4V | 00:00:00 | 00:00:00 | 00:00:00 | |
| DJTTGO | 2026-08-31 14:38:08 | 51.09708 | 9.61563 | 60° | 122km/h | 8240m | -3.5m/s | -36.9°C | 0% | 0hPa | 4.4V | 00:00:00 | 00:00:00 | 00:00:00 | |
| DO2JMG | 2026-08-31 14:38:07 | 51.09677 | 9.61477 | 61° | 124km/h | 8247m | -3.4m/s | -36.9°C | 0% | 0hPa | 4.4V | 00:00:00 | 00:00:00 | 00:00:00 | |
| DO3DL | 2026-08-31 14:38:06 | 51.09677 | 9.61477 | 62° | 124km/h | 8247m | -3.3m/s | -36.9°C | 0% | 0hPa | 4.4V | 00:00:00 | 00:00:00 | 00:00:00 | |
| HSKMA3-T | 2026-08-31 14:38:05 | 51.09648 | 9.61389 | 63° | 122km/h | 8254m | -3.5m/s | -36.9°C | 0% | 0hPa | 4.4V | 00:00:00 | 00:00:00 | 00:00:00 | |
| BIOWL1-15 | 2026-08-31 14:38:05 | 51.09621 | 9.61301 | 65° | 120km/h | 8260m | -3.5m/s | -36.9°C | 0% | 0hPa | 4.4V | 00:00:00 | 00:00:00 | 00:00:00 | |
| DL1NUX | 2026-08-31 14:38:03 | 51.09573 | 9.61133 | 64° | 110km/h | 8277m | -3.4m/s | 0°C | 0% | 0hPa | 0V | 00:00:00 | 00:00:00 | 00:00:00 | |
| DB0UT-7 | 2026-08-31 14:38:02 | 51.09621 | 9.61301 | 65° | 117km/h | 8264m | -3.4m/s | 0°C | 0% | 0hPa | 4.4V | 00:00:00 | 00:00:00 | 00:00:00 | |
| DB0NH | 2026-08-31 14:38:01 | 51.09608 | 9.61256 | 66° | 115km/h | 8267m | -3.4m/s | 0°C | 0% | 0hPa | 4.4V | 00:00:00 | 00:00:00 | 00:00:00 | |
| DO3DL | 2026-08-31 14:38:00 | 51.09584 | 9.61173 | 66° | 111km/h | 8271m | -3.4m/s | -37.0°C | 0% | 0hPa | 4.4V | 00:00:00 | 00:00:00 | 00:00:00 | |
| DL1XH-west | 2026-08-31 14:37:59 | 51.09573 | 9.61133 | 65° | 110km/h | 8274m | -3.4m/s | -37°C | 0% | 0hPa | 4.4V | 00:00:00 | 00:00:00 | 00:00:00 | |
| DL1XH-15 | 2026-08-31 14:37:56 | 51.09480 | 9.60870 | 56° | 110km/h | 8301m | -3.5m/s | 0°C | 0% | 0hPa | 0V | 00:00:00 | 00:00:00 | 00:00:00 | |
| DO2JMG | 2026-08-31 14:37:56 | 51.09536 | 9.61017 | 61° | 106km/h | 8284m | -3.3m/s | -37.1°C | 0% | 0hPa | 4.4V | 00:00:00 | 00:00:00 | 00:00:00 | |
| HSKMA3-T | 2026-08-31 14:37:54 | 51.09509 | 9.60944 | 59° | 106km/h | 8291m | -3.3m/s | -37.2°C | 0% | 0hPa | 4.4V | 00:00:00 | 00:00:00 | 00:00:00 | |
| DL1NUX | 2026-08-31 14:37:53 | 51.09432 | 9.60758 | 56° | 117km/h | 8311m | -3.5m/s | 0°C | 0% | 0hPa | 0V | 00:00:00 | 00:00:00 | 00:00:00 | |
| BIOWL1-15 | 2026-08-31 14:37:52 | 51.09480 | 9.60870 | 57° | 110km/h | 8297m | -3.5m/s | -37.4°C | 0% | 0hPa | 4.4V | 00:00:00 | 00:00:00 | 00:00:00 | |
| AM1SDL-15 | 2026-08-31 14:37:51 | 51.09480 | 9.60870 | 57° | 119km/h | 8301m | -3.4m/s | 0°C | 0% | 0hPa | 4.4V | 00:00:00 | 00:00:00 | 00:00:00 | |
| SO1NDE-10 | 2026-08-31 14:37:48 | 51.09432 | 9.60758 | 57° | 117km/h | 8311m | -3.4m/s | 0°C | 0% | 0hPa | 4.4V | 00:00:00 | 00:00:00 | 00:00:00 | |
| DL1XH-west | 2026-08-31 14:37:47 | 51.09415 | 9.60718 | 56° | 119km/h | 8311m | -3.5m/s | -37.6°C | 0% | 0hPa | 4.4V | 00:00:00 | 00:00:00 | 00:00:00 | |
| DO3DL | 2026-08-31 14:37:47 | 51.09398 | 9.60678 | 58° | 120km/h | 8314m | -3.3m/s | -37.6°C | 0% | 0hPa | 0V | 00:00:00 | 00:00:00 | 00:00:00 | |
| DM0DOS-11 | 2026-08-31 14:37:46 | 51.09319 | 9.60466 | 62° | 124km/h | 8335m | -3.3m/s | 0°C | 0% | 0hPa | 0V | 00:00:00 | 00:00:00 | 00:00:00 | |
| DO2JMG | 2026-08-31 14:37:45 | 51.09382 | 9.60637 | 58° | 122km/h | 8318m | -3.3m/s | -37.6°C | 0% | 0hPa | 4.4V | 00:00:00 | 00:00:00 | 00:00:00 | |
| DF8AY | 2026-08-31 14:37:44 | 51.09349 | 9.60553 | 60° | 124km/h | 8324m | -3.4m/s | -37.6°C | 0% | 0hPa | 4.4V | 00:00:00 | 00:00:00 | 00:00:00 | |
| DL1NUX | 2026-08-31 14:37:43 | 51.09275 | 9.60335 | 63° | 122km/h | 8345m | -3.4m/s | 0°C | 0% | 0hPa | 0V | 00:00:00 | 00:00:00 | 00:00:00 | |
| BIOWL1-15 | 2026-08-31 14:37:41 | 51.09304 | 9.60422 | 62° | 122km/h | 8335m | -3.3m/s | -37.6°C | 0% | 0hPa | 4.4V | 00:00:00 | 00:00:00 | 00:00:00 | |
| DF2AP-13 | 2026-08-31 14:37:40 | 51.09304 | 9.60422 | 63° | 113km/h | 8362m | -3.4m/s | 0°C | 0% | 0hPa | 4.4V | 00:00:00 | 00:00:00 | 00:00:00 | |
| AM1SDL-15 | 2026-08-31 14:37:39 | 51.09290 | 9.60378 | 64° | 115km/h | 8341m | -3.2m/s | 0°C | 0% | 0hPa | 4.4V | 00:00:00 | 00:00:00 | 00:00:00 | |
| DL1XH-west | 2026-08-31 14:37:36 | 51.09249 | 9.60247 | 64° | 120km/h | 8348m | -3.3m/s | -37.6°C | 0% | 0hPa | 4.4V | 00:00:00 | 00:00:00 | 00:00:00 | |
| DO2JMG | 2026-08-31 14:37:35 | 51.09223 | 9.60162 | 65° | 117km/h | 8355m | -3.3m/s | -37.7°C | 0% | 0hPa | 4.4V | 00:00:00 | 00:00:00 | 00:00:00 | |
| DO3DL | 2026-08-31 14:37:34 | 51.09223 | 9.60162 | 66° | 117km/h | 8355m | -3.3m/s | -37.7°C | 0% | 0hPa | 0V | 00:00:00 | 00:00:00 | 00:00:00 | |
| DL1NUX | 2026-08-31 14:37:33 | 51.09149 | 9.59923 | 59° | 106km/h | 8378m | -3.2m/s | 0°C | 0% | 0hPa | 0V | 00:00:00 | 00:00:00 | 00:00:00 | |
| HSKMA3-T | 2026-08-31 14:37:33 | 51.09199 | 9.60079 | 65° | 111km/h | 8362m | -3.4m/s | -37.8°C | 0% | 0hPa | 4.4V | 00:00:00 | 00:00:00 | 00:00:00 | |
| BIOWL1-15 | 2026-08-31 14:37:32 | 51.09174 | 9.59999 | 63° | 108km/h | 8368m | -3.3m/s | -37.8°C | 0% | 0hPa | 4.4V | 00:00:00 | 00:00:00 | 00:00:00 | |
| DL3OBA | 2026-08-31 14:37:32 | 51.09186 | 9.60038 | 65° | 110km/h | 8365m | -3.2m/s | -37.8°C | 0% | 0hPa | 0V | 00:00:00 | 00:00:00 | 00:00:00 | |
| DB0NH | 2026-08-31 14:37:31 | 51.09186 | 9.60038 | 65° | 115km/h | 8369m | -3.3m/s | 0°C | 0% | 0hPa | 0V | 00:00:00 | 00:00:00 | 00:00:00 | |
| AM1SDL-15 | 2026-08-31 14:37:27 | 51.09135 | 9.59886 | 60° | 117km/h | 8382m | -3.2m/s | 0°C | 0% | 0hPa | 0V | 00:00:00 | 00:00:00 | 00:00:00 | |
| DL1XH-15 | 2026-08-31 14:37:26 | 51.09042 | 9.59659 | 56° | 119km/h | 8401m | -3.4m/s | 0°C | 0% | 0hPa | 0V | 00:00:00 | 00:00:00 | 00:00:00 | |
| DL1XH-west | 2026-08-31 14:37:26 | 51.09107 | 9.59812 | 57° | 110km/h | 8385m | -3.2m/s | -38.1°C | 0% | 0hPa | 4.4V | 00:00:00 | 00:00:00 | 00:00:00 | |
| DO2JMG | 2026-08-31 14:37:24 | 51.09075 | 9.59737 | 56° | 115km/h | 8391m | -3.4m/s | -38.1°C | 0% | 0hPa | 4.4V | 00:00:00 | 00:00:00 | 00:00:00 | |
| HSKMA3-T | 2026-08-31 14:37:22 | 51.09042 | 9.59659 | 56° | 119km/h | 8398m | -3.4m/s | -38.2°C | 0% | 0hPa | 4.4V | 00:00:00 | 00:00:00 | 00:00:00 | |
| DO3DL | 2026-08-31 14:37:21 | 51.09042 | 9.59659 | 57° | 119km/h | 8398m | -3.4m/s | -38.2°C | 0% | 0hPa | 4.4V | 00:00:00 | 00:00:00 | 00:00:00 | |
| BIOWL1-15 | 2026-08-31 14:37:20 | 51.09009 | 9.59577 | 58° | 122km/h | 8404m | -3.2m/s | -38.2°C | 0% | 0hPa | 4.4V | 00:00:00 | 00:00:00 | 00:00:00 | |
| NBG1-10 | 2026-08-31 14:37:19 | 51.09008 | 9.59577 | 59° | 117km/h | 8411m | -3.2m/s | 0°C | 0% | 0hPa | 4.4V | 00:00:00 | 00:00:00 | 00:00:00 | |
| SO1NDE-10 | 2026-08-31 14:37:18 | 51.08992 | 9.59534 | 60° | 117km/h | 8411m | -3.2m/s | 0°C | 0% | 0hPa | 4.4V | 00:00:00 | 00:00:00 | 00:00:00 | |
| DL1XH-west | 2026-08-31 14:37:15 | 51.08946 | 9.59403 | 62° | 124km/h | 8417m | -3.3m/s | -38.2°C | 0% | 0hPa | 4.4V | 00:00:00 | 00:00:00 | 00:00:00 | |
| AM1SDL-15 | 2026-08-31 14:37:15 | 51.08945 | 9.59403 | 63° | 117km/h | 8421m | -3.3m/s | 0°C | 0% | 0hPa | 0V | 00:00:00 | 00:00:00 | 00:00:00 | |
| DO3DL | 2026-08-31 14:37:14 | 51.08931 | 9.59358 | 64° | 124km/h | 8421m | -3.4m/s | -38.2°C | 0% | 0hPa | 0V | 00:00:00 | 00:00:00 | 00:00:00 | |
| DL1NUX | 2026-08-31 14:37:13 | 51.08854 | 9.59098 | 65° | 113km/h | 8444m | -3.4m/s | 0°C | 0% | 0hPa | 0V | 00:00:00 | 00:00:00 | 00:00:00 | |
| DO2JMG | 2026-08-31 14:37:13 | 51.08904 | 9.59270 | 64° | 122km/h | 8427m | -3.3m/s | -38.3°C | 0% | 0hPa | 4.4V | 00:00:00 | 00:00:00 | 00:00:00 | |
| HSKMA3-T | 2026-08-31 14:37:11 | 51.08878 | 9.59183 | 65° | 119km/h | 8434m | -3.4m/s | -38.3°C | 0% | 0hPa | 4.4V | 00:00:00 | 00:00:00 | 00:00:00 | |
| DF2AP-13 | 2026-08-31 14:37:09 | 51.08865 | 9.59140 | 66° | 117km/h | 8437m | -3.3m/s | 0°C | 0% | 0hPa | 0V | 00:00:00 | 00:00:00 | 00:00:00 | |
| BIOWL1-15 | 2026-08-31 14:37:09 | 51.08854 | 9.59098 | 66° | 113km/h | 8441m | -3.5m/s | -38.4°C | 0% | 0hPa | 4.4V | 00:00:00 | 00:00:00 | 00:00:00 | |
| DO3DL | 2026-08-31 14:37:08 | 51.08853 | 9.59098 | 67° | 113km/h | 8447m | -3.4m/s | -38.4°C | 0% | 0hPa | 0V | 00:00:00 | 00:00:00 | 00:00:00 | |
| DL1XH-15 | 2026-08-31 14:37:05 | 51.08750 | 9.58786 | 57° | 111km/h | 8470m | -3.3m/s | 0°C | 0% | 0hPa | 0V | 00:00:00 | 00:00:00 | 00:00:00 | |
| DL1XH-west | 2026-08-31 14:37:05 | 51.08805 | 9.58938 | 62° | 108km/h | 8454m | -3.3m/s | -38.4°C | 0% | 0hPa | 4.4V | 00:00:00 | 00:00:00 | 00:00:00 | |
| DO8TBO-1 | 2026-08-31 14:37:05 | 51.08818 | 9.58977 | 63° | 117km/h | 8454m | -3.3m/s | 0°C | 0% | 0hPa | 4.4V | 00:00:00 | 00:00:00 | 00:00:00 | |
| DM7RM-13 | 2026-08-31 14:37:04 | 51.08805 | 9.58938 | 63° | 108km/h | 8454m | -3.3m/s | -31.2°C | 0% | 0hPa | 4.4V | 00:00:00 | 00:00:00 | 00:00:00 | |
| AM1SDL-15 | 2026-08-31 14:37:03 | 51.08792 | 9.58900 | 61° | 115km/h | 8460m | -3.1m/s | 0°C | 0% | 0hPa | 4.4V | 00:00:00 | 00:00:00 | 00:00:00 | |
| DO2JMG | 2026-08-31 14:37:02 | 51.08779 | 9.58862 | 60° | 110km/h | 8460m | -3.2m/s | -38.5°C | 0% | 0hPa | 4.4V | 00:00:00 | 00:00:00 | 00:00:00 | |
| DB0UT-7 | 2026-08-31 14:37:02 | 51.08779 | 9.58862 | 60° | 119km/h | 8463m | -3.2m/s | 0°C | 0% | 0hPa | 4.4V | 00:00:00 | 00:00:00 | 00:00:00 | |
| DB0NH | 2026-08-31 14:37:01 | 51.08764 | 9.58824 | 59° | 117km/h | 8467m | -3.3m/s | 0°C | 0% | 0hPa | 4.4V | 00:00:00 | 00:00:00 | 00:00:00 | |
| HSKMA3-T | 2026-08-31 14:37:00 | 51.08734 | 9.58748 | 58° | 113km/h | 8470m | -3.3m/s | -38.6°C | 0% | 0hPa | 4.4V | 00:00:00 | 00:00:00 | 00:00:00 | |
| BIOWL1-15 | 2026-08-31 14:37:00 | 51.08703 | 9.58670 | 57° | 115km/h | 8476m | -3.2m/s | -38.8°C | 0% | 0hPa | 4.4V | 00:00:00 | 00:00:00 | 00:00:00 | |
| DO3DL | 2026-08-31 14:36:59 | 51.08734 | 9.58747 | 59° | 113km/h | 8470m | -3.3m/s | -38.6°C | 0% | 0hPa | 0V | 00:00:00 | 00:00:00 | 00:00:00 | |
| DM0DOS-11 | 2026-08-31 14:36:56 | 51.08607 | 9.58430 | 58° | 122km/h | 8499m | -3.4m/s | 0°C | 0% | 0hPa | 0V | 00:00:00 | 00:00:00 | 00:00:00 | |
| DL1XH-15 | 2026-08-31 14:36:55 | 51.08591 | 9.58388 | 58° | 122km/h | 8506m | -3.3m/s | 0°C | 0% | 0hPa | 0V | 00:00:00 | 00:00:00 | 00:00:00 | |
| DL1XH-west | 2026-08-31 14:36:54 | 51.08639 | 9.58512 | 58° | 119km/h | 8489m | -3.4m/s | -38.9°C | 0% | 0hPa | 4.4V | 00:00:00 | 00:00:00 | 00:00:00 | |
| DO3DL | 2026-08-31 14:36:53 | 51.08640 | 9.58512 | 59° | 119km/h | 8489m | -3.4m/s | -38.9°C | 0% | 0hPa | 4.4V | 00:00:00 | 00:00:00 | 00:00:00 | |
| AM1SDL-15 | 2026-08-31 14:36:51 | 51.08607 | 9.58430 | 59° | 122km/h | 8499m | -3.3m/s | 0°C | 0% | 0hPa | 4.4V | 00:00:00 | 00:00:00 | 00:00:00 | |
| HSKMA3-T | 2026-08-31 14:36:50 | 51.08575 | 9.58345 | 59° | 124km/h | 8502m | -3.3m/s | -39°C | 0% | 0hPa | 4.4V | 00:00:00 | 00:00:00 | 00:00:00 | |
| SO1NDE-10 | 2026-08-31 14:36:48 | 51.08558 | 9.58302 | 60° | 113km/h | 8509m | -3.4m/s | 0°C | 0% | 0hPa | 4.4V | 00:00:00 | 00:00:00 | 00:00:00 | |
| BIOWL1-15 | 2026-08-31 14:36:47 | 51.08543 | 9.58259 | 61° | 124km/h | 8509m | -3.4m/s | -39°C | 0% | 0hPa | 4.4V | 00:00:00 | 00:00:00 | 00:00:00 | |
| DO3DL | 2026-08-31 14:36:46 | 51.08527 | 9.58215 | 62° | 124km/h | 8512m | -3.4m/s | -39.0°C | 0% | 0hPa | 0V | 00:00:00 | 00:00:00 | 00:00:00 | |
| DL1XH-15 | 2026-08-31 14:36:45 | 51.08443 | 9.57955 | 64° | 117km/h | 8535m | -3.1m/s | 0°C | 0% | 0hPa | 0V | 00:00:00 | 00:00:00 | 00:00:00 | |
| DL1XH-west | 2026-08-31 14:36:43 | 51.08470 | 9.58041 | 64° | 120km/h | 8526m | -3.3m/s | -39°C | 0% | 0hPa | 4.4V | 00:00:00 | 00:00:00 | 00:00:00 | |
| DC6BW-12 | 2026-08-31 14:36:42 | 51.08457 | 9.57997 | 65° | 119km/h | 8529m | -3.3m/s | -39.0°C | 0% | 0hPa | 4.4V | 00:00:00 | 00:00:00 | 00:00:00 | |
| NBG1-10 | 2026-08-31 14:36:40 | 51.08443 | 9.57955 | 65° | 113km/h | 8535m | -3.1m/s | 0°C | 0% | 0hPa | 4.4V | 00:00:00 | 00:00:00 | 00:00:00 | |
| HSKMA3-T | 2026-08-31 14:36:39 | 51.08418 | 9.57871 | 64° | 115km/h | 8538m | -3.3m/s | -39°C | 0% | 0hPa | 4.4V | 00:00:00 | 00:00:00 | 00:00:00 | |
| BIOWL1-15 | 2026-08-31 14:36:37 | 51.08392 | 9.57790 | 63° | 111km/h | 8545m | -3.1m/s | -39°C | 0% | 0hPa | 4.4V | 00:00:00 | 00:00:00 | 00:00:00 | |
| DM0DOS-11 | 2026-08-31 14:36:36 | 51.08328 | 9.57598 | 60° | 108km/h | 8564m | -3.2m/s | 0°C | 0% | 0hPa | 0V | 00:00:00 | 00:00:00 | 00:00:00 | |
| DO8TBO-1 | 2026-08-31 14:36:35 | 51.08380 | 9.57751 | 64° | 115km/h | 8555m | -3.2m/s | 0°C | 0% | 0hPa | 4.4V | 00:00:00 | 00:00:00 | 00:00:00 | |
| DO3DL | 2026-08-31 14:36:33 | 51.08355 | 9.57673 | 63° | 108km/h | 8555m | -3.2m/s | -39.1°C | 0% | 0hPa | 4.4V | 00:00:00 | 00:00:00 | 00:00:00 | |
| DL1XH-west | 2026-08-31 14:36:32 | 51.08328 | 9.57598 | 60° | 108km/h | 8561m | -3.2m/s | -39.2°C | 0% | 0hPa | 4.4V | 00:00:00 | 00:00:00 | 00:00:00 | |
| DB0UT-7 | 2026-08-31 14:36:32 | 51.08341 | 9.57635 | 60° | 115km/h | 8561m | -3.2m/s | 0°C | 0% | 0hPa | 0V | 00:00:00 | 00:00:00 | 00:00:00 | |
| DB0NH | 2026-08-31 14:36:31 | 51.08328 | 9.57598 | 61° | 115km/h | 8564m | -3.2m/s | 0°C | 0% | 0hPa | 0V | 00:00:00 | 00:00:00 | 00:00:00 | |
| DL1NUX | 2026-08-31 14:36:30 | 51.08241 | 9.57375 | 56° | 111km/h | 8583m | -3.4m/s | 0°C | 0% | 0hPa | 0V | 00:00:00 | 00:00:00 | 00:00:00 | |
| DL3OBA | 2026-08-31 14:36:29 | 51.08300 | 9.57523 | 59° | 110km/h | 8567m | -3.2m/s | -39.2°C | 0% | 0hPa | 4.4V | 00:00:00 | 00:00:00 | 00:00:00 | |
| DO2JMG | 2026-08-31 14:36:28 | 51.08271 | 9.57449 | 57° | 110km/h | 8573m | -3.3m/s | -39.3°C | 0% | 0hPa | 4.4V | 00:00:00 | 00:00:00 | 00:00:00 | |
| AM1SDL-15 | 2026-08-31 14:36:27 | 51.08271 | 9.57449 | 58° | 111km/h | 8577m | -3.2m/s | 0°C | 0% | 0hPa | 0V | 00:00:00 | 00:00:00 | 00:00:00 | |
| DM0DOS-11 | 2026-08-31 14:36:26 | 51.08178 | 9.57227 | 55° | 111km/h | 8596m | -3.4m/s | 0°C | 0% | 0hPa | 0V | 00:00:00 | 00:00:00 | 00:00:00 | |
| BIOWL1-15 | 2026-08-31 14:36:25 | 51.08240 | 9.57375 | 57° | 111km/h | 8580m | -3.4m/s | -39.4°C | 0% | 0hPa | 4.4V | 00:00:00 | 00:00:00 | 00:00:00 | |
| DL1CLM-18 | 2026-08-31 14:36:25 | 51.08225 | 9.57338 | 58° | 111km/h | 8583m | -3.4m/s | -39.5°C | 0% | 0hPa | 4.4V | 00:00:00 | 00:00:00 | 00:00:00 | |
| DL8DAS-15 | 2026-08-31 14:36:24 | 51.08225 | 9.57338 | 58° | 111km/h | 8583m | -3.4m/s | -39.5°C | 0% | 0hPa | 4.4V | 00:00:00 | 00:00:00 | 00:00:00 | |
| DL1XH-west | 2026-08-31 14:36:22 | 51.08178 | 9.57227 | 56° | 111km/h | 8593m | -3.3m/s | -39.6°C | 0% | 0hPa | 4.4V | 00:00:00 | 00:00:00 | 00:00:00 | |
| DM7RM-13 | 2026-08-31 14:36:21 | 51.08178 | 9.57227 | 57° | 111km/h | 8593m | -3.3m/s | -32.5°C | 0% | 0hPa | 4.4V | 00:00:00 | 00:00:00 | 00:00:00 | |
| DO2KSM | 2026-08-31 14:36:20 | 51.08162 | 9.57190 | 56° | 111km/h | 8597m | -3.4m/s | -39.7°C | 0% | 0hPa | 4.4V | 00:00:00 | 00:00:00 | 00:00:00 | |
| SO1NDE-10 | 2026-08-31 14:36:18 | 51.08129 | 9.57116 | 55° | 120km/h | 8607m | -3.4m/s | 0°C | 0% | 0hPa | 4.4V | 00:00:00 | 00:00:00 | 00:00:00 | |
| BIOWL1-15 | 2026-08-31 14:36:17 | 51.08062 | 9.56965 | 55° | 117km/h | 8617m | -3.4m/s | -39.9°C | 0% | 0hPa | 4.4V | 00:00:00 | 00:00:00 | 00:00:00 | |
| DO2JMG | 2026-08-31 14:36:17 | 51.08096 | 9.57041 | 55° | 115km/h | 8610m | -3.4m/s | -39.8°C | 0% | 0hPa | 4.4V | 00:00:00 | 00:00:00 | 00:00:00 | |
| DM0DOS-11 | 2026-08-31 14:36:16 | 51.08010 | 9.56848 | 55° | 120km/h | 8630m | -3.3m/s | 0°C | 0% | 0hPa | 0V | 00:00:00 | 00:00:00 | 00:00:00 | |
| DL1XH-15 | 2026-08-31 14:36:15 | 51.07993 | 9.56808 | 55° | 120km/h | 8633m | -3.5m/s | 0°C | 0% | 0hPa | 0V | 00:00:00 | 00:00:00 | 00:00:00 | |
| AM1SDL-15 | 2026-08-31 14:36:15 | 51.08079 | 9.57003 | 55° | 120km/h | 8617m | -3.4m/s | 0°C | 0% | 0hPa | 4.4V | 00:00:00 | 00:00:00 | 00:00:00 | |
| DL1XH-west | 2026-08-31 14:36:11 | 51.07993 | 9.56808 | 55° | 120km/h | 8630m | -3.3m/s | -40°C | 0% | 0hPa | 4.4V | 00:00:00 | 00:00:00 | 00:00:00 | |
| DL3OBA | 2026-08-31 14:36:09 | 51.07976 | 9.56768 | 56° | 120km/h | 8633m | -3.5m/s | -40.0°C | 0% | 0hPa | 4.4V | 00:00:00 | 00:00:00 | 00:00:00 | |
| DF2AP-13 | 2026-08-31 14:36:08 | 51.07958 | 9.56727 | 56° | 119km/h | 8640m | -3.4m/s | 0°C | 0% | 0hPa | 4.4V | 00:00:00 | 00:00:00 | 00:00:00 | |
| HSKMA3-T | 2026-08-31 14:36:07 | 51.07924 | 9.56647 | 56° | 122km/h | 8644m | -3.4m/s | -40.1°C | 0% | 0hPa | 4.4V | 00:00:00 | 00:00:00 | 00:00:00 | |
| DM0DOS-11 | 2026-08-31 14:36:06 | 51.07838 | 9.56443 | 57° | 122km/h | 8664m | -3.4m/s | 0°C | 0% | 0hPa | 0V | 00:00:00 | 00:00:00 | 00:00:00 | |
| BIOWL1-15 | 2026-08-31 14:36:04 | 51.07872 | 9.56525 | 57° | 122km/h | 8654m | -3.5m/s | -40.1°C | 0% | 0hPa | 4.4V | 00:00:00 | 00:00:00 | 00:00:00 | |
| DB0NH | 2026-08-31 14:36:01 | 51.07838 | 9.56443 | 58° | 119km/h | 8665m | -3.3m/s | 0°C | 0% | 0hPa | 0V | 00:00:00 | 00:00:00 | 00:00:00 | |
| DL1NUX | 2026-08-31 14:36:00 | 51.07736 | 9.56191 | 55° | 126km/h | 8686m | -3.6m/s | 0°C | 0% | 0hPa | 0V | 00:00:00 | 00:00:00 | 00:00:00 | |
| DL1XH-west | 2026-08-31 14:36:00 | 51.07805 | 9.56360 | 58° | 124km/h | 8668m | -3.5m/s | -40.3°C | 0% | 0hPa | 4.4V | 00:00:00 | 00:00:00 | 00:00:00 | |
| DC6BW-12 | 2026-08-31 14:35:57 | 51.07754 | 9.56233 | 58° | 126km/h | 8679m | -3.5m/s | -40.4°C | 0% | 0hPa | 0V | 00:00:00 | 00:00:00 | 00:00:00 | |
| DM0DOS-11 | 2026-08-31 14:35:56 | 51.07664 | 9.56030 | 53° | 119km/h | 8701m | -3.6m/s | 0°C | 0% | 0hPa | 0V | 00:00:00 | 00:00:00 | 00:00:00 | |
| HSKMA3-T | 2026-08-31 14:35:56 | 51.07736 | 9.56191 | 56° | 126km/h | 8682m | -3.5m/s | -40.4°C | 0% | 0hPa | 4.4V | 00:00:00 | 00:00:00 | 00:00:00 | |
| BIOWL1-15 | 2026-08-31 14:35:55 | 51.07700 | 9.56109 | 54° | 124km/h | 8690m | -3.7m/s | -40.5°C | 0% | 0hPa | 4.4V | 00:00:00 | 00:00:00 | 00:00:00 | |
| DO3DL | 2026-08-31 14:35:54 | 51.07718 | 9.56150 | 56° | 126km/h | 8686m | -3.6m/s | -40.5°C | 0% | 0hPa | 0V | 00:00:00 | 00:00:00 | 00:00:00 | |
| AM1SDL-15 | 2026-08-31 14:35:51 | 51.07664 | 9.56030 | 54° | 113km/h | 8701m | -3.5m/s | 0°C | 0% | 0hPa | 0V | 00:00:00 | 00:00:00 | 00:00:00 | |
| DL1NUX | 2026-08-31 14:35:50 | 51.07566 | 9.55808 | 58° | 110km/h | 8718m | -3.6m/s | 0°C | 0% | 0hPa | 0V | 00:00:00 | 00:00:00 | 00:00:00 | |
| DL1XH-west | 2026-08-31 14:35:49 | 51.07612 | 9.55918 | 55° | 111km/h | 8708m | -3.5m/s | -40.4°C | 0% | 0hPa | 4.4V | 00:00:00 | 00:00:00 | 00:00:00 | |
| SO1NDE-10 | 2026-08-31 14:35:48 | 51.07612 | 9.55918 | 55° | 122km/h | 8711m | -3.5m/s | 0°C | 0% | 0hPa | 4.4V | 00:00:00 | 00:00:00 | 00:00:00 | |
| DO2JMG | 2026-08-31 14:35:45 | 51.07566 | 9.55808 | 58° | 110km/h | 8718m | -3.6m/s | -40.5°C | 0% | 0hPa | 4.4V | 00:00:00 | 00:00:00 | 00:00:00 | |
| HSKMA3-T | 2026-08-31 14:35:45 | 51.07552 | 9.55771 | 60° | 110km/h | 8722m | -3.6m/s | -40.6°C | 0% | 0hPa | 4.4V | 00:00:00 | 00:00:00 | 00:00:00 | |
| BIOWL1-15 | 2026-08-31 14:35:43 | 51.07524 | 9.55694 | 61° | 113km/h | 8729m | -3.7m/s | -40.7°C | 0% | 0hPa | 4.4V | 00:00:00 | 00:00:00 | 00:00:00 | |
| DO3DL | 2026-08-31 14:35:42 | 51.07524 | 9.55693 | 62° | 113km/h | 8730m | -3.7m/s | -40.7°C | 0% | 0hPa | 0V | 00:00:00 | 00:00:00 | 00:00:00 | |
| DL1XH-15 | 2026-08-31 14:35:40 | 51.07428 | 9.55402 | 63° | 119km/h | 8759m | -3.7m/s | 0°C | 0% | 0hPa | 0V | 00:00:00 | 00:00:00 | 00:00:00 | |
| DL1XH-west | 2026-08-31 14:35:38 | 51.07469 | 9.55529 | 63° | 119km/h | 8744m | -3.7m/s | -40.8°C | 0% | 0hPa | 4.4V | 00:00:00 | 00:00:00 | 00:00:00 | |
| DF2AP-13 | 2026-08-31 14:35:38 | 51.07469 | 9.55529 | 63° | 119km/h | 8748m | -3.7m/s | 0°C | 0% | 0hPa | 0V | 00:00:00 | 00:00:00 | 00:00:00 | |
| DM0DOS-11 | 2026-08-31 14:35:36 | 51.07373 | 9.55230 | 62° | 120km/h | 8772m | -3.6m/s | 0°C | 0% | 0hPa | 0V | 00:00:00 | 00:00:00 | 00:00:00 | |
| DO3DL | 2026-08-31 14:35:35 | 51.07428 | 9.55402 | 64° | 119km/h | 8755m | -3.7m/s | -40.9°C | 0% | 0hPa | 4.4V | 00:00:00 | 00:00:00 | 00:00:00 | |
| DO8TBO-1 | 2026-08-31 14:35:34 | 51.07401 | 9.55316 | 63° | 124km/h | 8765m | -3.4m/s | 0°C | 0% | 0hPa | 4.4V | 00:00:00 | 00:00:00 | 00:00:00 | |
| HSKMA3-T | 2026-08-31 14:35:34 | 51.07401 | 9.55316 | 63° | 120km/h | 8762m | -3.6m/s | -41°C | 0% | 0hPa | 4.4V | 00:00:00 | 00:00:00 | 00:00:00 | |
| NBG1-10 | 2026-08-31 14:35:33 | 51.07401 | 9.55316 | 63° | 120km/h | 8765m | -3.4m/s | 0°C | 0% | 0hPa | 4.4V | 00:00:00 | 00:00:00 | 00:00:00 | |
| BIOWL1-15 | 2026-08-31 14:35:32 | 51.07373 | 9.55230 | 63° | 120km/h | 8769m | -3.6m/s | -41°C | 0% | 0hPa | 4.4V | 00:00:00 | 00:00:00 | 00:00:00 | |
| DB0NH | 2026-08-31 14:35:31 | 51.07373 | 9.55230 | 63° | 126km/h | 8772m | -3.5m/s | 0°C | 0% | 0hPa | 0V | 00:00:00 | 00:00:00 | 00:00:00 | |
| DL1XH-15 | 2026-08-31 14:35:30 | 51.07290 | 9.54968 | 64° | 120km/h | 8794m | -3.6m/s | 0°C | 0% | 0hPa | 0V | 00:00:00 | 00:00:00 | 00:00:00 | |
| DO3DL | 2026-08-31 14:35:29 | 51.07345 | 9.55143 | 64° | 122km/h | 8776m | -3.6m/s | -41.1°C | 0% | 0hPa | 4.4V | 00:00:00 | 00:00:00 | 00:00:00 | |
| DL1XH-west | 2026-08-31 14:35:28 | 51.07317 | 9.55056 | 64° | 122km/h | 8783m | -3.7m/s | -41.1°C | 0% | 0hPa | 4.4V | 00:00:00 | 00:00:00 | 00:00:00 | |
| DL8DAS-15 | 2026-08-31 14:35:28 | 51.07317 | 9.55056 | 65° | 122km/h | 8783m | -3.7m/s | -41.1°C | 0% | 0hPa | 0V | 00:00:00 | 00:00:00 | 00:00:00 | |
| DL3OBA | 2026-08-31 14:35:27 | 51.07317 | 9.55056 | 65° | 122km/h | 8783m | -3.7m/s | -41.1°C | 0% | 0hPa | 0V | 00:00:00 | 00:00:00 | 00:00:00 | |
| DM0DOS-11 | 2026-08-31 14:35:26 | 51.07238 | 9.54795 | 63° | 117km/h | 8808m | -3.3m/s | 0°C | 0% | 0hPa | 0V | 00:00:00 | 00:00:00 | 00:00:00 | |
| DO2JMG | 2026-08-31 14:35:25 | 51.07290 | 9.54968 | 64° | 120km/h | 8790m | -3.7m/s | -41.2°C | 0% | 0hPa | 4.4V | 00:00:00 | 00:00:00 | 00:00:00 | |
| HSKMA3-T | 2026-08-31 14:35:23 | 51.07264 | 9.54881 | 64° | 119km/h | 8797m | -3.5m/s | -41.2°C | 0% | 0hPa | 4.4V | 00:00:00 | 00:00:00 | 00:00:00 | |
| BIOWL1-15 | 2026-08-31 14:35:23 | 51.07225 | 9.54755 | 63° | 115km/h | 8808m | -3.4m/s | -41.3°C | 0% | 0hPa | 4.4V | 00:00:00 | 00:00:00 | 00:00:00 | |
| DO3DL | 2026-08-31 14:35:22 | 51.07251 | 9.54838 | 65° | 117km/h | 8801m | -3.5m/s | -41.2°C | 0% | 0hPa | 4.4V | 00:00:00 | 00:00:00 | 00:00:00 | |
| DM7RM-13 | 2026-08-31 14:35:21 | 51.07238 | 9.54796 | 65° | 117km/h | 8805m | -3.3m/s | -34.2°C | 0% | 0hPa | 4.4V | 00:00:00 | 00:00:00 | 00:00:00 | |
| DO2KSM | 2026-08-31 14:35:19 | 51.07212 | 9.54714 | 63° | 113km/h | 8811m | -3.5m/s | -41.2°C | 0% | 0hPa | 4.4V | 00:00:00 | 00:00:00 | 00:00:00 | |
| DL1XH-west | 2026-08-31 14:35:17 | 51.07170 | 9.54594 | 60° | 115km/h | 8822m | -3.5m/s | -41.4°C | 0% | 0hPa | 4.4V | 00:00:00 | 00:00:00 | 00:00:00 | |
| DO3DL | 2026-08-31 14:35:16 | 51.07170 | 9.54594 | 61° | 115km/h | 8822m | -3.5m/s | -41.4°C | 0% | 0hPa | 4.4V | 00:00:00 | 00:00:00 | 00:00:00 | |
| DO2JMG | 2026-08-31 14:35:15 | 51.07140 | 9.54514 | 59° | 117km/h | 8829m | -3.4m/s | -41.5°C | 0% | 0hPa | 4.4V | 00:00:00 | 00:00:00 | 00:00:00 | |
| HSKMA3-T | 2026-08-31 14:35:13 | 51.07109 | 9.54433 | 59° | 119km/h | 8836m | -3.4m/s | -41.5°C | 0% | 0hPa | 4.4V | 00:00:00 | 00:00:00 | 00:00:00 | |
| BIOWL1-15 | 2026-08-31 14:35:13 | 51.07078 | 9.54351 | 58° | 120km/h | 8843m | -3.4m/s | -41.6°C | 0% | 0hPa | 4.4V | 00:00:00 | 00:00:00 | 00:00:00 | |
| DJTTGO | 2026-08-31 14:35:11 | 51.07093 | 9.54392 | 59° | 120km/h | 8839m | -3.5m/s | -41.5°C | 0% | 0hPa | 0V | 00:00:00 | 00:00:00 | 00:00:00 | |
| DL1XH-15 | 2026-08-31 14:35:10 | 51.06996 | 9.54144 | 57° | 122km/h | 8866m | -3.4m/s | 0°C | 0% | 0hPa | 0V | 00:00:00 | 00:00:00 | 00:00:00 | |
| DO3DL | 2026-08-31 14:35:10 | 51.07061 | 9.54310 | 59° | 122km/h | 8846m | -3.5m/s | -41.6°C | 0% | 0hPa | 0V | 00:00:00 | 00:00:00 | 00:00:00 | |
| DF2AP-13 | 2026-08-31 14:35:08 | 51.07045 | 9.54269 | 58° | 124km/h | 8853m | -3.4m/s | 0°C | 0% | 0hPa | 0V | 00:00:00 | 00:00:00 | 00:00:00 | |
| DM0DOS-11 | 2026-08-31 14:35:06 | 51.06930 | 9.53977 | 58° | 124km/h | 8877m | -3.5m/s | 0°C | 0% | 0hPa | 0V | 00:00:00 | 00:00:00 | 00:00:00 | |
| DL1XH-west | 2026-08-31 14:35:06 | 51.06996 | 9.54144 | 58° | 122km/h | 8860m | -3.5m/s | -41.7°C | 0% | 0hPa | 4.4V | 00:00:00 | 00:00:00 | 00:00:00 | |
| DL3OBA | 2026-08-31 14:35:05 | 51.06996 | 9.54144 | 59° | 122km/h | 8860m | -3.5m/s | -41.7°C | 0% | 0hPa | 4.4V | 00:00:00 | 00:00:00 | 00:00:00 | |
| DO3DL | 2026-08-31 14:35:03 | 51.06963 | 9.54060 | 59° | 122km/h | 8867m | -3.4m/s | -41.8°C | 0% | 0hPa | 4.4V | 00:00:00 | 00:00:00 | 00:00:00 | |
| HSKMA3-T | 2026-08-31 14:35:02 | 51.06930 | 9.53976 | 58° | 124km/h | 8874m | -3.5m/s | -41.9°C | 0% | 0hPa | 4.4V | 00:00:00 | 00:00:00 | 00:00:00 | |
| BIOWL1-15 | 2026-08-31 14:35:00 | 51.06897 | 9.53891 | 58° | 126km/h | 8881m | -3.5m/s | -41.9°C | 0% | 0hPa | 4.4V | 00:00:00 | 00:00:00 | 00:00:00 | |
| DL1NUX | 2026-08-31 14:34:58 | 51.06798 | 9.53628 | 60° | 128km/h | 8905m | -3.5m/s | 0°C | 0% | 0hPa | 0V | 00:00:00 | 00:00:00 | 00:00:00 | |
| DO3DL | 2026-08-31 14:34:57 | 51.06864 | 9.53805 | 60° | 128km/h | 8888m | -3.5m/s | -42.0°C | 0% | 0hPa | 0V | 00:00:00 | 00:00:00 | 00:00:00 | |
| DM0DOS-11 | 2026-08-31 14:34:56 | 51.06766 | 9.53539 | 61° | 128km/h | 8913m | -3.7m/s | 0°C | 0% | 0hPa | 0V | 00:00:00 | 00:00:00 | 00:00:00 | |
| DL1XH-west | 2026-08-31 14:34:56 | 51.06830 | 9.53717 | 59° | 128km/h | 8895m | -3.6m/s | -42°C | 0% | 0hPa | 4.4V | 00:00:00 | 00:00:00 | 00:00:00 | |
| DL1XH-15 | 2026-08-31 14:34:55 | 51.06750 | 9.53493 | 61° | 128km/h | 8916m | -3.7m/s | 0°C | 0% | 0hPa | 0V | 00:00:00 | 00:00:00 | 00:00:00 | |
| DO3MHA-11 | 2026-08-31 14:34:55 | 51.06830 | 9.53717 | 60° | 128km/h | 8899m | -3.4m/s | 0°C | 0% | 0hPa | 4.4V | 00:00:00 | 00:00:00 | 00:00:00 | |
| DM7RM-13 | 2026-08-31 14:34:52 | 51.06781 | 9.53583 | 61° | 128km/h | 8906m | -3.5m/s | -35.2°C | 0% | 0hPa | 4.4V | 00:00:00 | 00:00:00 | 00:00:00 | |
| HSKMA3-T | 2026-08-31 14:34:51 | 51.06750 | 9.53493 | 61° | 128km/h | 8913m | -3.7m/s | -42.2°C | 0% | 0hPa | 4.4V | 00:00:00 | 00:00:00 | 00:00:00 | |
| DO3DL | 2026-08-31 14:34:50 | 51.06750 | 9.53493 | 62° | 128km/h | 8913m | -3.7m/s | -42.2°C | 0% | 0hPa | 4.4V | 00:00:00 | 00:00:00 | 00:00:00 | |
| DO2JMG | 2026-08-31 14:34:49 | 51.06719 | 9.53402 | 62° | 128km/h | 8920m | -3.6m/s | -42.1°C | 0% | 0hPa | 4.4V | 00:00:00 | 00:00:00 | 00:00:00 | |
| DJTTGO | 2026-08-31 14:34:47 | 51.06704 | 9.53357 | 64° | 128km/h | 8924m | -3.8m/s | 0°C | 0% | 0hPa | 0V | 00:00:00 | 00:00:00 | 00:00:00 | |
| DM0DOS-11 | 2026-08-31 14:34:46 | 51.06620 | 9.53087 | 63° | 120km/h | 8948m | -3.7m/s | 0°C | 0% | 0hPa | 0V | 00:00:00 | 00:00:00 | 00:00:00 | |
| SO1NDE-10 | 2026-08-31 14:34:46 | 51.06689 | 9.53311 | 64° | 119km/h | 8930m | -3.4m/s | 0°C | 0% | 0hPa | 0V | 00:00:00 | 00:00:00 | 00:00:00 | |
| DL1XH-15 | 2026-08-31 14:34:45 | 51.06607 | 9.53043 | 63° | 119km/h | 8952m | -3.7m/s | 0°C | 0% | 0hPa | 0V | 00:00:00 | 00:00:00 | 00:00:00 | |
| DO3MHA-11 | 2026-08-31 14:34:45 | 51.06675 | 9.53216 | 64° | 119km/h | 8934m | -3.6m/s | 0°C | 0% | 0hPa | 4.4V | 00:00:00 | 00:00:00 | 00:00:00 | |
| DL1XH-west | 2026-08-31 14:34:44 | 51.06661 | 9.53220 | 64° | 126km/h | 8934m | -3.6m/s | -42.2°C | 0% | 0hPa | 4.4V | 00:00:00 | 00:00:00 | 00:00:00 | |
| DC6BW-12 | 2026-08-31 14:34:44 | 51.06661 | 9.53220 | 65° | 126km/h | 8934m | -3.7m/s | -42.2°C | 0% | 0hPa | 4.4V | 00:00:00 | 00:00:00 | 00:00:00 | |
| DO3DL | 2026-08-31 14:34:43 | 51.06647 | 9.53175 | 65° | 124km/h | 8938m | -3.7m/s | -42.2°C | 0% | 0hPa | 4.4V | 00:00:00 | 00:00:00 | 00:00:00 | |
| AM1SDL-15 | 2026-08-31 14:34:42 | 51.06633 | 9.53131 | 64° | 120km/h | 8945m | -3.5m/s | 0°C | 0% | 0hPa | 4.4V | 00:00:00 | 00:00:00 | 00:00:00 | |
| DB0NH | 2026-08-31 14:34:41 | 51.06620 | 9.53087 | 64° | 117km/h | 8949m | -3.7m/s | 0°C | 0% | 0hPa | 4.4V | 00:00:00 | 00:00:00 | 00:00:00 | |
| HSKMA3-T | 2026-08-31 14:34:40 | 51.06593 | 9.53002 | 64° | 117km/h | 8952m | -3.7m/s | -42.3°C | 0% | 0hPa | 4.4V | 00:00:00 | 00:00:00 | 00:00:00 | |
| DL1NUX | 2026-08-31 14:34:38 | 51.06514 | 9.52764 | 58° | 110km/h | 8977m | -3.5m/s | 0°C | 0% | 0hPa | 0V | 00:00:00 | 00:00:00 | 00:00:00 | |
| BIOWL1-15 | 2026-08-31 14:34:38 | 51.06567 | 9.52919 | 63° | 113km/h | 8959m | -3.6m/s | -42.4°C | 0% | 0hPa | 4.4V | 00:00:00 | 00:00:00 | 00:00:00 | |
| DO3DL | 2026-08-31 14:34:37 | 51.06567 | 9.52919 | 64° | 113km/h | 8960m | -3.7m/s | -42.4°C | 0% | 0hPa | 0V | 00:00:00 | 00:00:00 | 00:00:00 | |
| DM0DOS-11 | 2026-08-31 14:34:36 | 51.06483 | 9.52689 | 56° | 113km/h | 8984m | -3.4m/s | 0°C | 0% | 0hPa | 0V | 00:00:00 | 00:00:00 | 00:00:00 | |
| DL1XH-15 | 2026-08-31 14:34:35 | 51.06467 | 9.52650 | 55° | 117km/h | 8988m | -3.6m/s | 0°C | 0% | 0hPa | 0V | 00:00:00 | 00:00:00 | 00:00:00 | |
| DO3MHA-11 | 2026-08-31 14:34:34 | 51.06527 | 9.52802 | 59° | 119km/h | 8978m | -3.5m/s | 0°C | 0% | 0hPa | 4.4V | 00:00:00 | 00:00:00 | 00:00:00 | |
| DL1XH-west | 2026-08-31 14:34:33 | 51.06513 | 9.52764 | 59° | 110km/h | 8974m | -3.6m/s | -42.6°C | 0% | 0hPa | 4.4V | 00:00:00 | 00:00:00 | 00:00:00 | |
| NBG1-10 | 2026-08-31 14:34:32 | 51.06499 | 9.52727 | 57° | 119km/h | 8981m | -3.5m/s | 0°C | 0% | 0hPa | 4.4V | 00:00:00 | 00:00:00 | 00:00:00 | |
| DO3DL | 2026-08-31 14:34:31 | 51.06467 | 9.52650 | 56° | 117km/h | 8985m | -3.4m/s | -42.8°C | 0% | 0hPa | 4.4V | 00:00:00 | 00:00:00 | 00:00:00 | |
| HSKMA3-T | 2026-08-31 14:34:29 | 51.06450 | 9.52612 | 55° | 119km/h | 8988m | -3.6m/s | -42.8°C | 0% | 0hPa | 4.4V | 00:00:00 | 00:00:00 | 00:00:00 | |
| DL1NUX | 2026-08-31 14:34:28 | 51.06343 | 9.52361 | 60° | 130km/h | 9014m | -3.6m/s | 0°C | 0% | 0hPa | 0V | 00:00:00 | 00:00:00 | 00:00:00 | |
| DO2JMG | 2026-08-31 14:34:27 | 51.06414 | 9.52532 | 55° | 124km/h | 8995m | -3.7m/s | -42.9°C | 0% | 0hPa | 4.4V | 00:00:00 | 00:00:00 | 00:00:00 | |
| DL1XH-15 | 2026-08-31 14:34:25 | 51.06297 | 9.52228 | 62° | 122km/h | 9025m | -3.7m/s | 0°C | 0% | 0hPa | 0V | 00:00:00 | 00:00:00 | 00:00:00 | |
| TFSTFS | 2026-08-31 14:34:24 | 51.06344 | 9.52361 | 60° | 130km/h | 9010m | -3.8m/s | -42.7°C | 0% | 0hPa | 4.4V | 00:00:00 | 00:00:00 | 00:00:00 | |
| DJTTGO | 2026-08-31 14:34:23 | 51.06344 | 9.52361 | 60° | 130km/h | 9010m | -3.8m/s | -42.7°C | 0% | 0hPa | 4.4V | 00:00:00 | 00:00:00 | 00:00:00 | |
| DL1XH-west | 2026-08-31 14:34:22 | 51.06327 | 9.52316 | 60° | 128km/h | 9014m | -3.6m/s | -42.7°C | 0% | 0hPa | 4.4V | 00:00:00 | 00:00:00 | 00:00:00 | |
| HSKMA3-T | 2026-08-31 14:34:19 | 51.06269 | 9.52143 | 63° | 117km/h | 9029m | -3.6m/s | -42.8°C | 0% | 0hPa | 4.4V | 00:00:00 | 00:00:00 | 00:00:00 | |
| DL1NUX | 2026-08-31 14:34:18 | 51.06201 | 9.51947 | 57° | 108km/h | 9052m | -3.9m/s | 0°C | 0% | 0hPa | 0V | 00:00:00 | 00:00:00 | 00:00:00 | |
| DO2KSM | 2026-08-31 14:34:17 | 51.06256 | 9.52101 | 64° | 113km/h | 9032m | -3.7m/s | -42.9°C | 0% | 0hPa | 4.4V | 00:00:00 | 00:00:00 | 00:00:00 | |
| DO2JMG | 2026-08-31 14:34:16 | 51.06243 | 9.52061 | 62° | 111km/h | 9036m | -3.8m/s | -43°C | 0% | 0hPa | 4.4V | 00:00:00 | 00:00:00 | 00:00:00 | |
| DM0DOS-11 | 2026-08-31 14:34:16 | 51.06170 | 9.51875 | 54° | 111km/h | 9059m | -3.9m/s | 0°C | 0% | 0hPa | 0V | 00:00:00 | 00:00:00 | 00:00:00 | |
| DB0UT-7 | 2026-08-31 14:34:15 | 51.06229 | 9.52022 | 61° | 119km/h | 9044m | -3.8m/s | 0°C | 0% | 0hPa | 4.4V | 00:00:00 | 00:00:00 | 00:00:00 | |
| DO3MHA-11 | 2026-08-31 14:34:14 | 51.06216 | 9.51984 | 60° | 117km/h | 9048m | -3.8m/s | 0°C | 0% | 0hPa | 4.4V | 00:00:00 | 00:00:00 | 00:00:00 | |
| DL1XH-west | 2026-08-31 14:34:12 | 51.06170 | 9.51875 | 54° | 111km/h | 9056m | -3.9m/s | -43.2°C | 0% | 0hPa | 4.4V | 00:00:00 | 00:00:00 | 00:00:00 | |
| DB0NH | 2026-08-31 14:34:11 | 51.06170 | 9.51875 | 55° | 122km/h | 9060m | -3.9m/s | 0°C | 0% | 0hPa | 0V | 00:00:00 | 00:00:00 | 00:00:00 | |
| DL1NUX | 2026-08-31 14:34:08 | 51.06026 | 9.51556 | 58° | 130km/h | 9102m | -3.8m/s | 0°C | 0% | 0hPa | 0V | 00:00:00 | 00:00:00 | 00:00:00 | |
| HSKMA3-T | 2026-08-31 14:34:08 | 51.06099 | 9.51725 | 53° | 124km/h | 9071m | -3.9m/s | -43.4°C | 0% | 0hPa | 4.4V | 00:00:00 | 00:00:00 | 00:00:00 | |
| BIOWL1-15 | 2026-08-31 14:34:08 | 51.06062 | 9.51643 | 55° | 128km/h | 9079m | -3.8m/s | -43.4°C | 0% | 0hPa | 4.4V | 00:00:00 | 00:00:00 | 00:00:00 | |
| DM0DOS-11 | 2026-08-31 14:34:06 | 51.05994 | 9.51467 | 61° | 126km/h | 9098m | -3.9m/s | 0°C | 0% | 0hPa | 0V | 00:00:00 | 00:00:00 | 00:00:00 | |
| THATR2-17 | 2026-08-31 14:34:06 | 51.06062 | 9.51643 | 55° | 128km/h | 9079m | 0m/s | 0°C | 0% | 0hPa | 4.4V | 00:00:00 | 00:00:00 | 00:00:00 | |
| DO3DL | 2026-08-31 14:34:05 | 51.06062 | 9.51643 | 56° | 128km/h | 9079m | -3.8m/s | -43.4°C | 0% | 0hPa | 4.4V | 00:00:00 | 00:00:00 | 00:00:00 | |
| DO3MHA-11 | 2026-08-31 14:34:04 | 51.06043 | 9.51601 | 59° | 120km/h | 9087m | -3.7m/s | 0°C | 0% | 0hPa | 4.4V | 00:00:00 | 00:00:00 | 00:00:00 | |
| DL3OBA | 2026-08-31 14:34:03 | 51.06026 | 9.51556 | 60° | 130km/h | 9087m | -3.7m/s | -43.4°C | 0% | 0hPa | 4.4V | 00:00:00 | 00:00:00 | 00:00:00 | |
| DL1XH-west | 2026-08-31 14:34:01 | 51.05994 | 9.51467 | 62° | 126km/h | 9094m | -3.9m/s | -43.4°C | 0% | 0hPa | 4.4V | 00:00:00 | 00:00:00 | 00:00:00 | |
| DO2JMG | 2026-08-31 14:33:59 | 51.05965 | 9.51379 | 63° | 120km/h | 9102m | -3.8m/s | -43.4°C | 0% | 0hPa | 4.4V | 00:00:00 | 00:00:00 | 00:00:00 | |
| DO3DL | 2026-08-31 14:33:59 | 51.05952 | 9.51336 | 64° | 117km/h | 9106m | -3.7m/s | -43.4°C | 0% | 0hPa | 4.4V | 00:00:00 | 00:00:00 | 00:00:00 | |
| DL8DAS-15 | 2026-08-31 14:33:58 | 51.05952 | 9.51336 | 64° | 117km/h | 9106m | -3.7m/s | -43.4°C | 0% | 0hPa | 4.4V | 00:00:00 | 00:00:00 | 00:00:00 | |
| HSKMA3-T | 2026-08-31 14:33:57 | 51.05925 | 9.51255 | 62° | 111km/h | 9114m | -3.9m/s | -43.5°C | 0% | 0hPa | 4.4V | 00:00:00 | 00:00:00 | 00:00:00 | |
| BIOWL1-15 | 2026-08-31 14:33:57 | 51.05897 | 9.51179 | 58° | 108km/h | 9121m | -3.8m/s | -43.5°C | 0% | 0hPa | 4.4V | 00:00:00 | 00:00:00 | 00:00:00 | |
| DM0DOS-11 | 2026-08-31 14:33:56 | 51.05849 | 9.51071 | 53° | 115km/h | 9137m | -3.8m/s | 0°C | 0% | 0hPa | 0V | 00:00:00 | 00:00:00 | 00:00:00 | |
| DF1GD-15 | 2026-08-31 14:33:56 | 51.05912 | 9.51216 | 61° | 110km/h | 9117m | -3.9m/s | -43.5°C | 0% | 0hPa | 0V | 00:00:00 | 00:00:00 | 00:00:00 | |
| DL1NUX | 2026-08-31 14:33:55 | 51.05832 | 9.51032 | 53° | 120km/h | 9140m | -3.9m/s | 0°C | 0% | 0hPa | 0V | 00:00:00 | 00:00:00 | 00:00:00 | |
| DO3MHA-11 | 2026-08-31 14:33:54 | 51.05897 | 9.51179 | 58° | 120km/h | 9125m | -3.8m/s | 0°C | 0% | 0hPa | 4.4V | 00:00:00 | 00:00:00 | 00:00:00 | |
| DO3DL | 2026-08-31 14:33:52 | 51.05866 | 9.51106 | 55° | 111km/h | 9129m | -3.9m/s | -43.6°C | 0% | 0hPa | 4.4V | 00:00:00 | 00:00:00 | 00:00:00 | |
| DL1XH-west | 2026-08-31 14:33:51 | 51.05832 | 9.51032 | 53° | 120km/h | 9137m | -3.9m/s | -43.8°C | 0% | 0hPa | 4.4V | 00:00:00 | 00:00:00 | 00:00:00 | |
| DO8TBO-1 | 2026-08-31 14:33:51 | 51.05849 | 9.51071 | 54° | 122km/h | 9137m | -3.8m/s | 0°C | 0% | 0hPa | 4.4V | 00:00:00 | 00:00:00 | 00:00:00 | |
| DM7RM-13 | 2026-08-31 14:33:47 | 51.05776 | 9.50909 | 57° | 130km/h | 9148m | -3.9m/s | -37.1°C | 0% | 0hPa | 4.4V | 00:00:00 | 00:00:00 | 00:00:00 | |
| HSKMA3-T | 2026-08-31 14:33:46 | 51.05758 | 9.50865 | 57° | 131km/h | 9152m | -4m/s | -43.9°C | 0% | 0hPa | 4.4V | 00:00:00 | 00:00:00 | 00:00:00 | |
| DM0DOS-11 | 2026-08-31 14:33:46 | 51.05677 | 9.50636 | 63° | 124km/h | 9176m | -3.8m/s | 0°C | 0% | 0hPa | 0V | 00:00:00 | 00:00:00 | 00:00:00 | |
| DB0UT-7 | 2026-08-31 14:33:45 | 51.05740 | 9.50820 | 59° | 120km/h | 9160m | -3.9m/s | 0°C | 0% | 0hPa | 0V | 00:00:00 | 00:00:00 | 00:00:00 | |
| DL1NUX | 2026-08-31 14:33:44 | 51.05650 | 9.50549 | 63° | 117km/h | 9184m | -3.8m/s | 0°C | 0% | 0hPa | 0V | 00:00:00 | 00:00:00 | 00:00:00 | |
| BIOWL1-15 | 2026-08-31 14:33:44 | 51.05706 | 9.50727 | 62° | 131km/h | 9164m | -4m/s | -43.9°C | 0% | 0hPa | 4.4V | 00:00:00 | 00:00:00 | 00:00:00 | |
| DC6BW-12 | 2026-08-31 14:33:43 | 51.05706 | 9.50727 | 63° | 131km/h | 9164m | -4.0m/s | -43.9°C | 0% | 0hPa | 0V | 00:00:00 | 00:00:00 | 00:00:00 | |
| DL1XH-15 | 2026-08-31 14:33:42 | 51.05623 | 9.50469 | 60° | 110km/h | 9191m | -3.9m/s | 0°C | 0% | 0hPa | 0V | 00:00:00 | 00:00:00 | 00:00:00 | |
| DB0NH | 2026-08-31 14:33:41 | 51.05676 | 9.50636 | 64° | 120km/h | 9176m | -3.8m/s | 0°C | 0% | 0hPa | 4.4V | 00:00:00 | 00:00:00 | 00:00:00 | |
| DL1XH-west | 2026-08-31 14:33:40 | 51.05649 | 9.50549 | 63° | 117km/h | 9180m | -4m/s | -43.9°C | 0% | 0hPa | 4.4V | 00:00:00 | 00:00:00 | 00:00:00 | |
| DO3DL | 2026-08-31 14:33:39 | 51.05649 | 9.50549 | 64° | 117km/h | 9180m | -4.0m/s | -43.9°C | 0% | 0hPa | 0V | 00:00:00 | 00:00:00 | 00:00:00 | |
| DF2AP-13 | 2026-08-31 14:33:38 | 51.05636 | 9.50507 | 61° | 120km/h | 9188m | -3.8m/s | 0°C | 0% | 0hPa | 0V | 00:00:00 | 00:00:00 | 00:00:00 | |
| DM0DOS-11 | 2026-08-31 14:33:36 | 51.05523 | 9.50244 | 52° | 124km/h | 9215m | -4.1m/s | 0°C | 0% | 0hPa | 0V | 00:00:00 | 00:00:00 | 00:00:00 | |
| HSKMA3-T | 2026-08-31 14:33:36 | 51.05593 | 9.50394 | 56° | 110km/h | 9195m | -3.9m/s | -44.1°C | 0% | 0hPa | 4.4V | 00:00:00 | 00:00:00 | 00:00:00 | |
| DL1CLM-18 | 2026-08-31 14:33:35 | 51.05577 | 9.50358 | 55° | 113km/h | 9199m | -3.9m/s | -44.2°C | 0% | 0hPa | 0V | 00:00:00 | 00:00:00 | 00:00:00 | |
| DL1NUX | 2026-08-31 14:33:34 | 51.05484 | 9.50162 | 56° | 131km/h | 9224m | -4.1m/s | 0°C | 0% | 0hPa | 0V | 00:00:00 | 00:00:00 | 00:00:00 | |
| DO3MHA-11 | 2026-08-31 14:33:34 | 51.05577 | 9.50357 | 55° | 126km/h | 9203m | -4.0m/s | 0°C | 0% | 0hPa | 4.4V | 00:00:00 | 00:00:00 | 00:00:00 | |
| BIOWL1-15 | 2026-08-31 14:33:33 | 51.05560 | 9.50321 | 53° | 115km/h | 9203m | -4.1m/s | -44.3°C | 0% | 0hPa | 4.4V | 00:00:00 | 00:00:00 | 00:00:00 | |
| DO2JMG | 2026-08-31 14:33:32 | 51.05523 | 9.50244 | 53° | 124km/h | 9211m | -4m/s | -44.4°C | 0% | 0hPa | 4.4V | 00:00:00 | 00:00:00 | 00:00:00 | |
| DL1XH-west | 2026-08-31 14:33:29 | 51.05465 | 9.50117 | 56° | 133km/h | 9224m | -4.1m/s | -44.3°C | 0% | 0hPa | 4.4V | 00:00:00 | 00:00:00 | 00:00:00 | |
| DF1GD-15 | 2026-08-31 14:33:28 | 51.05465 | 9.50117 | 57° | 133km/h | 9224m | -4.1m/s | -44.3°C | 0% | 0hPa | 4.4V | 00:00:00 | 00:00:00 | 00:00:00 | |
| BIOWL7-15 | 2026-08-31 14:33:27 | 51.05430 | 9.50025 | 61° | 133km/h | 9232m | -4.0m/s | -44.3°C | 0% | 0hPa | 4.4V | 00:00:00 | 00:00:00 | 00:00:00 | |
| NBG1-10 | 2026-08-31 14:33:26 | 51.05430 | 9.50026 | 61° | 122km/h | 9236m | -3.8m/s | 0°C | 0% | 0hPa | 4.4V | 00:00:00 | 00:00:00 | 00:00:00 | |
| HSKMA3-T | 2026-08-31 14:33:25 | 51.05399 | 9.49935 | 63° | 124km/h | 9239m | -4m/s | -44.3°C | 0% | 0hPa | 4.4V | 00:00:00 | 00:00:00 | 00:00:00 | |
| DO3MHA-11 | 2026-08-31 14:33:24 | 51.05399 | 9.49934 | 63° | 115km/h | 9243m | -3.9m/s | 0°C | 0% | 0hPa | 4.4V | 00:00:00 | 00:00:00 | 00:00:00 | |
| BIOWL1-15 | 2026-08-31 14:33:22 | 51.05371 | 9.49848 | 63° | 117km/h | 9247m | -3.9m/s | -44.3°C | 0% | 0hPa | 4.4V | 00:00:00 | 00:00:00 | 00:00:00 | |
| DC6BW-12 | 2026-08-31 14:33:22 | 51.05371 | 9.49848 | 64° | 117km/h | 9247m | -3.8m/s | -44.3°C | 0% | 0hPa | 4.4V | 00:00:00 | 00:00:00 | 00:00:00 | |
| DO2JMG | 2026-08-31 14:33:21 | 51.05344 | 9.49769 | 60° | 110km/h | 9255m | -4m/s | -44.5°C | 0% | 0hPa | 4.4V | 00:00:00 | 00:00:00 | 00:00:00 | |
| DL1XH-west | 2026-08-31 14:33:19 | 51.05314 | 9.49694 | 56° | 110km/h | 9263m | -4m/s | -44.5°C | 0% | 0hPa | 4.4V | 00:00:00 | 00:00:00 | 00:00:00 | |
| DL2RXE-15 | 2026-08-31 14:33:18 | 51.05314 | 9.49694 | 56° | 110km/h | 9263m | -4.0m/s | 0°C | 0% | 0hPa | 0V | 00:00:00 | 00:00:00 | 00:00:00 | |
| DM0DOS-11 | 2026-08-31 14:33:16 | 51.05184 | 9.49423 | 54° | 133km/h | 9295m | -4m/s | 0°C | 0% | 0hPa | 0V | 00:00:00 | 00:00:00 | 00:00:00 | |
| DB0UT-7 | 2026-08-31 14:33:15 | 51.05262 | 9.49584 | 52° | 126km/h | 9279m | -3.9m/s | 0°C | 0% | 0hPa | 0V | 00:00:00 | 00:00:00 | 00:00:00 | |
| DL1NUX | 2026-08-31 14:33:14 | 51.05147 | 9.49333 | 58° | 133km/h | 9303m | -4m/s | 0°C | 0% | 0hPa | 0V | 00:00:00 | 00:00:00 | 00:00:00 | |
| HSKMA3-T | 2026-08-31 14:33:14 | 51.05223 | 9.49507 | 52° | 128km/h | 9283m | -3.9m/s | -44.8°C | 0% | 0hPa | 4.4V | 00:00:00 | 00:00:00 | 00:00:00 | |
| DO3DL | 2026-08-31 14:33:14 | 51.05223 | 9.49506 | 53° | 128km/h | 9283m | -3.9m/s | -44.8°C | 0% | 0hPa | 0V | 00:00:00 | 00:00:00 | 00:00:00 | |
| DL1XH-15 | 2026-08-31 14:33:12 | 51.05114 | 9.49242 | 61° | 130km/h | 9311m | -4m/s | 0°C | 0% | 0hPa | 0V | 00:00:00 | 00:00:00 | 00:00:00 | |
| BIOWL1-15 | 2026-08-31 14:33:12 | 51.05184 | 9.49423 | 55° | 133km/h | 9291m | -4m/s | -44.8°C | 0% | 0hPa | 4.4V | 00:00:00 | 00:00:00 | 00:00:00 | |
| DB0NH | 2026-08-31 14:33:11 | 51.05184 | 9.49423 | 55° | 124km/h | 9295m | -4.0m/s | 0°C | 0% | 0hPa | 4.4V | 00:00:00 | 00:00:00 | 00:00:00 | |
| DL1XH-west | 2026-08-31 14:33:08 | 51.05114 | 9.49242 | 62° | 130km/h | 9307m | -3.9m/s | -44.8°C | 0% | 0hPa | 4.4V | 00:00:00 | 00:00:00 | 00:00:00 | |
| DF2AP-13 | 2026-08-31 14:33:08 | 51.05130 | 9.49287 | 62° | 122km/h | 9307m | -3.8m/s | 0°C | 0% | 0hPa | 0V | 00:00:00 | 00:00:00 | 00:00:00 | |
| DM0DOS-11 | 2026-08-31 14:33:06 | 51.05030 | 9.48989 | 55° | 111km/h | 9335m | -3.8m/s | 0°C | 0% | 0hPa | 0V | 00:00:00 | 00:00:00 | 00:00:00 | |
| EDDB2-12 | 2026-08-31 14:33:05 | 51.05058 | 9.49068 | 62° | 113km/h | 9323m | -4.1m/s | -45.1°C | -1.0% | -1.0hPa | 4.4V | 00:00:00 | 00:00:00 | 00:00:00 | |
| THATR2-17 | 2026-08-31 14:33:04 | 51.04771 | 9.48350 | 63° | 117km/h | 9387m | 0m/s | 0°C | 0% | 0hPa | 4.4V | 00:00:00 | 00:00:00 | 00:00:00 | |
| HSKMA3-T | 2026-08-31 14:33:03 | 51.05058 | 9.49068 | 62° | 115km/h | 9323m | -4.1m/s | -44.8°C | 0% | 0hPa | 4.4V | 00:00:00 | 00:00:00 | 00:00:00 | |
| DL1XH-15 | 2026-08-31 14:33:02 | 51.04961 | 9.48840 | 52° | 122km/h | 9349m | -3.8m/s | 0°C | 0% | 0hPa | 0V | 00:00:00 | 00:00:00 | 00:00:00 | |
| BIOWL1-15 | 2026-08-31 14:33:01 | 51.05014 | 9.48952 | 56° | 113km/h | 9335m | -3.8m/s | -44.9°C | 0% | 0hPa | 4.4V | 00:00:00 | 00:00:00 | 00:00:00 | |
| TFSTFS | 2026-08-31 14:33:00 | 51.04997 | 9.48915 | 55° | 115km/h | 9338m | -3.7m/s | -44.9°C | 0% | 0hPa | 4.4V | 00:00:00 | 00:00:00 | 00:00:00 | |
| DL3OBA | 2026-08-31 14:32:58 | 51.04980 | 9.48877 | 54° | 119km/h | 9342m | -3.8m/s | -45.0°C | 0% | 0hPa | 4.4V | 00:00:00 | 00:00:00 | 00:00:00 | |
| DL1XH-west | 2026-08-31 14:32:57 | 51.04941 | 9.48799 | 52° | 128km/h | 9349m | -3.8m/s | -45.2°C | 0% | 0hPa | 4.4V | 00:00:00 | 00:00:00 | 00:00:00 | |
| DO2KSM | 2026-08-31 14:32:55 | 51.04922 | 9.48758 | 54° | 131km/h | 9353m | -3.9m/s | -45.2°C | 0% | 0hPa | 4.4V | 00:00:00 | 00:00:00 | 00:00:00 | |
| DO3MHA-11 | 2026-08-31 14:32:54 | 51.04902 | 9.48715 | 55° | 128km/h | 9361m | -3.8m/s | 0°C | 0% | 0hPa | 4.4V | 00:00:00 | 00:00:00 | 00:00:00 | |
| HSKMA3-T | 2026-08-31 14:32:53 | 51.04863 | 9.48625 | 58° | 137km/h | 9365m | -3.9m/s | -45.2°C | 0% | 0hPa | 4.4V | 00:00:00 | 00:00:00 | 00:00:00 | |
| NBG1-10 | 2026-08-31 14:32:53 | 51.04882 | 9.48672 | 58° | 124km/h | 9365m | -3.8m/s | 0°C | 0% | 0hPa | 0V | 00:00:00 | 00:00:00 | 00:00:00 | |
| DL1XH-15 | 2026-08-31 14:32:52 | 51.04784 | 9.48393 | 64° | 122km/h | 9395m | -3.8m/s | 0°C | 0% | 0hPa | 0V | 00:00:00 | 00:00:00 | 00:00:00 | |
| DO2JMG | 2026-08-31 14:32:51 | 51.04829 | 9.48532 | 61° | 135km/h | 9372m | -3.7m/s | -45.1°C | 0% | 0hPa | 4.4V | 00:00:00 | 00:00:00 | 00:00:00 | |
| DF1GD-15 | 2026-08-31 14:32:47 | 51.04784 | 9.48393 | 65° | 122km/h | 9384m | -3.7m/s | 0°C | 0% | 0hPa | 0V | 00:00:00 | 00:00:00 | 00:00:00 | |
| DM0DOS-11 | 2026-08-31 14:32:46 | 51.04697 | 9.48154 | 54° | 115km/h | 9409m | -3.6m/s | 0°C | 0% | 0hPa | 0V | 00:00:00 | 00:00:00 | 00:00:00 | |
| DL1XH-west | 2026-08-31 14:32:46 | 51.04757 | 9.48308 | 62° | 115km/h | 9391m | -3.8m/s | -45.2°C | 0% | 0hPa | 4.4V | 00:00:00 | 00:00:00 | 00:00:00 | |
| DM7RM-13 | 2026-08-31 14:32:46 | 51.04757 | 9.48308 | 63° | 115km/h | 9391m | -3.8m/s | -38.5°C | 0% | 0hPa | 0V | 00:00:00 | 00:00:00 | 00:00:00 | |
| SO1NDE-10 | 2026-08-31 14:32:45 | 51.04757 | 9.48308 | 63° | 126km/h | 9402m | -3.6m/s | 0°C | 0% | 0hPa | 0V | 00:00:00 | 00:00:00 | 00:00:00 | |
| DL1NUX | 2026-08-31 14:32:44 | 51.04661 | 9.48077 | 52° | 124km/h | 9417m | -3.5m/s | 0°C | 0% | 0hPa | 0V | 00:00:00 | 00:00:00 | 00:00:00 | |
| DO3MHA-11 | 2026-08-31 14:32:44 | 51.04743 | 9.48267 | 59° | 122km/h | 9399m | -3.6m/s | 0°C | 0% | 0hPa | 4.4V | 00:00:00 | 00:00:00 | 00:00:00 | |
| HSKMA3-T | 2026-08-31 14:32:42 | 51.04697 | 9.48154 | 54° | 115km/h | 9406m | -3.7m/s | -45.4°C | 0% | 0hPa | 4.4V | 00:00:00 | 00:00:00 | 00:00:00 | |
| DL1XH-15 | 2026-08-31 14:32:41 | 51.04603 | 9.47950 | 56° | 135km/h | 9427m | -3.6m/s | 0°C | 0% | 0hPa | 0V | 00:00:00 | 00:00:00 | 00:00:00 | |
| DB0NH | 2026-08-31 14:32:41 | 51.04697 | 9.48154 | 55° | 126km/h | 9410m | -3.5m/s | 0°C | 0% | 0hPa | 4.4V | 00:00:00 | 00:00:00 | 00:00:00 | |
| DC6BW-12 | 2026-08-31 14:32:40 | 51.04679 | 9.48116 | 54° | 120km/h | 9410m | -3.6m/s | -45.4°C | 0% | 0hPa | 4.4V | 00:00:00 | 00:00:00 | 00:00:00 | |
| DO2JMG | 2026-08-31 14:32:39 | 51.04661 | 9.48077 | 53° | 124km/h | 9413m | -3.5m/s | -45.4°C | 0% | 0hPa | 4.4V | 00:00:00 | 00:00:00 | 00:00:00 | |
| DF2AP-13 | 2026-08-31 14:32:38 | 51.04642 | 9.48042 | 57° | 124km/h | 9424m | -3.5m/s | 0°C | 0% | 0hPa | 0V | 00:00:00 | 00:00:00 | 00:00:00 | |
| DM0DOS-11 | 2026-08-31 14:32:36 | 51.04520 | 9.47715 | 65° | 128km/h | 9445m | -3.6m/s | 0°C | 0% | 0hPa | 0V | 00:00:00 | 00:00:00 | 00:00:00 | |
| DL1XH-west | 2026-08-31 14:32:36 | 51.04584 | 9.47905 | 58° | 137km/h | 9428m | -3.6m/s | -45.5°C | 0% | 0hPa | 4.4V | 00:00:00 | 00:00:00 | 00:00:00 | |
| DO3MHA-11 | 2026-08-31 14:32:34 | 51.04567 | 9.47858 | 61° | 122km/h | 9435m | -3.5m/s | 0°C | 0% | 0hPa | 0V | 00:00:00 | 00:00:00 | 00:00:00 | |
| DL1XH-15 | 2026-08-31 14:32:31 | 51.04454 | 9.47507 | 59° | 111km/h | 9463m | -3.3m/s | 0°C | 0% | 0hPa | 0V | 00:00:00 | 00:00:00 | 00:00:00 | |
| HSKMA3-T | 2026-08-31 14:32:31 | 51.04507 | 9.47671 | 65° | 122km/h | 9445m | -3.6m/s | -45.5°C | 0% | 0hPa | 4.4V | 00:00:00 | 00:00:00 | 00:00:00 | |
| DO2JMG | 2026-08-31 14:32:29 | 51.04481 | 9.47586 | 64° | 113km/h | 9452m | -3.7m/s | -45.5°C | 0% | 0hPa | 4.4V | 00:00:00 | 00:00:00 | 00:00:00 | |
| AM1SDL-15 | 2026-08-31 14:32:28 | 51.04481 | 9.47586 | 64° | 117km/h | 9499m | -3.4m/s | 0°C | 0% | 0hPa | 0V | 00:00:00 | 00:00:00 | 00:00:00 | |
| DM0DOS-11 | 2026-08-31 14:32:26 | 51.04368 | 9.47313 | 53° | 128km/h | 9481m | -3.5m/s | 0°C | 0% | 0hPa | 0V | 00:00:00 | 00:00:00 | 00:00:00 | |
| DL1XH-west | 2026-08-31 14:32:25 | 51.04423 | 9.47431 | 55° | 115km/h | 9467m | -3.4m/s | -45.7°C | 0% | 0hPa | 4.4V | 00:00:00 | 00:00:00 | 00:00:00 | |
| DL1NUX | 2026-08-31 14:32:24 | 51.04329 | 9.47227 | 56° | 135km/h | 9488m | -3.5m/s | 0°C | 0% | 0hPa | 0V | 00:00:00 | 00:00:00 | 00:00:00 | |
| DO3MHA-11 | 2026-08-31 14:32:24 | 51.04423 | 9.47431 | 55° | 130km/h | 9470m | -3.4m/s | 0°C | 0% | 0hPa | 4.4V | 00:00:00 | 00:00:00 | 00:00:00 | |
| DO3DL | 2026-08-31 14:32:21 | 51.04368 | 9.47313 | 54° | 128km/h | 9477m | -3.6m/s | -45.8°C | 0% | 0hPa | 4.4V | 00:00:00 | 00:00:00 | 00:00:00 | |
| HSKMA3-T | 2026-08-31 14:32:20 | 51.04329 | 9.47227 | 56° | 135km/h | 9484m | -3.6m/s | -45.8°C | 0% | 0hPa | 4.4V | 00:00:00 | 00:00:00 | 00:00:00 | |
| NBG1-10 | 2026-08-31 14:32:20 | 51.04348 | 9.47272 | 57° | 122km/h | 9484m | -3.6m/s | 0°C | 0% | 0hPa | 4.4V | 00:00:00 | 00:00:00 | 00:00:00 | |
| DC6BW-12 | 2026-08-31 14:32:19 | 51.04329 | 9.47227 | 57° | 135km/h | 9484m | -3.6m/s | -45.8°C | 0% | 0hPa | 4.4V | 00:00:00 | 00:00:00 | 00:00:00 | |
| DO2JMG | 2026-08-31 14:32:18 | 51.04293 | 9.47135 | 60° | 135km/h | 9492m | -3.5m/s | -45.7°C | 0% | 0hPa | 4.4V | 00:00:00 | 00:00:00 | 00:00:00 | |
| DL3OBA | 2026-08-31 14:32:17 | 51.04293 | 9.47134 | 61° | 135km/h | 9492m | -3.5m/s | -45.7°C | 0% | 0hPa | 0V | 00:00:00 | 00:00:00 | 00:00:00 | |
| DM0DOS-11 | 2026-08-31 14:32:16 | 51.04209 | 9.46865 | 63° | 113km/h | 9516m | -3.5m/s | 0°C | 0% | 0hPa | 0V | 00:00:00 | 00:00:00 | 00:00:00 | |
| DB0UT-7 | 2026-08-31 14:32:15 | 51.04261 | 9.47040 | 64° | 120km/h | 9502m | -3.5m/s | 0°C | 0% | 0hPa | 0V | 00:00:00 | 00:00:00 | 00:00:00 | |
| DL1NUX | 2026-08-31 14:32:14 | 51.04182 | 9.46786 | 59° | 110km/h | 9523m | -3.4m/s | 0°C | 0% | 0hPa | 0V | 00:00:00 | 00:00:00 | 00:00:00 | |
| DO3MHA-11 | 2026-08-31 14:32:14 | 51.04247 | 9.46990 | 65° | 117km/h | 9505m | -3.4m/s | 0°C | 0% | 0hPa | 4.4V | 00:00:00 | 00:00:00 | 00:00:00 | |
| DL1XH-west | 2026-08-31 14:32:14 | 51.04234 | 9.46950 | 65° | 122km/h | 9505m | -3.4m/s | -45.7°C | 0% | 0hPa | 4.4V | 00:00:00 | 00:00:00 | 00:00:00 | |
| DB0NH | 2026-08-31 14:32:11 | 51.04208 | 9.46864 | 64° | 122km/h | 9516m | -3.5m/s | 0°C | 0% | 0hPa | 4.4V | 00:00:00 | 00:00:00 | 00:00:00 | |
| HSKMA3-T | 2026-08-31 14:32:10 | 51.04182 | 9.46786 | 60° | 110km/h | 9520m | -3.6m/s | -45.7°C | 0% | 0hPa | 4.4V | 00:00:00 | 00:00:00 | 00:00:00 | |
| BIOWL1-15 | 2026-08-31 14:32:08 | 51.04152 | 9.46711 | 55° | 113km/h | 9527m | -3.3m/s | -45.8°C | 0% | 0hPa | 4.4V | 00:00:00 | 00:00:00 | 00:00:00 | |
| DJTTGO | 2026-08-31 14:32:06 | 51.04135 | 9.46673 | 55° | 119km/h | 9530m | -3.4m/s | -45.9°C | 0% | 0hPa | 0V | 00:00:00 | 00:00:00 | 00:00:00 | |
| DM0DOS-11 | 2026-08-31 14:32:05 | 51.04026 | 9.46416 | 61° | 133km/h | 9553m | -3.4m/s | 0°C | 0% | 0hPa | 0V | 00:00:00 | 00:00:00 | 00:00:00 | |
| DL1NUX | 2026-08-31 14:32:04 | 51.04010 | 9.46368 | 64° | 131km/h | 9557m | -3.4m/s | 0°C | 0% | 0hPa | 0V | 00:00:00 | 00:00:00 | 00:00:00 | |
| DL1XH-west | 2026-08-31 14:32:03 | 51.04060 | 9.46508 | 57° | 133km/h | 9543m | -3.3m/s | -45.9°C | 0% | 0hPa | 4.4V | 00:00:00 | 00:00:00 | 00:00:00 | |
| DL1ZP-14 | 2026-08-31 14:32:02 | 51.04043 | 9.46462 | 59° | 133km/h | 9546m | -3.3m/s | -45.9°C | -1.0% | -1.0hPa | 4.4V | 00:00:00 | 00:00:00 | 00:00:00 | |
| DL1XH-15 | 2026-08-31 14:32:01 | 51.03969 | 9.46231 | 65° | 120km/h | 9567m | -3.4m/s | 0°C | 0% | 0hPa | 0V | 00:00:00 | 00:00:00 | 00:00:00 | |
| DO2JMG | 2026-08-31 14:31:59 | 51.03995 | 9.46322 | 64° | 130km/h | 9557m | -3.4m/s | -46°C | 0% | 0hPa | 4.4V | 00:00:00 | 00:00:00 | 00:00:00 | |
| DL8DAS-15 | 2026-08-31 14:31:58 | 51.03995 | 9.46322 | 65° | 130km/h | 9557m | -3.4m/s | -46.0°C | 0% | 0hPa | 4.4V | 00:00:00 | 00:00:00 | 00:00:00 | |
| BIOWL1-15 | 2026-08-31 14:31:57 | 51.03969 | 9.46231 | 66° | 120km/h | 9563m | -3.5m/s | -46°C | 0% | 0hPa | 4.4V | 00:00:00 | 00:00:00 | 00:00:00 | |
| DO3DL | 2026-08-31 14:31:55 | 51.03957 | 9.46187 | 67° | 117km/h | 9567m | -3.4m/s | -46.0°C | 0% | 0hPa | 0V | 00:00:00 | 00:00:00 | 00:00:00 | |
| DL1NUX | 2026-08-31 14:31:54 | 51.03870 | 9.45954 | 53° | 117km/h | 9590m | -3.3m/s | 0°C | 0% | 0hPa | 0V | 00:00:00 | 00:00:00 | 00:00:00 | |
| DO3MHA-11 | 2026-08-31 14:31:53 | 51.03932 | 9.46106 | 63° | 122km/h | 9577m | -3.2m/s | 0°C | 0% | 0hPa | 4.4V | 00:00:00 | 00:00:00 | 00:00:00 | |
| AM1SDL-15 | 2026-08-31 14:31:52 | 51.03918 | 9.46067 | 60° | 122km/h | 9577m | -3.2m/s | 0°C | 0% | 0hPa | 4.4V | 00:00:00 | 00:00:00 | 00:00:00 | |
| DL1XH-west | 2026-08-31 14:31:52 | 51.03903 | 9.46029 | 57° | 111km/h | 9580m | -3.3m/s | -46.1°C | 0% | 0hPa | 4.4V | 00:00:00 | 00:00:00 | 00:00:00 | |
| DO3DL | 2026-08-31 14:31:49 | 51.03870 | 9.45954 | 55° | 117km/h | 9586m | -3.3m/s | -46.3°C | 0% | 0hPa | 4.4V | 00:00:00 | 00:00:00 | 00:00:00 | |
| DO2JMG | 2026-08-31 14:31:48 | 51.03834 | 9.45876 | 53° | 126km/h | 9593m | -3.4m/s | -46.4°C | 0% | 0hPa | 4.4V | 00:00:00 | 00:00:00 | 00:00:00 | |
| NBG1-10 | 2026-08-31 14:31:47 | 51.03834 | 9.45876 | 54° | 122km/h | 9597m | -3.4m/s | 0°C | 0% | 0hPa | 4.4V | 00:00:00 | 00:00:00 | 00:00:00 | |
| BIOWL1-15 | 2026-08-31 14:31:46 | 51.03795 | 9.45791 | 56° | 133km/h | 9600m | -3.4m/s | -46.4°C | 0% | 0hPa | 4.4V | 00:00:00 | 00:00:00 | 00:00:00 | |
| SO1NDE-10 | 2026-08-31 14:31:45 | 51.03795 | 9.45791 | 56° | 122km/h | 9603m | -3.3m/s | 0°C | 0% | 0hPa | 0V | 00:00:00 | 00:00:00 | 00:00:00 | |
| DL1NUX | 2026-08-31 14:31:44 | 51.03702 | 9.45518 | 64° | 119km/h | 9621m | -3m/s | 0°C | 0% | 0hPa | 0V | 00:00:00 | 00:00:00 | 00:00:00 | |
| DO3MHA-11 | 2026-08-31 14:31:43 | 51.03760 | 9.45700 | 61° | 119km/h | 9610m | -2.9m/s | 0°C | 0% | 0hPa | 4.4V | 00:00:00 | 00:00:00 | 00:00:00 | |
| DL1XH-west | 2026-08-31 14:31:42 | 51.03729 | 9.45607 | 64° | 128km/h | 9612m | -2.9m/s | -46.3°C | 0% | 0hPa | 4.4V | 00:00:00 | 00:00:00 | 00:00:00 | |
| DL1XH-15 | 2026-08-31 14:31:41 | 51.03662 | 9.45398 | 58° | 110km/h | 9637m | -3.1m/s | 0°C | 0% | 0hPa | 0V | 00:00:00 | 00:00:00 | 00:00:00 | |
| DB0NH | 2026-08-31 14:31:41 | 51.03729 | 9.45606 | 65° | 122km/h | 9616m | -2.9m/s | 0°C | 0% | 0hPa | 0V | 00:00:00 | 00:00:00 | 00:00:00 | |
| DF2AP-13 | 2026-08-31 14:31:38 | 51.03689 | 9.45476 | 64° | 122km/h | 9624m | -2.9m/s | 0°C | 0% | 0hPa | 0V | 00:00:00 | 00:00:00 | 00:00:00 | |
| DO3DL | 2026-08-31 14:31:37 | 51.03662 | 9.45397 | 60° | 110km/h | 9627m | -3.0m/s | -46.4°C | 0% | 0hPa | 0V | 00:00:00 | 00:00:00 | 00:00:00 | |
| DO2JMG | 2026-08-31 14:31:37 | 51.03662 | 9.45398 | 59° | 110km/h | 9627m | -3m/s | -46.4°C | 0% | 0hPa | 4.4V | 00:00:00 | 00:00:00 | 00:00:00 | |
| DM0DOS-11 | 2026-08-31 14:31:35 | 51.03556 | 9.45170 | 52° | 130km/h | 9650m | -3.2m/s | 0°C | 0% | 0hPa | 0V | 00:00:00 | 00:00:00 | 00:00:00 | |
| BIOWL1-15 | 2026-08-31 14:31:35 | 51.03631 | 9.45324 | 54° | 113km/h | 9634m | -3.1m/s | -46.5°C | 0% | 0hPa | 4.4V | 00:00:00 | 00:00:00 | 00:00:00 | |
| DO2KSM | 2026-08-31 14:31:34 | 51.03614 | 9.45287 | 54° | 117km/h | 9637m | -3.1m/s | -46.6°C | 0% | 0hPa | 4.4V | 00:00:00 | 00:00:00 | 00:00:00 | |
| BIOWL7-15 | 2026-08-31 14:31:33 | 51.03614 | 9.45287 | 54° | 117km/h | 9637m | -3.1m/s | -46.6°C | 0% | 0hPa | 4.4V | 00:00:00 | 00:00:00 | 00:00:00 | |
| DF1GD-15 | 2026-08-31 14:31:32 | 51.03576 | 9.45211 | 53° | 124km/h | 9643m | -3.3m/s | -46.7°C | 0% | 0hPa | 4.4V | 00:00:00 | 00:00:00 | 00:00:00 | |
| DL1XH-west | 2026-08-31 14:31:31 | 51.03556 | 9.45171 | 53° | 130km/h | 9647m | -3.1m/s | -46.7°C | 0% | 0hPa | 4.4V | 00:00:00 | 00:00:00 | 00:00:00 | |
| DO3DL | 2026-08-31 14:31:30 | 51.03556 | 9.45170 | 54° | 130km/h | 9647m | -3.2m/s | -46.7°C | 0% | 0hPa | 0V | 00:00:00 | 00:00:00 | 00:00:00 | |
| DL1XH-15 | 2026-08-31 14:31:29 | 51.03448 | 9.44897 | 63° | 128km/h | 9669m | -3.2m/s | 0°C | 0% | 0hPa | 0V | 00:00:00 | 00:00:00 | 00:00:00 | |
| DO2JMG | 2026-08-31 14:31:26 | 51.03480 | 9.44992 | 60° | 135km/h | 9660m | -3.4m/s | -46.7°C | 0% | 0hPa | 4.4V | 00:00:00 | 00:00:00 | 00:00:00 | |
| BIOWL1-15 | 2026-08-31 14:31:26 | 51.03434 | 9.44854 | 64° | 124km/h | 9669m | -3.2m/s | -46.8°C | 0% | 0hPa | 4.4V | 00:00:00 | 00:00:00 | 00:00:00 | |
| DM0DOS-11 | 2026-08-31 14:31:25 | 51.03394 | 9.44728 | 58° | 110km/h | 9683m | -3.5m/s | 0°C | 0% | 0hPa | 0V | 00:00:00 | 00:00:00 | 00:00:00 | |
| DL1NUX | 2026-08-31 14:31:24 | 51.03380 | 9.44692 | 58° | 110km/h | 9686m | -3.5m/s | 0°C | 0% | 0hPa | 0V | 00:00:00 | 00:00:00 | 00:00:00 | |
| DO3MHA-11 | 2026-08-31 14:31:23 | 51.03434 | 9.44854 | 64° | 117km/h | 9673m | -3.3m/s | 0°C | 0% | 0hPa | 4.4V | 00:00:00 | 00:00:00 | 00:00:00 | |
| DL1XH-west | 2026-08-31 14:31:20 | 51.03380 | 9.44692 | 58° | 110km/h | 9683m | -3.5m/s | -46.9°C | 0% | 0hPa | 4.4V | 00:00:00 | 00:00:00 | 00:00:00 | |
| BIOWL1-15 | 2026-08-31 14:31:18 | 51.03271 | 9.44464 | 52° | 133km/h | 9703m | -3.3m/s | -47.2°C | 0% | 0hPa | 4.4V | 00:00:00 | 00:00:00 | 00:00:00 | |
| DO3DL | 2026-08-31 14:31:17 | 51.03348 | 9.44619 | 54° | 113km/h | 9690m | -3.6m/s | -47.0°C | 0% | 0hPa | 4.4V | 00:00:00 | 00:00:00 | 00:00:00 | |
| DO2JMG | 2026-08-31 14:31:16 | 51.03330 | 9.44582 | 52° | 119km/h | 9693m | -3.3m/s | -47.2°C | 0% | 0hPa | 4.4V | 00:00:00 | 00:00:00 | 00:00:00 | |
| AM1SDL-15 | 2026-08-31 14:31:16 | 51.03330 | 9.44602 | 54° | 120km/h | 9706m | -3.3m/s | 0°C | 0% | 0hPa | 0V | 00:00:00 | 00:00:00 | 00:00:00 | |
| HSKMA3-T | 2026-08-31 14:31:16 | 51.03311 | 9.44545 | 51° | 124km/h | 9696m | -3.2m/s | -47.1°C | 0% | 0hPa | 4.4V | 00:00:00 | 00:00:00 | 00:00:00 | |
| DM0DOS-11 | 2026-08-31 14:31:15 | 51.03211 | 9.44330 | 57° | 135km/h | 9716m | -2.8m/s | 0°C | 0% | 0hPa | 0V | 00:00:00 | 00:00:00 | 00:00:00 | |
| DB0UT-7 | 2026-08-31 14:31:15 | 51.03311 | 9.44545 | 51° | 124km/h | 9699m | -3.3m/s | 0°C | 0% | 0hPa | 0V | 00:00:00 | 00:00:00 | 00:00:00 | |
| DL1NUX | 2026-08-31 14:31:14 | 51.03194 | 9.44279 | 61° | 131km/h | 9721m | -2.8m/s | 0°C | 0% | 0hPa | 0V | 00:00:00 | 00:00:00 | 00:00:00 | |
| NBG1-10 | 2026-08-31 14:31:14 | 51.03291 | 9.44505 | 52° | 120km/h | 9703m | -3.2m/s | 0°C | 0% | 0hPa | 0V | 00:00:00 | 00:00:00 | 00:00:00 | |
| DO3MHA-11 | 2026-08-31 14:31:13 | 51.03271 | 9.44464 | 53° | 126km/h | 9706m | -3.3m/s | 0°C | 0% | 0hPa | 0V | 00:00:00 | 00:00:00 | 00:00:00 | |
| DO2KSM | 2026-08-31 14:31:12 | 51.03250 | 9.44421 | 55° | 135km/h | 9706m | -3.3m/s | -47.2°C | 0% | 0hPa | 0V | 00:00:00 | 00:00:00 | 00:00:00 | |
| DO3DL | 2026-08-31 14:31:11 | 51.03211 | 9.44330 | 59° | 135km/h | 9713m | -3.1m/s | -47.1°C | 0% | 0hPa | 0V | 00:00:00 | 00:00:00 | 00:00:00 | |
| DF1GD-15 | 2026-08-31 14:31:10 | 51.03211 | 9.44330 | 59° | 135km/h | 9713m | -3.1m/s | -47.1°C | 0% | 0hPa | 0V | 00:00:00 | 00:00:00 | 00:00:00 | |
| DL1XH-15 | 2026-08-31 14:31:09 | 51.03120 | 9.44075 | 58° | 110km/h | 9733m | -3m/s | 0°C | 0% | 0hPa | 0V | 00:00:00 | 00:00:00 | 00:00:00 | |
| DL1XH-west | 2026-08-31 14:31:09 | 51.03178 | 9.44239 | 61° | 128km/h | 9719m | -2.6m/s | -47.1°C | 0% | 0hPa | 4.4V | 00:00:00 | 00:00:00 | 00:00:00 | |
| DF2AP-13 | 2026-08-31 14:31:08 | 51.03178 | 9.44239 | 62° | 122km/h | 9722m | -2.8m/s | 0°C | 0% | 0hPa | 0V | 00:00:00 | 00:00:00 | 00:00:00 | |
| DM0DOS-11 | 2026-08-31 14:31:05 | 51.03053 | 9.43931 | 50° | 117km/h | 9746m | -3.1m/s | 0°C | 0% | 0hPa | 0V | 00:00:00 | 00:00:00 | 00:00:00 | |
| DO2JMG | 2026-08-31 14:31:04 | 51.03120 | 9.44075 | 58° | 110km/h | 9730m | -3m/s | -47.2°C | 0% | 0hPa | 4.4V | 00:00:00 | 00:00:00 | 00:00:00 | |
| DO3DL | 2026-08-31 14:31:04 | 51.03119 | 9.44075 | 59° | 110km/h | 9731m | -3.0m/s | -47.2°C | 0% | 0hPa | 4.4V | 00:00:00 | 00:00:00 | 00:00:00 | |
| BIOWL1-15 | 2026-08-31 14:31:03 | 51.03089 | 9.44002 | 53° | 110km/h | 9737m | -3m/s | -47.3°C | 0% | 0hPa | 4.4V | 00:00:00 | 00:00:00 | 00:00:00 | |
| DL1NUX | 2026-08-31 14:31:03 | 51.03014 | 9.43856 | 50° | 128km/h | 9752m | -3.1m/s | 0°C | 0% | 0hPa | 0V | 00:00:00 | 00:00:00 | 00:00:00 | |
| DM7RM-13 | 2026-08-31 14:31:03 | 51.03089 | 9.44002 | 54° | 110km/h | 9737m | -3.0m/s | -40.6°C | 0% | 0hPa | 0V | 00:00:00 | 00:00:00 | 00:00:00 | |
| S3001 | 2026-08-31 14:31:02 | 51.03071 | 9.43967 | 51° | 113km/h | 9740m | -3.0m/s | -47.3°C | -1.0% | -1.0hPa | 0V | 00:00:00 | 00:00:00 | 00:00:00 | |
| AM1SDL-15 | 2026-08-31 14:31:01 | 51.03071 | 9.43968 | 51° | 128km/h | 9743m | -3.1m/s | 0°C | 0% | 0hPa | 0V | 00:00:00 | 00:00:00 | 00:00:00 | |
| DL1XH-15 | 2026-08-31 14:30:59 | 51.02933 | 9.43684 | 58° | 135km/h | 9765m | -3.2m/s | 0°C | 0% | 0hPa | 0V | 00:00:00 | 00:00:00 | 00:00:00 | |
| DL1XH-west | 2026-08-31 14:30:58 | 51.03013 | 9.43856 | 51° | 128km/h | 9749m | -3m/s | -47.4°C | 0% | 0hPa | 4.4V | 00:00:00 | 00:00:00 | 00:00:00 | |
| DO3DL | 2026-08-31 14:30:58 | 51.02993 | 9.43815 | 53° | 131km/h | 9752m | -3.1m/s | -47.4°C | 0% | 0hPa | 4.4V | 00:00:00 | 00:00:00 | 00:00:00 | |
| DC6BW-12 | 2026-08-31 14:30:57 | 51.02993 | 9.43815 | 53° | 131km/h | 9752m | -3.1m/s | -47.4°C | 0% | 0hPa | 4.4V | 00:00:00 | 00:00:00 | 00:00:00 | |
| DL3OBA | 2026-08-31 14:30:55 | 51.02953 | 9.43729 | 56° | 135km/h | 9759m | -3.1m/s | -47.4°C | 0% | 0hPa | 4.4V | 00:00:00 | 00:00:00 | 00:00:00 | |
| HSKMA3-T | 2026-08-31 14:30:54 | 51.02915 | 9.43638 | 59° | 135km/h | 9765m | -3.2m/s | -47.4°C | 0% | 0hPa | 4.4V | 00:00:00 | 00:00:00 | 00:00:00 | |
| DL1NUX | 2026-08-31 14:30:53 | 51.02838 | 9.43416 | 59° | 115km/h | 9785m | -3.2m/s | 0°C | 0% | 0hPa | 0V | 00:00:00 | 00:00:00 | 00:00:00 | |
| BIOWL1-15 | 2026-08-31 14:30:52 | 51.02882 | 9.43547 | 61° | 128km/h | 9772m | -3.3m/s | -47.5°C | 0% | 0hPa | 4.4V | 00:00:00 | 00:00:00 | 00:00:00 | |
| DO3DL | 2026-08-31 14:30:51 | 51.02882 | 9.43547 | 62° | 128km/h | 9772m | -3.3m/s | -47.5°C | 0% | 0hPa | 4.4V | 00:00:00 | 00:00:00 | 00:00:00 | |
| DF1GD-15 | 2026-08-31 14:30:50 | 51.02867 | 9.43502 | 63° | 124km/h | 9775m | -3.3m/s | -47.5°C | 0% | 0hPa | 4.4V | 00:00:00 | 00:00:00 | 00:00:00 | |
| AM1SDL-15 | 2026-08-31 14:30:49 | 51.02852 | 9.43459 | 62° | 120km/h | 9782m | -3.2m/s | 0°C | 0% | 0hPa | 4.4V | 00:00:00 | 00:00:00 | 00:00:00 | |
| DL1XH-west | 2026-08-31 14:30:47 | 51.02824 | 9.43379 | 59° | 111km/h | 9785m | -3.2m/s | -47.5°C | 0% | 0hPa | 4.4V | 00:00:00 | 00:00:00 | 00:00:00 | |
| DO2JMG | 2026-08-31 14:30:45 | 51.02793 | 9.43305 | 55° | 110km/h | 9791m | -3.4m/s | -47.5°C | 0% | 0hPa | 4.4V | 00:00:00 | 00:00:00 | 00:00:00 | |
| DM0DOS-11 | 2026-08-31 14:30:45 | 51.02701 | 9.43118 | 52° | 130km/h | 9812m | -3.2m/s | 0°C | 0% | 0hPa | 0V | 00:00:00 | 00:00:00 | 00:00:00 | |
| DO3DL | 2026-08-31 14:30:44 | 51.02777 | 9.43269 | 54° | 111km/h | 9795m | -3.4m/s | -47.6°C | 0% | 0hPa | 4.4V | 00:00:00 | 00:00:00 | 00:00:00 | |
| HSKMA3-T | 2026-08-31 14:30:43 | 51.02759 | 9.43233 | 51° | 115km/h | 9798m | -3.3m/s | -47.6°C | 0% | 0hPa | 4.4V | 00:00:00 | 00:00:00 | 00:00:00 | |
| DL1NUX | 2026-08-31 14:30:43 | 51.02661 | 9.43032 | 55° | 135km/h | 9818m | -3.4m/s | 0°C | 0% | 0hPa | 0V | 00:00:00 | 00:00:00 | 00:00:00 | |
| DO3MHA-11 | 2026-08-31 14:30:43 | 51.02759 | 9.43233 | 52° | 130km/h | 9801m | -3.3m/s | 0°C | 0% | 0hPa | 4.4V | 00:00:00 | 00:00:00 | 00:00:00 | |
| DM7RM-13 | 2026-08-31 14:30:42 | 51.02740 | 9.43197 | 52° | 120km/h | 9801m | -3.4m/s | -41.0°C | 0% | 0hPa | 4.4V | 00:00:00 | 00:00:00 | 00:00:00 | |
| BIOWL1-15 | 2026-08-31 14:30:41 | 51.02701 | 9.43118 | 52° | 130km/h | 9808m | -3.4m/s | -47.7°C | 0% | 0hPa | 4.4V | 00:00:00 | 00:00:00 | 00:00:00 | |
| NBG1-10 | 2026-08-31 14:30:40 | 51.02701 | 9.43118 | 53° | 120km/h | 9812m | -3.2m/s | 0°C | 0% | 0hPa | 0V | 00:00:00 | 00:00:00 | 00:00:00 | |
| DL1XH-15 | 2026-08-31 14:30:39 | 51.02592 | 9.42847 | 62° | 128km/h | 9838m | -3.5m/s | 0°C | 0% | 0hPa | 0V | 00:00:00 | 00:00:00 | 00:00:00 | |
| DF2AP-13 | 2026-08-31 14:30:38 | 51.02661 | 9.43032 | 56° | 120km/h | 9818m | -3.4m/s | 0°C | 0% | 0hPa | 4.4V | 00:00:00 | 00:00:00 | 00:00:00 | |
| DL1XH-west | 2026-08-31 14:30:37 | 51.02625 | 9.42940 | 60° | 135km/h | 9822m | -3.4m/s | -47.7°C | 0% | 0hPa | 4.4V | 00:00:00 | 00:00:00 | 00:00:00 | |
| AM1SDL-15 | 2026-08-31 14:30:37 | 51.02642 | 9.42986 | 60° | 120km/h | 9822m | -3.4m/s | 0°C | 0% | 0hPa | 0V | 00:00:00 | 00:00:00 | 00:00:00 | |
| DM0DOS-11 | 2026-08-31 14:30:35 | 51.02537 | 9.42678 | 60° | 110km/h | 9845m | -3.5m/s | 0°C | 0% | 0hPa | 0V | 00:00:00 | 00:00:00 | 00:00:00 | |
| DL1NUX | 2026-08-31 14:30:33 | 51.02508 | 9.42604 | 53° | 110km/h | 9853m | -3.6m/s | 0°C | 0% | 0hPa | 0V | 00:00:00 | 00:00:00 | 00:00:00 | |
| DO2JMG | 2026-08-31 14:30:33 | 51.02564 | 9.42759 | 63° | 119km/h | 9835m | -3.5m/s | -47.7°C | 0% | 0hPa | 4.4V | 00:00:00 | 00:00:00 | 00:00:00 | |
| DO3DL | 2026-08-31 14:30:32 | 51.02551 | 9.42717 | 63° | 113km/h | 9839m | -3.5m/s | -47.7°C | 0% | 0hPa | 4.4V | 00:00:00 | 00:00:00 | 00:00:00 | |
| BIOWL1-15 | 2026-08-31 14:30:31 | 51.02537 | 9.42678 | 60° | 110km/h | 9842m | -3.5m/s | -47.7°C | 0% | 0hPa | 4.4V | 00:00:00 | 00:00:00 | 00:00:00 | |
| DF1GD-15 | 2026-08-31 14:30:30 | 51.02537 | 9.42678 | 61° | 110km/h | 9846m | -3.5m/s | 0°C | 0% | 0hPa | 0V | 00:00:00 | 00:00:00 | 00:00:00 | |
| DL8DAS-15 | 2026-08-31 14:30:29 | 51.02523 | 9.42640 | 59° | 108km/h | 9846m | -3.5m/s | -47.8°C | 0% | 0hPa | 0V | 00:00:00 | 00:00:00 | 00:00:00 | |
| DL1XH-15 | 2026-08-31 14:30:28 | 51.02416 | 9.42415 | 53° | 130km/h | 9870m | -3.6m/s | 0°C | 0% | 0hPa | 0V | 00:00:00 | 00:00:00 | 00:00:00 | |
| DL1XH-west | 2026-08-31 14:30:26 | 51.02455 | 9.42494 | 52° | 120km/h | 9860m | -3.5m/s | -47.9°C | 0% | 0hPa | 4.4V | 00:00:00 | 00:00:00 | 00:00:00 | |
| AM1SDL-15 | 2026-08-31 14:30:25 | 51.02455 | 9.42494 | 52° | 124km/h | 9863m | -3.4m/s | 0°C | 0% | 0hPa | 4.4V | 00:00:00 | 00:00:00 | 00:00:00 | |
| DO3MHA-11 | 2026-08-31 14:30:23 | 51.02416 | 9.42415 | 54° | 126km/h | 9870m | -3.6m/s | 0°C | 0% | 0hPa | 4.4V | 00:00:00 | 00:00:00 | 00:00:00 | |
| DM7RM-13 | 2026-08-31 14:30:22 | 51.02396 | 9.42372 | 56° | 133km/h | 9870m | -3.6m/s | -41.4°C | 0% | 0hPa | 4.4V | 00:00:00 | 00:00:00 | 00:00:00 | |
| DO2JMG | 2026-08-31 14:30:21 | 51.02378 | 9.42328 | 57° | 133km/h | 9874m | -3.5m/s | -47.9°C | 0% | 0hPa | 4.4V | 00:00:00 | 00:00:00 | 00:00:00 | |
| DJTTGO | 2026-08-31 14:30:21 | 51.02378 | 9.42328 | 58° | 133km/h | 9874m | -3.5m/s | -47.9°C | 0% | 0hPa | 4.4V | 00:00:00 | 00:00:00 | 00:00:00 | |
| BIOWL1-15 | 2026-08-31 14:30:20 | 51.02343 | 9.42237 | 61° | 130km/h | 9881m | -3.5m/s | -47.9°C | 0% | 0hPa | 4.4V | 00:00:00 | 00:00:00 | 00:00:00 | |
| DO3DL | 2026-08-31 14:30:19 | 51.02327 | 9.42191 | 63° | 128km/h | 9884m | -3.4m/s | -48.0°C | 0% | 0hPa | 0V | 00:00:00 | 00:00:00 | 00:00:00 | |
| DL1XH-15 | 2026-08-31 14:30:18 | 51.02260 | 9.41983 | 58° | 108km/h | 9906m | -3.8m/s | 0°C | 0% | 0hPa | 0V | 00:00:00 | 00:00:00 | 00:00:00 | |
| DL1XH-west | 2026-08-31 14:30:16 | 51.02286 | 9.42062 | 63° | 113km/h | 9895m | -3.5m/s | -48.1°C | 0% | 0hPa | 4.4V | 00:00:00 | 00:00:00 | 00:00:00 | |
| DM0DOS-11 | 2026-08-31 14:30:15 | 51.02217 | 9.41878 | 54° | 104km/h | 9917m | -3.6m/s | 0°C | 0% | 0hPa | 0V | 00:00:00 | 00:00:00 | 00:00:00 | |
| DB0UT-7 | 2026-08-31 14:30:15 | 51.02286 | 9.42062 | 64° | 113km/h | 9898m | -3.6m/s | 0°C | 0% | 0hPa | 0V | 00:00:00 | 00:00:00 | 00:00:00 | |
| DL3OBA | 2026-08-31 14:30:14 | 51.02273 | 9.42022 | 63° | 110km/h | 9898m | -3.7m/s | -48.1°C | 0% | 0hPa | 0V | 00:00:00 | 00:00:00 | 00:00:00 | |
| DL1NUX | 2026-08-31 14:30:13 | 51.02184 | 9.41810 | 50° | 111km/h | 9924m | -3.6m/s | 0°C | 0% | 0hPa | 0V | 00:00:00 | 00:00:00 | 00:00:00 | |
| DO3MHA-11 | 2026-08-31 14:30:13 | 51.02260 | 9.41983 | 59° | 111km/h | 9906m | -3.7m/s | 0°C | 0% | 0hPa | 4.4V | 00:00:00 | 00:00:00 | 00:00:00 | |
| DB0NH | 2026-08-31 14:30:11 | 51.02232 | 9.41912 | 55° | 115km/h | 9913m | -3.7m/s | 0°C | 0% | 0hPa | 4.4V | 00:00:00 | 00:00:00 | 00:00:00 | |
| HSKMA3-T | 2026-08-31 14:30:11 | 51.02217 | 9.41878 | 54° | 104km/h | 9913m | -3.7m/s | -48.2°C | 0% | 0hPa | 4.4V | 00:00:00 | 00:00:00 | 00:00:00 | |
| BIOWL1-15 | 2026-08-31 14:30:09 | 51.02184 | 9.41810 | 51° | 111km/h | 9921m | -3.7m/s | -48.3°C | 0% | 0hPa | 4.4V | 00:00:00 | 00:00:00 | 00:00:00 | |
| DF2AP-13 | 2026-08-31 14:30:08 | 51.02184 | 9.41810 | 51° | 115km/h | 9924m | -3.6m/s | 0°C | 0% | 0hPa | 0V | 00:00:00 | 00:00:00 | 00:00:00 | |
| NBG1-10 | 2026-08-31 14:30:07 | 51.02166 | 9.41777 | 51° | 113km/h | 9928m | -3.5m/s | 0°C | 0% | 0hPa | 0V | 00:00:00 | 00:00:00 | 00:00:00 | |
| DO2JMG | 2026-08-31 14:30:07 | 51.02147 | 9.41738 | 51° | 120km/h | 9928m | -3.6m/s | -48.2°C | 0% | 0hPa | 4.4V | 00:00:00 | 00:00:00 | 00:00:00 | |
| DO3DL | 2026-08-31 14:30:06 | 51.02147 | 9.41738 | 52° | 120km/h | 9928m | -3.6m/s | -48.2°C | 0% | 0hPa | 0V | 00:00:00 | 00:00:00 | 00:00:00 | |
| DM0DOS-11 | 2026-08-31 14:30:05 | 51.02043 | 9.41485 | 63° | 120km/h | 9954m | -3.7m/s | 0°C | 0% | 0hPa | 0V | 00:00:00 | 00:00:00 | 00:00:00 | |
| DL1XH-west | 2026-08-31 14:30:04 | 51.02108 | 9.41659 | 55° | 128km/h | 9935m | -3.7m/s | -48.2°C | 0% | 0hPa | 4.4V | 00:00:00 | 00:00:00 | 00:00:00 | |
| DO3MHA-11 | 2026-08-31 14:30:03 | 51.02090 | 9.41617 | 58° | 113km/h | 9943m | -3.6m/s | 0°C | 0% | 0hPa | 4.4V | 00:00:00 | 00:00:00 | 00:00:00 | |
| AM1SDL-15 | 2026-08-31 14:30:01 | 51.02058 | 9.41529 | 62° | 110km/h | 9950m | -3.7m/s | 0°C | 0% | 0hPa | 4.4V | 00:00:00 | 00:00:00 | 00:00:00 | |
| HSKMA3-T | 2026-08-31 14:30:00 | 51.02029 | 9.41444 | 63° | 115km/h | 9954m | -3.7m/s | -48.1°C | 0% | 0hPa | 4.4V | 00:00:00 | 00:00:00 | 00:00:00 | |
| DO3DL | 2026-08-31 14:29:59 | 51.02029 | 9.41444 | 64° | 115km/h | 9954m | -3.7m/s | -48.1°C | 0% | 0hPa | 0V | 00:00:00 | 00:00:00 | 00:00:00 | |
| DL1XH-15 | 2026-08-31 14:29:58 | 51.01949 | 9.41228 | 52° | 100km/h | 9980m | -3.9m/s | 0°C | 0% | 0hPa | 0V | 00:00:00 | 00:00:00 | 00:00:00 | |
| BIOWL1-15 | 2026-08-31 14:29:58 | 51.02004 | 9.41366 | 62° | 106km/h | 9961m | -3.7m/s | -48.2°C | 0% | 0hPa | 4.4V | 00:00:00 | 00:00:00 | 00:00:00 | |
| DL8DAS-15 | 2026-08-31 14:29:57 | 51.02004 | 9.41366 | 63° | 106km/h | 9961m | -3.7m/s | -48.2°C | 0% | 0hPa | 4.4V | 00:00:00 | 00:00:00 | 00:00:00 | |
| DO2JMG | 2026-08-31 14:29:56 | 51.01978 | 9.41294 | 58° | 100km/h | 9968m | -3.8m/s | -48.3°C | 0% | 0hPa | 4.4V | 00:00:00 | 00:00:00 | 00:00:00 | |
| DM0DOS-11 | 2026-08-31 14:29:55 | 51.01897 | 9.41130 | 49° | 113km/h | 9991m | -3.8m/s | 0°C | 0% | 0hPa | 0V | 00:00:00 | 00:00:00 | 00:00:00 | |
| DL1XH-west | 2026-08-31 14:29:54 | 51.01949 | 9.41228 | 53° | 100km/h | 9976m | -3.9m/s | -48.3°C | 0% | 0hPa | 4.4V | 00:00:00 | 00:00:00 | 00:00:00 | |
| DO3MHA-11 | 2026-08-31 14:29:53 | 51.01949 | 9.41228 | 53° | 117km/h | 9980m | -3.8m/s | 0°C | 0% | 0hPa | 4.5V | 00:00:00 | 00:00:00 | 00:00:00 | |
| HSKMA3-T | 2026-08-31 14:29:50 | 51.01878 | 9.41094 | 51° | 119km/h | 9991m | -3.8m/s | -48.5°C | 0% | 0hPa | 4.5V | 00:00:00 | 00:00:00 | 00:00:00 | |
| DL1CLM-18 | 2026-08-31 14:29:49 | 51.01859 | 9.41056 | 53° | 124km/h | 9995m | -3.7m/s | -48.5°C | 0% | 0hPa | 0V | 00:00:00 | 00:00:00 | 00:00:00 | |
| DL1XH-15 | 2026-08-31 14:29:48 | 51.01773 | 9.40842 | 62° | 120km/h | 10018m | -3.9m/s | 0°C | 0% | 0hPa | 0V | 00:00:00 | 00:00:00 | 00:00:00 | |
| BIOWL1-15 | 2026-08-31 14:29:47 | 51.01840 | 9.41016 | 54° | 126km/h | 9999m | -3.8m/s | -48.5°C | 0% | 0hPa | 4.5V | 00:00:00 | 00:00:00 | 00:00:00 | |
| DO8TBO-1 | 2026-08-31 14:29:46 | 51.01804 | 9.40930 | 61° | 119km/h | 10011m | -3.9m/s | 0°C | 0% | 0hPa | 0V | 00:00:00 | 00:00:00 | 00:00:00 | |
| DO2JMG | 2026-08-31 14:29:46 | 51.01804 | 9.40931 | 59° | 128km/h | 10007m | -4m/s | -48.5°C | 0% | 0hPa | 4.5V | 00:00:00 | 00:00:00 | 00:00:00 | |
| DM0DOS-11 | 2026-08-31 14:29:45 | 51.01733 | 9.40726 | 59° | 104km/h | 10030m | -3.6m/s | 0°C | 0% | 0hPa | 0V | 00:00:00 | 00:00:00 | 00:00:00 | |
| DB0UT-7 | 2026-08-31 14:29:45 | 51.01804 | 9.40930 | 61° | 119km/h | 10011m | -3.9m/s | 0°C | 0% | 0hPa | 0V | 00:00:00 | 00:00:00 | 00:00:00 | |
| DL1NUX | 2026-08-31 14:29:43 | 51.01704 | 9.40656 | 54° | 102km/h | 10041m | -3.9m/s | 0°C | 0% | 0hPa | 0V | 00:00:00 | 00:00:00 | 00:00:00 | |
| DL1XH-west | 2026-08-31 14:29:43 | 51.01759 | 9.40803 | 62° | 115km/h | 10018m | -3.9m/s | -48.4°C | 0% | 0hPa | 4.4V | 00:00:00 | 00:00:00 | 00:00:00 | |
| DB0NH | 2026-08-31 14:29:41 | 51.01746 | 9.40761 | 60° | 120km/h | 10026m | -3.5m/s | 0°C | 0% | 0hPa | 4.4V | 00:00:00 | 00:00:00 | 00:00:00 | |
| DO3DL | 2026-08-31 14:29:40 | 51.01732 | 9.40726 | 61° | 104km/h | 10026m | -3.6m/s | -48.4°C | 0% | 0hPa | 4.4V | 00:00:00 | 00:00:00 | 00:00:00 | |
| HSKMA3-T | 2026-08-31 14:29:39 | 51.01704 | 9.40657 | 54° | 102km/h | 10034m | -3.8m/s | -48.5°C | 0% | 0hPa | 4.4V | 00:00:00 | 00:00:00 | 00:00:00 | |
| DL1XH-15 | 2026-08-31 14:29:38 | 51.01614 | 9.40482 | 50° | 124km/h | 10056m | -3.8m/s | 0°C | 0% | 0hPa | 0V | 00:00:00 | 00:00:00 | 00:00:00 | |
| DF2AP-13 | 2026-08-31 14:29:38 | 51.01704 | 9.40656 | 55° | 124km/h | 10037m | -3.7m/s | 0°C | 0% | 0hPa | 4.4V | 00:00:00 | 00:00:00 | 00:00:00 | |
| BIOWL1-15 | 2026-08-31 14:29:37 | 51.01671 | 9.40590 | 51° | 110km/h | 10041m | -3.9m/s | -48.6°C | 0% | 0hPa | 4.4V | 00:00:00 | 00:00:00 | 00:00:00 | |
| DC6BW-12 | 2026-08-31 14:29:35 | 51.01653 | 9.40555 | 51° | 115km/h | 10045m | -3.8m/s | -48.7°C | 0% | 0hPa | 0V | 00:00:00 | 00:00:00 | 00:00:00 | |
| NBG1-10 | 2026-08-31 14:29:34 | 51.01634 | 9.40519 | 51° | 124km/h | 10052m | -3.7m/s | 0°C | 0% | 0hPa | 0V | 00:00:00 | 00:00:00 | 00:00:00 | |
| DL1NUX | 2026-08-31 14:29:33 | 51.01517 | 9.40269 | 59° | 135km/h | 10076m | -4m/s | 0°C | 0% | 0hPa | 0V | 00:00:00 | 00:00:00 | 00:00:00 | |
| DO3MHA-11 | 2026-08-31 14:29:33 | 51.01614 | 9.40482 | 51° | 128km/h | 10056m | -3.7m/s | 0°C | 0% | 0hPa | 4.4V | 00:00:00 | 00:00:00 | 00:00:00 | |
| DL1XH-west | 2026-08-31 14:29:32 | 51.01574 | 9.40402 | 53° | 131km/h | 10060m | -3.8m/s | -48.8°C | 0% | 0hPa | 4.4V | 00:00:00 | 00:00:00 | 00:00:00 | |
| DO2KSM | 2026-08-31 14:29:29 | 51.01535 | 9.40315 | 57° | 135km/h | 10068m | -4.0m/s | -48.8°C | 0% | 0hPa | 0V | 00:00:00 | 00:00:00 | 00:00:00 | |
| DL1XH-15 | 2026-08-31 14:29:28 | 51.01441 | 9.40054 | 60° | 110km/h | 10098m | -4m/s | 0°C | 0% | 0hPa | 0V | 00:00:00 | 00:00:00 | 00:00:00 | |
| HSKMA3-T | 2026-08-31 14:29:28 | 51.01499 | 9.40223 | 60° | 131km/h | 10076m | -4m/s | -48.8°C | 0% | 0hPa | 4.4V | 00:00:00 | 00:00:00 | 00:00:00 | |
| DO3DL | 2026-08-31 14:29:27 | 51.01499 | 9.40223 | 61° | 131km/h | 10076m | -4.0m/s | -48.8°C | 0% | 0hPa | 4.5V | 00:00:00 | 00:00:00 | 00:00:00 | |
| BIOWL1-15 | 2026-08-31 14:29:26 | 51.01469 | 9.40135 | 62° | 120km/h | 10084m | -3.5m/s | -48.7°C | 0% | 0hPa | 4.5V | 00:00:00 | 00:00:00 | 00:00:00 | |
| AM1SDL-15 | 2026-08-31 14:29:25 | 51.01469 | 9.40134 | 63° | 119km/h | 10091m | -3.5m/s | 0°C | 0% | 0hPa | 0V | 00:00:00 | 00:00:00 | 00:00:00 | |
| DL8DAS-15 | 2026-08-31 14:29:24 | 51.01455 | 9.40093 | 63° | 115km/h | 10087m | -3.6m/s | -48.7°C | 0% | 0hPa | 0V | 00:00:00 | 00:00:00 | 00:00:00 | |
| DL1NUX | 2026-08-31 14:29:23 | 51.01359 | 9.39876 | 49° | 120km/h | 10117m | -3.6m/s | 0°C | 0% | 0hPa | 0V | 00:00:00 | 00:00:00 | 00:00:00 | |
| DO3MHA-11 | 2026-08-31 14:29:23 | 51.01441 | 9.40054 | 61° | 120km/h | 10094m | -3.7m/s | 0°C | 0% | 0hPa | 4.5V | 00:00:00 | 00:00:00 | 00:00:00 | |
| DL1XH-west | 2026-08-31 14:29:22 | 51.01412 | 9.39981 | 55° | 106km/h | 10098m | -4m/s | -48.8°C | 0% | 0hPa | 4.5V | 00:00:00 | 00:00:00 | 00:00:00 | |
| DO3DL | 2026-08-31 14:29:21 | 51.01396 | 9.39947 | 53° | 110km/h | 10102m | -4.0m/s | -48.8°C | 0% | 0hPa | 4.5V | 00:00:00 | 00:00:00 | 00:00:00 | |
| DM7RM-13 | 2026-08-31 14:29:20 | 51.01396 | 9.39947 | 53° | 110km/h | 10102m | -4.0m/s | -42.3°C | 0% | 0hPa | 4.5V | 00:00:00 | 00:00:00 | 00:00:00 | |
| DF8AY | 2026-08-31 14:29:17 | 51.01318 | 9.39798 | 51° | 131km/h | 10117m | -3.6m/s | -48.9°C | 0% | 0hPa | 4.5V | 00:00:00 | 00:00:00 | 00:00:00 | |
| DL1XH-15 | 2026-08-31 14:29:16 | 51.01220 | 9.39571 | 61° | 133km/h | 10140m | -3.8m/s | 0°C | 0% | 0hPa | 0V | 00:00:00 | 00:00:00 | 00:00:00 | |
| BIOWL1-15 | 2026-08-31 14:29:15 | 51.01277 | 9.39711 | 54° | 139km/h | 10125m | -3.8m/s | -48.7°C | 0% | 0hPa | 4.5V | 00:00:00 | 00:00:00 | 00:00:00 | |
| DC6BW-12 | 2026-08-31 14:29:14 | 51.01276 | 9.39711 | 55° | 139km/h | 10125m | -3.8m/s | -48.7°C | 0% | 0hPa | 0V | 00:00:00 | 00:00:00 | 00:00:00 | |
| DL1NUX | 2026-08-31 14:29:13 | 51.01174 | 9.39440 | 60° | 117km/h | 10151m | -3.7m/s | 0°C | 0% | 0hPa | 0V | 00:00:00 | 00:00:00 | 00:00:00 | |
| DO3MHA-11 | 2026-08-31 14:29:13 | 51.01256 | 9.39666 | 59° | 124km/h | 10132m | -3.8m/s | 0°C | 0% | 0hPa | 4.5V | 00:00:00 | 00:00:00 | 00:00:00 | |
| AA1-15 | 2026-08-31 14:29:11 | 51.01220 | 9.39572 | 60° | 133km/h | 10136m | -3.9m/s | -48.6°C | 0% | 0hPa | 4.5V | 00:00:00 | 00:00:00 | 00:00:00 | |
| DB0NH | 2026-08-31 14:29:11 | 51.01220 | 9.39571 | 62° | 130km/h | 10140m | -3.8m/s | 0°C | 0% | 0hPa | 4.5V | 00:00:00 | 00:00:00 | 00:00:00 | |
| DO2JMG | 2026-08-31 14:29:10 | 51.01204 | 9.39526 | 61° | 130km/h | 10140m | -3.8m/s | -48.5°C | 0% | 0hPa | 4.5V | 00:00:00 | 00:00:00 | 00:00:00 | |
| DO2KSM | 2026-08-31 14:29:09 | 51.01188 | 9.39482 | 62° | 122km/h | 10144m | -3.6m/s | -48.5°C | 0% | 0hPa | 4.5V | 00:00:00 | 00:00:00 | 00:00:00 | |
| DF2AP-13 | 2026-08-31 14:29:08 | 51.01174 | 9.39440 | 61° | 128km/h | 10151m | -3.7m/s | 0°C | 0% | 0hPa | 4.5V | 00:00:00 | 00:00:00 | 00:00:00 | |
| HSKMA3-T | 2026-08-31 14:29:07 | 51.01143 | 9.39362 | 55° | 113km/h | 10155m | -3.6m/s | -48.4°C | 0% | 0hPa | 4.5V | 00:00:00 | 00:00:00 | 00:00:00 | |
| DL1XH-15 | 2026-08-31 14:29:06 | 51.01046 | 9.39176 | 49° | 133km/h | 10176m | -3.6m/s | 0°C | 0% | 0hPa | 0V | 00:00:00 | 00:00:00 | 00:00:00 | |
| DM0DOS-11 | 2026-08-31 14:29:05 | 51.01024 | 9.39137 | 52° | 137km/h | 10180m | -3.8m/s | 0°C | 0% | 0hPa | 0V | 00:00:00 | 00:00:00 | 00:00:00 | |
| BIOWL1-15 | 2026-08-31 14:29:04 | 51.01088 | 9.39254 | 49° | 122km/h | 10166m | -3.7m/s | -48.5°C | 0% | 0hPa | 4.5V | 00:00:00 | 00:00:00 | 00:00:00 | |
| DO3MHA-11 | 2026-08-31 14:29:03 | 51.01088 | 9.39253 | 50° | 135km/h | 10169m | -3.6m/s | 0°C | 0% | 0hPa | 4.5V | 00:00:00 | 00:00:00 | 00:00:00 | |
| NBG1-10 | 2026-08-31 14:29:01 | 51.01045 | 9.39176 | 50° | 131km/h | 10176m | -3.6m/s | 0°C | 0% | 0hPa | 4.5V | 00:00:00 | 00:00:00 | 00:00:00 | |
| AA1-15 | 2026-08-31 14:29:00 | 51.01024 | 9.39135 | 51° | 137km/h | 10176m | -3.6m/s | -48.5°C | 0% | 0hPa | 4.5V | 00:00:00 | 00:00:00 | 00:00:00 | |
| DM7RM-13 | 2026-08-31 14:29:00 | 51.01024 | 9.39135 | 52° | 137km/h | 10176m | -3.6m/s | -42.0°C | 0% | 0hPa | 4.5V | 00:00:00 | 00:00:00 | 00:00:00 | |
| DL1XH-west | 2026-08-31 14:28:59 | 51.01002 | 9.39091 | 52° | 141km/h | 10180m | -3.8m/s | -48.5°C | 0% | 0hPa | 4.5V | 00:00:00 | 00:00:00 | 00:00:00 | |
| DL1XH-15 | 2026-08-31 14:28:56 | 51.00858 | 9.38726 | 57° | 119km/h | 10213m | -3.5m/s | 0°C | 0% | 0hPa | 0V | 00:00:00 | 00:00:00 | 00:00:00 | |
| HSKMA3-T | 2026-08-31 14:28:56 | 51.00922 | 9.38902 | 60° | 137km/h | 10195m | -3.6m/s | -48.4°C | 0% | 0hPa | 4.5V | 00:00:00 | 00:00:00 | 00:00:00 | |
| DM0DOS-11 | 2026-08-31 14:28:55 | 51.00842 | 9.38686 | 54° | 117km/h | 10217m | -3.5m/s | 0°C | 0% | 0hPa | 0V | 00:00:00 | 00:00:00 | 00:00:00 | |
| BIOWL1-15 | 2026-08-31 14:28:54 | 51.00889 | 9.38810 | 61° | 126km/h | 10203m | -3.7m/s | -48.4°C | 0% | 0hPa | 4.5V | 00:00:00 | 00:00:00 | 00:00:00 | |
| DL1NUX | 2026-08-31 14:28:53 | 51.00805 | 9.38611 | 50° | 120km/h | 10224m | -3.5m/s | 0°C | 0% | 0hPa | 0V | 00:00:00 | 00:00:00 | 00:00:00 | |
| DL3OBA | 2026-08-31 14:28:53 | 51.00873 | 9.38767 | 61° | 122km/h | 10206m | -3.5m/s | -48.4°C | 0% | 0hPa | 4.5V | 00:00:00 | 00:00:00 | 00:00:00 | |
| DL8DAS-15 | 2026-08-31 14:28:52 | 51.00873 | 9.38767 | 61° | 122km/h | 10206m | -3.5m/s | -48.4°C | 0% | 0hPa | 4.5V | 00:00:00 | 00:00:00 | 00:00:00 | |
| DO2JMG | 2026-08-31 14:28:49 | 51.00805 | 9.38611 | 50° | 120km/h | 10220m | -3.5m/s | -48.6°C | 0% | 0hPa | 4.5V | 00:00:00 | 00:00:00 | 00:00:00 | |
| DO2KSM | 2026-08-31 14:28:48 | 51.00805 | 9.38611 | 51° | 120km/h | 10221m | -3.5m/s | -48.6°C | 0% | 0hPa | 0V | 00:00:00 | 00:00:00 | 00:00:00 | |
| DO8TBO-1 | 2026-08-31 14:28:46 | 51.00764 | 9.38534 | 49° | 133km/h | 10231m | -3.5m/s | 0°C | 0% | 0hPa | 0V | 00:00:00 | 00:00:00 | 00:00:00 | |
| DM0DOS-11 | 2026-08-31 14:28:45 | 51.00630 | 9.38265 | 56° | 146km/h | 10253m | -3.5m/s | 0°C | 0% | 0hPa | 0V | 00:00:00 | 00:00:00 | 00:00:00 | |
| HSKMA3-T | 2026-08-31 14:28:45 | 51.00718 | 9.38452 | 50° | 141km/h | 10235m | -3.5m/s | -48.8°C | 0% | 0hPa | 4.5V | 00:00:00 | 00:00:00 | 00:00:00 | |
| BIOWL7-15 | 2026-08-31 14:28:44 | 51.00718 | 9.38452 | 51° | 141km/h | 10235m | -3.5m/s | -48.8°C | 0% | 0hPa | 0V | 00:00:00 | 00:00:00 | 00:00:00 | |
| DL1NUX | 2026-08-31 14:28:43 | 51.00592 | 9.38167 | 60° | 139km/h | 10260m | -3.5m/s | 0°C | 0% | 0hPa | 0V | 00:00:00 | 00:00:00 | 00:00:00 | |
| DO3MHA-11 | 2026-08-31 14:28:43 | 51.00695 | 9.38409 | 54° | 137km/h | 10242m | -3.5m/s | 0°C | 0% | 0hPa | 4.5V | 00:00:00 | 00:00:00 | 00:00:00 | |
| BIOWL1-15 | 2026-08-31 14:28:42 | 51.00673 | 9.38362 | 53° | 146km/h | 10242m | -3.6m/s | -48.8°C | 0% | 0hPa | 4.5V | 00:00:00 | 00:00:00 | 00:00:00 | |
| DO3DL | 2026-08-31 14:28:42 | 51.00673 | 9.38362 | 54° | 146km/h | 10242m | -3.6m/s | -48.8°C | 0% | 0hPa | 4.5V | 00:00:00 | 00:00:00 | 00:00:00 | |
| DB0NH | 2026-08-31 14:28:41 | 51.00651 | 9.38314 | 57° | 131km/h | 10249m | -3.5m/s | 0°C | 0% | 0hPa | 4.5V | 00:00:00 | 00:00:00 | 00:00:00 | |
| DM7RM-13 | 2026-08-31 14:28:39 | 51.00611 | 9.38215 | 60° | 142km/h | 10253m | -3.5m/s | -42.3°C | 0% | 0hPa | 4.5V | 00:00:00 | 00:00:00 | 00:00:00 | |
| DL1XH-west | 2026-08-31 14:28:38 | 51.00593 | 9.38167 | 60° | 139km/h | 10256m | -3.5m/s | -48.8°C | 0% | 0hPa | 4.5V | 00:00:00 | 00:00:00 | 00:00:00 | |
| DF2AP-13 | 2026-08-31 14:28:38 | 51.00592 | 9.38167 | 61° | 130km/h | 10260m | -3.5m/s | 0°C | 0% | 0hPa | 0V | 00:00:00 | 00:00:00 | 00:00:00 | |
| DF1GD-15 | 2026-08-31 14:28:37 | 51.00559 | 9.38074 | 61° | 126km/h | 10264m | -3.4m/s | -48.8°C | 0% | 0hPa | 0V | 00:00:00 | 00:00:00 | 00:00:00 | |
| DL1XH-15 | 2026-08-31 14:28:36 | 51.00470 | 9.37877 | 49° | 126km/h | 10284m | -3.5m/s | 0°C | 0% | 0hPa | 0V | 00:00:00 | 00:00:00 | 00:00:00 | |
| DO3DL | 2026-08-31 14:28:35 | 51.00543 | 9.38032 | 59° | 122km/h | 10267m | -3.3m/s | -48.8°C | 0% | 0hPa | 4.5V | 00:00:00 | 00:00:00 | 00:00:00 | |
| HSKMA3-T | 2026-08-31 14:28:34 | 51.00509 | 9.37952 | 53° | 119km/h | 10274m | -3.3m/s | -48.9°C | 0% | 0hPa | 4.5V | 00:00:00 | 00:00:00 | 00:00:00 | |
| DL1NUX | 2026-08-31 14:28:33 | 51.00404 | 9.37759 | 51° | 141km/h | 10295m | -3.4m/s | 0°C | 0% | 0hPa | 0V | 00:00:00 | 00:00:00 | 00:00:00 | |
| DO3MHA-11 | 2026-08-31 14:28:33 | 51.00509 | 9.37952 | 54° | 135km/h | 10277m | -3.3m/s | 0°C | 0% | 0hPa | 4.5V | 00:00:00 | 00:00:00 | 00:00:00 | |
| BIOWL1-15 | 2026-08-31 14:28:32 | 51.00470 | 9.37877 | 49° | 126km/h | 10281m | -3.4m/s | -49°C | 0% | 0hPa | 4.5V | 00:00:00 | 00:00:00 | 00:00:00 | |
| DO3DL | 2026-08-31 14:28:29 | 51.00426 | 9.37799 | 49° | 135km/h | 10288m | -3.4m/s | -49.0°C | 0% | 0hPa | 4.5V | 00:00:00 | 00:00:00 | 00:00:00 | |
| DO2JMG | 2026-08-31 14:28:28 | 51.00404 | 9.37757 | 50° | 141km/h | 10291m | -3.6m/s | -49°C | 0% | 0hPa | 4.5V | 00:00:00 | 00:00:00 | 00:00:00 | |
| NBG1-10 | 2026-08-31 14:28:28 | 51.00404 | 9.37760 | 52° | 126km/h | 10298m | -3.4m/s | 0°C | 0% | 0hPa | 4.5V | 00:00:00 | 00:00:00 | 00:00:00 | |
| DL1XH-west | 2026-08-31 14:28:27 | 51.00381 | 9.37713 | 51° | 144km/h | 10295m | -3.4m/s | -49°C | 0% | 0hPa | 4.5V | 00:00:00 | 00:00:00 | 00:00:00 | |
| DL1XH-15 | 2026-08-31 14:28:26 | 51.00265 | 9.37427 | 60° | 130km/h | 10315m | -3.5m/s | 0°C | 0% | 0hPa | 0V | 00:00:00 | 00:00:00 | 00:00:00 | |
| DM0DOS-11 | 2026-08-31 14:28:25 | 51.00249 | 9.37383 | 60° | 124km/h | 10322m | -3.4m/s | 0°C | 0% | 0hPa | 0V | 00:00:00 | 00:00:00 | 00:00:00 | |
| AM1SDL-15 | 2026-08-31 14:28:25 | 51.00337 | 9.37618 | 56° | 128km/h | 10305m | -3.3m/s | 0°C | 0% | 0hPa | 4.5V | 00:00:00 | 00:00:00 | 00:00:00 | |
| THATR2-17 | 2026-08-31 14:28:24 | 50.99983 | 9.36794 | 60° | 126km/h | 10366m | 0m/s | 0°C | 0% | 0hPa | 4.5V | 00:00:00 | 00:00:00 | 00:00:00 | |
| AA1-15 | 2026-08-31 14:28:23 | 51.00298 | 9.37521 | 60° | 141km/h | 10308m | -3.4m/s | -48.8°C | 0% | 0hPa | 4.5V | 00:00:00 | 00:00:00 | 00:00:00 | |
| DL1NUX | 2026-08-31 14:28:23 | 51.00217 | 9.37300 | 56° | 117km/h | 10329m | -3.4m/s | 0°C | 0% | 0hPa | 0V | 00:00:00 | 00:00:00 | 00:00:00 | |
| DO3DL | 2026-08-31 14:28:22 | 51.00281 | 9.37473 | 62° | 135km/h | 10312m | -3.5m/s | -48.8°C | 0% | 0hPa | 4.5V | 00:00:00 | 00:00:00 | 00:00:00 | |
| BIOWL1-15 | 2026-08-31 14:28:21 | 51.00249 | 9.37382 | 60° | 124km/h | 10318m | -3.4m/s | -48.8°C | 0% | 0hPa | 4.5V | 00:00:00 | 00:00:00 | 00:00:00 | |
| DL8DAS-15 | 2026-08-31 14:28:20 | 51.00249 | 9.37382 | 61° | 124km/h | 10318m | -3.4m/s | -48.8°C | 0% | 0hPa | 4.5V | 00:00:00 | 00:00:00 | 00:00:00 | |
| DM7RM-13 | 2026-08-31 14:28:19 | 51.00233 | 9.37340 | 60° | 120km/h | 10322m | -3.4m/s | -42.2°C | 0% | 0hPa | 4.5V | 00:00:00 | 00:00:00 | 00:00:00 | |
| DL1XH-west | 2026-08-31 14:28:16 | 51.00183 | 9.37224 | 52° | 117km/h | 10332m | -3.5m/s | -48.7°C | 0% | 0hPa | 4.5V | 00:00:00 | 00:00:00 | 00:00:00 | |
| DO8TBO-1 | 2026-08-31 14:28:16 | 51.00143 | 9.37149 | 49° | 124km/h | 10346m | -3.2m/s | 0°C | 0% | 0hPa | 0V | 00:00:00 | 00:00:00 | 00:00:00 | |
| DM0DOS-11 | 2026-08-31 14:28:15 | 51.00056 | 9.36980 | 54° | 142km/h | 10356m | -3.3m/s | 0°C | 0% | 0hPa | 0V | 00:00:00 | 00:00:00 | 00:00:00 | |
| DO2JMG | 2026-08-31 14:28:15 | 51.00143 | 9.37150 | 49° | 128km/h | 10339m | -3.4m/s | -48.8°C | 0% | 0hPa | 4.5V | 00:00:00 | 00:00:00 | 00:00:00 | |
| DL1NUX | 2026-08-31 14:28:13 | 51.00017 | 9.36886 | 58° | 137km/h | 10366m | -3.2m/s | 0°C | 0% | 0hPa | 0V | 00:00:00 | 00:00:00 | 00:00:00 | |
| DO3MHA-11 | 2026-08-31 14:28:13 | 51.00121 | 9.37112 | 51° | 133km/h | 10346m | -3.2m/s | 0°C | 0% | 0hPa | 4.5V | 00:00:00 | 00:00:00 | 00:00:00 | |
| HSKMA3-T | 2026-08-31 14:28:12 | 51.00099 | 9.37069 | 50° | 139km/h | 10346m | -3.3m/s | -48.8°C | 0% | 0hPa | 4.5V | 00:00:00 | 00:00:00 | 00:00:00 | |
| DL1XH-15 | 2026-08-31 14:28:12 | 50.99999 | 9.36839 | 60° | 133km/h | 10366m | -3.2m/s | 0°C | 0% | 0hPa | 0V | 00:00:00 | 00:00:00 | 00:00:00 | |
| DL3OBA | 2026-08-31 14:28:12 | 51.00077 | 9.37025 | 53° | 141km/h | 10349m | -3.2m/s | -48.8°C | 0% | 0hPa | 4.5V | 00:00:00 | 00:00:00 | 00:00:00 | |
| BIOWL1-15 | 2026-08-31 14:28:11 | 51.00056 | 9.36980 | 55° | 142km/h | 10353m | -3.3m/s | -48.8°C | 0% | 0hPa | 4.5V | 00:00:00 | 00:00:00 | 00:00:00 | |
| DF1GD-15 | 2026-08-31 14:28:10 | 51.00056 | 9.36979 | 56° | 142km/h | 10353m | -3.3m/s | -48.6°C | 0% | 0hPa | 4.5V | 00:00:00 | 00:00:00 | 00:00:00 | |
| DO3DL | 2026-08-31 14:28:09 | 51.00035 | 9.36933 | 58° | 141km/h | 10356m | -3.3m/s | -48.7°C | 0% | 0hPa | 4.5V | 00:00:00 | 00:00:00 | 00:00:00 | |
| DF2AP-13 | 2026-08-31 14:28:08 | 51.00017 | 9.36886 | 59° | 120km/h | 10363m | -3.1m/s | 0°C | 0% | 0hPa | 4.5V | 00:00:00 | 00:00:00 | 00:00:00 | |
| DO2KSM | 2026-08-31 14:28:07 | 50.99999 | 9.36839 | 61° | 133km/h | 10363m | -3.2m/s | -48.7°C | 0% | 0hPa | 4.5V | 00:00:00 | 00:00:00 | 00:00:00 | |
| DL1XH-west | 2026-08-31 14:28:06 | 50.99968 | 9.36750 | 61° | 122km/h | 10369m | -3.4m/s | -48.8°C | 0% | 0hPa | 4.5V | 00:00:00 | 00:00:00 | 00:00:00 | |
| DO2JMG | 2026-08-31 14:28:04 | 50.99939 | 9.36669 | 59° | 113km/h | 10376m | -3.5m/s | -48.9°C | 0% | 0hPa | 4.5V | 00:00:00 | 00:00:00 | 00:00:00 | |
| DO3MHA-11 | 2026-08-31 14:28:03 | 50.99938 | 9.36669 | 60° | 119km/h | 10380m | -3.6m/s | 0°C | 0% | 0hPa | 0V | 00:00:00 | 00:00:00 | 00:00:00 | |
| DL1XH-15 | 2026-08-31 14:28:02 | 50.99836 | 9.36452 | 49° | 124km/h | 10401m | -3.2m/s | 0°C | 0% | 0hPa | 0V | 00:00:00 | 00:00:00 | 00:00:00 | |
| HSKMA3-T | 2026-08-31 14:28:02 | 50.99909 | 9.36594 | 55° | 110km/h | 10384m | -3.6m/s | -48.9°C | 0% | 0hPa | 4.5V | 00:00:00 | 00:00:00 | 00:00:00 | |
| AM1SDL-15 | 2026-08-31 14:28:00 | 50.99892 | 9.36578 | 50° | 126km/h | 10401m | -3.2m/s | 0°C | 0% | 0hPa | 4.5V | 00:00:00 | 00:00:00 | 00:00:00 | |
| BIOWL1-15 | 2026-08-31 14:27:59 | 50.99875 | 9.36523 | 51° | 113km/h | 10391m | -3.5m/s | -48.9°C | 0% | 0hPa | 4.5V | 00:00:00 | 00:00:00 | 00:00:00 | |
| DL1XH-west | 2026-08-31 14:27:56 | 50.99795 | 9.36372 | 53° | 133km/h | 10404m | -3.3m/s | -48.8°C | 0% | 0hPa | 4.5V | 00:00:00 | 00:00:00 | 00:00:00 | |
| DM0DOS-11 | 2026-08-31 14:27:55 | 50.99707 | 9.36145 | 62° | 128km/h | 10424m | -3.5m/s | 0°C | 0% | 0hPa | 0V | 00:00:00 | 00:00:00 | 00:00:00 | |
| NBG1-10 | 2026-08-31 14:27:55 | 50.99795 | 9.36371 | 53° | 119km/h | 10407m | -3.2m/s | 0°C | 0% | 0hPa | 4.5V | 00:00:00 | 00:00:00 | 00:00:00 | |
| DO3MHA-11 | 2026-08-31 14:27:53 | 50.99756 | 9.36283 | 60° | 120km/h | 10414m | -3.4m/s | 0°C | 0% | 0hPa | 4.5V | 00:00:00 | 00:00:00 | 00:00:00 | |
| HSKMA3-T | 2026-08-31 14:27:51 | 50.99706 | 9.36145 | 63° | 128km/h | 10421m | -3.5m/s | -48.8°C | 0% | 0hPa | 4.5V | 00:00:00 | 00:00:00 | 00:00:00 | |
| DO3DL | 2026-08-31 14:27:50 | 50.99706 | 9.36145 | 64° | 128km/h | 10421m | -3.5m/s | -48.8°C | 0% | 0hPa | 4.5V | 00:00:00 | 00:00:00 | 00:00:00 | |
| DL3OBA | 2026-08-31 14:27:49 | 50.99692 | 9.36100 | 64° | 122km/h | 10425m | -3.5m/s | -48.7°C | 0% | 0hPa | 4.5V | 00:00:00 | 00:00:00 | 00:00:00 | |
| DO2JMG | 2026-08-31 14:27:48 | 50.99679 | 9.36058 | 63° | 117km/h | 10428m | -3.4m/s | -48.6°C | 0% | 0hPa | 4.5V | 00:00:00 | 00:00:00 | 00:00:00 | |
| AM1SDL-15 | 2026-08-31 14:27:48 | 50.99679 | 9.36058 | 64° | 117km/h | 10435m | -3.2m/s | 0°C | 0% | 0hPa | 0V | 00:00:00 | 00:00:00 | 00:00:00 | |
| DO2KSM | 2026-08-31 14:27:47 | 50.99665 | 9.36017 | 63° | 111km/h | 10432m | -3.3m/s | -48.6°C | 0% | 0hPa | 0V | 00:00:00 | 00:00:00 | 00:00:00 | |
| DO8TBO-1 | 2026-08-31 14:27:46 | 50.99637 | 9.35943 | 54° | 119km/h | 10442m | -3.3m/s | 0°C | 0% | 0hPa | 0V | 00:00:00 | 00:00:00 | 00:00:00 | |
| DM0DOS-11 | 2026-08-31 14:27:45 | 50.99548 | 9.35770 | 52° | 124km/h | 10459m | -3.4m/s | 0°C | 0% | 0hPa | 0V | 00:00:00 | 00:00:00 | 00:00:00 | |
| DB0UT-7 | 2026-08-31 14:27:45 | 50.99637 | 9.35942 | 54° | 119km/h | 10442m | -3.3m/s | 0°C | 0% | 0hPa | 4.5V | 00:00:00 | 00:00:00 | 00:00:00 | |
| DL1XH-west | 2026-08-31 14:27:44 | 50.99622 | 9.35909 | 53° | 106km/h | 10442m | -3.3m/s | -48.4°C | 0% | 0hPa | 4.5V | 00:00:00 | 00:00:00 | 00:00:00 | |
| DO3MHA-11 | 2026-08-31 14:27:43 | 50.99605 | 9.35875 | 51° | 124km/h | 10449m | -3.3m/s | 0°C | 0% | 0hPa | 0V | 00:00:00 | 00:00:00 | 00:00:00 | |
| DL1NUX | 2026-08-31 14:27:42 | 50.99489 | 9.35642 | 57° | 133km/h | 10469m | -3.3m/s | 0°C | 0% | 0hPa | 0V | 00:00:00 | 00:00:00 | 00:00:00 | |
| DB0NH | 2026-08-31 14:27:41 | 50.99568 | 9.35805 | 50° | 117km/h | 10455m | -3.6m/s | 0°C | 0% | 0hPa | 4.5V | 00:00:00 | 00:00:00 | 00:00:00 | |
| HSKMA3-T | 2026-08-31 14:27:40 | 50.99528 | 9.35728 | 52° | 130km/h | 10459m | -3.4m/s | -48°C | 0% | 0hPa | 4.5V | 00:00:00 | 00:00:00 | 00:00:00 | |
| BIOWL1-15 | 2026-08-31 14:27:40 | 50.99489 | 9.35642 | 57° | 133km/h | 10466m | -3.3m/s | -47.9°C | 0% | 0hPa | 4.5V | 00:00:00 | 00:00:00 | 00:00:00 | |
| DF2AP-13 | 2026-08-31 14:27:38 | 50.99508 | 9.35687 | 58° | 117km/h | 10466m | -3.3m/s | 0°C | 0% | 0hPa | 0V | 00:00:00 | 00:00:00 | 00:00:00 | |
| DM7RM-13 | 2026-08-31 14:27:37 | 50.99489 | 9.35642 | 58° | 133km/h | 10466m | -3.3m/s | -41.3°C | 0% | 0hPa | 0V | 00:00:00 | 00:00:00 | 00:00:00 | |
| AM1SDL-15 | 2026-08-31 14:27:36 | 50.99471 | 9.35596 | 62° | 113km/h | 10473m | -3.3m/s | 0°C | 0% | 0hPa | 0V | 00:00:00 | 00:00:00 | 00:00:00 | |
| DM0DOS-11 | 2026-08-31 14:27:35 | 50.99388 | 9.35350 | 59° | 102km/h | 10493m | -3.6m/s | 0°C | 0% | 0hPa | 0V | 00:00:00 | 00:00:00 | 00:00:00 | |
| DL1XH-west | 2026-08-31 14:27:33 | 50.99427 | 9.35465 | 63° | 117km/h | 10479m | -3.5m/s | -47.9°C | 0% | 0hPa | 4.5V | 00:00:00 | 00:00:00 | 00:00:00 | |
| DO3MHA-11 | 2026-08-31 14:27:33 | 50.99427 | 9.35465 | 64° | 110km/h | 10483m | -3.4m/s | 0°C | 0% | 0hPa | 0V | 00:00:00 | 00:00:00 | 00:00:00 | |
| DL1NUX | 2026-08-31 14:27:32 | 50.99344 | 9.35250 | 51° | 106km/h | 10504m | -3.5m/s | 0°C | 0% | 0hPa | 0V | 00:00:00 | 00:00:00 | 00:00:00 | |
| DO3DL | 2026-08-31 14:27:31 | 50.99388 | 9.35351 | 60° | 102km/h | 10489m | -3.5m/s | -47.9°C | 0% | 0hPa | 4.5V | 00:00:00 | 00:00:00 | 00:00:00 | |
| DC6BW-12 | 2026-08-31 14:27:30 | 50.99388 | 9.35351 | 60° | 102km/h | 10489m | -3.5m/s | -47.9°C | 0% | 0hPa | 4.5V | 00:00:00 | 00:00:00 | 00:00:00 | |
| HSKMA3-T | 2026-08-31 14:27:29 | 50.99375 | 9.35316 | 56° | 100km/h | 10493m | -3.6m/s | -47.9°C | 0% | 0hPa | 4.5V | 00:00:00 | 00:00:00 | 00:00:00 | |
| DL3OBA | 2026-08-31 14:27:28 | 50.99360 | 9.35283 | 54° | 102km/h | 10496m | -3.6m/s | -47.9°C | 0% | 0hPa | 4.5V | 00:00:00 | 00:00:00 | 00:00:00 | |
| BIOWL1-15 | 2026-08-31 14:27:27 | 50.99344 | 9.35250 | 51° | 106km/h | 10500m | -3.6m/s | -47.9°C | 0% | 0hPa | 4.5V | 00:00:00 | 00:00:00 | 00:00:00 | |
| AA1-15 | 2026-08-31 14:27:26 | 50.99308 | 9.35182 | 50° | 117km/h | 10507m | -3.3m/s | -48°C | 0% | 0hPa | 4.4V | 00:00:00 | 00:00:00 | 00:00:00 | |
| DM0DOS-11 | 2026-08-31 14:27:25 | 50.99215 | 9.34976 | 59° | 130km/h | 10528m | -3.7m/s | 0°C | 0% | 0hPa | 0V | 00:00:00 | 00:00:00 | 00:00:00 | |
| AM1SDL-15 | 2026-08-31 14:27:24 | 50.99288 | 9.35145 | 52° | 119km/h | 10517m | -3.5m/s | 0°C | 0% | 0hPa | 4.4V | 00:00:00 | 00:00:00 | 00:00:00 | |
| DL1XH-west | 2026-08-31 14:27:23 | 50.99250 | 9.35064 | 55° | 130km/h | 10517m | -3.5m/s | -48°C | 0% | 0hPa | 4.4V | 00:00:00 | 00:00:00 | 00:00:00 | |
| NBG1-10 | 2026-08-31 14:27:22 | 50.99267 | 9.35064 | 55° | 119km/h | 10521m | -3.5m/s | 0°C | 0% | 0hPa | 4.4V | 00:00:00 | 00:00:00 | 00:00:00 | |
| HSKMA3-T | 2026-08-31 14:27:19 | 50.99184 | 9.34887 | 64° | 122km/h | 10532m | -3.7m/s | -48°C | 0% | 0hPa | 4.4V | 00:00:00 | 00:00:00 | 00:00:00 | |
| DO3DL | 2026-08-31 14:27:18 | 50.99184 | 9.34887 | 65° | 122km/h | 10532m | -3.7m/s | -48.0°C | 0% | 0hPa | 4.5V | 00:00:00 | 00:00:00 | 00:00:00 | |
| DM7RM-13 | 2026-08-31 14:27:17 | 50.99171 | 9.34844 | 66° | 117km/h | 10536m | -3.5m/s | -41.4°C | 0% | 0hPa | 4.5V | 00:00:00 | 00:00:00 | 00:00:00 | |
| BIOWL1-15 | 2026-08-31 14:27:16 | 50.99159 | 9.34803 | 64° | 110km/h | 10539m | -3.5m/s | -48°C | 0% | 0hPa | 4.5V | 00:00:00 | 00:00:00 | 00:00:00 | |
| SO1NDE-10 | 2026-08-31 14:27:15 | 50.99147 | 9.34764 | 63° | 119km/h | 10547m | -3.6m/s | 0°C | 0% | 0hPa | 0V | 00:00:00 | 00:00:00 | 00:00:00 | |
| DO3MHA-11 | 2026-08-31 14:27:13 | 50.99121 | 9.34694 | 57° | 120km/h | 10554m | -3.6m/s | 0°C | 0% | 0hPa | 0V | 00:00:00 | 00:00:00 | 00:00:00 | |
| DL1NUX | 2026-08-31 14:27:12 | 50.99015 | 9.34474 | 55° | 130km/h | 10575m | -3.6m/s | 0°C | 0% | 0hPa | 0V | 00:00:00 | 00:00:00 | 00:00:00 | |
| DL1XH-west | 2026-08-31 14:27:12 | 50.99090 | 9.34627 | 52° | 108km/h | 10557m | -3.5m/s | -48.1°C | 0% | 0hPa | 4.5V | 00:00:00 | 00:00:00 | 00:00:00 | |
| AA1-15 | 2026-08-31 14:27:11 | 50.99072 | 9.34592 | 51° | 115km/h | 10561m | -3.6m/s | -48.1°C | 0% | 0hPa | 4.5V | 00:00:00 | 00:00:00 | 00:00:00 | |
| DC6BW-12 | 2026-08-31 14:27:09 | 50.99053 | 9.34555 | 53° | 120km/h | 10565m | -3.6m/s | -48.1°C | 0% | 0hPa | 4.5V | 00:00:00 | 00:00:00 | 00:00:00 | |
| HSKMA3-T | 2026-08-31 14:27:08 | 50.99016 | 9.34474 | 55° | 130km/h | 10572m | -3.6m/s | -48.1°C | 0% | 0hPa | 4.5V | 00:00:00 | 00:00:00 | 00:00:00 | |
| DJTTGO | 2026-08-31 14:27:07 | 50.99016 | 9.34474 | 56° | 130km/h | 10572m | -3.6m/s | -48.1°C | 0% | 0hPa | 4.5V | 00:00:00 | 00:00:00 | 00:00:00 | |
| BIOWL1-15 | 2026-08-31 14:27:06 | 50.98980 | 9.34386 | 60° | 131km/h | 10579m | -3.6m/s | -48.1°C | 0% | 0hPa | 4.5V | 00:00:00 | 00:00:00 | 00:00:00 | |
| DO3DL | 2026-08-31 14:27:05 | 50.98980 | 9.34386 | 61° | 131km/h | 10579m | -3.6m/s | -48.1°C | 0% | 0hPa | 0V | 00:00:00 | 00:00:00 | 00:00:00 | |
| DL1NUX | 2026-08-31 14:27:02 | 50.98875 | 9.34047 | 56° | 102km/h | 10613m | -3.6m/s | 0°C | 0% | 0hPa | 0V | 00:00:00 | 00:00:00 | 00:00:00 | |
| DL1XH-west | 2026-08-31 14:27:01 | 50.98923 | 9.34204 | 67° | 119km/h | 10594m | -3.6m/s | -48.1°C | 0% | 0hPa | 4.5V | 00:00:00 | 00:00:00 | 00:00:00 | |
| DO2JMG | 2026-08-31 14:26:59 | 50.98900 | 9.34121 | 65° | 108km/h | 10601m | -3.7m/s | -48.1°C | 0% | 0hPa | 4.5V | 00:00:00 | 00:00:00 | 00:00:00 | |
| DL1XH-15 | 2026-08-31 14:26:57 | 50.98792 | 9.33861 | 54° | 128km/h | 10631m | -3.8m/s | 0°C | 0% | 0hPa | 0V | 00:00:00 | 00:00:00 | 00:00:00 | |
| DF8AY | 2026-08-31 14:26:57 | 50.98861 | 9.34012 | 56° | 106km/h | 10613m | -3.6m/s | -48.1°C | 0% | 0hPa | 4.5V | 00:00:00 | 00:00:00 | 00:00:00 | |
| DM7RM-13 | 2026-08-31 14:26:56 | 50.98861 | 9.34012 | 57° | 106km/h | 10613m | -3.6m/s | -41.6°C | 0% | 0hPa | 0V | 00:00:00 | 00:00:00 | 00:00:00 | |
| DM0DOS-11 | 2026-08-31 14:26:55 | 50.98755 | 9.33774 | 58° | 133km/h | 10638m | -3.8m/s | 0°C | 0% | 0hPa | 0V | 00:00:00 | 00:00:00 | 00:00:00 | |
| BIOWL1-15 | 2026-08-31 14:26:55 | 50.98828 | 9.33940 | 53° | 117km/h | 10620m | -3.6m/s | -48.2°C | 0% | 0hPa | 4.5V | 00:00:00 | 00:00:00 | 00:00:00 | |
| DJ3KS | 2026-08-31 14:26:54 | 50.98829 | 9.33940 | 54° | 117km/h | 10620m | -3.6m/s | -41.7°C | 0% | 0hPa | 0V | 00:00:00 | 00:00:00 | 00:00:00 | |
| DO3MHA-11 | 2026-08-31 14:26:53 | 50.98810 | 9.33904 | 55° | 126km/h | 10627m | -3.6m/s | 0°C | 0% | 0hPa | 0V | 00:00:00 | 00:00:00 | 00:00:00 | |
| DL1NUX | 2026-08-31 14:26:52 | 50.98709 | 9.33633 | 65° | 128km/h | 10653m | -3.7m/s | 0°C | 0% | 0hPa | 0V | 00:00:00 | 00:00:00 | 00:00:00 | |
| DL1XH-west | 2026-08-31 14:26:50 | 50.98755 | 9.33774 | 59° | 133km/h | 10635m | -3.7m/s | -48.3°C | 0% | 0hPa | 4.5V | 00:00:00 | 00:00:00 | 00:00:00 | |
| NBG1-10 | 2026-08-31 14:26:49 | 50.98738 | 9.33727 | 64° | 119km/h | 10642m | -3.7m/s | 0°C | 0% | 0hPa | 4.5V | 00:00:00 | 00:00:00 | 00:00:00 | |
| HSKMA3-T | 2026-08-31 14:26:46 | 50.98696 | 9.33587 | 68° | 122km/h | 10650m | -3.6m/s | -48.3°C | 0% | 0hPa | 4.5V | 00:00:00 | 00:00:00 | 00:00:00 | |
| DO8TBO-1 | 2026-08-31 14:26:46 | 50.98674 | 9.33500 | 68° | 117km/h | 10657m | -3.9m/s | 0°C | 0% | 0hPa | 0V | 00:00:00 | 00:00:00 | 00:00:00 | |
| DM0DOS-11 | 2026-08-31 14:26:45 | 50.98625 | 9.33352 | 54° | 108km/h | 10676m | -3.8m/s | 0°C | 0% | 0hPa | 0V | 00:00:00 | 00:00:00 | 00:00:00 | |
| SO1NDE-10 | 2026-08-31 14:26:45 | 50.98685 | 9.33542 | 69° | 117km/h | 10657m | -3.9m/s | 0°C | 0% | 0hPa | 4.5V | 00:00:00 | 00:00:00 | 00:00:00 | |
| BIOWL1-15 | 2026-08-31 14:26:44 | 50.98663 | 9.33460 | 66° | 106km/h | 10661m | -3.9m/s | -48.4°C | 0% | 0hPa | 4.5V | 00:00:00 | 00:00:00 | 00:00:00 | |
| DO3MHA-11 | 2026-08-31 14:26:43 | 50.98663 | 9.33460 | 66° | 115km/h | 10665m | -3.8m/s | 0°C | 0% | 0hPa | 0V | 00:00:00 | 00:00:00 | 00:00:00 | |
| DL1NUX | 2026-08-31 14:26:41 | 50.98557 | 9.33198 | 59° | 128km/h | 10691m | -3.7m/s | 0°C | 0% | 0hPa | 0V | 00:00:00 | 00:00:00 | 00:00:00 | |
| DB0NH | 2026-08-31 14:26:41 | 50.98639 | 9.33386 | 60° | 117km/h | 10672m | -3.8m/s | 0°C | 0% | 0hPa | 4.5V | 00:00:00 | 00:00:00 | 00:00:00 | |
| DL1XH-west | 2026-08-31 14:26:40 | 50.98609 | 9.33314 | 54° | 111km/h | 10676m | -3.8m/s | -48.6°C | 0% | 0hPa | 4.5V | 00:00:00 | 00:00:00 | 00:00:00 | |
| DO3DL | 2026-08-31 14:26:39 | 50.98609 | 9.33314 | 55° | 111km/h | 10676m | -3.8m/s | -48.6°C | 0% | 0hPa | 4.5V | 00:00:00 | 00:00:00 | 00:00:00 | |
| DF2AP-13 | 2026-08-31 14:26:38 | 50.98592 | 9.33280 | 55° | 115km/h | 10684m | -3.6m/s | 0°C | 0% | 0hPa | 4.5V | 00:00:00 | 00:00:00 | 00:00:00 | |
| DL3OBA | 2026-08-31 14:26:37 | 50.98574 | 9.33238 | 56° | 124km/h | 10684m | -3.7m/s | -48.6°C | 0% | 0hPa | 4.5V | 00:00:00 | 00:00:00 | 00:00:00 | |
| HSKMA3-T | 2026-08-31 14:26:36 | 50.98539 | 9.33151 | 59° | 131km/h | 10691m | -3.7m/s | -48.5°C | 0% | 0hPa | 4.5V | 00:00:00 | 00:00:00 | 00:00:00 | |
| BIOWL1-15 | 2026-08-31 14:26:35 | 50.98508 | 9.33058 | 65° | 131km/h | 10699m | -3.7m/s | -48.5°C | 0% | 0hPa | 4.5V | 00:00:00 | 00:00:00 | 00:00:00 | |
| DM0DOS-11 | 2026-08-31 14:26:35 | 50.98471 | 9.32918 | 70° | 119km/h | 10714m | -4m/s | 0°C | 0% | 0hPa | 0V | 00:00:00 | 00:00:00 | 00:00:00 | |
| DO3MHA-11 | 2026-08-31 14:26:33 | 50.98508 | 9.33058 | 65° | 113km/h | 10702m | -3.7m/s | 0°C | 0% | 0hPa | 0V | 00:00:00 | 00:00:00 | 00:00:00 | |
| DL1NUX | 2026-08-31 14:26:31 | 50.98433 | 9.32757 | 64° | 100km/h | 10730m | -3.8m/s | 0°C | 0% | 0hPa | 0V | 00:00:00 | 00:00:00 | 00:00:00 | |
| DL1XH-west | 2026-08-31 14:26:29 | 50.98453 | 9.32833 | 70° | 108km/h | 10718m | -4.1m/s | -48.6°C | 0% | 0hPa | 4.5V | 00:00:00 | 00:00:00 | 00:00:00 | |
| DC6BW-12 | 2026-08-31 14:26:28 | 50.98452 | 9.32833 | 71° | 108km/h | 10718m | -4.1m/s | -48.6°C | 0% | 0hPa | 0V | 00:00:00 | 00:00:00 | 00:00:00 | |
| DL1XH-15 | 2026-08-31 14:26:27 | 50.98376 | 9.32613 | 55° | 117km/h | 10745m | -3.9m/s | 0°C | 0% | 0hPa | 0V | 00:00:00 | 00:00:00 | 00:00:00 | |
| AA1-15 | 2026-08-31 14:26:27 | 50.98432 | 9.32757 | 64° | 100km/h | 10727m | -3.9m/s | -48.7°C | 0% | 0hPa | 4.5V | 00:00:00 | 00:00:00 | 00:00:00 | |
| DM0DOS-11 | 2026-08-31 14:26:25 | 50.98343 | 9.32530 | 59° | 126km/h | 10753m | -3.8m/s | 0°C | 0% | 0hPa | 0V | 00:00:00 | 00:00:00 | 00:00:00 | |
| HSKMA3-T | 2026-08-31 14:26:25 | 50.98407 | 9.32686 | 57° | 104km/h | 10734m | -3.9m/s | -48.7°C | 0% | 0hPa | 4.5V | 00:00:00 | 00:00:00 | 00:00:00 | |
| DO3MHA-11 | 2026-08-31 14:26:23 | 50.98392 | 9.32653 | 56° | 120km/h | 10742m | -3.9m/s | 0°C | 0% | 0hPa | 4.5V | 00:00:00 | 00:00:00 | 00:00:00 | |
| BIOWL1-15 | 2026-08-31 14:26:22 | 50.98376 | 9.32612 | 56° | 117km/h | 10742m | -3.9m/s | -48.7°C | 0% | 0hPa | 4.5V | 00:00:00 | 00:00:00 | 00:00:00 | |
| DL1NUX | 2026-08-31 14:26:21 | 50.98289 | 9.32343 | 71° | 122km/h | 10769m | -4m/s | 0°C | 0% | 0hPa | 0V | 00:00:00 | 00:00:00 | 00:00:00 | |
| DO3DL | 2026-08-31 14:26:19 | 50.98327 | 9.32484 | 64° | 130km/h | 10753m | -3.8m/s | -48.6°C | 0% | 0hPa | 4.5V | 00:00:00 | 00:00:00 | 00:00:00 | |
| DO2JMG | 2026-08-31 14:26:18 | 50.98313 | 9.32438 | 66° | 130km/h | 10757m | -3.8m/s | -48.6°C | 0% | 0hPa | 4.5V | 00:00:00 | 00:00:00 | 00:00:00 | |
| AA1-15 | 2026-08-31 14:26:16 | 50.98279 | 9.32299 | 71° | 117km/h | 10769m | -4m/s | -48.6°C | 0% | 0hPa | 4.5V | 00:00:00 | 00:00:00 | 00:00:00 | |
| NBG1-10 | 2026-08-31 14:26:16 | 50.98289 | 9.32342 | 72° | 111km/h | 10769m | -4.0m/s | 0°C | 0% | 0hPa | 4.5V | 00:00:00 | 00:00:00 | 00:00:00 | |
| DB0UT-7 | 2026-08-31 14:26:15 | 50.98279 | 9.32299 | 72° | 110km/h | 10773m | -3.9m/s | 0°C | 0% | 0hPa | 4.5V | 00:00:00 | 00:00:00 | 00:00:00 | |
| HSKMA3-T | 2026-08-31 14:26:14 | 50.98261 | 9.32215 | 71° | 106km/h | 10777m | -4m/s | -48.7°C | 0% | 0hPa | 4.5V | 00:00:00 | 00:00:00 | 00:00:00 | |
| DO3MHA-11 | 2026-08-31 14:26:13 | 50.98261 | 9.32214 | 71° | 106km/h | 10781m | -3.8m/s | 0°C | 0% | 0hPa | 4.5V | 00:00:00 | 00:00:00 | 00:00:00 | |
| BIOWL1-15 | 2026-08-31 14:26:12 | 50.98242 | 9.32139 | 66° | 99km/h | 10785m | -3.9m/s | -48.8°C | 0% | 0hPa | 4.5V | 00:00:00 | 00:00:00 | 00:00:00 | |
| DB0NH | 2026-08-31 14:26:11 | 50.98242 | 9.32139 | 66° | 110km/h | 10789m | -4.1m/s | 0°C | 0% | 0hPa | 4.5V | 00:00:00 | 00:00:00 | 00:00:00 | |
| DM7RM-13 | 2026-08-31 14:26:09 | 50.98219 | 9.32070 | 60° | 99km/h | 10793m | -4.3m/s | -42.3°C | 0% | 0hPa | 4.5V | 00:00:00 | 00:00:00 | 00:00:00 | |
| DF2AP-13 | 2026-08-31 14:26:08 | 50.98205 | 9.32037 | 56° | 110km/h | 10802m | -4.2m/s | 0°C | 0% | 0hPa | 4.5V | 00:00:00 | 00:00:00 | 00:00:00 | |
| DO2JMG | 2026-08-31 14:26:07 | 50.98190 | 9.32001 | 56° | 108km/h | 10802m | -4.2m/s | -48.9°C | 0% | 0hPa | 4.5V | 00:00:00 | 00:00:00 | 00:00:00 | |
| DO3DL | 2026-08-31 14:26:07 | 50.98190 | 9.32001 | 57° | 108km/h | 10802m | -4.2m/s | -48.9°C | 0% | 0hPa | 4.5V | 00:00:00 | 00:00:00 | 00:00:00 | |
| AA1-15 | 2026-08-31 14:26:05 | 50.98158 | 9.31925 | 58° | 119km/h | 10810m | -4.2m/s | -48.8°C | 0% | 0hPa | 4.5V | 00:00:00 | 00:00:00 | 00:00:00 | |
| DM0DOS-11 | 2026-08-31 14:26:05 | 50.98093 | 9.31708 | 70° | 115km/h | 10834m | -4.3m/s | 0°C | 0% | 0hPa | 0V | 00:00:00 | 00:00:00 | 00:00:00 | |
| HSKMA3-T | 2026-08-31 14:26:04 | 50.98128 | 9.31841 | 63° | 122km/h | 10818m | -4m/s | -48.8°C | 0% | 0hPa | 4.5V | 00:00:00 | 00:00:00 | 00:00:00 | |
| DO3MHA-11 | 2026-08-31 14:26:03 | 50.98128 | 9.31841 | 64° | 108km/h | 10822m | -3.9m/s | 0°C | 0% | 0hPa | 0V | 00:00:00 | 00:00:00 | 00:00:00 | |
| DL1NUX | 2026-08-31 14:26:01 | 50.98060 | 9.31548 | 70° | 95km/h | 10860m | -4.1m/s | 0°C | 0% | 0hPa | 0V | 00:00:00 | 00:00:00 | 00:00:00 | |
| BIOWL1-15 | 2026-08-31 14:26:01 | 50.98093 | 9.31708 | 71° | 115km/h | 10830m | -4.1m/s | -48.8°C | 0% | 0hPa | 4.5V | 00:00:00 | 00:00:00 | 00:00:00 | |
| DF1GD-15 | 2026-08-31 14:26:00 | 50.98093 | 9.31708 | 72° | 115km/h | 10830m | -4.1m/s | -48.8°C | 0% | 0hPa | 4.5V | 00:00:00 | 00:00:00 | 00:00:00 | |
| DL1XH-west | 2026-08-31 14:25:56 | 50.98060 | 9.31548 | 71° | 95km/h | 10847m | -4.4m/s | -48.8°C | 0% | 0hPa | 4.5V | 00:00:00 | 00:00:00 | 00:00:00 | |
| AM1SDL-15 | 2026-08-31 14:25:56 | 50.98060 | 9.31548 | 71° | 106km/h | 10852m | -4.4m/s | 0°C | 0% | 0hPa | 4.5V | 00:00:00 | 00:00:00 | 00:00:00 | |
| AA1-15 | 2026-08-31 14:25:55 | 50.98052 | 9.31514 | 67° | 91km/h | 10852m | -4.4m/s | -48.8°C | 0% | 0hPa | 4.5V | 00:00:00 | 00:00:00 | 00:00:00 | |
| DM0DOS-11 | 2026-08-31 14:25:55 | 50.97989 | 9.31336 | 59° | 117km/h | 10876m | -4.1m/s | 0°C | 0% | 0hPa | 0V | 00:00:00 | 00:00:00 | 00:00:00 | |
| DL1XH-15 | 2026-08-31 14:25:54 | 50.97974 | 9.31295 | 61° | 122km/h | 10881m | -4.3m/s | 0°C | 0% | 0hPa | 0V | 00:00:00 | 00:00:00 | 00:00:00 | |
| HSKMA3-T | 2026-08-31 14:25:53 | 50.98018 | 9.31412 | 59° | 104km/h | 10865m | -3.9m/s | -48.6°C | 0% | 0hPa | 4.5V | 00:00:00 | 00:00:00 | 00:00:00 | |
| DL1NUX | 2026-08-31 14:25:51 | 50.97934 | 9.31158 | 70° | 126km/h | 10895m | -4.5m/s | 0°C | 0% | 0hPa | 0V | 00:00:00 | 00:00:00 | 00:00:00 | |
| DC6BW-12 | 2026-08-31 14:25:47 | 50.97946 | 9.31206 | 67° | 126km/h | 10886m | -4.7m/s | -48.5°C | 0% | 0hPa | 4.5V | 00:00:00 | 00:00:00 | 00:00:00 | |
| DO2JMG | 2026-08-31 14:25:46 | 50.97923 | 9.31113 | 70° | 122km/h | 10895m | -4.5m/s | -48.3°C | 0% | 0hPa | 4.5V | 00:00:00 | 00:00:00 | 00:00:00 | |
| SO1NDE-10 | 2026-08-31 14:25:45 | 50.97923 | 9.31113 | 71° | 108km/h | 10899m | -4.2m/s | 0°C | 0% | 0hPa | 0V | 00:00:00 | 00:00:00 | 00:00:00 | |
| DL1XH-15 | 2026-08-31 14:25:44 | 50.97867 | 9.30879 | 61° | 95km/h | 10924m | -4.7m/s | 0°C | 0% | 0hPa | 0V | 00:00:00 | 00:00:00 | 00:00:00 | |
| AA1-15 | 2026-08-31 14:25:44 | 50.97905 | 9.31025 | 73° | 110km/h | 10903m | -4.1m/s | -48.2°C | 0% | 0hPa | 4.5V | 00:00:00 | 00:00:00 | 00:00:00 | |
| NBG1-10 | 2026-08-31 14:25:43 | 50.97905 | 9.31025 | 73° | 104km/h | 10907m | -3.9m/s | 0°C | 0% | 0hPa | 4.5V | 00:00:00 | 00:00:00 | 00:00:00 | |
| HSKMA3-T | 2026-08-31 14:25:42 | 50.97888 | 9.30947 | 68° | 97km/h | 10911m | -4m/s | -48.1°C | 0% | 0hPa | 4.5V | 00:00:00 | 00:00:00 | 00:00:00 | |
| BIOWL1-15 | 2026-08-31 14:25:42 | 50.97867 | 9.30879 | 61° | 95km/h | 10920m | -4.5m/s | -48.1°C | 0% | 0hPa | 4.5V | 00:00:00 | 00:00:00 | 00:00:00 | |
| DL1NUX | 2026-08-31 14:25:41 | 50.97825 | 9.30773 | 57° | 113km/h | 10942m | -4.2m/s | 0°C | 0% | 0hPa | 0V | 00:00:00 | 00:00:00 | 00:00:00 | |
| DB0NH | 2026-08-31 14:25:41 | 50.97888 | 9.30947 | 69° | 108km/h | 10915m | -4.3m/s | 0°C | 0% | 0hPa | 4.5V | 00:00:00 | 00:00:00 | 00:00:00 | |
| DF2AP-13 | 2026-08-31 14:25:38 | 50.97854 | 9.30845 | 59° | 106km/h | 10929m | -4.4m/s | 0°C | 0% | 0hPa | 4.5V | 00:00:00 | 00:00:00 | 00:00:00 | |
| DF1GD-15 | 2026-08-31 14:25:37 | 50.97840 | 9.30810 | 58° | 106km/h | 10929m | -4.5m/s | -48.1°C | 0% | 0hPa | 4.5V | 00:00:00 | 00:00:00 | 00:00:00 | |
| DO2JMG | 2026-08-31 14:25:35 | 50.97810 | 9.30734 | 59° | 119km/h | 10937m | -4.2m/s | -48.1°C | 0% | 0hPa | 4.5V | 00:00:00 | 00:00:00 | 00:00:00 | |
| DM0DOS-11 | 2026-08-31 14:25:35 | 50.97747 | 9.30513 | 72° | 115km/h | 10963m | -4.4m/s | 0°C | 0% | 0hPa | 0V | 00:00:00 | 00:00:00 | 00:00:00 | |
| DO3DL | 2026-08-31 14:25:34 | 50.97795 | 9.30692 | 62° | 122km/h | 10942m | -4.2m/s | -48.0°C | 0% | 0hPa | 4.5V | 00:00:00 | 00:00:00 | 00:00:00 | |
| DO3MHA-11 | 2026-08-31 14:25:33 | 50.97780 | 9.30648 | 68° | 106km/h | 10950m | -4.2m/s | 0°C | 0% | 0hPa | 4.5V | 00:00:00 | 00:00:00 | 00:00:00 | |
| HSKMA3-T | 2026-08-31 14:25:31 | 50.97747 | 9.30513 | 72° | 115km/h | 10959m | -4.3m/s | -47.4°C | 0% | 0hPa | 4.5V | 00:00:00 | 00:00:00 | 00:00:00 | |
| DL1NUX | 2026-08-31 14:25:30 | 50.97709 | 9.30319 | 64° | 89km/h | 10986m | -4.4m/s | 0°C | 0% | 0hPa | 0V | 00:00:00 | 00:00:00 | 00:00:00 | |
| BIOWL1-15 | 2026-08-31 14:25:28 | 50.97731 | 9.30429 | 74° | 104km/h | 10968m | -4.4m/s | -47.1°C | 0% | 0hPa | 4.5V | 00:00:00 | 00:00:00 | 00:00:00 | |
| DO3DL | 2026-08-31 14:25:28 | 50.97731 | 9.30429 | 75° | 104km/h | 10968m | -4.4m/s | -47.1°C | 0% | 0hPa | 0V | 00:00:00 | 00:00:00 | 00:00:00 | |
| DC6BW-12 | 2026-08-31 14:25:27 | 50.97724 | 9.30390 | 75° | 99km/h | 10972m | -4.6m/s | -47.1°C | 0% | 0hPa | 0V | 00:00:00 | 00:00:00 | 00:00:00 | |
| DM0DOS-11 | 2026-08-31 14:25:25 | 50.97649 | 9.30155 | 61° | 111km/h | 11008m | -4.8m/s | 0°C | 0% | 0hPa | 0V | 00:00:00 | 00:00:00 | 00:00:00 | |
| DO2JMG | 2026-08-31 14:25:25 | 50.97700 | 9.30287 | 64° | 89km/h | 10986m | -4.5m/s | -47.1°C | 0% | 0hPa | 4.5V | 00:00:00 | 00:00:00 | 00:00:00 | |
| DL1XH-15 | 2026-08-31 14:25:24 | 50.97635 | 9.30113 | 61° | 115km/h | 11017m | -4.4m/s | 0°C | 0% | 0hPa | 0V | 00:00:00 | 00:00:00 | 00:00:00 | |
| DO2KSM | 2026-08-31 14:25:24 | 50.97689 | 9.30255 | 61° | 91km/h | 10990m | -4.3m/s | -47.0°C | 0% | 0hPa | 0V | 00:00:00 | 00:00:00 | 00:00:00 | |
| DO3MHA-11 | 2026-08-31 14:25:23 | 50.97689 | 9.30255 | 61° | 110km/h | 10995m | -4.3m/s | 0°C | 0% | 0hPa | 0V | 00:00:00 | 00:00:00 | 00:00:00 | |
| AM1SDL-15 | 2026-08-31 14:25:22 | 50.97677 | 9.30223 | 58° | 99km/h | 11018m | -4.4m/s | 0°C | 0% | 0hPa | 0V | 00:00:00 | 00:00:00 | 00:00:00 | |
| DM7RM-13 | 2026-08-31 14:25:21 | 50.97663 | 9.30189 | 58° | 104km/h | 10999m | -4.4m/s | -40.4°C | 0% | 0hPa | 0V | 00:00:00 | 00:00:00 | 00:00:00 | |
| DL1NUX | 2026-08-31 14:25:20 | 50.97590 | 9.29941 | 73° | 111km/h | 11031m | -4.6m/s | 0°C | 0% | 0hPa | 0V | 00:00:00 | 00:00:00 | 00:00:00 | |
| HSKMA3-T | 2026-08-31 14:25:20 | 50.97635 | 9.30113 | 61° | 115km/h | 11008m | -4.8m/s | -47°C | 0% | 0hPa | 4.5V | 00:00:00 | 00:00:00 | 00:00:00 | |
| DL3AQ-11 | 2026-08-31 14:25:20 | 50.97621 | 9.30072 | 64° | 117km/h | 11013m | -4.5m/s | -46.9°C | -1.0% | -1.0hPa | 0V | 00:00:00 | 00:00:00 | 00:00:00 | |
| EDDB2-12 | 2026-08-31 14:25:19 | 50.97621 | 9.30072 | 64° | 117km/h | 11013m | -4.5m/s | -47.4°C | -1.0% | -1.0hPa | 0V | 00:00:00 | 00:00:00 | 00:00:00 | |
| THATR2-17 | 2026-08-31 14:25:18 | 50.97306 | 9.28904 | 74° | 104km/h | 11161m | 0m/s | 0°C | 0% | 0hPa | 0V | 00:00:00 | 00:00:00 | 00:00:00 | |
| BIOWL1-15 | 2026-08-31 14:25:18 | 50.97609 | 9.30028 | 68° | 119km/h | 11017m | -4.5m/s | -46.9°C | 0% | 0hPa | 4.5V | 00:00:00 | 00:00:00 | 00:00:00 | |
| DO3DL | 2026-08-31 14:25:16 | 50.97590 | 9.29941 | 75° | 111km/h | 11026m | -4.5m/s | -46.9°C | 0% | 0hPa | 0V | 00:00:00 | 00:00:00 | 00:00:00 | |
| DM0DOS-11 | 2026-08-31 14:25:15 | 50.97557 | 9.29755 | 63° | 84km/h | 11054m | -4.8m/s | 0°C | 0% | 0hPa | 0V | 00:00:00 | 00:00:00 | 00:00:00 | |
| SO1NDE-10 | 2026-08-31 14:25:15 | 50.97590 | 9.29941 | 74° | 102km/h | 11031m | -4.5m/s | 0°C | 0% | 0hPa | 0V | 00:00:00 | 00:00:00 | 00:00:00 | |
| DL1XH-15 | 2026-08-31 14:25:14 | 50.97549 | 9.29725 | 63° | 84km/h | 11059m | -4.7m/s | 0°C | 0% | 0hPa | 0V | 00:00:00 | 00:00:00 | 00:00:00 | |
| DL1XH-west | 2026-08-31 14:25:13 | 50.97577 | 9.29859 | 77° | 99km/h | 11035m | -4.6m/s | -46.9°C | 0% | 0hPa | 4.5V | 00:00:00 | 00:00:00 | 00:00:00 | |
| DO3MHA-11 | 2026-08-31 14:25:13 | 50.97577 | 9.29859 | 77° | 95km/h | 11040m | -4.7m/s | 0°C | 0% | 0hPa | 0V | 00:00:00 | 00:00:00 | 00:00:00 | |
| DB0NH | 2026-08-31 14:25:11 | 50.97564 | 9.29787 | 73° | 100km/h | 11050m | -4.8m/s | 0°C | 0% | 0hPa | 0V | 00:00:00 | 00:00:00 | 00:00:00 | |
| DL1NUX | 2026-08-31 14:25:10 | 50.97499 | 9.29599 | 62° | 108km/h | 11078m | -4.7m/s | 0°C | 0% | 0hPa | 0V | 00:00:00 | 00:00:00 | 00:00:00 | |
| HSKMA3-T | 2026-08-31 14:25:09 | 50.97549 | 9.29725 | 63° | 84km/h | 11054m | -4.8m/s | -47°C | 0% | 0hPa | 4.5V | 00:00:00 | 00:00:00 | 00:00:00 | |
| AA1-15 | 2026-08-31 14:25:08 | 50.97527 | 9.29664 | 57° | 93km/h | 11064m | -4.9m/s | -47°C | 0% | 0hPa | 4.5V | 00:00:00 | 00:00:00 | 00:00:00 | |
| DL8DAS-15 | 2026-08-31 14:25:06 | 50.97513 | 9.29632 | 58° | 100km/h | 11069m | -4.8m/s | -47.1°C | 0% | 0hPa | 0V | 00:00:00 | 00:00:00 | 00:00:00 | |
| DM0DOS-11 | 2026-08-31 14:25:05 | 50.97446 | 9.29393 | 74° | 100km/h | 11102m | -4.8m/s | 0°C | 0% | 0hPa | 0V | 00:00:00 | 00:00:00 | 00:00:00 | |
| DO3DL | 2026-08-31 14:25:03 | 50.97462 | 9.29475 | 71° | 113km/h | 11088m | -4.6m/s | -46.9°C | 0% | 0hPa | 4.5V | 00:00:00 | 00:00:00 | 00:00:00 | |
| DO2JMG | 2026-08-31 14:25:03 | 50.97463 | 9.29475 | 70° | 113km/h | 11088m | -4.6m/s | -46.9°C | 0% | 0hPa | 4.5V | 00:00:00 | 00:00:00 | 00:00:00 | |
| DO2KSM | 2026-08-31 14:25:02 | 50.97462 | 9.29475 | 71° | 113km/h | 11088m | -4.6m/s | -46.9°C | 0% | 0hPa | 4.5V | 00:00:00 | 00:00:00 | 00:00:00 | |
| DM7RM-13 | 2026-08-31 14:25:01 | 50.97454 | 9.29433 | 74° | 108km/h | 11093m | -4.8m/s | -40.3°C | 0% | 0hPa | 4.5V | 00:00:00 | 00:00:00 | 00:00:00 | |
| HSKMA3-T | 2026-08-31 14:24:59 | 50.97432 | 9.29321 | 70° | 88km/h | 11107m | -4.7m/s | -47°C | 0% | 0hPa | 4.5V | 00:00:00 | 00:00:00 | 00:00:00 | |
| GOEST3-10 | 2026-08-31 14:24:58 | 50.97432 | 9.29321 | 70° | 89km/h | 11122m | -4.8m/s | 0°C | 0% | 0hPa | 4.5V | 00:00:00 | 00:00:00 | 00:00:00 | |
| BIOWL1-15 | 2026-08-31 14:24:56 | 50.97414 | 9.29258 | 60° | 89km/h | 11117m | -4.6m/s | -47.2°C | 0% | 0hPa | 4.5V | 00:00:00 | 00:00:00 | 00:00:00 | |
| DO3DL | 2026-08-31 14:24:56 | 50.97401 | 9.29227 | 58° | 95km/h | 11122m | -4.8m/s | -47.2°C | 0% | 0hPa | 0V | 00:00:00 | 00:00:00 | 00:00:00 | |
| DM0DOS-11 | 2026-08-31 14:24:55 | 50.97333 | 9.29033 | 71° | 119km/h | 11151m | -4.9m/s | 0°C | 0% | 0hPa | 0V | 00:00:00 | 00:00:00 | 00:00:00 | |
| DL1XH-15 | 2026-08-31 14:24:54 | 50.97322 | 9.28990 | 71° | 117km/h | 11156m | -4.9m/s | 0°C | 0% | 0hPa | 0V | 00:00:00 | 00:00:00 | 00:00:00 | |
| DO2JMG | 2026-08-31 14:24:53 | 50.97359 | 9.29119 | 61° | 115km/h | 11136m | -4.9m/s | -47.2°C | 0% | 0hPa | 4.5V | 00:00:00 | 00:00:00 | 00:00:00 | |
| DL1NUX | 2026-08-31 14:24:50 | 50.97292 | 9.28830 | 70° | 91km/h | 11176m | -4.7m/s | 0°C | 0% | 0hPa | 0V | 00:00:00 | 00:00:00 | 00:00:00 | |
| DL3OBA | 2026-08-31 14:24:49 | 50.97322 | 9.28990 | 72° | 117km/h | 11151m | -4.9m/s | -47.1°C | 0% | 0hPa | 4.5V | 00:00:00 | 00:00:00 | 00:00:00 | |
| HSKMA3-T | 2026-08-31 14:24:48 | 50.97306 | 9.28904 | 75° | 104km/h | 11161m | -4.9m/s | -47°C | 0% | 0hPa | 4.5V | 00:00:00 | 00:00:00 | 00:00:00 | |
| BIOWL1-15 | 2026-08-31 14:24:46 | 50.97292 | 9.28830 | 71° | 91km/h | 11171m | -4.8m/s | -46.9°C | 0% | 0hPa | 4.5V | 00:00:00 | 00:00:00 | 00:00:00 | |
| SO1NDE-10 | 2026-08-31 14:24:45 | 50.97292 | 9.28830 | 71° | 108km/h | 11176m | -4.7m/s | 0°C | 0% | 0hPa | 0V | 00:00:00 | 00:00:00 | 00:00:00 | |
| DL1XH-15 | 2026-08-31 14:24:44 | 50.97221 | 9.28618 | 63° | 119km/h | 11206m | -4.7m/s | 0°C | 0% | 0hPa | 0V | 00:00:00 | 00:00:00 | 00:00:00 | |
| AM1SDL-15 | 2026-08-31 14:24:44 | 50.97284 | 9.28797 | 62° | 108km/h | 11181m | -4.9m/s | 0°C | 0% | 0hPa | 4.5V | 00:00:00 | 00:00:00 | 00:00:00 | |
| DO3MHA-11 | 2026-08-31 14:24:43 | 50.97274 | 9.28764 | 62° | 111km/h | 11186m | -4.9m/s | 0°C | 0% | 0hPa | 4.5V | 00:00:00 | 00:00:00 | 00:00:00 | |
| DO2KSM | 2026-08-31 14:24:42 | 50.97262 | 9.28732 | 60° | 97km/h | 11186m | -5.0m/s | -47.0°C | 0% | 0hPa | 4.5V | 00:00:00 | 00:00:00 | 00:00:00 | |
| DO2JMG | 2026-08-31 14:24:41 | 50.97249 | 9.28697 | 59° | 106km/h | 11191m | -4.9m/s | -47°C | 0% | 0hPa | 4.5V | 00:00:00 | 00:00:00 | 00:00:00 | |
| DB0NH | 2026-08-31 14:24:41 | 50.97249 | 9.28697 | 59° | 113km/h | 11196m | -4.7m/s | 0°C | 0% | 0hPa | 4.5V | 00:00:00 | 00:00:00 | 00:00:00 | |
| DM7RM-13 | 2026-08-31 14:24:40 | 50.97235 | 9.28660 | 62° | 113km/h | 11196m | -4.8m/s | -40.4°C | 0% | 0hPa | 4.5V | 00:00:00 | 00:00:00 | 00:00:00 | |
| DF2AP-13 | 2026-08-31 14:24:38 | 50.97208 | 9.28574 | 68° | 113km/h | 11211m | -4.8m/s | 0°C | 0% | 0hPa | 4.5V | 00:00:00 | 00:00:00 | 00:00:00 | |
| HSKMA3-T | 2026-08-31 14:24:37 | 50.97189 | 9.28483 | 75° | 119km/h | 11215m | -5.1m/s | -47°C | 0% | 0hPa | 4.5V | 00:00:00 | 00:00:00 | 00:00:00 | |
| DO3DL | 2026-08-31 14:24:36 | 50.97189 | 9.28483 | 75° | 119km/h | 11216m | -5.1m/s | -47.0°C | 0% | 0hPa | 0V | 00:00:00 | 00:00:00 | 00:00:00 | |
| DM0DOS-11 | 2026-08-31 14:24:35 | 50.97139 | 9.28251 | 59° | 100km/h | 11249m | -4.9m/s | 0°C | 0% | 0hPa | 0V | 00:00:00 | 00:00:00 | 00:00:00 | |
| BIOWL1-15 | 2026-08-31 14:24:35 | 50.97175 | 9.28396 | 76° | 106km/h | 11226m | -5.1m/s | -47°C | 0% | 0hPa | 4.5V | 00:00:00 | 00:00:00 | 00:00:00 | |
| DL8DAS-15 | 2026-08-31 14:24:34 | 50.97175 | 9.28396 | 77° | 104km/h | 11226m | -5.1m/s | -47.0°C | 0% | 0hPa | 4.5V | 00:00:00 | 00:00:00 | 00:00:00 | |
| DO3MHA-11 | 2026-08-31 14:24:33 | 50.97168 | 9.28355 | 69° | 111km/h | 11236m | -4.4m/s | 0°C | 0% | 0hPa | 4.5V | 00:00:00 | 00:00:00 | 00:00:00 | |
| AM1SDL-15 | 2026-08-31 14:24:32 | 50.97161 | 9.28320 | 69° | 110km/h | 11240m | -4.4m/s | 0°C | 0% | 0hPa | 4.5V | 00:00:00 | 00:00:00 | 00:00:00 | |
| DL1XH-west | 2026-08-31 14:24:31 | 50.97139 | 9.28251 | 60° | 100km/h | 11245m | -4.7m/s | -47.2°C | 0% | 0hPa | 4.5V | 00:00:00 | 00:00:00 | 00:00:00 | |
| DO3DL | 2026-08-31 14:24:30 | 50.97139 | 9.28251 | 61° | 100km/h | 11245m | -4.7m/s | -47.2°C | 0% | 0hPa | 4.5V | 00:00:00 | 00:00:00 | 00:00:00 | |
| DL3OBA | 2026-08-31 14:24:29 | 50.97126 | 9.28216 | 59° | 106km/h | 11250m | -4.9m/s | -47.2°C | 0% | 0hPa | 4.5V | 00:00:00 | 00:00:00 | 00:00:00 | |
| HSKMA3-T | 2026-08-31 14:24:27 | 50.97082 | 9.28095 | 63° | 124km/h | 11265m | -5m/s | -47.2°C | 0% | 0hPa | 4.5V | 00:00:00 | 00:00:00 | 00:00:00 | |
| DJTTGO | 2026-08-31 14:24:26 | 50.97082 | 9.28095 | 64° | 124km/h | 11265m | -5.0m/s | -47.2°C | 0% | 0hPa | 0V | 00:00:00 | 00:00:00 | 00:00:00 | |
| DC6BW-12 | 2026-08-31 14:24:25 | 50.97069 | 9.28049 | 68° | 128km/h | 11270m | -4.9m/s | -47.1°C | 0% | 0hPa | 0V | 00:00:00 | 00:00:00 | 00:00:00 | |
| DL1XH-15 | 2026-08-31 14:24:24 | 50.97020 | 9.27784 | 72° | 97km/h | 11305m | -5.2m/s | 0°C | 0% | 0hPa | 0V | 00:00:00 | 00:00:00 | 00:00:00 | |
| BIOWL1-15 | 2026-08-31 14:24:24 | 50.97048 | 9.27954 | 74° | 122km/h | 11279m | -4.9m/s | -46.9°C | 0% | 0hPa | 4.5V | 00:00:00 | 00:00:00 | 00:00:00 | |
| DO3MHA-11 | 2026-08-31 14:24:23 | 50.97047 | 9.27954 | 75° | 110km/h | 11285m | -4.8m/s | 0°C | 0% | 0hPa | 0V | 00:00:00 | 00:00:00 | 00:00:00 | |
| DO2KSM | 2026-08-31 14:24:21 | 50.97033 | 9.27863 | 78° | 110km/h | 11290m | -5.1m/s | -46.7°C | 0% | 0hPa | 0V | 00:00:00 | 00:00:00 | 00:00:00 | |
| DL1NUX | 2026-08-31 14:24:20 | 50.96975 | 9.27633 | 62° | 119km/h | 11325m | -5.2m/s | 0°C | 0% | 0hPa | 0V | 00:00:00 | 00:00:00 | 00:00:00 | |
| DL1XH-west | 2026-08-31 14:24:20 | 50.97020 | 9.27784 | 72° | 97km/h | 11300m | -5.2m/s | -46.6°C | 0% | 0hPa | 4.5V | 00:00:00 | 00:00:00 | 00:00:00 | |
| GOEST3-10 | 2026-08-31 14:24:19 | 50.97020 | 9.27784 | 73° | 104km/h | 11306m | -5.1m/s | 0°C | 0% | 0hPa | 4.5V | 00:00:00 | 00:00:00 | 00:00:00 | |
| DO3DL | 2026-08-31 14:24:17 | 50.97001 | 9.27711 | 64° | 102km/h | 11311m | -4.9m/s | -46.6°C | 0% | 0hPa | 4.5V | 00:00:00 | 00:00:00 | 00:00:00 | |
| HSKMA3-T | 2026-08-31 14:24:16 | 50.96975 | 9.27633 | 62° | 119km/h | 11321m | -4.7m/s | -46.6°C | 0% | 0hPa | 4.5V | 00:00:00 | 00:00:00 | 00:00:00 | |
| SO1NDE-10 | 2026-08-31 14:24:15 | 50.96975 | 9.27633 | 63° | 113km/h | 11325m | -5.1m/s | 0°C | 0% | 0hPa | 0V | 00:00:00 | 00:00:00 | 00:00:00 | |
| DL1XH-15 | 2026-08-31 14:24:14 | 50.96915 | 9.27352 | 78° | 110km/h | 11357m | -5.3m/s | 0°C | 0% | 0hPa | 0V | 00:00:00 | 00:00:00 | 00:00:00 | |
| GOEST3-10 | 2026-08-31 14:24:14 | 50.96961 | 9.27591 | 68° | 124km/h | 11331m | -5.2m/s | 0°C | 0% | 0hPa | 4.5V | 00:00:00 | 00:00:00 | 00:00:00 | |
| BIOWL1-15 | 2026-08-31 14:24:13 | 50.96948 | 9.27543 | 68° | 128km/h | 11331m | -5.2m/s | -46.6°C | 0% | 0hPa | 4.5V | 00:00:00 | 00:00:00 | 00:00:00 | |
| DO3MHA-11 | 2026-08-31 14:24:13 | 50.96948 | 9.27543 | 68° | 111km/h | 11336m | -5.2m/s | 0°C | 0% | 0hPa | 0V | 00:00:00 | 00:00:00 | 00:00:00 | |
| DB0NH | 2026-08-31 14:24:11 | 50.96928 | 9.27447 | 76° | 113km/h | 11346m | -5.0m/s | 0°C | 0% | 0hPa | 0V | 00:00:00 | 00:00:00 | 00:00:00 | |
| DL1NUX | 2026-08-31 14:24:10 | 50.96889 | 9.27202 | 64° | 100km/h | 11377m | -5m/s | 0°C | 0% | 0hPa | 0V | 00:00:00 | 00:00:00 | 00:00:00 | |
| DL1XH-west | 2026-08-31 14:24:09 | 50.96911 | 9.27313 | 79° | 102km/h | 11357m | -5.3m/s | -46.8°C | 0% | 0hPa | 4.5V | 00:00:00 | 00:00:00 | 00:00:00 | |
| DF2AP-13 | 2026-08-31 14:24:08 | 50.96910 | 9.27312 | 79° | 113km/h | 11362m | -5.2m/s | 0°C | 0% | 0hPa | 4.5V | 00:00:00 | 00:00:00 | 00:00:00 | |
| DF1GD-15 | 2026-08-31 14:24:06 | 50.96898 | 9.27236 | 72° | 97km/h | 11367m | -5.1m/s | -46.8°C | 0% | 0hPa | 4.5V | 00:00:00 | 00:00:00 | 00:00:00 | |
| HSKMA3-T | 2026-08-31 14:24:05 | 50.96878 | 9.27162 | 64° | 108km/h | 11377m | -5m/s | -47°C | 0% | 0hPa | 4.5V | 00:00:00 | 00:00:00 | 00:00:00 | |
| DM0DOS-11 | 2026-08-31 14:24:04 | 50.96821 | 9.26933 | 76° | 128km/h | 11409m | -5.2m/s | 0°C | 0% | 0hPa | 0V | 00:00:00 | 00:00:00 | 00:00:00 | |
| NBG1-10 | 2026-08-31 14:24:04 | 50.96878 | 9.27162 | 65° | 115km/h | 11382m | -4.9m/s | 0°C | 0% | 0hPa | 4.5V | 00:00:00 | 00:00:00 | 00:00:00 | |
| BIOWL1-15 | 2026-08-31 14:24:03 | 50.96853 | 9.27078 | 66° | 124km/h | 11387m | -5.2m/s | -47.1°C | 0% | 0hPa | 4.5V | 00:00:00 | 00:00:00 | 00:00:00 | |
| DO3MHA-11 | 2026-08-31 14:24:03 | 50.96866 | 9.27124 | 67° | 119km/h | 11388m | -5.1m/s | 0°C | 0% | 0hPa | 4.5V | 00:00:00 | 00:00:00 | 00:00:00 | |
| DL8DAS-15 | 2026-08-31 14:24:02 | 50.96853 | 9.27078 | 67° | 124km/h | 11388m | -5.2m/s | -47.1°C | 0% | 0hPa | 4.5V | 00:00:00 | 00:00:00 | 00:00:00 | |
| AA1-15 | 2026-08-31 14:24:01 | 50.96841 | 9.27031 | 69° | 128km/h | 11393m | -5.2m/s | -47.1°C | 0% | 0hPa | 4.5V | 00:00:00 | 00:00:00 | 00:00:00 | |
| DO2KSM | 2026-08-31 14:24:01 | 50.96841 | 9.27031 | 70° | 128km/h | 11393m | -5.2m/s | -47.1°C | 0% | 0hPa | 0V | 00:00:00 | 00:00:00 | 00:00:00 | |
| DL1NUX | 2026-08-31 14:24:00 | 50.96804 | 9.26746 | 84° | 106km/h | 11430m | -5.6m/s | 0°C | 0% | 0hPa | 0V | 00:00:00 | 00:00:00 | 00:00:00 | |
| DM7RM-13 | 2026-08-31 14:23:59 | 50.96821 | 9.26933 | 77° | 128km/h | 11404m | -5.3m/s | -40.5°C | 0% | 0hPa | 4.5V | 00:00:00 | 00:00:00 | 00:00:00 | |
| DL1XH-west | 2026-08-31 14:23:58 | 50.96815 | 9.26884 | 80° | 124km/h | 11409m | -5.2m/s | -47.1°C | 0% | 0hPa | 4.5V | 00:00:00 | 00:00:00 | 00:00:00 | |
| GOEST3-10 | 2026-08-31 14:23:57 | 50.96810 | 9.26836 | 83° | 106km/h | 11419m | -5.3m/s | 0°C | 0% | 0hPa | 0V | 00:00:00 | 00:00:00 | 00:00:00 | |
| DM0DOS-11 | 2026-08-31 14:23:54 | 50.96763 | 9.26512 | 68° | 117km/h | 11460m | -5.2m/s | 0°C | 0% | 0hPa | 0V | 00:00:00 | 00:00:00 | 00:00:00 | |
| HSKMA3-T | 2026-08-31 14:23:54 | 50.96797 | 9.26667 | 79° | 95km/h | 11435m | -5.3m/s | -46.9°C | 0% | 0hPa | 4.5V | 00:00:00 | 00:00:00 | 00:00:00 | |
| DO3MHA-11 | 2026-08-31 14:23:53 | 50.96797 | 9.26667 | 79° | 115km/h | 11441m | -5.0m/s | 0°C | 0% | 0hPa | 4.5V | 00:00:00 | 00:00:00 | 00:00:00 | |
| BIOWL1-15 | 2026-08-31 14:23:52 | 50.96783 | 9.26593 | 70° | 100km/h | 11446m | -4.9m/s | -46.7°C | 0% | 0hPa | 4.5V | 00:00:00 | 00:00:00 | 00:00:00 | |
| AM1SDL-15 | 2026-08-31 14:23:51 | 50.96783 | 9.26593 | 70° | 117km/h | 11450m | -4.9m/s | 0°C | 0% | 0hPa | 0V | 00:00:00 | 00:00:00 | 00:00:00 | |
| DL1NUX | 2026-08-31 14:23:50 | 50.96727 | 9.26316 | 80° | 130km/h | 11482m | -5.3m/s | 0°C | 0% | 0hPa | 0V | 00:00:00 | 00:00:00 | 00:00:00 | |
| AA1-15 | 2026-08-31 14:23:50 | 50.96763 | 9.26512 | 68° | 117km/h | 11455m | -5.2m/s | -46.6°C | 0% | 0hPa | 4.5V | 00:00:00 | 00:00:00 | 00:00:00 | |
| DL1XH-west | 2026-08-31 14:23:48 | 50.96742 | 9.26418 | 73° | 130km/h | 11466m | -5.2m/s | -46.2°C | 0% | 0hPa | 4.5V | 00:00:00 | 00:00:00 | 00:00:00 | |
| DF1GD-15 | 2026-08-31 14:23:46 | 50.96733 | 9.26367 | 78° | 131km/h | 11471m | -5.1m/s | -46.1°C | 0% | 0hPa | 0V | 00:00:00 | 00:00:00 | 00:00:00 | |
| DO3DL | 2026-08-31 14:23:45 | 50.96722 | 9.26265 | 85° | 126km/h | 11482m | -5.3m/s | -45.9°C | 0% | 0hPa | 0V | 00:00:00 | 00:00:00 | 00:00:00 | |
| GOEST3-10 | 2026-08-31 14:23:44 | 50.96723 | 9.26265 | 85° | 108km/h | 11487m | -5.1m/s | 0°C | 0% | 0hPa | 0V | 00:00:00 | 00:00:00 | 00:00:00 | |
| HSKMA3-T | 2026-08-31 14:23:44 | 50.96720 | 9.26216 | 87° | 119km/h | 11487m | -5.1m/s | -45.9°C | 0% | 0hPa | 4.5V | 00:00:00 | 00:00:00 | 00:00:00 | |
| DO3MHA-11 | 2026-08-31 14:23:43 | 50.96720 | 9.26216 | 87° | 106km/h | 11492m | -5.1m/s | 0°C | 0% | 0hPa | 0V | 00:00:00 | 00:00:00 | 00:00:00 | |
| BIOWL1-15 | 2026-08-31 14:23:43 | 50.96715 | 9.26087 | 84° | 97km/h | 11503m | -5.2m/s | -46°C | 0% | 0hPa | 4.5V | 00:00:00 | 00:00:00 | 00:00:00 | |
| DB0NH | 2026-08-31 14:23:41 | 50.96717 | 9.26125 | 85° | 108km/h | 11503m | -5.2m/s | 0°C | 0% | 0hPa | 0V | 00:00:00 | 00:00:00 | 00:00:00 | |
| DD1CC2-15 | 2026-08-31 14:23:40 | 50.96716 | 9.26087 | 85° | 97km/h | 11503m | -5.2m/s | -39.3°C | 0% | 0hPa | 0V | 00:00:00 | 00:00:00 | 00:00:00 | |
| DL1XH-15 | 2026-08-31 14:23:39 | 50.96671 | 9.25852 | 71° | 122km/h | 11539m | -5m/s | 0°C | 0% | 0hPa | 0V | 00:00:00 | 00:00:00 | 00:00:00 | |
| AA1-15 | 2026-08-31 14:23:39 | 50.96707 | 9.26013 | 75° | 95km/h | 11513m | -5.3m/s | -46.1°C | 0% | 0hPa | 4.5V | 00:00:00 | 00:00:00 | 00:00:00 | |
| AM1SDL-15 | 2026-08-31 14:23:39 | 50.96712 | 9.26050 | 75° | 111km/h | 11513m | -5.2m/s | 0°C | 0% | 0hPa | 4.5V | 00:00:00 | 00:00:00 | 00:00:00 | |
| DF2AP-13 | 2026-08-31 14:23:38 | 50.96707 | 9.26013 | 75° | 106km/h | 11519m | -5.2m/s | 0°C | 0% | 0hPa | 4.5V | 00:00:00 | 00:00:00 | 00:00:00 | |
| DL1XH-west | 2026-08-31 14:23:37 | 50.96691 | 9.25938 | 69° | 106km/h | 11524m | -5.1m/s | -46.1°C | 0% | 0hPa | 4.5V | 00:00:00 | 00:00:00 | 00:00:00 | |
| HSKMA3-T | 2026-08-31 14:23:33 | 50.96655 | 9.25754 | 79° | 128km/h | 11544m | -4.7m/s | -46°C | 0% | 0hPa | 4.5V | 00:00:00 | 00:00:00 | 00:00:00 | |
| DO3MHA-11 | 2026-08-31 14:23:33 | 50.96662 | 9.25804 | 79° | 108km/h | 11544m | -4.7m/s | 0°C | 0% | 0hPa | 4.5V | 00:00:00 | 00:00:00 | 00:00:00 | |
| GOEST3-10 | 2026-08-31 14:23:32 | 50.96655 | 9.25754 | 79° | 113km/h | 11559m | -4.9m/s | 0°C | 0% | 0hPa | 4.5V | 00:00:00 | 00:00:00 | 00:00:00 | |
| DO2JMG | 2026-08-31 14:23:31 | 50.96646 | 9.25655 | 86° | 120km/h | 11554m | -4.9m/s | -46°C | 0% | 0hPa | 4.5V | 00:00:00 | 00:00:00 | 00:00:00 | |
| DL1NUX | 2026-08-31 14:23:30 | 50.96638 | 9.25451 | 79° | 88km/h | 11584m | -5m/s | 0°C | 0% | 0hPa | 0V | 00:00:00 | 00:00:00 | 00:00:00 | |
| DL8DAS-15 | 2026-08-31 14:23:29 | 50.96645 | 9.25609 | 89° | 113km/h | 11559m | -4.9m/s | -46.0°C | 0% | 0hPa | 4.5V | 00:00:00 | 00:00:00 | 00:00:00 | |
| AA1-15 | 2026-08-31 14:23:28 | 50.96643 | 9.25524 | 87° | 99km/h | 11569m | -5m/s | -46°C | 0% | 0hPa | 4.5V | 00:00:00 | 00:00:00 | 00:00:00 | |
| AM1SDL-15 | 2026-08-31 14:23:27 | 50.96643 | 9.25524 | 88° | 104km/h | 11574m | -4.9m/s | 0°C | 0% | 0hPa | 4.5V | 00:00:00 | 00:00:00 | 00:00:00 | |
| DL1XH-west | 2026-08-31 14:23:26 | 50.96638 | 9.25451 | 79° | 88km/h | 11579m | -5.1m/s | -46.1°C | 0% | 0hPa | 4.5V | 00:00:00 | 00:00:00 | 00:00:00 | |
| GOEST3-10 | 2026-08-31 14:23:25 | 50.96638 | 9.25451 | 80° | 95km/h | 11589m | -4.9m/s | 0°C | 0% | 0hPa | 4.5V | 00:00:00 | 00:00:00 | 00:00:00 | |
| DO3MHA-11 | 2026-08-31 14:23:23 | 50.96625 | 9.25381 | 71° | 111km/h | 11594m | -5.0m/s | 0°C | 0% | 0hPa | 4.5V | 00:00:00 | 00:00:00 | 00:00:00 | |
| HSKMA3-T | 2026-08-31 14:23:22 | 50.96606 | 9.25305 | 69° | 111km/h | 11599m | -5.1m/s | -46.1°C | 0% | 0hPa | 4.5V | 00:00:00 | 00:00:00 | 00:00:00 | |
| DO2JMG | 2026-08-31 14:23:21 | 50.96597 | 9.25262 | 71° | 117km/h | 11604m | -5m/s | -46.1°C | 0% | 0hPa | 4.5V | 00:00:00 | 00:00:00 | 00:00:00 | |
| DL1NUX | 2026-08-31 14:23:20 | 50.96572 | 9.25029 | 88° | 108km/h | 11634m | -5m/s | 0°C | 0% | 0hPa | 0V | 00:00:00 | 00:00:00 | 00:00:00 | |
| GOEST3-10 | 2026-08-31 14:23:20 | 50.96597 | 9.25264 | 80° | 117km/h | 11609m | -4.9m/s | 0°C | 0% | 0hPa | 4.5V | 00:00:00 | 00:00:00 | 00:00:00 | |
| BIOWL1-15 | 2026-08-31 14:23:19 | 50.96588 | 9.25216 | 75° | 122km/h | 11609m | -4.9m/s | -46°C | 0% | 0hPa | 4.5V | 00:00:00 | 00:00:00 | 00:00:00 | |
| DO3DL | 2026-08-31 14:23:19 | 50.96588 | 9.25216 | 76° | 122km/h | 11609m | -4.9m/s | -46.0°C | 0% | 0hPa | 4.5V | 00:00:00 | 00:00:00 | 00:00:00 | |
| DM7RM-13 | 2026-08-31 14:23:18 | 50.96581 | 9.25168 | 80° | 122km/h | 11614m | -4.8m/s | -39.3°C | 0% | 0hPa | 4.5V | 00:00:00 | 00:00:00 | 00:00:00 | |
| AA1-15 | 2026-08-31 14:23:17 | 50.96576 | 9.25120 | 83° | 120km/h | 11619m | -4.7m/s | -46°C | 0% | 0hPa | 4.5V | 00:00:00 | 00:00:00 | 00:00:00 | |
| DL1XH-west | 2026-08-31 14:23:15 | 50.96572 | 9.25029 | 88° | 108km/h | 11629m | -5m/s | -46°C | 0% | 0hPa | 4.5V | 00:00:00 | 00:00:00 | 00:00:00 | |
| AM1SDL-15 | 2026-08-31 14:23:15 | 50.96572 | 9.25029 | 89° | 97km/h | 11634m | -4.9m/s | 0°C | 0% | 0hPa | 4.5V | 00:00:00 | 00:00:00 | 00:00:00 | |
| GOEST3-10 | 2026-08-31 14:23:14 | 50.96571 | 9.24987 | 89° | 89km/h | 11639m | -5.0m/s | 0°C | 0% | 0hPa | 4.5V | 00:00:00 | 00:00:00 | 00:00:00 | |
| DO3MHA-11 | 2026-08-31 14:23:13 | 50.96571 | 9.24947 | 83° | 102km/h | 11644m | -4.9m/s | 0°C | 0% | 0hPa | 4.5V | 00:00:00 | 00:00:00 | 00:00:00 | |
| HSKMA3-T | 2026-08-31 14:23:11 | 50.96559 | 9.24847 | 72° | 88km/h | 11654m | -4.9m/s | -46.3°C | 0% | 0hPa | 4.5V | 00:00:00 | 00:00:00 | 00:00:00 | |
| BIOWL1-15 | 2026-08-31 14:23:11 | 50.96541 | 9.24777 | 67° | 102km/h | 11663m | -4.8m/s | -46.3°C | 0% | 0hPa | 4.5V | 00:00:00 | 00:00:00 | 00:00:00 | |
| DL1XH-15 | 2026-08-31 14:23:09 | 50.96504 | 9.24603 | 77° | 119km/h | 11689m | -4.8m/s | 0°C | 0% | 0hPa | 0V | 00:00:00 | 00:00:00 | 00:00:00 | |
| GOEST3-10 | 2026-08-31 14:23:09 | 50.96551 | 9.24823 | 68° | 111km/h | 11664m | -4.8m/s | 0°C | 0% | 0hPa | 4.5V | 00:00:00 | 00:00:00 | 00:00:00 | |
| DF2AP-13 | 2026-08-31 14:23:08 | 50.96541 | 9.24777 | 67° | 100km/h | 11669m | -5.0m/s | 0°C | 0% | 0hPa | 4.5V | 00:00:00 | 00:00:00 | 00:00:00 | |
| AA1-15 | 2026-08-31 14:23:07 | 50.96521 | 9.24695 | 70° | 117km/h | 11674m | -5m/s | -46.3°C | 0% | 0hPa | 4.5V | 00:00:00 | 00:00:00 | 00:00:00 | |
| DO3DL | 2026-08-31 14:23:06 | 50.96521 | 9.24695 | 71° | 117km/h | 11674m | -5.0m/s | -46.3°C | 0% | 0hPa | 4.5V | 00:00:00 | 00:00:00 | 00:00:00 | |
| DL1XH-west | 2026-08-31 14:23:04 | 50.96504 | 9.24603 | 78° | 119km/h | 11684m | -5m/s | -46.1°C | 0% | 0hPa | 4.5V | 00:00:00 | 00:00:00 | 00:00:00 | |
| GOEST3-10 | 2026-08-31 14:23:04 | 50.96504 | 9.24603 | 78° | 110km/h | 11689m | -4.7m/s | 0°C | 0% | 0hPa | 4.5V | 00:00:00 | 00:00:00 | 00:00:00 | |
| DO3MHA-11 | 2026-08-31 14:23:03 | 50.96499 | 9.24557 | 82° | 95km/h | 11694m | -4.4m/s | 0°C | 0% | 0hPa | 4.5V | 00:00:00 | 00:00:00 | 00:00:00 | |
| DC6BW-12 | 2026-08-31 14:23:02 | 50.96495 | 9.24513 | 86° | 108km/h | 11694m | -4.5m/s | -46.0°C | 0% | 0hPa | 4.5V | 00:00:00 | 00:00:00 | 00:00:00 | |
| HSKMA3-T | 2026-08-31 14:23:00 | 50.96491 | 9.24435 | 84° | 89km/h | 11703m | -4.5m/s | -46°C | 0% | 0hPa | 4.5V | 00:00:00 | 00:00:00 | 00:00:00 | |
| DL1NUX | 2026-08-31 14:23:00 | 50.96458 | 9.24274 | 62° | 95km/h | 11733m | -4.8m/s | 0°C | 0% | 0hPa | 0V | 00:00:00 | 00:00:00 | 00:00:00 | |
| GOEST3-10 | 2026-08-31 14:22:59 | 50.96488 | 9.24401 | 80° | 86km/h | 11713m | -4.9m/s | 0°C | 0% | 0hPa | 4.5V | 00:00:00 | 00:00:00 | 00:00:00 | |
| NBG1-10 | 2026-08-31 14:22:58 | 50.96483 | 9.24369 | 69° | 93km/h | 11723m | -5.0m/s | 0°C | 0% | 0hPa | 4.5V | 00:00:00 | 00:00:00 | 00:00:00 | |
| BIOWL1-15 | 2026-08-31 14:22:58 | 50.96477 | 9.24338 | 69° | 82km/h | 11718m | -5.3m/s | -46°C | 0% | 0hPa | 4.5V | 00:00:00 | 00:00:00 | 00:00:00 | |
| DM7RM-13 | 2026-08-31 14:22:57 | 50.96477 | 9.24338 | 70° | 82km/h | 11718m | -5.3m/s | -39.3°C | 0% | 0hPa | 4.5V | 00:00:00 | 00:00:00 | 00:00:00 | |
| AA1-15 | 2026-08-31 14:22:56 | 50.96458 | 9.24274 | 63° | 95km/h | 11728m | -4.9m/s | -45.8°C | 0% | 0hPa | 4.5V | 00:00:00 | 00:00:00 | 00:00:00 | |
| DM0DOS-11 | 2026-08-31 14:22:54 | 50.96406 | 9.24023 | 83° | 108km/h | 11761m | -5m/s | 0°C | 0% | 0hPa | 0V | 00:00:00 | 00:00:00 | 00:00:00 | |
| GOEST3-10 | 2026-08-31 14:22:54 | 50.96447 | 9.24241 | 67° | 111km/h | 11742m | -4.7m/s | 0°C | 0% | 0hPa | 0V | 00:00:00 | 00:00:00 | 00:00:00 | |
| DL1XH-west | 2026-08-31 14:22:54 | 50.96435 | 9.24199 | 67° | 111km/h | 11738m | -4.8m/s | -45.6°C | 0% | 0hPa | 4.5V | 00:00:00 | 00:00:00 | 00:00:00 | |
| DO3MHA-11 | 2026-08-31 14:22:53 | 50.96435 | 9.24199 | 67° | 100km/h | 11742m | -4.7m/s | 0°C | 0% | 0hPa | 0V | 00:00:00 | 00:00:00 | 00:00:00 | |
| DL1NUX | 2026-08-31 14:22:50 | 50.96397 | 9.23875 | 73° | 78km/h | 11780m | -4.5m/s | 0°C | 0% | 0hPa | 0V | 00:00:00 | 00:00:00 | 00:00:00 | |
| HSKMA3-T | 2026-08-31 14:22:50 | 50.96406 | 9.24023 | 84° | 108km/h | 11756m | -4.8m/s | -45.4°C | 0% | 0hPa | 4.5V | 00:00:00 | 00:00:00 | 00:00:00 | |
| DL1XH-15 | 2026-08-31 14:22:49 | 50.96393 | 9.23845 | 73° | 77km/h | 11784m | -4.5m/s | 0°C | 0% | 0hPa | 0V | 00:00:00 | 00:00:00 | 00:00:00 | |
| GOEST3-10 | 2026-08-31 14:22:49 | 50.96406 | 9.24023 | 84° | 93km/h | 11761m | -5.0m/s | 0°C | 0% | 0hPa | 4.5V | 00:00:00 | 00:00:00 | 00:00:00 | |
| BIOWL1-15 | 2026-08-31 14:22:48 | 50.96402 | 9.23943 | 87° | 93km/h | 11766m | -5m/s | -45.4°C | 0% | 0hPa | 4.5V | 00:00:00 | 00:00:00 | 00:00:00 | |
| DL3OBA | 2026-08-31 14:22:46 | 50.96400 | 9.23907 | 86° | 84km/h | 11771m | -4.8m/s | -45.4°C | 0% | 0hPa | 4.5V | 00:00:00 | 00:00:00 | 00:00:00 | |
| AA1-15 | 2026-08-31 14:22:45 | 50.96393 | 9.23845 | 73° | 77km/h | 11780m | -4.6m/s | -45.5°C | 0% | 0hPa | 4.5V | 00:00:00 | 00:00:00 | 00:00:00 | |
| SO1NDE-10 | 2026-08-31 14:22:45 | 50.96397 | 9.23875 | 74° | 91km/h | 11780m | -4.5m/s | 0°C | 0% | 0hPa | 0V | 00:00:00 | 00:00:00 | 00:00:00 | |
| DM0DOS-11 | 2026-08-31 14:22:44 | 50.96344 | 9.23677 | 73° | 110km/h | 11809m | -4.8m/s | 0°C | 0% | 0hPa | 0V | 00:00:00 | 00:00:00 | 00:00:00 | |
| DF1GD-15 | 2026-08-31 14:22:44 | 50.96386 | 9.23815 | 68° | 80km/h | 11785m | -4.5m/s | -45.5°C | 0% | 0hPa | 4.5V | 00:00:00 | 00:00:00 | 00:00:00 | |
| DO2JMG | 2026-08-31 14:22:43 | 50.96386 | 9.23815 | 67° | 80km/h | 11784m | -4.5m/s | -45.5°C | 0% | 0hPa | 4.5V | 00:00:00 | 00:00:00 | 00:00:00 | |
| DL1XH-west | 2026-08-31 14:22:43 | 50.96377 | 9.23785 | 63° | 88km/h | 11789m | -4.7m/s | -45.6°C | 0% | 0hPa | 4.5V | 00:00:00 | 00:00:00 | 00:00:00 | |
| DO3MHA-11 | 2026-08-31 14:22:43 | 50.96386 | 9.23817 | 64° | 99km/h | 11789m | -4.6m/s | 0°C | 0% | 0hPa | 0V | 00:00:00 | 00:00:00 | 00:00:00 | |
| DO3DL | 2026-08-31 14:22:40 | 50.96355 | 9.23715 | 66° | 104km/h | 11799m | -5.0m/s | -45.6°C | 0% | 0hPa | 0V | 00:00:00 | 00:00:00 | 00:00:00 | |
| DL1XH-15 | 2026-08-31 14:22:39 | 50.96320 | 9.23476 | 85° | 84km/h | 11832m | -4.9m/s | 0°C | 0% | 0hPa | 0V | 00:00:00 | 00:00:00 | 00:00:00 | |
| HSKMA3-T | 2026-08-31 14:22:39 | 50.96335 | 9.23635 | 73° | 111km/h | 11809m | -4.8m/s | -45.4°C | 0% | 0hPa | 4.5V | 00:00:00 | 00:00:00 | 00:00:00 | |
| BIOWL1-15 | 2026-08-31 14:22:38 | 50.96324 | 9.23551 | 83° | 102km/h | 11818m | -4.3m/s | -45.4°C | 0% | 0hPa | 4.5V | 00:00:00 | 00:00:00 | 00:00:00 | |
| DF2AP-13 | 2026-08-31 14:22:38 | 50.96335 | 9.23634 | 74° | 95km/h | 11814m | -4.3m/s | 0°C | 0% | 0hPa | 4.5V | 00:00:00 | 00:00:00 | 00:00:00 | |
| DM7RM-13 | 2026-08-31 14:22:37 | 50.96328 | 9.23592 | 79° | 108km/h | 11814m | -4.3m/s | -38.6°C | 0% | 0hPa | 4.5V | 00:00:00 | 00:00:00 | 00:00:00 | |
| AM1SDL-15 | 2026-08-31 14:22:36 | 50.96324 | 9.23551 | 83° | 93km/h | 11823m | -4.5m/s | 0°C | 0% | 0hPa | 4.5V | 00:00:00 | 00:00:00 | 00:00:00 | |
| AA1-15 | 2026-08-31 14:22:35 | 50.96320 | 9.23476 | 85° | 84km/h | 11827m | -4.7m/s | -45.4°C | 0% | 0hPa | 4.5V | 00:00:00 | 00:00:00 | 00:00:00 | |
| DM0DOS-11 | 2026-08-31 14:22:34 | 50.96290 | 9.23329 | 60° | 89km/h | 11856m | -4.5m/s | 0°C | 0% | 0hPa | 0V | 00:00:00 | 00:00:00 | 00:00:00 | |
| GOEST3-10 | 2026-08-31 14:22:34 | 50.96319 | 9.23476 | 86° | 93km/h | 11832m | -4.9m/s | 0°C | 0% | 0hPa | 4.5V | 00:00:00 | 00:00:00 | 00:00:00 | |
| DO3MHA-11 | 2026-08-31 14:22:33 | 50.96317 | 9.23444 | 82° | 93km/h | 11837m | -4.9m/s | 0°C | 0% | 0hPa | 4.5V | 00:00:00 | 00:00:00 | 00:00:00 | |
| DL1XH-west | 2026-08-31 14:22:32 | 50.96308 | 9.23387 | 69° | 75km/h | 11842m | -4.9m/s | -45.4°C | 0% | 0hPa | 4.5V | 00:00:00 | 00:00:00 | 00:00:00 | |
| DL1NUX | 2026-08-31 14:22:30 | 50.96246 | 9.23178 | 71° | 113km/h | 11886m | -4.7m/s | 0°C | 0% | 0hPa | 0V | 00:00:00 | 00:00:00 | 00:00:00 | |
| HSKMA3-T | 2026-08-31 14:22:28 | 50.96267 | 9.23260 | 64° | 106km/h | 11861m | -4.8m/s | -45.3°C | 0% | 0hPa | 4.5V | 00:00:00 | 00:00:00 | 00:00:00 | |
| DO3DL | 2026-08-31 14:22:27 | 50.96267 | 9.23260 | 65° | 106km/h | 11861m | -4.8m/s | -45.3°C | 0% | 0hPa | 4.5V | 00:00:00 | 00:00:00 | 00:00:00 | |
| BIOWL1-15 | 2026-08-31 14:22:26 | 50.96246 | 9.23178 | 72° | 113km/h | 11871m | -5.1m/s | -45.2°C | 0% | 0hPa | 4.5V | 00:00:00 | 00:00:00 | 00:00:00 | |
| NBG1-10 | 2026-08-31 14:22:25 | 50.96245 | 9.23177 | 72° | 95km/h | 11876m | -4.9m/s | 0°C | 0% | 0hPa | 0V | 00:00:00 | 00:00:00 | 00:00:00 | |
| DM0DOS-11 | 2026-08-31 14:22:24 | 50.96215 | 9.22957 | 69° | 75km/h | 11905m | -5.3m/s | 0°C | 0% | 0hPa | 0V | 00:00:00 | 00:00:00 | 00:00:00 | |
| AA1-15 | 2026-08-31 14:22:24 | 50.96232 | 9.23093 | 80° | 104km/h | 11881m | -4.9m/s | -45.2°C | 0% | 0hPa | 4.5V | 00:00:00 | 00:00:00 | 00:00:00 | |
| DF1GD-15 | 2026-08-31 14:22:23 | 50.96228 | 9.23053 | 83° | 95km/h | 11886m | -4.7m/s | -45.2°C | 0% | 0hPa | 4.5V | 00:00:00 | 00:00:00 | 00:00:00 | |
| DL1XH-west | 2026-08-31 14:22:21 | 50.96225 | 9.23018 | 81° | 84km/h | 11891m | -4.7m/s | -45.3°C | 0% | 0hPa | 4.5V | 00:00:00 | 00:00:00 | 00:00:00 | |
| DO3DL | 2026-08-31 14:22:21 | 50.96221 | 9.22986 | 77° | 77km/h | 11895m | -4.7m/s | -45.4°C | 0% | 0hPa | 0V | 00:00:00 | 00:00:00 | 00:00:00 | |
| GOEST3-10 | 2026-08-31 14:22:20 | 50.96221 | 9.22986 | 77° | 84km/h | 11900m | -4.9m/s | 0°C | 0% | 0hPa | 0V | 00:00:00 | 00:00:00 | 00:00:00 | |
| DL1XH-15 | 2026-08-31 14:22:19 | 50.96163 | 9.22795 | 67° | 110km/h | 11930m | -4.8m/s | 0°C | 0% | 0hPa | 0V | 00:00:00 | 00:00:00 | 00:00:00 | |
| DO2KSM | 2026-08-31 14:22:18 | 50.96207 | 9.22929 | 64° | 78km/h | 11905m | -5.3m/s | -45.5°C | 0% | 0hPa | 4.5V | 00:00:00 | 00:00:00 | 00:00:00 | |
| HSKMA3-T | 2026-08-31 14:22:17 | 50.96186 | 9.22869 | 60° | 95km/h | 11916m | -5.1m/s | -45.6°C | 0% | 0hPa | 4.5V | 00:00:00 | 00:00:00 | 00:00:00 | |
| BIOWL1-15 | 2026-08-31 14:22:17 | 50.96163 | 9.22795 | 68° | 110km/h | 11926m | -4.7m/s | -45.6°C | 0% | 0hPa | 4.5V | 00:00:00 | 00:00:00 | 00:00:00 | |
| DM7RM-13 | 2026-08-31 14:22:16 | 50.96186 | 9.22869 | 61° | 95km/h | 11916m | -5.1m/s | -38.9°C | 0% | 0hPa | 4.5V | 00:00:00 | 00:00:00 | 00:00:00 | |
| DB0UT-7 | 2026-08-31 14:22:15 | 50.96174 | 9.22837 | 68° | 99km/h | 11926m | -4.6m/s | 0°C | 0% | 0hPa | 4.5V | 00:00:00 | 00:00:00 | 00:00:00 | |
| DO8TBO-1 | 2026-08-31 14:22:14 | 50.96163 | 9.22795 | 68° | 99km/h | 11930m | -4.7m/s | 0°C | 0% | 0hPa | 4.5V | 00:00:00 | 00:00:00 | 00:00:00 | |
| AA1-15 | 2026-08-31 14:22:13 | 50.96147 | 9.22711 | 77° | 110km/h | 11935m | -4.9m/s | -45.5°C | 0% | 0hPa | 4.5V | 00:00:00 | 00:00:00 | 00:00:00 | |
| DB0NH | 2026-08-31 14:22:11 | 50.96141 | 9.22665 | 83° | 97km/h | 11945m | -5.0m/s | 0°C | 0% | 0hPa | 4.5V | 00:00:00 | 00:00:00 | 00:00:00 | |
| DL1XH-west | 2026-08-31 14:22:10 | 50.96138 | 9.22630 | 83° | 95km/h | 11945m | -5m/s | -45.5°C | 0% | 0hPa | 4.5V | 00:00:00 | 00:00:00 | 00:00:00 | |
| GOEST3-10 | 2026-08-31 14:22:10 | 50.96138 | 9.22630 | 83° | 82km/h | 11950m | -4.8m/s | 0°C | 0% | 0hPa | 0V | 00:00:00 | 00:00:00 | 00:00:00 | |
| DL1XH-15 | 2026-08-31 14:22:09 | 50.96097 | 9.22447 | 66° | 97km/h | 11984m | -5m/s | 0°C | 0% | 0hPa | 0V | 00:00:00 | 00:00:00 | 00:00:00 | |
| DF2AP-13 | 2026-08-31 14:22:08 | 50.96131 | 9.22562 | 78° | 95km/h | 11960m | -4.7m/s | 0°C | 0% | 0hPa | 4.5V | 00:00:00 | 00:00:00 | 00:00:00 | |
| DO3DL | 2026-08-31 14:22:07 | 50.96126 | 9.22532 | 72° | 75km/h | 11960m | -4.7m/s | -45.4°C | 0% | 0hPa | 4.5V | 00:00:00 | 00:00:00 | 00:00:00 | |
| HSKMA3-T | 2026-08-31 14:22:06 | 50.96118 | 9.22504 | 64° | 80km/h | 11964m | -4.8m/s | -45.4°C | 0% | 0hPa | 4.5V | 00:00:00 | 00:00:00 | 00:00:00 | |
| DL3OBA | 2026-08-31 14:22:06 | 50.96108 | 9.22474 | 62° | 88km/h | 11969m | -4.9m/s | -45.4°C | 0% | 0hPa | 0V | 00:00:00 | 00:00:00 | 00:00:00 | |
| DL9SK-14 | 2026-08-31 14:22:05 | 50.96085 | 9.22406 | 62° | 106km/h | 11979m | -5.1m/s | -45.3°C | -1.0% | -1.0hPa | 0V | 00:00:00 | 00:00:00 | 00:00:00 | |
| DM0DOS-11 | 2026-08-31 14:22:04 | 50.96048 | 9.22234 | 79° | 111km/h | 12005m | -5.2m/s | 0°C | 0% | 0hPa | 0V | 00:00:00 | 00:00:00 | 00:00:00 | |
| BIOWL1-15 | 2026-08-31 14:22:04 | 50.96085 | 9.22406 | 63° | 106km/h | 11979m | -5.1m/s | -45.3°C | 0% | 0hPa | 4.5V | 00:00:00 | 00:00:00 | 00:00:00 | |
| DO3MHA-11 | 2026-08-31 14:22:03 | 50.96085 | 9.22406 | 63° | 102km/h | 11985m | -5.0m/s | 0°C | 0% | 0hPa | 4.5V | 00:00:00 | 00:00:00 | 00:00:00 | |
| AA1-15 | 2026-08-31 14:22:02 | 50.96063 | 9.22323 | 71° | 117km/h | 11990m | -5m/s | -45.2°C | 0% | 0hPa | 4.5V | 00:00:00 | 00:00:00 | 00:00:00 | |
| DO3DL | 2026-08-31 14:22:01 | 50.96063 | 9.22323 | 72° | 117km/h | 11990m | -5.0m/s | -45.2°C | 0% | 0hPa | 0V | 00:00:00 | 00:00:00 | 00:00:00 | |
| DL1NUX | 2026-08-31 14:22:00 | 50.96033 | 9.22084 | 75° | 78km/h | 12025m | -5m/s | 0°C | 0% | 0hPa | 0V | 00:00:00 | 00:00:00 | 00:00:00 | |
| DL1XH-west | 2026-08-31 14:22:00 | 50.96048 | 9.22234 | 80° | 111km/h | 12000m | -5.3m/s | -45.2°C | 0% | 0hPa | 4.5V | 00:00:00 | 00:00:00 | 00:00:00 | |
| GOEST3-10 | 2026-08-31 14:21:59 | 50.96048 | 9.22234 | 80° | 99km/h | 12005m | -5.2m/s | 0°C | 0% | 0hPa | 0V | 00:00:00 | 00:00:00 | 00:00:00 | |
| DO2KSM | 2026-08-31 14:21:58 | 50.96044 | 9.22192 | 84° | 104km/h | 12005m | -5.2m/s | -45.3°C | 0% | 0hPa | 0V | 00:00:00 | 00:00:00 | 00:00:00 | |
| DL1XH-15 | 2026-08-31 14:21:57 | 50.96008 | 9.21993 | 60° | 93km/h | 12041m | -5.2m/s | 0°C | 0% | 0hPa | 0V | 00:00:00 | 00:00:00 | 00:00:00 | |
| HSKMA3-T | 2026-08-31 14:21:55 | 50.96034 | 9.22084 | 75° | 78km/h | 12020m | -4.9m/s | -45.3°C | 0% | 0hPa | 4.5V | 00:00:00 | 00:00:00 | 00:00:00 | |
| DM7RM-13 | 2026-08-31 14:21:55 | 50.96033 | 9.22084 | 76° | 78km/h | 12021m | -4.9m/s | -38.6°C | 0% | 0hPa | 0V | 00:00:00 | 00:00:00 | 00:00:00 | |
| DM0DOS-11 | 2026-08-31 14:21:54 | 50.95972 | 9.21878 | 73° | 115km/h | 12057m | -5m/s | 0°C | 0% | 0hPa | 0V | 00:00:00 | 00:00:00 | 00:00:00 | |
| DO3MHA-11 | 2026-08-31 14:21:53 | 50.96019 | 9.22024 | 63° | 102km/h | 12036m | -5.3m/s | 0°C | 0% | 0hPa | 4.5V | 00:00:00 | 00:00:00 | 00:00:00 | |
| NBG1-10 | 2026-08-31 14:21:52 | 50.96008 | 9.21993 | 61° | 97km/h | 12041m | -5.1m/s | 0°C | 0% | 0hPa | 4.5V | 00:00:00 | 00:00:00 | 00:00:00 | |
| AA1-15 | 2026-08-31 14:21:51 | 50.95996 | 9.21958 | 62° | 102km/h | 12041m | -5.2m/s | -45.5°C | 0% | 0hPa | 4.5V | 00:00:00 | 00:00:00 | 00:00:00 | |
| DL1NUX | 2026-08-31 14:21:50 | 50.95947 | 9.21705 | 80° | 93km/h | 12077m | -5.1m/s | 0°C | 0% | 0hPa | 0V | 00:00:00 | 00:00:00 | 00:00:00 | |
| DL1XH-west | 2026-08-31 14:21:49 | 50.95963 | 9.21834 | 73° | 115km/h | 12057m | -5m/s | -45.3°C | 0% | 0hPa | 4.5V | 00:00:00 | 00:00:00 | 00:00:00 | |
| DC6BW-12 | 2026-08-31 14:21:48 | 50.95963 | 9.21834 | 74° | 115km/h | 12057m | -5.0m/s | -45.3°C | 0% | 0hPa | 0V | 00:00:00 | 00:00:00 | 00:00:00 | |
| DL1XH-15 | 2026-08-31 14:21:47 | 50.95934 | 9.21613 | 69° | 77km/h | 12092m | -5.3m/s | 0°C | 0% | 0hPa | 0V | 00:00:00 | 00:00:00 | 00:00:00 | |
| DB0UT-7 | 2026-08-31 14:21:45 | 50.95947 | 9.21705 | 81° | 93km/h | 12077m | -5.0m/s | 0°C | 0% | 0hPa | 4.5V | 00:00:00 | 00:00:00 | 00:00:00 | |
| HSKMA3-T | 2026-08-31 14:21:45 | 50.95944 | 9.21674 | 80° | 84km/h | 12077m | -5.1m/s | -45.1°C | 0% | 0hPa | 4.5V | 00:00:00 | 00:00:00 | 00:00:00 | |
| DO8TBO-1 | 2026-08-31 14:21:44 | 50.95944 | 9.21674 | 81° | 93km/h | 12082m | -5.2m/s | 0°C | 0% | 0hPa | 4.5V | 00:00:00 | 00:00:00 | 00:00:00 | |
| BIOWL1-15 | 2026-08-31 14:21:43 | 50.95934 | 9.21613 | 69° | 77km/h | 12087m | -5.4m/s | -45.1°C | 0% | 0hPa | 4.5V | 00:00:00 | 00:00:00 | 00:00:00 | |
| DO3DL | 2026-08-31 14:21:42 | 50.95934 | 9.21613 | 70° | 77km/h | 12087m | -5.4m/s | -45.1°C | 0% | 0hPa | 4.5V | 00:00:00 | 00:00:00 | 00:00:00 | |
| AA1-15 | 2026-08-31 14:21:41 | 50.95916 | 9.21555 | 60° | 88km/h | 12097m | -5.2m/s | -45.2°C | 0% | 0hPa | 4.5V | 00:00:00 | 00:00:00 | 00:00:00 | |
| DL1NUX | 2026-08-31 14:21:40 | 50.95860 | 9.21365 | 74° | 111km/h | 12128m | -5.3m/s | 0°C | 0% | 0hPa | 0V | 00:00:00 | 00:00:00 | 00:00:00 | |
| DL1XH-west | 2026-08-31 14:21:38 | 50.95891 | 9.21489 | 61° | 106km/h | 12108m | -5m/s | -45.1°C | 0% | 0hPa | 4.5V | 00:00:00 | 00:00:00 | 00:00:00 | |
| DF2AP-13 | 2026-08-31 14:21:38 | 50.95891 | 9.21488 | 62° | 99km/h | 12113m | -4.9m/s | 0°C | 0% | 0hPa | 0V | 00:00:00 | 00:00:00 | 00:00:00 | |
| DO2KSM | 2026-08-31 14:21:37 | 50.95879 | 9.21449 | 66° | 111km/h | 12113m | -4.9m/s | -45.0°C | 0% | 0hPa | 0V | 00:00:00 | 00:00:00 | 00:00:00 | |
| DO3DL | 2026-08-31 14:21:35 | 50.95860 | 9.21364 | 76° | 111km/h | 12123m | -5.2m/s | -44.9°C | 0% | 0hPa | 0V | 00:00:00 | 00:00:00 | 00:00:00 | |
| DM0DOS-11 | 2026-08-31 14:21:34 | 50.95827 | 9.21157 | 62° | 78km/h | 12159m | -5.2m/s | 0°C | 0% | 0hPa | 0V | 00:00:00 | 00:00:00 | 00:00:00 | |
| HSKMA3-T | 2026-08-31 14:21:34 | 50.95849 | 9.21282 | 81° | 97km/h | 12133m | -5m/s | -44.9°C | 0% | 0hPa | 4.5V | 00:00:00 | 00:00:00 | 00:00:00 | |
| DO3MHA-11 | 2026-08-31 14:21:33 | 50.95849 | 9.21282 | 81° | 91km/h | 12138m | -5.0m/s | 0°C | 0% | 0hPa | 4.5V | 00:00:00 | 00:00:00 | 00:00:00 | |
| BIOWL1-15 | 2026-08-31 14:21:32 | 50.95841 | 9.21214 | 76° | 78km/h | 12144m | -5m/s | -44.9°C | 0% | 0hPa | 4.5V | 00:00:00 | 00:00:00 | 00:00:00 | |
| DL1NUX | 2026-08-31 14:21:30 | 50.95779 | 9.21027 | 62° | 110km/h | 12180m | -5.2m/s | 0°C | 0% | 0hPa | 0V | 00:00:00 | 00:00:00 | 00:00:00 | |
| AA1-15 | 2026-08-31 14:21:30 | 50.95827 | 9.21157 | 63° | 78km/h | 12154m | -5.2m/s | -44.9°C | 0% | 0hPa | 4.5V | 00:00:00 | 00:00:00 | 00:00:00 | |
| DJTTGO | 2026-08-31 14:21:29 | 50.95827 | 9.21156 | 64° | 78km/h | 12154m | -5.2m/s | -44.9°C | 0% | 0hPa | 4.5V | 00:00:00 | 00:00:00 | 00:00:00 | |
| DO2JMG | 2026-08-31 14:21:28 | 50.95817 | 9.21128 | 59° | 84km/h | 12159m | -5.2m/s | -45°C | 0% | 0hPa | 4.5V | 00:00:00 | 00:00:00 | 00:00:00 | |
| DC6BW-12 | 2026-08-31 14:21:28 | 50.95817 | 9.21128 | 60° | 84km/h | 12159m | -5.2m/s | -45.0°C | 0% | 0hPa | 4.5V | 00:00:00 | 00:00:00 | 00:00:00 | |
| DL1XH-west | 2026-08-31 14:21:27 | 50.95805 | 9.21098 | 58° | 93km/h | 12164m | -5.6m/s | -45°C | 0% | 0hPa | 4.5V | 00:00:00 | 00:00:00 | 00:00:00 | |
| DL3OBA | 2026-08-31 14:21:25 | 50.95767 | 9.20987 | 68° | 113km/h | 12181m | -5.2m/s | -44.8°C | 0% | 0hPa | 4.5V | 00:00:00 | 00:00:00 | 00:00:00 | |
| HSKMA3-T | 2026-08-31 14:21:24 | 50.95757 | 9.20944 | 72° | 113km/h | 12186m | -5.2m/s | -44.8°C | 0% | 0hPa | 4.5V | 00:00:00 | 00:00:00 | 00:00:00 | |
| DO3DL | 2026-08-31 14:21:23 | 50.95749 | 9.20902 | 77° | 108km/h | 12191m | -5.2m/s | -44.8°C | 0% | 0hPa | 4.5V | 00:00:00 | 00:00:00 | 00:00:00 | |
| BIOWL1-15 | 2026-08-31 14:21:21 | 50.95739 | 9.20823 | 80° | 91km/h | 12202m | -5.4m/s | -44.9°C | 0% | 0hPa | 4.5V | 00:00:00 | 00:00:00 | 00:00:00 | |
| BIOWL7-15 | 2026-08-31 14:21:20 | 50.95739 | 9.20823 | 81° | 91km/h | 12202m | -5.4m/s | -44.9°C | 0% | 0hPa | 0V | 00:00:00 | 00:00:00 | 00:00:00 | |
| NBG1-10 | 2026-08-31 14:21:19 | 50.95735 | 9.20786 | 72° | 91km/h | 12213m | -5.1m/s | 0°C | 0% | 0hPa | 0V | 00:00:00 | 00:00:00 | 00:00:00 | |
| AA1-15 | 2026-08-31 14:21:19 | 50.95730 | 9.20757 | 72° | 78km/h | 12212m | -5.2m/s | -45°C | 0% | 0hPa | 4.5V | 00:00:00 | 00:00:00 | 00:00:00 | |
| DL1XH-15 | 2026-08-31 14:21:17 | 50.95662 | 9.20559 | 66° | 113km/h | 12250m | -5.2m/s | 0°C | 0% | 0hPa | 0V | 00:00:00 | 00:00:00 | 00:00:00 | |
| DO2JMG | 2026-08-31 14:21:17 | 50.95713 | 9.20700 | 59° | 84km/h | 12223m | -5.2m/s | -45.1°C | 0% | 0hPa | 4.5V | 00:00:00 | 00:00:00 | 00:00:00 | |
| DO3DL | 2026-08-31 14:21:16 | 50.95712 | 9.20700 | 60° | 84km/h | 12223m | -5.2m/s | -45.1°C | 0% | 0hPa | 4.5V | 00:00:00 | 00:00:00 | 00:00:00 | |
| SO1NDE-10 | 2026-08-31 14:21:15 | 50.95701 | 9.20673 | 59° | 95km/h | 12233m | -5.3m/s | 0°C | 0% | 0hPa | 4.5V | 00:00:00 | 00:00:00 | 00:00:00 | |
| DO8TBO-1 | 2026-08-31 14:21:14 | 50.95688 | 9.20636 | 59° | 95km/h | 12239m | -5.4m/s | 0°C | 0% | 0hPa | 4.5V | 00:00:00 | 00:00:00 | 00:00:00 | |
| HSKMA3-T | 2026-08-31 14:21:13 | 50.95662 | 9.20559 | 66° | 113km/h | 12244m | -5.2m/s | -45.2°C | 0% | 0hPa | 4.5V | 00:00:00 | 00:00:00 | 00:00:00 | |
| BIOWL1-15 | 2026-08-31 14:21:12 | 50.95643 | 9.20474 | 75° | 110km/h | 12255m | -5.3m/s | -45.2°C | 0% | 0hPa | 4.5V | 00:00:00 | 00:00:00 | 00:00:00 | |
| DL8DAS-15 | 2026-08-31 14:21:12 | 50.95662 | 9.20559 | 67° | 113km/h | 12245m | -5.2m/s | -45.2°C | 0% | 0hPa | 0V | 00:00:00 | 00:00:00 | 00:00:00 | |
| DB0NH | 2026-08-31 14:21:11 | 50.95651 | 9.20517 | 71° | 93km/h | 12255m | -5.3m/s | 0°C | 0% | 0hPa | 0V | 00:00:00 | 00:00:00 | 00:00:00 | |
| DL1NUX | 2026-08-31 14:21:10 | 50.95617 | 9.20300 | 67° | 75km/h | 12287m | -5.2m/s | 0°C | 0% | 0hPa | 0V | 00:00:00 | 00:00:00 | 00:00:00 | |
| DO3DL | 2026-08-31 14:21:10 | 50.95637 | 9.20432 | 80° | 102km/h | 12261m | -5.4m/s | -45.3°C | 0% | 0hPa | 4.5V | 00:00:00 | 00:00:00 | 00:00:00 | |
| AA1-15 | 2026-08-31 14:21:09 | 50.95632 | 9.20394 | 80° | 93km/h | 12266m | -5.4m/s | -45.3°C | 0% | 0hPa | 4.5V | 00:00:00 | 00:00:00 | 00:00:00 | |
| DF2AP-13 | 2026-08-31 14:21:08 | 50.95632 | 9.20394 | 81° | 89km/h | 12272m | -5.3m/s | 0°C | 0% | 0hPa | 0V | 00:00:00 | 00:00:00 | 00:00:00 | |
| DL1XH-15 | 2026-08-31 14:21:07 | 50.95586 | 9.20222 | 72° | 93km/h | 12315m | -5.2m/s | 0°C | 0% | 0hPa | 0V | 00:00:00 | 00:00:00 | 00:00:00 | |
| DL1XH-west | 2026-08-31 14:21:06 | 50.95617 | 9.20300 | 67° | 75km/h | 12282m | -5.2m/s | -45.4°C | 0% | 0hPa | 4.5V | 00:00:00 | 00:00:00 | 00:00:00 | |
| DO2JMG | 2026-08-31 14:21:04 | 50.95609 | 9.20273 | 61° | 77km/h | 12287m | -5.2m/s | -45.5°C | 0% | 0hPa | 4.5V | 00:00:00 | 00:00:00 | 00:00:00 | |
| DM0DOS-11 | 2026-08-31 14:21:04 | 50.95548 | 9.20108 | 67° | 108km/h | 12320m | -5.2m/s | 0°C | 0% | 0hPa | 0V | 00:00:00 | 00:00:00 | 00:00:00 | |
| DO3MHA-11 | 2026-08-31 14:21:03 | 50.95598 | 9.20245 | 57° | 95km/h | 12299m | -5.5m/s | 0°C | 0% | 0hPa | 4.5V | 00:00:00 | 00:00:00 | 00:00:00 | |
| HSKMA3-T | 2026-08-31 14:21:02 | 50.95572 | 9.20183 | 58° | 100km/h | 12304m | -5.4m/s | -45.4°C | 0% | 0hPa | 4.5V | 00:00:00 | 00:00:00 | 00:00:00 | |
| DL1NUX | 2026-08-31 14:21:00 | 50.95523 | 9.19957 | 77° | 82km/h | 12342m | -5.7m/s | 0°C | 0% | 0hPa | 0V | 00:00:00 | 00:00:00 | 00:00:00 | |
| BIOWL1-15 | 2026-08-31 14:20:59 | 50.95548 | 9.20108 | 68° | 108km/h | 12315m | -5.2m/s | -45.2°C | 0% | 0hPa | 4.5V | 00:00:00 | 00:00:00 | 00:00:00 | |
| DF1GD-15 | 2026-08-31 14:20:59 | 50.95539 | 9.20068 | 74° | 106km/h | 12320m | -5.2m/s | -45.2°C | 0% | 0hPa | 4.5V | 00:00:00 | 00:00:00 | 00:00:00 | |
| AA1-15 | 2026-08-31 14:20:58 | 50.95532 | 9.20028 | 77° | 100km/h | 12325m | -5.3m/s | -45.2°C | 0% | 0hPa | 4.5V | 00:00:00 | 00:00:00 | 00:00:00 | |
| DL1XH-15 | 2026-08-31 14:20:57 | 50.95503 | 9.19873 | 58° | 75km/h | 12358m | -5.3m/s | 0°C | 0% | 0hPa | 0V | 00:00:00 | 00:00:00 | 00:00:00 | |
| DO2KSM | 2026-08-31 14:20:57 | 50.95527 | 9.19991 | 80° | 91km/h | 12331m | -5.3m/s | -45.2°C | 0% | 0hPa | 4.5V | 00:00:00 | 00:00:00 | 00:00:00 | |
| DO3DL | 2026-08-31 14:20:56 | 50.95527 | 9.19991 | 80° | 91km/h | 12331m | -5.3m/s | -45.2°C | 0% | 0hPa | 4.5V | 00:00:00 | 00:00:00 | 00:00:00 | |
| DL1XH-west | 2026-08-31 14:20:55 | 50.95523 | 9.19957 | 78° | 82km/h | 12336m | -5.5m/s | -45.2°C | 0% | 0hPa | 4.5V | 00:00:00 | 00:00:00 | 00:00:00 | |
| BIOWL1-15 | 2026-08-31 14:20:53 | 50.95452 | 9.19753 | 60° | 106km/h | 12374m | -5.5m/s | -45.2°C | 0% | 0hPa | 4.5V | 00:00:00 | 00:00:00 | 00:00:00 | |
| DM7RM-13 | 2026-08-31 14:20:52 | 50.95503 | 9.19873 | 60° | 75km/h | 12353m | -5.4m/s | -38.4°C | 0% | 0hPa | 4.5V | 00:00:00 | 00:00:00 | 00:00:00 | |
| DO2JMG | 2026-08-31 14:20:51 | 50.95479 | 9.19819 | 54° | 91km/h | 12363m | -5.4m/s | -45.2°C | 0% | 0hPa | 4.5V | 00:00:00 | 00:00:00 | 00:00:00 | |
| TFSTFS | 2026-08-31 14:20:48 | 50.95452 | 9.19753 | 61° | 106km/h | 12375m | -5.4m/s | -45.2°C | 0% | 0hPa | 0V | 00:00:00 | 00:00:00 | 00:00:00 | |
| DL1XH-15 | 2026-08-31 14:20:47 | 50.95405 | 9.19524 | 77° | 80km/h | 12412m | -5.3m/s | 0°C | 0% | 0hPa | 0V | 00:00:00 | 00:00:00 | 00:00:00 | |
| AA1-15 | 2026-08-31 14:20:47 | 50.95428 | 9.19674 | 70° | 110km/h | 12385m | -5.3m/s | -45.1°C | 0% | 0hPa | 4.5V | 00:00:00 | 00:00:00 | 00:00:00 | |
| NBG1-10 | 2026-08-31 14:20:46 | 50.95428 | 9.19674 | 70° | 93km/h | 12391m | -5.3m/s | 0°C | 0% | 0hPa | 4.5V | 00:00:00 | 00:00:00 | 00:00:00 | |
| SO1NDE-10 | 2026-08-31 14:20:45 | 50.95420 | 9.19630 | 79° | 93km/h | 12396m | -5.4m/s | 0°C | 0% | 0hPa | 4.5V | 00:00:00 | 00:00:00 | 00:00:00 | |
| DL1XH-west | 2026-08-31 14:20:44 | 50.95414 | 9.19594 | 78° | 99km/h | 12396m | -5.5m/s | -45.2°C | 0% | 0hPa | 4.5V | 00:00:00 | 00:00:00 | 00:00:00 | |
| DO8TBO-1 | 2026-08-31 14:20:44 | 50.95414 | 9.19594 | 79° | 91km/h | 12401m | -5.5m/s | 0°C | 0% | 0hPa | 4.5V | 00:00:00 | 00:00:00 | 00:00:00 | |
| DO3MHA-11 | 2026-08-31 14:20:43 | 50.95409 | 9.19557 | 80° | 93km/h | 12407m | -5.5m/s | 0°C | 0% | 0hPa | 4.5V | 00:00:00 | 00:00:00 | 00:00:00 | |
| DL3OBA | 2026-08-31 14:20:42 | 50.95405 | 9.19524 | 78° | 80km/h | 12407m | -5.6m/s | -45.3°C | 0% | 0hPa | 4.5V | 00:00:00 | 00:00:00 | 00:00:00 | |
| DO2JMG | 2026-08-31 14:20:41 | 50.95393 | 9.19467 | 64° | 75km/h | 12418m | -5.2m/s | -45.3°C | 0% | 0hPa | 4.5V | 00:00:00 | 00:00:00 | 00:00:00 | |
| DL1NUX | 2026-08-31 14:20:41 | 50.95330 | 9.19306 | 63° | 113km/h | 12450m | -5.4m/s | 0°C | 0% | 0hPa | 0V | 00:00:00 | 00:00:00 | 00:00:00 | |
| HSKMA3-T | 2026-08-31 14:20:40 | 50.95383 | 9.19440 | 58° | 80km/h | 12423m | -5.3m/s | -45.4°C | 0% | 0hPa | 4.5V | 00:00:00 | 00:00:00 | 00:00:00 | |
| BIOWL1-15 | 2026-08-31 14:20:38 | 50.95357 | 9.19380 | 56° | 100km/h | 12433m | -5.5m/s | -45.5°C | 0% | 0hPa | 4.5V | 00:00:00 | 00:00:00 | 00:00:00 | |
| DO3DL | 2026-08-31 14:20:37 | 50.95358 | 9.19380 | 57° | 100km/h | 12433m | -5.5m/s | -45.5°C | 0% | 0hPa | 4.5V | 00:00:00 | 00:00:00 | 00:00:00 | |
| AA1-15 | 2026-08-31 14:20:36 | 50.95330 | 9.19306 | 64° | 113km/h | 12444m | -5.6m/s | -45.5°C | 0% | 0hPa | 4.5V | 00:00:00 | 00:00:00 | 00:00:00 | |
| DL1XH-west | 2026-08-31 14:20:33 | 50.95309 | 9.19222 | 73° | 111km/h | 12455m | -5.4m/s | -45.5°C | 0% | 0hPa | 4.5V | 00:00:00 | 00:00:00 | 00:00:00 | |
| DO3MHA-11 | 2026-08-31 14:20:33 | 50.95309 | 9.19221 | 74° | 89km/h | 12461m | -5.5m/s | 0°C | 0% | 0hPa | 4.5V | 00:00:00 | 00:00:00 | 00:00:00 | |
| DM7RM-13 | 2026-08-31 14:20:32 | 50.95302 | 9.19179 | 78° | 106km/h | 12461m | -5.5m/s | -38.7°C | 0% | 0hPa | 4.5V | 00:00:00 | 00:00:00 | 00:00:00 | |
| DO3DL | 2026-08-31 14:20:31 | 50.95296 | 9.19140 | 80° | 97km/h | 12466m | -5.4m/s | -45.5°C | 0% | 0hPa | 4.5V | 00:00:00 | 00:00:00 | 00:00:00 | |
| DO2JMG | 2026-08-31 14:20:30 | 50.95292 | 9.19104 | 79° | 86km/h | 12472m | -5.4m/s | -45.4°C | 0% | 0hPa | 4.5V | 00:00:00 | 00:00:00 | 00:00:00 | |
| DK7TD | 2026-08-31 14:20:30 | 50.95287 | 9.19073 | 74° | 77km/h | 12477m | -5.3m/s | -45.5°C | 0% | 0hPa | 4.5V | 00:00:00 | 00:00:00 | 00:00:00 | |
| BIOWL1-15 | 2026-08-31 14:20:29 | 50.95273 | 9.19018 | 60° | 77km/h | 12488m | -5.6m/s | -45.6°C | 0% | 0hPa | 4.5V | 00:00:00 | 00:00:00 | 00:00:00 | |
| DL1NUX | 2026-08-31 14:20:28 | 50.95249 | 9.18967 | 56° | 91km/h | 12505m | -5.7m/s | 0°C | 0% | 0hPa | 0V | 00:00:00 | 00:00:00 | 00:00:00 | |
| DL1XH-15 | 2026-08-31 14:20:27 | 50.95208 | 9.18857 | 65° | 111km/h | 12521m | -5.2m/s | 0°C | 0% | 0hPa | 0V | 00:00:00 | 00:00:00 | 00:00:00 | |
| DC6BW-12 | 2026-08-31 14:20:26 | 50.95262 | 9.18991 | 56° | 82km/h | 12494m | -5.7m/s | -45.6°C | 0% | 0hPa | 4.5V | 00:00:00 | 00:00:00 | 00:00:00 | |
| AA1-15 | 2026-08-31 14:20:25 | 50.95235 | 9.18931 | 56° | 100km/h | 12505m | -5.7m/s | -45.6°C | 0% | 0hPa | 4.5V | 00:00:00 | 00:00:00 | 00:00:00 | |
| DM0DOS-11 | 2026-08-31 14:20:24 | 50.95184 | 9.18733 | 78° | 95km/h | 12537m | -5.5m/s | 0°C | 0% | 0hPa | 0V | 00:00:00 | 00:00:00 | 00:00:00 | |
| DL1XH-west | 2026-08-31 14:20:23 | 50.95208 | 9.18857 | 65° | 111km/h | 12516m | -5.2m/s | -45.5°C | 0% | 0hPa | 4.5V | 00:00:00 | 00:00:00 | 00:00:00 | |
| DO3MHA-11 | 2026-08-31 14:20:23 | 50.95221 | 9.18897 | 66° | 91km/h | 12516m | -5.1m/s | 0°C | 0% | 0hPa | 4.5V | 00:00:00 | 00:00:00 | 00:00:00 | |
| DL3OBA | 2026-08-31 14:20:22 | 50.95198 | 9.18816 | 72° | 110km/h | 12521m | -5.2m/s | -45.4°C | 0% | 0hPa | 4.5V | 00:00:00 | 00:00:00 | 00:00:00 | |
| DD1CC2-15 | 2026-08-31 14:20:21 | 50.95198 | 9.18816 | 72° | 110km/h | 12521m | -5.2m/s | -38.6°C | 0% | 0hPa | 4.5V | 00:00:00 | 00:00:00 | 00:00:00 | |
| DK7TD | 2026-08-31 14:20:19 | 50.95184 | 9.18736 | 78° | 95km/h | 12532m | -5.5m/s | -45.5°C | 0% | 0hPa | 4.5V | 00:00:00 | 00:00:00 | 00:00:00 | |
| HSKMA3-T | 2026-08-31 14:20:19 | 50.95179 | 9.18701 | 78° | 86km/h | 12537m | -5.5m/s | -45.4°C | 0% | 0hPa | 4.5V | 00:00:00 | 00:00:00 | 00:00:00 | |
| DL1XH-15 | 2026-08-31 14:20:17 | 50.95123 | 9.18535 | 56° | 99km/h | 12575m | -5.8m/s | 0°C | 0% | 0hPa | 0V | 00:00:00 | 00:00:00 | 00:00:00 | |
| BIOWL1-15 | 2026-08-31 14:20:17 | 50.95169 | 9.18640 | 68° | 73km/h | 12549m | -5.3m/s | -45.5°C | 0% | 0hPa | 4.5V | 00:00:00 | 00:00:00 | 00:00:00 | |
| DB0UT-7 | 2026-08-31 14:20:15 | 50.95161 | 9.18614 | 61° | 89km/h | 12559m | -5.1m/s | 0°C | 0% | 0hPa | 4.5V | 00:00:00 | 00:00:00 | 00:00:00 | |
| AA1-15 | 2026-08-31 14:20:14 | 50.95150 | 9.18588 | 54° | 80km/h | 12559m | -5.2m/s | -45.6°C | 0% | 0hPa | 4.5V | 00:00:00 | 00:00:00 | 00:00:00 | |
| DO8TBO-1 | 2026-08-31 14:20:14 | 50.95150 | 9.18588 | 55° | 91km/h | 12564m | -5.3m/s | 0°C | 0% | 0hPa | 0V | 00:00:00 | 00:00:00 | 00:00:00 | |
| DO3MHA-11 | 2026-08-31 14:20:13 | 50.95137 | 9.18561 | 53° | 97km/h | 12570m | -5.6m/s | 0°C | 0% | 0hPa | 0V | 00:00:00 | 00:00:00 | 00:00:00 | |
| DM0DOS-11 | 2026-08-31 14:20:12 | 50.95082 | 9.18421 | 66° | 111km/h | 12593m | -5.3m/s | 0°C | 0% | 0hPa | 0V | 00:00:00 | 00:00:00 | 00:00:00 | |
| DO2JMG | 2026-08-31 14:20:12 | 50.95108 | 9.18498 | 57° | 106km/h | 12576m | -5.8m/s | -45.6°C | 0% | 0hPa | 4.5V | 00:00:00 | 00:00:00 | 00:00:00 | |
| DB0NH | 2026-08-31 14:20:11 | 50.95108 | 9.18497 | 57° | 93km/h | 12582m | -5.5m/s | 0°C | 0% | 0hPa | 0V | 00:00:00 | 00:00:00 | 00:00:00 | |
| DL1NUX | 2026-08-31 14:20:10 | 50.95053 | 9.18269 | 76° | 82km/h | 12614m | -5.5m/s | 0°C | 0% | 0hPa | 0V | 00:00:00 | 00:00:00 | 00:00:00 | |
| DO3DL | 2026-08-31 14:20:09 | 50.95082 | 9.18421 | 67° | 111km/h | 12587m | -5.4m/s | -45.6°C | 0% | 0hPa | 4.5V | 00:00:00 | 00:00:00 | 00:00:00 | |
| HSKMA3-T | 2026-08-31 14:20:08 | 50.95064 | 9.18340 | 75° | 100km/h | 12598m | -5.4m/s | -45.5°C | 0% | 0hPa | 4.5V | 00:00:00 | 00:00:00 | 00:00:00 | |
| BIOWL1-15 | 2026-08-31 14:20:08 | 50.95053 | 9.18269 | 76° | 82km/h | 12609m | -5.4m/s | -45.6°C | 0% | 0hPa | 4.5V | 00:00:00 | 00:00:00 | 00:00:00 | |
| THATR2-17 | 2026-08-31 14:20:07 | 50.95048 | 9.18239 | 71° | 73km/h | 12615m | 0m/s | 0°C | 0% | 0hPa | 0V | 00:00:00 | 00:00:00 | 00:00:00 | |
| DC6BW-12 | 2026-08-31 14:20:06 | 50.95058 | 9.18303 | 78° | 91km/h | 12603m | -5.4m/s | -45.6°C | 0% | 0hPa | 0V | 00:00:00 | 00:00:00 | 00:00:00 | |
| DD1CC8 | 2026-08-31 14:20:05 | 50.95048 | 9.18239 | 71° | 73km/h | 12615m | -5.5m/s | -45.6°C | -1.0% | -1.0hPa | 0V | 00:00:00 | 00:00:00 | 00:00:00 | |
| DM0DOS-11 | 2026-08-31 14:20:04 | 50.94994 | 9.18104 | 55° | 99km/h | 12647m | -5.2m/s | 0°C | 0% | 0hPa | 0V | 00:00:00 | 00:00:00 | 00:00:00 | |
| AA1-15 | 2026-08-31 14:20:04 | 50.95041 | 9.18212 | 65° | 71km/h | 12620m | -5.5m/s | -45.7°C | 0% | 0hPa | 4.5V | 00:00:00 | 00:00:00 | 00:00:00 | |
| DO3MHA-11 | 2026-08-31 14:20:03 | 50.95041 | 9.18212 | 65° | 93km/h | 12626m | -5.4m/s | 0°C | 0% | 0hPa | 4.5V | 00:00:00 | 00:00:00 | 00:00:00 | |
| DO2JMG | 2026-08-31 14:20:01 | 50.95021 | 9.18162 | 53° | 80km/h | 12631m | -5.4m/s | -45.7°C | 0% | 0hPa | 4.5V | 00:00:00 | 00:00:00 | 00:00:00 | |
| BIOWL7-15 | 2026-08-31 14:20:01 | 50.95008 | 9.18135 | 54° | 91km/h | 12637m | -5.4m/s | -45.7°C | 0% | 0hPa | 0V | 00:00:00 | 00:00:00 | 00:00:00 | |
| DL1XH-15 | 2026-08-31 14:19:57 | 50.94934 | 9.17851 | 73° | 73km/h | 12685m | -5.1m/s | 0°C | 0% | 0hPa | 0V | 00:00:00 | 00:00:00 | 00:00:00 | |
| HSKMA3-T | 2026-08-31 14:19:57 | 50.94957 | 9.17992 | 71° | 106km/h | 12658m | -5.2m/s | -45.6°C | 0% | 0hPa | 4.5V | 00:00:00 | 00:00:00 | 00:00:00 | |
| DO3DL | 2026-08-31 14:19:56 | 50.94957 | 9.17992 | 72° | 106km/h | 12658m | -5.2m/s | -45.6°C | 0% | 0hPa | 4.5V | 00:00:00 | 00:00:00 | 00:00:00 | |
| BIOWL1-15 | 2026-08-31 14:19:55 | 50.94944 | 9.17915 | 78° | 91km/h | 12669m | -5.5m/s | -45.6°C | 0% | 0hPa | 4.5V | 00:00:00 | 00:00:00 | 00:00:00 | |
| DO2KSM | 2026-08-31 14:19:54 | 50.94944 | 9.17915 | 79° | 91km/h | 12669m | -5.5m/s | -45.6°C | 0% | 0hPa | 4.5V | 00:00:00 | 00:00:00 | 00:00:00 | |
| AA1-15 | 2026-08-31 14:19:53 | 50.94934 | 9.17851 | 74° | 73km/h | 12680m | -5.3m/s | -45.6°C | 0% | 0hPa | 4.5V | 00:00:00 | 00:00:00 | 00:00:00 | |
| DO3MHA-11 | 2026-08-31 14:19:52 | 50.94934 | 9.17851 | 74° | 89km/h | 12685m | -5.1m/s | 0°C | 0% | 0hPa | 4.5V | 00:00:00 | 00:00:00 | 00:00:00 | |
| DM7RM-13 | 2026-08-31 14:19:51 | 50.94928 | 9.17824 | 67° | 69km/h | 12685m | -5.1m/s | -39.0°C | 0% | 0hPa | 4.5V | 00:00:00 | 00:00:00 | 00:00:00 | |
| DL1XH-west | 2026-08-31 14:19:50 | 50.94920 | 9.17800 | 58° | 69km/h | 12690m | -4.9m/s | -45.7°C | 0% | 0hPa | 4.5V | 00:00:00 | 00:00:00 | 00:00:00 | |
| DO3DL | 2026-08-31 14:19:50 | 50.94920 | 9.17800 | 59° | 69km/h | 12690m | -4.9m/s | -45.7°C | 0% | 0hPa | 0V | 00:00:00 | 00:00:00 | 00:00:00 | |
| DL1XH-15 | 2026-08-31 14:19:47 | 50.94823 | 9.17533 | 75° | 97km/h | 12738m | -5.5m/s | 0°C | 0% | 0hPa | 0V | 00:00:00 | 00:00:00 | 00:00:00 | |
| HSKMA3-T | 2026-08-31 14:19:47 | 50.94867 | 9.17690 | 56° | 104km/h | 12712m | -5.6m/s | -45.8°C | 0% | 0hPa | 4.5V | 00:00:00 | 00:00:00 | 00:00:00 | |
| BIOWL1-15 | 2026-08-31 14:19:47 | 50.94841 | 9.17615 | 66° | 108km/h | 12722m | -5.2m/s | -45.7°C | 0% | 0hPa | 4.5V | 00:00:00 | 00:00:00 | 00:00:00 | |
| DB0UT-7 | 2026-08-31 14:19:45 | 50.94853 | 9.17654 | 61° | 95km/h | 12723m | -5.2m/s | 0°C | 0% | 0hPa | 0V | 00:00:00 | 00:00:00 | 00:00:00 | |
| DM0DOS-11 | 2026-08-31 14:19:44 | 50.94805 | 9.17441 | 66° | 73km/h | 12754m | -5.1m/s | 0°C | 0% | 0hPa | 0V | 00:00:00 | 00:00:00 | 00:00:00 | |
| DO3DL | 2026-08-31 14:19:43 | 50.94831 | 9.17576 | 72° | 104km/h | 12728m | -5.2m/s | -45.6°C | 0% | 0hPa | 4.5V | 00:00:00 | 00:00:00 | 00:00:00 | |
| AA1-15 | 2026-08-31 14:19:42 | 50.94817 | 9.17501 | 76° | 88km/h | 12738m | -5.5m/s | -45.6°C | 0% | 0hPa | 4.5V | 00:00:00 | 00:00:00 | 00:00:00 | |
| DO3MHA-11 | 2026-08-31 14:19:42 | 50.94823 | 9.17533 | 76° | 89km/h | 12739m | -5.4m/s | 0°C | 0% | 0hPa | 0V | 00:00:00 | 00:00:00 | 00:00:00 | |
| DB0NH | 2026-08-31 14:19:41 | 50.94817 | 9.17501 | 76° | 91km/h | 12744m | -5.5m/s | 0°C | 0% | 0hPa | 0V | 00:00:00 | 00:00:00 | 00:00:00 | |
| DL1NUX | 2026-08-31 14:19:40 | 50.94756 | 9.17335 | 50° | 100km/h | 12775m | -5.7m/s | 0°C | 0% | 0hPa | 0V | 00:00:00 | 00:00:00 | 00:00:00 | |
| DL1XH-west | 2026-08-31 14:19:40 | 50.94805 | 9.17441 | 66° | 73km/h | 12749m | -5.4m/s | -45.6°C | 0% | 0hPa | 4.5V | 00:00:00 | 00:00:00 | 00:00:00 | |
| DF2AP-13 | 2026-08-31 14:19:38 | 50.94796 | 9.17417 | 52° | 93km/h | 12760m | -5.1m/s | 0°C | 0% | 0hPa | 4.5V | 00:00:00 | 00:00:00 | 00:00:00 | |
| DO3DL | 2026-08-31 14:19:37 | 50.94785 | 9.17390 | 53° | 80km/h | 12760m | -5.2m/s | -45.8°C | 0% | 0hPa | 4.5V | 00:00:00 | 00:00:00 | 00:00:00 | |
| HSKMA3-T | 2026-08-31 14:19:36 | 50.94756 | 9.17335 | 50° | 100km/h | 12770m | -5.4m/s | -45.9°C | 0% | 0hPa | 4.5V | 00:00:00 | 00:00:00 | 00:00:00 | |
| BIOWL1-15 | 2026-08-31 14:19:34 | 50.94739 | 9.17302 | 53° | 108km/h | 12775m | -5.7m/s | -45.8°C | 0% | 0hPa | 4.5V | 00:00:00 | 00:00:00 | 00:00:00 | |
| DK7TD | 2026-08-31 14:19:34 | 50.94724 | 9.17266 | 58° | 113km/h | 12781m | -5.6m/s | -45.8°C | 0% | 0hPa | 4.5V | 00:00:00 | 00:00:00 | 00:00:00 | |
| DM0DOS-11 | 2026-08-31 14:19:32 | 50.94681 | 9.17106 | 72° | 91km/h | 12807m | -5m/s | 0°C | 0% | 0hPa | 0V | 00:00:00 | 00:00:00 | 00:00:00 | |
| DO3MHA-11 | 2026-08-31 14:19:32 | 50.94709 | 9.17226 | 63° | 89km/h | 12792m | -5.1m/s | 0°C | 0% | 0hPa | 4.5V | 00:00:00 | 00:00:00 | 00:00:00 | |
| AA1-15 | 2026-08-31 14:19:31 | 50.94697 | 9.17186 | 68° | 110km/h | 12792m | -5.2m/s | -45.8°C | 0% | 0hPa | 4.5V | 00:00:00 | 00:00:00 | 00:00:00 | |
| DO3DL | 2026-08-31 14:19:31 | 50.94697 | 9.17186 | 68° | 110km/h | 12792m | -5.2m/s | -45.8°C | 0% | 0hPa | 4.5V | 00:00:00 | 00:00:00 | 00:00:00 | |
| DM7RM-13 | 2026-08-31 14:19:30 | 50.94688 | 9.17147 | 73° | 100km/h | 12797m | -4.8m/s | -39.0°C | 0% | 0hPa | 4.5V | 00:00:00 | 00:00:00 | 00:00:00 | |
| DL1XH-west | 2026-08-31 14:19:29 | 50.94674 | 9.17077 | 72° | 80km/h | 12807m | -5m/s | -45.8°C | 0% | 0hPa | 4.5V | 00:00:00 | 00:00:00 | 00:00:00 | |
| DL1NUX | 2026-08-31 14:19:28 | 50.94650 | 9.17000 | 48° | 73km/h | 12828m | -5.3m/s | 0°C | 0% | 0hPa | 0V | 00:00:00 | 00:00:00 | 00:00:00 | |
| DD1CC2-15 | 2026-08-31 14:19:26 | 50.94660 | 9.17022 | 61° | 71km/h | 12817m | -5.4m/s | -39.1°C | 0% | 0hPa | 4.5V | 00:00:00 | 00:00:00 | 00:00:00 | |
| DO2JMG | 2026-08-31 14:19:25 | 50.94650 | 9.16998 | 53° | 73km/h | 12823m | -5.5m/s | -45.9°C | 0% | 0hPa | 4.5V | 00:00:00 | 00:00:00 | 00:00:00 | |
| HSKMA3-T | 2026-08-31 14:19:25 | 50.94637 | 9.16975 | 48° | 82km/h | 12828m | -5.3m/s | -45.9°C | 0% | 0hPa | 4.5V | 00:00:00 | 00:00:00 | 00:00:00 | |
| DK7TD | 2026-08-31 14:19:23 | 50.94622 | 9.16949 | 47° | 93km/h | 12834m | -5.2m/s | -45.9°C | 0% | 0hPa | 4.5V | 00:00:00 | 00:00:00 | 00:00:00 | |
| DO3MHA-11 | 2026-08-31 14:19:22 | 50.94606 | 9.16919 | 50° | 93km/h | 12844m | -5.0m/s | 0°C | 0% | 0hPa | 4.5V | 00:00:00 | 00:00:00 | 00:00:00 | |
| AA1-15 | 2026-08-31 14:19:21 | 50.94574 | 9.16849 | 59° | 113km/h | 12849m | -5.1m/s | -45.7°C | 0% | 0hPa | 4.5V | 00:00:00 | 00:00:00 | 00:00:00 | |
| DL1NUX | 2026-08-31 14:19:20 | 50.94529 | 9.16668 | 70° | 75km/h | 12880m | -5m/s | 0°C | 0% | 0hPa | 0V | 00:00:00 | 00:00:00 | 00:00:00 | |
| DJTTGO | 2026-08-31 14:19:20 | 50.94560 | 9.16810 | 65° | 111km/h | 12854m | -5.2m/s | -45.7°C | 0% | 0hPa | 4.5V | 00:00:00 | 00:00:00 | 00:00:00 | |
| DL3OBA | 2026-08-31 14:19:19 | 50.94560 | 9.16810 | 65° | 111km/h | 12854m | -5.2m/s | -45.7°C | 0% | 0hPa | 4.5V | 00:00:00 | 00:00:00 | 00:00:00 | |
| DL1XH-west | 2026-08-31 14:19:18 | 50.94550 | 9.16770 | 69° | 104km/h | 12859m | -5.1m/s | -45.7°C | 0% | 0hPa | 4.5V | 00:00:00 | 00:00:00 | 00:00:00 | |
| DO3DL | 2026-08-31 14:19:17 | 50.94542 | 9.16732 | 73° | 95km/h | 12865m | -5.1m/s | -45.8°C | 0% | 0hPa | 4.5V | 00:00:00 | 00:00:00 | 00:00:00 | |
| DB0UT-7 | 2026-08-31 14:19:15 | 50.94528 | 9.16668 | 71° | 88km/h | 12880m | -4.9m/s | 0°C | 0% | 0hPa | 4.5V | 00:00:00 | 00:00:00 | 00:00:00 | |
| HSKMA3-T | 2026-08-31 14:19:14 | 50.94512 | 9.16616 | 55° | 73km/h | 12885m | -5.1m/s | -45.8°C | 0% | 0hPa | 4.5V | 00:00:00 | 00:00:00 | 00:00:00 | |
| DO2KSM | 2026-08-31 14:19:13 | 50.94512 | 9.16616 | 56° | 73km/h | 12885m | -5.1m/s | -45.8°C | 0% | 0hPa | 0V | 00:00:00 | 00:00:00 | 00:00:00 | |
| DO3MHA-11 | 2026-08-31 14:19:12 | 50.94500 | 9.16595 | 50° | 97km/h | 12895m | -5.0m/s | 0°C | 0% | 0hPa | 0V | 00:00:00 | 00:00:00 | 00:00:00 | |
| DO2JMG | 2026-08-31 14:19:12 | 50.94486 | 9.16565 | 50° | 91km/h | 12895m | -5m/s | -45.9°C | 0% | 0hPa | 4.5V | 00:00:00 | 00:00:00 | 00:00:00 | |
| DM0DOS-11 | 2026-08-31 14:19:11 | 50.94455 | 9.16500 | 57° | 108km/h | 12910m | -5m/s | 0°C | 0% | 0hPa | 0V | 00:00:00 | 00:00:00 | 00:00:00 | |
| DB0NH | 2026-08-31 14:19:11 | 50.94486 | 9.16565 | 50° | 93km/h | 12900m | -4.8m/s | 0°C | 0% | 0hPa | 4.5V | 00:00:00 | 00:00:00 | 00:00:00 | |
| AA1-15 | 2026-08-31 14:19:10 | 50.94455 | 9.16500 | 57° | 108km/h | 12905m | -4.9m/s | -45.9°C | 0% | 0hPa | 4.5V | 00:00:00 | 00:00:00 | 00:00:00 | |
| DM7RM-13 | 2026-08-31 14:19:09 | 50.94455 | 9.16500 | 58° | 108km/h | 12906m | -4.9m/s | -39.2°C | 0% | 0hPa | 4.5V | 00:00:00 | 00:00:00 | 00:00:00 | |
| DF2AP-13 | 2026-08-31 14:19:08 | 50.94441 | 9.16459 | 73° | 88km/h | 12926m | -5.2m/s | 0°C | 0% | 0hPa | 4.5V | 00:00:00 | 00:00:00 | 00:00:00 | |
| DL1XH-west | 2026-08-31 14:19:07 | 50.94430 | 9.16422 | 68° | 110km/h | 12916m | -5.2m/s | -45.9°C | 0% | 0hPa | 4.5V | 00:00:00 | 00:00:00 | 00:00:00 | |
| NBG1-10 | 2026-08-31 14:19:07 | 50.94430 | 9.16422 | 68° | 89km/h | 12921m | -5.3m/s | 0°C | 0% | 0hPa | 0V | 00:00:00 | 00:00:00 | 00:00:00 | |
| DL1NUX | 2026-08-31 14:19:06 | 50.94414 | 9.16344 | 75° | 95km/h | 12931m | -5m/s | 0°C | 0% | 0hPa | 0V | 00:00:00 | 00:00:00 | 00:00:00 | |
| DC6BW-12 | 2026-08-31 14:19:04 | 50.94408 | 9.16308 | 77° | 86km/h | 12931m | -5.0m/s | -46.0°C | 0% | 0hPa | 4.5V | 00:00:00 | 00:00:00 | 00:00:00 | |
| HSKMA3-T | 2026-08-31 14:19:03 | 50.94403 | 9.16277 | 73° | 75km/h | 12936m | -4.8m/s | -46°C | 0% | 0hPa | 4.5V | 00:00:00 | 00:00:00 | 00:00:00 | |
| DO3MHA-11 | 2026-08-31 14:19:02 | 50.94396 | 9.16250 | 66° | 91km/h | 12946m | -4.9m/s | 0°C | 0% | 0hPa | 4.5V | 00:00:00 | 00:00:00 | 00:00:00 | |
| BIOWL1-15 | 2026-08-31 14:19:01 | 50.94377 | 9.16201 | 52° | 78km/h | 12951m | -5.2m/s | -46.1°C | 0% | 0hPa | 4.5V | 00:00:00 | 00:00:00 | 00:00:00 | |
| AA1-15 | 2026-08-31 14:18:59 | 50.94349 | 9.16146 | 53° | 97km/h | 12962m | -5.3m/s | -46.1°C | 0% | 0hPa | 4.5V | 00:00:00 | 00:00:00 | 00:00:00 | |
| DD1CC2-15 | 2026-08-31 14:18:58 | 50.94349 | 9.16146 | 54° | 97km/h | 12962m | -5.3m/s | -39.4°C | 0% | 0hPa | 0V | 00:00:00 | 00:00:00 | 00:00:00 | |
| DL1XH-15 | 2026-08-31 14:18:57 | 50.94290 | 9.15926 | 77° | 82km/h | 12997m | -5.3m/s | 0°C | 0% | 0hPa | 0V | 00:00:00 | 00:00:00 | 00:00:00 | |
| DL1NUX | 2026-08-31 14:18:56 | 50.94310 | 9.16012 | 77° | 106km/h | 13002m | -5.2m/s | 0°C | 0% | 0hPa | 0V | 00:00:00 | 00:00:00 | 00:00:00 | |
| DK7TD | 2026-08-31 14:18:55 | 50.94301 | 9.15998 | 73° | 100km/h | 12981m | -4.6m/s | -46.1°C | 0% | 0hPa | 4.5V | 00:00:00 | 00:00:00 | 00:00:00 | |
| DF8AY | 2026-08-31 14:18:53 | 50.94290 | 9.15926 | 78° | 82km/h | 12991m | -5.1m/s | -46.1°C | 0% | 0hPa | 4.5V | 00:00:00 | 00:00:00 | 00:00:00 | |
| DO3MHA-11 | 2026-08-31 14:18:52 | 50.94290 | 9.15926 | 78° | 88km/h | 12997m | -5.2m/s | 0°C | 0% | 0hPa | 4.5V | 00:00:00 | 00:00:00 | 00:00:00 | |
| DO3DL | 2026-08-31 14:18:51 | 50.94286 | 9.15896 | 76° | 73km/h | 12997m | -5.3m/s | -46.1°C | 0% | 0hPa | 4.5V | 00:00:00 | 00:00:00 | 00:00:00 | |
| DO2JMG | 2026-08-31 14:18:50 | 50.94280 | 9.15870 | 68° | 68km/h | 13002m | -5.2m/s | -46.1°C | 0% | 0hPa | 4.5V | 00:00:00 | 00:00:00 | 00:00:00 | |
| DL1NUX | 2026-08-31 14:18:50 | 50.94221 | 9.15733 | 58° | 104km/h | 13032m | -5m/s | 0°C | 0% | 0hPa | 0V | 00:00:00 | 00:00:00 | 00:00:00 | |
| AA1-15 | 2026-08-31 14:18:48 | 50.94262 | 9.15821 | 53° | 77km/h | 13012m | -4.9m/s | -46.2°C | 0% | 0hPa | 4.5V | 00:00:00 | 00:00:00 | 00:00:00 | |
| DJTTGO | 2026-08-31 14:18:48 | 50.94249 | 9.15795 | 53° | 86km/h | 13017m | -4.8m/s | -46.2°C | 0% | 0hPa | 0V | 00:00:00 | 00:00:00 | 00:00:00 | |
| DL1XH-15 | 2026-08-31 14:18:47 | 50.94191 | 9.15614 | 79° | 102km/h | 13047m | -5.3m/s | 0°C | 0% | 0hPa | 0V | 00:00:00 | 00:00:00 | 00:00:00 | |
| DL1XH-west | 2026-08-31 14:18:46 | 50.94221 | 9.15733 | 59° | 104km/h | 13027m | -5m/s | -46.2°C | 0% | 0hPa | 4.5V | 00:00:00 | 00:00:00 | 00:00:00 | |
| SO1NDE-10 | 2026-08-31 14:18:45 | 50.94221 | 9.15733 | 59° | 91km/h | 13033m | -5.0m/s | 0°C | 0% | 0hPa | 4.5V | 00:00:00 | 00:00:00 | 00:00:00 | |
| DO8TBO-1 | 2026-08-31 14:18:44 | 50.94190 | 9.15614 | 80° | 89km/h | 13048m | -5.2m/s | 0°C | 0% | 0hPa | 4.5V | 00:00:00 | 00:00:00 | 00:00:00 | |
| DF8AY | 2026-08-31 14:18:42 | 50.94185 | 9.15579 | 79° | 95km/h | 13048m | -5.3m/s | -46.2°C | 0% | 0hPa | 4.5V | 00:00:00 | 00:00:00 | 00:00:00 | |
| DO3MHA-11 | 2026-08-31 14:18:42 | 50.94190 | 9.15614 | 80° | 84km/h | 13048m | -5.2m/s | 0°C | 0% | 0hPa | 0V | 00:00:00 | 00:00:00 | 00:00:00 | |
| DM0DOS-11 | 2026-08-31 14:18:41 | 50.94178 | 9.15512 | 78° | 75km/h | 13063m | -5.2m/s | 0°C | 0% | 0hPa | 0V | 00:00:00 | 00:00:00 | 00:00:00 | |
| DB0NH | 2026-08-31 14:18:41 | 50.94185 | 9.15579 | 80° | 86km/h | 13053m | -5.1m/s | 0°C | 0% | 0hPa | 4.5V | 00:00:00 | 00:00:00 | 00:00:00 | |
| DO2JMG | 2026-08-31 14:18:39 | 50.94177 | 9.15512 | 79° | 75km/h | 13058m | -5.3m/s | -46.2°C | 0% | 0hPa | 4.5V | 00:00:00 | 00:00:00 | 00:00:00 | |
| DL1CLM-18 | 2026-08-31 14:18:39 | 50.94177 | 9.15512 | 80° | 75km/h | 13058m | -5.3m/s | -46.2°C | 0% | 0hPa | 4.5V | 00:00:00 | 00:00:00 | 00:00:00 | |
| AA1-15 | 2026-08-31 14:18:38 | 50.94173 | 9.15485 | 72° | 68km/h | 13063m | -5.2m/s | -46.2°C | 0% | 0hPa | 4.5V | 00:00:00 | 00:00:00 | 00:00:00 | |
| DL3OBA | 2026-08-31 14:18:38 | 50.94173 | 9.15485 | 73° | 68km/h | 13063m | -5.2m/s | -46.2°C | 0% | 0hPa | 0V | 00:00:00 | 00:00:00 | 00:00:00 | |
| DL1XH-15 | 2026-08-31 14:18:37 | 50.94107 | 9.15312 | 63° | 108km/h | 13099m | -5m/s | 0°C | 0% | 0hPa | 0V | 00:00:00 | 00:00:00 | 00:00:00 | |
| DF2AP-13 | 2026-08-31 14:18:37 | 50.94167 | 9.15460 | 64° | 84km/h | 13073m | -5.0m/s | 0°C | 0% | 0hPa | 0V | 00:00:00 | 00:00:00 | 00:00:00 | |
| DL1NUX | 2026-08-31 14:18:36 | 50.94146 | 9.15410 | 53° | 84km/h | 13084m | -5.2m/s | 0°C | 0% | 0hPa | 0V | 00:00:00 | 00:00:00 | 00:00:00 | |
| DL1XH-west | 2026-08-31 14:18:35 | 50.94146 | 9.15410 | 54° | 84km/h | 13078m | -5.1m/s | -46.3°C | 0% | 0hPa | 4.5V | 00:00:00 | 00:00:00 | 00:00:00 | |
| NBG1-10 | 2026-08-31 14:18:34 | 50.94133 | 9.15382 | 56° | 89km/h | 13089m | -5.2m/s | 0°C | 0% | 0hPa | 4.5V | 00:00:00 | 00:00:00 | 00:00:00 | |
| DO3MHA-11 | 2026-08-31 14:18:32 | 50.94107 | 9.15312 | 64° | 88km/h | 13100m | -5.0m/s | 0°C | 0% | 0hPa | 4.5V | 00:00:00 | 00:00:00 | 00:00:00 | |
| DF8AY | 2026-08-31 14:18:31 | 50.94088 | 9.15232 | 75° | 104km/h | 13105m | -4.9m/s | -46.2°C | 0% | 0hPa | 4.5V | 00:00:00 | 00:00:00 | 00:00:00 | |
| BIOWL1-15 | 2026-08-31 14:18:28 | 50.94078 | 9.15157 | 81° | 86km/h | 13115m | -4.8m/s | -46.3°C | 0% | 0hPa | 4.5V | 00:00:00 | 00:00:00 | 00:00:00 | |
| DL1XH-15 | 2026-08-31 14:18:27 | 50.94032 | 9.14990 | 56° | 95km/h | 13150m | -5.2m/s | 0°C | 0% | 0hPa | 0V | 00:00:00 | 00:00:00 | 00:00:00 | |
| DL1NUX | 2026-08-31 14:18:26 | 50.94065 | 9.15072 | 57° | 69km/h | 13134m | -4.8m/s | 0°C | 0% | 0hPa | 0V | 00:00:00 | 00:00:00 | 00:00:00 | |
| AM1SDL-15 | 2026-08-31 14:18:26 | 50.94071 | 9.15096 | 74° | 82km/h | 13130m | -4.9m/s | 0°C | 0% | 0hPa | 4.5V | 00:00:00 | 00:00:00 | 00:00:00 | |
| DL1XH-west | 2026-08-31 14:18:25 | 50.94056 | 9.15046 | 58° | 75km/h | 13134m | -4.8m/s | -46.5°C | 0% | 0hPa | 4.5V | 00:00:00 | 00:00:00 | 00:00:00 | |
| TFSTFS | 2026-08-31 14:18:24 | 50.94044 | 9.15019 | 56° | 84km/h | 13140m | -5.0m/s | -46.6°C | 0% | 0hPa | 4.5V | 00:00:00 | 00:00:00 | 00:00:00 | |
| DC6BW-12 | 2026-08-31 14:18:23 | 50.94044 | 9.15019 | 56° | 84km/h | 13140m | -5.0m/s | -46.6°C | 0% | 0hPa | 4.5V | 00:00:00 | 00:00:00 | 00:00:00 | |
| DO3MHA-11 | 2026-08-31 14:18:22 | 50.94032 | 9.14990 | 57° | 91km/h | 13150m | -5.1m/s | 0°C | 0% | 0hPa | 4.5V | 00:00:00 | 00:00:00 | 00:00:00 | |
| DK7TD | 2026-08-31 14:18:21 | 50.94006 | 9.14919 | 65° | 108km/h | 13155m | -5.3m/s | -46.6°C | 0% | 0hPa | 4.5V | 00:00:00 | 00:00:00 | 00:00:00 | |
| DL1NUX | 2026-08-31 14:18:20 | 50.93978 | 9.14729 | 84° | 78km/h | 13186m | -5.2m/s | 0°C | 0% | 0hPa | 0V | 00:00:00 | 00:00:00 | 00:00:00 | |
| DF8AY | 2026-08-31 14:18:20 | 50.93996 | 9.14879 | 71° | 108km/h | 13160m | -5.1m/s | -46.6°C | 0% | 0hPa | 4.5V | 00:00:00 | 00:00:00 | 00:00:00 | |
| DM7RM-13 | 2026-08-31 14:18:19 | 50.93996 | 9.14879 | 72° | 108km/h | 13160m | -5.1m/s | -40.0°C | 0% | 0hPa | 4.5V | 00:00:00 | 00:00:00 | 00:00:00 | |
| DO2JMG | 2026-08-31 14:18:18 | 50.93983 | 9.14799 | 81° | 97km/h | 13170m | -4.9m/s | -46.7°C | 0% | 0hPa | 4.5V | 00:00:00 | 00:00:00 | 00:00:00 | |
| DL3OBA | 2026-08-31 14:18:17 | 50.93983 | 9.14799 | 82° | 97km/h | 13170m | -4.9m/s | -46.7°C | 0% | 0hPa | 4.5V | 00:00:00 | 00:00:00 | 00:00:00 | |
| AA1-15 | 2026-08-31 14:18:16 | 50.93978 | 9.14729 | 84° | 78km/h | 13180m | -5.2m/s | -46.8°C | 0% | 0hPa | 4.5V | 00:00:00 | 00:00:00 | 00:00:00 | |
| DB0UT-7 | 2026-08-31 14:18:15 | 50.93978 | 9.14729 | 85° | 82km/h | 13186m | -5.2m/s | 0°C | 0% | 0hPa | 4.5V | 00:00:00 | 00:00:00 | 00:00:00 | |
| DL1XH-west | 2026-08-31 14:18:14 | 50.93972 | 9.14673 | 74° | 66km/h | 13191m | -5.4m/s | -46.8°C | 0% | 0hPa | 4.5V | 00:00:00 | 00:00:00 | 00:00:00 | |
| DO3MHA-11 | 2026-08-31 14:18:12 | 50.93966 | 9.14651 | 60° | 91km/h | 13202m | -4.9m/s | 0°C | 0% | 0hPa | 4.5V | 00:00:00 | 00:00:00 | 00:00:00 | |
| DM0DOS-11 | 2026-08-31 14:18:11 | 50.93935 | 9.14565 | 59° | 95km/h | 13217m | -5m/s | 0°C | 0% | 0hPa | 0V | 00:00:00 | 00:00:00 | 00:00:00 | |
| DF8AY | 2026-08-31 14:18:11 | 50.93936 | 9.14565 | 60° | 95km/h | 13212m | -4.8m/s | -46.9°C | 0% | 0hPa | 4.5V | 00:00:00 | 00:00:00 | 00:00:00 | |
| DB0NH | 2026-08-31 14:18:11 | 50.93958 | 9.14623 | 60° | 86km/h | 13207m | -4.7m/s | 0°C | 0% | 0hPa | 4.5V | 00:00:00 | 00:00:00 | 00:00:00 | |
| BIOWL1-15 | 2026-08-31 14:18:08 | 50.93913 | 9.14492 | 69° | 108km/h | 13222m | -5.2m/s | -46.8°C | 0% | 0hPa | 4.5V | 00:00:00 | 00:00:00 | 00:00:00 | |
| DL1XH-15 | 2026-08-31 14:18:07 | 50.93891 | 9.14308 | 82° | 71km/h | 13252m | -4.8m/s | 0°C | 0% | 0hPa | 0V | 00:00:00 | 00:00:00 | 00:00:00 | |
| DL1NUX | 2026-08-31 14:18:06 | 50.93899 | 9.14407 | 83° | 100km/h | 13237m | -4.8m/s | 0°C | 0% | 0hPa | 0V | 00:00:00 | 00:00:00 | 00:00:00 | |
| AA1-15 | 2026-08-31 14:18:05 | 50.93895 | 9.14373 | 83° | 93km/h | 13237m | -4.8m/s | -46.9°C | 0% | 0hPa | 4.5V | 00:00:00 | 00:00:00 | 00:00:00 | |
| EDDB2-12 | 2026-08-31 14:18:05 | 50.93895 | 9.14373 | 83° | 91km/h | 13237m | -4.8m/s | -47.3°C | -1.0% | -1.0hPa | 0V | 00:00:00 | 00:00:00 | 00:00:00 | |
| DM0DOS-11 | 2026-08-31 14:18:04 | 50.93874 | 9.14237 | 55° | 68km/h | 13267m | -5.2m/s | 0°C | 0% | 0hPa | 0V | 00:00:00 | 00:00:00 | 00:00:00 | |
| DL1XH-west | 2026-08-31 14:18:03 | 50.93891 | 9.14308 | 82° | 71km/h | 13247m | -4.8m/s | -47°C | 0% | 0hPa | 4.5V | 00:00:00 | 00:00:00 | 00:00:00 | |
| DO3MHA-11 | 2026-08-31 14:18:02 | 50.93890 | 9.14308 | 83° | 82km/h | 13252m | -4.8m/s | 0°C | 0% | 0hPa | 4.5V | 00:00:00 | 00:00:00 | 00:00:00 | |
| NBG1-10 | 2026-08-31 14:18:01 | 50.93887 | 9.14280 | 67° | 84km/h | 13257m | -5.0m/s | 0°C | 0% | 0hPa | 4.5V | 00:00:00 | 00:00:00 | 00:00:00 | |
| DO3DL | 2026-08-31 14:18:00 | 50.93882 | 9.14257 | 67° | 64km/h | 13257m | -5.0m/s | -47.1°C | 0% | 0hPa | 4.5V | 00:00:00 | 00:00:00 | 00:00:00 | |
| BIOWL1-15 | 2026-08-31 14:17:59 | 50.93853 | 9.14182 | 56° | 88km/h | 13272m | -5m/s | -47.2°C | 0% | 0hPa | 4.5V | 00:00:00 | 00:00:00 | 00:00:00 | |
| DF8AY | 2026-08-31 14:17:59 | 50.93864 | 9.14210 | 56° | 78km/h | 13267m | -5.2m/s | -47.2°C | 0% | 0hPa | 4.5V | 00:00:00 | 00:00:00 | 00:00:00 | |
| DM7RM-13 | 2026-08-31 14:17:59 | 50.93864 | 9.14210 | 57° | 78km/h | 13267m | -5.2m/s | -40.5°C | 0% | 0hPa | 0V | 00:00:00 | 00:00:00 | 00:00:00 | |
| DL1XH-15 | 2026-08-31 14:17:57 | 50.93809 | 9.14004 | 81° | 89km/h | 13301m | -4.8m/s | 0°C | 0% | 0hPa | 0V | 00:00:00 | 00:00:00 | 00:00:00 | |
| DO2JMG | 2026-08-31 14:17:56 | 50.93841 | 9.14151 | 60° | 97km/h | 13277m | -5m/s | -47.2°C | 0% | 0hPa | 4.5V | 00:00:00 | 00:00:00 | 00:00:00 | |
| AA1-15 | 2026-08-31 14:17:54 | 50.93820 | 9.14078 | 72° | 100km/h | 13287m | -4.7m/s | -47.1°C | 0% | 0hPa | 4.5V | 00:00:00 | 00:00:00 | 00:00:00 | |
| DM0DOS-11 | 2026-08-31 14:17:54 | 50.93801 | 9.13915 | 74° | 62km/h | 13316m | -4.8m/s | 0°C | 0% | 0hPa | 0V | 00:00:00 | 00:00:00 | 00:00:00 | |
| DL1XH-west | 2026-08-31 14:17:53 | 50.93809 | 9.14004 | 82° | 89km/h | 13297m | -4.7m/s | -47.2°C | 0% | 0hPa | 4.5V | 00:00:00 | 00:00:00 | 00:00:00 | |
| DO3MHA-11 | 2026-08-31 14:17:52 | 50.93809 | 9.14004 | 82° | 78km/h | 13302m | -4.7m/s | 0°C | 0% | 0hPa | 0V | 00:00:00 | 00:00:00 | 00:00:00 | |
| DD1CC2-15 | 2026-08-31 14:17:51 | 50.93806 | 9.13970 | 85° | 78km/h | 13302m | -4.8m/s | -40.6°C | 0% | 0hPa | 0V | 00:00:00 | 00:00:00 | 00:00:00 | |
| AM1SDL-15 | 2026-08-31 14:17:50 | 50.93804 | 9.13941 | 82° | 84km/h | 13306m | -4.7m/s | 0°C | 0% | 0hPa | 0V | 00:00:00 | 00:00:00 | 00:00:00 | |
| DL1NUX | 2026-08-31 14:17:49 | 50.93765 | 9.13820 | 55° | 88km/h | 13336m | -5m/s | 0°C | 0% | 0hPa | 0V | 00:00:00 | 00:00:00 | 00:00:00 | |
| DF8AY | 2026-08-31 14:17:48 | 50.93787 | 9.13870 | 57° | 68km/h | 13321m | -4.7m/s | -47.4°C | 0% | 0hPa | 4.5V | 00:00:00 | 00:00:00 | 00:00:00 | |
| DO3DL | 2026-08-31 14:17:47 | 50.93787 | 9.13870 | 58° | 68km/h | 13321m | -4.7m/s | -47.4°C | 0% | 0hPa | 4.5V | 00:00:00 | 00:00:00 | 00:00:00 | |
| DO2JMG | 2026-08-31 14:17:45 | 50.93765 | 9.13820 | 55° | 88km/h | 13331m | -4.8m/s | -47.5°C | 0% | 0hPa | 4.5V | 00:00:00 | 00:00:00 | 00:00:00 | |
| DB0UT-7 | 2026-08-31 14:17:45 | 50.93765 | 9.13820 | 56° | 86km/h | 13336m | -4.9m/s | 0°C | 0% | 0hPa | 0V | 00:00:00 | 00:00:00 | 00:00:00 | |
| DM0DOS-11 | 2026-08-31 14:17:44 | 50.93713 | 9.13604 | 82° | 84km/h | 13365m | -4.7m/s | 0°C | 0% | 0hPa | 0V | 00:00:00 | 00:00:00 | 00:00:00 | |
| AA1-15 | 2026-08-31 14:17:44 | 50.93741 | 9.13754 | 64° | 102km/h | 13341m | -5m/s | -47.5°C | 0% | 0hPa | 4.5V | 00:00:00 | 00:00:00 | 00:00:00 | |
| DL1CLM-18 | 2026-08-31 14:17:43 | 50.93740 | 9.13754 | 65° | 102km/h | 13341m | -5.1m/s | -47.5°C | 0% | 0hPa | 4.5V | 00:00:00 | 00:00:00 | 00:00:00 | |
| DO3MHA-11 | 2026-08-31 14:17:42 | 50.93730 | 9.13715 | 76° | 82km/h | 13351m | -4.7m/s | 0°C | 0% | 0hPa | 4.5V | 00:00:00 | 00:00:00 | 00:00:00 | |
| DL1XH-west | 2026-08-31 14:17:41 | 50.93722 | 9.13678 | 75° | 100km/h | 13351m | -4.8m/s | -47.4°C | 0% | 0hPa | 4.5V | 00:00:00 | 00:00:00 | 00:00:00 | |
| DO3DL | 2026-08-31 14:17:41 | 50.93717 | 9.13640 | 81° | 93km/h | 13356m | -4.9m/s | -47.4°C | 0% | 0hPa | 0V | 00:00:00 | 00:00:00 | 00:00:00 | |
| DB0NH | 2026-08-31 14:17:40 | 50.93717 | 9.13640 | 80° | 80km/h | 13361m | -4.7m/s | 0°C | 0% | 0hPa | 0V | 00:00:00 | 00:00:00 | 00:00:00 | |
| DM7RM-13 | 2026-08-31 14:17:38 | 50.93711 | 9.13573 | 82° | 73km/h | 13366m | -4.7m/s | -40.8°C | 0% | 0hPa | 0V | 00:00:00 | 00:00:00 | 00:00:00 | |
| DL1XH-15 | 2026-08-31 14:17:37 | 50.93657 | 9.13420 | 56° | 95km/h | 13400m | -5m/s | 0°C | 0% | 0hPa | 0V | 00:00:00 | 00:00:00 | 00:00:00 | |
| DF8AY | 2026-08-31 14:17:37 | 50.93702 | 9.13522 | 65° | 64km/h | 13375m | -4.6m/s | -47.5°C | 0% | 0hPa | 4.5V | 00:00:00 | 00:00:00 | 00:00:00 | |
| DF2AP-13 | 2026-08-31 14:17:36 | 50.93701 | 9.13522 | 66° | 82km/h | 13380m | -4.6m/s | 0°C | 0% | 0hPa | 4.5V | 00:00:00 | 00:00:00 | 00:00:00 | |
| DO2JMG | 2026-08-31 14:17:35 | 50.93683 | 9.13476 | 53° | 77km/h | 13385m | -4.7m/s | -47.5°C | 0% | 0hPa | 4.5V | 00:00:00 | 00:00:00 | 00:00:00 | |
| DO3DL | 2026-08-31 14:17:34 | 50.93683 | 9.13476 | 54° | 77km/h | 13385m | -4.7m/s | -47.5°C | 0% | 0hPa | 4.5V | 00:00:00 | 00:00:00 | 00:00:00 | |
| AA1-15 | 2026-08-31 14:17:33 | 50.93657 | 9.13420 | 56° | 95km/h | 13394m | -5m/s | -47.6°C | 0% | 0hPa | 4.5V | 00:00:00 | 00:00:00 | 00:00:00 | |
| DO3MHA-11 | 2026-08-31 14:17:32 | 50.93657 | 9.13420 | 57° | 82km/h | 13400m | -5.0m/s | 0°C | 0% | 0hPa | 4.5V | 00:00:00 | 00:00:00 | 00:00:00 | |
| DD1CC2-15 | 2026-08-31 14:17:31 | 50.93644 | 9.13386 | 62° | 100km/h | 13400m | -5.1m/s | -40.9°C | 0% | 0hPa | 4.5V | 00:00:00 | 00:00:00 | 00:00:00 | |
| DL1XH-west | 2026-08-31 14:17:30 | 50.93633 | 9.13350 | 67° | 102km/h | 13405m | -4.9m/s | -47.5°C | 0% | 0hPa | 4.5V | 00:00:00 | 00:00:00 | 00:00:00 | |
| DF8AY | 2026-08-31 14:17:28 | 50.93612 | 9.13212 | 82° | 71km/h | 13424m | -5m/s | -47.5°C | 0% | 0hPa | 4.5V | 00:00:00 | 00:00:00 | 00:00:00 | |
| NBG1-10 | 2026-08-31 14:17:28 | 50.93619 | 9.13275 | 79° | 80km/h | 13419m | -4.7m/s | 0°C | 0% | 0hPa | 0V | 00:00:00 | 00:00:00 | 00:00:00 | |
| DL1XH-15 | 2026-08-31 14:17:27 | 50.93589 | 9.13123 | 53° | 69km/h | 13450m | -4.7m/s | 0°C | 0% | 0hPa | 0V | 00:00:00 | 00:00:00 | 00:00:00 | |
| BIOWL1-15 | 2026-08-31 14:17:24 | 50.93605 | 9.13162 | 69° | 58km/h | 13434m | -5.2m/s | -47.6°C | 0% | 0hPa | 4.5V | 00:00:00 | 00:00:00 | 00:00:00 | |
| DM0DOS-11 | 2026-08-31 14:17:24 | 50.93553 | 9.13035 | 61° | 99km/h | 13464m | -5m/s | 0°C | 0% | 0hPa | 0V | 00:00:00 | 00:00:00 | 00:00:00 | |
| AM1SDL-15 | 2026-08-31 14:17:24 | 50.93605 | 9.13162 | 69° | 77km/h | 13440m | -5.0m/s | 0°C | 0% | 0hPa | 4.5V | 00:00:00 | 00:00:00 | 00:00:00 | |
| AA1-15 | 2026-08-31 14:17:22 | 50.93578 | 9.13095 | 53° | 80km/h | 13450m | -4.7m/s | -47.6°C | 0% | 0hPa | 4.5V | 00:00:00 | 00:00:00 | 00:00:00 | |
| DO3DL | 2026-08-31 14:17:21 | 50.93578 | 9.13095 | 54° | 80km/h | 13450m | -4.7m/s | -47.6°C | 0% | 0hPa | 4.5V | 00:00:00 | 00:00:00 | 00:00:00 | |
| DL1XH-west | 2026-08-31 14:17:20 | 50.93553 | 9.13035 | 61° | 99km/h | 13459m | -4.8m/s | -47.5°C | 0% | 0hPa | 4.5V | 00:00:00 | 00:00:00 | 00:00:00 | |
| DL1NUX | 2026-08-31 14:17:19 | 50.93523 | 9.12885 | 83° | 89km/h | 13484m | -4.9m/s | 0°C | 0% | 0hPa | 0V | 00:00:00 | 00:00:00 | 00:00:00 | |
| DM7RM-13 | 2026-08-31 14:17:18 | 50.93542 | 9.12999 | 68° | 102km/h | 13464m | -5.0m/s | -40.9°C | 0% | 0hPa | 4.5V | 00:00:00 | 00:00:00 | 00:00:00 | |
| DF8AY | 2026-08-31 14:17:16 | 50.93523 | 9.12885 | 83° | 91km/h | 13479m | -5m/s | -47.5°C | 0% | 0hPa | 4.5V | 00:00:00 | 00:00:00 | 00:00:00 | |
| DB0UT-7 | 2026-08-31 14:17:15 | 50.93523 | 9.12884 | 84° | 82km/h | 13484m | -4.9m/s | 0°C | 0% | 0hPa | 0V | 00:00:00 | 00:00:00 | 00:00:00 | |
| DM0DOS-11 | 2026-08-31 14:17:14 | 50.93499 | 9.12729 | 59° | 75km/h | 13514m | -4.8m/s | 0°C | 0% | 0hPa | 0V | 00:00:00 | 00:00:00 | 00:00:00 | |
| BIOWL1-15 | 2026-08-31 14:17:13 | 50.93520 | 9.12820 | 86° | 69km/h | 13489m | -4.7m/s | -47.6°C | 0% | 0hPa | 4.5V | 00:00:00 | 00:00:00 | 00:00:00 | |
| DO3MHA-11 | 2026-08-31 14:17:12 | 50.93518 | 9.12794 | 80° | 86km/h | 13499m | -4.8m/s | 0°C | 0% | 0hPa | 4.5V | 00:00:00 | 00:00:00 | 00:00:00 | |
| AA1-15 | 2026-08-31 14:17:11 | 50.93514 | 9.12771 | 70° | 60km/h | 13499m | -4.8m/s | -47.6°C | 0% | 0hPa | 4.5V | 00:00:00 | 00:00:00 | 00:00:00 | |
| DB0NH | 2026-08-31 14:17:10 | 50.93508 | 9.12748 | 62° | 84km/h | 13509m | -4.9m/s | 0°C | 0% | 0hPa | 0V | 00:00:00 | 00:00:00 | 00:00:00 | |
| DL1NUX | 2026-08-31 14:17:09 | 50.93458 | 9.12587 | 80° | 106km/h | 13533m | -5.2m/s | 0°C | 0% | 0hPa | 0V | 00:00:00 | 00:00:00 | 00:00:00 | |
| DK7TD | 2026-08-31 14:17:09 | 50.93488 | 9.12697 | 59° | 88km/h | 13514m | -4.8m/s | -47.7°C | 0% | 0hPa | 4.5V | 00:00:00 | 00:00:00 | 00:00:00 | |
| DO3DL | 2026-08-31 14:17:09 | 50.93488 | 9.12697 | 60° | 88km/h | 13514m | -4.8m/s | -47.7°C | 0% | 0hPa | 0V | 00:00:00 | 00:00:00 | 00:00:00 | |
| DL1XH-15 | 2026-08-31 14:17:07 | 50.93448 | 9.12470 | 89° | 88km/h | 13549m | -4.8m/s | 0°C | 0% | 0hPa | 0V | 00:00:00 | 00:00:00 | 00:00:00 | |
| DF2AP-13 | 2026-08-31 14:17:06 | 50.93466 | 9.12627 | 69° | 86km/h | 13529m | -4.9m/s | 0°C | 0% | 0hPa | 4.5V | 00:00:00 | 00:00:00 | 00:00:00 | |
| DF8AY | 2026-08-31 14:17:05 | 50.93452 | 9.12547 | 81° | 104km/h | 13533m | -5.2m/s | -47.7°C | 0% | 0hPa | 4.5V | 00:00:00 | 00:00:00 | 00:00:00 | |
| BIOWL1-15 | 2026-08-31 14:17:02 | 50.93448 | 9.12470 | 90° | 88km/h | 13543m | -4.9m/s | -47.8°C | 0% | 0hPa | 4.5V | 00:00:00 | 00:00:00 | 00:00:00 | |
| DO3MHA-11 | 2026-08-31 14:17:02 | 50.93448 | 9.12470 | 90° | 80km/h | 13549m | -4.7m/s | 0°C | 0% | 0hPa | 4.5V | 00:00:00 | 00:00:00 | 00:00:00 | |
| AA1-15 | 2026-08-31 14:17:01 | 50.93448 | 9.12409 | 87° | 68km/h | 13554m | -4.8m/s | -47.8°C | 0% | 0hPa | 4.5V | 00:00:00 | 00:00:00 | 00:00:00 | |
| DL1NUX | 2026-08-31 14:16:59 | 50.93416 | 9.12276 | 65° | 93km/h | 13583m | -4.9m/s | 0°C | 0% | 0hPa | 0V | 00:00:00 | 00:00:00 | 00:00:00 | |
| DL1XH-west | 2026-08-31 14:16:59 | 50.93442 | 9.12359 | 69° | 64km/h | 13563m | -4.9m/s | -47.8°C | 0% | 0hPa | 4.5V | 00:00:00 | 00:00:00 | 00:00:00 | |
| DM7RM-13 | 2026-08-31 14:16:57 | 50.93434 | 9.12335 | 64° | 73km/h | 13569m | -4.9m/s | -41.2°C | 0% | 0hPa | 4.5V | 00:00:00 | 00:00:00 | 00:00:00 | |
| DF8AY | 2026-08-31 14:16:55 | 50.93399 | 9.12201 | 77° | 102km/h | 13588m | -4.6m/s | -47.5°C | 0% | 0hPa | 4.5V | 00:00:00 | 00:00:00 | 00:00:00 | |
| DM0DOS-11 | 2026-08-31 14:16:54 | 50.93394 | 9.12051 | 93° | 78km/h | 13613m | -4.9m/s | 0°C | 0% | 0hPa | 0V | 00:00:00 | 00:00:00 | 00:00:00 | |
| DO2JMG | 2026-08-31 14:16:52 | 50.93393 | 9.12121 | 88° | 97km/h | 13598m | -4.9m/s | -47.5°C | 0% | 0hPa | 4.5V | 00:00:00 | 00:00:00 | 00:00:00 | |
| AA1-15 | 2026-08-31 14:16:50 | 50.93394 | 9.12051 | 94° | 78km/h | 13608m | -5m/s | -47.5°C | 0% | 0hPa | 4.5V | 00:00:00 | 00:00:00 | 00:00:00 | |
| DL1NUX | 2026-08-31 14:16:49 | 50.93386 | 9.11950 | 66° | 66km/h | 13632m | -4.8m/s | 0°C | 0% | 0hPa | 0V | 00:00:00 | 00:00:00 | 00:00:00 | |
| DL1XH-west | 2026-08-31 14:16:48 | 50.93395 | 9.11997 | 85° | 60km/h | 13618m | -4.8m/s | -47.5°C | 0% | 0hPa | 4.5V | 00:00:00 | 00:00:00 | 00:00:00 | |
| AM1SDL-15 | 2026-08-31 14:16:47 | 50.93395 | 9.11997 | 85° | 80km/h | 13652m | -4.9m/s | 0°C | 0% | 0hPa | 4.5V | 00:00:00 | 00:00:00 | 00:00:00 | |
| DL1CLM-18 | 2026-08-31 14:16:46 | 50.93392 | 9.11973 | 76° | 60km/h | 13623m | -4.8m/s | -47.5°C | 0% | 0hPa | 4.5V | 00:00:00 | 00:00:00 | 00:00:00 | |
| DB0UT-7 | 2026-08-31 14:16:45 | 50.93386 | 9.11949 | 67° | 80km/h | 13633m | -4.7m/s | 0°C | 0% | 0hPa | 4.5V | 00:00:00 | 00:00:00 | 00:00:00 | |
| DF8AY | 2026-08-31 14:16:44 | 50.93370 | 9.11895 | 65° | 88km/h | 13637m | -4.8m/s | -47.4°C | 0% | 0hPa | 4.5V | 00:00:00 | 00:00:00 | 00:00:00 | |
| DO3MHA-11 | 2026-08-31 14:16:42 | 50.93361 | 9.11861 | 69° | 82km/h | 13647m | -4.7m/s | 0°C | 0% | 0hPa | 4.5V | 00:00:00 | 00:00:00 | 00:00:00 | |
| BIOWL1-15 | 2026-08-31 14:16:41 | 50.93347 | 9.11784 | 80° | 102km/h | 13652m | -4.9m/s | -47.3°C | 0% | 0hPa | 4.5V | 00:00:00 | 00:00:00 | 00:00:00 | |
| DB0NH | 2026-08-31 14:16:40 | 50.93347 | 9.11784 | 81° | 80km/h | 13657m | -4.8m/s | 0°C | 0% | 0hPa | 4.5V | 00:00:00 | 00:00:00 | 00:00:00 | |
| AA1-15 | 2026-08-31 14:16:39 | 50.93344 | 9.11706 | 92° | 91km/h | 13662m | -4.9m/s | -47.3°C | 0% | 0hPa | 4.5V | 00:00:00 | 00:00:00 | 00:00:00 | |
| BIOWL7-15 | 2026-08-31 14:16:38 | 50.93344 | 9.11706 | 93° | 91km/h | 13662m | -4.9m/s | -47.3°C | 0% | 0hPa | 0V | 00:00:00 | 00:00:00 | 00:00:00 | |
| DL1XH-15 | 2026-08-31 14:16:37 | 50.93338 | 9.11547 | 64° | 68km/h | 13697m | -4.9m/s | 0°C | 0% | 0hPa | 0V | 00:00:00 | 00:00:00 | 00:00:00 | |
| DL1XH-west | 2026-08-31 14:16:37 | 50.93347 | 9.11641 | 95° | 69km/h | 13671m | -5m/s | -47.3°C | 0% | 0hPa | 4.5V | 00:00:00 | 00:00:00 | 00:00:00 | |
| DF2AP-13 | 2026-08-31 14:16:36 | 50.93347 | 9.11641 | 96° | 75km/h | 13677m | -4.8m/s | 0°C | 0% | 0hPa | 4.5V | 00:00:00 | 00:00:00 | 00:00:00 | |
| AM1SDL-15 | 2026-08-31 14:16:35 | 50.93353 | 9.11615 | 91° | 78km/h | 13677m | -4.8m/s | 0°C | 0% | 0hPa | 4.5V | 00:00:00 | 00:00:00 | 00:00:00 | |
| DF8AY | 2026-08-31 14:16:33 | 50.93337 | 9.11547 | 65° | 68km/h | 13692m | -4.9m/s | -47.5°C | 0% | 0hPa | 4.5V | 00:00:00 | 00:00:00 | 00:00:00 | |
| DO3MHA-11 | 2026-08-31 14:16:32 | 50.93337 | 9.11547 | 65° | 84km/h | 13697m | -4.8m/s | 0°C | 0% | 0hPa | 4.5V | 00:00:00 | 00:00:00 | 00:00:00 | |
| BIOWL1-15 | 2026-08-31 14:16:31 | 50.93321 | 9.11490 | 67° | 89km/h | 13701m | -4.7m/s | -47.5°C | 0% | 0hPa | 4.5V | 00:00:00 | 00:00:00 | 00:00:00 | |
| THATR2-17 | 2026-08-31 14:16:30 | 50.93306 | 9.11418 | 78° | 99km/h | 13711m | 0m/s | 0°C | 0% | 0hPa | 0V | 00:00:00 | 00:00:00 | 00:00:00 | |
| DL1NUX | 2026-08-31 14:16:29 | 50.93302 | 9.11304 | 94° | 86km/h | 13730m | -4.8m/s | 0°C | 0% | 0hPa | 0V | 00:00:00 | 00:00:00 | 00:00:00 | |
| AA1-15 | 2026-08-31 14:16:28 | 50.93302 | 9.11378 | 84° | 99km/h | 13716m | -4.7m/s | -47.5°C | 0% | 0hPa | 4.5V | 00:00:00 | 00:00:00 | 00:00:00 | |
| DL1XH-15 | 2026-08-31 14:16:27 | 50.93307 | 9.11220 | 78° | 57km/h | 13745m | -5.1m/s | 0°C | 0% | 0hPa | 0V | 00:00:00 | 00:00:00 | 00:00:00 | |
| DL1XH-west | 2026-08-31 14:16:26 | 50.93302 | 9.11304 | 95° | 86km/h | 13725m | -4.8m/s | -47.6°C | 0% | 0hPa | 4.5V | 00:00:00 | 00:00:00 | 00:00:00 | |
| DM0DOS-11 | 2026-08-31 14:16:24 | 50.93295 | 9.11154 | 63° | 69km/h | 13760m | -5m/s | 0°C | 0% | 0hPa | 0V | 00:00:00 | 00:00:00 | 00:00:00 | |
| AM1SDL-15 | 2026-08-31 14:16:23 | 50.93306 | 9.11244 | 97° | 71km/h | 13785m | -4.8m/s | 0°C | 0% | 0hPa | 4.5V | 00:00:00 | 00:00:00 | 00:00:00 | |
| DF8AY | 2026-08-31 14:16:22 | 50.93306 | 9.11199 | 78° | 55km/h | 13745m | -5.1m/s | -47.8°C | 0% | 0hPa | 4.5V | 00:00:00 | 00:00:00 | 00:00:00 | |
| DO3MHA-11 | 2026-08-31 14:16:22 | 50.93307 | 9.11220 | 79° | 78km/h | 13745m | -5.1m/s | 0°C | 0% | 0hPa | 4.5V | 00:00:00 | 00:00:00 | 00:00:00 | |
| DC6BW-12 | 2026-08-31 14:16:20 | 50.93301 | 9.11177 | 69° | 58km/h | 13750m | -4.9m/s | -47.9°C | 0% | 0hPa | 4.5V | 00:00:00 | 00:00:00 | 00:00:00 | |
| DO2JMG | 2026-08-31 14:16:19 | 50.93295 | 9.11154 | 64° | 69km/h | 13755m | -4.8m/s | -47.9°C | 0% | 0hPa | 4.5V | 00:00:00 | 00:00:00 | 00:00:00 | |
| BIOWL1-15 | 2026-08-31 14:16:19 | 50.93278 | 9.11097 | 67° | 89km/h | 13765m | -5m/s | -47.9°C | 0% | 0hPa | 4.5V | 00:00:00 | 00:00:00 | 00:00:00 | |
| DL1NUX | 2026-08-31 14:16:19 | 50.93264 | 9.11025 | 79° | 97km/h | 13780m | -5m/s | 0°C | 0% | 0hPa | 0V | 00:00:00 | 00:00:00 | 00:00:00 | |
| DL1XH-15 | 2026-08-31 14:16:17 | 50.93261 | 9.10917 | 95° | 78km/h | 13794m | -4.8m/s | 0°C | 0% | 0hPa | 0V | 00:00:00 | 00:00:00 | 00:00:00 | |
| DO3DL | 2026-08-31 14:16:17 | 50.93270 | 9.11062 | 74° | 95km/h | 13770m | -4.8m/s | -47.9°C | 0% | 0hPa | 4.5V | 00:00:00 | 00:00:00 | 00:00:00 | |
| DM7RM-13 | 2026-08-31 14:16:16 | 50.93270 | 9.11062 | 74° | 95km/h | 13770m | -4.8m/s | -41.3°C | 0% | 0hPa | 4.5V | 00:00:00 | 00:00:00 | 00:00:00 | |
| DK7TD | 2026-08-31 14:16:15 | 50.93264 | 9.11025 | 79° | 97km/h | 13775m | -4.8m/s | -47.9°C | 0% | 0hPa | 4.5V | 00:00:00 | 00:00:00 | 00:00:00 | |
| DB0UT-7 | 2026-08-31 14:16:15 | 50.93264 | 9.11025 | 80° | 75km/h | 13780m | -5.0m/s | 0°C | 0% | 0hPa | 4.5V | 00:00:00 | 00:00:00 | 00:00:00 | |
| DO8TBO-1 | 2026-08-31 14:16:14 | 50.93260 | 9.10946 | 96° | 73km/h | 13790m | -4.8m/s | 0°C | 0% | 0hPa | 4.5V | 00:00:00 | 00:00:00 | 00:00:00 | |
| AA1-15 | 2026-08-31 14:16:13 | 50.93261 | 9.10917 | 95° | 78km/h | 13789m | -4.8m/s | -48°C | 0% | 0hPa | 4.5V | 00:00:00 | 00:00:00 | 00:00:00 | |
| GOEST3-10 | 2026-08-31 14:16:13 | 50.93260 | 9.10944 | 96° | 73km/h | 13800m | -4.7m/s | 0°C | 0% | 0hPa | 4.5V | 00:00:00 | 00:00:00 | 00:00:00 | |
| DO3MHA-11 | 2026-08-31 14:16:12 | 50.93261 | 9.10917 | 96° | 71km/h | 13795m | -4.8m/s | 0°C | 0% | 0hPa | 4.5V | 00:00:00 | 00:00:00 | 00:00:00 | |
| DF8AY | 2026-08-31 14:16:11 | 50.93264 | 9.10863 | 90° | 58km/h | 13799m | -4.8m/s | -48.1°C | 0% | 0hPa | 4.5V | 00:00:00 | 00:00:00 | 00:00:00 | |
| DO3DL | 2026-08-31 14:16:11 | 50.93264 | 9.10863 | 91° | 58km/h | 13800m | -4.8m/s | -48.1°C | 0% | 0hPa | 0V | 00:00:00 | 00:00:00 | 00:00:00 | |
| DB0NH | 2026-08-31 14:16:10 | 50.93264 | 9.10863 | 91° | 69km/h | 13804m | -4.6m/s | 0°C | 0% | 0hPa | 0V | 00:00:00 | 00:00:00 | 00:00:00 | |
| DL1NUX | 2026-08-31 14:16:09 | 50.93236 | 9.10751 | 69° | 82km/h | 13828m | -4.8m/s | 0°C | 0% | 0hPa | 0V | 00:00:00 | 00:00:00 | 00:00:00 | |
| DO2JMG | 2026-08-31 14:16:09 | 50.93259 | 9.10821 | 68° | 55km/h | 13809m | -4.5m/s | -48.3°C | 0% | 0hPa | 4.5V | 00:00:00 | 00:00:00 | 00:00:00 | |
| AM1SDL-15 | 2026-08-31 14:16:08 | 50.93259 | 9.10821 | 69° | 71km/h | 13833m | -4.7m/s | 0°C | 0% | 0hPa | 4.5V | 00:00:00 | 00:00:00 | 00:00:00 | |
| DF2AP-13 | 2026-08-31 14:16:06 | 50.93245 | 9.10775 | 62° | 71km/h | 13823m | -5.0m/s | 0°C | 0% | 0hPa | 4.5V | 00:00:00 | 00:00:00 | 00:00:00 | |
| DL1XH-west | 2026-08-31 14:16:05 | 50.93227 | 9.10716 | 70° | 89km/h | 13828m | -4.8m/s | -48.4°C | 0% | 0hPa | 4.5V | 00:00:00 | 00:00:00 | 00:00:00 | |
| DO3DL | 2026-08-31 14:16:04 | 50.93221 | 9.10681 | 77° | 93km/h | 13833m | -4.8m/s | -48.3°C | 0% | 0hPa | 4.5V | 00:00:00 | 00:00:00 | 00:00:00 | |
| AA1-15 | 2026-08-31 14:16:03 | 50.93216 | 9.10644 | 83° | 93km/h | 13838m | -4.7m/s | -48.3°C | 0% | 0hPa | 4.5V | 00:00:00 | 00:00:00 | 00:00:00 | |
| DO3MHA-11 | 2026-08-31 14:16:02 | 50.93216 | 9.10644 | 83° | 68km/h | 13843m | -4.5m/s | 0°C | 0% | 0hPa | 4.5V | 00:00:00 | 00:00:00 | 00:00:00 | |
| DF8AY | 2026-08-31 14:16:01 | 50.93215 | 9.10574 | 94° | 80km/h | 13847m | -4.7m/s | -48.4°C | 0% | 0hPa | 4.5V | 00:00:00 | 00:00:00 | 00:00:00 | |
| DL1NUX | 2026-08-31 14:15:59 | 50.93212 | 9.10459 | 63° | 53km/h | 13876m | -4.8m/s | 0°C | 0% | 0hPa | 0V | 00:00:00 | 00:00:00 | 00:00:00 | |
| BIOWL1-15 | 2026-08-31 14:15:58 | 50.93212 | 9.10459 | 64° | 53km/h | 13871m | -4.9m/s | -48.7°C | 0% | 0hPa | 4.5V | 00:00:00 | 00:00:00 | 00:00:00 | |
| DO2JMG | 2026-08-31 14:15:58 | 50.93219 | 9.10497 | 87° | 51km/h | 13862m | -4.9m/s | -48.6°C | 0% | 0hPa | 4.5V | 00:00:00 | 00:00:00 | 00:00:00 | |
| DO3DL | 2026-08-31 14:15:57 | 50.93219 | 9.10497 | 88° | 51km/h | 13862m | -4.9m/s | -48.6°C | 0% | 0hPa | 0V | 00:00:00 | 00:00:00 | 00:00:00 | |
| AM1SDL-15 | 2026-08-31 14:15:56 | 50.93217 | 9.10497 | 59° | 71km/h | 13872m | -4.9m/s | 0°C | 0% | 0hPa | 0V | 00:00:00 | 00:00:00 | 00:00:00 | |
| DL1XH-15 | 2026-08-31 14:15:54 | 50.93165 | 9.10287 | 81° | 89km/h | 13906m | -4.6m/s | 0°C | 0% | 0hPa | 0V | 00:00:00 | 00:00:00 | 00:00:00 | |
| DL1XH-west | 2026-08-31 14:15:54 | 50.93196 | 9.10415 | 59° | 73km/h | 13881m | -5m/s | -48.8°C | 0% | 0hPa | 4.5V | 00:00:00 | 00:00:00 | 00:00:00 | |
| DO3MHA-11 | 2026-08-31 14:15:52 | 50.93186 | 9.10391 | 69° | 71km/h | 13892m | -4.9m/s | 0°C | 0% | 0hPa | 4.5V | 00:00:00 | 00:00:00 | 00:00:00 | |
| DF1GD-15 | 2026-08-31 14:15:51 | 50.93170 | 9.10322 | 76° | 91km/h | 13896m | -4.8m/s | -48.8°C | 0% | 0hPa | 4.5V | 00:00:00 | 00:00:00 | 00:00:00 | |
| AA1-15 | 2026-08-31 14:15:50 | 50.93165 | 9.10287 | 82° | 89km/h | 13901m | -4.7m/s | -48.8°C | 0% | 0hPa | 4.5V | 00:00:00 | 00:00:00 | 00:00:00 | |
| DL1NUX | 2026-08-31 14:15:49 | 50.93165 | 9.10169 | 80° | 53km/h | 13925m | -5m/s | 0°C | 0% | 0hPa | 0V | 00:00:00 | 00:00:00 | 00:00:00 | |
| NBG1-10 | 2026-08-31 14:15:49 | 50.93165 | 9.10287 | 82° | 68km/h | 13906m | -4.6m/s | 0°C | 0% | 0hPa | 4.5V | 00:00:00 | 00:00:00 | 00:00:00 | |
| BIOWL1-15 | 2026-08-31 14:15:48 | 50.93163 | 9.10221 | 93° | 73km/h | 13911m | -4.7m/s | -48.8°C | 0% | 0hPa | 4.5V | 00:00:00 | 00:00:00 | 00:00:00 | |
| DB0UT-7 | 2026-08-31 14:15:45 | 50.93165 | 9.10169 | 81° | 68km/h | 13926m | -5.0m/s | 0°C | 0% | 0hPa | 0V | 00:00:00 | 00:00:00 | 00:00:00 | |
| DL1XH-15 | 2026-08-31 14:15:44 | 50.93127 | 9.10047 | 68° | 84km/h | 13955m | -4.9m/s | 0°C | 0% | 0hPa | 0V | 00:00:00 | 00:00:00 | 00:00:00 | |
| AM1SDL-15 | 2026-08-31 14:15:44 | 50.93164 | 9.10151 | 81° | 58km/h | 13969m | -4.3m/s | 0°C | 0% | 0hPa | 4.5V | 00:00:00 | 00:00:00 | 00:00:00 | |
| DK7TD | 2026-08-31 14:15:43 | 50.93155 | 9.10116 | 58° | 55km/h | 13935m | -4.9m/s | -49.2°C | 0% | 0hPa | 4.5V | 00:00:00 | 00:00:00 | 00:00:00 | |
| DO3MHA-11 | 2026-08-31 14:15:42 | 50.93155 | 9.10115 | 58° | 73km/h | 13940m | -4.7m/s | 0°C | 0% | 0hPa | 4.5V | 00:00:00 | 00:00:00 | 00:00:00 | |
| DB0NH | 2026-08-31 14:15:40 | 50.93137 | 9.10072 | 57° | 71km/h | 13950m | -4.9m/s | 0°C | 0% | 0hPa | 4.5V | 00:00:00 | 00:00:00 | 00:00:00 | |
| AA1-15 | 2026-08-31 14:15:39 | 50.93127 | 9.10045 | 62° | 84km/h | 13950m | -5m/s | -49.1°C | 0% | 0hPa | 4.5V | 00:00:00 | 00:00:00 | 00:00:00 | |
| DF8AY | 2026-08-31 14:15:39 | 50.93117 | 9.10014 | 68° | 88km/h | 13955m | -4.9m/s | -49.1°C | 0% | 0hPa | 4.5V | 00:00:00 | 00:00:00 | 00:00:00 | |
| DO3DL | 2026-08-31 14:15:38 | 50.93118 | 9.10014 | 69° | 88km/h | 13955m | -4.9m/s | -49.1°C | 0% | 0hPa | 4.5V | 00:00:00 | 00:00:00 | 00:00:00 | |
| BIOWL1-15 | 2026-08-31 14:15:37 | 50.93106 | 9.09948 | 81° | 80km/h | 13964m | -4.5m/s | -49.1°C | 0% | 0hPa | 4.5V | 00:00:00 | 00:00:00 | 00:00:00 | |
| DF2AP-13 | 2026-08-31 14:15:36 | 50.93106 | 9.09948 | 82° | 71km/h | 13969m | -4.3m/s | 0°C | 0% | 0hPa | 0V | 00:00:00 | 00:00:00 | 00:00:00 | |
| DM7RM-13 | 2026-08-31 14:15:35 | 50.93104 | 9.09918 | 87° | 73km/h | 13969m | -4.3m/s | -42.6°C | 0% | 0hPa | 0V | 00:00:00 | 00:00:00 | 00:00:00 | |
| DL1XH-15 | 2026-08-31 14:15:34 | 50.93086 | 9.09794 | 55° | 58km/h | 14002m | -4.3m/s | 0°C | 0% | 0hPa | 0V | 00:00:00 | 00:00:00 | 00:00:00 | |
| DL3OBA | 2026-08-31 14:15:33 | 50.93103 | 9.09867 | 89° | 53km/h | 13978m | -4.5m/s | -49.2°C | 0% | 0hPa | 4.5V | 00:00:00 | 00:00:00 | 00:00:00 | |
| DL1XH-west | 2026-08-31 14:15:32 | 50.93099 | 9.09830 | 70° | 46km/h | 13987m | -4.9m/s | -49.4°C | 0% | 0hPa | 4.5V | 00:00:00 | 00:00:00 | 00:00:00 | |
| DO3DL | 2026-08-31 14:15:31 | 50.93099 | 9.09830 | 71° | 46km/h | 13987m | -4.9m/s | -49.4°C | 0% | 0hPa | 0V | 00:00:00 | 00:00:00 | 00:00:00 | |
| AM1SDL-15 | 2026-08-31 14:15:30 | 50.93094 | 9.09812 | 60° | 53km/h | 13992m | -4.8m/s | 0°C | 0% | 0hPa | 0V | 00:00:00 | 00:00:00 | 00:00:00 | |
| DL1NUX | 2026-08-31 14:15:29 | 50.93046 | 9.09688 | 64° | 91km/h | 14025m | -5.3m/s | 0°C | 0% | 0hPa | 0V | 00:00:00 | 00:00:00 | 00:00:00 | |
| DF8AY | 2026-08-31 14:15:28 | 50.93067 | 9.09748 | 58° | 80km/h | 14006m | -4m/s | -49.5°C | 0% | 0hPa | 4.5V | 00:00:00 | 00:00:00 | 00:00:00 | |
| HSKMA3-T | 2026-08-31 14:15:26 | 50.93046 | 9.09688 | 65° | 91km/h | 14015m | -4.8m/s | -49.5°C | 0% | 0hPa | 4.5V | 00:00:00 | 00:00:00 | 00:00:00 | |
| DO3DL | 2026-08-31 14:15:25 | 50.93046 | 9.09688 | 66° | 91km/h | 14015m | -4.8m/s | -49.5°C | 0% | 0hPa | 4.5V | 00:00:00 | 00:00:00 | 00:00:00 | |
| DO2JMG | 2026-08-31 14:15:24 | 50.93037 | 9.09655 | 68° | 91km/h | 14020m | -5.3m/s | -49.2°C | 0% | 0hPa | 4.5V | 00:00:00 | 00:00:00 | 00:00:00 | |
| DL1XH-15 | 2026-08-31 14:15:24 | 50.93010 | 9.09513 | 73° | 55km/h | 14051m | -5.1m/s | 0°C | 0% | 0hPa | 0V | 00:00:00 | 00:00:00 | 00:00:00 | |
| AA1-15 | 2026-08-31 14:15:24 | 50.93029 | 9.09621 | 71° | 88km/h | 14025m | -5.3m/s | -49.3°C | 0% | 0hPa | 4.5V | 00:00:00 | 00:00:00 | 00:00:00 | |
| DL1XH-west | 2026-08-31 14:15:22 | 50.93017 | 9.09561 | 76° | 69km/h | 14035m | -3.8m/s | -49.1°C | 0% | 0hPa | 4.5V | 00:00:00 | 00:00:00 | 00:00:00 | |
| TFSTFS | 2026-08-31 14:15:19 | 50.93005 | 9.09492 | 72° | 53km/h | 14046m | -4.5m/s | -49.1°C | 0% | 0hPa | 4.5V | 00:00:00 | 00:00:00 | 00:00:00 | |
| AM1SDL-15 | 2026-08-31 14:15:18 | 50.93005 | 9.09492 | 72° | 62km/h | 14051m | -5.0m/s | 0°C | 0% | 0hPa | 4.5V | 00:00:00 | 00:00:00 | 00:00:00 | |
| DF8AY | 2026-08-31 14:15:17 | 50.92996 | 9.09451 | 68° | 60km/h | 14056m | -5.1m/s | -49.1°C | 0% | 0hPa | 4.5V | 00:00:00 | 00:00:00 | 00:00:00 | |
| NBG1-10 | 2026-08-31 14:15:16 | 50.92995 | 9.09451 | 69° | 69km/h | 14061m | -4.4m/s | 0°C | 0% | 0hPa | 4.5V | 00:00:00 | 00:00:00 | 00:00:00 | |
| BIOWL1-15 | 2026-08-31 14:15:15 | 50.92982 | 9.09401 | 67° | 77km/h | 14065m | -3.8m/s | -49°C | 0% | 0hPa | 4.5V | 00:00:00 | 00:00:00 | 00:00:00 | |
| SO1NDE-10 | 2026-08-31 14:15:15 | 50.92989 | 9.09431 | 68° | 68km/h | 14087m | -4.5m/s | 0°C | 0% | 0hPa | 4.5V | 00:00:00 | 00:00:00 | 00:00:00 | |
| DM7RM-13 | 2026-08-31 14:15:14 | 50.92982 | 9.09401 | 68° | 77km/h | 14065m | -3.8m/s | -42.5°C | 0% | 0hPa | 4.5V | 00:00:00 | 00:00:00 | 00:00:00 | |
| DL3OBA | 2026-08-31 14:15:13 | 50.92975 | 9.09371 | 68° | 84km/h | 14069m | -3.9m/s | -49.0°C | 0% | 0hPa | 4.5V | 00:00:00 | 00:00:00 | 00:00:00 | |
| DO3MHA-11 | 2026-08-31 14:15:12 | 50.92966 | 9.09340 | 67° | 73km/h | 14078m | -4.4m/s | 0°C | 0% | 0hPa | 4.5V | 00:00:00 | 00:00:00 | 00:00:00 | |
| DL1XH-west | 2026-08-31 14:15:11 | 50.92946 | 9.09278 | 60° | 88km/h | 14082m | -4.3m/s | -48.9°C | 0% | 0hPa | 4.5V | 00:00:00 | 00:00:00 | 00:00:00 | |
| DB0NH | 2026-08-31 14:15:10 | 50.92946 | 9.09278 | 61° | 68km/h | 14087m | -4.5m/s | 0°C | 0% | 0hPa | 4.5V | 00:00:00 | 00:00:00 | 00:00:00 | |
| DF1GD-15 | 2026-08-31 14:15:09 | 50.92935 | 9.09249 | 58° | 84km/h | 14087m | -4.6m/s | -49.0°C | 0% | 0hPa | 4.5V | 00:00:00 | 00:00:00 | 00:00:00 | |
| DO2JMG | 2026-08-31 14:15:07 | 50.92901 | 9.09176 | 54° | 66km/h | 14102m | -4.5m/s | -49.1°C | 0% | 0hPa | 4.5V | 00:00:00 | 00:00:00 | 00:00:00 | |
| DF2AP-13 | 2026-08-31 14:15:06 | 50.92901 | 9.09176 | 55° | 68km/h | 14106m | -4.4m/s | 0°C | 0% | 0hPa | 0V | 00:00:00 | 00:00:00 | 00:00:00 | |
| DO3DL | 2026-08-31 14:15:05 | 50.92893 | 9.09155 | 60° | 58km/h | 14106m | -4.5m/s | -49.0°C | 0% | 0hPa | 0V | 00:00:00 | 00:00:00 | 00:00:00 | |
| DM0DOS-11 | 2026-08-31 14:15:04 | 50.92874 | 9.09012 | 81° | 75km/h | 14140m | -5m/s | 0°C | 0% | 0hPa | 0V | 00:00:00 | 00:00:00 | 00:00:00 | |
| BIOWL1-15 | 2026-08-31 14:15:04 | 50.92877 | 9.09068 | 86° | 64km/h | 14124m | -5m/s | -49°C | 0% | 0hPa | 4.5V | 00:00:00 | 00:00:00 | 00:00:00 | |
| HSKMA3-T | 2026-08-31 14:15:04 | 50.92882 | 9.09114 | 75° | 55km/h | 14115m | -4.1m/s | -49°C | 0% | 0hPa | 4.5V | 00:00:00 | 00:00:00 | 00:00:00 | |
| DO3MHA-11 | 2026-08-31 14:15:02 | 50.92879 | 9.09094 | 86° | 75km/h | 14124m | -4.9m/s | 0°C | 0% | 0hPa | 4.5V | 00:00:00 | 00:00:00 | 00:00:00 | |
| DL1XH-west | 2026-08-31 14:15:00 | 50.92874 | 9.09012 | 82° | 75km/h | 14134m | -4.9m/s | -48.8°C | 0% | 0hPa | 4.5V | 00:00:00 | 00:00:00 | 00:00:00 | |
| DO3DL | 2026-08-31 14:15:00 | 50.92874 | 9.09012 | 83° | 75km/h | 14135m | -4.9m/s | -48.8°C | 0% | 0hPa | 0V | 00:00:00 | 00:00:00 | 00:00:00 | |
| DL1NUX | 2026-08-31 14:14:59 | 50.92846 | 9.08892 | 59° | 80km/h | 14158m | -4.9m/s | 0°C | 0% | 0hPa | 0V | 00:00:00 | 00:00:00 | 00:00:00 | |
| AM1SDL-15 | 2026-08-31 14:14:59 | 50.92874 | 9.09012 | 82° | 69km/h | 14140m | -5.0m/s | 0°C | 0% | 0hPa | 4.5V | 00:00:00 | 00:00:00 | 00:00:00 | |
| DC6BW-12 | 2026-08-31 14:14:58 | 50.92870 | 9.08982 | 77° | 80km/h | 14140m | -5.1m/s | -48.8°C | 0% | 0hPa | 4.5V | 00:00:00 | 00:00:00 | 00:00:00 | |
| DO2JMG | 2026-08-31 14:14:56 | 50.92846 | 9.08892 | 60° | 80km/h | 14153m | -4.5m/s | -48.6°C | 0% | 0hPa | 4.5V | 00:00:00 | 00:00:00 | 00:00:00 | |
| DL1XH-15 | 2026-08-31 14:14:54 | 50.92801 | 9.08741 | 77° | 60km/h | 14185m | -4.6m/s | 0°C | 0% | 0hPa | 0V | 00:00:00 | 00:00:00 | 00:00:00 | |
| BIOWL1-15 | 2026-08-31 14:14:53 | 50.92826 | 9.08839 | 59° | 73km/h | 14163m | -5m/s | -48.6°C | 0% | 0hPa | 4.5V | 00:00:00 | 00:00:00 | 00:00:00 | |
| DO3DL | 2026-08-31 14:14:53 | 50.92817 | 9.08815 | 64° | 68km/h | 14168m | -4.8m/s | -48.6°C | 0% | 0hPa | 4.5V | 00:00:00 | 00:00:00 | 00:00:00 | |
| DO3MHA-11 | 2026-08-31 14:14:52 | 50.92817 | 9.08815 | 64° | 58km/h | 14173m | -4.4m/s | 0°C | 0% | 0hPa | 4.5V | 00:00:00 | 00:00:00 | 00:00:00 | |
| DK7TD | 2026-08-31 14:14:50 | 50.92801 | 9.08743 | 77° | 60km/h | 14181m | -4.5m/s | -48.5°C | 0% | 0hPa | 4.5V | 00:00:00 | 00:00:00 | 00:00:00 | |
| DL1XH-west | 2026-08-31 14:14:49 | 50.92798 | 9.08719 | 78° | 58km/h | 14186m | -4.6m/s | -48.5°C | 0% | 0hPa | 4.5V | 00:00:00 | 00:00:00 | 00:00:00 | |
| DF1GD-15 | 2026-08-31 14:14:48 | 50.92798 | 9.08719 | 79° | 58km/h | 14186m | -4.6m/s | -48.5°C | 0% | 0hPa | 4.5V | 00:00:00 | 00:00:00 | 00:00:00 | |
| AA1-15 | 2026-08-31 14:14:47 | 50.92791 | 9.08677 | 71° | 51km/h | 14195m | -4.7m/s | -48.8°C | 0% | 0hPa | 4.5V | 00:00:00 | 00:00:00 | 00:00:00 | |
| DO3DL | 2026-08-31 14:14:47 | 50.92791 | 9.08677 | 72° | 51km/h | 14195m | -4.7m/s | -48.7°C | 0% | 0hPa | 0V | 00:00:00 | 00:00:00 | 00:00:00 | |
| DO2KSM | 2026-08-31 14:14:46 | 50.92791 | 9.08677 | 72° | 51km/h | 14195m | -4.7m/s | -48.7°C | 0% | 0hPa | 0V | 00:00:00 | 00:00:00 | 00:00:00 | |
| DB0UT-7 | 2026-08-31 14:14:45 | 50.92786 | 9.08658 | 59° | 68km/h | 14205m | -4.8m/s | 0°C | 0% | 0hPa | 0V | 00:00:00 | 00:00:00 | 00:00:00 | |
| DO2JMG | 2026-08-31 14:14:45 | 50.92780 | 9.08640 | 59° | 53km/h | 14205m | -4.9m/s | -48.9°C | 0% | 0hPa | 4.5V | 00:00:00 | 00:00:00 | 00:00:00 | |
| DM0DOS-11 | 2026-08-31 14:14:44 | 50.92731 | 9.08533 | 59° | 78km/h | 14234m | -4.5m/s | 0°C | 0% | 0hPa | 0V | 00:00:00 | 00:00:00 | 00:00:00 | |
| SO1NDE-10 | 2026-08-31 14:14:43 | 50.92773 | 9.08624 | 52° | 68km/h | 14215m | -4.7m/s | 0°C | 0% | 0hPa | 4.5V | 00:00:00 | 00:00:00 | 00:00:00 | |
| BIOWL1-15 | 2026-08-31 14:14:43 | 50.92763 | 9.08603 | 51° | 64km/h | 14215m | -4.7m/s | -48.9°C | 0% | 0hPa | 4.5V | 00:00:00 | 00:00:00 | 00:00:00 | |
| DO3MHA-11 | 2026-08-31 14:14:42 | 50.92763 | 9.08603 | 52° | 73km/h | 14220m | -4.9m/s | 0°C | 0% | 0hPa | 4.5V | 00:00:00 | 00:00:00 | 00:00:00 | |
| DB0NH | 2026-08-31 14:14:40 | 50.92742 | 9.08559 | 56° | 69km/h | 14230m | -4.7m/s | 0°C | 0% | 0hPa | 4.5V | 00:00:00 | 00:00:00 | 00:00:00 | |
| DL1XH-west | 2026-08-31 14:14:38 | 50.92722 | 9.08504 | 65° | 80km/h | 14234m | -4.5m/s | -48.7°C | 0% | 0hPa | 4.5V | 00:00:00 | 00:00:00 | 00:00:00 | |
| AA1-15 | 2026-08-31 14:14:37 | 50.92708 | 9.08445 | 75° | 77km/h | 14243m | -4.2m/s | -48.7°C | 0% | 0hPa | 4.5V | 00:00:00 | 00:00:00 | 00:00:00 | |
| DF2AP-13 | 2026-08-31 14:14:36 | 50.92708 | 9.08443 | 79° | 71km/h | 14248m | -4.8m/s | 0°C | 0% | 0hPa | 0V | 00:00:00 | 00:00:00 | 00:00:00 | |
| DM0DOS-11 | 2026-08-31 14:14:34 | 50.92674 | 9.08284 | 51° | 58km/h | 14281m | -4.9m/s | 0°C | 0% | 0hPa | 0V | 00:00:00 | 00:00:00 | 00:00:00 | |
| DO2JMG | 2026-08-31 14:14:34 | 50.92697 | 9.08362 | 78° | 60km/h | 14258m | -5m/s | -48.7°C | 0% | 0hPa | 4.5V | 00:00:00 | 00:00:00 | 00:00:00 | |
| DM7RM-13 | 2026-08-31 14:14:33 | 50.92694 | 9.08340 | 74° | 55km/h | 14263m | -4.7m/s | -42.2°C | 0% | 0hPa | 4.5V | 00:00:00 | 00:00:00 | 00:00:00 | |
| DO3MHA-11 | 2026-08-31 14:14:32 | 50.92694 | 9.08338 | 65° | 68km/h | 14267m | -4.4m/s | 0°C | 0% | 0hPa | 4.5V | 00:00:00 | 00:00:00 | 00:00:00 | |
| BIOWL1-15 | 2026-08-31 14:14:31 | 50.92689 | 9.08320 | 65° | 53km/h | 14267m | -4.5m/s | -48.8°C | 0% | 0hPa | 4.5V | 00:00:00 | 00:00:00 | 00:00:00 | |
| AM1SDL-15 | 2026-08-31 14:14:31 | 50.92689 | 9.08320 | 65° | 62km/h | 14277m | -4.7m/s | 0°C | 0% | 0hPa | 0V | 00:00:00 | 00:00:00 | 00:00:00 | |
| GOEST3-10 | 2026-08-31 14:14:29 | 50.92674 | 9.08284 | 52° | 75km/h | 14291m | -5.0m/s | 0°C | 0% | 0hPa | 0V | 00:00:00 | 00:00:00 | 00:00:00 | |
| DL1NUX | 2026-08-31 14:14:28 | 50.92630 | 9.08196 | 56° | 82km/h | 14301m | -4.7m/s | 0°C | 0% | 0hPa | 0V | 00:00:00 | 00:00:00 | 00:00:00 | |
| DL1XH-west | 2026-08-31 14:14:27 | 50.92653 | 9.08245 | 50° | 71km/h | 14286m | -5m/s | -49°C | 0% | 0hPa | 4.5V | 00:00:00 | 00:00:00 | 00:00:00 | |
| DD1CC2-15 | 2026-08-31 14:14:27 | 50.92641 | 9.08222 | 53° | 77km/h | 14291m | -5.1m/s | -42.4°C | 0% | 0hPa | 4.5V | 00:00:00 | 00:00:00 | 00:00:00 | |
| DO2KSM | 2026-08-31 14:14:26 | 50.92630 | 9.08196 | 57° | 82km/h | 14296m | -4.9m/s | -48.9°C | 0% | 0hPa | 4.5V | 00:00:00 | 00:00:00 | 00:00:00 | |
| AA1-15 | 2026-08-31 14:14:25 | 50.92630 | 9.08196 | 56° | 82km/h | 14296m | -4.9m/s | -48.9°C | 0% | 0hPa | 4.5V | 00:00:00 | 00:00:00 | 00:00:00 | |
| DF8AY | 2026-08-31 14:14:24 | 50.92609 | 9.08138 | 66° | 84km/h | 14306m | -4.6m/s | -48.7°C | 0% | 0hPa | 4.5V | 00:00:00 | 00:00:00 | 00:00:00 | |
| DO3MHA-11 | 2026-08-31 14:14:22 | 50.92602 | 9.08108 | 71° | 66km/h | 14315m | -4.9m/s | 0°C | 0% | 0hPa | 4.5V | 00:00:00 | 00:00:00 | 00:00:00 | |
| HSKMA3-T | 2026-08-31 14:14:21 | 50.92591 | 9.08051 | 75° | 68km/h | 14320m | -4.9m/s | -48.6°C | 0% | 0hPa | 4.5V | 00:00:00 | 00:00:00 | 00:00:00 | |
| DO3DL | 2026-08-31 14:14:20 | 50.92591 | 9.08051 | 76° | 68km/h | 14320m | -4.9m/s | -48.6°C | 0% | 0hPa | 4.5V | 00:00:00 | 00:00:00 | 00:00:00 | |
| DO2JMG | 2026-08-31 14:14:19 | 50.92586 | 9.08026 | 73° | 62km/h | 14325m | -4.9m/s | -48.6°C | 0% | 0hPa | 4.5V | 00:00:00 | 00:00:00 | 00:00:00 | |
| AM1SDL-15 | 2026-08-31 14:14:19 | 50.92586 | 9.08026 | 73° | 62km/h | 14325m | -4.8m/s | 0°C | 0% | 0hPa | 4.5V | 00:00:00 | 00:00:00 | 00:00:00 | |
| GOEST3-10 | 2026-08-31 14:14:17 | 50.92575 | 9.07984 | 61° | 55km/h | 14335m | -4.7m/s | 0°C | 0% | 0hPa | 4.5V | 00:00:00 | 00:00:00 | 00:00:00 | |
| DL1XH-west | 2026-08-31 14:14:16 | 50.92567 | 9.07965 | 53° | 58km/h | 14339m | -4.5m/s | -48.9°C | 0% | 0hPa | 4.5V | 00:00:00 | 00:00:00 | 00:00:00 | |
| DB0UT-7 | 2026-08-31 14:14:15 | 50.92558 | 9.07948 | 46° | 75km/h | 14348m | -4.7m/s | 0°C | 0% | 0hPa | 4.5V | 00:00:00 | 00:00:00 | 00:00:00 | |
| DF8AY | 2026-08-31 14:14:14 | 50.92520 | 9.07884 | 47° | 82km/h | 14358m | -4.9m/s | -49°C | 0% | 0hPa | 4.5V | 00:00:00 | 00:00:00 | 00:00:00 | |
| SO1NDE-10 | 2026-08-31 14:14:13 | 50.92533 | 9.07909 | 47° | 77km/h | 14358m | -4.8m/s | 0°C | 0% | 0hPa | 4.5V | 00:00:00 | 00:00:00 | 00:00:00 | |
| DO3MHA-11 | 2026-08-31 14:14:12 | 50.92519 | 9.07884 | 47° | 78km/h | 14363m | -5.0m/s | 0°C | 0% | 0hPa | 4.5V | 00:00:00 | 00:00:00 | 00:00:00 | |
| DL3OBA | 2026-08-31 14:14:11 | 50.92506 | 9.07858 | 51° | 86km/h | 14363m | -5.1m/s | -49.0°C | 0% | 0hPa | 4.5V | 00:00:00 | 00:00:00 | 00:00:00 | |
| BIOWL1-15 | 2026-08-31 14:14:10 | 50.92492 | 9.07831 | 54° | 88km/h | 14368m | -5.1m/s | -48.9°C | 0% | 0hPa | 4.5V | 00:00:00 | 00:00:00 | 00:00:00 | |
| DB0NH | 2026-08-31 14:14:10 | 50.92492 | 9.07831 | 54° | 77km/h | 14373m | -4.7m/s | 0°C | 0% | 0hPa | 0V | 00:00:00 | 00:00:00 | 00:00:00 | |
| NBG1-10 | 2026-08-31 14:14:09 | 50.92480 | 9.07802 | 59° | 78km/h | 14378m | -4.4m/s | 0°C | 0% | 0hPa | 0V | 00:00:00 | 00:00:00 | 00:00:00 | |
| DL1NUX | 2026-08-31 14:14:08 | 50.92446 | 9.07686 | 69° | 69km/h | 14396m | -4.8m/s | 0°C | 0% | 0hPa | 0V | 00:00:00 | 00:00:00 | 00:00:00 | |
| GOEST3-10 | 2026-08-31 14:14:08 | 50.92469 | 9.07766 | 70° | 69km/h | 14382m | -4.3m/s | 0°C | 0% | 0hPa | 4.5V | 00:00:00 | 00:00:00 | 00:00:00 | |
| DO3DL | 2026-08-31 14:14:07 | 50.92460 | 9.07741 | 68° | 80km/h | 14382m | -4.3m/s | -48.7°C | 0% | 0hPa | 4.5V | 00:00:00 | 00:00:00 | 00:00:00 | |
| DL1XH-west | 2026-08-31 14:14:06 | 50.92446 | 9.07686 | 70° | 69km/h | 14391m | -4.7m/s | -48.6°C | 0% | 0hPa | 4.5V | 00:00:00 | 00:00:00 | 00:00:00 | |
| DF2AP-13 | 2026-08-31 14:14:06 | 50.92453 | 9.07710 | 70° | 77km/h | 14391m | -4.6m/s | 0°C | 0% | 0hPa | 0V | 00:00:00 | 00:00:00 | 00:00:00 | |
| DD1CC2-15 | 2026-08-31 14:14:05 | 50.92446 | 9.07686 | 71° | 69km/h | 14391m | -4.7m/s | -42.1°C | 0% | 0hPa | 0V | 00:00:00 | 00:00:00 | 00:00:00 | |
| DM0DOS-11 | 2026-08-31 14:14:04 | 50.92393 | 9.07553 | 49° | 77km/h | 14425m | -4.8m/s | 0°C | 0% | 0hPa | 0V | 00:00:00 | 00:00:00 | 00:00:00 | |
| AA1-15 | 2026-08-31 14:14:04 | 50.92433 | 9.07638 | 63° | 62km/h | 14401m | -4.9m/s | -48.6°C | 0% | 0hPa | 4.5V | 00:00:00 | 00:00:00 | 00:00:00 | |
| DF8AY | 2026-08-31 14:14:02 | 50.92416 | 9.07596 | 53° | 66km/h | 14411m | -4.8m/s | -48.5°C | 0% | 0hPa | 4.5V | 00:00:00 | 00:00:00 | 00:00:00 | |
| DO3DL | 2026-08-31 14:14:01 | 50.92416 | 9.07596 | 54° | 66km/h | 14411m | -4.8m/s | -48.5°C | 0% | 0hPa | 4.5V | 00:00:00 | 00:00:00 | 00:00:00 | |
| AM1SDL-15 | 2026-08-31 14:14:00 | 50.92406 | 9.07575 | 51° | 75km/h | 14416m | -4.4m/s | 0°C | 0% | 0hPa | 4.5V | 00:00:00 | 00:00:00 | 00:00:00 | |
| BIOWL1-15 | 2026-08-31 14:13:59 | 50.92394 | 9.07553 | 50° | 77km/h | 14420m | -4.7m/s | -48.6°C | 0% | 0hPa | 4.5V | 00:00:00 | 00:00:00 | 00:00:00 | |
| DL1NUX | 2026-08-31 14:13:58 | 50.92344 | 9.07446 | 58° | 86km/h | 14444m | -4.7m/s | 0°C | 0% | 0hPa | 0V | 00:00:00 | 00:00:00 | 00:00:00 | |
| GOEST3-10 | 2026-08-31 14:13:57 | 50.92368 | 9.07503 | 53° | 84km/h | 14435m | -5.0m/s | 0°C | 0% | 0hPa | 4.5V | 00:00:00 | 00:00:00 | 00:00:00 | |
| DL1XH-west | 2026-08-31 14:13:56 | 50.92343 | 9.07446 | 58° | 88km/h | 14440m | -4.9m/s | -48.6°C | 0% | 0hPa | 4.5V | 00:00:00 | 00:00:00 | 00:00:00 | |
| DO3DL | 2026-08-31 14:13:54 | 50.92332 | 9.07417 | 62° | 86km/h | 14444m | -4.7m/s | -48.6°C | 0% | 0hPa | 4.5V | 00:00:00 | 00:00:00 | 00:00:00 | |
| DK7TD | 2026-08-31 14:13:53 | 50.92314 | 9.07356 | 68° | 82km/h | 14454m | -4.7m/s | -48.8°C | 0% | 0hPa | 4.5V | 00:00:00 | 00:00:00 | 00:00:00 | |
| DO3MHA-11 | 2026-08-31 14:13:52 | 50.92314 | 9.07356 | 69° | 73km/h | 14458m | -4.7m/s | 0°C | 0% | 0hPa | 4.5V | 00:00:00 | 00:00:00 | 00:00:00 | |
| GOEST3-10 | 2026-08-31 14:13:51 | 50.92307 | 9.07314 | 73° | 73km/h | 14463m | -4.7m/s | 0°C | 0% | 0hPa | 4.5V | 00:00:00 | 00:00:00 | 00:00:00 | |
| DF8AY | 2026-08-31 14:13:51 | 50.92302 | 9.07297 | 74° | 75km/h | 14462m | -4.7m/s | -48.8°C | 0% | 0hPa | 4.5V | 00:00:00 | 00:00:00 | 00:00:00 | |
| BIOWL1-15 | 2026-08-31 14:13:48 | 50.92292 | 9.07242 | 72° | 66km/h | 14473m | -5.3m/s | -48.9°C | 0% | 0hPa | 4.5V | 00:00:00 | 00:00:00 | 00:00:00 | |
| DO3DL | 2026-08-31 14:13:48 | 50.92292 | 9.07242 | 73° | 66km/h | 14473m | -5.3m/s | -48.9°C | 0% | 0hPa | 4.5V | 00:00:00 | 00:00:00 | 00:00:00 | |
| DO2JMG | 2026-08-31 14:13:47 | 50.92279 | 9.07194 | 62° | 64km/h | 14483m | -5.1m/s | -48.8°C | 0% | 0hPa | 4.5V | 00:00:00 | 00:00:00 | 00:00:00 | |
| GOEST3-10 | 2026-08-31 14:13:46 | 50.92279 | 9.07194 | 63° | 77km/h | 14493m | -4.6m/s | 0°C | 0% | 0hPa | 4.5V | 00:00:00 | 00:00:00 | 00:00:00 | |
| DL1XH-west | 2026-08-31 14:13:45 | 50.92261 | 9.07148 | 54° | 75km/h | 14493m | -4.6m/s | -48.9°C | 0% | 0hPa | 4.5V | 00:00:00 | 00:00:00 | 00:00:00 | |
| DB0UT-7 | 2026-08-31 14:13:45 | 50.92271 | 9.07173 | 54° | 77km/h | 14493m | -4.6m/s | 0°C | 0% | 0hPa | 4.5V | 00:00:00 | 00:00:00 | 00:00:00 | |
| TFSTFS | 2026-08-31 14:13:44 | 50.92249 | 9.07123 | 53° | 80km/h | 14498m | -4.8m/s | -49.0°C | 0% | 0hPa | 4.5V | 00:00:00 | 00:00:00 | 00:00:00 | |
| DK7TD | 2026-08-31 14:13:43 | 50.92236 | 9.07097 | 53° | 86km/h | 14502m | -5m/s | -49°C | 0% | 0hPa | 4.5V | 00:00:00 | 00:00:00 | 00:00:00 | |
| DO3MHA-11 | 2026-08-31 14:13:42 | 50.92236 | 9.07097 | 53° | 82km/h | 14508m | -5.3m/s | 0°C | 0% | 0hPa | 4.5V | 00:00:00 | 00:00:00 | 00:00:00 | |
| AA1-15 | 2026-08-31 14:13:41 | 50.92210 | 9.07038 | 59° | 91km/h | 14513m | -5.3m/s | -49°C | 0% | 0hPa | 4.5V | 00:00:00 | 00:00:00 | 00:00:00 | |
| DF8AY | 2026-08-31 14:13:40 | 50.92199 | 9.07006 | 63° | 91km/h | 14518m | -5.2m/s | -48.9°C | 0% | 0hPa | 4.5V | 00:00:00 | 00:00:00 | 00:00:00 | |
| DB0NH | 2026-08-31 14:13:40 | 50.92210 | 9.07039 | 64° | 77km/h | 14518m | -5.1m/s | 0°C | 0% | 0hPa | 4.5V | 00:00:00 | 00:00:00 | 00:00:00 | |
| HSKMA3-T | 2026-08-31 14:13:38 | 50.92190 | 9.06973 | 68° | 89km/h | 14523m | -5.1m/s | -48.9°C | 0% | 0hPa | 4.5V | 00:00:00 | 00:00:00 | 00:00:00 | |
| DL1NUX | 2026-08-31 14:13:38 | 50.92172 | 9.06880 | 75° | 73km/h | 14544m | -5.2m/s | 0°C | 0% | 0hPa | 0V | 00:00:00 | 00:00:00 | 00:00:00 | |
| GOEST3-10 | 2026-08-31 14:13:37 | 50.92182 | 9.06940 | 73° | 77km/h | 14533m | -5.0m/s | 0°C | 0% | 0hPa | 0V | 00:00:00 | 00:00:00 | 00:00:00 | |
| NBG1-10 | 2026-08-31 14:13:36 | 50.92176 | 9.06906 | 76° | 75km/h | 14539m | -5.1m/s | 0°C | 0% | 0hPa | 0V | 00:00:00 | 00:00:00 | 00:00:00 | |
| DO3DL | 2026-08-31 14:13:35 | 50.92171 | 9.06880 | 77° | 73km/h | 14539m | -5.2m/s | -48.9°C | 0% | 0hPa | 0V | 00:00:00 | 00:00:00 | 00:00:00 | |
| DL1XH-15 | 2026-08-31 14:13:34 | 50.92128 | 9.06744 | 48° | 73km/h | 14575m | -5.3m/s | 0°C | 0% | 0hPa | 0V | 00:00:00 | 00:00:00 | 00:00:00 | |
| DL1XH-west | 2026-08-31 14:13:33 | 50.92162 | 9.06828 | 71° | 62km/h | 14549m | -5.6m/s | -48.9°C | 0% | 0hPa | 4.5V | 00:00:00 | 00:00:00 | 00:00:00 | |
| DJTTGO | 2026-08-31 14:13:33 | 50.92163 | 9.06828 | 72° | 62km/h | 14549m | -5.6m/s | -48.9°C | 0% | 0hPa | 4.5V | 00:00:00 | 00:00:00 | 00:00:00 | |
| DO2JMG | 2026-08-31 14:13:32 | 50.92157 | 9.06806 | 64° | 58km/h | 14555m | -5.4m/s | -49.3°C | 0% | 0hPa | 4.5V | 00:00:00 | 00:00:00 | 00:00:00 | |
| DO3MHA-11 | 2026-08-31 14:13:32 | 50.92156 | 9.06806 | 57° | 78km/h | 14560m | -5.2m/s | 0°C | 0% | 0hPa | 4.5V | 00:00:00 | 00:00:00 | 00:00:00 | |
| DL3OBA | 2026-08-31 14:13:31 | 50.92139 | 9.06765 | 52° | 66km/h | 14565m | -5.1m/s | -49.0°C | 0% | 0hPa | 4.5V | 00:00:00 | 00:00:00 | 00:00:00 | |
| DF8AY | 2026-08-31 14:13:30 | 50.92128 | 9.06744 | 49° | 73km/h | 14570m | -5.1m/s | -49.1°C | 0% | 0hPa | 4.5V | 00:00:00 | 00:00:00 | 00:00:00 | |
| DL1NUX | 2026-08-31 14:13:28 | 50.92077 | 9.06637 | 64° | 91km/h | 14596m | -5.3m/s | 0°C | 0% | 0hPa | 0V | 00:00:00 | 00:00:00 | 00:00:00 | |
| BIOWL1-15 | 2026-08-31 14:13:28 | 50.92102 | 9.06696 | 52° | 86km/h | 14580m | -5.5m/s | -49.1°C | 0% | 0hPa | 4.5V | 00:00:00 | 00:00:00 | 00:00:00 | |
| DF1GD-15 | 2026-08-31 14:13:26 | 50.92089 | 9.06667 | 56° | 89km/h | 14586m | -5.4m/s | -49.1°C | 0% | 0hPa | 4.5V | 00:00:00 | 00:00:00 | 00:00:00 | |
| DD1CC2-15 | 2026-08-31 14:13:24 | 50.92066 | 9.06604 | 66° | 89km/h | 14597m | -5.3m/s | -42.5°C | 0% | 0hPa | 4.5V | 00:00:00 | 00:00:00 | 00:00:00 | |
| DL1XH-west | 2026-08-31 14:13:23 | 50.92050 | 9.06540 | 73° | 80km/h | 14607m | -5.1m/s | -49.1°C | 0% | 0hPa | 4.5V | 00:00:00 | 00:00:00 | 00:00:00 | |
| DO3MHA-11 | 2026-08-31 14:13:22 | 50.92050 | 9.06540 | 73° | 71km/h | 14612m | -5.1m/s | 0°C | 0% | 0hPa | 4.5V | 00:00:00 | 00:00:00 | 00:00:00 | |
| AA1-15 | 2026-08-31 14:13:21 | 50.92041 | 9.06484 | 74° | 66km/h | 14618m | -5.2m/s | -49.2°C | 0% | 0hPa | 4.5V | 00:00:00 | 00:00:00 | 00:00:00 | |
| DK7TD | 2026-08-31 14:13:19 | 50.92029 | 9.06439 | 61° | 57km/h | 14628m | -5.1m/s | -49.3°C | 0% | 0hPa | 4.5V | 00:00:00 | 00:00:00 | 00:00:00 | |
| AM1SDL-15 | 2026-08-31 14:13:18 | 50.92029 | 9.06439 | 62° | 71km/h | 14680m | -4.9m/s | 0°C | 0% | 0hPa | 4.5V | 00:00:00 | 00:00:00 | 00:00:00 | |
| BIOWL1-15 | 2026-08-31 14:13:17 | 50.92021 | 9.06420 | 53° | 60km/h | 14633m | -5.1m/s | -49.4°C | 0% | 0hPa | 4.5V | 00:00:00 | 00:00:00 | 00:00:00 | |
| HSKMA3-T | 2026-08-31 14:13:17 | 50.92011 | 9.06401 | 47° | 66km/h | 14638m | -5m/s | -49.4°C | 0% | 0hPa | 4.5V | 00:00:00 | 00:00:00 | 00:00:00 | |
| DO3DL | 2026-08-31 14:13:16 | 50.91999 | 9.06381 | 46° | 73km/h | 14644m | -5.0m/s | -49.5°C | 0% | 0hPa | 0V | 00:00:00 | 00:00:00 | 00:00:00 | |
| DB0UT-7 | 2026-08-31 14:13:15 | 50.91999 | 9.06381 | 45° | 80km/h | 14649m | -5.2m/s | 0°C | 0% | 0hPa | 0V | 00:00:00 | 00:00:00 | 00:00:00 | |
| DM0DOS-11 | 2026-08-31 14:13:14 | 50.91922 | 9.06211 | 67° | 88km/h | 14711m | -4.9m/s | 0°C | 0% | 0hPa | 0V | 00:00:00 | 00:00:00 | 00:00:00 | |
| DO8TBO-1 | 2026-08-31 14:13:14 | 50.91985 | 9.06359 | 46° | 82km/h | 14654m | -5.3m/s | 0°C | 0% | 0hPa | 4.5V | 00:00:00 | 00:00:00 | 00:00:00 | |
| SO1NDE-10 | 2026-08-31 14:13:13 | 50.91971 | 9.06334 | 49° | 82km/h | 14660m | -5.2m/s | 0°C | 0% | 0hPa | 4.5V | 00:00:00 | 00:00:00 | 00:00:00 | |
| DL1XH-west | 2026-08-31 14:13:12 | 50.91943 | 9.06277 | 58° | 93km/h | 14665m | -5.2m/s | -49.4°C | 0% | 0hPa | 4.5V | 00:00:00 | 00:00:00 | 00:00:00 | |
| DB0NH | 2026-08-31 14:13:10 | 50.91931 | 9.06243 | 68° | 82km/h | 14675m | -4.7m/s | 0°C | 0% | 0hPa | 0V | 00:00:00 | 00:00:00 | 00:00:00 | |
| AA1-15 | 2026-08-31 14:13:10 | 50.91922 | 9.06211 | 68° | 88km/h | 14675m | -4.7m/s | -49.3°C | 0% | 0hPa | 4.5V | 00:00:00 | 00:00:00 | 00:00:00 | |
| GOEST3-10 | 2026-08-31 14:13:09 | 50.91921 | 9.06211 | 68° | 78km/h | 14680m | -4.9m/s | 0°C | 0% | 0hPa | 0V | 00:00:00 | 00:00:00 | 00:00:00 | |
| DL1NUX | 2026-08-31 14:13:08 | 50.91897 | 9.06098 | 66° | 62km/h | 14701m | -5.2m/s | 0°C | 0% | 0hPa | 0V | 00:00:00 | 00:00:00 | 00:00:00 | |
| DF8AY | 2026-08-31 14:13:08 | 50.91908 | 9.06149 | 73° | 75km/h | 14685m | -5.2m/s | -49.3°C | 0% | 0hPa | 4.5V | 00:00:00 | 00:00:00 | 00:00:00 | |
| BIOWL1-15 | 2026-08-31 14:13:07 | 50.91881 | 9.06055 | 52° | 66km/h | 14707m | -5m/s | -49.3°C | 0% | 0hPa | 4.5V | 00:00:00 | 00:00:00 | 00:00:00 | |
| HSKMA3-T | 2026-08-31 14:13:06 | 50.91897 | 9.06098 | 67° | 62km/h | 14696m | -5.5m/s | -49.3°C | 0% | 0hPa | 4.5V | 00:00:00 | 00:00:00 | 00:00:00 | |
| GOEST3-10 | 2026-08-31 14:13:04 | 50.91897 | 9.06076 | 59° | 73km/h | 14701m | -5.1m/s | 0°C | 0% | 0hPa | 0V | 00:00:00 | 00:00:00 | 00:00:00 | |
| DM0DOS-11 | 2026-08-31 14:13:03 | 50.91813 | 9.05926 | 56° | 99km/h | 14738m | -5.4m/s | 0°C | 0% | 0hPa | 0V | 00:00:00 | 00:00:00 | 00:00:00 | |
| DO2JMG | 2026-08-31 14:13:03 | 50.91869 | 9.06034 | 48° | 73km/h | 14711m | -4.9m/s | -49.4°C | 0% | 0hPa | 4.5V | 00:00:00 | 00:00:00 | 00:00:00 | |
| DL1XH-west | 2026-08-31 14:13:02 | 50.91856 | 9.06012 | 47° | 82km/h | 14717m | -5.1m/s | -49.4°C | 0% | 0hPa | 4.5V | 00:00:00 | 00:00:00 | 00:00:00 | |
| DO3MHA-11 | 2026-08-31 14:13:02 | 50.91869 | 9.06037 | 48° | 88km/h | 14717m | -5.0m/s | 0°C | 0% | 0hPa | 0V | 00:00:00 | 00:00:00 | 00:00:00 | |
| DL1XH-15 | 2026-08-31 14:13:01 | 50.91789 | 9.05858 | 65° | 95km/h | 14749m | -5.2m/s | 0°C | 0% | 0hPa | 0V | 00:00:00 | 00:00:00 | 00:00:00 | |
| BIOWL1-15 | 2026-08-31 14:12:57 | 50.91789 | 9.05858 | 66° | 95km/h | 14744m | -5.2m/s | -49.3°C | 0% | 0hPa | 4.5V | 00:00:00 | 00:00:00 | 00:00:00 | |
| DO3DL | 2026-08-31 14:12:56 | 50.91789 | 9.05858 | 67° | 95km/h | 14744m | -5.2m/s | -49.3°C | 0% | 0hPa | 4.5V | 00:00:00 | 00:00:00 | 00:00:00 | |
| HSKMA3-T | 2026-08-31 14:12:55 | 50.91773 | 9.05791 | 73° | 82km/h | 14754m | -5.1m/s | -49.3°C | 0% | 0hPa | 4.5V | 00:00:00 | 00:00:00 | 00:00:00 | |
| DM0DOS-11 | 2026-08-31 14:12:53 | 50.91729 | 9.05643 | 50° | 75km/h | 14792m | -5.2m/s | 0°C | 0% | 0hPa | 0V | 00:00:00 | 00:00:00 | 00:00:00 | |
| DO3MHA-11 | 2026-08-31 14:12:52 | 50.91762 | 9.05733 | 73° | 80km/h | 14770m | -5.4m/s | 0°C | 0% | 0hPa | 0V | 00:00:00 | 00:00:00 | 00:00:00 | |
| DL1XH-15 | 2026-08-31 14:12:51 | 50.91703 | 9.05591 | 52° | 91km/h | 14802m | -5.5m/s | 0°C | 0% | 0hPa | 0V | 00:00:00 | 00:00:00 | 00:00:00 | |
| DL1XH-west | 2026-08-31 14:12:51 | 50.91749 | 9.05687 | 60° | 62km/h | 14775m | -5.4m/s | -49°C | 0% | 0hPa | 4.5V | 00:00:00 | 00:00:00 | 00:00:00 | |
| DO3DL | 2026-08-31 14:12:50 | 50.91749 | 9.05686 | 61° | 62km/h | 14775m | -5.4m/s | -49.0°C | 0% | 0hPa | 4.5V | 00:00:00 | 00:00:00 | 00:00:00 | |
| DM7RM-13 | 2026-08-31 14:12:49 | 50.91729 | 9.05643 | 51° | 75km/h | 14786m | -5.2m/s | -42.4°C | 0% | 0hPa | 4.5V | 00:00:00 | 00:00:00 | 00:00:00 | |
| DO2JMG | 2026-08-31 14:12:49 | 50.91729 | 9.05643 | 50° | 75km/h | 14786m | -5.2m/s | -49°C | 0% | 0hPa | 4.5V | 00:00:00 | 00:00:00 | 00:00:00 | |
| AA1-15 | 2026-08-31 14:12:47 | 50.91703 | 9.05591 | 53° | 91km/h | 14797m | -5.2m/s | -49°C | 0% | 0hPa | 4.5V | 00:00:00 | 00:00:00 | 00:00:00 | |
| GOEST3-10 | 2026-08-31 14:12:46 | 50.91703 | 9.05591 | 53° | 95km/h | 14808m | -5.6m/s | 0°C | 0% | 0hPa | 4.5V | 00:00:00 | 00:00:00 | 00:00:00 | |
| DB0UT-7 | 2026-08-31 14:12:45 | 50.91689 | 9.05561 | 57° | 80km/h | 14808m | -5.6m/s | 0°C | 0% | 0hPa | 4.5V | 00:00:00 | 00:00:00 | 00:00:00 | |
| HSKMA3-T | 2026-08-31 14:12:44 | 50.91666 | 9.05493 | 67° | 97km/h | 14814m | -5.6m/s | -49°C | 0% | 0hPa | 4.5V | 00:00:00 | 00:00:00 | 00:00:00 | |
| SO1NDE-10 | 2026-08-31 14:12:43 | 50.91666 | 9.05493 | 67° | 78km/h | 14819m | -5.4m/s | 0°C | 0% | 0hPa | 0V | 00:00:00 | 00:00:00 | 00:00:00 | |
| DO3MHA-11 | 2026-08-31 14:12:42 | 50.91658 | 9.05456 | 76° | 75km/h | 14825m | -5.2m/s | 0°C | 0% | 0hPa | 0V | 00:00:00 | 00:00:00 | 00:00:00 | |
| DO2KSM | 2026-08-31 14:12:41 | 50.91651 | 9.05424 | 76° | 86km/h | 14825m | -5.2m/s | -49.1°C | 0% | 0hPa | 0V | 00:00:00 | 00:00:00 | 00:00:00 | |
| DL1NUX | 2026-08-31 14:12:40 | 50.91619 | 9.05266 | 56° | 68km/h | 14863m | -5.4m/s | 0°C | 0% | 0hPa | 0V | 00:00:00 | 00:00:00 | 00:00:00 | |
| DB0NH | 2026-08-31 14:12:40 | 50.91646 | 9.05389 | 79° | 78km/h | 14836m | -5.6m/s | 0°C | 0% | 0hPa | 4.5V | 00:00:00 | 00:00:00 | 00:00:00 | |
| DL1XH-west | 2026-08-31 14:12:40 | 50.91642 | 9.05362 | 78° | 71km/h | 14836m | -5.6m/s | -49.2°C | 0% | 0hPa | 4.5V | 00:00:00 | 00:00:00 | 00:00:00 | |
| DO2JMG | 2026-08-31 14:12:38 | 50.91634 | 9.05311 | 70° | 62km/h | 14847m | -5.4m/s | -49.2°C | 0% | 0hPa | 4.5V | 00:00:00 | 00:00:00 | 00:00:00 | |
| DO3DL | 2026-08-31 14:12:37 | 50.91634 | 9.05311 | 70° | 62km/h | 14847m | -5.4m/s | -49.2°C | 0% | 0hPa | 4.5V | 00:00:00 | 00:00:00 | 00:00:00 | |
| AA1-15 | 2026-08-31 14:12:36 | 50.91619 | 9.05266 | 57° | 68km/h | 14857m | -5.2m/s | -49.3°C | 0% | 0hPa | 4.5V | 00:00:00 | 00:00:00 | 00:00:00 | |
| GOEST3-10 | 2026-08-31 14:12:35 | 50.91619 | 9.05266 | 57° | 84km/h | 14863m | -5.4m/s | 0°C | 0% | 0hPa | 4.5V | 00:00:00 | 00:00:00 | 00:00:00 | |
| HSKMA3-T | 2026-08-31 14:12:34 | 50.91597 | 9.05217 | 55° | 82km/h | 14868m | -5.5m/s | -49.3°C | 0% | 0hPa | 4.5V | 00:00:00 | 00:00:00 | 00:00:00 | |
| DM0DOS-11 | 2026-08-31 14:12:33 | 50.91542 | 9.05053 | 71° | 93km/h | 14902m | -5.6m/s | 0°C | 0% | 0hPa | 0V | 00:00:00 | 00:00:00 | 00:00:00 | |
| DO3MHA-11 | 2026-08-31 14:12:32 | 50.91585 | 9.05188 | 57° | 82km/h | 14879m | -5.5m/s | 0°C | 0% | 0hPa | 0V | 00:00:00 | 00:00:00 | 00:00:00 | |
| DL1XH-15 | 2026-08-31 14:12:31 | 50.91531 | 9.04987 | 77° | 78km/h | 14913m | -5.3m/s | 0°C | 0% | 0hPa | 0V | 00:00:00 | 00:00:00 | 00:00:00 | |
| DO3DL | 2026-08-31 14:12:31 | 50.91561 | 9.05123 | 64° | 97km/h | 14885m | -5.5m/s | -49.2°C | 0% | 0hPa | 4.5V | 00:00:00 | 00:00:00 | 00:00:00 | |
| TFSTFS | 2026-08-31 14:12:30 | 50.91561 | 9.05123 | 64° | 97km/h | 14885m | -5.5m/s | -49.2°C | 0% | 0hPa | 4.5V | 00:00:00 | 00:00:00 | 00:00:00 | |
| DL1XH-west | 2026-08-31 14:12:29 | 50.91542 | 9.05053 | 72° | 93km/h | 14896m | -5.6m/s | -49°C | 0% | 0hPa | 4.5V | 00:00:00 | 00:00:00 | 00:00:00 | |
| DM7RM-13 | 2026-08-31 14:12:28 | 50.91542 | 9.05053 | 73° | 93km/h | 14896m | -5.6m/s | -42.5°C | 0% | 0hPa | 4.5V | 00:00:00 | 00:00:00 | 00:00:00 | |
| DO2JMG | 2026-08-31 14:12:27 | 50.91531 | 9.04987 | 78° | 78km/h | 14907m | -5.2m/s | -48.9°C | 0% | 0hPa | 4.5V | 00:00:00 | 00:00:00 | 00:00:00 | |
| GOEST3-10 | 2026-08-31 14:12:25 | 50.91527 | 9.04951 | 65° | 64km/h | 14918m | -5.5m/s | 0°C | 0% | 0hPa | 0V | 00:00:00 | 00:00:00 | 00:00:00 | |
| BIOWL1-15 | 2026-08-31 14:12:25 | 50.91523 | 9.04932 | 77° | 62km/h | 14918m | -5.5m/s | -48.9°C | 0% | 0hPa | 4.5V | 00:00:00 | 00:00:00 | 00:00:00 | |
| DO3DL | 2026-08-31 14:12:24 | 50.91523 | 9.04932 | 78° | 62km/h | 14918m | -5.5m/s | -48.9°C | 0% | 0hPa | 0V | 00:00:00 | 00:00:00 | 00:00:00 | |
| DM0DOS-11 | 2026-08-31 14:12:23 | 50.91474 | 9.04794 | 55° | 88km/h | 14957m | -5.8m/s | 0°C | 0% | 0hPa | 0V | 00:00:00 | 00:00:00 | 00:00:00 | |
| HSKMA3-T | 2026-08-31 14:12:23 | 50.91514 | 9.04888 | 65° | 57km/h | 14930m | -5.9m/s | -48.9°C | 0% | 0hPa | 4.5V | 00:00:00 | 00:00:00 | 00:00:00 | |
| DL1XH-15 | 2026-08-31 14:12:21 | 50.91450 | 9.04728 | 73° | 95km/h | 14969m | -5.8m/s | 0°C | 0% | 0hPa | 0V | 00:00:00 | 00:00:00 | 00:00:00 | |
| AA1-15 | 2026-08-31 14:12:21 | 50.91497 | 9.04846 | 54° | 69km/h | 14941m | -5.3m/s | -48.9°C | 0% | 0hPa | 4.5V | 00:00:00 | 00:00:00 | 00:00:00 | |
| DL1NUX | 2026-08-31 14:12:20 | 50.91441 | 9.04696 | 68° | 93km/h | 14975m | -5.7m/s | 0°C | 0% | 0hPa | 0V | 00:00:00 | 00:00:00 | 00:00:00 | |
| GOEST3-10 | 2026-08-31 14:12:19 | 50.91486 | 9.04822 | 54° | 89km/h | 14952m | -5.4m/s | 0°C | 0% | 0hPa | 4.5V | 00:00:00 | 00:00:00 | 00:00:00 | |
| DL1XH-west | 2026-08-31 14:12:18 | 50.91474 | 9.04794 | 56° | 88km/h | 14951m | -5.5m/s | -48.9°C | 0% | 0hPa | 4.5V | 00:00:00 | 00:00:00 | 00:00:00 | |
| DO3DL | 2026-08-31 14:12:17 | 50.91462 | 9.04764 | 60° | 93km/h | 14957m | -5.8m/s | -48.9°C | 0% | 0hPa | 4.5V | 00:00:00 | 00:00:00 | 00:00:00 | |
| DO2JMG | 2026-08-31 14:12:16 | 50.91441 | 9.04696 | 69° | 93km/h | 14969m | -5.8m/s | -48.8°C | 0% | 0hPa | 4.5V | 00:00:00 | 00:00:00 | 00:00:00 | |
| DB0UT-7 | 2026-08-31 14:12:15 | 50.91440 | 9.04696 | 69° | 77km/h | 14975m | -5.6m/s | 0°C | 0% | 0hPa | 4.5V | 00:00:00 | 00:00:00 | 00:00:00 | |
| GOEST3-10 | 2026-08-31 14:12:14 | 50.91433 | 9.04654 | 78° | 86km/h | 14981m | -5.4m/s | 0°C | 0% | 0hPa | 4.5V | 00:00:00 | 00:00:00 | 00:00:00 | |
| BIOWL1-15 | 2026-08-31 14:12:13 | 50.91428 | 9.04628 | 78° | 82km/h | 14981m | -5.4m/s | -48.9°C | 0% | 0hPa | 4.5V | 00:00:00 | 00:00:00 | 00:00:00 | |
| DM0DOS-11 | 2026-08-31 14:12:13 | 50.91405 | 9.04510 | 52° | 60km/h | 15015m | -5.5m/s | 0°C | 0% | 0hPa | 0V | 00:00:00 | 00:00:00 | 00:00:00 | |
| SO1NDE-10 | 2026-08-31 14:12:13 | 50.91428 | 9.04628 | 78° | 75km/h | 14986m | -5.4m/s | 0°C | 0% | 0hPa | 4.5V | 00:00:00 | 00:00:00 | 00:00:00 | |
| HSKMA3-T | 2026-08-31 14:12:12 | 50.91421 | 9.04571 | 79° | 64km/h | 14992m | -5.7m/s | -48.9°C | 0% | 0hPa | 4.5V | 00:00:00 | 00:00:00 | 00:00:00 | |
| DL1NUX | 2026-08-31 14:12:10 | 50.91372 | 9.04436 | 56° | 88km/h | 15032m | -5.5m/s | 0°C | 0% | 0hPa | 0V | 00:00:00 | 00:00:00 | 00:00:00 | |
| DB0NH | 2026-08-31 14:12:10 | 50.91417 | 9.04547 | 65° | 75km/h | 15003m | -5.7m/s | 0°C | 0% | 0hPa | 4.5V | 00:00:00 | 00:00:00 | 00:00:00 | |
| GOEST3-10 | 2026-08-31 14:12:09 | 50.91412 | 9.04527 | 65° | 66km/h | 15009m | -5.7m/s | 0°C | 0% | 0hPa | 4.5V | 00:00:00 | 00:00:00 | 00:00:00 | |
| DM7RM-13 | 2026-08-31 14:12:08 | 50.91405 | 9.04508 | 57° | 60km/h | 15009m | -5.8m/s | -42.5°C | 0% | 0hPa | 4.5V | 00:00:00 | 00:00:00 | 00:00:00 | |
| DL1XH-west | 2026-08-31 14:12:07 | 50.91395 | 9.04487 | 52° | 69km/h | 15015m | -5.5m/s | -49.1°C | 0% | 0hPa | 4.5V | 00:00:00 | 00:00:00 | 00:00:00 | |
| DO2JMG | 2026-08-31 14:12:05 | 50.91372 | 9.04436 | 57° | 88km/h | 15026m | -5.5m/s | -49.1°C | 0% | 0hPa | 4.5V | 00:00:00 | 00:00:00 | 00:00:00 | |
| DF2AP-13 | 2026-08-31 14:12:05 | 50.91372 | 9.04436 | 57° | 78km/h | 15032m | -5.5m/s | 0°C | 0% | 0hPa | 4.5V | 00:00:00 | 00:00:00 | 00:00:00 | |
| BIOWL7-15 | 2026-08-31 14:12:04 | 50.91360 | 9.04405 | 63° | 93km/h | 15032m | -5.5m/s | -49.1°C | 0% | 0hPa | 4.5V | 00:00:00 | 00:00:00 | 00:00:00 | |
| BIOWL1-15 | 2026-08-31 14:12:03 | 50.91350 | 9.04371 | 68° | 95km/h | 15037m | -5.7m/s | -49.1°C | 0% | 0hPa | 4.5V | 00:00:00 | 00:00:00 | 00:00:00 | |
| DM0DOS-11 | 2026-08-31 14:12:03 | 50.91328 | 9.04216 | 78° | 60km/h | 15071m | -5.8m/s | 0°C | 0% | 0hPa | 0V | 00:00:00 | 00:00:00 | 00:00:00 | |
| DO3MHA-11 | 2026-08-31 14:12:02 | 50.91342 | 9.04336 | 74° | 73km/h | 15049m | -5.6m/s | 0°C | 0% | 0hPa | 0V | 00:00:00 | 00:00:00 | 00:00:00 | |
| DL1XH-15 | 2026-08-31 14:12:01 | 50.91318 | 9.04173 | 61° | 58km/h | 15082m | -5.8m/s | 0°C | 0% | 0hPa | 0V | 00:00:00 | 00:00:00 | 00:00:00 | |
| HSKMA3-T | 2026-08-31 14:12:01 | 50.91333 | 9.04270 | 81° | 77km/h | 15054m | -5.5m/s | -49.2°C | 0% | 0hPa | 4.5V | 00:00:00 | 00:00:00 | 00:00:00 | |
| DO2KSM | 2026-08-31 14:12:00 | 50.91333 | 9.04269 | 82° | 77km/h | 15054m | -5.5m/s | -49.2°C | 0% | 0hPa | 4.5V | 00:00:00 | 00:00:00 | 00:00:00 | |
| DO3DL | 2026-08-31 14:11:58 | 50.91328 | 9.04216 | 79° | 60km/h | 15065m | -5.6m/s | -49.2°C | 0% | 0hPa | 4.5V | 00:00:00 | 00:00:00 | 00:00:00 | |
| AA1-15 | 2026-08-31 14:11:57 | 50.91318 | 9.04173 | 61° | 58km/h | 15077m | -6m/s | -49.4°C | 0% | 0hPa | 4.5V | 00:00:00 | 00:00:00 | 00:00:00 | |
| NBG1-10 | 2026-08-31 14:11:56 | 50.91318 | 9.04173 | 62° | 77km/h | 15083m | -5.7m/s | 0°C | 0% | 0hPa | 4.5V | 00:00:00 | 00:00:00 | 00:00:00 | |
| DO2JMG | 2026-08-31 14:11:55 | 50.91299 | 9.04128 | 56° | 77km/h | 15088m | -5.5m/s | -49.4°C | 0% | 0hPa | 4.5V | 00:00:00 | 00:00:00 | 00:00:00 | |
| DM0DOS-11 | 2026-08-31 14:11:53 | 50.91252 | 9.03926 | 83° | 80km/h | 15128m | -5.6m/s | 0°C | 0% | 0hPa | 0V | 00:00:00 | 00:00:00 | 00:00:00 | |
| BIOWL1-15 | 2026-08-31 14:11:52 | 50.91277 | 9.04069 | 64° | 93km/h | 15099m | -5.5m/s | -49.4°C | 0% | 0hPa | 4.5V | 00:00:00 | 00:00:00 | 00:00:00 | |
| DO3MHA-11 | 2026-08-31 14:11:52 | 50.91277 | 9.04069 | 64° | 77km/h | 15105m | -5.5m/s | 0°C | 0% | 0hPa | 0V | 00:00:00 | 00:00:00 | 00:00:00 | |
| DL1XH-15 | 2026-08-31 14:11:51 | 50.91247 | 9.03872 | 72° | 62km/h | 15139m | -5.4m/s | 0°C | 0% | 0hPa | 0V | 00:00:00 | 00:00:00 | 00:00:00 | |
| HSKMA3-T | 2026-08-31 14:11:51 | 50.91260 | 9.03999 | 74° | 95km/h | 15111m | -5.8m/s | -49.3°C | 0% | 0hPa | 4.5V | 00:00:00 | 00:00:00 | 00:00:00 | |
| DL1NUX | 2026-08-31 14:11:50 | 50.91243 | 9.03851 | 72° | 57km/h | 15144m | -5.6m/s | 0°C | 0% | 0hPa | 0V | 00:00:00 | 00:00:00 | 00:00:00 | |
| THATR2-17 | 2026-08-31 14:11:50 | 50.91252 | 9.03930 | 82° | 80km/h | 15122m | 0m/s | 0°C | 0% | 0hPa | 4.5V | 00:00:00 | 00:00:00 | 00:00:00 | |
| GOEST3-10 | 2026-08-31 14:11:47 | 50.91249 | 9.03900 | 84° | 62km/h | 15134m | -5.3m/s | 0°C | 0% | 0hPa | 4.5V | 00:00:00 | 00:00:00 | 00:00:00 | |
| DL1XH-west | 2026-08-31 14:11:46 | 50.91243 | 9.03851 | 72° | 57km/h | 15139m | -5.4m/s | -49.3°C | 0% | 0hPa | 4.5V | 00:00:00 | 00:00:00 | 00:00:00 | |
| AM1SDL-15 | 2026-08-31 14:11:46 | 50.91247 | 9.03914 | 57° | 66km/h | 15139m | -5.4m/s | 0°C | 0% | 0hPa | 4.5V | 00:00:00 | 00:00:00 | 00:00:00 | |
| DB0UT-7 | 2026-08-31 14:11:45 | 50.91243 | 9.03851 | 73° | 75km/h | 15145m | -5.5m/s | 0°C | 0% | 0hPa | 4.5V | 00:00:00 | 00:00:00 | 00:00:00 | |
| DO2JMG | 2026-08-31 14:11:44 | 50.91231 | 9.03810 | 58° | 62km/h | 15150m | -5.9m/s | -49.3°C | 0% | 0hPa | 4.5V | 00:00:00 | 00:00:00 | 00:00:00 | |
| SO1NDE-10 | 2026-08-31 14:11:43 | 50.91231 | 9.03810 | 58° | 77km/h | 15156m | -5.8m/s | 0°C | 0% | 0hPa | 4.5V | 00:00:00 | 00:00:00 | 00:00:00 | |
| BIOWL1-15 | 2026-08-31 14:11:42 | 50.91211 | 9.03763 | 59° | 78km/h | 15162m | -5.8m/s | -49.3°C | 0% | 0hPa | 4.5V | 00:00:00 | 00:00:00 | 00:00:00 | |
| DO3MHA-11 | 2026-08-31 14:11:42 | 50.91221 | 9.03792 | 59° | 78km/h | 15162m | -5.7m/s | 0°C | 0% | 0hPa | 0V | 00:00:00 | 00:00:00 | 00:00:00 | |
| DL1XH-15 | 2026-08-31 14:11:41 | 50.91177 | 9.03598 | 83° | 80km/h | 15195m | -5.5m/s | 0°C | 0% | 0hPa | 0V | 00:00:00 | 00:00:00 | 00:00:00 | |
| DL1NUX | 2026-08-31 14:11:40 | 50.91175 | 9.03568 | 85° | 71km/h | 15200m | -5.2m/s | 0°C | 0% | 0hPa | 0V | 00:00:00 | 00:00:00 | 00:00:00 | |
| HSKMA3-T | 2026-08-31 14:11:40 | 50.91192 | 9.03701 | 69° | 91km/h | 15173m | -5.2m/s | -49.2°C | 0% | 0hPa | 4.5V | 00:00:00 | 00:00:00 | 00:00:00 | |
| DB0NH | 2026-08-31 14:11:40 | 50.91201 | 9.03736 | 70° | 78km/h | 15173m | -5.2m/s | 0°C | 0% | 0hPa | 4.5V | 00:00:00 | 00:00:00 | 00:00:00 | |
| DO3DL | 2026-08-31 14:11:39 | 50.91185 | 9.03666 | 76° | 91km/h | 15178m | -5.6m/s | -49.2°C | 0% | 0hPa | 4.5V | 00:00:00 | 00:00:00 | 00:00:00 | |
| GOEST3-10 | 2026-08-31 14:11:37 | 50.91180 | 9.03631 | 81° | 71km/h | 15189m | -5.7m/s | 0°C | 0% | 0hPa | 4.5V | 00:00:00 | 00:00:00 | 00:00:00 | |
| DL1XH-west | 2026-08-31 14:11:36 | 50.91176 | 9.03568 | 85° | 71km/h | 15195m | -5.5m/s | -49°C | 0% | 0hPa | 4.5V | 00:00:00 | 00:00:00 | 00:00:00 | |
| DF2AP-13 | 2026-08-31 14:11:35 | 50.91175 | 9.03568 | 86° | 77km/h | 15201m | -5.1m/s | 0°C | 0% | 0hPa | 0V | 00:00:00 | 00:00:00 | 00:00:00 | |
| DM0DOS-11 | 2026-08-31 14:11:33 | 50.91131 | 9.03394 | 65° | 89km/h | 15239m | -5.4m/s | 0°C | 0% | 0hPa | 0V | 00:00:00 | 00:00:00 | 00:00:00 | |
| DO2JMG | 2026-08-31 14:11:33 | 50.91166 | 9.03497 | 66° | 57km/h | 15211m | -5.6m/s | -48.8°C | 0% | 0hPa | 4.5V | 00:00:00 | 00:00:00 | 00:00:00 | |
| DO3MHA-11 | 2026-08-31 14:11:32 | 50.91166 | 9.03497 | 67° | 80km/h | 15217m | -5.6m/s | 0°C | 0% | 0hPa | 0V | 00:00:00 | 00:00:00 | 00:00:00 | |
| DL1XH-15 | 2026-08-31 14:11:31 | 50.91116 | 9.03323 | 76° | 95km/h | 15250m | -5.9m/s | 0°C | 0% | 0hPa | 0V | 00:00:00 | 00:00:00 | 00:00:00 | |
| BIOWL1-15 | 2026-08-31 14:11:31 | 50.91151 | 9.03452 | 59° | 73km/h | 15223m | -5.5m/s | -48.8°C | 0% | 0hPa | 4.5V | 00:00:00 | 00:00:00 | 00:00:00 | |
| AM1SDL-15 | 2026-08-31 14:11:31 | 50.91160 | 9.03494 | 62° | 71km/h | 15223m | -5.4m/s | 0°C | 0% | 0hPa | 0V | 00:00:00 | 00:00:00 | 00:00:00 | |
| DL1NUX | 2026-08-31 14:11:30 | 50.91111 | 9.03277 | 88° | 91km/h | 15261m | -5.6m/s | 0°C | 0% | 0hPa | 0V | 00:00:00 | 00:00:00 | 00:00:00 | |
| HSKMA3-T | 2026-08-31 14:11:29 | 50.91131 | 9.03394 | 65° | 89km/h | 15234m | -5.5m/s | -48.7°C | 0% | 0hPa | 4.5V | 00:00:00 | 00:00:00 | 00:00:00 | |
| GOEST3-10 | 2026-08-31 14:11:27 | 50.91122 | 9.03360 | 77° | 89km/h | 15245m | -5.2m/s | 0°C | 0% | 0hPa | 4.5V | 00:00:00 | 00:00:00 | 00:00:00 | |
| DO3DL | 2026-08-31 14:11:26 | 50.91116 | 9.03323 | 77° | 95km/h | 15245m | -5.3m/s | -48.4°C | 0% | 0hPa | 4.5V | 00:00:00 | 00:00:00 | 00:00:00 | |
| DL1XH-west | 2026-08-31 14:11:25 | 50.91108 | 9.03251 | 86° | 86km/h | 15256m | -5.7m/s | -48.5°C | 0% | 0hPa | 4.5V | 00:00:00 | 00:00:00 | 00:00:00 | |
| DO2JMG | 2026-08-31 14:11:23 | 50.91107 | 9.03190 | 88° | 69km/h | 15267m | -5.4m/s | -48.5°C | 0% | 0hPa | 4.5V | 00:00:00 | 00:00:00 | 00:00:00 | |
| DO3MHA-11 | 2026-08-31 14:11:22 | 50.91106 | 9.03190 | 88° | 77km/h | 15273m | -5.2m/s | 0°C | 0% | 0hPa | 0V | 00:00:00 | 00:00:00 | 00:00:00 | |
| DD1CC2-15 | 2026-08-31 14:11:21 | 50.91105 | 9.03164 | 83° | 60km/h | 15273m | -5.3m/s | -42.0°C | 0% | 0hPa | 0V | 00:00:00 | 00:00:00 | 00:00:00 | |
| DL1NUX | 2026-08-31 14:11:20 | 50.91061 | 9.03004 | 70° | 95km/h | 15311m | -5.3m/s | 0°C | 0% | 0hPa | 0V | 00:00:00 | 00:00:00 | 00:00:00 | |
| BIOWL1-15 | 2026-08-31 14:11:20 | 50.91096 | 9.03118 | 65° | 62km/h | 15283m | -5.5m/s | -48.7°C | 0% | 0hPa | 4.5V | 00:00:00 | 00:00:00 | 00:00:00 | |
| DK7TD | 2026-08-31 14:11:19 | 50.91089 | 9.03095 | 61° | 71km/h | 15289m | -5.5m/s | -48.7°C | 0% | 0hPa | 4.5V | 00:00:00 | 00:00:00 | 00:00:00 | |
| HSKMA3-T | 2026-08-31 14:11:18 | 50.91079 | 9.03068 | 61° | 80km/h | 15295m | -5.6m/s | -48.7°C | 0% | 0hPa | 4.6V | 00:00:00 | 00:00:00 | 00:00:00 | |
| GOEST3-10 | 2026-08-31 14:11:16 | 50.91069 | 9.03040 | 71° | 91km/h | 15306m | -5.3m/s | 0°C | 0% | 0hPa | 4.6V | 00:00:00 | 00:00:00 | 00:00:00 | |
| DB0UT-7 | 2026-08-31 14:11:15 | 50.91061 | 9.03004 | 71° | 82km/h | 15311m | -5.3m/s | 0°C | 0% | 0hPa | 4.6V | 00:00:00 | 00:00:00 | 00:00:00 | |
| AM1SDL-15 | 2026-08-31 14:11:14 | 50.91054 | 9.02960 | 87° | 78km/h | 15322m | -5.3m/s | 0°C | 0% | 0hPa | 4.6V | 00:00:00 | 00:00:00 | 00:00:00 | |
| DL1XH-west | 2026-08-31 14:11:14 | 50.91049 | 9.02930 | 82° | 93km/h | 15316m | -5.2m/s | -48.6°C | 0% | 0hPa | 4.6V | 00:00:00 | 00:00:00 | 00:00:00 | |
| SO1NDE-10 | 2026-08-31 14:11:13 | 50.91049 | 9.02930 | 83° | 80km/h | 15322m | -5.3m/s | 0°C | 0% | 0hPa | 4.6V | 00:00:00 | 00:00:00 | 00:00:00 | |
| DO2JMG | 2026-08-31 14:11:12 | 50.91046 | 9.02862 | 88° | 77km/h | 15327m | -5.7m/s | -48.7°C | 0% | 0hPa | 4.6V | 00:00:00 | 00:00:00 | 00:00:00 | |
| DO3MHA-11 | 2026-08-31 14:11:12 | 50.91047 | 9.02891 | 89° | 80km/h | 15327m | -5.7m/s | 0°C | 0% | 0hPa | 0V | 00:00:00 | 00:00:00 | 00:00:00 | |
| GOEST3-10 | 2026-08-31 14:11:11 | 50.91046 | 9.02862 | 89° | 69km/h | 15333m | -5.5m/s | 0°C | 0% | 0hPa | 0V | 00:00:00 | 00:00:00 | 00:00:00 | |
| DL1NUX | 2026-08-31 14:11:10 | 50.91011 | 9.02705 | 66° | 91km/h | 15365m | -5.8m/s | 0°C | 0% | 0hPa | 0V | 00:00:00 | 00:00:00 | 00:00:00 | |
| DF8AY | 2026-08-31 14:11:10 | 50.91043 | 9.02807 | 78° | 62km/h | 15338m | -5.4m/s | -48.8°C | 0% | 0hPa | 4.5V | 00:00:00 | 00:00:00 | 00:00:00 | |
| DL1CLM-18 | 2026-08-31 14:11:09 | 50.91038 | 9.02783 | 70° | 64km/h | 15344m | -5.3m/s | -48.9°C | 0% | 0hPa | 4.5V | 00:00:00 | 00:00:00 | 00:00:00 | |
| HSKMA3-T | 2026-08-31 14:11:07 | 50.91031 | 9.02758 | 62° | 71km/h | 15349m | -5.3m/s | -48.9°C | 0% | 0hPa | 4.5V | 00:00:00 | 00:00:00 | 00:00:00 | |
| GOEST3-10 | 2026-08-31 14:11:06 | 50.91021 | 9.02732 | 61° | 95km/h | 15360m | -5.5m/s | 0°C | 0% | 0hPa | 4.5V | 00:00:00 | 00:00:00 | 00:00:00 | |
| DL1XH-west | 2026-08-31 14:11:03 | 50.90984 | 9.02590 | 77° | 102km/h | 15377m | -5.7m/s | -48.8°C | 0% | 0hPa | 4.5V | 00:00:00 | 00:00:00 | 00:00:00 | |
| DO3MHA-11 | 2026-08-31 14:11:02 | 50.90984 | 9.02590 | 78° | 78km/h | 15382m | -5.2m/s | 0°C | 0% | 0hPa | 0V | 00:00:00 | 00:00:00 | 00:00:00 | |
| DL1XH-15 | 2026-08-31 14:11:01 | 50.90970 | 9.02399 | 72° | 64km/h | 15414m | -5.5m/s | 0°C | 0% | 0hPa | 0V | 00:00:00 | 00:00:00 | 00:00:00 | |
| DL8DAS-15 | 2026-08-31 14:11:01 | 50.90977 | 9.02514 | 87° | 89km/h | 15387m | -5.0m/s | -48.7°C | 0% | 0hPa | 4.6V | 00:00:00 | 00:00:00 | 00:00:00 | |
| DO2JMG | 2026-08-31 14:11:01 | 50.90978 | 9.02514 | 86° | 89km/h | 15387m | -5m/s | -48.7°C | 0% | 0hPa | 4.6V | 00:00:00 | 00:00:00 | 00:00:00 | |
| DO3DL | 2026-08-31 14:11:00 | 50.90977 | 9.02514 | 87° | 89km/h | 15387m | -5.0m/s | -48.7°C | 0% | 0hPa | 4.6V | 00:00:00 | 00:00:00 | 00:00:00 | |
| DF8AY | 2026-08-31 14:10:59 | 50.90976 | 9.02450 | 86° | 69km/h | 15398m | -5.2m/s | -48.7°C | 0% | 0hPa | 4.6V | 00:00:00 | 00:00:00 | 00:00:00 | |
| HSKMA3-T | 2026-08-31 14:10:57 | 50.90970 | 9.02399 | 72° | 64km/h | 15409m | -5.4m/s | -48.6°C | 0% | 0hPa | 4.6V | 00:00:00 | 00:00:00 | 00:00:00 | |
| GOEST3-10 | 2026-08-31 14:10:56 | 50.90970 | 9.02399 | 73° | 75km/h | 15414m | -5.4m/s | 0°C | 0% | 0hPa | 0V | 00:00:00 | 00:00:00 | 00:00:00 | |
| DO3DL | 2026-08-31 14:10:53 | 50.90947 | 9.02320 | 67° | 84km/h | 15425m | -5.6m/s | -48.4°C | 0% | 0hPa | 0V | 00:00:00 | 00:00:00 | 00:00:00 | |
| DM0DOS-11 | 2026-08-31 14:10:52 | 50.90926 | 9.02115 | 93° | 75km/h | 15463m | -5.7m/s | 0°C | 0% | 0hPa | 0V | 00:00:00 | 00:00:00 | 00:00:00 | |
| AA1-15 | 2026-08-31 14:10:52 | 50.90932 | 9.02253 | 75° | 93km/h | 15436m | -5.2m/s | -48.1°C | 0% | 0hPa | 4.5V | 00:00:00 | 00:00:00 | 00:00:00 | |
| DO3MHA-11 | 2026-08-31 14:10:52 | 50.90939 | 9.02290 | 76° | 75km/h | 15436m | -5.2m/s | 0°C | 0% | 0hPa | 0V | 00:00:00 | 00:00:00 | 00:00:00 | |
| GOEST3-10 | 2026-08-31 14:10:51 | 50.90932 | 9.02253 | 76° | 86km/h | 15441m | -5.5m/s | 0°C | 0% | 0hPa | 0V | 00:00:00 | 00:00:00 | 00:00:00 | |
| DL1NUX | 2026-08-31 14:10:50 | 50.90927 | 9.02062 | 89° | 58km/h | 15475m | -5.7m/s | 0°C | 0% | 0hPa | 0V | 00:00:00 | 00:00:00 | 00:00:00 | |
| DO2JMG | 2026-08-31 14:10:50 | 50.90925 | 9.02181 | 87° | 89km/h | 15447m | -5.5m/s | -48.2°C | 0% | 0hPa | 4.5V | 00:00:00 | 00:00:00 | 00:00:00 | |
| DF8AY | 2026-08-31 14:10:49 | 50.90925 | 9.02115 | 94° | 75km/h | 15458m | -5.8m/s | -48.2°C | 0% | 0hPa | 4.5V | 00:00:00 | 00:00:00 | 00:00:00 | |
| DO3DL | 2026-08-31 14:10:47 | 50.90925 | 9.02115 | 95° | 75km/h | 15458m | -5.8m/s | -48.2°C | 0% | 0hPa | 4.5V | 00:00:00 | 00:00:00 | 00:00:00 | |
| HSKMA3-T | 2026-08-31 14:10:46 | 50.90927 | 9.02062 | 89° | 58km/h | 15469m | -5.7m/s | -48.2°C | 0% | 0hPa | 4.5V | 00:00:00 | 00:00:00 | 00:00:00 | |
| GOEST3-10 | 2026-08-31 14:10:46 | 50.90927 | 9.02084 | 90° | 58km/h | 15469m | -5.6m/s | 0°C | 0% | 0hPa | 0V | 00:00:00 | 00:00:00 | 00:00:00 | |
| DB0UT-7 | 2026-08-31 14:10:45 | 50.90927 | 9.02062 | 90° | 64km/h | 15475m | -5.6m/s | 0°C | 0% | 0hPa | 0V | 00:00:00 | 00:00:00 | 00:00:00 | |
| SO1NDE-10 | 2026-08-31 14:10:43 | 50.90922 | 9.02019 | 71° | 64km/h | 15486m | -5.5m/s | 0°C | 0% | 0hPa | 0V | 00:00:00 | 00:00:00 | 00:00:00 | |
| DM0DOS-11 | 2026-08-31 14:10:42 | 50.90880 | 9.01844 | 86° | 89km/h | 15520m | -5.6m/s | 0°C | 0% | 0hPa | 0V | 00:00:00 | 00:00:00 | 00:00:00 | |
| DO3MHA-11 | 2026-08-31 14:10:42 | 50.90917 | 9.01997 | 65° | 78km/h | 15491m | -5.5m/s | 0°C | 0% | 0hPa | 0V | 00:00:00 | 00:00:00 | 00:00:00 | |
| DL1XH-west | 2026-08-31 14:10:42 | 50.90909 | 9.01973 | 63° | 71km/h | 15491m | -5.5m/s | -48.1°C | 0% | 0hPa | 4.5V | 00:00:00 | 00:00:00 | 00:00:00 | |
| DL1XH-15 | 2026-08-31 14:10:41 | 50.90878 | 9.01811 | 86° | 86km/h | 15525m | -5.4m/s | 0°C | 0% | 0hPa | 0V | 00:00:00 | 00:00:00 | 00:00:00 | |
| GOEST3-10 | 2026-08-31 14:10:41 | 50.90909 | 9.01973 | 63° | 84km/h | 15497m | -5.7m/s | 0°C | 0% | 0hPa | 4.5V | 00:00:00 | 00:00:00 | 00:00:00 | |
| DB0NH | 2026-08-31 14:10:40 | 50.90901 | 9.01946 | 65° | 64km/h | 15503m | -5.8m/s | 0°C | 0% | 0hPa | 4.5V | 00:00:00 | 00:00:00 | 00:00:00 | |
| DO2JMG | 2026-08-31 14:10:39 | 50.90892 | 9.01915 | 69° | 88km/h | 15502m | -5.8m/s | -47.9°C | 0% | 0hPa | 4.5V | 00:00:00 | 00:00:00 | 00:00:00 | |
| DO2KSM | 2026-08-31 14:10:38 | 50.90885 | 9.01881 | 75° | 91km/h | 15509m | -5.9m/s | -47.8°C | 0% | 0hPa | 4.5V | 00:00:00 | 00:00:00 | 00:00:00 | |
| BIOWL1-15 | 2026-08-31 14:10:37 | 50.90877 | 9.01811 | 87° | 86km/h | 15520m | -5.6m/s | -47.7°C | 0% | 0hPa | 4.5V | 00:00:00 | 00:00:00 | 00:00:00 | |
| GOEST3-10 | 2026-08-31 14:10:36 | 50.90877 | 9.01811 | 87° | 71km/h | 15525m | -5.4m/s | 0°C | 0% | 0hPa | 4.5V | 00:00:00 | 00:00:00 | 00:00:00 | |
| HSKMA3-T | 2026-08-31 14:10:35 | 50.90878 | 9.01748 | 95° | 71km/h | 15530m | -5.7m/s | -47.7°C | 0% | 0hPa | 4.5V | 00:00:00 | 00:00:00 | 00:00:00 | |
| DF2AP-13 | 2026-08-31 14:10:35 | 50.90877 | 9.01774 | 95° | 55km/h | 15531m | -5.6m/s | 0°C | 0% | 0hPa | 4.5V | 00:00:00 | 00:00:00 | 00:00:00 | |
| DO3DL | 2026-08-31 14:10:34 | 50.90878 | 9.01747 | 96° | 71km/h | 15531m | -5.7m/s | -47.7°C | 0% | 0hPa | 4.5V | 00:00:00 | 00:00:00 | 00:00:00 | |
| DO3MHA-11 | 2026-08-31 14:10:32 | 50.90880 | 9.01698 | 89° | 66km/h | 15548m | -5.7m/s | 0°C | 0% | 0hPa | 4.5V | 00:00:00 | 00:00:00 | 00:00:00 | |
| DL1XH-west | 2026-08-31 14:10:31 | 50.90874 | 9.01657 | 70° | 55km/h | 15553m | -5.2m/s | -47.6°C | 0% | 0hPa | 4.5V | 00:00:00 | 00:00:00 | 00:00:00 | |
| DL1XH-15 | 2026-08-31 14:10:31 | 50.90848 | 9.01559 | 73° | 77km/h | 15582m | -5.8m/s | 0°C | 0% | 0hPa | 0V | 00:00:00 | 00:00:00 | 00:00:00 | |
| GOEST3-10 | 2026-08-31 14:10:31 | 50.90878 | 9.01678 | 70° | 62km/h | 15554m | -5.1m/s | 0°C | 0% | 0hPa | 4.6V | 00:00:00 | 00:00:00 | 00:00:00 | |
| DO2JMG | 2026-08-31 14:10:28 | 50.90862 | 9.01613 | 65° | 68km/h | 15564m | -5.8m/s | -47.5°C | 0% | 0hPa | 4.6V | 00:00:00 | 00:00:00 | 00:00:00 | |
| DO3DL | 2026-08-31 14:10:28 | 50.90862 | 9.01612 | 66° | 68km/h | 15564m | -5.8m/s | -47.5°C | 0% | 0hPa | 4.6V | 00:00:00 | 00:00:00 | 00:00:00 | |
| DF8AY | 2026-08-31 14:10:27 | 50.90848 | 9.01559 | 73° | 77km/h | 15576m | -6m/s | -47.1°C | 0% | 0hPa | 4.6V | 00:00:00 | 00:00:00 | 00:00:00 | |
| GOEST3-10 | 2026-08-31 14:10:26 | 50.90848 | 9.01558 | 74° | 71km/h | 15582m | -5.8m/s | 0°C | 0% | 0hPa | 4.6V | 00:00:00 | 00:00:00 | 00:00:00 | |
| DM7RM-13 | 2026-08-31 14:10:25 | 50.90843 | 9.01529 | 81° | 77km/h | 15582m | -5.8m/s | -40.4°C | 0% | 0hPa | 4.6V | 00:00:00 | 00:00:00 | 00:00:00 | |
| BIOWL1-15 | 2026-08-31 14:10:24 | 50.90841 | 9.01471 | 93° | 68km/h | 15593m | -5.3m/s | -47.1°C | 0% | 0hPa | 4.6V | 00:00:00 | 00:00:00 | 00:00:00 | |
| DO3MHA-11 | 2026-08-31 14:10:22 | 50.90843 | 9.01442 | 103° | 47km/h | 15604m | -5.6m/s | 0°C | 0% | 0hPa | 0V | 00:00:00 | 00:00:00 | 00:00:00 | |
| GOEST3-10 | 2026-08-31 14:10:21 | 50.90845 | 9.01423 | 103° | 40km/h | 15610m | -5.8m/s | 0°C | 0% | 0hPa | 0V | 00:00:00 | 00:00:00 | 00:00:00 | |
| DL1NUX | 2026-08-31 14:10:20 | 50.90838 | 9.01334 | 58° | 49km/h | 15644m | -5.5m/s | 0°C | 0% | 0hPa | 0V | 00:00:00 | 00:00:00 | 00:00:00 | |
| DL1XH-west | 2026-08-31 14:10:20 | 50.90850 | 9.01388 | 98° | 37km/h | 15616m | -6.3m/s | -47°C | 0% | 0hPa | 4.6V | 00:00:00 | 00:00:00 | 00:00:00 | |
| AA1-15 | 2026-08-31 14:10:18 | 50.90850 | 9.01374 | 85° | 31km/h | 15622m | -5.8m/s | -46.8°C | 0% | 0hPa | 4.6V | 00:00:00 | 00:00:00 | 00:00:00 | |
| DO2KSM | 2026-08-31 14:10:18 | 50.90850 | 9.01374 | 86° | 31km/h | 15622m | -5.8m/s | -46.8°C | 0% | 0hPa | 4.6V | 00:00:00 | 00:00:00 | 00:00:00 | |
| DF8AY | 2026-08-31 14:10:16 | 50.90838 | 9.01334 | 58° | 51km/h | 15639m | -5.5m/s | -46.6°C | 0% | 0hPa | 4.6V | 00:00:00 | 00:00:00 | 00:00:00 | |
| GOEST3-10 | 2026-08-31 14:10:16 | 50.90844 | 9.01352 | 59° | 55km/h | 15639m | -5.4m/s | 0°C | 0% | 0hPa | 4.6V | 00:00:00 | 00:00:00 | 00:00:00 | |
| DB0UT-7 | 2026-08-31 14:10:15 | 50.90838 | 9.01334 | 59° | 42km/h | 15644m | -5.4m/s | 0°C | 0% | 0hPa | 4.6V | 00:00:00 | 00:00:00 | 00:00:00 | |
| HSKMA3-T | 2026-08-31 14:10:14 | 50.90826 | 9.01293 | 70° | 62km/h | 15650m | -5.7m/s | -46.3°C | 0% | 0hPa | 4.6V | 00:00:00 | 00:00:00 | 00:00:00 | |
| SO1NDE-10 | 2026-08-31 14:10:13 | 50.90825 | 9.01292 | 70° | 40km/h | 15656m | -6.0m/s | 0°C | 0% | 0hPa | 0V | 00:00:00 | 00:00:00 | 00:00:00 | |
| DO3MHA-11 | 2026-08-31 14:10:12 | 50.90821 | 9.01269 | 78° | 38km/h | 15662m | -6.0m/s | 0°C | 0% | 0hPa | 0V | 00:00:00 | 00:00:00 | 00:00:00 | |
| GOEST3-10 | 2026-08-31 14:10:11 | 50.90819 | 9.01244 | 87° | 44km/h | 15668m | -5.8m/s | 0°C | 0% | 0hPa | 0V | 00:00:00 | 00:00:00 | 00:00:00 | |
| DL1NUX | 2026-08-31 14:10:10 | 50.90825 | 9.01161 | 47° | 20km/h | 15703m | -6m/s | 0°C | 0% | 0hPa | 0V | 00:00:00 | 00:00:00 | 00:00:00 | |
| DB0NH | 2026-08-31 14:10:10 | 50.90819 | 9.01221 | 95° | 37km/h | 15673m | -5.4m/s | 0°C | 0% | 0hPa | 4.6V | 00:00:00 | 00:00:00 | 00:00:00 | |
| DO2JMG | 2026-08-31 14:10:09 | 50.90823 | 9.01186 | 106° | 35km/h | 15679m | -5.6m/s | -46.8°C | 0% | 0hPa | 4.6V | 00:00:00 | 00:00:00 | 00:00:00 | |
| DO3DL | 2026-08-31 14:10:08 | 50.90823 | 9.01186 | 107° | 35km/h | 15679m | -5.6m/s | -46.5°C | 0% | 0hPa | 4.6V | 00:00:00 | 00:00:00 | 00:00:00 | |
| GOEST3-10 | 2026-08-31 14:10:06 | 50.90825 | 9.01166 | 90° | 29km/h | 15697m | -6.1m/s | 0°C | 0% | 0hPa | 4.6V | 00:00:00 | 00:00:00 | 00:00:00 | |
| DF2AP-13 | 2026-08-31 14:10:05 | 50.90824 | 9.01161 | 48° | 37km/h | 15703m | -6.0m/s | 0°C | 0% | 0hPa | 4.6V | 00:00:00 | 00:00:00 | 00:00:00 | |
| AA1-15 | 2026-08-31 14:10:05 | 50.90821 | 9.01152 | 48° | 27km/h | 15703m | -6m/s | -46.8°C | 0% | 0hPa | 4.6V | 00:00:00 | 00:00:00 | 00:00:00 | |
| TFSTFS | 2026-08-31 14:10:04 | 50.90821 | 9.01151 | 49° | 27km/h | 15703m | -6.0m/s | -46.8°C | 0% | 0hPa | 4.6V | 00:00:00 | 00:00:00 | 00:00:00 | |
| HSKMA3-T | 2026-08-31 14:10:03 | 50.90809 | 9.01129 | 55° | 47km/h | 15714m | -5.7m/s | -46.8°C | 0% | 0hPa | 4.6V | 00:00:00 | 00:00:00 | 00:00:00 | |
| DO3MHA-11 | 2026-08-31 14:10:02 | 50.90809 | 9.01129 | 55° | 38km/h | 15720m | -5.5m/s | 0°C | 0% | 0hPa | 0V | 00:00:00 | 00:00:00 | 00:00:00 | |
| GOEST3-10 | 2026-08-31 14:10:01 | 50.90803 | 9.01113 | 75° | 51km/h | 15726m | -5.8m/s | 0°C | 0% | 0hPa | 0V | 00:00:00 | 00:00:00 | 00:00:00 | |
| DL1NUX | 2026-08-31 14:10:00 | 50.90801 | 9.01005 | 93° | 22km/h | 15760m | -5.5m/s | 0°C | 0% | 0hPa | 0V | 00:00:00 | 00:00:00 | 00:00:00 | |
| DO2JMG | 2026-08-31 14:09:59 | 50.90795 | 9.01048 | 94° | 51km/h | 15738m | -5.9m/s | -46.8°C | 0% | 0hPa | 4.6V | 00:00:00 | 00:00:00 | 00:00:00 | |
| DO2KSM | 2026-08-31 14:09:57 | 50.90797 | 9.01029 | 104° | 42km/h | 15744m | -5.7m/s | -46.9°C | 0% | 0hPa | 4.6V | 00:00:00 | 00:00:00 | 00:00:00 | |
| GOEST3-10 | 2026-08-31 14:09:56 | 50.90799 | 9.01012 | 94° | 24km/h | 15755m | -5.3m/s | 0°C | 0% | 0hPa | 4.6V | 00:00:00 | 00:00:00 | 00:00:00 | |
| AA1-15 | 2026-08-31 14:09:54 | 50.90799 | 9.00993 | 41° | 18km/h | 15766m | -5.9m/s | -47.2°C | 0% | 0hPa | 4.6V | 00:00:00 | 00:00:00 | 00:00:00 | |
| DM0DOS-11 | 2026-08-31 14:09:52 | 50.90768 | 9.00911 | 86° | 49km/h | 15807m | -5.7m/s | 0°C | 0% | 0hPa | 0V | 00:00:00 | 00:00:00 | 00:00:00 | |
| DO3MHA-11 | 2026-08-31 14:09:52 | 50.90795 | 9.00990 | 43° | 40km/h | 15778m | -6.0m/s | 0°C | 0% | 0hPa | 4.6V | 00:00:00 | 00:00:00 | 00:00:00 | |
| BIOWL1-15 | 2026-08-31 14:09:51 | 50.90788 | 9.00978 | 42° | 38km/h | 15778m | -6.1m/s | -47.3°C | 0% | 0hPa | 4.6V | 00:00:00 | 00:00:00 | 00:00:00 | |
| GOEST3-10 | 2026-08-31 14:09:51 | 50.90788 | 9.00978 | 43° | 47km/h | 15784m | -5.8m/s | 0°C | 0% | 0hPa | 0V | 00:00:00 | 00:00:00 | 00:00:00 | |
| DC6BW-12 | 2026-08-31 14:09:50 | 50.90781 | 9.00966 | 53° | 46km/h | 15784m | -5.8m/s | -47.3°C | 0% | 0hPa | 0V | 00:00:00 | 00:00:00 | 00:00:00 | |
| DO3DL | 2026-08-31 14:09:49 | 50.90775 | 9.00950 | 64° | 49km/h | 15790m | -5.7m/s | -47.3°C | 0% | 0hPa | 0V | 00:00:00 | 00:00:00 | 00:00:00 | |
| DL1NUX | 2026-08-31 14:09:48 | 50.90770 | 9.00876 | 103° | 38km/h | 15819m | -6.2m/s | 0°C | 0% | 0hPa | 0V | 00:00:00 | 00:00:00 | 00:00:00 | |
| DO2JMG | 2026-08-31 14:09:47 | 50.90768 | 9.00911 | 86° | 49km/h | 15801m | -5.5m/s | -47.6°C | 0% | 0hPa | 4.6V | 00:00:00 | 00:00:00 | 00:00:00 | |
| DJTTGO | 2026-08-31 14:09:47 | 50.90768 | 9.00911 | 87° | 49km/h | 15801m | -5.5m/s | -47.3°C | 0% | 0hPa | 4.6V | 00:00:00 | 00:00:00 | 00:00:00 | |
| GOEST3-10 | 2026-08-31 14:09:46 | 50.90768 | 9.00892 | 96° | 29km/h | 15813m | -5.9m/s | 0°C | 0% | 0hPa | 4.6V | 00:00:00 | 00:00:00 | 00:00:00 | |
| DB0UT-7 | 2026-08-31 14:09:45 | 50.90770 | 9.00876 | 104° | 33km/h | 15819m | -6.1m/s | 0°C | 0% | 0hPa | 4.6V | 00:00:00 | 00:00:00 | 00:00:00 | |
| DF8AY | 2026-08-31 14:09:44 | 50.90774 | 9.00854 | 102° | 20km/h | 15825m | -5.8m/s | -47.6°C | 0% | 0hPa | 4.6V | 00:00:00 | 00:00:00 | 00:00:00 | |
| NBG1-10 | 2026-08-31 14:09:43 | 50.90774 | 9.00854 | 103° | 33km/h | 15830m | -5.6m/s | 0°C | 0% | 0hPa | 0V | 00:00:00 | 00:00:00 | 00:00:00 | |
| DM0DOS-11 | 2026-08-31 14:09:42 | 50.90745 | 9.00810 | 62° | 46km/h | 15864m | -5.6m/s | 0°C | 0% | 0hPa | 0V | 00:00:00 | 00:00:00 | 00:00:00 | |
| DO3MHA-11 | 2026-08-31 14:09:42 | 50.90774 | 9.00847 | 61° | 37km/h | 15836m | -5.7m/s | 0°C | 0% | 0hPa | 4.6V | 00:00:00 | 00:00:00 | 00:00:00 | |
| BIOWL1-15 | 2026-08-31 14:09:41 | 50.90767 | 9.00838 | 31° | 26km/h | 15842m | -5.8m/s | -47.9°C | 0% | 0hPa | 4.6V | 00:00:00 | 00:00:00 | 00:00:00 | |
| DF1GD-15 | 2026-08-31 14:09:40 | 50.90767 | 9.00838 | 32° | 26km/h | 15842m | -5.8m/s | -47.9°C | 0% | 0hPa | 4.6V | 00:00:00 | 00:00:00 | 00:00:00 | |
| DD1CC2-15 | 2026-08-31 14:09:39 | 50.90760 | 9.00831 | 35° | 35km/h | 15848m | -5.9m/s | -41.3°C | 0% | 0hPa | 4.6V | 00:00:00 | 00:00:00 | 00:00:00 | |
| DL1XH-west | 2026-08-31 14:09:37 | 50.90739 | 9.00793 | 63° | 49km/h | 15864m | -5.6m/s | -48°C | 0% | 0hPa | 4.6V | 00:00:00 | 00:00:00 | 00:00:00 | |
| GOEST3-10 | 2026-08-31 14:09:36 | 50.90739 | 9.00792 | 63° | 44km/h | 15870m | -5.4m/s | 0°C | 0% | 0hPa | 4.6V | 00:00:00 | 00:00:00 | 00:00:00 | |
| DF2AP-13 | 2026-08-31 14:09:35 | 50.90734 | 9.00774 | 84° | 35km/h | 15876m | -5.6m/s | 0°C | 0% | 0hPa | 4.6V | 00:00:00 | 00:00:00 | 00:00:00 | |
| DF8AY | 2026-08-31 14:09:33 | 50.90733 | 9.00725 | 102° | 35km/h | 15887m | -5.8m/s | -48.1°C | 0% | 0hPa | 4.6V | 00:00:00 | 00:00:00 | 00:00:00 | |
| DM0DOS-11 | 2026-08-31 14:09:32 | 50.90731 | 9.00691 | 27° | 24km/h | 15922m | -5.5m/s | 0°C | 0% | 0hPa | 0V | 00:00:00 | 00:00:00 | 00:00:00 | |
| DO3MHA-11 | 2026-08-31 14:09:32 | 50.90733 | 9.00725 | 103° | 29km/h | 15893m | -5.8m/s | 0°C | 0% | 0hPa | 0V | 00:00:00 | 00:00:00 | 00:00:00 | |
| GOEST3-10 | 2026-08-31 14:09:31 | 50.90735 | 9.00713 | 108° | 18km/h | 15899m | -6.1m/s | 0°C | 0% | 0hPa | 0V | 00:00:00 | 00:00:00 | 00:00:00 | |
| HSKMA3-T | 2026-08-31 14:09:31 | 50.90736 | 9.00705 | 90° | 18km/h | 15899m | -6.2m/s | -48.2°C | 0% | 0hPa | 4.6V | 00:00:00 | 00:00:00 | 00:00:00 | |
| DO3DL | 2026-08-31 14:09:30 | 50.90737 | 9.00699 | 53° | 11km/h | 15905m | -6.0m/s | -48.3°C | 0% | 0hPa | 0V | 00:00:00 | 00:00:00 | 00:00:00 | |
| DC6BW-12 | 2026-08-31 14:09:29 | 50.90737 | 9.00699 | 53° | 11km/h | 15905m | -6.0m/s | -48.3°C | 0% | 0hPa | 0V | 00:00:00 | 00:00:00 | 00:00:00 | |
| DL1NUX | 2026-08-31 14:09:28 | 50.90716 | 9.00677 | 35° | 42km/h | 15933m | -6m/s | 0°C | 0% | 0hPa | 0V | 00:00:00 | 00:00:00 | 00:00:00 | |
| DL1XH-west | 2026-08-31 14:09:26 | 50.90716 | 9.00677 | 35° | 42km/h | 15928m | -5.7m/s | -48.6°C | 0% | 0hPa | 4.6V | 00:00:00 | 00:00:00 | 00:00:00 | |
| GOEST3-10 | 2026-08-31 14:09:26 | 50.90724 | 9.00688 | 36° | 44km/h | 15928m | -5.6m/s | 0°C | 0% | 0hPa | 4.6V | 00:00:00 | 00:00:00 | 00:00:00 | |
| DL3OBA | 2026-08-31 14:09:24 | 50.90708 | 9.00666 | 44° | 46km/h | 15934m | -6.0m/s | -48.5°C | 0% | 0hPa | 4.6V | 00:00:00 | 00:00:00 | 00:00:00 | |
| DO3DL | 2026-08-31 14:09:23 | 50.90699 | 9.00652 | 53° | 49km/h | 15940m | -6.1m/s | -48.5°C | 0% | 0hPa | 4.6V | 00:00:00 | 00:00:00 | 00:00:00 | |
| DF8AY | 2026-08-31 14:09:22 | 50.90693 | 9.00636 | 61° | 49km/h | 15946m | -5.9m/s | -48.4°C | 0% | 0hPa | 4.6V | 00:00:00 | 00:00:00 | 00:00:00 | |
| DM0DOS-11 | 2026-08-31 14:09:22 | 50.90684 | 9.00566 | 75° | 18km/h | 15981m | -5.8m/s | 0°C | 0% | 0hPa | 0V | 00:00:00 | 00:00:00 | 00:00:00 | |
| DO3MHA-11 | 2026-08-31 14:09:22 | 50.90693 | 9.00635 | 71° | 29km/h | 15952m | -5.6m/s | 0°C | 0% | 0hPa | 4.6V | 00:00:00 | 00:00:00 | 00:00:00 | |
| GOEST3-10 | 2026-08-31 14:09:21 | 50.90688 | 9.00619 | 71° | 33km/h | 15957m | -5.5m/s | 0°C | 0% | 0hPa | 4.6V | 00:00:00 | 00:00:00 | 00:00:00 | |
| AA1-15 | 2026-08-31 14:09:20 | 50.90684 | 9.00587 | 87° | 35km/h | 15963m | -5.7m/s | -48.4°C | 0% | 0hPa | 4.6V | 00:00:00 | 00:00:00 | 00:00:00 | |
| AM1SDL-15 | 2026-08-31 14:09:19 | 50.90684 | 9.00587 | 88° | 29km/h | 16029m | -6.0m/s | 0°C | 0% | 0hPa | 0V | 00:00:00 | 00:00:00 | 00:00:00 | |
| DL1NUX | 2026-08-31 14:09:18 | 50.90680 | 9.00557 | 24° | 15km/h | 15993m | -6m/s | 0°C | 0% | 0hPa | 0V | 00:00:00 | 00:00:00 | 00:00:00 | |
| DO2KSM | 2026-08-31 14:09:17 | 50.90683 | 9.00560 | 45° | 13km/h | 15981m | -5.8m/s | -48.4°C | 0% | 0hPa | 4.6V | 00:00:00 | 00:00:00 | 00:00:00 | |
| GOEST3-10 | 2026-08-31 14:09:16 | 50.90683 | 9.00560 | 45° | 24km/h | 15987m | -5.9m/s | 0°C | 0% | 0hPa | 4.6V | 00:00:00 | 00:00:00 | 00:00:00 | |
| DL1XH-west | 2026-08-31 14:09:15 | 50.90680 | 9.00557 | 25° | 15km/h | 15987m | -5.9m/s | -48.4°C | 0% | 0hPa | 4.6V | 00:00:00 | 00:00:00 | 00:00:00 | |
| DB0UT-7 | 2026-08-31 14:09:15 | 50.90680 | 9.00557 | 25° | 33km/h | 15993m | -5.9m/s | 0°C | 0% | 0hPa | 4.6V | 00:00:00 | 00:00:00 | 00:00:00 | |
| DO2JMG | 2026-08-31 14:09:13 | 50.90661 | 9.00546 | 23° | 38km/h | 16005m | -5.9m/s | -48.4°C | 0% | 0hPa | 4.6V | 00:00:00 | 00:00:00 | 00:00:00 | |
| SO1NDE-10 | 2026-08-31 14:09:13 | 50.90669 | 9.00554 | 23° | 35km/h | 16005m | -5.8m/s | 0°C | 0% | 0hPa | 4.6V | 00:00:00 | 00:00:00 | 00:00:00 | |
| DO3MHA-11 | 2026-08-31 14:09:12 | 50.90661 | 9.00546 | 23° | 38km/h | 16011m | -5.8m/s | 0°C | 0% | 0hPa | 4.6V | 00:00:00 | 00:00:00 | 00:00:00 | |
| DF8AY | 2026-08-31 14:09:11 | 50.90642 | 9.00528 | 39° | 49km/h | 16016m | -5.9m/s | -48.4°C | 0% | 0hPa | 4.6V | 00:00:00 | 00:00:00 | 00:00:00 | |
| GOEST3-10 | 2026-08-31 14:09:11 | 50.90651 | 9.00539 | 31° | 47km/h | 16011m | -5.8m/s | 0°C | 0% | 0hPa | 4.6V | 00:00:00 | 00:00:00 | 00:00:00 | |
| DB0NH | 2026-08-31 14:09:10 | 50.90642 | 9.00528 | 40° | 35km/h | 16022m | -5.9m/s | 0°C | 0% | 0hPa | 4.6V | 00:00:00 | 00:00:00 | 00:00:00 | |
| BIOWL1-15 | 2026-08-31 14:09:09 | 50.90625 | 9.00499 | 57° | 49km/h | 16029m | -6m/s | -48.4°C | 0% | 0hPa | 4.6V | 00:00:00 | 00:00:00 | 00:00:00 | |
| DL1NUX | 2026-08-31 14:09:08 | 50.90614 | 9.00449 | 85° | 31km/h | 16051m | -5.7m/s | 0°C | 0% | 0hPa | 0V | 00:00:00 | 00:00:00 | 00:00:00 | |
| GOEST3-10 | 2026-08-31 14:09:06 | 50.90616 | 9.00466 | 75° | 24km/h | 16046m | -5.8m/s | 0°C | 0% | 0hPa | 4.6V | 00:00:00 | 00:00:00 | 00:00:00 | |
| DF2AP-13 | 2026-08-31 14:09:05 | 50.90614 | 9.00449 | 86° | 35km/h | 16052m | -5.6m/s | 0°C | 0% | 0hPa | 4.6V | 00:00:00 | 00:00:00 | 00:00:00 | |
| DL1XH-west | 2026-08-31 14:09:04 | 50.90613 | 9.00442 | 85° | 24km/h | 16052m | -5.7m/s | -48.6°C | 0% | 0hPa | 4.6V | 00:00:00 | 00:00:00 | 00:00:00 | |
| DO3DL | 2026-08-31 14:09:04 | 50.90613 | 9.00434 | 71° | 15km/h | 16057m | -5.6m/s | -48.6°C | 0% | 0hPa | 4.6V | 00:00:00 | 00:00:00 | 00:00:00 | |
| DF8AY | 2026-08-31 14:09:03 | 50.90604 | 9.00426 | 9° | 24km/h | 16075m | -5.8m/s | -48.9°C | 0% | 0hPa | 4.6V | 00:00:00 | 00:00:00 | 00:00:00 | |
| DO2JMG | 2026-08-31 14:09:02 | 50.90611 | 9.00429 | 31° | 11km/h | 16063m | -5.8m/s | -48.7°C | 0% | 0hPa | 4.6V | 00:00:00 | 00:00:00 | 00:00:00 | |
| DO3MHA-11 | 2026-08-31 14:09:02 | 50.90611 | 9.00429 | 31° | 37km/h | 16069m | -5.9m/s | 0°C | 0% | 0hPa | 4.6V | 00:00:00 | 00:00:00 | 00:00:00 | |
| GOEST3-10 | 2026-08-31 14:09:01 | 50.90608 | 9.00427 | 14° | 26km/h | 16075m | -5.8m/s | 0°C | 0% | 0hPa | 4.6V | 00:00:00 | 00:00:00 | 00:00:00 | |
| BIOWL1-15 | 2026-08-31 14:09:00 | 50.90560 | 9.00388 | 49° | 51km/h | 16104m | -5.8m/s | -49°C | 0% | 0hPa | 4.6V | 00:00:00 | 00:00:00 | 00:00:00 | |
| DF1GD-15 | 2026-08-31 14:08:59 | 50.90597 | 9.00423 | 14° | 31km/h | 16081m | -5.7m/s | -49.0°C | 0% | 0hPa | 0V | 00:00:00 | 00:00:00 | 00:00:00 | |
| DL1NUX | 2026-08-31 14:08:58 | 50.90561 | 9.00388 | 48° | 51km/h | 16110m | -5.7m/s | 0°C | 0% | 0hPa | 0V | 00:00:00 | 00:00:00 | 00:00:00 | |
| HSKMA3-T | 2026-08-31 14:08:58 | 50.90579 | 9.00412 | 30° | 46km/h | 16093m | -6m/s | -49.1°C | 0% | 0hPa | 4.6V | 00:00:00 | 00:00:00 | 00:00:00 | |
| DM0DOS-11 | 2026-08-31 14:08:57 | 50.90548 | 9.00354 | 69° | 47km/h | 16122m | -5.8m/s | 0°C | 0% | 0hPa | 0V | 00:00:00 | 00:00:00 | 00:00:00 | |
| GOEST3-10 | 2026-08-31 14:08:56 | 50.90569 | 9.00406 | 60° | 44km/h | 16105m | -5.7m/s | 0°C | 0% | 0hPa | 4.6V | 00:00:00 | 00:00:00 | 00:00:00 | |
| DL1XH-west | 2026-08-31 14:08:54 | 50.90548 | 9.00354 | 69° | 47km/h | 16116m | -5.7m/s | -49°C | 0% | 0hPa | 4.6V | 00:00:00 | 00:00:00 | 00:00:00 | |
| DO3MHA-11 | 2026-08-31 14:08:52 | 50.90544 | 9.00334 | 87° | 29km/h | 16128m | -6.0m/s | 0°C | 0% | 0hPa | 4.6V | 00:00:00 | 00:00:00 | 00:00:00 | |
| DO2JMG | 2026-08-31 14:08:52 | 50.90543 | 9.00322 | 86° | 35km/h | 16128m | -6.1m/s | -49.2°C | 0% | 0hPa | 4.6V | 00:00:00 | 00:00:00 | 00:00:00 | |
| DO3DL | 2026-08-31 14:08:51 | 50.90543 | 9.00322 | 87° | 35km/h | 16128m | -6.1m/s | -49.2°C | 0% | 0hPa | 4.6V | 00:00:00 | 00:00:00 | 00:00:00 | |
| DF8AY | 2026-08-31 14:08:50 | 50.90542 | 9.00302 | 77° | 18km/h | 16139m | -5.7m/s | -49.2°C | 0% | 0hPa | 4.6V | 00:00:00 | 00:00:00 | 00:00:00 | |
| GOEST3-10 | 2026-08-31 14:08:50 | 50.90542 | 9.00310 | 91° | 18km/h | 16139m | -5.6m/s | 0°C | 0% | 0hPa | 0V | 00:00:00 | 00:00:00 | 00:00:00 | |
| DL1NUX | 2026-08-31 14:08:48 | 50.90526 | 9.00290 | 24° | 35km/h | 16168m | -5.9m/s | 0°C | 0% | 0hPa | 0V | 00:00:00 | 00:00:00 | 00:00:00 | |
| AA1-15 | 2026-08-31 14:08:48 | 50.90539 | 9.00293 | 22° | 16km/h | 16151m | -5.7m/s | -49.3°C | 0% | 0hPa | 4.6V | 00:00:00 | 00:00:00 | 00:00:00 | |
| BIOWL1-15 | 2026-08-31 14:08:45 | 50.90517 | 9.00281 | 25° | 42km/h | 16168m | -5.9m/s | -49.5°C | 0% | 0hPa | 4.6V | 00:00:00 | 00:00:00 | 00:00:00 | |
| DO3DL | 2026-08-31 14:08:44 | 50.90517 | 9.00281 | 26° | 42km/h | 16168m | -5.9m/s | -49.5°C | 0% | 0hPa | 4.6V | 00:00:00 | 00:00:00 | 00:00:00 | |
| DL1XH-west | 2026-08-31 14:08:43 | 50.90497 | 9.00260 | 42° | 53km/h | 16180m | -5.8m/s | -49.3°C | 0% | 0hPa | 4.6V | 00:00:00 | 00:00:00 | 00:00:00 | |
| DO3MHA-11 | 2026-08-31 14:08:42 | 50.90497 | 9.00260 | 43° | 35km/h | 16186m | -5.7m/s | 0°C | 0% | 0hPa | 4.6V | 00:00:00 | 00:00:00 | 00:00:00 | |
| DO2JMG | 2026-08-31 14:08:41 | 50.90481 | 9.00227 | 61° | 49km/h | 16191m | -5.7m/s | -49.2°C | 0% | 0hPa | 4.6V | 00:00:00 | 00:00:00 | 00:00:00 | |
| DB0NH | 2026-08-31 14:08:40 | 50.90481 | 9.00227 | 61° | 38km/h | 16197m | -5.7m/s | 0°C | 0% | 0hPa | 4.6V | 00:00:00 | 00:00:00 | 00:00:00 | |
| DF8AY | 2026-08-31 14:08:39 | 50.90473 | 9.00194 | 76° | 37km/h | 16203m | -5.7m/s | -49.1°C | 0% | 0hPa | 4.6V | 00:00:00 | 00:00:00 | 00:00:00 | |
| DO3DL | 2026-08-31 14:08:38 | 50.90473 | 9.00194 | 76° | 37km/h | 16203m | -5.7m/s | -49.1°C | 0% | 0hPa | 4.5V | 00:00:00 | 00:00:00 | 00:00:00 | |
| HSKMA3-T | 2026-08-31 14:08:37 | 50.90469 | 9.00172 | 69° | 20km/h | 16214m | -5.7m/s | -49.3°C | 0% | 0hPa | 4.5V | 00:00:00 | 00:00:00 | 00:00:00 | |
| NBG1-10 | 2026-08-31 14:08:37 | 50.90471 | 9.00178 | 69° | 35km/h | 16214m | -5.6m/s | 0°C | 0% | 0hPa | 4.5V | 00:00:00 | 00:00:00 | 00:00:00 | |
| AM1SDL-15 | 2026-08-31 14:08:35 | 50.90467 | 9.00166 | 35° | 24km/h | 16278m | -5.7m/s | 0°C | 0% | 0hPa | 4.5V | 00:00:00 | 00:00:00 | 00:00:00 | |
| BIOWL1-15 | 2026-08-31 14:08:34 | 50.90463 | 9.00163 | 17° | 20km/h | 16226m | -5.7m/s | -49.5°C | 0% | 0hPa | 4.5V | 00:00:00 | 00:00:00 | 00:00:00 | |
| DL1XH-west | 2026-08-31 14:08:32 | 50.90439 | 9.00156 | 15° | 44km/h | 16243m | -5.8m/s | -49.6°C | 0% | 0hPa | 4.5V | 00:00:00 | 00:00:00 | 00:00:00 | |
| DO3DL | 2026-08-31 14:08:31 | 50.90439 | 9.00156 | 16° | 44km/h | 16243m | -5.8m/s | -49.6°C | 0% | 0hPa | 4.5V | 00:00:00 | 00:00:00 | 00:00:00 | |
| DO2JMG | 2026-08-31 14:08:30 | 50.90417 | 9.00140 | 31° | 53km/h | 16255m | -5.6m/s | -49.7°C | 0% | 0hPa | 4.5V | 00:00:00 | 00:00:00 | 00:00:00 | |
| DL1NUX | 2026-08-31 14:08:28 | 50.90384 | 9.00082 | 64° | 42km/h | 16283m | -5.5m/s | 0°C | 0% | 0hPa | 0V | 00:00:00 | 00:00:00 | 00:00:00 | |
| DF8AY | 2026-08-31 14:08:28 | 50.90397 | 9.00114 | 49° | 51km/h | 16266m | -5.6m/s | -49.7°C | 0% | 0hPa | 4.5V | 00:00:00 | 00:00:00 | 00:00:00 | |
| DM0DOS-11 | 2026-08-31 14:08:27 | 50.90377 | 9.00056 | 72° | 26km/h | 16295m | -5.8m/s | 0°C | 0% | 0hPa | 0V | 00:00:00 | 00:00:00 | 00:00:00 | |
| DL1XH-15 | 2026-08-31 14:08:26 | 50.90373 | 9.00043 | 31° | 15km/h | 16306m | -6m/s | 0°C | 0% | 0hPa | 0V | 00:00:00 | 00:00:00 | 00:00:00 | |
| HSKMA3-T | 2026-08-31 14:08:26 | 50.90384 | 9.00082 | 65° | 42km/h | 16278m | -5.7m/s | -49.7°C | 0% | 0hPa | 4.5V | 00:00:00 | 00:00:00 | 00:00:00 | |
| GOEST3-10 | 2026-08-31 14:08:25 | 50.90384 | 9.00082 | 65° | 27km/h | 16284m | -5.5m/s | 0°C | 0% | 0hPa | 4.5V | 00:00:00 | 00:00:00 | 00:00:00 | |
| BIOWL1-15 | 2026-08-31 14:08:24 | 50.90377 | 9.00056 | 72° | 26km/h | 16289m | -5.7m/s | -49.8°C | 0% | 0hPa | 4.5V | 00:00:00 | 00:00:00 | 00:00:00 | |
| DL1XH-west | 2026-08-31 14:08:22 | 50.90373 | 9.00043 | 31° | 15km/h | 16300m | -5.8m/s | -50°C | 0% | 0hPa | 4.5V | 00:00:00 | 00:00:00 | 00:00:00 | |
| GOEST3-10 | 2026-08-31 14:08:20 | 50.90369 | 9.00040 | 13° | 37km/h | 16313m | -5.9m/s | 0°C | 0% | 0hPa | 4.6V | 00:00:00 | 00:00:00 | 00:00:00 | |
| DO2JMG | 2026-08-31 14:08:19 | 50.90363 | 9.00039 | 5° | 27km/h | 16312m | -5.9m/s | -50.1°C | 0% | 0hPa | 4.6V | 00:00:00 | 00:00:00 | 00:00:00 | |
| DL1CLM-18 | 2026-08-31 14:08:19 | 50.90355 | 9.00038 | 8° | 37km/h | 16318m | -5.8m/s | -50.2°C | 0% | 0hPa | 4.6V | 00:00:00 | 00:00:00 | 00:00:00 | |
| DO3DL | 2026-08-31 14:08:18 | 50.90355 | 9.00038 | 8° | 37km/h | 16318m | -5.8m/s | -50.2°C | 0% | 0hPa | 4.6V | 00:00:00 | 00:00:00 | 00:00:00 | |
| DF8AY | 2026-08-31 14:08:17 | 50.90333 | 9.00029 | 20° | 51km/h | 16329m | -5.7m/s | -50.4°C | 0% | 0hPa | 4.6V | 00:00:00 | 00:00:00 | 00:00:00 | |
| DD1CC2-15 | 2026-08-31 14:08:16 | 50.90333 | 9.00029 | 21° | 51km/h | 16330m | -5.7m/s | -43.9°C | 0% | 0hPa | 4.6V | 00:00:00 | 00:00:00 | 00:00:00 | |
| AA1-15 | 2026-08-31 14:08:15 | 50.90309 | 9.00009 | 36° | 57km/h | 16341m | -6m/s | -50.4°C | 0% | 0hPa | 4.6V | 00:00:00 | 00:00:00 | 00:00:00 | |
| BIOWL1-15 | 2026-08-31 14:08:15 | 50.90289 | 8.99979 | 52° | 49km/h | 16354m | -6m/s | -50.3°C | 0% | 0hPa | 4.6V | 00:00:00 | 00:00:00 | 00:00:00 | |
| SO1NDE-10 | 2026-08-31 14:08:13 | 50.90298 | 8.99994 | 53° | 44km/h | 16354m | -6.0m/s | 0°C | 0% | 0hPa | 4.6V | 00:00:00 | 00:00:00 | 00:00:00 | |
| DO3MHA-11 | 2026-08-31 14:08:12 | 50.90289 | 8.99979 | 53° | 35km/h | 16360m | -5.9m/s | 0°C | 0% | 0hPa | 4.6V | 00:00:00 | 00:00:00 | 00:00:00 | |
| DL1XH-west | 2026-08-31 14:08:10 | 50.90278 | 8.99950 | 63° | 37km/h | 16366m | -6m/s | -50.4°C | 0% | 0hPa | 4.6V | 00:00:00 | 00:00:00 | 00:00:00 | |
| DB0NH | 2026-08-31 14:08:10 | 50.90277 | 8.99950 | 64° | 44km/h | 16372m | -5.7m/s | 0°C | 0% | 0hPa | 0V | 00:00:00 | 00:00:00 | 00:00:00 | |
| DM0DOS-11 | 2026-08-31 14:08:07 | 50.90234 | 8.99919 | 12° | 49km/h | 16413m | -5.8m/s | 0°C | 0% | 0hPa | 0V | 00:00:00 | 00:00:00 | 00:00:00 | |
| DO2JMG | 2026-08-31 14:08:06 | 50.90262 | 8.99924 | 8° | 24km/h | 16389m | -5.9m/s | -50.6°C | 0% | 0hPa | 4.6V | 00:00:00 | 00:00:00 | 00:00:00 | |
| DL1XH-15 | 2026-08-31 14:08:06 | 50.90208 | 8.99904 | 28° | 60km/h | 16425m | -5.8m/s | 0°C | 0% | 0hPa | 0V | 00:00:00 | 00:00:00 | 00:00:00 | |
| DO3DL | 2026-08-31 14:08:06 | 50.90255 | 8.99923 | 4° | 33km/h | 16396m | -6.1m/s | -50.7°C | 0% | 0hPa | 4.6V | 00:00:00 | 00:00:00 | 00:00:00 | |
| AM1SDL-15 | 2026-08-31 14:08:05 | 50.90255 | 8.99923 | 4° | 33km/h | 16449m | -5.5m/s | 0°C | 0% | 0hPa | 4.6V | 00:00:00 | 00:00:00 | 00:00:00 | |
| HSKMA3-T | 2026-08-31 14:08:04 | 50.90234 | 8.99919 | 12° | 49km/h | 16408m | -5.9m/s | -50.8°C | 0% | 0hPa | 4.6V | 00:00:00 | 00:00:00 | 00:00:00 | |
| BIOWL1-15 | 2026-08-31 14:08:02 | 50.90167 | 8.99843 | 57° | 47km/h | 16443m | -5.6m/s | -50.7°C | 0% | 0hPa | 4.6V | 00:00:00 | 00:00:00 | 00:00:00 | |
| DO3MHA-11 | 2026-08-31 14:08:02 | 50.90222 | 8.99916 | 29° | 46km/h | 16420m | -5.5m/s | 0°C | 0% | 0hPa | 4.6V | 00:00:00 | 00:00:00 | 00:00:00 | |
| DO2SHX-10 | 2026-08-31 14:08:01 | 50.90208 | 8.99903 | 29° | 60km/h | 16443m | -5.5m/s | 0°C | 0% | 0hPa | 4.6V | 00:00:00 | 00:00:00 | 00:00:00 | |
| DL1XH-west | 2026-08-31 14:08:00 | 50.90184 | 8.99875 | 44° | 58km/h | 16431m | -6m/s | -50.7°C | 0% | 0hPa | 4.6V | 00:00:00 | 00:00:00 | 00:00:00 | |
| DO3DL | 2026-08-31 14:07:59 | 50.90184 | 8.99875 | 45° | 58km/h | 16431m | -6.0m/s | -50.7°C | 0% | 0hPa | 0V | 00:00:00 | 00:00:00 | 00:00:00 | |
| DL1NUX | 2026-08-31 14:07:58 | 50.90157 | 8.99816 | 60° | 29km/h | 16460m | -5.7m/s | 0°C | 0% | 0hPa | 0V | 00:00:00 | 00:00:00 | 00:00:00 | |
| DM0DOS-11 | 2026-08-31 14:07:57 | 50.90149 | 8.99802 | 33° | 22km/h | 16472m | -6m/s | 0°C | 0% | 0hPa | 0V | 00:00:00 | 00:00:00 | 00:00:00 | |
| DL1XH-15 | 2026-08-31 14:07:56 | 50.90137 | 8.99794 | 13° | 33km/h | 16484m | -5.6m/s | 0°C | 0% | 0hPa | 0V | 00:00:00 | 00:00:00 | 00:00:00 | |
| DF8AY | 2026-08-31 14:07:56 | 50.90157 | 8.99816 | 60° | 29km/h | 16454m | -5.6m/s | -50.8°C | 0% | 0hPa | 4.6V | 00:00:00 | 00:00:00 | 00:00:00 | |
| DO2SHX-10 | 2026-08-31 14:07:55 | 50.90157 | 8.99816 | 61° | 24km/h | 16460m | -5.7m/s | 0°C | 0% | 0hPa | 4.6V | 00:00:00 | 00:00:00 | 00:00:00 | |
| HSKMA3-T | 2026-08-31 14:07:54 | 50.90149 | 8.99802 | 33° | 22km/h | 16466m | -5.9m/s | -50.8°C | 0% | 0hPa | 4.6V | 00:00:00 | 00:00:00 | 00:00:00 | |
| DO3MHA-11 | 2026-08-31 14:07:52 | 50.90144 | 8.99798 | 19° | 51km/h | 16478m | -5.8m/s | 0°C | 0% | 0hPa | 4.6V | 00:00:00 | 00:00:00 | 00:00:00 | |
| BIOWL1-15 | 2026-08-31 14:07:51 | 50.90137 | 8.99794 | 14° | 33km/h | 16478m | -5.9m/s | -51°C | 0% | 0hPa | 4.6V | 00:00:00 | 00:00:00 | 00:00:00 | |
| GOEST3-10 | 2026-08-31 14:07:50 | 50.90127 | 8.99790 | 16° | 55km/h | 16489m | -5.5m/s | 0°C | 0% | 0hPa | 4.6V | 00:00:00 | 00:00:00 | 00:00:00 | |
| DL1XH-west | 2026-08-31 14:07:49 | 50.90104 | 8.99775 | 29° | 57km/h | 16495m | -5.8m/s | -51.2°C | 0% | 0hPa | 4.6V | 00:00:00 | 00:00:00 | 00:00:00 | |
| DL1NUX | 2026-08-31 14:07:48 | 50.90069 | 8.99728 | 59° | 62km/h | 16518m | -5.7m/s | 0°C | 0% | 0hPa | 0V | 00:00:00 | 00:00:00 | 00:00:00 | |
| DC6BW-12 | 2026-08-31 14:07:47 | 50.90092 | 8.99762 | 38° | 60km/h | 16501m | -5.8m/s | -51.2°C | 0% | 0hPa | 4.6V | 00:00:00 | 00:00:00 | 00:00:00 | |
| DO3DL | 2026-08-31 14:07:46 | 50.90079 | 8.99746 | 45° | 62km/h | 16507m | -5.6m/s | -51.2°C | 0% | 0hPa | 4.6V | 00:00:00 | 00:00:00 | 00:00:00 | |
| DF8AY | 2026-08-31 14:07:45 | 50.90061 | 8.99707 | 60° | 58km/h | 16518m | -5.7m/s | -51.2°C | 0% | 0hPa | 4.6V | 00:00:00 | 00:00:00 | 00:00:00 | |
| DB0UT-7 | 2026-08-31 14:07:45 | 50.90069 | 8.99727 | 60° | 46km/h | 16518m | -5.7m/s | 0°C | 0% | 0hPa | 4.6V | 00:00:00 | 00:00:00 | 00:00:00 | |
| HSKMA3-T | 2026-08-31 14:07:43 | 50.90050 | 8.99668 | 74° | 47km/h | 16529m | -5.3m/s | -51.2°C | 0% | 0hPa | 4.6V | 00:00:00 | 00:00:00 | 00:00:00 | |
| DO3MHA-11 | 2026-08-31 14:07:42 | 50.90050 | 8.99668 | 74° | 38km/h | 16535m | -5.2m/s | 0°C | 0% | 0hPa | 4.6V | 00:00:00 | 00:00:00 | 00:00:00 | |
| AA1-15 | 2026-08-31 14:07:41 | 50.90046 | 8.99638 | 78° | 31km/h | 16540m | -5.3m/s | -51.1°C | 0% | 0hPa | 4.6V | 00:00:00 | 00:00:00 | 00:00:00 | |
| DO3DL | 2026-08-31 14:07:40 | 50.90044 | 8.99627 | 71° | 24km/h | 16545m | -5.4m/s | -51.0°C | 0% | 0hPa | 4.6V | 00:00:00 | 00:00:00 | 00:00:00 | |
| DL1XH-west | 2026-08-31 14:07:39 | 50.90041 | 8.99619 | 52° | 22km/h | 16551m | -5.8m/s | -51°C | 0% | 0hPa | 4.6V | 00:00:00 | 00:00:00 | 00:00:00 | |
| DL1NUX | 2026-08-31 14:07:38 | 50.90022 | 8.99596 | 35° | 44km/h | 16573m | -5.3m/s | 0°C | 0% | 0hPa | 0V | 00:00:00 | 00:00:00 | 00:00:00 | |
| AM1SDL-15 | 2026-08-31 14:07:38 | 50.90041 | 8.99619 | 53° | 37km/h | 16602m | -5.7m/s | 0°C | 0% | 0hPa | 0V | 00:00:00 | 00:00:00 | 00:00:00 | |
| DM0DOS-11 | 2026-08-31 14:07:37 | 50.90002 | 8.99569 | 48° | 58km/h | 16584m | -5.5m/s | 0°C | 0% | 0hPa | 0V | 00:00:00 | 00:00:00 | 00:00:00 | |
| DF5WG-10 | 2026-08-31 14:07:37 | 50.90036 | 8.99612 | 37° | 46km/h | 16596m | -5.7m/s | 0°C | 0% | 0hPa | 0V | 00:00:00 | 00:00:00 | 00:00:00 | |
| DL1XH-15 | 2026-08-31 14:07:36 | 50.89985 | 8.99528 | 64° | 62km/h | 16596m | -5.7m/s | 0°C | 0% | 0hPa | 0V | 00:00:00 | 00:00:00 | 00:00:00 | |
| DO2SHX-10 | 2026-08-31 14:07:36 | 50.90030 | 8.99608 | 36° | 44km/h | 16568m | -5.3m/s | 0°C | 0% | 0hPa | 4.6V | 00:00:00 | 00:00:00 | 00:00:00 | |
| DF2AP-13 | 2026-08-31 14:07:35 | 50.90021 | 8.99596 | 36° | 46km/h | 16574m | -5.3m/s | 0°C | 0% | 0hPa | 4.6V | 00:00:00 | 00:00:00 | 00:00:00 | |
| DF8AY | 2026-08-31 14:07:34 | 50.90002 | 8.99569 | 48° | 58km/h | 16579m | -5.5m/s | -50.7°C | 0% | 0hPa | 4.6V | 00:00:00 | 00:00:00 | 00:00:00 | |
| DO2SHX-10 | 2026-08-31 14:07:33 | 50.90002 | 8.99569 | 49° | 58km/h | 16584m | -5.4m/s | 0°C | 0% | 0hPa | 4.6V | 00:00:00 | 00:00:00 | 00:00:00 | |
| BIOWL1-15 | 2026-08-31 14:07:32 | 50.89979 | 8.99506 | 73° | 58km/h | 16596m | -5.7m/s | -50.6°C | 0% | 0hPa | 4.6V | 00:00:00 | 00:00:00 | 00:00:00 | |
| HSKMA3-T | 2026-08-31 14:07:32 | 50.89985 | 8.99528 | 64° | 62km/h | 16590m | -5.7m/s | -50.6°C | 0% | 0hPa | 4.6V | 00:00:00 | 00:00:00 | 00:00:00 | |
| NBG1-10 | 2026-08-31 14:07:31 | 50.89985 | 8.99528 | 65° | 47km/h | 16596m | -5.7m/s | 0°C | 0% | 0hPa | 4.6V | 00:00:00 | 00:00:00 | 00:00:00 | |
| DO2JMG | 2026-08-31 14:07:30 | 50.89976 | 8.99484 | 80° | 53km/h | 16602m | -5.7m/s | -50.5°C | 0% | 0hPa | 4.6V | 00:00:00 | 00:00:00 | 00:00:00 | |
| DL1NUX | 2026-08-31 14:07:28 | 50.89973 | 8.99427 | 57° | 20km/h | 16630m | -5.6m/s | 0°C | 0% | 0hPa | 0V | 00:00:00 | 00:00:00 | 00:00:00 | |
| DL1XH-west | 2026-08-31 14:07:28 | 50.89974 | 8.99449 | 90° | 37km/h | 16613m | -5.8m/s | -50.5°C | 0% | 0hPa | 4.6V | 00:00:00 | 00:00:00 | 00:00:00 | |
| DM0DOS-11 | 2026-08-31 14:07:27 | 50.89964 | 8.99416 | 24° | 29km/h | 16642m | -6m/s | 0°C | 0% | 0hPa | 0V | 00:00:00 | 00:00:00 | 00:00:00 | |
| DO2SHX-10 | 2026-08-31 14:07:27 | 50.89974 | 8.99449 | 90° | 29km/h | 16620m | -5.7m/s | 0°C | 0% | 0hPa | 0V | 00:00:00 | 00:00:00 | 00:00:00 | |
| DL1XH-15 | 2026-08-31 14:07:26 | 50.89947 | 8.99407 | 34° | 47km/h | 16654m | -5.9m/s | 0°C | 0% | 0hPa | 0V | 00:00:00 | 00:00:00 | 00:00:00 | |
| AM1SDL-15 | 2026-08-31 14:07:26 | 50.89974 | 8.99436 | 86° | 40km/h | 16625m | -5.4m/s | 0°C | 0% | 0hPa | 4.6V | 00:00:00 | 00:00:00 | 00:00:00 | |
| GOEST3-10 | 2026-08-31 14:07:25 | 50.89973 | 8.99427 | 58° | 31km/h | 16631m | -5.5m/s | 0°C | 0% | 0hPa | 4.6V | 00:00:00 | 00:00:00 | 00:00:00 | |
| DF8AY | 2026-08-31 14:07:24 | 50.89964 | 8.99416 | 24° | 29km/h | 16636m | -5.6m/s | -50.6°C | 0% | 0hPa | 4.6V | 00:00:00 | 00:00:00 | 00:00:00 | |
| DO3MHA-11 | 2026-08-31 14:07:22 | 50.89956 | 8.99411 | 23° | 49km/h | 16648m | -5.9m/s | 0°C | 0% | 0hPa | 4.6V | 00:00:00 | 00:00:00 | 00:00:00 | |
| HSKMA3-T | 2026-08-31 14:07:21 | 50.89936 | 8.99393 | 35° | 55km/h | 16654m | -5.9m/s | -50.7°C | 0% | 0hPa | 4.6V | 00:00:00 | 00:00:00 | 00:00:00 | |
| DM7RM-13 | 2026-08-31 14:07:20 | 50.89925 | 8.99378 | 45° | 60km/h | 16660m | -5.9m/s | -44.3°C | 0% | 0hPa | 4.6V | 00:00:00 | 00:00:00 | 00:00:00 | |
| DO2JMG | 2026-08-31 14:07:19 | 50.89914 | 8.99360 | 53° | 62km/h | 16666m | -5.8m/s | -50.7°C | 0% | 0hPa | 4.6V | 00:00:00 | 00:00:00 | 00:00:00 | |
| DM0DOS-11 | 2026-08-31 14:07:17 | 50.89892 | 8.99263 | 57° | 29km/h | 16702m | -6m/s | 0°C | 0% | 0hPa | 0V | 00:00:00 | 00:00:00 | 00:00:00 | |
| DL1XH-west | 2026-08-31 14:07:17 | 50.89900 | 8.99317 | 71° | 57km/h | 16678m | -6.1m/s | -50.7°C | 0% | 0hPa | 4.6V | 00:00:00 | 00:00:00 | 00:00:00 | |
| DB0UT-7 | 2026-08-31 14:07:15 | 50.89896 | 8.99293 | 81° | 53km/h | 16690m | -6.0m/s | 0°C | 0% | 0hPa | 4.6V | 00:00:00 | 00:00:00 | 00:00:00 | |
| DO3DL | 2026-08-31 14:07:14 | 50.89894 | 8.99279 | 82° | 40km/h | 16690m | -6.0m/s | -50.7°C | 0% | 0hPa | 4.6V | 00:00:00 | 00:00:00 | 00:00:00 | |
| DF8AY | 2026-08-31 14:07:13 | 50.89890 | 8.99256 | 58° | 24km/h | 16702m | -6m/s | -50.7°C | 0% | 0hPa | 4.6V | 00:00:00 | 00:00:00 | 00:00:00 | |
| Es werden nur die letzten 3500 von 8036 Frames angezeigt. GPX/KML und Diagramme bleiben verfügbar. | |||||||||||||||